<?xml version="1.0" encoding="UTF-8" standalone="no" ?>
<gpx xmlns="http://www.topografix.com/GPX/1/1" xmlns:xsi="http://www.w3.org/2001/XMLSchema-instance" xsi:schemaLocation="http://www.topografix.com/GPX/1/1 http://www.topografix.com/GPX/1/1/gpx.xsd" version="1.1" creator="VisuGPX - https://www.visugpx.com">
  <metadata>
    <name>Trace Top single sur olima</name>
    <desc><![CDATA[Belle trace technique....]]></desc>
  </metadata>
  <trk>
    <name><![CDATA[Trace Top single sur olima_1]]></name>
    <extensions>
      <line xmlns="http://www.topografix.com/GPX/gpx_style/0/2">
        <color>0000FF</color>
        <width>4</width>
      </line>
    </extensions>
    <trkseg>
      <trkpt lat="48.16905" lon="6.41901">
        <ele>358.2</ele>
        <time>2023-10-01T06:35:36Z</time>
      </trkpt>
      <trkpt lat="48.16902" lon="6.41902">
        <ele>358</ele>
        <time>2023-10-01T06:35:37Z</time>
      </trkpt>
      <trkpt lat="48.16899" lon="6.41902">
        <ele>357.8</ele>
        <time>2023-10-01T06:35:38Z</time>
      </trkpt>
      <trkpt lat="48.16897" lon="6.41902">
        <ele>357.6</ele>
        <time>2023-10-01T06:35:39Z</time>
      </trkpt>
      <trkpt lat="48.16896" lon="6.41901">
        <ele>357.4</ele>
        <time>2023-10-01T06:35:40Z</time>
      </trkpt>
      <trkpt lat="48.16895" lon="6.41901">
        <ele>357.2</ele>
        <time>2023-10-01T06:35:41Z</time>
      </trkpt>
      <trkpt lat="48.16894" lon="6.41902">
        <ele>354.6</ele>
        <time>2023-10-01T06:35:50Z</time>
      </trkpt>
      <trkpt lat="48.16892" lon="6.41904">
        <ele>354.6</ele>
        <time>2023-10-01T06:35:51Z</time>
      </trkpt>
      <trkpt lat="48.16891" lon="6.41905">
        <ele>354.4</ele>
        <time>2023-10-01T06:35:52Z</time>
      </trkpt>
      <trkpt lat="48.16891" lon="6.41905">
        <ele>354.4</ele>
        <time>2023-10-01T06:35:53Z</time>
      </trkpt>
      <trkpt lat="48.16891" lon="6.41905">
        <ele>354.4</ele>
        <time>2023-10-01T06:35:54Z</time>
      </trkpt>
      <trkpt lat="48.16891" lon="6.41905">
        <ele>354.2</ele>
        <time>2023-10-01T06:35:55Z</time>
      </trkpt>
      <trkpt lat="48.16891" lon="6.41905">
        <ele>354.2</ele>
        <time>2023-10-01T06:35:57Z</time>
      </trkpt>
      <trkpt lat="48.1689" lon="6.41905">
        <ele>354.2</ele>
        <time>2023-10-01T06:35:58Z</time>
      </trkpt>
      <trkpt lat="48.1689" lon="6.41905">
        <ele>354.2</ele>
        <time>2023-10-01T06:35:59Z</time>
      </trkpt>
      <trkpt lat="48.1689" lon="6.41905">
        <ele>354.2</ele>
        <time>2023-10-01T06:36:00Z</time>
      </trkpt>
      <trkpt lat="48.1689" lon="6.41905">
        <ele>354</ele>
        <time>2023-10-01T06:36:01Z</time>
      </trkpt>
      <trkpt lat="48.1689" lon="6.41905">
        <ele>354</ele>
        <time>2023-10-01T06:36:02Z</time>
      </trkpt>
      <trkpt lat="48.16891" lon="6.41905">
        <ele>354</ele>
        <time>2023-10-01T06:36:03Z</time>
      </trkpt>
      <trkpt lat="48.16892" lon="6.41905">
        <ele>354.2</ele>
        <time>2023-10-01T06:36:04Z</time>
      </trkpt>
      <trkpt lat="48.16893" lon="6.41905">
        <ele>354.2</ele>
        <time>2023-10-01T06:36:05Z</time>
      </trkpt>
      <trkpt lat="48.16893" lon="6.41905">
        <ele>354.2</ele>
        <time>2023-10-01T06:36:06Z</time>
      </trkpt>
      <trkpt lat="48.16893" lon="6.41905">
        <ele>354.4</ele>
        <time>2023-10-01T06:36:07Z</time>
      </trkpt>
      <trkpt lat="48.16892" lon="6.41904">
        <ele>354.4</ele>
        <time>2023-10-01T06:38:43Z</time>
      </trkpt>
      <trkpt lat="48.16892" lon="6.41904">
        <ele>354.4</ele>
        <time>2023-10-01T06:38:44Z</time>
      </trkpt>
      <trkpt lat="48.16892" lon="6.41904">
        <ele>354.4</ele>
        <time>2023-10-01T06:39:13Z</time>
      </trkpt>
      <trkpt lat="48.16892" lon="6.41904">
        <ele>354.4</ele>
        <time>2023-10-01T06:39:14Z</time>
      </trkpt>
      <trkpt lat="48.16893" lon="6.41904">
        <ele>354.4</ele>
        <time>2023-10-01T06:43:33Z</time>
      </trkpt>
      <trkpt lat="48.16893" lon="6.41904">
        <ele>354.4</ele>
        <time>2023-10-01T06:43:34Z</time>
      </trkpt>
      <trkpt lat="48.16894" lon="6.41906">
        <ele>354.4</ele>
        <time>2023-10-01T06:43:35Z</time>
      </trkpt>
      <trkpt lat="48.16895" lon="6.41908">
        <ele>354.4</ele>
        <time>2023-10-01T06:43:36Z</time>
      </trkpt>
      <trkpt lat="48.16898" lon="6.41908">
        <ele>354.4</ele>
        <time>2023-10-01T06:43:37Z</time>
      </trkpt>
      <trkpt lat="48.16899" lon="6.41907">
        <ele>354.4</ele>
        <time>2023-10-01T06:43:38Z</time>
      </trkpt>
      <trkpt lat="48.169" lon="6.41905">
        <ele>354.6</ele>
        <time>2023-10-01T06:43:39Z</time>
      </trkpt>
      <trkpt lat="48.16901" lon="6.41903">
        <ele>354.6</ele>
        <time>2023-10-01T06:43:40Z</time>
      </trkpt>
      <trkpt lat="48.16903" lon="6.419">
        <ele>354.6</ele>
        <time>2023-10-01T06:43:41Z</time>
      </trkpt>
      <trkpt lat="48.16905" lon="6.41899">
        <ele>354.8</ele>
        <time>2023-10-01T06:43:42Z</time>
      </trkpt>
      <trkpt lat="48.16908" lon="6.419">
        <ele>355</ele>
        <time>2023-10-01T06:43:43Z</time>
      </trkpt>
      <trkpt lat="48.16913" lon="6.41867">
        <ele>360.8</ele>
        <time>2023-10-01T06:44:23Z</time>
      </trkpt>
      <trkpt lat="48.1691" lon="6.41864">
        <ele>360.8</ele>
        <time>2023-10-01T06:44:24Z</time>
      </trkpt>
      <trkpt lat="48.16907" lon="6.41862">
        <ele>360.6</ele>
        <time>2023-10-01T06:44:25Z</time>
      </trkpt>
      <trkpt lat="48.16905" lon="6.41859">
        <ele>360.6</ele>
        <time>2023-10-01T06:44:26Z</time>
      </trkpt>
      <trkpt lat="48.16902" lon="6.41857">
        <ele>360.6</ele>
        <time>2023-10-01T06:44:27Z</time>
      </trkpt>
      <trkpt lat="48.16899" lon="6.41855">
        <ele>360.6</ele>
        <time>2023-10-01T06:44:28Z</time>
      </trkpt>
      <trkpt lat="48.16896" lon="6.41853">
        <ele>360.8</ele>
        <time>2023-10-01T06:44:29Z</time>
      </trkpt>
      <trkpt lat="48.16894" lon="6.41851">
        <ele>360.8</ele>
        <time>2023-10-01T06:44:30Z</time>
      </trkpt>
      <trkpt lat="48.16892" lon="6.41848">
        <ele>360.8</ele>
        <time>2023-10-01T06:44:31Z</time>
      </trkpt>
      <trkpt lat="48.16891" lon="6.41846">
        <ele>361</ele>
        <time>2023-10-01T06:44:32Z</time>
      </trkpt>
      <trkpt lat="48.16889" lon="6.41844">
        <ele>361.2</ele>
        <time>2023-10-01T06:44:33Z</time>
      </trkpt>
      <trkpt lat="48.16887" lon="6.41841">
        <ele>361.2</ele>
        <time>2023-10-01T06:44:34Z</time>
      </trkpt>
      <trkpt lat="48.16885" lon="6.41839">
        <ele>361.4</ele>
        <time>2023-10-01T06:44:35Z</time>
      </trkpt>
      <trkpt lat="48.16883" lon="6.41837">
        <ele>361.4</ele>
        <time>2023-10-01T06:44:36Z</time>
      </trkpt>
      <trkpt lat="48.16881" lon="6.41835">
        <ele>361.6</ele>
        <time>2023-10-01T06:44:37Z</time>
      </trkpt>
      <trkpt lat="48.16879" lon="6.41832">
        <ele>361.6</ele>
        <time>2023-10-01T06:44:38Z</time>
      </trkpt>
      <trkpt lat="48.16878" lon="6.41831">
        <ele>361.6</ele>
        <time>2023-10-01T06:44:39Z</time>
      </trkpt>
      <trkpt lat="48.16876" lon="6.41828">
        <ele>361.8</ele>
        <time>2023-10-01T06:44:40Z</time>
      </trkpt>
      <trkpt lat="48.16874" lon="6.41825">
        <ele>361.8</ele>
        <time>2023-10-01T06:44:41Z</time>
      </trkpt>
      <trkpt lat="48.16873" lon="6.41822">
        <ele>362</ele>
        <time>2023-10-01T06:44:42Z</time>
      </trkpt>
      <trkpt lat="48.1687" lon="6.4182">
        <ele>362.2</ele>
        <time>2023-10-01T06:44:43Z</time>
      </trkpt>
      <trkpt lat="48.16867" lon="6.41818">
        <ele>362.2</ele>
        <time>2023-10-01T06:44:44Z</time>
      </trkpt>
      <trkpt lat="48.16865" lon="6.41816">
        <ele>362.2</ele>
        <time>2023-10-01T06:44:45Z</time>
      </trkpt>
      <trkpt lat="48.16863" lon="6.41814">
        <ele>362.4</ele>
        <time>2023-10-01T06:44:46Z</time>
      </trkpt>
      <trkpt lat="48.16859" lon="6.41811">
        <ele>362.4</ele>
        <time>2023-10-01T06:44:47Z</time>
      </trkpt>
      <trkpt lat="48.16856" lon="6.41808">
        <ele>362.4</ele>
        <time>2023-10-01T06:44:48Z</time>
      </trkpt>
      <trkpt lat="48.16853" lon="6.41806">
        <ele>362.6</ele>
        <time>2023-10-01T06:44:49Z</time>
      </trkpt>
      <trkpt lat="48.16851" lon="6.41805">
        <ele>362.6</ele>
        <time>2023-10-01T06:44:50Z</time>
      </trkpt>
      <trkpt lat="48.16848" lon="6.41802">
        <ele>362.8</ele>
        <time>2023-10-01T06:44:51Z</time>
      </trkpt>
      <trkpt lat="48.16845" lon="6.41799">
        <ele>362.8</ele>
        <time>2023-10-01T06:44:52Z</time>
      </trkpt>
      <trkpt lat="48.16842" lon="6.41796">
        <ele>362.8</ele>
        <time>2023-10-01T06:44:53Z</time>
      </trkpt>
      <trkpt lat="48.1684" lon="6.41793">
        <ele>363</ele>
        <time>2023-10-01T06:44:54Z</time>
      </trkpt>
      <trkpt lat="48.16838" lon="6.4179">
        <ele>362.8</ele>
        <time>2023-10-01T06:44:55Z</time>
      </trkpt>
      <trkpt lat="48.16835" lon="6.41788">
        <ele>363</ele>
        <time>2023-10-01T06:44:56Z</time>
      </trkpt>
      <trkpt lat="48.16832" lon="6.41784">
        <ele>363</ele>
        <time>2023-10-01T06:44:57Z</time>
      </trkpt>
      <trkpt lat="48.1683" lon="6.41781">
        <ele>363.2</ele>
        <time>2023-10-01T06:44:58Z</time>
      </trkpt>
      <trkpt lat="48.16827" lon="6.41777">
        <ele>363.2</ele>
        <time>2023-10-01T06:44:59Z</time>
      </trkpt>
      <trkpt lat="48.16824" lon="6.41773">
        <ele>363.2</ele>
        <time>2023-10-01T06:45:00Z</time>
      </trkpt>
      <trkpt lat="48.16821" lon="6.41771">
        <ele>363.2</ele>
        <time>2023-10-01T06:45:01Z</time>
      </trkpt>
      <trkpt lat="48.16818" lon="6.41769">
        <ele>363.2</ele>
        <time>2023-10-01T06:45:02Z</time>
      </trkpt>
      <trkpt lat="48.16815" lon="6.41765">
        <ele>363.2</ele>
        <time>2023-10-01T06:45:03Z</time>
      </trkpt>
      <trkpt lat="48.16812" lon="6.4176">
        <ele>363.2</ele>
        <time>2023-10-01T06:45:04Z</time>
      </trkpt>
      <trkpt lat="48.1681" lon="6.41756">
        <ele>363.2</ele>
        <time>2023-10-01T06:45:05Z</time>
      </trkpt>
      <trkpt lat="48.16808" lon="6.41754">
        <ele>363.6</ele>
        <time>2023-10-01T06:45:06Z</time>
      </trkpt>
      <trkpt lat="48.16806" lon="6.41751">
        <ele>363.6</ele>
        <time>2023-10-01T06:45:07Z</time>
      </trkpt>
      <trkpt lat="48.16805" lon="6.41748">
        <ele>364</ele>
        <time>2023-10-01T06:45:08Z</time>
      </trkpt>
      <trkpt lat="48.16801" lon="6.41745">
        <ele>364.2</ele>
        <time>2023-10-01T06:45:09Z</time>
      </trkpt>
      <trkpt lat="48.16799" lon="6.41742">
        <ele>364.2</ele>
        <time>2023-10-01T06:45:10Z</time>
      </trkpt>
      <trkpt lat="48.16799" lon="6.4174">
        <ele>364.2</ele>
        <time>2023-10-01T06:45:11Z</time>
      </trkpt>
      <trkpt lat="48.16796" lon="6.41736">
        <ele>364.2</ele>
        <time>2023-10-01T06:45:12Z</time>
      </trkpt>
      <trkpt lat="48.16794" lon="6.41733">
        <ele>364.6</ele>
        <time>2023-10-01T06:45:13Z</time>
      </trkpt>
      <trkpt lat="48.16793" lon="6.41728">
        <ele>364.6</ele>
        <time>2023-10-01T06:45:14Z</time>
      </trkpt>
      <trkpt lat="48.16791" lon="6.41724">
        <ele>364.8</ele>
        <time>2023-10-01T06:45:15Z</time>
      </trkpt>
      <trkpt lat="48.16789" lon="6.41722">
        <ele>364.8</ele>
        <time>2023-10-01T06:45:16Z</time>
      </trkpt>
      <trkpt lat="48.16783" lon="6.4172">
        <ele>365</ele>
        <time>2023-10-01T06:45:17Z</time>
      </trkpt>
      <trkpt lat="48.16781" lon="6.41717">
        <ele>365.2</ele>
        <time>2023-10-01T06:45:18Z</time>
      </trkpt>
      <trkpt lat="48.16779" lon="6.41714">
        <ele>365.4</ele>
        <time>2023-10-01T06:45:19Z</time>
      </trkpt>
      <trkpt lat="48.16778" lon="6.41712">
        <ele>365.4</ele>
        <time>2023-10-01T06:45:20Z</time>
      </trkpt>
      <trkpt lat="48.16777" lon="6.4171">
        <ele>365.6</ele>
        <time>2023-10-01T06:45:21Z</time>
      </trkpt>
      <trkpt lat="48.16775" lon="6.41707">
        <ele>365.6</ele>
        <time>2023-10-01T06:45:22Z</time>
      </trkpt>
      <trkpt lat="48.16773" lon="6.41704">
        <ele>365.6</ele>
        <time>2023-10-01T06:45:23Z</time>
      </trkpt>
      <trkpt lat="48.16771" lon="6.41702">
        <ele>365.6</ele>
        <time>2023-10-01T06:45:24Z</time>
      </trkpt>
      <trkpt lat="48.16771" lon="6.41699">
        <ele>365.8</ele>
        <time>2023-10-01T06:45:25Z</time>
      </trkpt>
      <trkpt lat="48.1677" lon="6.41695">
        <ele>365.8</ele>
        <time>2023-10-01T06:45:26Z</time>
      </trkpt>
      <trkpt lat="48.16768" lon="6.41691">
        <ele>366</ele>
        <time>2023-10-01T06:45:27Z</time>
      </trkpt>
      <trkpt lat="48.16766" lon="6.41688">
        <ele>366</ele>
        <time>2023-10-01T06:45:28Z</time>
      </trkpt>
      <trkpt lat="48.16762" lon="6.41687">
        <ele>366</ele>
        <time>2023-10-01T06:45:29Z</time>
      </trkpt>
      <trkpt lat="48.16761" lon="6.41685">
        <ele>366.2</ele>
        <time>2023-10-01T06:45:30Z</time>
      </trkpt>
      <trkpt lat="48.1676" lon="6.41682">
        <ele>366.2</ele>
        <time>2023-10-01T06:45:31Z</time>
      </trkpt>
      <trkpt lat="48.16757" lon="6.41679">
        <ele>366.4</ele>
        <time>2023-10-01T06:45:32Z</time>
      </trkpt>
      <trkpt lat="48.16755" lon="6.41675">
        <ele>366.4</ele>
        <time>2023-10-01T06:45:33Z</time>
      </trkpt>
      <trkpt lat="48.16752" lon="6.41672">
        <ele>366.4</ele>
        <time>2023-10-01T06:45:34Z</time>
      </trkpt>
      <trkpt lat="48.1675" lon="6.41668">
        <ele>366.6</ele>
        <time>2023-10-01T06:45:35Z</time>
      </trkpt>
      <trkpt lat="48.16749" lon="6.41664">
        <ele>366.8</ele>
        <time>2023-10-01T06:45:36Z</time>
      </trkpt>
      <trkpt lat="48.16748" lon="6.4166">
        <ele>366.8</ele>
        <time>2023-10-01T06:45:37Z</time>
      </trkpt>
      <trkpt lat="48.16745" lon="6.41657">
        <ele>366.8</ele>
        <time>2023-10-01T06:45:38Z</time>
      </trkpt>
      <trkpt lat="48.16743" lon="6.41654">
        <ele>367</ele>
        <time>2023-10-01T06:45:39Z</time>
      </trkpt>
      <trkpt lat="48.1674" lon="6.4165">
        <ele>366.8</ele>
        <time>2023-10-01T06:45:40Z</time>
      </trkpt>
      <trkpt lat="48.16739" lon="6.41647">
        <ele>366.8</ele>
        <time>2023-10-01T06:45:41Z</time>
      </trkpt>
      <trkpt lat="48.16736" lon="6.41643">
        <ele>367</ele>
        <time>2023-10-01T06:45:42Z</time>
      </trkpt>
      <trkpt lat="48.16735" lon="6.4164">
        <ele>367</ele>
        <time>2023-10-01T06:45:43Z</time>
      </trkpt>
      <trkpt lat="48.16733" lon="6.41636">
        <ele>367</ele>
        <time>2023-10-01T06:45:44Z</time>
      </trkpt>
      <trkpt lat="48.16732" lon="6.41631">
        <ele>367</ele>
        <time>2023-10-01T06:45:45Z</time>
      </trkpt>
      <trkpt lat="48.1673" lon="6.41627">
        <ele>367</ele>
        <time>2023-10-01T06:45:46Z</time>
      </trkpt>
      <trkpt lat="48.16729" lon="6.41622">
        <ele>367</ele>
        <time>2023-10-01T06:45:47Z</time>
      </trkpt>
      <trkpt lat="48.16727" lon="6.41616">
        <ele>367.2</ele>
        <time>2023-10-01T06:45:48Z</time>
      </trkpt>
      <trkpt lat="48.16727" lon="6.41615">
        <ele>367.2</ele>
        <time>2023-10-01T06:45:49Z</time>
      </trkpt>
      <trkpt lat="48.16723" lon="6.41611">
        <ele>367.4</ele>
        <time>2023-10-01T06:45:50Z</time>
      </trkpt>
      <trkpt lat="48.16721" lon="6.41606">
        <ele>367.4</ele>
        <time>2023-10-01T06:45:51Z</time>
      </trkpt>
      <trkpt lat="48.16719" lon="6.41599">
        <ele>367.6</ele>
        <time>2023-10-01T06:45:52Z</time>
      </trkpt>
      <trkpt lat="48.16717" lon="6.41593">
        <ele>367.6</ele>
        <time>2023-10-01T06:45:53Z</time>
      </trkpt>
      <trkpt lat="48.16713" lon="6.41589">
        <ele>367.6</ele>
        <time>2023-10-01T06:45:54Z</time>
      </trkpt>
      <trkpt lat="48.16711" lon="6.41585">
        <ele>367.8</ele>
        <time>2023-10-01T06:45:55Z</time>
      </trkpt>
      <trkpt lat="48.16708" lon="6.41582">
        <ele>368</ele>
        <time>2023-10-01T06:45:56Z</time>
      </trkpt>
      <trkpt lat="48.16706" lon="6.4158">
        <ele>368</ele>
        <time>2023-10-01T06:45:57Z</time>
      </trkpt>
      <trkpt lat="48.16705" lon="6.41576">
        <ele>368.2</ele>
        <time>2023-10-01T06:45:58Z</time>
      </trkpt>
      <trkpt lat="48.16704" lon="6.41572">
        <ele>368.2</ele>
        <time>2023-10-01T06:45:59Z</time>
      </trkpt>
      <trkpt lat="48.16704" lon="6.41571">
        <ele>368.4</ele>
        <time>2023-10-01T06:46:00Z</time>
      </trkpt>
      <trkpt lat="48.16699" lon="6.41566">
        <ele>368.4</ele>
        <time>2023-10-01T06:46:01Z</time>
      </trkpt>
      <trkpt lat="48.16696" lon="6.41563">
        <ele>368.4</ele>
        <time>2023-10-01T06:46:02Z</time>
      </trkpt>
      <trkpt lat="48.16693" lon="6.4156">
        <ele>368.4</ele>
        <time>2023-10-01T06:46:03Z</time>
      </trkpt>
      <trkpt lat="48.1669" lon="6.41558">
        <ele>368.4</ele>
        <time>2023-10-01T06:46:04Z</time>
      </trkpt>
      <trkpt lat="48.16687" lon="6.41554">
        <ele>368.6</ele>
        <time>2023-10-01T06:46:05Z</time>
      </trkpt>
      <trkpt lat="48.16686" lon="6.41552">
        <ele>368.6</ele>
        <time>2023-10-01T06:46:06Z</time>
      </trkpt>
      <trkpt lat="48.16684" lon="6.41548">
        <ele>368.6</ele>
        <time>2023-10-01T06:46:07Z</time>
      </trkpt>
      <trkpt lat="48.16684" lon="6.41547">
        <ele>368.6</ele>
        <time>2023-10-01T06:46:08Z</time>
      </trkpt>
      <trkpt lat="48.16683" lon="6.41545">
        <ele>368.8</ele>
        <time>2023-10-01T06:46:09Z</time>
      </trkpt>
      <trkpt lat="48.16681" lon="6.4154">
        <ele>368.8</ele>
        <time>2023-10-01T06:46:10Z</time>
      </trkpt>
      <trkpt lat="48.16678" lon="6.41538">
        <ele>369</ele>
        <time>2023-10-01T06:46:11Z</time>
      </trkpt>
      <trkpt lat="48.16675" lon="6.41535">
        <ele>369</ele>
        <time>2023-10-01T06:46:12Z</time>
      </trkpt>
      <trkpt lat="48.16675" lon="6.41534">
        <ele>369.2</ele>
        <time>2023-10-01T06:46:13Z</time>
      </trkpt>
      <trkpt lat="48.16672" lon="6.41528">
        <ele>369.2</ele>
        <time>2023-10-01T06:46:14Z</time>
      </trkpt>
      <trkpt lat="48.16667" lon="6.41522">
        <ele>369.4</ele>
        <time>2023-10-01T06:46:15Z</time>
      </trkpt>
      <trkpt lat="48.16662" lon="6.4152">
        <ele>369.6</ele>
        <time>2023-10-01T06:46:16Z</time>
      </trkpt>
      <trkpt lat="48.16658" lon="6.41514">
        <ele>369.6</ele>
        <time>2023-10-01T06:46:17Z</time>
      </trkpt>
      <trkpt lat="48.16654" lon="6.41511">
        <ele>369.8</ele>
        <time>2023-10-01T06:46:18Z</time>
      </trkpt>
      <trkpt lat="48.16652" lon="6.41508">
        <ele>369.8</ele>
        <time>2023-10-01T06:46:19Z</time>
      </trkpt>
      <trkpt lat="48.1665" lon="6.41503">
        <ele>369.8</ele>
        <time>2023-10-01T06:46:20Z</time>
      </trkpt>
      <trkpt lat="48.16647" lon="6.415">
        <ele>369.8</ele>
        <time>2023-10-01T06:46:21Z</time>
      </trkpt>
      <trkpt lat="48.16646" lon="6.41497">
        <ele>370</ele>
        <time>2023-10-01T06:46:22Z</time>
      </trkpt>
      <trkpt lat="48.16646" lon="6.41496">
        <ele>370</ele>
        <time>2023-10-01T06:46:23Z</time>
      </trkpt>
      <trkpt lat="48.16646" lon="6.41496">
        <ele>370</ele>
        <time>2023-10-01T06:46:24Z</time>
      </trkpt>
      <trkpt lat="48.16646" lon="6.41496">
        <ele>370</ele>
        <time>2023-10-01T06:46:25Z</time>
      </trkpt>
      <trkpt lat="48.16646" lon="6.41496">
        <ele>369.8</ele>
        <time>2023-10-01T06:46:26Z</time>
      </trkpt>
      <trkpt lat="48.16646" lon="6.41496">
        <ele>369.6</ele>
        <time>2023-10-01T06:46:27Z</time>
      </trkpt>
      <trkpt lat="48.1664" lon="6.41484">
        <ele>369.6</ele>
        <time>2023-10-01T06:46:28Z</time>
      </trkpt>
      <trkpt lat="48.16637" lon="6.41476">
        <ele>369.6</ele>
        <time>2023-10-01T06:46:29Z</time>
      </trkpt>
      <trkpt lat="48.16635" lon="6.41471">
        <ele>369.6</ele>
        <time>2023-10-01T06:46:30Z</time>
      </trkpt>
      <trkpt lat="48.16633" lon="6.41465">
        <ele>369.6</ele>
        <time>2023-10-01T06:46:31Z</time>
      </trkpt>
      <trkpt lat="48.16631" lon="6.4146">
        <ele>369.8</ele>
        <time>2023-10-01T06:46:32Z</time>
      </trkpt>
      <trkpt lat="48.16627" lon="6.41455">
        <ele>369.8</ele>
        <time>2023-10-01T06:46:33Z</time>
      </trkpt>
      <trkpt lat="48.16625" lon="6.41452">
        <ele>370</ele>
        <time>2023-10-01T06:46:34Z</time>
      </trkpt>
      <trkpt lat="48.16625" lon="6.41449">
        <ele>370</ele>
        <time>2023-10-01T06:46:35Z</time>
      </trkpt>
      <trkpt lat="48.16623" lon="6.41448">
        <ele>370</ele>
        <time>2023-10-01T06:46:36Z</time>
      </trkpt>
      <trkpt lat="48.16622" lon="6.41447">
        <ele>369.8</ele>
        <time>2023-10-01T06:46:37Z</time>
      </trkpt>
      <trkpt lat="48.16622" lon="6.41446">
        <ele>369.8</ele>
        <time>2023-10-01T06:46:38Z</time>
      </trkpt>
      <trkpt lat="48.16618" lon="6.41444">
        <ele>369.8</ele>
        <time>2023-10-01T06:46:39Z</time>
      </trkpt>
      <trkpt lat="48.16614" lon="6.4144">
        <ele>369.8</ele>
        <time>2023-10-01T06:46:40Z</time>
      </trkpt>
      <trkpt lat="48.16611" lon="6.41436">
        <ele>369.8</ele>
        <time>2023-10-01T06:46:41Z</time>
      </trkpt>
      <trkpt lat="48.16606" lon="6.41432">
        <ele>369.8</ele>
        <time>2023-10-01T06:46:42Z</time>
      </trkpt>
      <trkpt lat="48.16605" lon="6.41426">
        <ele>369.8</ele>
        <time>2023-10-01T06:46:43Z</time>
      </trkpt>
      <trkpt lat="48.16599" lon="6.4142">
        <ele>369.8</ele>
        <time>2023-10-01T06:46:44Z</time>
      </trkpt>
      <trkpt lat="48.16593" lon="6.41415">
        <ele>369.8</ele>
        <time>2023-10-01T06:46:45Z</time>
      </trkpt>
      <trkpt lat="48.16588" lon="6.41411">
        <ele>369.8</ele>
        <time>2023-10-01T06:46:46Z</time>
      </trkpt>
      <trkpt lat="48.16587" lon="6.41405">
        <ele>369.8</ele>
        <time>2023-10-01T06:46:47Z</time>
      </trkpt>
      <trkpt lat="48.16585" lon="6.41399">
        <ele>369.8</ele>
        <time>2023-10-01T06:46:48Z</time>
      </trkpt>
      <trkpt lat="48.16579" lon="6.41392">
        <ele>369.8</ele>
        <time>2023-10-01T06:46:49Z</time>
      </trkpt>
      <trkpt lat="48.16572" lon="6.4139">
        <ele>369.8</ele>
        <time>2023-10-01T06:46:50Z</time>
      </trkpt>
      <trkpt lat="48.16568" lon="6.41388">
        <ele>369.8</ele>
        <time>2023-10-01T06:46:51Z</time>
      </trkpt>
      <trkpt lat="48.16565" lon="6.41387">
        <ele>369.8</ele>
        <time>2023-10-01T06:46:52Z</time>
      </trkpt>
      <trkpt lat="48.16563" lon="6.41385">
        <ele>369.8</ele>
        <time>2023-10-01T06:46:53Z</time>
      </trkpt>
      <trkpt lat="48.16561" lon="6.41378">
        <ele>369.8</ele>
        <time>2023-10-01T06:46:54Z</time>
      </trkpt>
      <trkpt lat="48.16559" lon="6.41373">
        <ele>369.8</ele>
        <time>2023-10-01T06:46:55Z</time>
      </trkpt>
      <trkpt lat="48.16559" lon="6.41369">
        <ele>369.8</ele>
        <time>2023-10-01T06:46:56Z</time>
      </trkpt>
      <trkpt lat="48.16559" lon="6.41365">
        <ele>369.8</ele>
        <time>2023-10-01T06:46:57Z</time>
      </trkpt>
      <trkpt lat="48.16557" lon="6.41362">
        <ele>369.8</ele>
        <time>2023-10-01T06:46:58Z</time>
      </trkpt>
      <trkpt lat="48.16555" lon="6.41358">
        <ele>369.8</ele>
        <time>2023-10-01T06:46:59Z</time>
      </trkpt>
      <trkpt lat="48.16552" lon="6.41354">
        <ele>369.8</ele>
        <time>2023-10-01T06:47:00Z</time>
      </trkpt>
      <trkpt lat="48.16548" lon="6.41346">
        <ele>369.8</ele>
        <time>2023-10-01T06:47:01Z</time>
      </trkpt>
      <trkpt lat="48.16545" lon="6.41339">
        <ele>370</ele>
        <time>2023-10-01T06:47:02Z</time>
      </trkpt>
      <trkpt lat="48.16543" lon="6.41334">
        <ele>370.2</ele>
        <time>2023-10-01T06:47:03Z</time>
      </trkpt>
      <trkpt lat="48.1654" lon="6.41329">
        <ele>370.2</ele>
        <time>2023-10-01T06:47:04Z</time>
      </trkpt>
      <trkpt lat="48.16538" lon="6.41325">
        <ele>370.2</ele>
        <time>2023-10-01T06:47:05Z</time>
      </trkpt>
      <trkpt lat="48.16536" lon="6.41323">
        <ele>370.2</ele>
        <time>2023-10-01T06:47:06Z</time>
      </trkpt>
      <trkpt lat="48.16529" lon="6.41321">
        <ele>370.6</ele>
        <time>2023-10-01T06:47:07Z</time>
      </trkpt>
      <trkpt lat="48.16527" lon="6.41318">
        <ele>370.8</ele>
        <time>2023-10-01T06:47:08Z</time>
      </trkpt>
      <trkpt lat="48.16524" lon="6.41314">
        <ele>371</ele>
        <time>2023-10-01T06:47:09Z</time>
      </trkpt>
      <trkpt lat="48.16521" lon="6.4131">
        <ele>371.2</ele>
        <time>2023-10-01T06:47:10Z</time>
      </trkpt>
      <trkpt lat="48.16517" lon="6.41305">
        <ele>371.2</ele>
        <time>2023-10-01T06:47:11Z</time>
      </trkpt>
      <trkpt lat="48.16515" lon="6.41301">
        <ele>371.4</ele>
        <time>2023-10-01T06:47:12Z</time>
      </trkpt>
      <trkpt lat="48.16513" lon="6.413">
        <ele>371.4</ele>
        <time>2023-10-01T06:47:13Z</time>
      </trkpt>
      <trkpt lat="48.16511" lon="6.41297">
        <ele>371.6</ele>
        <time>2023-10-01T06:47:14Z</time>
      </trkpt>
      <trkpt lat="48.16509" lon="6.41295">
        <ele>371.6</ele>
        <time>2023-10-01T06:47:15Z</time>
      </trkpt>
      <trkpt lat="48.16507" lon="6.41291">
        <ele>371.6</ele>
        <time>2023-10-01T06:47:16Z</time>
      </trkpt>
      <trkpt lat="48.16502" lon="6.41287">
        <ele>371.6</ele>
        <time>2023-10-01T06:47:17Z</time>
      </trkpt>
      <trkpt lat="48.165" lon="6.41282">
        <ele>371.6</ele>
        <time>2023-10-01T06:47:18Z</time>
      </trkpt>
      <trkpt lat="48.16499" lon="6.41278">
        <ele>371.8</ele>
        <time>2023-10-01T06:47:19Z</time>
      </trkpt>
      <trkpt lat="48.16496" lon="6.41271">
        <ele>372</ele>
        <time>2023-10-01T06:47:20Z</time>
      </trkpt>
      <trkpt lat="48.16495" lon="6.41266">
        <ele>372</ele>
        <time>2023-10-01T06:47:21Z</time>
      </trkpt>
      <trkpt lat="48.16493" lon="6.4126">
        <ele>372.2</ele>
        <time>2023-10-01T06:47:22Z</time>
      </trkpt>
      <trkpt lat="48.16491" lon="6.41255">
        <ele>372.2</ele>
        <time>2023-10-01T06:47:23Z</time>
      </trkpt>
      <trkpt lat="48.16489" lon="6.4125">
        <ele>372.4</ele>
        <time>2023-10-01T06:47:24Z</time>
      </trkpt>
      <trkpt lat="48.16488" lon="6.41248">
        <ele>372.4</ele>
        <time>2023-10-01T06:47:25Z</time>
      </trkpt>
      <trkpt lat="48.16486" lon="6.41244">
        <ele>372.6</ele>
        <time>2023-10-01T06:47:26Z</time>
      </trkpt>
      <trkpt lat="48.16482" lon="6.41241">
        <ele>372.8</ele>
        <time>2023-10-01T06:47:27Z</time>
      </trkpt>
      <trkpt lat="48.1648" lon="6.41239">
        <ele>373</ele>
        <time>2023-10-01T06:47:28Z</time>
      </trkpt>
      <trkpt lat="48.16478" lon="6.41236">
        <ele>373</ele>
        <time>2023-10-01T06:47:29Z</time>
      </trkpt>
      <trkpt lat="48.16476" lon="6.41232">
        <ele>373.2</ele>
        <time>2023-10-01T06:47:30Z</time>
      </trkpt>
      <trkpt lat="48.16475" lon="6.41228">
        <ele>373.2</ele>
        <time>2023-10-01T06:47:31Z</time>
      </trkpt>
      <trkpt lat="48.16474" lon="6.41225">
        <ele>373.4</ele>
        <time>2023-10-01T06:47:32Z</time>
      </trkpt>
      <trkpt lat="48.16472" lon="6.41222">
        <ele>373.6</ele>
        <time>2023-10-01T06:47:33Z</time>
      </trkpt>
      <trkpt lat="48.16471" lon="6.41217">
        <ele>373.4</ele>
        <time>2023-10-01T06:47:34Z</time>
      </trkpt>
      <trkpt lat="48.16471" lon="6.41212">
        <ele>373.6</ele>
        <time>2023-10-01T06:47:35Z</time>
      </trkpt>
      <trkpt lat="48.1647" lon="6.41207">
        <ele>373.8</ele>
        <time>2023-10-01T06:47:36Z</time>
      </trkpt>
      <trkpt lat="48.16467" lon="6.41203">
        <ele>374</ele>
        <time>2023-10-01T06:47:37Z</time>
      </trkpt>
      <trkpt lat="48.16464" lon="6.412">
        <ele>374.2</ele>
        <time>2023-10-01T06:47:38Z</time>
      </trkpt>
      <trkpt lat="48.16463" lon="6.41196">
        <ele>374.2</ele>
        <time>2023-10-01T06:47:39Z</time>
      </trkpt>
      <trkpt lat="48.16463" lon="6.41192">
        <ele>374.4</ele>
        <time>2023-10-01T06:47:40Z</time>
      </trkpt>
      <trkpt lat="48.16461" lon="6.41188">
        <ele>374.4</ele>
        <time>2023-10-01T06:47:41Z</time>
      </trkpt>
      <trkpt lat="48.16459" lon="6.41184">
        <ele>374.4</ele>
        <time>2023-10-01T06:47:42Z</time>
      </trkpt>
      <trkpt lat="48.16457" lon="6.41181">
        <ele>374.4</ele>
        <time>2023-10-01T06:47:43Z</time>
      </trkpt>
      <trkpt lat="48.16453" lon="6.41178">
        <ele>374.6</ele>
        <time>2023-10-01T06:47:44Z</time>
      </trkpt>
      <trkpt lat="48.1645" lon="6.41174">
        <ele>374.8</ele>
        <time>2023-10-01T06:47:45Z</time>
      </trkpt>
      <trkpt lat="48.16446" lon="6.4117">
        <ele>374.8</ele>
        <time>2023-10-01T06:47:46Z</time>
      </trkpt>
      <trkpt lat="48.16442" lon="6.41167">
        <ele>375</ele>
        <time>2023-10-01T06:47:47Z</time>
      </trkpt>
      <trkpt lat="48.1644" lon="6.41163">
        <ele>375</ele>
        <time>2023-10-01T06:47:48Z</time>
      </trkpt>
      <trkpt lat="48.16439" lon="6.41157">
        <ele>375</ele>
        <time>2023-10-01T06:47:49Z</time>
      </trkpt>
      <trkpt lat="48.16438" lon="6.4115">
        <ele>375</ele>
        <time>2023-10-01T06:47:50Z</time>
      </trkpt>
      <trkpt lat="48.16437" lon="6.41145">
        <ele>375.2</ele>
        <time>2023-10-01T06:47:51Z</time>
      </trkpt>
      <trkpt lat="48.16436" lon="6.4114">
        <ele>375.2</ele>
        <time>2023-10-01T06:47:52Z</time>
      </trkpt>
      <trkpt lat="48.16435" lon="6.41134">
        <ele>375.2</ele>
        <time>2023-10-01T06:47:53Z</time>
      </trkpt>
      <trkpt lat="48.16432" lon="6.41129">
        <ele>375.4</ele>
        <time>2023-10-01T06:47:54Z</time>
      </trkpt>
      <trkpt lat="48.16427" lon="6.41124">
        <ele>375.4</ele>
        <time>2023-10-01T06:47:55Z</time>
      </trkpt>
      <trkpt lat="48.16422" lon="6.41121">
        <ele>375.6</ele>
        <time>2023-10-01T06:47:56Z</time>
      </trkpt>
      <trkpt lat="48.1642" lon="6.41114">
        <ele>375.6</ele>
        <time>2023-10-01T06:47:57Z</time>
      </trkpt>
      <trkpt lat="48.16419" lon="6.41108">
        <ele>375.8</ele>
        <time>2023-10-01T06:47:58Z</time>
      </trkpt>
      <trkpt lat="48.16413" lon="6.41102">
        <ele>375.8</ele>
        <time>2023-10-01T06:47:59Z</time>
      </trkpt>
      <trkpt lat="48.16404" lon="6.41102">
        <ele>375.8</ele>
        <time>2023-10-01T06:48:00Z</time>
      </trkpt>
      <trkpt lat="48.16396" lon="6.41102">
        <ele>376</ele>
        <time>2023-10-01T06:48:01Z</time>
      </trkpt>
      <trkpt lat="48.16391" lon="6.411">
        <ele>376</ele>
        <time>2023-10-01T06:48:02Z</time>
      </trkpt>
      <trkpt lat="48.16388" lon="6.41098">
        <ele>376</ele>
        <time>2023-10-01T06:48:03Z</time>
      </trkpt>
      <trkpt lat="48.16385" lon="6.41095">
        <ele>376.2</ele>
        <time>2023-10-01T06:48:04Z</time>
      </trkpt>
      <trkpt lat="48.16384" lon="6.41093">
        <ele>376.2</ele>
        <time>2023-10-01T06:48:05Z</time>
      </trkpt>
      <trkpt lat="48.16384" lon="6.41088">
        <ele>376.4</ele>
        <time>2023-10-01T06:48:06Z</time>
      </trkpt>
      <trkpt lat="48.16384" lon="6.41083">
        <ele>376.4</ele>
        <time>2023-10-01T06:48:07Z</time>
      </trkpt>
      <trkpt lat="48.16379" lon="6.41081">
        <ele>376.6</ele>
        <time>2023-10-01T06:48:08Z</time>
      </trkpt>
      <trkpt lat="48.16375" lon="6.41076">
        <ele>376.6</ele>
        <time>2023-10-01T06:48:09Z</time>
      </trkpt>
      <trkpt lat="48.16373" lon="6.4107">
        <ele>376.6</ele>
        <time>2023-10-01T06:48:10Z</time>
      </trkpt>
      <trkpt lat="48.16372" lon="6.41064">
        <ele>376.6</ele>
        <time>2023-10-01T06:48:11Z</time>
      </trkpt>
      <trkpt lat="48.16368" lon="6.41062">
        <ele>376.8</ele>
        <time>2023-10-01T06:48:12Z</time>
      </trkpt>
      <trkpt lat="48.16364" lon="6.41061">
        <ele>376.8</ele>
        <time>2023-10-01T06:48:13Z</time>
      </trkpt>
      <trkpt lat="48.16363" lon="6.41061">
        <ele>377</ele>
        <time>2023-10-01T06:48:14Z</time>
      </trkpt>
      <trkpt lat="48.16363" lon="6.41061">
        <ele>377</ele>
        <time>2023-10-01T06:48:15Z</time>
      </trkpt>
      <trkpt lat="48.16362" lon="6.41054">
        <ele>377.2</ele>
        <time>2023-10-01T06:48:16Z</time>
      </trkpt>
      <trkpt lat="48.16356" lon="6.41047">
        <ele>377.2</ele>
        <time>2023-10-01T06:48:17Z</time>
      </trkpt>
      <trkpt lat="48.16355" lon="6.41042">
        <ele>377.4</ele>
        <time>2023-10-01T06:48:18Z</time>
      </trkpt>
      <trkpt lat="48.16353" lon="6.41037">
        <ele>377.6</ele>
        <time>2023-10-01T06:48:19Z</time>
      </trkpt>
      <trkpt lat="48.16352" lon="6.41032">
        <ele>377.8</ele>
        <time>2023-10-01T06:48:20Z</time>
      </trkpt>
      <trkpt lat="48.1635" lon="6.41026">
        <ele>377.6</ele>
        <time>2023-10-01T06:48:21Z</time>
      </trkpt>
      <trkpt lat="48.16349" lon="6.4102">
        <ele>377.8</ele>
        <time>2023-10-01T06:48:22Z</time>
      </trkpt>
      <trkpt lat="48.16348" lon="6.41013">
        <ele>377.8</ele>
        <time>2023-10-01T06:48:23Z</time>
      </trkpt>
      <trkpt lat="48.16344" lon="6.41008">
        <ele>377.8</ele>
        <time>2023-10-01T06:48:24Z</time>
      </trkpt>
      <trkpt lat="48.16337" lon="6.41005">
        <ele>378</ele>
        <time>2023-10-01T06:48:25Z</time>
      </trkpt>
      <trkpt lat="48.16331" lon="6.41004">
        <ele>378</ele>
        <time>2023-10-01T06:48:26Z</time>
      </trkpt>
      <trkpt lat="48.16327" lon="6.41002">
        <ele>378</ele>
        <time>2023-10-01T06:48:27Z</time>
      </trkpt>
      <trkpt lat="48.16326" lon="6.40998">
        <ele>378.2</ele>
        <time>2023-10-01T06:48:28Z</time>
      </trkpt>
      <trkpt lat="48.16326" lon="6.40991">
        <ele>378.2</ele>
        <time>2023-10-01T06:48:29Z</time>
      </trkpt>
      <trkpt lat="48.16325" lon="6.40986">
        <ele>378.4</ele>
        <time>2023-10-01T06:48:30Z</time>
      </trkpt>
      <trkpt lat="48.16323" lon="6.4098">
        <ele>378.4</ele>
        <time>2023-10-01T06:48:31Z</time>
      </trkpt>
      <trkpt lat="48.1632" lon="6.40974">
        <ele>378.6</ele>
        <time>2023-10-01T06:48:32Z</time>
      </trkpt>
      <trkpt lat="48.16318" lon="6.4097">
        <ele>378.8</ele>
        <time>2023-10-01T06:48:33Z</time>
      </trkpt>
      <trkpt lat="48.16316" lon="6.40964">
        <ele>378.8</ele>
        <time>2023-10-01T06:48:34Z</time>
      </trkpt>
      <trkpt lat="48.16314" lon="6.40959">
        <ele>378.8</ele>
        <time>2023-10-01T06:48:35Z</time>
      </trkpt>
      <trkpt lat="48.16311" lon="6.40957">
        <ele>379</ele>
        <time>2023-10-01T06:48:36Z</time>
      </trkpt>
      <trkpt lat="48.1631" lon="6.40953">
        <ele>379.2</ele>
        <time>2023-10-01T06:48:37Z</time>
      </trkpt>
      <trkpt lat="48.16309" lon="6.40947">
        <ele>379.4</ele>
        <time>2023-10-01T06:48:38Z</time>
      </trkpt>
      <trkpt lat="48.16305" lon="6.40941">
        <ele>379.6</ele>
        <time>2023-10-01T06:48:39Z</time>
      </trkpt>
      <trkpt lat="48.16302" lon="6.40935">
        <ele>379.6</ele>
        <time>2023-10-01T06:48:40Z</time>
      </trkpt>
      <trkpt lat="48.16302" lon="6.4093">
        <ele>379.8</ele>
        <time>2023-10-01T06:48:41Z</time>
      </trkpt>
      <trkpt lat="48.16301" lon="6.40928">
        <ele>380</ele>
        <time>2023-10-01T06:48:42Z</time>
      </trkpt>
      <trkpt lat="48.16298" lon="6.40924">
        <ele>380.2</ele>
        <time>2023-10-01T06:48:43Z</time>
      </trkpt>
      <trkpt lat="48.16296" lon="6.40921">
        <ele>380.4</ele>
        <time>2023-10-01T06:48:44Z</time>
      </trkpt>
      <trkpt lat="48.16295" lon="6.40917">
        <ele>380.4</ele>
        <time>2023-10-01T06:48:45Z</time>
      </trkpt>
      <trkpt lat="48.16293" lon="6.40914">
        <ele>380.4</ele>
        <time>2023-10-01T06:48:46Z</time>
      </trkpt>
      <trkpt lat="48.16293" lon="6.40911">
        <ele>380.4</ele>
        <time>2023-10-01T06:48:47Z</time>
      </trkpt>
      <trkpt lat="48.16293" lon="6.40907">
        <ele>380.6</ele>
        <time>2023-10-01T06:48:48Z</time>
      </trkpt>
      <trkpt lat="48.16292" lon="6.40904">
        <ele>380.6</ele>
        <time>2023-10-01T06:48:49Z</time>
      </trkpt>
      <trkpt lat="48.16291" lon="6.40901">
        <ele>380.8</ele>
        <time>2023-10-01T06:48:50Z</time>
      </trkpt>
      <trkpt lat="48.16289" lon="6.40897">
        <ele>380.8</ele>
        <time>2023-10-01T06:48:51Z</time>
      </trkpt>
      <trkpt lat="48.16288" lon="6.40894">
        <ele>381</ele>
        <time>2023-10-01T06:48:52Z</time>
      </trkpt>
      <trkpt lat="48.16287" lon="6.4089">
        <ele>381</ele>
        <time>2023-10-01T06:48:53Z</time>
      </trkpt>
      <trkpt lat="48.16285" lon="6.40885">
        <ele>381.2</ele>
        <time>2023-10-01T06:48:54Z</time>
      </trkpt>
      <trkpt lat="48.16284" lon="6.40883">
        <ele>381.2</ele>
        <time>2023-10-01T06:48:55Z</time>
      </trkpt>
      <trkpt lat="48.16282" lon="6.40881">
        <ele>381.4</ele>
        <time>2023-10-01T06:48:56Z</time>
      </trkpt>
      <trkpt lat="48.16281" lon="6.40879">
        <ele>381.4</ele>
        <time>2023-10-01T06:48:57Z</time>
      </trkpt>
      <trkpt lat="48.1628" lon="6.40878">
        <ele>381.2</ele>
        <time>2023-10-01T06:48:58Z</time>
      </trkpt>
      <trkpt lat="48.16278" lon="6.40875">
        <ele>381.2</ele>
        <time>2023-10-01T06:48:59Z</time>
      </trkpt>
      <trkpt lat="48.16277" lon="6.40872">
        <ele>381.4</ele>
        <time>2023-10-01T06:49:00Z</time>
      </trkpt>
      <trkpt lat="48.16274" lon="6.40868">
        <ele>381.4</ele>
        <time>2023-10-01T06:49:01Z</time>
      </trkpt>
      <trkpt lat="48.16272" lon="6.40866">
        <ele>381.4</ele>
        <time>2023-10-01T06:49:02Z</time>
      </trkpt>
      <trkpt lat="48.16271" lon="6.40863">
        <ele>381.4</ele>
        <time>2023-10-01T06:49:03Z</time>
      </trkpt>
      <trkpt lat="48.16269" lon="6.40861">
        <ele>381.6</ele>
        <time>2023-10-01T06:49:04Z</time>
      </trkpt>
      <trkpt lat="48.16268" lon="6.40856">
        <ele>381.6</ele>
        <time>2023-10-01T06:49:05Z</time>
      </trkpt>
      <trkpt lat="48.16263" lon="6.4085">
        <ele>381.6</ele>
        <time>2023-10-01T06:49:06Z</time>
      </trkpt>
      <trkpt lat="48.16261" lon="6.40844">
        <ele>381.8</ele>
        <time>2023-10-01T06:49:07Z</time>
      </trkpt>
      <trkpt lat="48.1626" lon="6.40839">
        <ele>382.2</ele>
        <time>2023-10-01T06:49:08Z</time>
      </trkpt>
      <trkpt lat="48.16257" lon="6.40836">
        <ele>382.2</ele>
        <time>2023-10-01T06:49:09Z</time>
      </trkpt>
      <trkpt lat="48.16254" lon="6.40832">
        <ele>382.4</ele>
        <time>2023-10-01T06:49:10Z</time>
      </trkpt>
      <trkpt lat="48.16251" lon="6.40827">
        <ele>382.6</ele>
        <time>2023-10-01T06:49:11Z</time>
      </trkpt>
      <trkpt lat="48.16247" lon="6.40822">
        <ele>382.6</ele>
        <time>2023-10-01T06:49:12Z</time>
      </trkpt>
      <trkpt lat="48.16245" lon="6.40818">
        <ele>382.6</ele>
        <time>2023-10-01T06:49:13Z</time>
      </trkpt>
      <trkpt lat="48.1624" lon="6.40815">
        <ele>382.8</ele>
        <time>2023-10-01T06:49:14Z</time>
      </trkpt>
      <trkpt lat="48.16237" lon="6.4081">
        <ele>383</ele>
        <time>2023-10-01T06:49:15Z</time>
      </trkpt>
      <trkpt lat="48.16234" lon="6.40805">
        <ele>383</ele>
        <time>2023-10-01T06:49:16Z</time>
      </trkpt>
      <trkpt lat="48.1623" lon="6.408">
        <ele>383</ele>
        <time>2023-10-01T06:49:17Z</time>
      </trkpt>
      <trkpt lat="48.16228" lon="6.40795">
        <ele>383</ele>
        <time>2023-10-01T06:49:18Z</time>
      </trkpt>
      <trkpt lat="48.16226" lon="6.40788">
        <ele>383</ele>
        <time>2023-10-01T06:49:19Z</time>
      </trkpt>
      <trkpt lat="48.16224" lon="6.40783">
        <ele>383.2</ele>
        <time>2023-10-01T06:49:20Z</time>
      </trkpt>
      <trkpt lat="48.16223" lon="6.40778">
        <ele>383.2</ele>
        <time>2023-10-01T06:49:21Z</time>
      </trkpt>
      <trkpt lat="48.16221" lon="6.40774">
        <ele>383.4</ele>
        <time>2023-10-01T06:49:22Z</time>
      </trkpt>
      <trkpt lat="48.16217" lon="6.4077">
        <ele>383.8</ele>
        <time>2023-10-01T06:49:23Z</time>
      </trkpt>
      <trkpt lat="48.16215" lon="6.40767">
        <ele>383.8</ele>
        <time>2023-10-01T06:49:24Z</time>
      </trkpt>
      <trkpt lat="48.16213" lon="6.4076">
        <ele>384.4</ele>
        <time>2023-10-01T06:49:25Z</time>
      </trkpt>
      <trkpt lat="48.16212" lon="6.40755">
        <ele>384.2</ele>
        <time>2023-10-01T06:49:26Z</time>
      </trkpt>
      <trkpt lat="48.16208" lon="6.40751">
        <ele>384.4</ele>
        <time>2023-10-01T06:49:27Z</time>
      </trkpt>
      <trkpt lat="48.16202" lon="6.40748">
        <ele>384.4</ele>
        <time>2023-10-01T06:49:28Z</time>
      </trkpt>
      <trkpt lat="48.162" lon="6.40745">
        <ele>384.4</ele>
        <time>2023-10-01T06:49:29Z</time>
      </trkpt>
      <trkpt lat="48.16196" lon="6.40741">
        <ele>384.4</ele>
        <time>2023-10-01T06:49:30Z</time>
      </trkpt>
      <trkpt lat="48.16196" lon="6.40736">
        <ele>384.6</ele>
        <time>2023-10-01T06:49:31Z</time>
      </trkpt>
      <trkpt lat="48.16194" lon="6.40731">
        <ele>384.6</ele>
        <time>2023-10-01T06:49:32Z</time>
      </trkpt>
      <trkpt lat="48.16194" lon="6.40727">
        <ele>384.6</ele>
        <time>2023-10-01T06:49:33Z</time>
      </trkpt>
      <trkpt lat="48.16192" lon="6.40724">
        <ele>384.6</ele>
        <time>2023-10-01T06:49:34Z</time>
      </trkpt>
      <trkpt lat="48.1619" lon="6.40719">
        <ele>384.8</ele>
        <time>2023-10-01T06:49:35Z</time>
      </trkpt>
      <trkpt lat="48.16184" lon="6.40714">
        <ele>384.8</ele>
        <time>2023-10-01T06:49:36Z</time>
      </trkpt>
      <trkpt lat="48.16178" lon="6.40712">
        <ele>385</ele>
        <time>2023-10-01T06:49:37Z</time>
      </trkpt>
      <trkpt lat="48.16176" lon="6.4071">
        <ele>385</ele>
        <time>2023-10-01T06:49:38Z</time>
      </trkpt>
      <trkpt lat="48.16173" lon="6.40705">
        <ele>385.2</ele>
        <time>2023-10-01T06:49:39Z</time>
      </trkpt>
      <trkpt lat="48.16172" lon="6.40701">
        <ele>385.4</ele>
        <time>2023-10-01T06:49:40Z</time>
      </trkpt>
      <trkpt lat="48.16172" lon="6.40696">
        <ele>385.4</ele>
        <time>2023-10-01T06:49:41Z</time>
      </trkpt>
      <trkpt lat="48.16171" lon="6.40692">
        <ele>385.6</ele>
        <time>2023-10-01T06:49:42Z</time>
      </trkpt>
      <trkpt lat="48.1617" lon="6.40688">
        <ele>385.6</ele>
        <time>2023-10-01T06:49:43Z</time>
      </trkpt>
      <trkpt lat="48.16167" lon="6.40684">
        <ele>385.8</ele>
        <time>2023-10-01T06:49:44Z</time>
      </trkpt>
      <trkpt lat="48.16166" lon="6.4068">
        <ele>385.8</ele>
        <time>2023-10-01T06:49:45Z</time>
      </trkpt>
      <trkpt lat="48.16166" lon="6.40676">
        <ele>385.8</ele>
        <time>2023-10-01T06:49:46Z</time>
      </trkpt>
      <trkpt lat="48.16165" lon="6.4067">
        <ele>385.8</ele>
        <time>2023-10-01T06:49:47Z</time>
      </trkpt>
      <trkpt lat="48.16163" lon="6.40665">
        <ele>385.8</ele>
        <time>2023-10-01T06:49:48Z</time>
      </trkpt>
      <trkpt lat="48.16162" lon="6.40661">
        <ele>385.8</ele>
        <time>2023-10-01T06:49:49Z</time>
      </trkpt>
      <trkpt lat="48.16159" lon="6.40657">
        <ele>385.8</ele>
        <time>2023-10-01T06:49:50Z</time>
      </trkpt>
      <trkpt lat="48.16157" lon="6.40652">
        <ele>386</ele>
        <time>2023-10-01T06:49:51Z</time>
      </trkpt>
      <trkpt lat="48.16154" lon="6.40648">
        <ele>386</ele>
        <time>2023-10-01T06:49:52Z</time>
      </trkpt>
      <trkpt lat="48.16153" lon="6.40644">
        <ele>386</ele>
        <time>2023-10-01T06:49:53Z</time>
      </trkpt>
      <trkpt lat="48.16151" lon="6.40639">
        <ele>386.2</ele>
        <time>2023-10-01T06:49:54Z</time>
      </trkpt>
      <trkpt lat="48.16149" lon="6.40635">
        <ele>386.4</ele>
        <time>2023-10-01T06:49:55Z</time>
      </trkpt>
      <trkpt lat="48.16146" lon="6.4063">
        <ele>386.4</ele>
        <time>2023-10-01T06:49:56Z</time>
      </trkpt>
      <trkpt lat="48.16145" lon="6.40625">
        <ele>386.6</ele>
        <time>2023-10-01T06:49:57Z</time>
      </trkpt>
      <trkpt lat="48.16142" lon="6.4062">
        <ele>386.6</ele>
        <time>2023-10-01T06:49:58Z</time>
      </trkpt>
      <trkpt lat="48.1614" lon="6.40616">
        <ele>386.6</ele>
        <time>2023-10-01T06:49:59Z</time>
      </trkpt>
      <trkpt lat="48.16138" lon="6.40611">
        <ele>386.8</ele>
        <time>2023-10-01T06:50:00Z</time>
      </trkpt>
      <trkpt lat="48.16137" lon="6.40607">
        <ele>387</ele>
        <time>2023-10-01T06:50:01Z</time>
      </trkpt>
      <trkpt lat="48.16136" lon="6.40603">
        <ele>387.2</ele>
        <time>2023-10-01T06:50:02Z</time>
      </trkpt>
      <trkpt lat="48.16134" lon="6.40599">
        <ele>387.2</ele>
        <time>2023-10-01T06:50:03Z</time>
      </trkpt>
      <trkpt lat="48.16134" lon="6.40595">
        <ele>387.4</ele>
        <time>2023-10-01T06:50:04Z</time>
      </trkpt>
      <trkpt lat="48.16132" lon="6.4059">
        <ele>387.4</ele>
        <time>2023-10-01T06:50:05Z</time>
      </trkpt>
      <trkpt lat="48.16131" lon="6.40584">
        <ele>387.6</ele>
        <time>2023-10-01T06:50:06Z</time>
      </trkpt>
      <trkpt lat="48.16131" lon="6.4058">
        <ele>387.6</ele>
        <time>2023-10-01T06:50:07Z</time>
      </trkpt>
      <trkpt lat="48.1613" lon="6.40574">
        <ele>387.6</ele>
        <time>2023-10-01T06:50:08Z</time>
      </trkpt>
      <trkpt lat="48.16131" lon="6.4057">
        <ele>387.6</ele>
        <time>2023-10-01T06:50:09Z</time>
      </trkpt>
      <trkpt lat="48.16132" lon="6.40567">
        <ele>387.6</ele>
        <time>2023-10-01T06:50:10Z</time>
      </trkpt>
      <trkpt lat="48.16134" lon="6.40557">
        <ele>387.8</ele>
        <time>2023-10-01T06:50:11Z</time>
      </trkpt>
      <trkpt lat="48.16133" lon="6.40553">
        <ele>388</ele>
        <time>2023-10-01T06:50:12Z</time>
      </trkpt>
      <trkpt lat="48.16133" lon="6.40548">
        <ele>388</ele>
        <time>2023-10-01T06:50:13Z</time>
      </trkpt>
      <trkpt lat="48.16134" lon="6.40544">
        <ele>388.2</ele>
        <time>2023-10-01T06:50:14Z</time>
      </trkpt>
      <trkpt lat="48.16135" lon="6.40538">
        <ele>388.4</ele>
        <time>2023-10-01T06:50:15Z</time>
      </trkpt>
      <trkpt lat="48.16137" lon="6.4053">
        <ele>388.6</ele>
        <time>2023-10-01T06:50:16Z</time>
      </trkpt>
      <trkpt lat="48.16136" lon="6.40523">
        <ele>388.6</ele>
        <time>2023-10-01T06:50:17Z</time>
      </trkpt>
      <trkpt lat="48.16134" lon="6.40518">
        <ele>388.8</ele>
        <time>2023-10-01T06:50:18Z</time>
      </trkpt>
      <trkpt lat="48.16133" lon="6.40513">
        <ele>389</ele>
        <time>2023-10-01T06:50:19Z</time>
      </trkpt>
      <trkpt lat="48.16133" lon="6.40508">
        <ele>389</ele>
        <time>2023-10-01T06:50:20Z</time>
      </trkpt>
      <trkpt lat="48.16132" lon="6.40502">
        <ele>389.2</ele>
        <time>2023-10-01T06:50:21Z</time>
      </trkpt>
      <trkpt lat="48.16131" lon="6.40497">
        <ele>389.4</ele>
        <time>2023-10-01T06:50:22Z</time>
      </trkpt>
      <trkpt lat="48.16129" lon="6.40491">
        <ele>389.4</ele>
        <time>2023-10-01T06:50:23Z</time>
      </trkpt>
      <trkpt lat="48.16129" lon="6.40486">
        <ele>389.4</ele>
        <time>2023-10-01T06:50:24Z</time>
      </trkpt>
      <trkpt lat="48.16126" lon="6.40481">
        <ele>389.6</ele>
        <time>2023-10-01T06:50:25Z</time>
      </trkpt>
      <trkpt lat="48.16124" lon="6.40475">
        <ele>389.6</ele>
        <time>2023-10-01T06:50:26Z</time>
      </trkpt>
      <trkpt lat="48.16123" lon="6.40471">
        <ele>389.6</ele>
        <time>2023-10-01T06:50:27Z</time>
      </trkpt>
      <trkpt lat="48.16124" lon="6.40467">
        <ele>389.6</ele>
        <time>2023-10-01T06:50:28Z</time>
      </trkpt>
      <trkpt lat="48.16125" lon="6.40463">
        <ele>389.6</ele>
        <time>2023-10-01T06:50:29Z</time>
      </trkpt>
      <trkpt lat="48.16127" lon="6.40459">
        <ele>389.6</ele>
        <time>2023-10-01T06:50:30Z</time>
      </trkpt>
      <trkpt lat="48.16128" lon="6.40454">
        <ele>389.6</ele>
        <time>2023-10-01T06:50:31Z</time>
      </trkpt>
      <trkpt lat="48.16135" lon="6.40447">
        <ele>389.8</ele>
        <time>2023-10-01T06:50:32Z</time>
      </trkpt>
      <trkpt lat="48.1612" lon="6.40424">
        <ele>389.8</ele>
        <time>2023-10-01T06:50:33Z</time>
      </trkpt>
      <trkpt lat="48.16104" lon="6.40413">
        <ele>389.8</ele>
        <time>2023-10-01T06:50:34Z</time>
      </trkpt>
      <trkpt lat="48.16103" lon="6.40412">
        <ele>389.8</ele>
        <time>2023-10-01T06:50:35Z</time>
      </trkpt>
      <trkpt lat="48.161" lon="6.40409">
        <ele>389.8</ele>
        <time>2023-10-01T06:50:36Z</time>
      </trkpt>
      <trkpt lat="48.16099" lon="6.40407">
        <ele>389.8</ele>
        <time>2023-10-01T06:50:37Z</time>
      </trkpt>
      <trkpt lat="48.16096" lon="6.40403">
        <ele>389.8</ele>
        <time>2023-10-01T06:50:38Z</time>
      </trkpt>
      <trkpt lat="48.16095" lon="6.40399">
        <ele>390</ele>
        <time>2023-10-01T06:50:39Z</time>
      </trkpt>
      <trkpt lat="48.16094" lon="6.40395">
        <ele>390.2</ele>
        <time>2023-10-01T06:50:40Z</time>
      </trkpt>
      <trkpt lat="48.16093" lon="6.40391">
        <ele>390.2</ele>
        <time>2023-10-01T06:50:41Z</time>
      </trkpt>
      <trkpt lat="48.16091" lon="6.40388">
        <ele>390.4</ele>
        <time>2023-10-01T06:50:42Z</time>
      </trkpt>
      <trkpt lat="48.1609" lon="6.40384">
        <ele>390.4</ele>
        <time>2023-10-01T06:50:43Z</time>
      </trkpt>
      <trkpt lat="48.16089" lon="6.4038">
        <ele>390.6</ele>
        <time>2023-10-01T06:50:44Z</time>
      </trkpt>
      <trkpt lat="48.16087" lon="6.40374">
        <ele>390.6</ele>
        <time>2023-10-01T06:50:45Z</time>
      </trkpt>
      <trkpt lat="48.16085" lon="6.40369">
        <ele>390.8</ele>
        <time>2023-10-01T06:50:46Z</time>
      </trkpt>
      <trkpt lat="48.16083" lon="6.40366">
        <ele>390.8</ele>
        <time>2023-10-01T06:50:47Z</time>
      </trkpt>
      <trkpt lat="48.16078" lon="6.40358">
        <ele>390.8</ele>
        <time>2023-10-01T06:50:48Z</time>
      </trkpt>
      <trkpt lat="48.16073" lon="6.40353">
        <ele>391</ele>
        <time>2023-10-01T06:50:49Z</time>
      </trkpt>
      <trkpt lat="48.16068" lon="6.40351">
        <ele>391.2</ele>
        <time>2023-10-01T06:50:50Z</time>
      </trkpt>
      <trkpt lat="48.16068" lon="6.4035">
        <ele>391.2</ele>
        <time>2023-10-01T06:50:51Z</time>
      </trkpt>
      <trkpt lat="48.16068" lon="6.40349">
        <ele>391.2</ele>
        <time>2023-10-01T06:50:52Z</time>
      </trkpt>
      <trkpt lat="48.16068" lon="6.40346">
        <ele>391.2</ele>
        <time>2023-10-01T06:50:53Z</time>
      </trkpt>
      <trkpt lat="48.16067" lon="6.40341">
        <ele>391.4</ele>
        <time>2023-10-01T06:50:54Z</time>
      </trkpt>
      <trkpt lat="48.16065" lon="6.40336">
        <ele>391.6</ele>
        <time>2023-10-01T06:50:55Z</time>
      </trkpt>
      <trkpt lat="48.16064" lon="6.40332">
        <ele>391.8</ele>
        <time>2023-10-01T06:50:56Z</time>
      </trkpt>
      <trkpt lat="48.16062" lon="6.40329">
        <ele>391.8</ele>
        <time>2023-10-01T06:50:57Z</time>
      </trkpt>
      <trkpt lat="48.1606" lon="6.40325">
        <ele>392</ele>
        <time>2023-10-01T06:50:58Z</time>
      </trkpt>
      <trkpt lat="48.16057" lon="6.40321">
        <ele>392</ele>
        <time>2023-10-01T06:50:59Z</time>
      </trkpt>
      <trkpt lat="48.16054" lon="6.40317">
        <ele>392</ele>
        <time>2023-10-01T06:51:00Z</time>
      </trkpt>
      <trkpt lat="48.16052" lon="6.40314">
        <ele>392</ele>
        <time>2023-10-01T06:51:01Z</time>
      </trkpt>
      <trkpt lat="48.16049" lon="6.40311">
        <ele>392</ele>
        <time>2023-10-01T06:51:02Z</time>
      </trkpt>
      <trkpt lat="48.16048" lon="6.40307">
        <ele>392.2</ele>
        <time>2023-10-01T06:51:03Z</time>
      </trkpt>
      <trkpt lat="48.16045" lon="6.40302">
        <ele>392.2</ele>
        <time>2023-10-01T06:51:04Z</time>
      </trkpt>
      <trkpt lat="48.16043" lon="6.40298">
        <ele>392.4</ele>
        <time>2023-10-01T06:51:05Z</time>
      </trkpt>
      <trkpt lat="48.1604" lon="6.40294">
        <ele>392.6</ele>
        <time>2023-10-01T06:51:06Z</time>
      </trkpt>
      <trkpt lat="48.16039" lon="6.40289">
        <ele>392.6</ele>
        <time>2023-10-01T06:51:07Z</time>
      </trkpt>
      <trkpt lat="48.16036" lon="6.40285">
        <ele>392.6</ele>
        <time>2023-10-01T06:51:08Z</time>
      </trkpt>
      <trkpt lat="48.16033" lon="6.40281">
        <ele>392.8</ele>
        <time>2023-10-01T06:51:09Z</time>
      </trkpt>
      <trkpt lat="48.1603" lon="6.40279">
        <ele>393</ele>
        <time>2023-10-01T06:51:10Z</time>
      </trkpt>
      <trkpt lat="48.16027" lon="6.40276">
        <ele>393</ele>
        <time>2023-10-01T06:51:11Z</time>
      </trkpt>
      <trkpt lat="48.16023" lon="6.40273">
        <ele>393</ele>
        <time>2023-10-01T06:51:12Z</time>
      </trkpt>
      <trkpt lat="48.16018" lon="6.40271">
        <ele>393.2</ele>
        <time>2023-10-01T06:51:13Z</time>
      </trkpt>
      <trkpt lat="48.16013" lon="6.40268">
        <ele>393.2</ele>
        <time>2023-10-01T06:51:14Z</time>
      </trkpt>
      <trkpt lat="48.16005" lon="6.40265">
        <ele>393.6</ele>
        <time>2023-10-01T06:51:15Z</time>
      </trkpt>
      <trkpt lat="48.15998" lon="6.40263">
        <ele>393.6</ele>
        <time>2023-10-01T06:51:16Z</time>
      </trkpt>
      <trkpt lat="48.15992" lon="6.40256">
        <ele>393.6</ele>
        <time>2023-10-01T06:51:17Z</time>
      </trkpt>
      <trkpt lat="48.1599" lon="6.40254">
        <ele>393.6</ele>
        <time>2023-10-01T06:51:18Z</time>
      </trkpt>
      <trkpt lat="48.15987" lon="6.40252">
        <ele>394</ele>
        <time>2023-10-01T06:51:19Z</time>
      </trkpt>
      <trkpt lat="48.15985" lon="6.4025">
        <ele>394</ele>
        <time>2023-10-01T06:51:20Z</time>
      </trkpt>
      <trkpt lat="48.15984" lon="6.40248">
        <ele>394.2</ele>
        <time>2023-10-01T06:51:21Z</time>
      </trkpt>
      <trkpt lat="48.15981" lon="6.40245">
        <ele>394.4</ele>
        <time>2023-10-01T06:51:22Z</time>
      </trkpt>
      <trkpt lat="48.15978" lon="6.40241">
        <ele>394.4</ele>
        <time>2023-10-01T06:51:23Z</time>
      </trkpt>
      <trkpt lat="48.15977" lon="6.40236">
        <ele>394.6</ele>
        <time>2023-10-01T06:51:24Z</time>
      </trkpt>
      <trkpt lat="48.15975" lon="6.40233">
        <ele>394.6</ele>
        <time>2023-10-01T06:51:25Z</time>
      </trkpt>
      <trkpt lat="48.15973" lon="6.40229">
        <ele>394.6</ele>
        <time>2023-10-01T06:51:26Z</time>
      </trkpt>
      <trkpt lat="48.15972" lon="6.40226">
        <ele>394.8</ele>
        <time>2023-10-01T06:51:27Z</time>
      </trkpt>
      <trkpt lat="48.1597" lon="6.40222">
        <ele>394.8</ele>
        <time>2023-10-01T06:51:28Z</time>
      </trkpt>
      <trkpt lat="48.15969" lon="6.40219">
        <ele>395</ele>
        <time>2023-10-01T06:51:29Z</time>
      </trkpt>
      <trkpt lat="48.15967" lon="6.40215">
        <ele>395</ele>
        <time>2023-10-01T06:51:30Z</time>
      </trkpt>
      <trkpt lat="48.15964" lon="6.4021">
        <ele>395</ele>
        <time>2023-10-01T06:51:31Z</time>
      </trkpt>
      <trkpt lat="48.15962" lon="6.40206">
        <ele>395.2</ele>
        <time>2023-10-01T06:51:32Z</time>
      </trkpt>
      <trkpt lat="48.1596" lon="6.40202">
        <ele>395.2</ele>
        <time>2023-10-01T06:51:33Z</time>
      </trkpt>
      <trkpt lat="48.15958" lon="6.40199">
        <ele>395.2</ele>
        <time>2023-10-01T06:51:34Z</time>
      </trkpt>
      <trkpt lat="48.15955" lon="6.40196">
        <ele>395.4</ele>
        <time>2023-10-01T06:51:35Z</time>
      </trkpt>
      <trkpt lat="48.15952" lon="6.40194">
        <ele>395.8</ele>
        <time>2023-10-01T06:51:36Z</time>
      </trkpt>
      <trkpt lat="48.1595" lon="6.40189">
        <ele>395.8</ele>
        <time>2023-10-01T06:51:37Z</time>
      </trkpt>
      <trkpt lat="48.15948" lon="6.40184">
        <ele>396</ele>
        <time>2023-10-01T06:51:38Z</time>
      </trkpt>
      <trkpt lat="48.15942" lon="6.4018">
        <ele>396</ele>
        <time>2023-10-01T06:51:39Z</time>
      </trkpt>
      <trkpt lat="48.15939" lon="6.40175">
        <ele>396.2</ele>
        <time>2023-10-01T06:51:40Z</time>
      </trkpt>
      <trkpt lat="48.15936" lon="6.4017">
        <ele>396.2</ele>
        <time>2023-10-01T06:51:41Z</time>
      </trkpt>
      <trkpt lat="48.15932" lon="6.40165">
        <ele>396.2</ele>
        <time>2023-10-01T06:51:42Z</time>
      </trkpt>
      <trkpt lat="48.15928" lon="6.4016">
        <ele>396.2</ele>
        <time>2023-10-01T06:51:43Z</time>
      </trkpt>
      <trkpt lat="48.15926" lon="6.40155">
        <ele>396.2</ele>
        <time>2023-10-01T06:51:44Z</time>
      </trkpt>
      <trkpt lat="48.15926" lon="6.40149">
        <ele>396.2</ele>
        <time>2023-10-01T06:51:45Z</time>
      </trkpt>
      <trkpt lat="48.15921" lon="6.40143">
        <ele>396.4</ele>
        <time>2023-10-01T06:51:46Z</time>
      </trkpt>
      <trkpt lat="48.15916" lon="6.40138">
        <ele>396.4</ele>
        <time>2023-10-01T06:51:47Z</time>
      </trkpt>
      <trkpt lat="48.15913" lon="6.40135">
        <ele>396.6</ele>
        <time>2023-10-01T06:51:48Z</time>
      </trkpt>
      <trkpt lat="48.1591" lon="6.40131">
        <ele>396.8</ele>
        <time>2023-10-01T06:51:49Z</time>
      </trkpt>
      <trkpt lat="48.15905" lon="6.40129">
        <ele>397</ele>
        <time>2023-10-01T06:51:50Z</time>
      </trkpt>
      <trkpt lat="48.15902" lon="6.40124">
        <ele>397.2</ele>
        <time>2023-10-01T06:51:51Z</time>
      </trkpt>
      <trkpt lat="48.15901" lon="6.40121">
        <ele>397.2</ele>
        <time>2023-10-01T06:51:52Z</time>
      </trkpt>
      <trkpt lat="48.159" lon="6.40117">
        <ele>397.4</ele>
        <time>2023-10-01T06:51:53Z</time>
      </trkpt>
      <trkpt lat="48.15898" lon="6.40113">
        <ele>397.4</ele>
        <time>2023-10-01T06:51:54Z</time>
      </trkpt>
      <trkpt lat="48.15896" lon="6.4011">
        <ele>397.6</ele>
        <time>2023-10-01T06:51:55Z</time>
      </trkpt>
      <trkpt lat="48.15895" lon="6.40106">
        <ele>397.6</ele>
        <time>2023-10-01T06:51:56Z</time>
      </trkpt>
      <trkpt lat="48.15893" lon="6.40102">
        <ele>397.8</ele>
        <time>2023-10-01T06:51:57Z</time>
      </trkpt>
      <trkpt lat="48.15889" lon="6.40098">
        <ele>397.8</ele>
        <time>2023-10-01T06:51:58Z</time>
      </trkpt>
      <trkpt lat="48.15883" lon="6.40097">
        <ele>397.8</ele>
        <time>2023-10-01T06:51:59Z</time>
      </trkpt>
      <trkpt lat="48.1588" lon="6.40093">
        <ele>397.8</ele>
        <time>2023-10-01T06:52:00Z</time>
      </trkpt>
      <trkpt lat="48.15877" lon="6.4009">
        <ele>397.8</ele>
        <time>2023-10-01T06:52:01Z</time>
      </trkpt>
      <trkpt lat="48.15876" lon="6.40087">
        <ele>397.8</ele>
        <time>2023-10-01T06:52:02Z</time>
      </trkpt>
      <trkpt lat="48.15876" lon="6.40081">
        <ele>398</ele>
        <time>2023-10-01T06:52:03Z</time>
      </trkpt>
      <trkpt lat="48.15875" lon="6.40076">
        <ele>398</ele>
        <time>2023-10-01T06:52:04Z</time>
      </trkpt>
      <trkpt lat="48.15875" lon="6.40074">
        <ele>398.4</ele>
        <time>2023-10-01T06:52:05Z</time>
      </trkpt>
      <trkpt lat="48.15874" lon="6.40069">
        <ele>398.6</ele>
        <time>2023-10-01T06:52:06Z</time>
      </trkpt>
      <trkpt lat="48.15874" lon="6.40068">
        <ele>398.8</ele>
        <time>2023-10-01T06:52:07Z</time>
      </trkpt>
      <trkpt lat="48.1587" lon="6.40065">
        <ele>398.8</ele>
        <time>2023-10-01T06:52:08Z</time>
      </trkpt>
      <trkpt lat="48.15866" lon="6.40059">
        <ele>398.8</ele>
        <time>2023-10-01T06:52:09Z</time>
      </trkpt>
      <trkpt lat="48.15863" lon="6.40052">
        <ele>399.4</ele>
        <time>2023-10-01T06:52:10Z</time>
      </trkpt>
      <trkpt lat="48.15861" lon="6.40044">
        <ele>399.4</ele>
        <time>2023-10-01T06:52:11Z</time>
      </trkpt>
      <trkpt lat="48.15858" lon="6.40038">
        <ele>399.6</ele>
        <time>2023-10-01T06:52:12Z</time>
      </trkpt>
      <trkpt lat="48.15858" lon="6.40034">
        <ele>399.6</ele>
        <time>2023-10-01T06:52:13Z</time>
      </trkpt>
      <trkpt lat="48.15857" lon="6.4003">
        <ele>399.8</ele>
        <time>2023-10-01T06:52:14Z</time>
      </trkpt>
      <trkpt lat="48.15856" lon="6.40025">
        <ele>400</ele>
        <time>2023-10-01T06:52:15Z</time>
      </trkpt>
      <trkpt lat="48.15855" lon="6.4002">
        <ele>400</ele>
        <time>2023-10-01T06:52:16Z</time>
      </trkpt>
      <trkpt lat="48.15852" lon="6.40017">
        <ele>400</ele>
        <time>2023-10-01T06:52:17Z</time>
      </trkpt>
      <trkpt lat="48.15851" lon="6.40013">
        <ele>400.2</ele>
        <time>2023-10-01T06:52:18Z</time>
      </trkpt>
      <trkpt lat="48.15851" lon="6.40008">
        <ele>400.2</ele>
        <time>2023-10-01T06:52:19Z</time>
      </trkpt>
      <trkpt lat="48.15851" lon="6.40003">
        <ele>400.2</ele>
        <time>2023-10-01T06:52:20Z</time>
      </trkpt>
      <trkpt lat="48.1585" lon="6.39999">
        <ele>400.2</ele>
        <time>2023-10-01T06:52:21Z</time>
      </trkpt>
      <trkpt lat="48.15847" lon="6.39992">
        <ele>400.2</ele>
        <time>2023-10-01T06:52:22Z</time>
      </trkpt>
      <trkpt lat="48.15846" lon="6.39987">
        <ele>400.2</ele>
        <time>2023-10-01T06:52:23Z</time>
      </trkpt>
      <trkpt lat="48.15847" lon="6.39983">
        <ele>400.4</ele>
        <time>2023-10-01T06:52:24Z</time>
      </trkpt>
      <trkpt lat="48.15847" lon="6.39979">
        <ele>400.4</ele>
        <time>2023-10-01T06:52:25Z</time>
      </trkpt>
      <trkpt lat="48.15848" lon="6.39974">
        <ele>400.4</ele>
        <time>2023-10-01T06:52:26Z</time>
      </trkpt>
      <trkpt lat="48.15849" lon="6.3997">
        <ele>400.6</ele>
        <time>2023-10-01T06:52:27Z</time>
      </trkpt>
      <trkpt lat="48.15849" lon="6.39965">
        <ele>400.6</ele>
        <time>2023-10-01T06:52:28Z</time>
      </trkpt>
      <trkpt lat="48.15848" lon="6.39958">
        <ele>400.8</ele>
        <time>2023-10-01T06:52:29Z</time>
      </trkpt>
      <trkpt lat="48.15848" lon="6.39953">
        <ele>401</ele>
        <time>2023-10-01T06:52:30Z</time>
      </trkpt>
      <trkpt lat="48.15846" lon="6.39947">
        <ele>401</ele>
        <time>2023-10-01T06:52:31Z</time>
      </trkpt>
      <trkpt lat="48.15845" lon="6.39942">
        <ele>401.2</ele>
        <time>2023-10-01T06:52:32Z</time>
      </trkpt>
      <trkpt lat="48.15844" lon="6.39934">
        <ele>401.2</ele>
        <time>2023-10-01T06:52:33Z</time>
      </trkpt>
      <trkpt lat="48.15843" lon="6.39927">
        <ele>401.4</ele>
        <time>2023-10-01T06:52:34Z</time>
      </trkpt>
      <trkpt lat="48.15842" lon="6.39922">
        <ele>401.4</ele>
        <time>2023-10-01T06:52:35Z</time>
      </trkpt>
      <trkpt lat="48.15842" lon="6.39919">
        <ele>401.4</ele>
        <time>2023-10-01T06:52:36Z</time>
      </trkpt>
      <trkpt lat="48.1584" lon="6.39913">
        <ele>401.4</ele>
        <time>2023-10-01T06:52:37Z</time>
      </trkpt>
      <trkpt lat="48.15839" lon="6.39906">
        <ele>401.6</ele>
        <time>2023-10-01T06:52:38Z</time>
      </trkpt>
      <trkpt lat="48.15839" lon="6.399">
        <ele>401.8</ele>
        <time>2023-10-01T06:52:39Z</time>
      </trkpt>
      <trkpt lat="48.15839" lon="6.39896">
        <ele>401.8</ele>
        <time>2023-10-01T06:52:40Z</time>
      </trkpt>
      <trkpt lat="48.15839" lon="6.39892">
        <ele>402</ele>
        <time>2023-10-01T06:52:41Z</time>
      </trkpt>
      <trkpt lat="48.1584" lon="6.39886">
        <ele>402</ele>
        <time>2023-10-01T06:52:42Z</time>
      </trkpt>
      <trkpt lat="48.15838" lon="6.39879">
        <ele>402.2</ele>
        <time>2023-10-01T06:52:43Z</time>
      </trkpt>
      <trkpt lat="48.15837" lon="6.39873">
        <ele>402.4</ele>
        <time>2023-10-01T06:52:44Z</time>
      </trkpt>
      <trkpt lat="48.15836" lon="6.39867">
        <ele>402.4</ele>
        <time>2023-10-01T06:52:45Z</time>
      </trkpt>
      <trkpt lat="48.15836" lon="6.39863">
        <ele>402.4</ele>
        <time>2023-10-01T06:52:46Z</time>
      </trkpt>
      <trkpt lat="48.15835" lon="6.39857">
        <ele>402.6</ele>
        <time>2023-10-01T06:52:47Z</time>
      </trkpt>
      <trkpt lat="48.15835" lon="6.39852">
        <ele>402.6</ele>
        <time>2023-10-01T06:52:48Z</time>
      </trkpt>
      <trkpt lat="48.15833" lon="6.39845">
        <ele>402.6</ele>
        <time>2023-10-01T06:52:49Z</time>
      </trkpt>
      <trkpt lat="48.15832" lon="6.3984">
        <ele>402.6</ele>
        <time>2023-10-01T06:52:50Z</time>
      </trkpt>
      <trkpt lat="48.15833" lon="6.39838">
        <ele>402.8</ele>
        <time>2023-10-01T06:52:51Z</time>
      </trkpt>
      <trkpt lat="48.15834" lon="6.39834">
        <ele>402.8</ele>
        <time>2023-10-01T06:52:52Z</time>
      </trkpt>
      <trkpt lat="48.15834" lon="6.39829">
        <ele>403</ele>
        <time>2023-10-01T06:52:53Z</time>
      </trkpt>
      <trkpt lat="48.15833" lon="6.39824">
        <ele>402.8</ele>
        <time>2023-10-01T06:52:54Z</time>
      </trkpt>
      <trkpt lat="48.1583" lon="6.39816">
        <ele>403</ele>
        <time>2023-10-01T06:52:55Z</time>
      </trkpt>
      <trkpt lat="48.15828" lon="6.39808">
        <ele>403</ele>
        <time>2023-10-01T06:52:56Z</time>
      </trkpt>
      <trkpt lat="48.15828" lon="6.39801">
        <ele>403.2</ele>
        <time>2023-10-01T06:52:57Z</time>
      </trkpt>
      <trkpt lat="48.15829" lon="6.39795">
        <ele>403.4</ele>
        <time>2023-10-01T06:52:58Z</time>
      </trkpt>
      <trkpt lat="48.15831" lon="6.39792">
        <ele>403.6</ele>
        <time>2023-10-01T06:52:59Z</time>
      </trkpt>
      <trkpt lat="48.1583" lon="6.39788">
        <ele>403.6</ele>
        <time>2023-10-01T06:53:00Z</time>
      </trkpt>
      <trkpt lat="48.1583" lon="6.39784">
        <ele>403.8</ele>
        <time>2023-10-01T06:53:01Z</time>
      </trkpt>
      <trkpt lat="48.15828" lon="6.3978">
        <ele>404</ele>
        <time>2023-10-01T06:53:02Z</time>
      </trkpt>
      <trkpt lat="48.1583" lon="6.39776">
        <ele>404.2</ele>
        <time>2023-10-01T06:53:03Z</time>
      </trkpt>
      <trkpt lat="48.15829" lon="6.39769">
        <ele>404.4</ele>
        <time>2023-10-01T06:53:04Z</time>
      </trkpt>
      <trkpt lat="48.15829" lon="6.39765">
        <ele>404.4</ele>
        <time>2023-10-01T06:53:05Z</time>
      </trkpt>
      <trkpt lat="48.15829" lon="6.39763">
        <ele>404.4</ele>
        <time>2023-10-01T06:53:06Z</time>
      </trkpt>
      <trkpt lat="48.15829" lon="6.3976">
        <ele>404.4</ele>
        <time>2023-10-01T06:53:07Z</time>
      </trkpt>
      <trkpt lat="48.1583" lon="6.39757">
        <ele>404.4</ele>
        <time>2023-10-01T06:53:08Z</time>
      </trkpt>
      <trkpt lat="48.1583" lon="6.39754">
        <ele>404.4</ele>
        <time>2023-10-01T06:53:09Z</time>
      </trkpt>
      <trkpt lat="48.15829" lon="6.39749">
        <ele>404.6</ele>
        <time>2023-10-01T06:53:10Z</time>
      </trkpt>
      <trkpt lat="48.15828" lon="6.39744">
        <ele>404.6</ele>
        <time>2023-10-01T06:53:11Z</time>
      </trkpt>
      <trkpt lat="48.15828" lon="6.39741">
        <ele>404.8</ele>
        <time>2023-10-01T06:53:12Z</time>
      </trkpt>
      <trkpt lat="48.15826" lon="6.39736">
        <ele>404.8</ele>
        <time>2023-10-01T06:53:13Z</time>
      </trkpt>
      <trkpt lat="48.15826" lon="6.39733">
        <ele>405</ele>
        <time>2023-10-01T06:53:14Z</time>
      </trkpt>
      <trkpt lat="48.15825" lon="6.3973">
        <ele>405</ele>
        <time>2023-10-01T06:53:15Z</time>
      </trkpt>
      <trkpt lat="48.15824" lon="6.39726">
        <ele>405</ele>
        <time>2023-10-01T06:53:16Z</time>
      </trkpt>
      <trkpt lat="48.15823" lon="6.3972">
        <ele>405</ele>
        <time>2023-10-01T06:53:17Z</time>
      </trkpt>
      <trkpt lat="48.15823" lon="6.39713">
        <ele>405</ele>
        <time>2023-10-01T06:53:18Z</time>
      </trkpt>
      <trkpt lat="48.15823" lon="6.39708">
        <ele>405.2</ele>
        <time>2023-10-01T06:53:19Z</time>
      </trkpt>
      <trkpt lat="48.15823" lon="6.39702">
        <ele>405.4</ele>
        <time>2023-10-01T06:53:20Z</time>
      </trkpt>
      <trkpt lat="48.15823" lon="6.39696">
        <ele>405.6</ele>
        <time>2023-10-01T06:53:21Z</time>
      </trkpt>
      <trkpt lat="48.15823" lon="6.39689">
        <ele>405.8</ele>
        <time>2023-10-01T06:53:22Z</time>
      </trkpt>
      <trkpt lat="48.15823" lon="6.39682">
        <ele>406</ele>
        <time>2023-10-01T06:53:23Z</time>
      </trkpt>
      <trkpt lat="48.15822" lon="6.39676">
        <ele>406.2</ele>
        <time>2023-10-01T06:53:24Z</time>
      </trkpt>
      <trkpt lat="48.15823" lon="6.39671">
        <ele>406.2</ele>
        <time>2023-10-01T06:53:25Z</time>
      </trkpt>
      <trkpt lat="48.15825" lon="6.39668">
        <ele>406.6</ele>
        <time>2023-10-01T06:53:26Z</time>
      </trkpt>
      <trkpt lat="48.15826" lon="6.39665">
        <ele>406.8</ele>
        <time>2023-10-01T06:53:27Z</time>
      </trkpt>
      <trkpt lat="48.15828" lon="6.39661">
        <ele>406.8</ele>
        <time>2023-10-01T06:53:28Z</time>
      </trkpt>
      <trkpt lat="48.15831" lon="6.39655">
        <ele>407</ele>
        <time>2023-10-01T06:53:29Z</time>
      </trkpt>
      <trkpt lat="48.15833" lon="6.3965">
        <ele>407.2</ele>
        <time>2023-10-01T06:53:30Z</time>
      </trkpt>
      <trkpt lat="48.15834" lon="6.39645">
        <ele>407.2</ele>
        <time>2023-10-01T06:53:31Z</time>
      </trkpt>
      <trkpt lat="48.15835" lon="6.39641">
        <ele>407.2</ele>
        <time>2023-10-01T06:53:32Z</time>
      </trkpt>
      <trkpt lat="48.15837" lon="6.39636">
        <ele>407.2</ele>
        <time>2023-10-01T06:53:33Z</time>
      </trkpt>
      <trkpt lat="48.15839" lon="6.39633">
        <ele>407.2</ele>
        <time>2023-10-01T06:53:34Z</time>
      </trkpt>
      <trkpt lat="48.15842" lon="6.39628">
        <ele>407.4</ele>
        <time>2023-10-01T06:53:35Z</time>
      </trkpt>
      <trkpt lat="48.15844" lon="6.39624">
        <ele>407.4</ele>
        <time>2023-10-01T06:53:36Z</time>
      </trkpt>
      <trkpt lat="48.15842" lon="6.39617">
        <ele>407.4</ele>
        <time>2023-10-01T06:53:37Z</time>
      </trkpt>
      <trkpt lat="48.15844" lon="6.39613">
        <ele>407.4</ele>
        <time>2023-10-01T06:53:38Z</time>
      </trkpt>
      <trkpt lat="48.15846" lon="6.39609">
        <ele>407.4</ele>
        <time>2023-10-01T06:53:39Z</time>
      </trkpt>
      <trkpt lat="48.15848" lon="6.39605">
        <ele>407.4</ele>
        <time>2023-10-01T06:53:40Z</time>
      </trkpt>
      <trkpt lat="48.15851" lon="6.39601">
        <ele>407.8</ele>
        <time>2023-10-01T06:53:41Z</time>
      </trkpt>
      <trkpt lat="48.15853" lon="6.39595">
        <ele>408</ele>
        <time>2023-10-01T06:53:42Z</time>
      </trkpt>
      <trkpt lat="48.15855" lon="6.39589">
        <ele>408.2</ele>
        <time>2023-10-01T06:53:43Z</time>
      </trkpt>
      <trkpt lat="48.15857" lon="6.39584">
        <ele>408.4</ele>
        <time>2023-10-01T06:53:44Z</time>
      </trkpt>
      <trkpt lat="48.1586" lon="6.3958">
        <ele>408.4</ele>
        <time>2023-10-01T06:53:45Z</time>
      </trkpt>
      <trkpt lat="48.15862" lon="6.39577">
        <ele>408.6</ele>
        <time>2023-10-01T06:53:46Z</time>
      </trkpt>
      <trkpt lat="48.15864" lon="6.39574">
        <ele>408.8</ele>
        <time>2023-10-01T06:53:47Z</time>
      </trkpt>
      <trkpt lat="48.15866" lon="6.39571">
        <ele>408.8</ele>
        <time>2023-10-01T06:53:48Z</time>
      </trkpt>
      <trkpt lat="48.15867" lon="6.39567">
        <ele>408.8</ele>
        <time>2023-10-01T06:53:49Z</time>
      </trkpt>
      <trkpt lat="48.15869" lon="6.39564">
        <ele>408.8</ele>
        <time>2023-10-01T06:53:50Z</time>
      </trkpt>
      <trkpt lat="48.15872" lon="6.39559">
        <ele>408.8</ele>
        <time>2023-10-01T06:53:51Z</time>
      </trkpt>
      <trkpt lat="48.15874" lon="6.39555">
        <ele>408.8</ele>
        <time>2023-10-01T06:53:52Z</time>
      </trkpt>
      <trkpt lat="48.15877" lon="6.39551">
        <ele>408.8</ele>
        <time>2023-10-01T06:53:53Z</time>
      </trkpt>
      <trkpt lat="48.15879" lon="6.39547">
        <ele>409</ele>
        <time>2023-10-01T06:53:54Z</time>
      </trkpt>
      <trkpt lat="48.15882" lon="6.39543">
        <ele>409</ele>
        <time>2023-10-01T06:53:55Z</time>
      </trkpt>
      <trkpt lat="48.15884" lon="6.39539">
        <ele>409</ele>
        <time>2023-10-01T06:53:56Z</time>
      </trkpt>
      <trkpt lat="48.15885" lon="6.39536">
        <ele>409</ele>
        <time>2023-10-01T06:53:57Z</time>
      </trkpt>
      <trkpt lat="48.15888" lon="6.39533">
        <ele>409</ele>
        <time>2023-10-01T06:53:58Z</time>
      </trkpt>
      <trkpt lat="48.1589" lon="6.39529">
        <ele>409</ele>
        <time>2023-10-01T06:53:59Z</time>
      </trkpt>
      <trkpt lat="48.15892" lon="6.39524">
        <ele>409.2</ele>
        <time>2023-10-01T06:54:00Z</time>
      </trkpt>
      <trkpt lat="48.15894" lon="6.39522">
        <ele>409.4</ele>
        <time>2023-10-01T06:54:01Z</time>
      </trkpt>
      <trkpt lat="48.15895" lon="6.39517">
        <ele>409.4</ele>
        <time>2023-10-01T06:54:02Z</time>
      </trkpt>
      <trkpt lat="48.15898" lon="6.39513">
        <ele>409.4</ele>
        <time>2023-10-01T06:54:03Z</time>
      </trkpt>
      <trkpt lat="48.159" lon="6.39509">
        <ele>409.6</ele>
        <time>2023-10-01T06:54:04Z</time>
      </trkpt>
      <trkpt lat="48.15902" lon="6.39505">
        <ele>409.6</ele>
        <time>2023-10-01T06:54:05Z</time>
      </trkpt>
      <trkpt lat="48.15902" lon="6.395">
        <ele>409.6</ele>
        <time>2023-10-01T06:54:06Z</time>
      </trkpt>
      <trkpt lat="48.15904" lon="6.39497">
        <ele>409.8</ele>
        <time>2023-10-01T06:54:07Z</time>
      </trkpt>
      <trkpt lat="48.15905" lon="6.39496">
        <ele>410</ele>
        <time>2023-10-01T06:54:08Z</time>
      </trkpt>
      <trkpt lat="48.15906" lon="6.39495">
        <ele>410.2</ele>
        <time>2023-10-01T06:54:09Z</time>
      </trkpt>
      <trkpt lat="48.15907" lon="6.39496">
        <ele>410.4</ele>
        <time>2023-10-01T06:54:10Z</time>
      </trkpt>
      <trkpt lat="48.15908" lon="6.39498">
        <ele>410.6</ele>
        <time>2023-10-01T06:54:11Z</time>
      </trkpt>
      <trkpt lat="48.1591" lon="6.39498">
        <ele>411</ele>
        <time>2023-10-01T06:54:12Z</time>
      </trkpt>
      <trkpt lat="48.15911" lon="6.39498">
        <ele>411.2</ele>
        <time>2023-10-01T06:54:13Z</time>
      </trkpt>
      <trkpt lat="48.15913" lon="6.39499">
        <ele>411.6</ele>
        <time>2023-10-01T06:54:14Z</time>
      </trkpt>
      <trkpt lat="48.15915" lon="6.39499">
        <ele>412</ele>
        <time>2023-10-01T06:54:15Z</time>
      </trkpt>
      <trkpt lat="48.15916" lon="6.395">
        <ele>412.2</ele>
        <time>2023-10-01T06:54:16Z</time>
      </trkpt>
      <trkpt lat="48.15918" lon="6.39501">
        <ele>412.4</ele>
        <time>2023-10-01T06:54:17Z</time>
      </trkpt>
      <trkpt lat="48.1592" lon="6.39502">
        <ele>413</ele>
        <time>2023-10-01T06:54:18Z</time>
      </trkpt>
      <trkpt lat="48.15923" lon="6.39502">
        <ele>413.2</ele>
        <time>2023-10-01T06:54:19Z</time>
      </trkpt>
      <trkpt lat="48.15925" lon="6.39502">
        <ele>413.4</ele>
        <time>2023-10-01T06:54:20Z</time>
      </trkpt>
      <trkpt lat="48.15928" lon="6.39502">
        <ele>413.8</ele>
        <time>2023-10-01T06:54:21Z</time>
      </trkpt>
      <trkpt lat="48.1593" lon="6.39503">
        <ele>414</ele>
        <time>2023-10-01T06:54:22Z</time>
      </trkpt>
      <trkpt lat="48.15931" lon="6.39504">
        <ele>414.4</ele>
        <time>2023-10-01T06:54:23Z</time>
      </trkpt>
      <trkpt lat="48.15933" lon="6.39507">
        <ele>414.8</ele>
        <time>2023-10-01T06:54:24Z</time>
      </trkpt>
      <trkpt lat="48.15934" lon="6.39508">
        <ele>415.2</ele>
        <time>2023-10-01T06:54:25Z</time>
      </trkpt>
      <trkpt lat="48.15938" lon="6.39508">
        <ele>415.4</ele>
        <time>2023-10-01T06:54:26Z</time>
      </trkpt>
      <trkpt lat="48.15941" lon="6.39509">
        <ele>415.8</ele>
        <time>2023-10-01T06:54:27Z</time>
      </trkpt>
      <trkpt lat="48.15943" lon="6.39511">
        <ele>416.2</ele>
        <time>2023-10-01T06:54:28Z</time>
      </trkpt>
      <trkpt lat="48.15944" lon="6.39512">
        <ele>416.8</ele>
        <time>2023-10-01T06:54:29Z</time>
      </trkpt>
      <trkpt lat="48.15947" lon="6.39514">
        <ele>417</ele>
        <time>2023-10-01T06:54:30Z</time>
      </trkpt>
      <trkpt lat="48.1595" lon="6.39516">
        <ele>417.2</ele>
        <time>2023-10-01T06:54:31Z</time>
      </trkpt>
      <trkpt lat="48.15951" lon="6.39517">
        <ele>417.4</ele>
        <time>2023-10-01T06:54:32Z</time>
      </trkpt>
      <trkpt lat="48.15954" lon="6.39516">
        <ele>417.8</ele>
        <time>2023-10-01T06:54:33Z</time>
      </trkpt>
      <trkpt lat="48.15958" lon="6.39516">
        <ele>418</ele>
        <time>2023-10-01T06:54:34Z</time>
      </trkpt>
      <trkpt lat="48.15962" lon="6.39517">
        <ele>418.4</ele>
        <time>2023-10-01T06:54:35Z</time>
      </trkpt>
      <trkpt lat="48.15964" lon="6.39518">
        <ele>418.6</ele>
        <time>2023-10-01T06:54:36Z</time>
      </trkpt>
      <trkpt lat="48.15967" lon="6.39522">
        <ele>418.8</ele>
        <time>2023-10-01T06:54:37Z</time>
      </trkpt>
      <trkpt lat="48.15969" lon="6.39523">
        <ele>418.8</ele>
        <time>2023-10-01T06:54:38Z</time>
      </trkpt>
      <trkpt lat="48.15972" lon="6.39526">
        <ele>419.2</ele>
        <time>2023-10-01T06:54:39Z</time>
      </trkpt>
      <trkpt lat="48.15973" lon="6.39528">
        <ele>419.2</ele>
        <time>2023-10-01T06:54:40Z</time>
      </trkpt>
      <trkpt lat="48.15975" lon="6.39529">
        <ele>419.4</ele>
        <time>2023-10-01T06:54:41Z</time>
      </trkpt>
      <trkpt lat="48.15977" lon="6.39531">
        <ele>419.6</ele>
        <time>2023-10-01T06:54:42Z</time>
      </trkpt>
      <trkpt lat="48.15979" lon="6.39534">
        <ele>420</ele>
        <time>2023-10-01T06:54:43Z</time>
      </trkpt>
      <trkpt lat="48.15981" lon="6.39536">
        <ele>420.6</ele>
        <time>2023-10-01T06:54:44Z</time>
      </trkpt>
      <trkpt lat="48.15984" lon="6.39537">
        <ele>420.8</ele>
        <time>2023-10-01T06:54:45Z</time>
      </trkpt>
      <trkpt lat="48.15987" lon="6.3954">
        <ele>421.2</ele>
        <time>2023-10-01T06:54:46Z</time>
      </trkpt>
      <trkpt lat="48.15989" lon="6.39543">
        <ele>421.4</ele>
        <time>2023-10-01T06:54:47Z</time>
      </trkpt>
      <trkpt lat="48.1599" lon="6.39546">
        <ele>421.8</ele>
        <time>2023-10-01T06:54:48Z</time>
      </trkpt>
      <trkpt lat="48.15991" lon="6.39548">
        <ele>422</ele>
        <time>2023-10-01T06:54:49Z</time>
      </trkpt>
      <trkpt lat="48.15993" lon="6.39551">
        <ele>422.6</ele>
        <time>2023-10-01T06:54:50Z</time>
      </trkpt>
      <trkpt lat="48.15993" lon="6.39553">
        <ele>422.6</ele>
        <time>2023-10-01T06:54:51Z</time>
      </trkpt>
      <trkpt lat="48.15993" lon="6.39555">
        <ele>423</ele>
        <time>2023-10-01T06:54:52Z</time>
      </trkpt>
      <trkpt lat="48.15992" lon="6.39556">
        <ele>423.2</ele>
        <time>2023-10-01T06:54:53Z</time>
      </trkpt>
      <trkpt lat="48.15992" lon="6.39557">
        <ele>423.8</ele>
        <time>2023-10-01T06:54:54Z</time>
      </trkpt>
      <trkpt lat="48.15992" lon="6.39558">
        <ele>424.2</ele>
        <time>2023-10-01T06:54:55Z</time>
      </trkpt>
      <trkpt lat="48.15992" lon="6.39559">
        <ele>424.6</ele>
        <time>2023-10-01T06:54:56Z</time>
      </trkpt>
      <trkpt lat="48.15992" lon="6.39561">
        <ele>424.6</ele>
        <time>2023-10-01T06:54:57Z</time>
      </trkpt>
      <trkpt lat="48.15992" lon="6.39564">
        <ele>425</ele>
        <time>2023-10-01T06:54:58Z</time>
      </trkpt>
      <trkpt lat="48.15991" lon="6.39564">
        <ele>425.2</ele>
        <time>2023-10-01T06:54:59Z</time>
      </trkpt>
      <trkpt lat="48.1599" lon="6.39566">
        <ele>425.8</ele>
        <time>2023-10-01T06:55:00Z</time>
      </trkpt>
      <trkpt lat="48.15988" lon="6.39568">
        <ele>426.2</ele>
        <time>2023-10-01T06:55:01Z</time>
      </trkpt>
      <trkpt lat="48.15987" lon="6.39571">
        <ele>426.6</ele>
        <time>2023-10-01T06:55:02Z</time>
      </trkpt>
      <trkpt lat="48.15986" lon="6.39574">
        <ele>426.8</ele>
        <time>2023-10-01T06:55:03Z</time>
      </trkpt>
      <trkpt lat="48.15984" lon="6.39575">
        <ele>427</ele>
        <time>2023-10-01T06:55:04Z</time>
      </trkpt>
      <trkpt lat="48.15982" lon="6.39576">
        <ele>427.2</ele>
        <time>2023-10-01T06:55:05Z</time>
      </trkpt>
      <trkpt lat="48.15981" lon="6.39577">
        <ele>427.8</ele>
        <time>2023-10-01T06:55:06Z</time>
      </trkpt>
      <trkpt lat="48.1598" lon="6.39579">
        <ele>428.2</ele>
        <time>2023-10-01T06:55:07Z</time>
      </trkpt>
      <trkpt lat="48.15978" lon="6.39581">
        <ele>428.4</ele>
        <time>2023-10-01T06:55:08Z</time>
      </trkpt>
      <trkpt lat="48.15977" lon="6.39584">
        <ele>428.6</ele>
        <time>2023-10-01T06:55:09Z</time>
      </trkpt>
      <trkpt lat="48.15975" lon="6.39587">
        <ele>428.6</ele>
        <time>2023-10-01T06:55:10Z</time>
      </trkpt>
      <trkpt lat="48.15973" lon="6.3959">
        <ele>428.8</ele>
        <time>2023-10-01T06:55:11Z</time>
      </trkpt>
      <trkpt lat="48.15972" lon="6.39593">
        <ele>429</ele>
        <time>2023-10-01T06:55:12Z</time>
      </trkpt>
      <trkpt lat="48.15969" lon="6.39595">
        <ele>429.4</ele>
        <time>2023-10-01T06:55:13Z</time>
      </trkpt>
      <trkpt lat="48.15967" lon="6.39597">
        <ele>429.6</ele>
        <time>2023-10-01T06:55:14Z</time>
      </trkpt>
      <trkpt lat="48.15965" lon="6.396">
        <ele>430</ele>
        <time>2023-10-01T06:55:15Z</time>
      </trkpt>
      <trkpt lat="48.15963" lon="6.39602">
        <ele>430.2</ele>
        <time>2023-10-01T06:55:16Z</time>
      </trkpt>
      <trkpt lat="48.15962" lon="6.39605">
        <ele>430.4</ele>
        <time>2023-10-01T06:55:17Z</time>
      </trkpt>
      <trkpt lat="48.15958" lon="6.39609">
        <ele>430.4</ele>
        <time>2023-10-01T06:55:18Z</time>
      </trkpt>
      <trkpt lat="48.15956" lon="6.39612">
        <ele>430.6</ele>
        <time>2023-10-01T06:55:19Z</time>
      </trkpt>
      <trkpt lat="48.15955" lon="6.39616">
        <ele>430.6</ele>
        <time>2023-10-01T06:55:20Z</time>
      </trkpt>
      <trkpt lat="48.15952" lon="6.3962">
        <ele>430.8</ele>
        <time>2023-10-01T06:55:21Z</time>
      </trkpt>
      <trkpt lat="48.15948" lon="6.39623">
        <ele>430.8</ele>
        <time>2023-10-01T06:55:22Z</time>
      </trkpt>
      <trkpt lat="48.15944" lon="6.39625">
        <ele>431</ele>
        <time>2023-10-01T06:55:23Z</time>
      </trkpt>
      <trkpt lat="48.15942" lon="6.39629">
        <ele>431</ele>
        <time>2023-10-01T06:55:24Z</time>
      </trkpt>
      <trkpt lat="48.15939" lon="6.39634">
        <ele>431</ele>
        <time>2023-10-01T06:55:25Z</time>
      </trkpt>
      <trkpt lat="48.15937" lon="6.39639">
        <ele>431.2</ele>
        <time>2023-10-01T06:55:26Z</time>
      </trkpt>
      <trkpt lat="48.15934" lon="6.39645">
        <ele>431.2</ele>
        <time>2023-10-01T06:55:27Z</time>
      </trkpt>
      <trkpt lat="48.15931" lon="6.39651">
        <ele>431.2</ele>
        <time>2023-10-01T06:55:28Z</time>
      </trkpt>
      <trkpt lat="48.15927" lon="6.39656">
        <ele>431</ele>
        <time>2023-10-01T06:55:29Z</time>
      </trkpt>
      <trkpt lat="48.15922" lon="6.39662">
        <ele>431</ele>
        <time>2023-10-01T06:55:30Z</time>
      </trkpt>
      <trkpt lat="48.15918" lon="6.39671">
        <ele>430.8</ele>
        <time>2023-10-01T06:55:31Z</time>
      </trkpt>
      <trkpt lat="48.15913" lon="6.39681">
        <ele>430.6</ele>
        <time>2023-10-01T06:55:32Z</time>
      </trkpt>
      <trkpt lat="48.1591" lon="6.3969">
        <ele>430.4</ele>
        <time>2023-10-01T06:55:33Z</time>
      </trkpt>
      <trkpt lat="48.15908" lon="6.39697">
        <ele>430</ele>
        <time>2023-10-01T06:55:34Z</time>
      </trkpt>
      <trkpt lat="48.15907" lon="6.39702">
        <ele>429.8</ele>
        <time>2023-10-01T06:55:35Z</time>
      </trkpt>
      <trkpt lat="48.15905" lon="6.39707">
        <ele>429.6</ele>
        <time>2023-10-01T06:55:36Z</time>
      </trkpt>
      <trkpt lat="48.15902" lon="6.39712">
        <ele>429.4</ele>
        <time>2023-10-01T06:55:37Z</time>
      </trkpt>
      <trkpt lat="48.15899" lon="6.39719">
        <ele>429.4</ele>
        <time>2023-10-01T06:55:38Z</time>
      </trkpt>
      <trkpt lat="48.15898" lon="6.39726">
        <ele>429.2</ele>
        <time>2023-10-01T06:55:39Z</time>
      </trkpt>
      <trkpt lat="48.15897" lon="6.39733">
        <ele>429.2</ele>
        <time>2023-10-01T06:55:40Z</time>
      </trkpt>
      <trkpt lat="48.15896" lon="6.39738">
        <ele>429.2</ele>
        <time>2023-10-01T06:55:41Z</time>
      </trkpt>
      <trkpt lat="48.15898" lon="6.39741">
        <ele>429.2</ele>
        <time>2023-10-01T06:55:42Z</time>
      </trkpt>
      <trkpt lat="48.159" lon="6.39745">
        <ele>429.2</ele>
        <time>2023-10-01T06:55:43Z</time>
      </trkpt>
      <trkpt lat="48.15901" lon="6.39748">
        <ele>429.4</ele>
        <time>2023-10-01T06:55:44Z</time>
      </trkpt>
      <trkpt lat="48.15902" lon="6.3975">
        <ele>429.6</ele>
        <time>2023-10-01T06:55:45Z</time>
      </trkpt>
      <trkpt lat="48.15904" lon="6.39754">
        <ele>429.8</ele>
        <time>2023-10-01T06:55:46Z</time>
      </trkpt>
      <trkpt lat="48.15906" lon="6.3976">
        <ele>430</ele>
        <time>2023-10-01T06:55:47Z</time>
      </trkpt>
      <trkpt lat="48.15907" lon="6.39765">
        <ele>430</ele>
        <time>2023-10-01T06:55:48Z</time>
      </trkpt>
      <trkpt lat="48.15909" lon="6.39769">
        <ele>430.6</ele>
        <time>2023-10-01T06:55:49Z</time>
      </trkpt>
      <trkpt lat="48.15911" lon="6.39773">
        <ele>431</ele>
        <time>2023-10-01T06:55:50Z</time>
      </trkpt>
      <trkpt lat="48.15913" lon="6.39776">
        <ele>431.2</ele>
        <time>2023-10-01T06:55:51Z</time>
      </trkpt>
      <trkpt lat="48.15915" lon="6.3978">
        <ele>431.6</ele>
        <time>2023-10-01T06:55:52Z</time>
      </trkpt>
      <trkpt lat="48.15917" lon="6.39784">
        <ele>431.8</ele>
        <time>2023-10-01T06:55:53Z</time>
      </trkpt>
      <trkpt lat="48.15918" lon="6.39787">
        <ele>432.2</ele>
        <time>2023-10-01T06:55:54Z</time>
      </trkpt>
      <trkpt lat="48.1592" lon="6.39791">
        <ele>432.8</ele>
        <time>2023-10-01T06:55:55Z</time>
      </trkpt>
      <trkpt lat="48.15921" lon="6.39795">
        <ele>433.2</ele>
        <time>2023-10-01T06:55:56Z</time>
      </trkpt>
      <trkpt lat="48.15922" lon="6.39798">
        <ele>433.6</ele>
        <time>2023-10-01T06:55:57Z</time>
      </trkpt>
      <trkpt lat="48.15924" lon="6.39801">
        <ele>433.8</ele>
        <time>2023-10-01T06:55:58Z</time>
      </trkpt>
      <trkpt lat="48.15925" lon="6.39805">
        <ele>433.8</ele>
        <time>2023-10-01T06:55:59Z</time>
      </trkpt>
      <trkpt lat="48.15926" lon="6.39809">
        <ele>434</ele>
        <time>2023-10-01T06:56:00Z</time>
      </trkpt>
      <trkpt lat="48.15927" lon="6.39813">
        <ele>434.2</ele>
        <time>2023-10-01T06:56:01Z</time>
      </trkpt>
      <trkpt lat="48.15928" lon="6.39817">
        <ele>434.2</ele>
        <time>2023-10-01T06:56:02Z</time>
      </trkpt>
      <trkpt lat="48.15929" lon="6.3982">
        <ele>434.4</ele>
        <time>2023-10-01T06:56:03Z</time>
      </trkpt>
      <trkpt lat="48.15931" lon="6.39824">
        <ele>434.6</ele>
        <time>2023-10-01T06:56:04Z</time>
      </trkpt>
      <trkpt lat="48.15932" lon="6.39828">
        <ele>434.6</ele>
        <time>2023-10-01T06:56:05Z</time>
      </trkpt>
      <trkpt lat="48.15934" lon="6.39832">
        <ele>434.8</ele>
        <time>2023-10-01T06:56:06Z</time>
      </trkpt>
      <trkpt lat="48.15936" lon="6.39835">
        <ele>435</ele>
        <time>2023-10-01T06:56:07Z</time>
      </trkpt>
      <trkpt lat="48.15935" lon="6.39838">
        <ele>435</ele>
        <time>2023-10-01T06:56:08Z</time>
      </trkpt>
      <trkpt lat="48.15935" lon="6.39844">
        <ele>435.2</ele>
        <time>2023-10-01T06:56:09Z</time>
      </trkpt>
      <trkpt lat="48.15937" lon="6.39848">
        <ele>435.4</ele>
        <time>2023-10-01T06:56:10Z</time>
      </trkpt>
      <trkpt lat="48.15938" lon="6.39852">
        <ele>435.6</ele>
        <time>2023-10-01T06:56:11Z</time>
      </trkpt>
      <trkpt lat="48.1594" lon="6.39857">
        <ele>435.6</ele>
        <time>2023-10-01T06:56:12Z</time>
      </trkpt>
      <trkpt lat="48.15942" lon="6.39862">
        <ele>435.8</ele>
        <time>2023-10-01T06:56:13Z</time>
      </trkpt>
      <trkpt lat="48.15944" lon="6.39864">
        <ele>435.8</ele>
        <time>2023-10-01T06:56:14Z</time>
      </trkpt>
      <trkpt lat="48.15946" lon="6.39866">
        <ele>436.2</ele>
        <time>2023-10-01T06:56:15Z</time>
      </trkpt>
      <trkpt lat="48.15948" lon="6.3987">
        <ele>436.4</ele>
        <time>2023-10-01T06:56:16Z</time>
      </trkpt>
      <trkpt lat="48.15949" lon="6.39874">
        <ele>436.8</ele>
        <time>2023-10-01T06:56:17Z</time>
      </trkpt>
      <trkpt lat="48.1595" lon="6.39878">
        <ele>437</ele>
        <time>2023-10-01T06:56:18Z</time>
      </trkpt>
      <trkpt lat="48.1595" lon="6.39882">
        <ele>437.2</ele>
        <time>2023-10-01T06:56:19Z</time>
      </trkpt>
      <trkpt lat="48.1595" lon="6.39887">
        <ele>437.4</ele>
        <time>2023-10-01T06:56:20Z</time>
      </trkpt>
      <trkpt lat="48.15952" lon="6.3989">
        <ele>437.4</ele>
        <time>2023-10-01T06:56:21Z</time>
      </trkpt>
      <trkpt lat="48.15953" lon="6.39895">
        <ele>437.6</ele>
        <time>2023-10-01T06:56:22Z</time>
      </trkpt>
      <trkpt lat="48.15953" lon="6.399">
        <ele>437.6</ele>
        <time>2023-10-01T06:56:23Z</time>
      </trkpt>
      <trkpt lat="48.15953" lon="6.39905">
        <ele>437.8</ele>
        <time>2023-10-01T06:56:24Z</time>
      </trkpt>
      <trkpt lat="48.15955" lon="6.39911">
        <ele>437.8</ele>
        <time>2023-10-01T06:56:25Z</time>
      </trkpt>
      <trkpt lat="48.15956" lon="6.39914">
        <ele>437.8</ele>
        <time>2023-10-01T06:56:26Z</time>
      </trkpt>
      <trkpt lat="48.15958" lon="6.39916">
        <ele>438</ele>
        <time>2023-10-01T06:56:27Z</time>
      </trkpt>
      <trkpt lat="48.15958" lon="6.39922">
        <ele>438</ele>
        <time>2023-10-01T06:56:28Z</time>
      </trkpt>
      <trkpt lat="48.15958" lon="6.39927">
        <ele>438</ele>
        <time>2023-10-01T06:56:29Z</time>
      </trkpt>
      <trkpt lat="48.15959" lon="6.39931">
        <ele>438</ele>
        <time>2023-10-01T06:56:30Z</time>
      </trkpt>
      <trkpt lat="48.1596" lon="6.39936">
        <ele>438.2</ele>
        <time>2023-10-01T06:56:31Z</time>
      </trkpt>
      <trkpt lat="48.15961" lon="6.39938">
        <ele>438.2</ele>
        <time>2023-10-01T06:56:32Z</time>
      </trkpt>
      <trkpt lat="48.15963" lon="6.39943">
        <ele>438.4</ele>
        <time>2023-10-01T06:56:33Z</time>
      </trkpt>
      <trkpt lat="48.15964" lon="6.39948">
        <ele>438.4</ele>
        <time>2023-10-01T06:56:34Z</time>
      </trkpt>
      <trkpt lat="48.15965" lon="6.39954">
        <ele>438.4</ele>
        <time>2023-10-01T06:56:35Z</time>
      </trkpt>
      <trkpt lat="48.15968" lon="6.3996">
        <ele>438.4</ele>
        <time>2023-10-01T06:56:36Z</time>
      </trkpt>
      <trkpt lat="48.15971" lon="6.39966">
        <ele>438.4</ele>
        <time>2023-10-01T06:56:37Z</time>
      </trkpt>
      <trkpt lat="48.15971" lon="6.39971">
        <ele>438.6</ele>
        <time>2023-10-01T06:56:38Z</time>
      </trkpt>
      <trkpt lat="48.15972" lon="6.39977">
        <ele>438.6</ele>
        <time>2023-10-01T06:56:39Z</time>
      </trkpt>
      <trkpt lat="48.15973" lon="6.39983">
        <ele>438.4</ele>
        <time>2023-10-01T06:56:40Z</time>
      </trkpt>
      <trkpt lat="48.15975" lon="6.3999">
        <ele>438.4</ele>
        <time>2023-10-01T06:56:41Z</time>
      </trkpt>
      <trkpt lat="48.15978" lon="6.40002">
        <ele>438.4</ele>
        <time>2023-10-01T06:56:42Z</time>
      </trkpt>
      <trkpt lat="48.15979" lon="6.40009">
        <ele>438.4</ele>
        <time>2023-10-01T06:56:43Z</time>
      </trkpt>
      <trkpt lat="48.1598" lon="6.40015">
        <ele>438.2</ele>
        <time>2023-10-01T06:56:44Z</time>
      </trkpt>
      <trkpt lat="48.15983" lon="6.4002">
        <ele>438</ele>
        <time>2023-10-01T06:56:45Z</time>
      </trkpt>
      <trkpt lat="48.15985" lon="6.40026">
        <ele>438</ele>
        <time>2023-10-01T06:56:46Z</time>
      </trkpt>
      <trkpt lat="48.15986" lon="6.40029">
        <ele>438</ele>
        <time>2023-10-01T06:56:47Z</time>
      </trkpt>
      <trkpt lat="48.15989" lon="6.40032">
        <ele>438</ele>
        <time>2023-10-01T06:56:48Z</time>
      </trkpt>
      <trkpt lat="48.15991" lon="6.40032">
        <ele>438</ele>
        <time>2023-10-01T06:56:49Z</time>
      </trkpt>
      <trkpt lat="48.15993" lon="6.40031">
        <ele>438</ele>
        <time>2023-10-01T06:56:50Z</time>
      </trkpt>
      <trkpt lat="48.15994" lon="6.40029">
        <ele>438</ele>
        <time>2023-10-01T06:56:51Z</time>
      </trkpt>
      <trkpt lat="48.15995" lon="6.40026">
        <ele>438</ele>
        <time>2023-10-01T06:56:52Z</time>
      </trkpt>
      <trkpt lat="48.15996" lon="6.40022">
        <ele>438.2</ele>
        <time>2023-10-01T06:56:53Z</time>
      </trkpt>
      <trkpt lat="48.15997" lon="6.40018">
        <ele>438.2</ele>
        <time>2023-10-01T06:56:54Z</time>
      </trkpt>
      <trkpt lat="48.15998" lon="6.40015">
        <ele>438.6</ele>
        <time>2023-10-01T06:56:55Z</time>
      </trkpt>
      <trkpt lat="48.16" lon="6.40011">
        <ele>438.6</ele>
        <time>2023-10-01T06:56:56Z</time>
      </trkpt>
      <trkpt lat="48.16001" lon="6.40008">
        <ele>438.8</ele>
        <time>2023-10-01T06:56:57Z</time>
      </trkpt>
      <trkpt lat="48.16002" lon="6.40005">
        <ele>439</ele>
        <time>2023-10-01T06:56:58Z</time>
      </trkpt>
      <trkpt lat="48.16003" lon="6.4">
        <ele>439.2</ele>
        <time>2023-10-01T06:56:59Z</time>
      </trkpt>
      <trkpt lat="48.16004" lon="6.39995">
        <ele>439.2</ele>
        <time>2023-10-01T06:57:00Z</time>
      </trkpt>
      <trkpt lat="48.16005" lon="6.39991">
        <ele>439.6</ele>
        <time>2023-10-01T06:57:01Z</time>
      </trkpt>
      <trkpt lat="48.16007" lon="6.39986">
        <ele>439.8</ele>
        <time>2023-10-01T06:57:02Z</time>
      </trkpt>
      <trkpt lat="48.16008" lon="6.39982">
        <ele>440</ele>
        <time>2023-10-01T06:57:03Z</time>
      </trkpt>
      <trkpt lat="48.16011" lon="6.39979">
        <ele>440</ele>
        <time>2023-10-01T06:57:04Z</time>
      </trkpt>
      <trkpt lat="48.16014" lon="6.39977">
        <ele>440.2</ele>
        <time>2023-10-01T06:57:05Z</time>
      </trkpt>
      <trkpt lat="48.16016" lon="6.39974">
        <ele>440.4</ele>
        <time>2023-10-01T06:57:06Z</time>
      </trkpt>
      <trkpt lat="48.1602" lon="6.39971">
        <ele>440.6</ele>
        <time>2023-10-01T06:57:07Z</time>
      </trkpt>
      <trkpt lat="48.16022" lon="6.39967">
        <ele>440.8</ele>
        <time>2023-10-01T06:57:08Z</time>
      </trkpt>
      <trkpt lat="48.16024" lon="6.39962">
        <ele>440.8</ele>
        <time>2023-10-01T06:57:09Z</time>
      </trkpt>
      <trkpt lat="48.16025" lon="6.39958">
        <ele>441</ele>
        <time>2023-10-01T06:57:10Z</time>
      </trkpt>
      <trkpt lat="48.16025" lon="6.39952">
        <ele>441</ele>
        <time>2023-10-01T06:57:11Z</time>
      </trkpt>
      <trkpt lat="48.16025" lon="6.39947">
        <ele>441</ele>
        <time>2023-10-01T06:57:12Z</time>
      </trkpt>
      <trkpt lat="48.16025" lon="6.39942">
        <ele>441</ele>
        <time>2023-10-01T06:57:13Z</time>
      </trkpt>
      <trkpt lat="48.16026" lon="6.39937">
        <ele>441</ele>
        <time>2023-10-01T06:57:14Z</time>
      </trkpt>
      <trkpt lat="48.16027" lon="6.39931">
        <ele>441</ele>
        <time>2023-10-01T06:57:15Z</time>
      </trkpt>
      <trkpt lat="48.16028" lon="6.39925">
        <ele>441.2</ele>
        <time>2023-10-01T06:57:16Z</time>
      </trkpt>
      <trkpt lat="48.16028" lon="6.3992">
        <ele>441.4</ele>
        <time>2023-10-01T06:57:17Z</time>
      </trkpt>
      <trkpt lat="48.16028" lon="6.39915">
        <ele>441.4</ele>
        <time>2023-10-01T06:57:18Z</time>
      </trkpt>
      <trkpt lat="48.16028" lon="6.39908">
        <ele>441.4</ele>
        <time>2023-10-01T06:57:19Z</time>
      </trkpt>
      <trkpt lat="48.16029" lon="6.39901">
        <ele>441.6</ele>
        <time>2023-10-01T06:57:20Z</time>
      </trkpt>
      <trkpt lat="48.16031" lon="6.39894">
        <ele>441.6</ele>
        <time>2023-10-01T06:57:21Z</time>
      </trkpt>
      <trkpt lat="48.16034" lon="6.39884">
        <ele>441.8</ele>
        <time>2023-10-01T06:57:22Z</time>
      </trkpt>
      <trkpt lat="48.16036" lon="6.39879">
        <ele>441.8</ele>
        <time>2023-10-01T06:57:23Z</time>
      </trkpt>
      <trkpt lat="48.16037" lon="6.39874">
        <ele>441.6</ele>
        <time>2023-10-01T06:57:24Z</time>
      </trkpt>
      <trkpt lat="48.16037" lon="6.3987">
        <ele>441.6</ele>
        <time>2023-10-01T06:57:25Z</time>
      </trkpt>
      <trkpt lat="48.16038" lon="6.39865">
        <ele>441.6</ele>
        <time>2023-10-01T06:57:26Z</time>
      </trkpt>
      <trkpt lat="48.1604" lon="6.3986">
        <ele>441.6</ele>
        <time>2023-10-01T06:57:27Z</time>
      </trkpt>
      <trkpt lat="48.16042" lon="6.39855">
        <ele>441.8</ele>
        <time>2023-10-01T06:57:28Z</time>
      </trkpt>
      <trkpt lat="48.16045" lon="6.39847">
        <ele>441.8</ele>
        <time>2023-10-01T06:57:29Z</time>
      </trkpt>
      <trkpt lat="48.16047" lon="6.39844">
        <ele>441.8</ele>
        <time>2023-10-01T06:57:30Z</time>
      </trkpt>
      <trkpt lat="48.1605" lon="6.39839">
        <ele>441.8</ele>
        <time>2023-10-01T06:57:31Z</time>
      </trkpt>
      <trkpt lat="48.16052" lon="6.39834">
        <ele>441.8</ele>
        <time>2023-10-01T06:57:32Z</time>
      </trkpt>
      <trkpt lat="48.16053" lon="6.39826">
        <ele>441.8</ele>
        <time>2023-10-01T06:57:33Z</time>
      </trkpt>
      <trkpt lat="48.16057" lon="6.3982">
        <ele>441.8</ele>
        <time>2023-10-01T06:57:34Z</time>
      </trkpt>
      <trkpt lat="48.16061" lon="6.39814">
        <ele>442</ele>
        <time>2023-10-01T06:57:35Z</time>
      </trkpt>
      <trkpt lat="48.16064" lon="6.3981">
        <ele>442</ele>
        <time>2023-10-01T06:57:36Z</time>
      </trkpt>
      <trkpt lat="48.16066" lon="6.39805">
        <ele>442</ele>
        <time>2023-10-01T06:57:37Z</time>
      </trkpt>
      <trkpt lat="48.16071" lon="6.398">
        <ele>442</ele>
        <time>2023-10-01T06:57:38Z</time>
      </trkpt>
      <trkpt lat="48.16075" lon="6.39796">
        <ele>442</ele>
        <time>2023-10-01T06:57:39Z</time>
      </trkpt>
      <trkpt lat="48.1608" lon="6.39791">
        <ele>442</ele>
        <time>2023-10-01T06:57:40Z</time>
      </trkpt>
      <trkpt lat="48.16084" lon="6.39787">
        <ele>441.8</ele>
        <time>2023-10-01T06:57:41Z</time>
      </trkpt>
      <trkpt lat="48.16088" lon="6.3978">
        <ele>441.8</ele>
        <time>2023-10-01T06:57:42Z</time>
      </trkpt>
      <trkpt lat="48.16092" lon="6.39774">
        <ele>441.8</ele>
        <time>2023-10-01T06:57:43Z</time>
      </trkpt>
      <trkpt lat="48.16094" lon="6.39769">
        <ele>441.8</ele>
        <time>2023-10-01T06:57:44Z</time>
      </trkpt>
      <trkpt lat="48.16095" lon="6.39762">
        <ele>441.8</ele>
        <time>2023-10-01T06:57:45Z</time>
      </trkpt>
      <trkpt lat="48.16099" lon="6.39755">
        <ele>441.8</ele>
        <time>2023-10-01T06:57:46Z</time>
      </trkpt>
      <trkpt lat="48.16103" lon="6.39749">
        <ele>441.8</ele>
        <time>2023-10-01T06:57:47Z</time>
      </trkpt>
      <trkpt lat="48.16108" lon="6.39743">
        <ele>441.6</ele>
        <time>2023-10-01T06:57:48Z</time>
      </trkpt>
      <trkpt lat="48.16112" lon="6.39739">
        <ele>441.6</ele>
        <time>2023-10-01T06:57:49Z</time>
      </trkpt>
      <trkpt lat="48.16116" lon="6.39735">
        <ele>441.6</ele>
        <time>2023-10-01T06:57:50Z</time>
      </trkpt>
      <trkpt lat="48.16119" lon="6.3973">
        <ele>441.6</ele>
        <time>2023-10-01T06:57:51Z</time>
      </trkpt>
      <trkpt lat="48.16123" lon="6.39723">
        <ele>441.6</ele>
        <time>2023-10-01T06:57:52Z</time>
      </trkpt>
      <trkpt lat="48.16125" lon="6.39715">
        <ele>441.4</ele>
        <time>2023-10-01T06:57:53Z</time>
      </trkpt>
      <trkpt lat="48.16123" lon="6.39707">
        <ele>441.2</ele>
        <time>2023-10-01T06:57:54Z</time>
      </trkpt>
      <trkpt lat="48.1612" lon="6.39697">
        <ele>441.2</ele>
        <time>2023-10-01T06:57:55Z</time>
      </trkpt>
      <trkpt lat="48.16121" lon="6.39685">
        <ele>440.8</ele>
        <time>2023-10-01T06:57:56Z</time>
      </trkpt>
      <trkpt lat="48.16122" lon="6.39672">
        <ele>440.8</ele>
        <time>2023-10-01T06:57:57Z</time>
      </trkpt>
      <trkpt lat="48.16122" lon="6.39665">
        <ele>440.4</ele>
        <time>2023-10-01T06:57:58Z</time>
      </trkpt>
      <trkpt lat="48.16123" lon="6.39654">
        <ele>440.4</ele>
        <time>2023-10-01T06:57:59Z</time>
      </trkpt>
      <trkpt lat="48.16124" lon="6.39648">
        <ele>440.2</ele>
        <time>2023-10-01T06:58:00Z</time>
      </trkpt>
      <trkpt lat="48.16126" lon="6.39642">
        <ele>440</ele>
        <time>2023-10-01T06:58:01Z</time>
      </trkpt>
      <trkpt lat="48.16127" lon="6.39632">
        <ele>439.8</ele>
        <time>2023-10-01T06:58:02Z</time>
      </trkpt>
      <trkpt lat="48.16128" lon="6.39625">
        <ele>439.8</ele>
        <time>2023-10-01T06:58:03Z</time>
      </trkpt>
      <trkpt lat="48.16131" lon="6.39618">
        <ele>439.6</ele>
        <time>2023-10-01T06:58:04Z</time>
      </trkpt>
      <trkpt lat="48.16134" lon="6.39608">
        <ele>439.6</ele>
        <time>2023-10-01T06:58:05Z</time>
      </trkpt>
      <trkpt lat="48.16139" lon="6.39599">
        <ele>439.6</ele>
        <time>2023-10-01T06:58:06Z</time>
      </trkpt>
      <trkpt lat="48.16143" lon="6.39591">
        <ele>439.6</ele>
        <time>2023-10-01T06:58:07Z</time>
      </trkpt>
      <trkpt lat="48.16145" lon="6.39583">
        <ele>439.4</ele>
        <time>2023-10-01T06:58:08Z</time>
      </trkpt>
      <trkpt lat="48.16149" lon="6.39573">
        <ele>439.4</ele>
        <time>2023-10-01T06:58:09Z</time>
      </trkpt>
      <trkpt lat="48.16152" lon="6.39566">
        <ele>439.2</ele>
        <time>2023-10-01T06:58:10Z</time>
      </trkpt>
      <trkpt lat="48.16155" lon="6.3956">
        <ele>439.2</ele>
        <time>2023-10-01T06:58:11Z</time>
      </trkpt>
      <trkpt lat="48.16158" lon="6.39553">
        <ele>439</ele>
        <time>2023-10-01T06:58:12Z</time>
      </trkpt>
      <trkpt lat="48.16162" lon="6.39548">
        <ele>439</ele>
        <time>2023-10-01T06:58:13Z</time>
      </trkpt>
      <trkpt lat="48.16165" lon="6.3954">
        <ele>438.8</ele>
        <time>2023-10-01T06:58:14Z</time>
      </trkpt>
      <trkpt lat="48.16167" lon="6.39531">
        <ele>438.8</ele>
        <time>2023-10-01T06:58:15Z</time>
      </trkpt>
      <trkpt lat="48.1617" lon="6.39522">
        <ele>438.4</ele>
        <time>2023-10-01T06:58:16Z</time>
      </trkpt>
      <trkpt lat="48.16171" lon="6.39516">
        <ele>438.4</ele>
        <time>2023-10-01T06:58:17Z</time>
      </trkpt>
      <trkpt lat="48.16174" lon="6.39512">
        <ele>438.2</ele>
        <time>2023-10-01T06:58:18Z</time>
      </trkpt>
      <trkpt lat="48.16178" lon="6.39506">
        <ele>438.2</ele>
        <time>2023-10-01T06:58:19Z</time>
      </trkpt>
      <trkpt lat="48.1618" lon="6.39501">
        <ele>437.8</ele>
        <time>2023-10-01T06:58:20Z</time>
      </trkpt>
      <trkpt lat="48.16181" lon="6.39497">
        <ele>437.6</ele>
        <time>2023-10-01T06:58:21Z</time>
      </trkpt>
      <trkpt lat="48.16184" lon="6.39493">
        <ele>437.4</ele>
        <time>2023-10-01T06:58:22Z</time>
      </trkpt>
      <trkpt lat="48.16189" lon="6.39487">
        <ele>437.4</ele>
        <time>2023-10-01T06:58:23Z</time>
      </trkpt>
      <trkpt lat="48.16195" lon="6.39482">
        <ele>437.2</ele>
        <time>2023-10-01T06:58:24Z</time>
      </trkpt>
      <trkpt lat="48.162" lon="6.39478">
        <ele>437.2</ele>
        <time>2023-10-01T06:58:25Z</time>
      </trkpt>
      <trkpt lat="48.16204" lon="6.39475">
        <ele>437.2</ele>
        <time>2023-10-01T06:58:26Z</time>
      </trkpt>
      <trkpt lat="48.16207" lon="6.39472">
        <ele>437.2</ele>
        <time>2023-10-01T06:58:27Z</time>
      </trkpt>
      <trkpt lat="48.16214" lon="6.39464">
        <ele>437.2</ele>
        <time>2023-10-01T06:58:28Z</time>
      </trkpt>
      <trkpt lat="48.16218" lon="6.39458">
        <ele>437.2</ele>
        <time>2023-10-01T06:58:29Z</time>
      </trkpt>
      <trkpt lat="48.16222" lon="6.39454">
        <ele>437.2</ele>
        <time>2023-10-01T06:58:30Z</time>
      </trkpt>
      <trkpt lat="48.16225" lon="6.39453">
        <ele>437.2</ele>
        <time>2023-10-01T06:58:31Z</time>
      </trkpt>
      <trkpt lat="48.16227" lon="6.39454">
        <ele>437</ele>
        <time>2023-10-01T06:58:32Z</time>
      </trkpt>
      <trkpt lat="48.16229" lon="6.39455">
        <ele>437</ele>
        <time>2023-10-01T06:58:33Z</time>
      </trkpt>
      <trkpt lat="48.16229" lon="6.39459">
        <ele>437</ele>
        <time>2023-10-01T06:58:34Z</time>
      </trkpt>
      <trkpt lat="48.16228" lon="6.39462">
        <ele>437</ele>
        <time>2023-10-01T06:58:35Z</time>
      </trkpt>
      <trkpt lat="48.16228" lon="6.39466">
        <ele>437</ele>
        <time>2023-10-01T06:58:36Z</time>
      </trkpt>
      <trkpt lat="48.16228" lon="6.39468">
        <ele>437</ele>
        <time>2023-10-01T06:58:37Z</time>
      </trkpt>
      <trkpt lat="48.16227" lon="6.39471">
        <ele>437</ele>
        <time>2023-10-01T06:58:38Z</time>
      </trkpt>
      <trkpt lat="48.16226" lon="6.39475">
        <ele>437</ele>
        <time>2023-10-01T06:58:39Z</time>
      </trkpt>
      <trkpt lat="48.16225" lon="6.39479">
        <ele>437</ele>
        <time>2023-10-01T06:58:40Z</time>
      </trkpt>
      <trkpt lat="48.16225" lon="6.39483">
        <ele>437.2</ele>
        <time>2023-10-01T06:58:41Z</time>
      </trkpt>
      <trkpt lat="48.16225" lon="6.39487">
        <ele>437.2</ele>
        <time>2023-10-01T06:58:42Z</time>
      </trkpt>
      <trkpt lat="48.16225" lon="6.39491">
        <ele>437.4</ele>
        <time>2023-10-01T06:58:43Z</time>
      </trkpt>
      <trkpt lat="48.16224" lon="6.39495">
        <ele>437.8</ele>
        <time>2023-10-01T06:58:44Z</time>
      </trkpt>
      <trkpt lat="48.16223" lon="6.395">
        <ele>438</ele>
        <time>2023-10-01T06:58:45Z</time>
      </trkpt>
      <trkpt lat="48.16222" lon="6.39504">
        <ele>438.4</ele>
        <time>2023-10-01T06:58:46Z</time>
      </trkpt>
      <trkpt lat="48.16221" lon="6.39507">
        <ele>438.6</ele>
        <time>2023-10-01T06:58:47Z</time>
      </trkpt>
      <trkpt lat="48.1622" lon="6.39511">
        <ele>439.2</ele>
        <time>2023-10-01T06:58:48Z</time>
      </trkpt>
      <trkpt lat="48.1622" lon="6.39515">
        <ele>439.4</ele>
        <time>2023-10-01T06:58:49Z</time>
      </trkpt>
      <trkpt lat="48.1622" lon="6.39521">
        <ele>440</ele>
        <time>2023-10-01T06:58:50Z</time>
      </trkpt>
      <trkpt lat="48.16219" lon="6.39525">
        <ele>440.2</ele>
        <time>2023-10-01T06:58:51Z</time>
      </trkpt>
      <trkpt lat="48.16218" lon="6.3953">
        <ele>440.6</ele>
        <time>2023-10-01T06:58:52Z</time>
      </trkpt>
      <trkpt lat="48.16217" lon="6.39535">
        <ele>440.6</ele>
        <time>2023-10-01T06:58:53Z</time>
      </trkpt>
      <trkpt lat="48.16217" lon="6.3954">
        <ele>440.8</ele>
        <time>2023-10-01T06:58:54Z</time>
      </trkpt>
      <trkpt lat="48.16216" lon="6.39545">
        <ele>441</ele>
        <time>2023-10-01T06:58:55Z</time>
      </trkpt>
      <trkpt lat="48.16215" lon="6.39551">
        <ele>441.2</ele>
        <time>2023-10-01T06:58:56Z</time>
      </trkpt>
      <trkpt lat="48.16214" lon="6.39556">
        <ele>441.4</ele>
        <time>2023-10-01T06:58:57Z</time>
      </trkpt>
      <trkpt lat="48.16213" lon="6.39561">
        <ele>441.6</ele>
        <time>2023-10-01T06:58:58Z</time>
      </trkpt>
      <trkpt lat="48.16213" lon="6.39566">
        <ele>442</ele>
        <time>2023-10-01T06:58:59Z</time>
      </trkpt>
      <trkpt lat="48.16211" lon="6.39571">
        <ele>442.4</ele>
        <time>2023-10-01T06:59:00Z</time>
      </trkpt>
      <trkpt lat="48.1621" lon="6.39574">
        <ele>442.8</ele>
        <time>2023-10-01T06:59:01Z</time>
      </trkpt>
      <trkpt lat="48.16207" lon="6.39578">
        <ele>443.4</ele>
        <time>2023-10-01T06:59:02Z</time>
      </trkpt>
      <trkpt lat="48.16205" lon="6.39583">
        <ele>443.6</ele>
        <time>2023-10-01T06:59:03Z</time>
      </trkpt>
      <trkpt lat="48.16203" lon="6.39588">
        <ele>444</ele>
        <time>2023-10-01T06:59:04Z</time>
      </trkpt>
      <trkpt lat="48.16202" lon="6.39593">
        <ele>444.6</ele>
        <time>2023-10-01T06:59:05Z</time>
      </trkpt>
      <trkpt lat="48.16201" lon="6.39599">
        <ele>444.6</ele>
        <time>2023-10-01T06:59:06Z</time>
      </trkpt>
      <trkpt lat="48.162" lon="6.39604">
        <ele>445</ele>
        <time>2023-10-01T06:59:07Z</time>
      </trkpt>
      <trkpt lat="48.16198" lon="6.39609">
        <ele>445.2</ele>
        <time>2023-10-01T06:59:08Z</time>
      </trkpt>
      <trkpt lat="48.16197" lon="6.39614">
        <ele>445.4</ele>
        <time>2023-10-01T06:59:09Z</time>
      </trkpt>
      <trkpt lat="48.16195" lon="6.39619">
        <ele>445.6</ele>
        <time>2023-10-01T06:59:10Z</time>
      </trkpt>
      <trkpt lat="48.16196" lon="6.39624">
        <ele>445.8</ele>
        <time>2023-10-01T06:59:11Z</time>
      </trkpt>
      <trkpt lat="48.16197" lon="6.39629">
        <ele>445.8</ele>
        <time>2023-10-01T06:59:12Z</time>
      </trkpt>
      <trkpt lat="48.16198" lon="6.39633">
        <ele>446</ele>
        <time>2023-10-01T06:59:13Z</time>
      </trkpt>
      <trkpt lat="48.16197" lon="6.39637">
        <ele>446</ele>
        <time>2023-10-01T06:59:14Z</time>
      </trkpt>
      <trkpt lat="48.16196" lon="6.39641">
        <ele>446.4</ele>
        <time>2023-10-01T06:59:15Z</time>
      </trkpt>
      <trkpt lat="48.16194" lon="6.39645">
        <ele>446.6</ele>
        <time>2023-10-01T06:59:16Z</time>
      </trkpt>
      <trkpt lat="48.16192" lon="6.39652">
        <ele>446.8</ele>
        <time>2023-10-01T06:59:17Z</time>
      </trkpt>
      <trkpt lat="48.1619" lon="6.39659">
        <ele>446.8</ele>
        <time>2023-10-01T06:59:18Z</time>
      </trkpt>
      <trkpt lat="48.1619" lon="6.39666">
        <ele>447</ele>
        <time>2023-10-01T06:59:19Z</time>
      </trkpt>
      <trkpt lat="48.16188" lon="6.39672">
        <ele>447</ele>
        <time>2023-10-01T06:59:20Z</time>
      </trkpt>
      <trkpt lat="48.16189" lon="6.39677">
        <ele>447.2</ele>
        <time>2023-10-01T06:59:21Z</time>
      </trkpt>
      <trkpt lat="48.16189" lon="6.39682">
        <ele>447.2</ele>
        <time>2023-10-01T06:59:22Z</time>
      </trkpt>
      <trkpt lat="48.16188" lon="6.39687">
        <ele>447.4</ele>
        <time>2023-10-01T06:59:23Z</time>
      </trkpt>
      <trkpt lat="48.16188" lon="6.39694">
        <ele>447.4</ele>
        <time>2023-10-01T06:59:24Z</time>
      </trkpt>
      <trkpt lat="48.16187" lon="6.397">
        <ele>447.6</ele>
        <time>2023-10-01T06:59:25Z</time>
      </trkpt>
      <trkpt lat="48.16186" lon="6.39705">
        <ele>447.6</ele>
        <time>2023-10-01T06:59:26Z</time>
      </trkpt>
      <trkpt lat="48.16185" lon="6.3971">
        <ele>447.6</ele>
        <time>2023-10-01T06:59:27Z</time>
      </trkpt>
      <trkpt lat="48.16184" lon="6.39715">
        <ele>447.6</ele>
        <time>2023-10-01T06:59:28Z</time>
      </trkpt>
      <trkpt lat="48.16184" lon="6.39721">
        <ele>447.6</ele>
        <time>2023-10-01T06:59:29Z</time>
      </trkpt>
      <trkpt lat="48.16184" lon="6.39733">
        <ele>447.6</ele>
        <time>2023-10-01T06:59:30Z</time>
      </trkpt>
      <trkpt lat="48.16183" lon="6.39742">
        <ele>447.6</ele>
        <time>2023-10-01T06:59:31Z</time>
      </trkpt>
      <trkpt lat="48.16182" lon="6.39749">
        <ele>447.8</ele>
        <time>2023-10-01T06:59:32Z</time>
      </trkpt>
      <trkpt lat="48.16181" lon="6.39755">
        <ele>447.8</ele>
        <time>2023-10-01T06:59:33Z</time>
      </trkpt>
      <trkpt lat="48.16178" lon="6.39763">
        <ele>447.6</ele>
        <time>2023-10-01T06:59:34Z</time>
      </trkpt>
      <trkpt lat="48.16178" lon="6.39772">
        <ele>447.6</ele>
        <time>2023-10-01T06:59:35Z</time>
      </trkpt>
      <trkpt lat="48.16177" lon="6.39778">
        <ele>447.6</ele>
        <time>2023-10-01T06:59:36Z</time>
      </trkpt>
      <trkpt lat="48.16177" lon="6.39782">
        <ele>447.6</ele>
        <time>2023-10-01T06:59:37Z</time>
      </trkpt>
      <trkpt lat="48.16178" lon="6.39785">
        <ele>447.6</ele>
        <time>2023-10-01T06:59:38Z</time>
      </trkpt>
      <trkpt lat="48.16177" lon="6.39789">
        <ele>447.6</ele>
        <time>2023-10-01T06:59:39Z</time>
      </trkpt>
      <trkpt lat="48.16175" lon="6.39794">
        <ele>447.4</ele>
        <time>2023-10-01T06:59:40Z</time>
      </trkpt>
      <trkpt lat="48.16173" lon="6.39801">
        <ele>447.4</ele>
        <time>2023-10-01T06:59:41Z</time>
      </trkpt>
      <trkpt lat="48.16172" lon="6.39807">
        <ele>447.4</ele>
        <time>2023-10-01T06:59:42Z</time>
      </trkpt>
      <trkpt lat="48.1617" lon="6.39813">
        <ele>447.4</ele>
        <time>2023-10-01T06:59:43Z</time>
      </trkpt>
      <trkpt lat="48.16169" lon="6.39821">
        <ele>447.4</ele>
        <time>2023-10-01T06:59:44Z</time>
      </trkpt>
      <trkpt lat="48.16169" lon="6.39828">
        <ele>447.4</ele>
        <time>2023-10-01T06:59:45Z</time>
      </trkpt>
      <trkpt lat="48.16168" lon="6.39834">
        <ele>447.6</ele>
        <time>2023-10-01T06:59:46Z</time>
      </trkpt>
      <trkpt lat="48.16168" lon="6.39838">
        <ele>447.6</ele>
        <time>2023-10-01T06:59:47Z</time>
      </trkpt>
      <trkpt lat="48.16167" lon="6.39841">
        <ele>447.6</ele>
        <time>2023-10-01T06:59:48Z</time>
      </trkpt>
      <trkpt lat="48.16165" lon="6.39844">
        <ele>447.6</ele>
        <time>2023-10-01T06:59:49Z</time>
      </trkpt>
      <trkpt lat="48.16163" lon="6.39849">
        <ele>447.6</ele>
        <time>2023-10-01T06:59:50Z</time>
      </trkpt>
      <trkpt lat="48.1616" lon="6.39858">
        <ele>447.6</ele>
        <time>2023-10-01T06:59:51Z</time>
      </trkpt>
      <trkpt lat="48.16156" lon="6.39872">
        <ele>447.6</ele>
        <time>2023-10-01T06:59:52Z</time>
      </trkpt>
      <trkpt lat="48.16153" lon="6.39887">
        <ele>447.6</ele>
        <time>2023-10-01T06:59:53Z</time>
      </trkpt>
      <trkpt lat="48.1615" lon="6.39897">
        <ele>447.6</ele>
        <time>2023-10-01T06:59:54Z</time>
      </trkpt>
      <trkpt lat="48.16149" lon="6.39904">
        <ele>447.6</ele>
        <time>2023-10-01T06:59:55Z</time>
      </trkpt>
      <trkpt lat="48.16149" lon="6.39909">
        <ele>447.6</ele>
        <time>2023-10-01T06:59:56Z</time>
      </trkpt>
      <trkpt lat="48.16149" lon="6.39914">
        <ele>447.4</ele>
        <time>2023-10-01T06:59:57Z</time>
      </trkpt>
      <trkpt lat="48.1615" lon="6.39919">
        <ele>447.4</ele>
        <time>2023-10-01T06:59:58Z</time>
      </trkpt>
      <trkpt lat="48.16149" lon="6.39927">
        <ele>447.2</ele>
        <time>2023-10-01T06:59:59Z</time>
      </trkpt>
      <trkpt lat="48.16148" lon="6.39941">
        <ele>447</ele>
        <time>2023-10-01T07:00:00Z</time>
      </trkpt>
      <trkpt lat="48.16145" lon="6.39953">
        <ele>446.6</ele>
        <time>2023-10-01T07:00:01Z</time>
      </trkpt>
      <trkpt lat="48.16141" lon="6.39966">
        <ele>446.6</ele>
        <time>2023-10-01T07:00:02Z</time>
      </trkpt>
      <trkpt lat="48.16138" lon="6.39976">
        <ele>445.8</ele>
        <time>2023-10-01T07:00:03Z</time>
      </trkpt>
      <trkpt lat="48.16138" lon="6.39982">
        <ele>445.6</ele>
        <time>2023-10-01T07:00:04Z</time>
      </trkpt>
      <trkpt lat="48.16141" lon="6.39986">
        <ele>445.4</ele>
        <time>2023-10-01T07:00:05Z</time>
      </trkpt>
      <trkpt lat="48.16145" lon="6.39991">
        <ele>445.2</ele>
        <time>2023-10-01T07:00:06Z</time>
      </trkpt>
      <trkpt lat="48.16149" lon="6.39994">
        <ele>444.8</ele>
        <time>2023-10-01T07:00:07Z</time>
      </trkpt>
      <trkpt lat="48.16152" lon="6.39996">
        <ele>444.4</ele>
        <time>2023-10-01T07:00:08Z</time>
      </trkpt>
      <trkpt lat="48.16155" lon="6.39998">
        <ele>443.8</ele>
        <time>2023-10-01T07:00:09Z</time>
      </trkpt>
      <trkpt lat="48.1616" lon="6.39998">
        <ele>443.6</ele>
        <time>2023-10-01T07:00:10Z</time>
      </trkpt>
      <trkpt lat="48.16165" lon="6.39997">
        <ele>443.2</ele>
        <time>2023-10-01T07:00:11Z</time>
      </trkpt>
      <trkpt lat="48.16171" lon="6.39997">
        <ele>443</ele>
        <time>2023-10-01T07:00:12Z</time>
      </trkpt>
      <trkpt lat="48.16176" lon="6.39996">
        <ele>442.8</ele>
        <time>2023-10-01T07:00:13Z</time>
      </trkpt>
      <trkpt lat="48.16179" lon="6.39996">
        <ele>442.8</ele>
        <time>2023-10-01T07:00:14Z</time>
      </trkpt>
      <trkpt lat="48.16186" lon="6.39997">
        <ele>442.8</ele>
        <time>2023-10-01T07:00:15Z</time>
      </trkpt>
      <trkpt lat="48.16192" lon="6.39996">
        <ele>442.6</ele>
        <time>2023-10-01T07:00:16Z</time>
      </trkpt>
      <trkpt lat="48.16197" lon="6.39994">
        <ele>442.6</ele>
        <time>2023-10-01T07:00:17Z</time>
      </trkpt>
      <trkpt lat="48.16204" lon="6.3999">
        <ele>442.6</ele>
        <time>2023-10-01T07:00:18Z</time>
      </trkpt>
      <trkpt lat="48.16211" lon="6.39988">
        <ele>442.6</ele>
        <time>2023-10-01T07:00:19Z</time>
      </trkpt>
      <trkpt lat="48.16213" lon="6.39984">
        <ele>442.8</ele>
        <time>2023-10-01T07:00:20Z</time>
      </trkpt>
      <trkpt lat="48.16215" lon="6.39981">
        <ele>442.8</ele>
        <time>2023-10-01T07:00:21Z</time>
      </trkpt>
      <trkpt lat="48.16218" lon="6.39977">
        <ele>443</ele>
        <time>2023-10-01T07:00:22Z</time>
      </trkpt>
      <trkpt lat="48.16221" lon="6.39974">
        <ele>443</ele>
        <time>2023-10-01T07:00:23Z</time>
      </trkpt>
      <trkpt lat="48.16224" lon="6.39972">
        <ele>443.2</ele>
        <time>2023-10-01T07:00:24Z</time>
      </trkpt>
      <trkpt lat="48.16226" lon="6.39971">
        <ele>443.2</ele>
        <time>2023-10-01T07:00:25Z</time>
      </trkpt>
      <trkpt lat="48.16231" lon="6.39968">
        <ele>443.4</ele>
        <time>2023-10-01T07:00:26Z</time>
      </trkpt>
      <trkpt lat="48.16234" lon="6.39965">
        <ele>443.4</ele>
        <time>2023-10-01T07:00:27Z</time>
      </trkpt>
      <trkpt lat="48.16237" lon="6.39962">
        <ele>443.6</ele>
        <time>2023-10-01T07:00:28Z</time>
      </trkpt>
      <trkpt lat="48.1624" lon="6.39958">
        <ele>443.8</ele>
        <time>2023-10-01T07:00:29Z</time>
      </trkpt>
      <trkpt lat="48.16244" lon="6.39953">
        <ele>443.8</ele>
        <time>2023-10-01T07:00:30Z</time>
      </trkpt>
      <trkpt lat="48.16245" lon="6.3995">
        <ele>444</ele>
        <time>2023-10-01T07:00:31Z</time>
      </trkpt>
      <trkpt lat="48.16246" lon="6.39946">
        <ele>444</ele>
        <time>2023-10-01T07:00:32Z</time>
      </trkpt>
      <trkpt lat="48.16248" lon="6.39941">
        <ele>444.2</ele>
        <time>2023-10-01T07:00:33Z</time>
      </trkpt>
      <trkpt lat="48.1625" lon="6.39935">
        <ele>444.2</ele>
        <time>2023-10-01T07:00:34Z</time>
      </trkpt>
      <trkpt lat="48.16253" lon="6.3993">
        <ele>444.4</ele>
        <time>2023-10-01T07:00:35Z</time>
      </trkpt>
      <trkpt lat="48.16257" lon="6.39927">
        <ele>444.4</ele>
        <time>2023-10-01T07:00:36Z</time>
      </trkpt>
      <trkpt lat="48.1626" lon="6.39925">
        <ele>444.4</ele>
        <time>2023-10-01T07:00:37Z</time>
      </trkpt>
      <trkpt lat="48.16263" lon="6.39925">
        <ele>444.4</ele>
        <time>2023-10-01T07:00:38Z</time>
      </trkpt>
      <trkpt lat="48.16268" lon="6.39925">
        <ele>444.6</ele>
        <time>2023-10-01T07:00:39Z</time>
      </trkpt>
      <trkpt lat="48.16273" lon="6.39926">
        <ele>444.6</ele>
        <time>2023-10-01T07:00:40Z</time>
      </trkpt>
      <trkpt lat="48.1628" lon="6.39926">
        <ele>444.6</ele>
        <time>2023-10-01T07:00:41Z</time>
      </trkpt>
      <trkpt lat="48.16285" lon="6.39925">
        <ele>444.4</ele>
        <time>2023-10-01T07:00:42Z</time>
      </trkpt>
      <trkpt lat="48.16288" lon="6.39923">
        <ele>444.4</ele>
        <time>2023-10-01T07:00:43Z</time>
      </trkpt>
      <trkpt lat="48.16292" lon="6.39922">
        <ele>444.4</ele>
        <time>2023-10-01T07:00:44Z</time>
      </trkpt>
      <trkpt lat="48.16297" lon="6.39922">
        <ele>444.2</ele>
        <time>2023-10-01T07:00:45Z</time>
      </trkpt>
      <trkpt lat="48.16302" lon="6.39922">
        <ele>444.2</ele>
        <time>2023-10-01T07:00:46Z</time>
      </trkpt>
      <trkpt lat="48.16311" lon="6.39925">
        <ele>443.8</ele>
        <time>2023-10-01T07:00:47Z</time>
      </trkpt>
      <trkpt lat="48.16319" lon="6.39927">
        <ele>443.6</ele>
        <time>2023-10-01T07:00:48Z</time>
      </trkpt>
      <trkpt lat="48.16328" lon="6.39928">
        <ele>443.4</ele>
        <time>2023-10-01T07:00:49Z</time>
      </trkpt>
      <trkpt lat="48.16335" lon="6.39928">
        <ele>443.2</ele>
        <time>2023-10-01T07:00:50Z</time>
      </trkpt>
      <trkpt lat="48.16344" lon="6.39929">
        <ele>442.6</ele>
        <time>2023-10-01T07:00:51Z</time>
      </trkpt>
      <trkpt lat="48.16352" lon="6.3993">
        <ele>442.4</ele>
        <time>2023-10-01T07:00:52Z</time>
      </trkpt>
      <trkpt lat="48.16361" lon="6.39934">
        <ele>442.2</ele>
        <time>2023-10-01T07:00:53Z</time>
      </trkpt>
      <trkpt lat="48.1637" lon="6.39936">
        <ele>441.8</ele>
        <time>2023-10-01T07:00:54Z</time>
      </trkpt>
      <trkpt lat="48.16379" lon="6.39937">
        <ele>440.8</ele>
        <time>2023-10-01T07:00:55Z</time>
      </trkpt>
      <trkpt lat="48.16385" lon="6.39937">
        <ele>439.8</ele>
        <time>2023-10-01T07:00:56Z</time>
      </trkpt>
      <trkpt lat="48.1639" lon="6.39938">
        <ele>439.6</ele>
        <time>2023-10-01T07:00:57Z</time>
      </trkpt>
      <trkpt lat="48.16391" lon="6.39942">
        <ele>439.4</ele>
        <time>2023-10-01T07:00:58Z</time>
      </trkpt>
      <trkpt lat="48.16391" lon="6.39947">
        <ele>439.2</ele>
        <time>2023-10-01T07:00:59Z</time>
      </trkpt>
      <trkpt lat="48.16389" lon="6.39951">
        <ele>438.6</ele>
        <time>2023-10-01T07:01:00Z</time>
      </trkpt>
      <trkpt lat="48.16387" lon="6.39957">
        <ele>438.4</ele>
        <time>2023-10-01T07:01:01Z</time>
      </trkpt>
      <trkpt lat="48.16386" lon="6.39963">
        <ele>438</ele>
        <time>2023-10-01T07:01:02Z</time>
      </trkpt>
      <trkpt lat="48.16386" lon="6.39969">
        <ele>437.8</ele>
        <time>2023-10-01T07:01:03Z</time>
      </trkpt>
      <trkpt lat="48.16385" lon="6.39976">
        <ele>437.6</ele>
        <time>2023-10-01T07:01:04Z</time>
      </trkpt>
      <trkpt lat="48.16385" lon="6.39984">
        <ele>437.6</ele>
        <time>2023-10-01T07:01:05Z</time>
      </trkpt>
      <trkpt lat="48.16384" lon="6.39992">
        <ele>437.6</ele>
        <time>2023-10-01T07:01:06Z</time>
      </trkpt>
      <trkpt lat="48.16384" lon="6.40001">
        <ele>437.4</ele>
        <time>2023-10-01T07:01:07Z</time>
      </trkpt>
      <trkpt lat="48.16383" lon="6.40009">
        <ele>437.4</ele>
        <time>2023-10-01T07:01:08Z</time>
      </trkpt>
      <trkpt lat="48.16383" lon="6.40019">
        <ele>437.4</ele>
        <time>2023-10-01T07:01:09Z</time>
      </trkpt>
      <trkpt lat="48.16383" lon="6.4003">
        <ele>437.2</ele>
        <time>2023-10-01T07:01:10Z</time>
      </trkpt>
      <trkpt lat="48.16383" lon="6.4004">
        <ele>437</ele>
        <time>2023-10-01T07:01:11Z</time>
      </trkpt>
      <trkpt lat="48.16382" lon="6.40048">
        <ele>436.8</ele>
        <time>2023-10-01T07:01:12Z</time>
      </trkpt>
      <trkpt lat="48.16381" lon="6.40057">
        <ele>436.6</ele>
        <time>2023-10-01T07:01:13Z</time>
      </trkpt>
      <trkpt lat="48.16382" lon="6.40067">
        <ele>436.4</ele>
        <time>2023-10-01T07:01:14Z</time>
      </trkpt>
      <trkpt lat="48.16382" lon="6.40076">
        <ele>436.4</ele>
        <time>2023-10-01T07:01:15Z</time>
      </trkpt>
      <trkpt lat="48.16382" lon="6.40086">
        <ele>436</ele>
        <time>2023-10-01T07:01:16Z</time>
      </trkpt>
      <trkpt lat="48.16381" lon="6.40094">
        <ele>435.8</ele>
        <time>2023-10-01T07:01:17Z</time>
      </trkpt>
      <trkpt lat="48.16381" lon="6.40102">
        <ele>435.6</ele>
        <time>2023-10-01T07:01:18Z</time>
      </trkpt>
      <trkpt lat="48.1638" lon="6.40111">
        <ele>435.4</ele>
        <time>2023-10-01T07:01:19Z</time>
      </trkpt>
      <trkpt lat="48.1638" lon="6.4012">
        <ele>435.4</ele>
        <time>2023-10-01T07:01:20Z</time>
      </trkpt>
      <trkpt lat="48.1638" lon="6.40129">
        <ele>435.2</ele>
        <time>2023-10-01T07:01:21Z</time>
      </trkpt>
      <trkpt lat="48.16381" lon="6.40138">
        <ele>435.2</ele>
        <time>2023-10-01T07:01:22Z</time>
      </trkpt>
      <trkpt lat="48.16382" lon="6.40146">
        <ele>435</ele>
        <time>2023-10-01T07:01:23Z</time>
      </trkpt>
      <trkpt lat="48.16383" lon="6.40156">
        <ele>435</ele>
        <time>2023-10-01T07:01:24Z</time>
      </trkpt>
      <trkpt lat="48.16385" lon="6.40164">
        <ele>435</ele>
        <time>2023-10-01T07:01:25Z</time>
      </trkpt>
      <trkpt lat="48.16386" lon="6.40172">
        <ele>435</ele>
        <time>2023-10-01T07:01:26Z</time>
      </trkpt>
      <trkpt lat="48.16387" lon="6.40179">
        <ele>435</ele>
        <time>2023-10-01T07:01:27Z</time>
      </trkpt>
      <trkpt lat="48.16388" lon="6.40186">
        <ele>435</ele>
        <time>2023-10-01T07:01:28Z</time>
      </trkpt>
      <trkpt lat="48.16391" lon="6.40194">
        <ele>435</ele>
        <time>2023-10-01T07:01:29Z</time>
      </trkpt>
      <trkpt lat="48.16392" lon="6.40201">
        <ele>435</ele>
        <time>2023-10-01T07:01:30Z</time>
      </trkpt>
      <trkpt lat="48.16394" lon="6.40208">
        <ele>435.2</ele>
        <time>2023-10-01T07:01:31Z</time>
      </trkpt>
      <trkpt lat="48.16395" lon="6.40216">
        <ele>435.4</ele>
        <time>2023-10-01T07:01:32Z</time>
      </trkpt>
      <trkpt lat="48.16397" lon="6.40222">
        <ele>435.2</ele>
        <time>2023-10-01T07:01:33Z</time>
      </trkpt>
      <trkpt lat="48.164" lon="6.40229">
        <ele>435.4</ele>
        <time>2023-10-01T07:01:34Z</time>
      </trkpt>
      <trkpt lat="48.16402" lon="6.40236">
        <ele>435.6</ele>
        <time>2023-10-01T07:01:35Z</time>
      </trkpt>
      <trkpt lat="48.16404" lon="6.40243">
        <ele>435.8</ele>
        <time>2023-10-01T07:01:36Z</time>
      </trkpt>
      <trkpt lat="48.16404" lon="6.4025">
        <ele>435.8</ele>
        <time>2023-10-01T07:01:37Z</time>
      </trkpt>
      <trkpt lat="48.16405" lon="6.40257">
        <ele>435.8</ele>
        <time>2023-10-01T07:01:38Z</time>
      </trkpt>
      <trkpt lat="48.16408" lon="6.40266">
        <ele>435.6</ele>
        <time>2023-10-01T07:01:39Z</time>
      </trkpt>
      <trkpt lat="48.1641" lon="6.40273">
        <ele>435.8</ele>
        <time>2023-10-01T07:01:40Z</time>
      </trkpt>
      <trkpt lat="48.16411" lon="6.4028">
        <ele>435.8</ele>
        <time>2023-10-01T07:01:41Z</time>
      </trkpt>
      <trkpt lat="48.16411" lon="6.40287">
        <ele>435.4</ele>
        <time>2023-10-01T07:01:42Z</time>
      </trkpt>
      <trkpt lat="48.16411" lon="6.40293">
        <ele>435.6</ele>
        <time>2023-10-01T07:01:43Z</time>
      </trkpt>
      <trkpt lat="48.16409" lon="6.40298">
        <ele>435.8</ele>
        <time>2023-10-01T07:01:44Z</time>
      </trkpt>
      <trkpt lat="48.16409" lon="6.40305">
        <ele>435.8</ele>
        <time>2023-10-01T07:01:45Z</time>
      </trkpt>
      <trkpt lat="48.16409" lon="6.4031">
        <ele>435.8</ele>
        <time>2023-10-01T07:01:46Z</time>
      </trkpt>
      <trkpt lat="48.1641" lon="6.40316">
        <ele>435.8</ele>
        <time>2023-10-01T07:01:47Z</time>
      </trkpt>
      <trkpt lat="48.1641" lon="6.40322">
        <ele>436</ele>
        <time>2023-10-01T07:01:48Z</time>
      </trkpt>
      <trkpt lat="48.16411" lon="6.40329">
        <ele>436.2</ele>
        <time>2023-10-01T07:01:49Z</time>
      </trkpt>
      <trkpt lat="48.16412" lon="6.40337">
        <ele>436.2</ele>
        <time>2023-10-01T07:01:50Z</time>
      </trkpt>
      <trkpt lat="48.16413" lon="6.40345">
        <ele>436.2</ele>
        <time>2023-10-01T07:01:51Z</time>
      </trkpt>
      <trkpt lat="48.16415" lon="6.40352">
        <ele>436.6</ele>
        <time>2023-10-01T07:01:52Z</time>
      </trkpt>
      <trkpt lat="48.16416" lon="6.40358">
        <ele>437</ele>
        <time>2023-10-01T07:01:53Z</time>
      </trkpt>
      <trkpt lat="48.16416" lon="6.40364">
        <ele>437.2</ele>
        <time>2023-10-01T07:01:54Z</time>
      </trkpt>
      <trkpt lat="48.16417" lon="6.4037">
        <ele>437.4</ele>
        <time>2023-10-01T07:01:55Z</time>
      </trkpt>
      <trkpt lat="48.16418" lon="6.40376">
        <ele>437.4</ele>
        <time>2023-10-01T07:01:56Z</time>
      </trkpt>
      <trkpt lat="48.16418" lon="6.40382">
        <ele>437.4</ele>
        <time>2023-10-01T07:01:57Z</time>
      </trkpt>
      <trkpt lat="48.16418" lon="6.40387">
        <ele>437.4</ele>
        <time>2023-10-01T07:01:58Z</time>
      </trkpt>
      <trkpt lat="48.16418" lon="6.40393">
        <ele>437.8</ele>
        <time>2023-10-01T07:01:59Z</time>
      </trkpt>
      <trkpt lat="48.16419" lon="6.40398">
        <ele>437.6</ele>
        <time>2023-10-01T07:02:00Z</time>
      </trkpt>
      <trkpt lat="48.16419" lon="6.40404">
        <ele>438</ele>
        <time>2023-10-01T07:02:01Z</time>
      </trkpt>
      <trkpt lat="48.1642" lon="6.40409">
        <ele>438.2</ele>
        <time>2023-10-01T07:02:02Z</time>
      </trkpt>
      <trkpt lat="48.1642" lon="6.40414">
        <ele>438.6</ele>
        <time>2023-10-01T07:02:03Z</time>
      </trkpt>
      <trkpt lat="48.1642" lon="6.40419">
        <ele>438.8</ele>
        <time>2023-10-01T07:02:04Z</time>
      </trkpt>
      <trkpt lat="48.1642" lon="6.40425">
        <ele>438.8</ele>
        <time>2023-10-01T07:02:05Z</time>
      </trkpt>
      <trkpt lat="48.16421" lon="6.4043">
        <ele>439</ele>
        <time>2023-10-01T07:02:06Z</time>
      </trkpt>
      <trkpt lat="48.16421" lon="6.40435">
        <ele>439</ele>
        <time>2023-10-01T07:02:07Z</time>
      </trkpt>
      <trkpt lat="48.16421" lon="6.4044">
        <ele>439.2</ele>
        <time>2023-10-01T07:02:08Z</time>
      </trkpt>
      <trkpt lat="48.16421" lon="6.40445">
        <ele>439.4</ele>
        <time>2023-10-01T07:02:09Z</time>
      </trkpt>
      <trkpt lat="48.16421" lon="6.4045">
        <ele>439.6</ele>
        <time>2023-10-01T07:02:10Z</time>
      </trkpt>
      <trkpt lat="48.16422" lon="6.40455">
        <ele>440</ele>
        <time>2023-10-01T07:02:11Z</time>
      </trkpt>
      <trkpt lat="48.16422" lon="6.4046">
        <ele>440.2</ele>
        <time>2023-10-01T07:02:12Z</time>
      </trkpt>
      <trkpt lat="48.16422" lon="6.40465">
        <ele>440.4</ele>
        <time>2023-10-01T07:02:13Z</time>
      </trkpt>
      <trkpt lat="48.16423" lon="6.40469">
        <ele>440.4</ele>
        <time>2023-10-01T07:02:14Z</time>
      </trkpt>
      <trkpt lat="48.16423" lon="6.40474">
        <ele>440.6</ele>
        <time>2023-10-01T07:02:15Z</time>
      </trkpt>
      <trkpt lat="48.16424" lon="6.40478">
        <ele>440.6</ele>
        <time>2023-10-01T07:02:16Z</time>
      </trkpt>
      <trkpt lat="48.16425" lon="6.40483">
        <ele>440.6</ele>
        <time>2023-10-01T07:02:17Z</time>
      </trkpt>
      <trkpt lat="48.16426" lon="6.40489">
        <ele>440.8</ele>
        <time>2023-10-01T07:02:18Z</time>
      </trkpt>
      <trkpt lat="48.16428" lon="6.40494">
        <ele>440.8</ele>
        <time>2023-10-01T07:02:19Z</time>
      </trkpt>
      <trkpt lat="48.16429" lon="6.405">
        <ele>441</ele>
        <time>2023-10-01T07:02:20Z</time>
      </trkpt>
      <trkpt lat="48.16431" lon="6.40506">
        <ele>441.2</ele>
        <time>2023-10-01T07:02:21Z</time>
      </trkpt>
      <trkpt lat="48.16433" lon="6.40511">
        <ele>441.4</ele>
        <time>2023-10-01T07:02:22Z</time>
      </trkpt>
      <trkpt lat="48.16435" lon="6.40517">
        <ele>441.4</ele>
        <time>2023-10-01T07:02:23Z</time>
      </trkpt>
      <trkpt lat="48.16437" lon="6.40522">
        <ele>441.6</ele>
        <time>2023-10-01T07:02:24Z</time>
      </trkpt>
      <trkpt lat="48.16439" lon="6.40527">
        <ele>441.6</ele>
        <time>2023-10-01T07:02:25Z</time>
      </trkpt>
      <trkpt lat="48.16441" lon="6.40531">
        <ele>441.8</ele>
        <time>2023-10-01T07:02:26Z</time>
      </trkpt>
      <trkpt lat="48.16444" lon="6.40536">
        <ele>441.8</ele>
        <time>2023-10-01T07:02:27Z</time>
      </trkpt>
      <trkpt lat="48.16445" lon="6.4054">
        <ele>441.8</ele>
        <time>2023-10-01T07:02:28Z</time>
      </trkpt>
      <trkpt lat="48.16447" lon="6.40544">
        <ele>441.8</ele>
        <time>2023-10-01T07:02:29Z</time>
      </trkpt>
      <trkpt lat="48.16448" lon="6.40548">
        <ele>442</ele>
        <time>2023-10-01T07:02:30Z</time>
      </trkpt>
      <trkpt lat="48.16449" lon="6.40549">
        <ele>442</ele>
        <time>2023-10-01T07:02:31Z</time>
      </trkpt>
      <trkpt lat="48.16449" lon="6.40549">
        <ele>442.2</ele>
        <time>2023-10-01T07:02:32Z</time>
      </trkpt>
      <trkpt lat="48.1645" lon="6.40548">
        <ele>442.2</ele>
        <time>2023-10-01T07:02:33Z</time>
      </trkpt>
      <trkpt lat="48.16449" lon="6.40547">
        <ele>442.2</ele>
        <time>2023-10-01T07:02:34Z</time>
      </trkpt>
      <trkpt lat="48.16447" lon="6.40546">
        <ele>442.2</ele>
        <time>2023-10-01T07:02:35Z</time>
      </trkpt>
      <trkpt lat="48.16443" lon="6.40548">
        <ele>442.2</ele>
        <time>2023-10-01T07:02:36Z</time>
      </trkpt>
      <trkpt lat="48.16442" lon="6.40551">
        <ele>442.2</ele>
        <time>2023-10-01T07:02:37Z</time>
      </trkpt>
      <trkpt lat="48.16441" lon="6.40556">
        <ele>442.4</ele>
        <time>2023-10-01T07:02:38Z</time>
      </trkpt>
      <trkpt lat="48.16442" lon="6.40563">
        <ele>442.4</ele>
        <time>2023-10-01T07:02:39Z</time>
      </trkpt>
      <trkpt lat="48.16442" lon="6.40568">
        <ele>442.4</ele>
        <time>2023-10-01T07:02:40Z</time>
      </trkpt>
      <trkpt lat="48.16443" lon="6.40573">
        <ele>442.4</ele>
        <time>2023-10-01T07:02:41Z</time>
      </trkpt>
      <trkpt lat="48.16444" lon="6.40577">
        <ele>442.2</ele>
        <time>2023-10-01T07:02:42Z</time>
      </trkpt>
      <trkpt lat="48.16445" lon="6.40581">
        <ele>442</ele>
        <time>2023-10-01T07:02:43Z</time>
      </trkpt>
      <trkpt lat="48.16446" lon="6.40585">
        <ele>441.8</ele>
        <time>2023-10-01T07:02:44Z</time>
      </trkpt>
      <trkpt lat="48.16446" lon="6.40585">
        <ele>441.4</ele>
        <time>2023-10-01T07:02:45Z</time>
      </trkpt>
      <trkpt lat="48.16445" lon="6.40597">
        <ele>441.2</ele>
        <time>2023-10-01T07:02:46Z</time>
      </trkpt>
      <trkpt lat="48.16445" lon="6.40597">
        <ele>441</ele>
        <time>2023-10-01T07:02:47Z</time>
      </trkpt>
      <trkpt lat="48.16443" lon="6.40608">
        <ele>440.8</ele>
        <time>2023-10-01T07:02:48Z</time>
      </trkpt>
      <trkpt lat="48.16442" lon="6.40611">
        <ele>440.6</ele>
        <time>2023-10-01T07:02:49Z</time>
      </trkpt>
      <trkpt lat="48.16444" lon="6.40615">
        <ele>440.4</ele>
        <time>2023-10-01T07:02:50Z</time>
      </trkpt>
      <trkpt lat="48.16446" lon="6.40618">
        <ele>440</ele>
        <time>2023-10-01T07:02:51Z</time>
      </trkpt>
      <trkpt lat="48.16447" lon="6.40623">
        <ele>439.8</ele>
        <time>2023-10-01T07:02:52Z</time>
      </trkpt>
      <trkpt lat="48.1645" lon="6.40628">
        <ele>439.2</ele>
        <time>2023-10-01T07:02:53Z</time>
      </trkpt>
      <trkpt lat="48.16453" lon="6.40633">
        <ele>439</ele>
        <time>2023-10-01T07:02:54Z</time>
      </trkpt>
      <trkpt lat="48.16454" lon="6.40637">
        <ele>438.2</ele>
        <time>2023-10-01T07:02:55Z</time>
      </trkpt>
      <trkpt lat="48.16454" lon="6.40637">
        <ele>437.6</ele>
        <time>2023-10-01T07:02:56Z</time>
      </trkpt>
      <trkpt lat="48.16457" lon="6.40643">
        <ele>437</ele>
        <time>2023-10-01T07:02:57Z</time>
      </trkpt>
      <trkpt lat="48.16457" lon="6.40647">
        <ele>436.8</ele>
        <time>2023-10-01T07:02:58Z</time>
      </trkpt>
      <trkpt lat="48.16456" lon="6.40651">
        <ele>436.2</ele>
        <time>2023-10-01T07:02:59Z</time>
      </trkpt>
      <trkpt lat="48.16456" lon="6.40651">
        <ele>436</ele>
        <time>2023-10-01T07:03:00Z</time>
      </trkpt>
      <trkpt lat="48.16454" lon="6.40662">
        <ele>435.2</ele>
        <time>2023-10-01T07:03:01Z</time>
      </trkpt>
      <trkpt lat="48.16453" lon="6.40666">
        <ele>434.8</ele>
        <time>2023-10-01T07:03:02Z</time>
      </trkpt>
      <trkpt lat="48.16452" lon="6.40666">
        <ele>434.2</ele>
        <time>2023-10-01T07:03:03Z</time>
      </trkpt>
      <trkpt lat="48.16451" lon="6.40666">
        <ele>434</ele>
        <time>2023-10-01T07:03:04Z</time>
      </trkpt>
      <trkpt lat="48.16451" lon="6.40666">
        <ele>433.4</ele>
        <time>2023-10-01T07:03:05Z</time>
      </trkpt>
      <trkpt lat="48.16445" lon="6.40664">
        <ele>432.6</ele>
        <time>2023-10-01T07:03:06Z</time>
      </trkpt>
      <trkpt lat="48.16442" lon="6.40664">
        <ele>432.2</ele>
        <time>2023-10-01T07:03:07Z</time>
      </trkpt>
      <trkpt lat="48.16439" lon="6.40664">
        <ele>431.6</ele>
        <time>2023-10-01T07:03:08Z</time>
      </trkpt>
      <trkpt lat="48.16435" lon="6.40664">
        <ele>431.2</ele>
        <time>2023-10-01T07:03:09Z</time>
      </trkpt>
      <trkpt lat="48.16433" lon="6.40665">
        <ele>430.6</ele>
        <time>2023-10-01T07:03:10Z</time>
      </trkpt>
      <trkpt lat="48.16433" lon="6.40665">
        <ele>430.2</ele>
        <time>2023-10-01T07:03:11Z</time>
      </trkpt>
      <trkpt lat="48.16425" lon="6.40667">
        <ele>429.8</ele>
        <time>2023-10-01T07:03:12Z</time>
      </trkpt>
      <trkpt lat="48.16425" lon="6.40667">
        <ele>429.2</ele>
        <time>2023-10-01T07:03:13Z</time>
      </trkpt>
      <trkpt lat="48.16418" lon="6.40671">
        <ele>428</ele>
        <time>2023-10-01T07:03:14Z</time>
      </trkpt>
      <trkpt lat="48.16418" lon="6.40671">
        <ele>427.6</ele>
        <time>2023-10-01T07:03:15Z</time>
      </trkpt>
      <trkpt lat="48.16413" lon="6.40673">
        <ele>426.8</ele>
        <time>2023-10-01T07:03:16Z</time>
      </trkpt>
      <trkpt lat="48.16408" lon="6.40674">
        <ele>426.2</ele>
        <time>2023-10-01T07:03:17Z</time>
      </trkpt>
      <trkpt lat="48.164" lon="6.40679">
        <ele>425</ele>
        <time>2023-10-01T07:03:18Z</time>
      </trkpt>
      <trkpt lat="48.16397" lon="6.40683">
        <ele>423.8</ele>
        <time>2023-10-01T07:03:19Z</time>
      </trkpt>
      <trkpt lat="48.16393" lon="6.40691">
        <ele>422.6</ele>
        <time>2023-10-01T07:03:20Z</time>
      </trkpt>
      <trkpt lat="48.1639" lon="6.40705">
        <ele>422.2</ele>
        <time>2023-10-01T07:03:21Z</time>
      </trkpt>
      <trkpt lat="48.16389" lon="6.40714">
        <ele>421</ele>
        <time>2023-10-01T07:03:22Z</time>
      </trkpt>
      <trkpt lat="48.16387" lon="6.40721">
        <ele>420.6</ele>
        <time>2023-10-01T07:03:23Z</time>
      </trkpt>
      <trkpt lat="48.16387" lon="6.40721">
        <ele>419.8</ele>
        <time>2023-10-01T07:03:24Z</time>
      </trkpt>
      <trkpt lat="48.16382" lon="6.40745">
        <ele>418.2</ele>
        <time>2023-10-01T07:03:25Z</time>
      </trkpt>
      <trkpt lat="48.1638" lon="6.40755">
        <ele>417.8</ele>
        <time>2023-10-01T07:03:26Z</time>
      </trkpt>
      <trkpt lat="48.16378" lon="6.40763">
        <ele>416.2</ele>
        <time>2023-10-01T07:03:27Z</time>
      </trkpt>
      <trkpt lat="48.16375" lon="6.40771">
        <ele>415.4</ele>
        <time>2023-10-01T07:03:28Z</time>
      </trkpt>
      <trkpt lat="48.16375" lon="6.40776">
        <ele>413.2</ele>
        <time>2023-10-01T07:03:29Z</time>
      </trkpt>
      <trkpt lat="48.16375" lon="6.40779">
        <ele>412.6</ele>
        <time>2023-10-01T07:03:30Z</time>
      </trkpt>
      <trkpt lat="48.16374" lon="6.4078">
        <ele>410.8</ele>
        <time>2023-10-01T07:03:31Z</time>
      </trkpt>
      <trkpt lat="48.16374" lon="6.4078">
        <ele>410.4</ele>
        <time>2023-10-01T07:03:32Z</time>
      </trkpt>
      <trkpt lat="48.16372" lon="6.40784">
        <ele>409.2</ele>
        <time>2023-10-01T07:03:33Z</time>
      </trkpt>
      <trkpt lat="48.16372" lon="6.40784">
        <ele>408.8</ele>
        <time>2023-10-01T07:03:34Z</time>
      </trkpt>
      <trkpt lat="48.16369" lon="6.40793">
        <ele>407.2</ele>
        <time>2023-10-01T07:03:35Z</time>
      </trkpt>
      <trkpt lat="48.16368" lon="6.40798">
        <ele>406.4</ele>
        <time>2023-10-01T07:03:36Z</time>
      </trkpt>
      <trkpt lat="48.16365" lon="6.40803">
        <ele>405</ele>
        <time>2023-10-01T07:03:37Z</time>
      </trkpt>
      <trkpt lat="48.16364" lon="6.40806">
        <ele>404.4</ele>
        <time>2023-10-01T07:03:38Z</time>
      </trkpt>
      <trkpt lat="48.16361" lon="6.40808">
        <ele>403</ele>
        <time>2023-10-01T07:03:39Z</time>
      </trkpt>
      <trkpt lat="48.1636" lon="6.40808">
        <ele>402.2</ele>
        <time>2023-10-01T07:03:40Z</time>
      </trkpt>
      <trkpt lat="48.1636" lon="6.40808">
        <ele>401</ele>
        <time>2023-10-01T07:03:41Z</time>
      </trkpt>
      <trkpt lat="48.16351" lon="6.40812">
        <ele>400.2</ele>
        <time>2023-10-01T07:03:42Z</time>
      </trkpt>
      <trkpt lat="48.16346" lon="6.40815">
        <ele>398.4</ele>
        <time>2023-10-01T07:03:43Z</time>
      </trkpt>
      <trkpt lat="48.16343" lon="6.4082">
        <ele>397.4</ele>
        <time>2023-10-01T07:03:44Z</time>
      </trkpt>
      <trkpt lat="48.1634" lon="6.40822">
        <ele>395.4</ele>
        <time>2023-10-01T07:03:45Z</time>
      </trkpt>
      <trkpt lat="48.16337" lon="6.40824">
        <ele>394</ele>
        <time>2023-10-01T07:03:46Z</time>
      </trkpt>
      <trkpt lat="48.16332" lon="6.40827">
        <ele>393.4</ele>
        <time>2023-10-01T07:03:47Z</time>
      </trkpt>
      <trkpt lat="48.16327" lon="6.4083">
        <ele>392.2</ele>
        <time>2023-10-01T07:03:48Z</time>
      </trkpt>
      <trkpt lat="48.16322" lon="6.40835">
        <ele>391.6</ele>
        <time>2023-10-01T07:03:49Z</time>
      </trkpt>
      <trkpt lat="48.16318" lon="6.40839">
        <ele>390.6</ele>
        <time>2023-10-01T07:03:50Z</time>
      </trkpt>
      <trkpt lat="48.16315" lon="6.40844">
        <ele>390.2</ele>
        <time>2023-10-01T07:03:51Z</time>
      </trkpt>
      <trkpt lat="48.16314" lon="6.4085">
        <ele>389.2</ele>
        <time>2023-10-01T07:03:52Z</time>
      </trkpt>
      <trkpt lat="48.16311" lon="6.40856">
        <ele>388.6</ele>
        <time>2023-10-01T07:03:53Z</time>
      </trkpt>
      <trkpt lat="48.16306" lon="6.40864">
        <ele>387.8</ele>
        <time>2023-10-01T07:03:54Z</time>
      </trkpt>
      <trkpt lat="48.16302" lon="6.40869">
        <ele>387.4</ele>
        <time>2023-10-01T07:03:55Z</time>
      </trkpt>
      <trkpt lat="48.16299" lon="6.40875">
        <ele>386</ele>
        <time>2023-10-01T07:03:56Z</time>
      </trkpt>
      <trkpt lat="48.16295" lon="6.40882">
        <ele>385.2</ele>
        <time>2023-10-01T07:03:57Z</time>
      </trkpt>
      <trkpt lat="48.16293" lon="6.40885">
        <ele>384</ele>
        <time>2023-10-01T07:03:58Z</time>
      </trkpt>
      <trkpt lat="48.16293" lon="6.40887">
        <ele>383</ele>
        <time>2023-10-01T07:03:59Z</time>
      </trkpt>
      <trkpt lat="48.16293" lon="6.40887">
        <ele>382</ele>
        <time>2023-10-01T07:04:00Z</time>
      </trkpt>
      <trkpt lat="48.16293" lon="6.4089">
        <ele>381.8</ele>
        <time>2023-10-01T07:04:01Z</time>
      </trkpt>
      <trkpt lat="48.16294" lon="6.40893">
        <ele>381.4</ele>
        <time>2023-10-01T07:04:02Z</time>
      </trkpt>
      <trkpt lat="48.16293" lon="6.40897">
        <ele>381.2</ele>
        <time>2023-10-01T07:04:03Z</time>
      </trkpt>
      <trkpt lat="48.16292" lon="6.40901">
        <ele>381</ele>
        <time>2023-10-01T07:04:04Z</time>
      </trkpt>
      <trkpt lat="48.16293" lon="6.40906">
        <ele>381</ele>
        <time>2023-10-01T07:04:05Z</time>
      </trkpt>
      <trkpt lat="48.16294" lon="6.40908">
        <ele>381</ele>
        <time>2023-10-01T07:04:06Z</time>
      </trkpt>
      <trkpt lat="48.16294" lon="6.40909">
        <ele>380.8</ele>
        <time>2023-10-01T07:04:07Z</time>
      </trkpt>
      <trkpt lat="48.16294" lon="6.40909">
        <ele>380.8</ele>
        <time>2023-10-01T07:04:08Z</time>
      </trkpt>
      <trkpt lat="48.16294" lon="6.40909">
        <ele>380.8</ele>
        <time>2023-10-01T07:04:09Z</time>
      </trkpt>
      <trkpt lat="48.16294" lon="6.40909">
        <ele>380.8</ele>
        <time>2023-10-01T07:04:10Z</time>
      </trkpt>
      <trkpt lat="48.16294" lon="6.40909">
        <ele>380.8</ele>
        <time>2023-10-01T07:04:11Z</time>
      </trkpt>
      <trkpt lat="48.16294" lon="6.4091">
        <ele>380.8</ele>
        <time>2023-10-01T07:04:12Z</time>
      </trkpt>
      <trkpt lat="48.16297" lon="6.40914">
        <ele>380.8</ele>
        <time>2023-10-01T07:04:13Z</time>
      </trkpt>
      <trkpt lat="48.16299" lon="6.40915">
        <ele>380.8</ele>
        <time>2023-10-01T07:04:14Z</time>
      </trkpt>
      <trkpt lat="48.163" lon="6.40917">
        <ele>380.8</ele>
        <time>2023-10-01T07:04:15Z</time>
      </trkpt>
      <trkpt lat="48.163" lon="6.40917">
        <ele>380.8</ele>
        <time>2023-10-01T07:04:16Z</time>
      </trkpt>
      <trkpt lat="48.16302" lon="6.40921">
        <ele>380.8</ele>
        <time>2023-10-01T07:04:17Z</time>
      </trkpt>
      <trkpt lat="48.16303" lon="6.40922">
        <ele>380.8</ele>
        <time>2023-10-01T07:04:18Z</time>
      </trkpt>
      <trkpt lat="48.16303" lon="6.40922">
        <ele>380.8</ele>
        <time>2023-10-01T07:04:19Z</time>
      </trkpt>
      <trkpt lat="48.16304" lon="6.40924">
        <ele>380.6</ele>
        <time>2023-10-01T07:04:20Z</time>
      </trkpt>
      <trkpt lat="48.16304" lon="6.40924">
        <ele>380.8</ele>
        <time>2023-10-01T07:04:21Z</time>
      </trkpt>
      <trkpt lat="48.16304" lon="6.40925">
        <ele>380.6</ele>
        <time>2023-10-01T07:04:22Z</time>
      </trkpt>
      <trkpt lat="48.16305" lon="6.40926">
        <ele>380.6</ele>
        <time>2023-10-01T07:04:23Z</time>
      </trkpt>
      <trkpt lat="48.16305" lon="6.40926">
        <ele>380.6</ele>
        <time>2023-10-01T07:04:24Z</time>
      </trkpt>
      <trkpt lat="48.16306" lon="6.40929">
        <ele>380.4</ele>
        <time>2023-10-01T07:04:25Z</time>
      </trkpt>
      <trkpt lat="48.16306" lon="6.40929">
        <ele>380.4</ele>
        <time>2023-10-01T07:04:26Z</time>
      </trkpt>
      <trkpt lat="48.16309" lon="6.40936">
        <ele>380.4</ele>
        <time>2023-10-01T07:04:27Z</time>
      </trkpt>
      <trkpt lat="48.1631" lon="6.40941">
        <ele>380.4</ele>
        <time>2023-10-01T07:04:28Z</time>
      </trkpt>
      <trkpt lat="48.1631" lon="6.40941">
        <ele>380.4</ele>
        <time>2023-10-01T07:04:29Z</time>
      </trkpt>
      <trkpt lat="48.16313" lon="6.40948">
        <ele>380.2</ele>
        <time>2023-10-01T07:04:30Z</time>
      </trkpt>
      <trkpt lat="48.16316" lon="6.40953">
        <ele>380.2</ele>
        <time>2023-10-01T07:04:31Z</time>
      </trkpt>
      <trkpt lat="48.16318" lon="6.40958">
        <ele>380.2</ele>
        <time>2023-10-01T07:04:32Z</time>
      </trkpt>
      <trkpt lat="48.16318" lon="6.40958">
        <ele>380.2</ele>
        <time>2023-10-01T07:04:33Z</time>
      </trkpt>
      <trkpt lat="48.1632" lon="6.40964">
        <ele>380</ele>
        <time>2023-10-01T07:04:34Z</time>
      </trkpt>
      <trkpt lat="48.16325" lon="6.40974">
        <ele>380</ele>
        <time>2023-10-01T07:04:35Z</time>
      </trkpt>
      <trkpt lat="48.16327" lon="6.4098">
        <ele>380</ele>
        <time>2023-10-01T07:04:36Z</time>
      </trkpt>
      <trkpt lat="48.16329" lon="6.40984">
        <ele>379.8</ele>
        <time>2023-10-01T07:04:37Z</time>
      </trkpt>
      <trkpt lat="48.16332" lon="6.40988">
        <ele>379.6</ele>
        <time>2023-10-01T07:04:38Z</time>
      </trkpt>
      <trkpt lat="48.16335" lon="6.40993">
        <ele>379.6</ele>
        <time>2023-10-01T07:04:39Z</time>
      </trkpt>
      <trkpt lat="48.1634" lon="6.40999">
        <ele>379.4</ele>
        <time>2023-10-01T07:04:40Z</time>
      </trkpt>
      <trkpt lat="48.1634" lon="6.40999">
        <ele>379.4</ele>
        <time>2023-10-01T07:04:41Z</time>
      </trkpt>
      <trkpt lat="48.16344" lon="6.41005">
        <ele>379.4</ele>
        <time>2023-10-01T07:04:42Z</time>
      </trkpt>
      <trkpt lat="48.16355" lon="6.41024">
        <ele>379.2</ele>
        <time>2023-10-01T07:04:43Z</time>
      </trkpt>
      <trkpt lat="48.16357" lon="6.41034">
        <ele>379.2</ele>
        <time>2023-10-01T07:04:44Z</time>
      </trkpt>
      <trkpt lat="48.16358" lon="6.41041">
        <ele>379</ele>
        <time>2023-10-01T07:04:45Z</time>
      </trkpt>
      <trkpt lat="48.16359" lon="6.41045">
        <ele>378.8</ele>
        <time>2023-10-01T07:04:46Z</time>
      </trkpt>
      <trkpt lat="48.16361" lon="6.41049">
        <ele>378.4</ele>
        <time>2023-10-01T07:04:47Z</time>
      </trkpt>
      <trkpt lat="48.16363" lon="6.41053">
        <ele>378.2</ele>
        <time>2023-10-01T07:04:48Z</time>
      </trkpt>
      <trkpt lat="48.16368" lon="6.41056">
        <ele>378.2</ele>
        <time>2023-10-01T07:04:49Z</time>
      </trkpt>
      <trkpt lat="48.16373" lon="6.4106">
        <ele>378</ele>
        <time>2023-10-01T07:04:50Z</time>
      </trkpt>
      <trkpt lat="48.16379" lon="6.41067">
        <ele>378</ele>
        <time>2023-10-01T07:04:51Z</time>
      </trkpt>
      <trkpt lat="48.16382" lon="6.41071">
        <ele>378</ele>
        <time>2023-10-01T07:04:52Z</time>
      </trkpt>
      <trkpt lat="48.16382" lon="6.41071">
        <ele>377.8</ele>
        <time>2023-10-01T07:04:53Z</time>
      </trkpt>
      <trkpt lat="48.16387" lon="6.41079">
        <ele>377.8</ele>
        <time>2023-10-01T07:04:54Z</time>
      </trkpt>
      <trkpt lat="48.1639" lon="6.41082">
        <ele>377.8</ele>
        <time>2023-10-01T07:04:55Z</time>
      </trkpt>
      <trkpt lat="48.16393" lon="6.41085">
        <ele>377.6</ele>
        <time>2023-10-01T07:04:56Z</time>
      </trkpt>
      <trkpt lat="48.16397" lon="6.4109">
        <ele>377.6</ele>
        <time>2023-10-01T07:04:57Z</time>
      </trkpt>
      <trkpt lat="48.16402" lon="6.41097">
        <ele>377.6</ele>
        <time>2023-10-01T07:04:58Z</time>
      </trkpt>
      <trkpt lat="48.16407" lon="6.41105">
        <ele>377.6</ele>
        <time>2023-10-01T07:04:59Z</time>
      </trkpt>
      <trkpt lat="48.16412" lon="6.41111">
        <ele>377.6</ele>
        <time>2023-10-01T07:05:00Z</time>
      </trkpt>
      <trkpt lat="48.16417" lon="6.41119">
        <ele>377.6</ele>
        <time>2023-10-01T07:05:01Z</time>
      </trkpt>
      <trkpt lat="48.16417" lon="6.41119">
        <ele>377.4</ele>
        <time>2023-10-01T07:05:02Z</time>
      </trkpt>
      <trkpt lat="48.16423" lon="6.41134">
        <ele>377.2</ele>
        <time>2023-10-01T07:05:03Z</time>
      </trkpt>
      <trkpt lat="48.16426" lon="6.4114">
        <ele>377</ele>
        <time>2023-10-01T07:05:04Z</time>
      </trkpt>
      <trkpt lat="48.1643" lon="6.41147">
        <ele>376.8</ele>
        <time>2023-10-01T07:05:05Z</time>
      </trkpt>
      <trkpt lat="48.16435" lon="6.41156">
        <ele>376.4</ele>
        <time>2023-10-01T07:05:06Z</time>
      </trkpt>
      <trkpt lat="48.16439" lon="6.41164">
        <ele>376.2</ele>
        <time>2023-10-01T07:05:07Z</time>
      </trkpt>
      <trkpt lat="48.16439" lon="6.41164">
        <ele>376</ele>
        <time>2023-10-01T07:05:08Z</time>
      </trkpt>
      <trkpt lat="48.16443" lon="6.41172">
        <ele>376</ele>
        <time>2023-10-01T07:05:09Z</time>
      </trkpt>
      <trkpt lat="48.16452" lon="6.41189">
        <ele>375.8</ele>
        <time>2023-10-01T07:05:10Z</time>
      </trkpt>
      <trkpt lat="48.16454" lon="6.41197">
        <ele>375.6</ele>
        <time>2023-10-01T07:05:11Z</time>
      </trkpt>
      <trkpt lat="48.16454" lon="6.41197">
        <ele>375.4</ele>
        <time>2023-10-01T07:05:12Z</time>
      </trkpt>
      <trkpt lat="48.16464" lon="6.41211">
        <ele>375.4</ele>
        <time>2023-10-01T07:05:13Z</time>
      </trkpt>
      <trkpt lat="48.16468" lon="6.41217">
        <ele>375.2</ele>
        <time>2023-10-01T07:05:14Z</time>
      </trkpt>
      <trkpt lat="48.16471" lon="6.41224">
        <ele>375.2</ele>
        <time>2023-10-01T07:05:15Z</time>
      </trkpt>
      <trkpt lat="48.16471" lon="6.41224">
        <ele>375</ele>
        <time>2023-10-01T07:05:16Z</time>
      </trkpt>
      <trkpt lat="48.1648" lon="6.41238">
        <ele>374.8</ele>
        <time>2023-10-01T07:05:17Z</time>
      </trkpt>
      <trkpt lat="48.16485" lon="6.41247">
        <ele>374.8</ele>
        <time>2023-10-01T07:05:18Z</time>
      </trkpt>
      <trkpt lat="48.16493" lon="6.41254">
        <ele>374.6</ele>
        <time>2023-10-01T07:05:19Z</time>
      </trkpt>
      <trkpt lat="48.16501" lon="6.41263">
        <ele>374.6</ele>
        <time>2023-10-01T07:05:20Z</time>
      </trkpt>
      <trkpt lat="48.16506" lon="6.41276">
        <ele>374.6</ele>
        <time>2023-10-01T07:05:21Z</time>
      </trkpt>
      <trkpt lat="48.16509" lon="6.41286">
        <ele>374.6</ele>
        <time>2023-10-01T07:05:22Z</time>
      </trkpt>
      <trkpt lat="48.16511" lon="6.41293">
        <ele>374.4</ele>
        <time>2023-10-01T07:05:23Z</time>
      </trkpt>
      <trkpt lat="48.16514" lon="6.413">
        <ele>374.4</ele>
        <time>2023-10-01T07:05:24Z</time>
      </trkpt>
      <trkpt lat="48.16517" lon="6.41305">
        <ele>374.2</ele>
        <time>2023-10-01T07:05:25Z</time>
      </trkpt>
      <trkpt lat="48.1652" lon="6.4131">
        <ele>374</ele>
        <time>2023-10-01T07:05:26Z</time>
      </trkpt>
      <trkpt lat="48.1652" lon="6.4131">
        <ele>374</ele>
        <time>2023-10-01T07:05:27Z</time>
      </trkpt>
      <trkpt lat="48.16525" lon="6.41315">
        <ele>373.8</ele>
        <time>2023-10-01T07:05:28Z</time>
      </trkpt>
      <trkpt lat="48.1653" lon="6.41321">
        <ele>373.8</ele>
        <time>2023-10-01T07:05:29Z</time>
      </trkpt>
      <trkpt lat="48.1654" lon="6.41333">
        <ele>373.6</ele>
        <time>2023-10-01T07:05:30Z</time>
      </trkpt>
      <trkpt lat="48.16544" lon="6.41339">
        <ele>373.2</ele>
        <time>2023-10-01T07:05:31Z</time>
      </trkpt>
      <trkpt lat="48.16548" lon="6.41345">
        <ele>372.8</ele>
        <time>2023-10-01T07:05:32Z</time>
      </trkpt>
      <trkpt lat="48.16553" lon="6.41352">
        <ele>372.8</ele>
        <time>2023-10-01T07:05:33Z</time>
      </trkpt>
      <trkpt lat="48.16556" lon="6.41359">
        <ele>372.4</ele>
        <time>2023-10-01T07:05:34Z</time>
      </trkpt>
      <trkpt lat="48.1656" lon="6.41365">
        <ele>372.2</ele>
        <time>2023-10-01T07:05:35Z</time>
      </trkpt>
      <trkpt lat="48.16563" lon="6.4137">
        <ele>372</ele>
        <time>2023-10-01T07:05:36Z</time>
      </trkpt>
      <trkpt lat="48.16567" lon="6.41375">
        <ele>372</ele>
        <time>2023-10-01T07:05:37Z</time>
      </trkpt>
      <trkpt lat="48.16567" lon="6.41375">
        <ele>371.6</ele>
        <time>2023-10-01T07:05:38Z</time>
      </trkpt>
      <trkpt lat="48.16573" lon="6.41386">
        <ele>371.4</ele>
        <time>2023-10-01T07:05:39Z</time>
      </trkpt>
      <trkpt lat="48.16578" lon="6.41393">
        <ele>371</ele>
        <time>2023-10-01T07:05:40Z</time>
      </trkpt>
      <trkpt lat="48.16583" lon="6.414">
        <ele>370.8</ele>
        <time>2023-10-01T07:05:41Z</time>
      </trkpt>
      <trkpt lat="48.16588" lon="6.41407">
        <ele>370.6</ele>
        <time>2023-10-01T07:05:42Z</time>
      </trkpt>
      <trkpt lat="48.16594" lon="6.41414">
        <ele>370.4</ele>
        <time>2023-10-01T07:05:43Z</time>
      </trkpt>
      <trkpt lat="48.16599" lon="6.41421">
        <ele>370.4</ele>
        <time>2023-10-01T07:05:44Z</time>
      </trkpt>
      <trkpt lat="48.16604" lon="6.41426">
        <ele>370.4</ele>
        <time>2023-10-01T07:05:45Z</time>
      </trkpt>
      <trkpt lat="48.1661" lon="6.41431">
        <ele>370.4</ele>
        <time>2023-10-01T07:05:46Z</time>
      </trkpt>
      <trkpt lat="48.16616" lon="6.41434">
        <ele>370.4</ele>
        <time>2023-10-01T07:05:47Z</time>
      </trkpt>
      <trkpt lat="48.1662" lon="6.41437">
        <ele>370.4</ele>
        <time>2023-10-01T07:05:48Z</time>
      </trkpt>
      <trkpt lat="48.16624" lon="6.4144">
        <ele>370.4</ele>
        <time>2023-10-01T07:05:49Z</time>
      </trkpt>
      <trkpt lat="48.16628" lon="6.41444">
        <ele>370.4</ele>
        <time>2023-10-01T07:05:50Z</time>
      </trkpt>
      <trkpt lat="48.1663" lon="6.41449">
        <ele>370.6</ele>
        <time>2023-10-01T07:05:51Z</time>
      </trkpt>
      <trkpt lat="48.16632" lon="6.41452">
        <ele>370.6</ele>
        <time>2023-10-01T07:05:52Z</time>
      </trkpt>
      <trkpt lat="48.16633" lon="6.41456">
        <ele>370.8</ele>
        <time>2023-10-01T07:05:53Z</time>
      </trkpt>
      <trkpt lat="48.16636" lon="6.41462">
        <ele>371</ele>
        <time>2023-10-01T07:05:54Z</time>
      </trkpt>
      <trkpt lat="48.16638" lon="6.41466">
        <ele>371.2</ele>
        <time>2023-10-01T07:05:55Z</time>
      </trkpt>
      <trkpt lat="48.16638" lon="6.41466">
        <ele>371.4</ele>
        <time>2023-10-01T07:05:56Z</time>
      </trkpt>
      <trkpt lat="48.16645" lon="6.41473">
        <ele>371.6</ele>
        <time>2023-10-01T07:05:57Z</time>
      </trkpt>
      <trkpt lat="48.16648" lon="6.41477">
        <ele>371.8</ele>
        <time>2023-10-01T07:05:58Z</time>
      </trkpt>
      <trkpt lat="48.16652" lon="6.4148">
        <ele>372.2</ele>
        <time>2023-10-01T07:05:59Z</time>
      </trkpt>
      <trkpt lat="48.16656" lon="6.41484">
        <ele>372.6</ele>
        <time>2023-10-01T07:06:00Z</time>
      </trkpt>
      <trkpt lat="48.1666" lon="6.41487">
        <ele>372.8</ele>
        <time>2023-10-01T07:06:01Z</time>
      </trkpt>
      <trkpt lat="48.16663" lon="6.41489">
        <ele>373.2</ele>
        <time>2023-10-01T07:06:02Z</time>
      </trkpt>
      <trkpt lat="48.16667" lon="6.41491">
        <ele>373.4</ele>
        <time>2023-10-01T07:06:03Z</time>
      </trkpt>
      <trkpt lat="48.16671" lon="6.41492">
        <ele>373.8</ele>
        <time>2023-10-01T07:06:04Z</time>
      </trkpt>
      <trkpt lat="48.16674" lon="6.41495">
        <ele>374</ele>
        <time>2023-10-01T07:06:05Z</time>
      </trkpt>
      <trkpt lat="48.16676" lon="6.41498">
        <ele>374.4</ele>
        <time>2023-10-01T07:06:06Z</time>
      </trkpt>
      <trkpt lat="48.16678" lon="6.41504">
        <ele>374.6</ele>
        <time>2023-10-01T07:06:07Z</time>
      </trkpt>
      <trkpt lat="48.16681" lon="6.41508">
        <ele>374.8</ele>
        <time>2023-10-01T07:06:08Z</time>
      </trkpt>
      <trkpt lat="48.16683" lon="6.41512">
        <ele>375</ele>
        <time>2023-10-01T07:06:09Z</time>
      </trkpt>
      <trkpt lat="48.16686" lon="6.41515">
        <ele>375.4</ele>
        <time>2023-10-01T07:06:10Z</time>
      </trkpt>
      <trkpt lat="48.1669" lon="6.41516">
        <ele>375.4</ele>
        <time>2023-10-01T07:06:11Z</time>
      </trkpt>
      <trkpt lat="48.16693" lon="6.41517">
        <ele>376</ele>
        <time>2023-10-01T07:06:12Z</time>
      </trkpt>
      <trkpt lat="48.16697" lon="6.41518">
        <ele>376.2</ele>
        <time>2023-10-01T07:06:13Z</time>
      </trkpt>
      <trkpt lat="48.16699" lon="6.41521">
        <ele>376.6</ele>
        <time>2023-10-01T07:06:14Z</time>
      </trkpt>
      <trkpt lat="48.16701" lon="6.41524">
        <ele>376.6</ele>
        <time>2023-10-01T07:06:15Z</time>
      </trkpt>
      <trkpt lat="48.16705" lon="6.41527">
        <ele>377</ele>
        <time>2023-10-01T07:06:16Z</time>
      </trkpt>
      <trkpt lat="48.1671" lon="6.4153">
        <ele>377.2</ele>
        <time>2023-10-01T07:06:17Z</time>
      </trkpt>
      <trkpt lat="48.16713" lon="6.4153">
        <ele>377.4</ele>
        <time>2023-10-01T07:06:18Z</time>
      </trkpt>
      <trkpt lat="48.16717" lon="6.41533">
        <ele>377.4</ele>
        <time>2023-10-01T07:06:19Z</time>
      </trkpt>
      <trkpt lat="48.1672" lon="6.41535">
        <ele>377.6</ele>
        <time>2023-10-01T07:06:20Z</time>
      </trkpt>
      <trkpt lat="48.16722" lon="6.41538">
        <ele>378</ele>
        <time>2023-10-01T07:06:21Z</time>
      </trkpt>
      <trkpt lat="48.16724" lon="6.4154">
        <ele>378.2</ele>
        <time>2023-10-01T07:06:22Z</time>
      </trkpt>
      <trkpt lat="48.16726" lon="6.41543">
        <ele>378.2</ele>
        <time>2023-10-01T07:06:23Z</time>
      </trkpt>
      <trkpt lat="48.16728" lon="6.41546">
        <ele>378.4</ele>
        <time>2023-10-01T07:06:24Z</time>
      </trkpt>
      <trkpt lat="48.1673" lon="6.41548">
        <ele>378.4</ele>
        <time>2023-10-01T07:06:25Z</time>
      </trkpt>
      <trkpt lat="48.16734" lon="6.41551">
        <ele>378.6</ele>
        <time>2023-10-01T07:06:26Z</time>
      </trkpt>
      <trkpt lat="48.16737" lon="6.41553">
        <ele>378.8</ele>
        <time>2023-10-01T07:06:27Z</time>
      </trkpt>
      <trkpt lat="48.16739" lon="6.41557">
        <ele>379</ele>
        <time>2023-10-01T07:06:28Z</time>
      </trkpt>
      <trkpt lat="48.16743" lon="6.41561">
        <ele>379.2</ele>
        <time>2023-10-01T07:06:29Z</time>
      </trkpt>
      <trkpt lat="48.16746" lon="6.41563">
        <ele>379.4</ele>
        <time>2023-10-01T07:06:30Z</time>
      </trkpt>
      <trkpt lat="48.16748" lon="6.41564">
        <ele>379.6</ele>
        <time>2023-10-01T07:06:31Z</time>
      </trkpt>
      <trkpt lat="48.16748" lon="6.41564">
        <ele>379.8</ele>
        <time>2023-10-01T07:06:32Z</time>
      </trkpt>
      <trkpt lat="48.16752" lon="6.41566">
        <ele>380.2</ele>
        <time>2023-10-01T07:06:33Z</time>
      </trkpt>
      <trkpt lat="48.16754" lon="6.41567">
        <ele>380.4</ele>
        <time>2023-10-01T07:06:34Z</time>
      </trkpt>
      <trkpt lat="48.16757" lon="6.41569">
        <ele>380.6</ele>
        <time>2023-10-01T07:06:35Z</time>
      </trkpt>
      <trkpt lat="48.16761" lon="6.41571">
        <ele>380.8</ele>
        <time>2023-10-01T07:06:36Z</time>
      </trkpt>
      <trkpt lat="48.16764" lon="6.41572">
        <ele>381.2</ele>
        <time>2023-10-01T07:06:37Z</time>
      </trkpt>
      <trkpt lat="48.16769" lon="6.41575">
        <ele>381.4</ele>
        <time>2023-10-01T07:06:38Z</time>
      </trkpt>
      <trkpt lat="48.16771" lon="6.41576">
        <ele>381.8</ele>
        <time>2023-10-01T07:06:39Z</time>
      </trkpt>
      <trkpt lat="48.16772" lon="6.41577">
        <ele>382</ele>
        <time>2023-10-01T07:06:40Z</time>
      </trkpt>
      <trkpt lat="48.16774" lon="6.41579">
        <ele>382.6</ele>
        <time>2023-10-01T07:06:41Z</time>
      </trkpt>
      <trkpt lat="48.16777" lon="6.41582">
        <ele>382.8</ele>
        <time>2023-10-01T07:06:42Z</time>
      </trkpt>
      <trkpt lat="48.16779" lon="6.41582">
        <ele>383.2</ele>
        <time>2023-10-01T07:06:43Z</time>
      </trkpt>
      <trkpt lat="48.1678" lon="6.41582">
        <ele>383.4</ele>
        <time>2023-10-01T07:06:44Z</time>
      </trkpt>
      <trkpt lat="48.16781" lon="6.41582">
        <ele>383.8</ele>
        <time>2023-10-01T07:06:45Z</time>
      </trkpt>
      <trkpt lat="48.16783" lon="6.41584">
        <ele>384</ele>
        <time>2023-10-01T07:06:46Z</time>
      </trkpt>
      <trkpt lat="48.16785" lon="6.41585">
        <ele>384.6</ele>
        <time>2023-10-01T07:06:47Z</time>
      </trkpt>
      <trkpt lat="48.16788" lon="6.41587">
        <ele>384.8</ele>
        <time>2023-10-01T07:06:48Z</time>
      </trkpt>
      <trkpt lat="48.1679" lon="6.41587">
        <ele>385</ele>
        <time>2023-10-01T07:06:49Z</time>
      </trkpt>
      <trkpt lat="48.16793" lon="6.41588">
        <ele>385.2</ele>
        <time>2023-10-01T07:06:50Z</time>
      </trkpt>
      <trkpt lat="48.16796" lon="6.41589">
        <ele>385.4</ele>
        <time>2023-10-01T07:06:51Z</time>
      </trkpt>
      <trkpt lat="48.16797" lon="6.41589">
        <ele>385.8</ele>
        <time>2023-10-01T07:06:52Z</time>
      </trkpt>
      <trkpt lat="48.16799" lon="6.41591">
        <ele>386</ele>
        <time>2023-10-01T07:06:53Z</time>
      </trkpt>
      <trkpt lat="48.168" lon="6.41591">
        <ele>386.2</ele>
        <time>2023-10-01T07:06:54Z</time>
      </trkpt>
      <trkpt lat="48.16803" lon="6.41592">
        <ele>386.4</ele>
        <time>2023-10-01T07:06:55Z</time>
      </trkpt>
      <trkpt lat="48.16806" lon="6.41593">
        <ele>386.6</ele>
        <time>2023-10-01T07:06:56Z</time>
      </trkpt>
      <trkpt lat="48.16808" lon="6.41594">
        <ele>386.8</ele>
        <time>2023-10-01T07:06:57Z</time>
      </trkpt>
      <trkpt lat="48.1681" lon="6.41595">
        <ele>387.2</ele>
        <time>2023-10-01T07:06:58Z</time>
      </trkpt>
      <trkpt lat="48.16812" lon="6.41595">
        <ele>387.4</ele>
        <time>2023-10-01T07:06:59Z</time>
      </trkpt>
      <trkpt lat="48.16813" lon="6.41597">
        <ele>387.6</ele>
        <time>2023-10-01T07:07:00Z</time>
      </trkpt>
      <trkpt lat="48.16814" lon="6.41598">
        <ele>387.8</ele>
        <time>2023-10-01T07:07:01Z</time>
      </trkpt>
      <trkpt lat="48.16816" lon="6.416">
        <ele>388.4</ele>
        <time>2023-10-01T07:07:02Z</time>
      </trkpt>
      <trkpt lat="48.16818" lon="6.41603">
        <ele>388.6</ele>
        <time>2023-10-01T07:07:03Z</time>
      </trkpt>
      <trkpt lat="48.16823" lon="6.41605">
        <ele>389</ele>
        <time>2023-10-01T07:07:04Z</time>
      </trkpt>
      <trkpt lat="48.16827" lon="6.41608">
        <ele>389.2</ele>
        <time>2023-10-01T07:07:05Z</time>
      </trkpt>
      <trkpt lat="48.1683" lon="6.41609">
        <ele>389.6</ele>
        <time>2023-10-01T07:07:06Z</time>
      </trkpt>
      <trkpt lat="48.16832" lon="6.41611">
        <ele>389.6</ele>
        <time>2023-10-01T07:07:07Z</time>
      </trkpt>
      <trkpt lat="48.16833" lon="6.41611">
        <ele>389.8</ele>
        <time>2023-10-01T07:07:08Z</time>
      </trkpt>
      <trkpt lat="48.16835" lon="6.41612">
        <ele>390</ele>
        <time>2023-10-01T07:07:09Z</time>
      </trkpt>
      <trkpt lat="48.1684" lon="6.41613">
        <ele>390.2</ele>
        <time>2023-10-01T07:07:10Z</time>
      </trkpt>
      <trkpt lat="48.16844" lon="6.41612">
        <ele>390.4</ele>
        <time>2023-10-01T07:07:11Z</time>
      </trkpt>
      <trkpt lat="48.16847" lon="6.41612">
        <ele>390.6</ele>
        <time>2023-10-01T07:07:12Z</time>
      </trkpt>
      <trkpt lat="48.16849" lon="6.4161">
        <ele>391</ele>
        <time>2023-10-01T07:07:13Z</time>
      </trkpt>
      <trkpt lat="48.16849" lon="6.4161">
        <ele>391</ele>
        <time>2023-10-01T07:07:14Z</time>
      </trkpt>
      <trkpt lat="48.16851" lon="6.41606">
        <ele>391.4</ele>
        <time>2023-10-01T07:07:15Z</time>
      </trkpt>
      <trkpt lat="48.16851" lon="6.41606">
        <ele>391.4</ele>
        <time>2023-10-01T07:07:16Z</time>
      </trkpt>
      <trkpt lat="48.16852" lon="6.41605">
        <ele>391.8</ele>
        <time>2023-10-01T07:07:17Z</time>
      </trkpt>
      <trkpt lat="48.16851" lon="6.41602">
        <ele>392.2</ele>
        <time>2023-10-01T07:07:18Z</time>
      </trkpt>
      <trkpt lat="48.16849" lon="6.41599">
        <ele>392.8</ele>
        <time>2023-10-01T07:07:19Z</time>
      </trkpt>
      <trkpt lat="48.16848" lon="6.41598">
        <ele>393</ele>
        <time>2023-10-01T07:07:20Z</time>
      </trkpt>
      <trkpt lat="48.16847" lon="6.41595">
        <ele>393.2</ele>
        <time>2023-10-01T07:07:21Z</time>
      </trkpt>
      <trkpt lat="48.16847" lon="6.41591">
        <ele>393.4</ele>
        <time>2023-10-01T07:07:22Z</time>
      </trkpt>
      <trkpt lat="48.16846" lon="6.41588">
        <ele>393.6</ele>
        <time>2023-10-01T07:07:23Z</time>
      </trkpt>
      <trkpt lat="48.16844" lon="6.41585">
        <ele>393.6</ele>
        <time>2023-10-01T07:07:24Z</time>
      </trkpt>
      <trkpt lat="48.16842" lon="6.41581">
        <ele>394</ele>
        <time>2023-10-01T07:07:25Z</time>
      </trkpt>
      <trkpt lat="48.1684" lon="6.41578">
        <ele>394.2</ele>
        <time>2023-10-01T07:07:26Z</time>
      </trkpt>
      <trkpt lat="48.16838" lon="6.41573">
        <ele>394.6</ele>
        <time>2023-10-01T07:07:27Z</time>
      </trkpt>
      <trkpt lat="48.16837" lon="6.4157">
        <ele>394.8</ele>
        <time>2023-10-01T07:07:28Z</time>
      </trkpt>
      <trkpt lat="48.16836" lon="6.41566">
        <ele>395</ele>
        <time>2023-10-01T07:07:29Z</time>
      </trkpt>
      <trkpt lat="48.16834" lon="6.41563">
        <ele>395.2</ele>
        <time>2023-10-01T07:07:30Z</time>
      </trkpt>
      <trkpt lat="48.16832" lon="6.41558">
        <ele>395.4</ele>
        <time>2023-10-01T07:07:31Z</time>
      </trkpt>
      <trkpt lat="48.16829" lon="6.41554">
        <ele>395.4</ele>
        <time>2023-10-01T07:07:32Z</time>
      </trkpt>
      <trkpt lat="48.16827" lon="6.41551">
        <ele>395.8</ele>
        <time>2023-10-01T07:07:33Z</time>
      </trkpt>
      <trkpt lat="48.16824" lon="6.41549">
        <ele>395.8</ele>
        <time>2023-10-01T07:07:34Z</time>
      </trkpt>
      <trkpt lat="48.16823" lon="6.41548">
        <ele>396</ele>
        <time>2023-10-01T07:07:35Z</time>
      </trkpt>
      <trkpt lat="48.16823" lon="6.41547">
        <ele>396.2</ele>
        <time>2023-10-01T07:07:36Z</time>
      </trkpt>
      <trkpt lat="48.1682" lon="6.41545">
        <ele>396.2</ele>
        <time>2023-10-01T07:07:37Z</time>
      </trkpt>
      <trkpt lat="48.16818" lon="6.41542">
        <ele>396.4</ele>
        <time>2023-10-01T07:07:38Z</time>
      </trkpt>
      <trkpt lat="48.16816" lon="6.41538">
        <ele>396.4</ele>
        <time>2023-10-01T07:07:39Z</time>
      </trkpt>
      <trkpt lat="48.16812" lon="6.41532">
        <ele>396.4</ele>
        <time>2023-10-01T07:07:40Z</time>
      </trkpt>
      <trkpt lat="48.16808" lon="6.41525">
        <ele>396.6</ele>
        <time>2023-10-01T07:07:41Z</time>
      </trkpt>
      <trkpt lat="48.16807" lon="6.41522">
        <ele>396.8</ele>
        <time>2023-10-01T07:07:42Z</time>
      </trkpt>
      <trkpt lat="48.16805" lon="6.4152">
        <ele>397</ele>
        <time>2023-10-01T07:07:43Z</time>
      </trkpt>
      <trkpt lat="48.16803" lon="6.41517">
        <ele>397</ele>
        <time>2023-10-01T07:07:44Z</time>
      </trkpt>
      <trkpt lat="48.16801" lon="6.41512">
        <ele>397</ele>
        <time>2023-10-01T07:07:45Z</time>
      </trkpt>
      <trkpt lat="48.16799" lon="6.41507">
        <ele>397.2</ele>
        <time>2023-10-01T07:07:46Z</time>
      </trkpt>
      <trkpt lat="48.16797" lon="6.41504">
        <ele>397.2</ele>
        <time>2023-10-01T07:07:47Z</time>
      </trkpt>
      <trkpt lat="48.16795" lon="6.41501">
        <ele>397.4</ele>
        <time>2023-10-01T07:07:48Z</time>
      </trkpt>
      <trkpt lat="48.16794" lon="6.41498">
        <ele>397.4</ele>
        <time>2023-10-01T07:07:49Z</time>
      </trkpt>
      <trkpt lat="48.16791" lon="6.41495">
        <ele>397.6</ele>
        <time>2023-10-01T07:07:50Z</time>
      </trkpt>
      <trkpt lat="48.16786" lon="6.4149">
        <ele>397.6</ele>
        <time>2023-10-01T07:07:51Z</time>
      </trkpt>
      <trkpt lat="48.16785" lon="6.41488">
        <ele>397.6</ele>
        <time>2023-10-01T07:07:52Z</time>
      </trkpt>
      <trkpt lat="48.16784" lon="6.41486">
        <ele>397.6</ele>
        <time>2023-10-01T07:07:53Z</time>
      </trkpt>
      <trkpt lat="48.16782" lon="6.41482">
        <ele>397.6</ele>
        <time>2023-10-01T07:07:54Z</time>
      </trkpt>
      <trkpt lat="48.16777" lon="6.41481">
        <ele>397.6</ele>
        <time>2023-10-01T07:07:55Z</time>
      </trkpt>
      <trkpt lat="48.16774" lon="6.41478">
        <ele>397.8</ele>
        <time>2023-10-01T07:07:56Z</time>
      </trkpt>
      <trkpt lat="48.16772" lon="6.41474">
        <ele>397.8</ele>
        <time>2023-10-01T07:07:57Z</time>
      </trkpt>
      <trkpt lat="48.16768" lon="6.4147">
        <ele>397.8</ele>
        <time>2023-10-01T07:07:58Z</time>
      </trkpt>
      <trkpt lat="48.16767" lon="6.41464">
        <ele>397.8</ele>
        <time>2023-10-01T07:07:59Z</time>
      </trkpt>
      <trkpt lat="48.16765" lon="6.41461">
        <ele>397.8</ele>
        <time>2023-10-01T07:08:00Z</time>
      </trkpt>
      <trkpt lat="48.16764" lon="6.41458">
        <ele>398</ele>
        <time>2023-10-01T07:08:01Z</time>
      </trkpt>
      <trkpt lat="48.16761" lon="6.41455">
        <ele>398</ele>
        <time>2023-10-01T07:08:02Z</time>
      </trkpt>
      <trkpt lat="48.16758" lon="6.41451">
        <ele>398</ele>
        <time>2023-10-01T07:08:03Z</time>
      </trkpt>
      <trkpt lat="48.16756" lon="6.41449">
        <ele>398</ele>
        <time>2023-10-01T07:08:04Z</time>
      </trkpt>
      <trkpt lat="48.16754" lon="6.41446">
        <ele>398.2</ele>
        <time>2023-10-01T07:08:05Z</time>
      </trkpt>
      <trkpt lat="48.16752" lon="6.41441">
        <ele>398.2</ele>
        <time>2023-10-01T07:08:06Z</time>
      </trkpt>
      <trkpt lat="48.1675" lon="6.41438">
        <ele>398.4</ele>
        <time>2023-10-01T07:08:07Z</time>
      </trkpt>
      <trkpt lat="48.16748" lon="6.41433">
        <ele>398.4</ele>
        <time>2023-10-01T07:08:08Z</time>
      </trkpt>
      <trkpt lat="48.16744" lon="6.41427">
        <ele>398.4</ele>
        <time>2023-10-01T07:08:09Z</time>
      </trkpt>
      <trkpt lat="48.1674" lon="6.41423">
        <ele>398.4</ele>
        <time>2023-10-01T07:08:10Z</time>
      </trkpt>
      <trkpt lat="48.16737" lon="6.4142">
        <ele>398.6</ele>
        <time>2023-10-01T07:08:11Z</time>
      </trkpt>
      <trkpt lat="48.16734" lon="6.41416">
        <ele>398.6</ele>
        <time>2023-10-01T07:08:12Z</time>
      </trkpt>
      <trkpt lat="48.16733" lon="6.41415">
        <ele>398.8</ele>
        <time>2023-10-01T07:08:13Z</time>
      </trkpt>
      <trkpt lat="48.16731" lon="6.41412">
        <ele>398.8</ele>
        <time>2023-10-01T07:08:14Z</time>
      </trkpt>
      <trkpt lat="48.1673" lon="6.41408">
        <ele>398.8</ele>
        <time>2023-10-01T07:08:15Z</time>
      </trkpt>
      <trkpt lat="48.1673" lon="6.41408">
        <ele>398.8</ele>
        <time>2023-10-01T07:08:16Z</time>
      </trkpt>
      <trkpt lat="48.16725" lon="6.41396">
        <ele>398.8</ele>
        <time>2023-10-01T07:08:17Z</time>
      </trkpt>
      <trkpt lat="48.16722" lon="6.41392">
        <ele>398.8</ele>
        <time>2023-10-01T07:08:18Z</time>
      </trkpt>
      <trkpt lat="48.16722" lon="6.41391">
        <ele>398.8</ele>
        <time>2023-10-01T07:08:19Z</time>
      </trkpt>
      <trkpt lat="48.16722" lon="6.41391">
        <ele>399</ele>
        <time>2023-10-01T07:08:20Z</time>
      </trkpt>
      <trkpt lat="48.16722" lon="6.41391">
        <ele>399</ele>
        <time>2023-10-01T07:08:21Z</time>
      </trkpt>
      <trkpt lat="48.16722" lon="6.41391">
        <ele>399</ele>
        <time>2023-10-01T07:08:22Z</time>
      </trkpt>
      <trkpt lat="48.16715" lon="6.41386">
        <ele>399</ele>
        <time>2023-10-01T07:08:23Z</time>
      </trkpt>
      <trkpt lat="48.16712" lon="6.41383">
        <ele>399</ele>
        <time>2023-10-01T07:08:24Z</time>
      </trkpt>
      <trkpt lat="48.16709" lon="6.41378">
        <ele>399</ele>
        <time>2023-10-01T07:08:25Z</time>
      </trkpt>
      <trkpt lat="48.16707" lon="6.41374">
        <ele>399</ele>
        <time>2023-10-01T07:08:26Z</time>
      </trkpt>
      <trkpt lat="48.16703" lon="6.41369">
        <ele>399</ele>
        <time>2023-10-01T07:08:27Z</time>
      </trkpt>
      <trkpt lat="48.167" lon="6.41364">
        <ele>399.2</ele>
        <time>2023-10-01T07:08:28Z</time>
      </trkpt>
      <trkpt lat="48.16697" lon="6.4136">
        <ele>399.4</ele>
        <time>2023-10-01T07:08:29Z</time>
      </trkpt>
      <trkpt lat="48.16697" lon="6.4136">
        <ele>399.4</ele>
        <time>2023-10-01T07:08:30Z</time>
      </trkpt>
      <trkpt lat="48.16693" lon="6.41353">
        <ele>399.4</ele>
        <time>2023-10-01T07:08:31Z</time>
      </trkpt>
      <trkpt lat="48.16688" lon="6.41351">
        <ele>399.6</ele>
        <time>2023-10-01T07:08:32Z</time>
      </trkpt>
      <trkpt lat="48.16685" lon="6.41348">
        <ele>399.8</ele>
        <time>2023-10-01T07:08:33Z</time>
      </trkpt>
      <trkpt lat="48.16681" lon="6.41346">
        <ele>400</ele>
        <time>2023-10-01T07:08:34Z</time>
      </trkpt>
      <trkpt lat="48.16677" lon="6.4134">
        <ele>400.2</ele>
        <time>2023-10-01T07:08:35Z</time>
      </trkpt>
      <trkpt lat="48.16675" lon="6.41336">
        <ele>400.4</ele>
        <time>2023-10-01T07:08:36Z</time>
      </trkpt>
      <trkpt lat="48.16671" lon="6.41332">
        <ele>400.4</ele>
        <time>2023-10-01T07:08:37Z</time>
      </trkpt>
      <trkpt lat="48.16667" lon="6.41326">
        <ele>400.6</ele>
        <time>2023-10-01T07:08:38Z</time>
      </trkpt>
      <trkpt lat="48.16664" lon="6.41323">
        <ele>400.6</ele>
        <time>2023-10-01T07:08:39Z</time>
      </trkpt>
      <trkpt lat="48.16663" lon="6.41321">
        <ele>400.6</ele>
        <time>2023-10-01T07:08:40Z</time>
      </trkpt>
      <trkpt lat="48.16661" lon="6.41319">
        <ele>400.6</ele>
        <time>2023-10-01T07:08:41Z</time>
      </trkpt>
      <trkpt lat="48.16659" lon="6.41313">
        <ele>400.6</ele>
        <time>2023-10-01T07:08:42Z</time>
      </trkpt>
      <trkpt lat="48.16657" lon="6.41309">
        <ele>400.8</ele>
        <time>2023-10-01T07:08:43Z</time>
      </trkpt>
      <trkpt lat="48.16656" lon="6.41307">
        <ele>400.8</ele>
        <time>2023-10-01T07:08:44Z</time>
      </trkpt>
      <trkpt lat="48.16654" lon="6.41306">
        <ele>401</ele>
        <time>2023-10-01T07:08:45Z</time>
      </trkpt>
      <trkpt lat="48.16653" lon="6.41305">
        <ele>401.4</ele>
        <time>2023-10-01T07:08:46Z</time>
      </trkpt>
      <trkpt lat="48.16653" lon="6.41304">
        <ele>401.2</ele>
        <time>2023-10-01T07:08:47Z</time>
      </trkpt>
      <trkpt lat="48.16653" lon="6.41304">
        <ele>401.4</ele>
        <time>2023-10-01T07:08:48Z</time>
      </trkpt>
      <trkpt lat="48.16653" lon="6.41304">
        <ele>401.8</ele>
        <time>2023-10-01T07:08:49Z</time>
      </trkpt>
      <trkpt lat="48.16652" lon="6.41303">
        <ele>401.8</ele>
        <time>2023-10-01T07:08:50Z</time>
      </trkpt>
      <trkpt lat="48.16651" lon="6.413">
        <ele>402</ele>
        <time>2023-10-01T07:08:51Z</time>
      </trkpt>
      <trkpt lat="48.16649" lon="6.41298">
        <ele>402.2</ele>
        <time>2023-10-01T07:08:52Z</time>
      </trkpt>
      <trkpt lat="48.16646" lon="6.41295">
        <ele>402.4</ele>
        <time>2023-10-01T07:08:53Z</time>
      </trkpt>
      <trkpt lat="48.16646" lon="6.41294">
        <ele>402.4</ele>
        <time>2023-10-01T07:08:54Z</time>
      </trkpt>
      <trkpt lat="48.16646" lon="6.41294">
        <ele>402.8</ele>
        <time>2023-10-01T07:08:55Z</time>
      </trkpt>
      <trkpt lat="48.16644" lon="6.41292">
        <ele>402.8</ele>
        <time>2023-10-01T07:08:56Z</time>
      </trkpt>
      <trkpt lat="48.16642" lon="6.4129">
        <ele>403.2</ele>
        <time>2023-10-01T07:08:57Z</time>
      </trkpt>
      <trkpt lat="48.16642" lon="6.41289">
        <ele>403.4</ele>
        <time>2023-10-01T07:08:58Z</time>
      </trkpt>
      <trkpt lat="48.1664" lon="6.41286">
        <ele>403.6</ele>
        <time>2023-10-01T07:08:59Z</time>
      </trkpt>
      <trkpt lat="48.16637" lon="6.41283">
        <ele>403.8</ele>
        <time>2023-10-01T07:09:00Z</time>
      </trkpt>
      <trkpt lat="48.16635" lon="6.4128">
        <ele>404</ele>
        <time>2023-10-01T07:09:01Z</time>
      </trkpt>
      <trkpt lat="48.16632" lon="6.41277">
        <ele>404.2</ele>
        <time>2023-10-01T07:09:02Z</time>
      </trkpt>
      <trkpt lat="48.16629" lon="6.41275">
        <ele>404.4</ele>
        <time>2023-10-01T07:09:03Z</time>
      </trkpt>
      <trkpt lat="48.16627" lon="6.41272">
        <ele>404.6</ele>
        <time>2023-10-01T07:09:04Z</time>
      </trkpt>
      <trkpt lat="48.16624" lon="6.41269">
        <ele>405</ele>
        <time>2023-10-01T07:09:05Z</time>
      </trkpt>
      <trkpt lat="48.16622" lon="6.41265">
        <ele>405.2</ele>
        <time>2023-10-01T07:09:06Z</time>
      </trkpt>
      <trkpt lat="48.16619" lon="6.4126">
        <ele>405.2</ele>
        <time>2023-10-01T07:09:07Z</time>
      </trkpt>
      <trkpt lat="48.16617" lon="6.41256">
        <ele>405.4</ele>
        <time>2023-10-01T07:09:08Z</time>
      </trkpt>
      <trkpt lat="48.16615" lon="6.41252">
        <ele>405.4</ele>
        <time>2023-10-01T07:09:09Z</time>
      </trkpt>
      <trkpt lat="48.16612" lon="6.4125">
        <ele>405.6</ele>
        <time>2023-10-01T07:09:10Z</time>
      </trkpt>
      <trkpt lat="48.16609" lon="6.41247">
        <ele>405.8</ele>
        <time>2023-10-01T07:09:11Z</time>
      </trkpt>
      <trkpt lat="48.16609" lon="6.41247">
        <ele>406</ele>
        <time>2023-10-01T07:09:12Z</time>
      </trkpt>
      <trkpt lat="48.16609" lon="6.41247">
        <ele>406</ele>
        <time>2023-10-01T07:09:13Z</time>
      </trkpt>
      <trkpt lat="48.16605" lon="6.41243">
        <ele>406.2</ele>
        <time>2023-10-01T07:09:14Z</time>
      </trkpt>
      <trkpt lat="48.166" lon="6.41237">
        <ele>406.2</ele>
        <time>2023-10-01T07:09:15Z</time>
      </trkpt>
      <trkpt lat="48.16595" lon="6.4123">
        <ele>406.2</ele>
        <time>2023-10-01T07:09:16Z</time>
      </trkpt>
      <trkpt lat="48.16589" lon="6.41226">
        <ele>406.2</ele>
        <time>2023-10-01T07:09:17Z</time>
      </trkpt>
      <trkpt lat="48.16586" lon="6.4122">
        <ele>406.4</ele>
        <time>2023-10-01T07:09:18Z</time>
      </trkpt>
      <trkpt lat="48.16586" lon="6.41219">
        <ele>406.4</ele>
        <time>2023-10-01T07:09:19Z</time>
      </trkpt>
      <trkpt lat="48.16579" lon="6.41216">
        <ele>406.6</ele>
        <time>2023-10-01T07:09:20Z</time>
      </trkpt>
      <trkpt lat="48.16578" lon="6.41213">
        <ele>406.6</ele>
        <time>2023-10-01T07:09:21Z</time>
      </trkpt>
      <trkpt lat="48.16577" lon="6.41208">
        <ele>406.8</ele>
        <time>2023-10-01T07:09:22Z</time>
      </trkpt>
      <trkpt lat="48.16571" lon="6.41202">
        <ele>406.8</ele>
        <time>2023-10-01T07:09:23Z</time>
      </trkpt>
      <trkpt lat="48.16563" lon="6.41197">
        <ele>407.2</ele>
        <time>2023-10-01T07:09:24Z</time>
      </trkpt>
      <trkpt lat="48.16563" lon="6.41197">
        <ele>407.2</ele>
        <time>2023-10-01T07:09:25Z</time>
      </trkpt>
      <trkpt lat="48.16561" lon="6.41195">
        <ele>407.4</ele>
        <time>2023-10-01T07:09:26Z</time>
      </trkpt>
      <trkpt lat="48.16558" lon="6.41192">
        <ele>407.6</ele>
        <time>2023-10-01T07:09:27Z</time>
      </trkpt>
      <trkpt lat="48.16555" lon="6.4119">
        <ele>407.6</ele>
        <time>2023-10-01T07:09:28Z</time>
      </trkpt>
      <trkpt lat="48.16555" lon="6.4119">
        <ele>407.8</ele>
        <time>2023-10-01T07:09:29Z</time>
      </trkpt>
      <trkpt lat="48.16551" lon="6.41182">
        <ele>407.8</ele>
        <time>2023-10-01T07:09:30Z</time>
      </trkpt>
      <trkpt lat="48.1655" lon="6.41177">
        <ele>408</ele>
        <time>2023-10-01T07:09:31Z</time>
      </trkpt>
      <trkpt lat="48.16549" lon="6.41173">
        <ele>408.4</ele>
        <time>2023-10-01T07:09:32Z</time>
      </trkpt>
      <trkpt lat="48.16547" lon="6.4117">
        <ele>408.6</ele>
        <time>2023-10-01T07:09:33Z</time>
      </trkpt>
      <trkpt lat="48.16545" lon="6.41167">
        <ele>408.6</ele>
        <time>2023-10-01T07:09:34Z</time>
      </trkpt>
      <trkpt lat="48.16542" lon="6.41162">
        <ele>408.8</ele>
        <time>2023-10-01T07:09:35Z</time>
      </trkpt>
      <trkpt lat="48.16542" lon="6.4116">
        <ele>408.8</ele>
        <time>2023-10-01T07:09:36Z</time>
      </trkpt>
      <trkpt lat="48.16538" lon="6.41158">
        <ele>409</ele>
        <time>2023-10-01T07:09:37Z</time>
      </trkpt>
      <trkpt lat="48.16535" lon="6.41153">
        <ele>409</ele>
        <time>2023-10-01T07:09:38Z</time>
      </trkpt>
      <trkpt lat="48.16533" lon="6.41149">
        <ele>409.2</ele>
        <time>2023-10-01T07:09:39Z</time>
      </trkpt>
      <trkpt lat="48.16531" lon="6.41147">
        <ele>409.4</ele>
        <time>2023-10-01T07:09:40Z</time>
      </trkpt>
      <trkpt lat="48.1653" lon="6.41144">
        <ele>409.6</ele>
        <time>2023-10-01T07:09:41Z</time>
      </trkpt>
      <trkpt lat="48.16528" lon="6.41141">
        <ele>409.6</ele>
        <time>2023-10-01T07:09:42Z</time>
      </trkpt>
      <trkpt lat="48.16523" lon="6.41135">
        <ele>409.6</ele>
        <time>2023-10-01T07:09:43Z</time>
      </trkpt>
      <trkpt lat="48.16519" lon="6.41131">
        <ele>409.8</ele>
        <time>2023-10-01T07:09:44Z</time>
      </trkpt>
      <trkpt lat="48.16517" lon="6.41128">
        <ele>409.8</ele>
        <time>2023-10-01T07:09:45Z</time>
      </trkpt>
      <trkpt lat="48.16512" lon="6.41125">
        <ele>409.8</ele>
        <time>2023-10-01T07:09:46Z</time>
      </trkpt>
      <trkpt lat="48.16512" lon="6.41122">
        <ele>410</ele>
        <time>2023-10-01T07:09:47Z</time>
      </trkpt>
      <trkpt lat="48.16513" lon="6.41118">
        <ele>410</ele>
        <time>2023-10-01T07:09:48Z</time>
      </trkpt>
      <trkpt lat="48.16511" lon="6.41114">
        <ele>410.6</ele>
        <time>2023-10-01T07:09:49Z</time>
      </trkpt>
      <trkpt lat="48.16511" lon="6.4111">
        <ele>410.8</ele>
        <time>2023-10-01T07:09:50Z</time>
      </trkpt>
      <trkpt lat="48.16509" lon="6.41106">
        <ele>411</ele>
        <time>2023-10-01T07:09:51Z</time>
      </trkpt>
      <trkpt lat="48.16504" lon="6.41101">
        <ele>411</ele>
        <time>2023-10-01T07:09:52Z</time>
      </trkpt>
      <trkpt lat="48.16501" lon="6.41096">
        <ele>411.2</ele>
        <time>2023-10-01T07:09:53Z</time>
      </trkpt>
      <trkpt lat="48.16496" lon="6.41091">
        <ele>411.2</ele>
        <time>2023-10-01T07:09:54Z</time>
      </trkpt>
      <trkpt lat="48.16494" lon="6.41087">
        <ele>411.2</ele>
        <time>2023-10-01T07:09:55Z</time>
      </trkpt>
      <trkpt lat="48.16492" lon="6.41083">
        <ele>411.4</ele>
        <time>2023-10-01T07:09:56Z</time>
      </trkpt>
      <trkpt lat="48.16489" lon="6.4108">
        <ele>411.4</ele>
        <time>2023-10-01T07:09:57Z</time>
      </trkpt>
      <trkpt lat="48.16484" lon="6.41075">
        <ele>411.4</ele>
        <time>2023-10-01T07:09:58Z</time>
      </trkpt>
      <trkpt lat="48.1648" lon="6.41072">
        <ele>411.4</ele>
        <time>2023-10-01T07:09:59Z</time>
      </trkpt>
      <trkpt lat="48.16476" lon="6.41068">
        <ele>411.4</ele>
        <time>2023-10-01T07:10:00Z</time>
      </trkpt>
      <trkpt lat="48.16475" lon="6.41065">
        <ele>411.4</ele>
        <time>2023-10-01T07:10:01Z</time>
      </trkpt>
      <trkpt lat="48.16475" lon="6.41062">
        <ele>411.4</ele>
        <time>2023-10-01T07:10:02Z</time>
      </trkpt>
      <trkpt lat="48.16472" lon="6.41058">
        <ele>411.4</ele>
        <time>2023-10-01T07:10:03Z</time>
      </trkpt>
      <trkpt lat="48.16471" lon="6.41055">
        <ele>411.6</ele>
        <time>2023-10-01T07:10:04Z</time>
      </trkpt>
      <trkpt lat="48.1647" lon="6.41053">
        <ele>411.6</ele>
        <time>2023-10-01T07:10:05Z</time>
      </trkpt>
      <trkpt lat="48.16468" lon="6.41049">
        <ele>411.6</ele>
        <time>2023-10-01T07:10:06Z</time>
      </trkpt>
      <trkpt lat="48.16467" lon="6.41046">
        <ele>411.6</ele>
        <time>2023-10-01T07:10:07Z</time>
      </trkpt>
      <trkpt lat="48.16466" lon="6.41043">
        <ele>411.8</ele>
        <time>2023-10-01T07:10:08Z</time>
      </trkpt>
      <trkpt lat="48.16466" lon="6.4104">
        <ele>412</ele>
        <time>2023-10-01T07:10:09Z</time>
      </trkpt>
      <trkpt lat="48.16463" lon="6.41036">
        <ele>412.2</ele>
        <time>2023-10-01T07:10:10Z</time>
      </trkpt>
      <trkpt lat="48.16462" lon="6.41034">
        <ele>412.2</ele>
        <time>2023-10-01T07:10:11Z</time>
      </trkpt>
      <trkpt lat="48.16461" lon="6.41031">
        <ele>412.6</ele>
        <time>2023-10-01T07:10:12Z</time>
      </trkpt>
      <trkpt lat="48.1646" lon="6.4103">
        <ele>412.8</ele>
        <time>2023-10-01T07:10:13Z</time>
      </trkpt>
      <trkpt lat="48.16457" lon="6.41026">
        <ele>413.2</ele>
        <time>2023-10-01T07:10:14Z</time>
      </trkpt>
      <trkpt lat="48.16455" lon="6.41023">
        <ele>413.2</ele>
        <time>2023-10-01T07:10:15Z</time>
      </trkpt>
      <trkpt lat="48.16452" lon="6.41019">
        <ele>413.4</ele>
        <time>2023-10-01T07:10:16Z</time>
      </trkpt>
      <trkpt lat="48.1645" lon="6.41016">
        <ele>413.4</ele>
        <time>2023-10-01T07:10:17Z</time>
      </trkpt>
      <trkpt lat="48.16448" lon="6.41013">
        <ele>413.6</ele>
        <time>2023-10-01T07:10:18Z</time>
      </trkpt>
      <trkpt lat="48.16446" lon="6.41011">
        <ele>413.6</ele>
        <time>2023-10-01T07:10:19Z</time>
      </trkpt>
      <trkpt lat="48.16445" lon="6.41008">
        <ele>413.8</ele>
        <time>2023-10-01T07:10:20Z</time>
      </trkpt>
      <trkpt lat="48.16444" lon="6.41005">
        <ele>414</ele>
        <time>2023-10-01T07:10:21Z</time>
      </trkpt>
      <trkpt lat="48.16442" lon="6.41001">
        <ele>414</ele>
        <time>2023-10-01T07:10:22Z</time>
      </trkpt>
      <trkpt lat="48.16441" lon="6.40997">
        <ele>414.2</ele>
        <time>2023-10-01T07:10:23Z</time>
      </trkpt>
      <trkpt lat="48.1644" lon="6.40994">
        <ele>414.2</ele>
        <time>2023-10-01T07:10:24Z</time>
      </trkpt>
      <trkpt lat="48.16438" lon="6.4099">
        <ele>414.4</ele>
        <time>2023-10-01T07:10:25Z</time>
      </trkpt>
      <trkpt lat="48.16435" lon="6.40987">
        <ele>414.4</ele>
        <time>2023-10-01T07:10:26Z</time>
      </trkpt>
      <trkpt lat="48.16431" lon="6.40985">
        <ele>414.6</ele>
        <time>2023-10-01T07:10:27Z</time>
      </trkpt>
      <trkpt lat="48.16428" lon="6.40982">
        <ele>414.8</ele>
        <time>2023-10-01T07:10:28Z</time>
      </trkpt>
      <trkpt lat="48.16425" lon="6.4098">
        <ele>415</ele>
        <time>2023-10-01T07:10:29Z</time>
      </trkpt>
      <trkpt lat="48.16423" lon="6.40977">
        <ele>415.2</ele>
        <time>2023-10-01T07:10:30Z</time>
      </trkpt>
      <trkpt lat="48.16419" lon="6.40973">
        <ele>415.4</ele>
        <time>2023-10-01T07:10:31Z</time>
      </trkpt>
      <trkpt lat="48.16412" lon="6.40969">
        <ele>415.4</ele>
        <time>2023-10-01T07:10:32Z</time>
      </trkpt>
      <trkpt lat="48.16407" lon="6.40964">
        <ele>415.4</ele>
        <time>2023-10-01T07:10:33Z</time>
      </trkpt>
      <trkpt lat="48.16405" lon="6.4096">
        <ele>415.6</ele>
        <time>2023-10-01T07:10:34Z</time>
      </trkpt>
      <trkpt lat="48.16404" lon="6.40956">
        <ele>415.6</ele>
        <time>2023-10-01T07:10:35Z</time>
      </trkpt>
      <trkpt lat="48.16402" lon="6.4095">
        <ele>415.6</ele>
        <time>2023-10-01T07:10:36Z</time>
      </trkpt>
      <trkpt lat="48.16399" lon="6.40947">
        <ele>415.6</ele>
        <time>2023-10-01T07:10:37Z</time>
      </trkpt>
      <trkpt lat="48.16398" lon="6.40942">
        <ele>415.6</ele>
        <time>2023-10-01T07:10:38Z</time>
      </trkpt>
      <trkpt lat="48.16398" lon="6.40936">
        <ele>415.8</ele>
        <time>2023-10-01T07:10:39Z</time>
      </trkpt>
      <trkpt lat="48.16397" lon="6.40932">
        <ele>415.8</ele>
        <time>2023-10-01T07:10:40Z</time>
      </trkpt>
      <trkpt lat="48.16396" lon="6.4093">
        <ele>416</ele>
        <time>2023-10-01T07:10:41Z</time>
      </trkpt>
      <trkpt lat="48.16395" lon="6.40929">
        <ele>416</ele>
        <time>2023-10-01T07:10:42Z</time>
      </trkpt>
      <trkpt lat="48.16395" lon="6.40929">
        <ele>416</ele>
        <time>2023-10-01T07:10:43Z</time>
      </trkpt>
      <trkpt lat="48.16391" lon="6.4093">
        <ele>416</ele>
        <time>2023-10-01T07:10:44Z</time>
      </trkpt>
      <trkpt lat="48.16389" lon="6.40933">
        <ele>416</ele>
        <time>2023-10-01T07:10:45Z</time>
      </trkpt>
      <trkpt lat="48.16388" lon="6.40936">
        <ele>416</ele>
        <time>2023-10-01T07:10:46Z</time>
      </trkpt>
      <trkpt lat="48.16386" lon="6.40939">
        <ele>416</ele>
        <time>2023-10-01T07:10:47Z</time>
      </trkpt>
      <trkpt lat="48.16383" lon="6.40942">
        <ele>416</ele>
        <time>2023-10-01T07:10:48Z</time>
      </trkpt>
      <trkpt lat="48.16382" lon="6.40946">
        <ele>415.8</ele>
        <time>2023-10-01T07:10:49Z</time>
      </trkpt>
      <trkpt lat="48.16382" lon="6.4095">
        <ele>415.4</ele>
        <time>2023-10-01T07:10:50Z</time>
      </trkpt>
      <trkpt lat="48.16384" lon="6.40957">
        <ele>415</ele>
        <time>2023-10-01T07:10:51Z</time>
      </trkpt>
      <trkpt lat="48.16384" lon="6.40961">
        <ele>414.4</ele>
        <time>2023-10-01T07:10:52Z</time>
      </trkpt>
      <trkpt lat="48.16383" lon="6.40966">
        <ele>414.4</ele>
        <time>2023-10-01T07:10:53Z</time>
      </trkpt>
      <trkpt lat="48.16382" lon="6.40969">
        <ele>413.8</ele>
        <time>2023-10-01T07:10:54Z</time>
      </trkpt>
      <trkpt lat="48.16381" lon="6.40973">
        <ele>413.6</ele>
        <time>2023-10-01T07:10:55Z</time>
      </trkpt>
      <trkpt lat="48.16379" lon="6.40977">
        <ele>412.4</ele>
        <time>2023-10-01T07:10:56Z</time>
      </trkpt>
      <trkpt lat="48.16377" lon="6.40981">
        <ele>412</ele>
        <time>2023-10-01T07:10:57Z</time>
      </trkpt>
      <trkpt lat="48.16376" lon="6.40985">
        <ele>411.2</ele>
        <time>2023-10-01T07:10:58Z</time>
      </trkpt>
      <trkpt lat="48.16377" lon="6.4099">
        <ele>410.8</ele>
        <time>2023-10-01T07:10:59Z</time>
      </trkpt>
      <trkpt lat="48.16379" lon="6.40995">
        <ele>408.8</ele>
        <time>2023-10-01T07:11:00Z</time>
      </trkpt>
      <trkpt lat="48.16382" lon="6.41001">
        <ele>407.8</ele>
        <time>2023-10-01T07:11:01Z</time>
      </trkpt>
      <trkpt lat="48.16384" lon="6.41007">
        <ele>406.4</ele>
        <time>2023-10-01T07:11:02Z</time>
      </trkpt>
      <trkpt lat="48.16385" lon="6.41013">
        <ele>406</ele>
        <time>2023-10-01T07:11:03Z</time>
      </trkpt>
      <trkpt lat="48.16385" lon="6.41014">
        <ele>405</ele>
        <time>2023-10-01T07:11:04Z</time>
      </trkpt>
      <trkpt lat="48.16385" lon="6.41018">
        <ele>404.6</ele>
        <time>2023-10-01T07:11:05Z</time>
      </trkpt>
      <trkpt lat="48.16385" lon="6.41022">
        <ele>403.8</ele>
        <time>2023-10-01T07:11:06Z</time>
      </trkpt>
      <trkpt lat="48.16387" lon="6.41026">
        <ele>403.2</ele>
        <time>2023-10-01T07:11:07Z</time>
      </trkpt>
      <trkpt lat="48.16389" lon="6.41029">
        <ele>401.6</ele>
        <time>2023-10-01T07:11:08Z</time>
      </trkpt>
      <trkpt lat="48.16392" lon="6.41034">
        <ele>401.2</ele>
        <time>2023-10-01T07:11:09Z</time>
      </trkpt>
      <trkpt lat="48.16394" lon="6.41039">
        <ele>399.6</ele>
        <time>2023-10-01T07:11:10Z</time>
      </trkpt>
      <trkpt lat="48.16395" lon="6.41043">
        <ele>398.8</ele>
        <time>2023-10-01T07:11:11Z</time>
      </trkpt>
      <trkpt lat="48.16397" lon="6.41046">
        <ele>397.8</ele>
        <time>2023-10-01T07:11:12Z</time>
      </trkpt>
      <trkpt lat="48.16399" lon="6.4105">
        <ele>397.2</ele>
        <time>2023-10-01T07:11:13Z</time>
      </trkpt>
      <trkpt lat="48.164" lon="6.41054">
        <ele>397.2</ele>
        <time>2023-10-01T07:11:14Z</time>
      </trkpt>
      <trkpt lat="48.16401" lon="6.41054">
        <ele>396</ele>
        <time>2023-10-01T07:11:15Z</time>
      </trkpt>
      <trkpt lat="48.16401" lon="6.41059">
        <ele>395.4</ele>
        <time>2023-10-01T07:11:16Z</time>
      </trkpt>
      <trkpt lat="48.16402" lon="6.41064">
        <ele>394.6</ele>
        <time>2023-10-01T07:11:17Z</time>
      </trkpt>
      <trkpt lat="48.16404" lon="6.41068">
        <ele>394</ele>
        <time>2023-10-01T07:11:18Z</time>
      </trkpt>
      <trkpt lat="48.16406" lon="6.41073">
        <ele>392</ele>
        <time>2023-10-01T07:11:19Z</time>
      </trkpt>
      <trkpt lat="48.16407" lon="6.41079">
        <ele>391.4</ele>
        <time>2023-10-01T07:11:20Z</time>
      </trkpt>
      <trkpt lat="48.16411" lon="6.41085">
        <ele>390.6</ele>
        <time>2023-10-01T07:11:21Z</time>
      </trkpt>
      <trkpt lat="48.16413" lon="6.41091">
        <ele>390.4</ele>
        <time>2023-10-01T07:11:22Z</time>
      </trkpt>
      <trkpt lat="48.16415" lon="6.41097">
        <ele>389.8</ele>
        <time>2023-10-01T07:11:23Z</time>
      </trkpt>
      <trkpt lat="48.16417" lon="6.41101">
        <ele>389.2</ele>
        <time>2023-10-01T07:11:24Z</time>
      </trkpt>
      <trkpt lat="48.16419" lon="6.41101">
        <ele>387.4</ele>
        <time>2023-10-01T07:11:25Z</time>
      </trkpt>
      <trkpt lat="48.16419" lon="6.41101">
        <ele>386.8</ele>
        <time>2023-10-01T07:11:26Z</time>
      </trkpt>
      <trkpt lat="48.16419" lon="6.41103">
        <ele>386</ele>
        <time>2023-10-01T07:11:27Z</time>
      </trkpt>
      <trkpt lat="48.16418" lon="6.41106">
        <ele>385.8</ele>
        <time>2023-10-01T07:11:28Z</time>
      </trkpt>
      <trkpt lat="48.16417" lon="6.41111">
        <ele>385.2</ele>
        <time>2023-10-01T07:11:29Z</time>
      </trkpt>
      <trkpt lat="48.16416" lon="6.41115">
        <ele>384.8</ele>
        <time>2023-10-01T07:11:30Z</time>
      </trkpt>
      <trkpt lat="48.16416" lon="6.4112">
        <ele>384</ele>
        <time>2023-10-01T07:11:31Z</time>
      </trkpt>
      <trkpt lat="48.16418" lon="6.41123">
        <ele>383.4</ele>
        <time>2023-10-01T07:11:32Z</time>
      </trkpt>
      <trkpt lat="48.16418" lon="6.41123">
        <ele>382</ele>
        <time>2023-10-01T07:11:33Z</time>
      </trkpt>
      <trkpt lat="48.16418" lon="6.41123">
        <ele>381.4</ele>
        <time>2023-10-01T07:11:34Z</time>
      </trkpt>
      <trkpt lat="48.16418" lon="6.41123">
        <ele>380.2</ele>
        <time>2023-10-01T07:11:35Z</time>
      </trkpt>
      <trkpt lat="48.16419" lon="6.41128">
        <ele>374.6</ele>
        <time>2023-10-01T07:14:44Z</time>
      </trkpt>
      <trkpt lat="48.16421" lon="6.41131">
        <ele>374.6</ele>
        <time>2023-10-01T07:14:45Z</time>
      </trkpt>
      <trkpt lat="48.16422" lon="6.41133">
        <ele>374.6</ele>
        <time>2023-10-01T07:14:46Z</time>
      </trkpt>
      <trkpt lat="48.16424" lon="6.41137">
        <ele>374.6</ele>
        <time>2023-10-01T07:14:47Z</time>
      </trkpt>
      <trkpt lat="48.16425" lon="6.41141">
        <ele>374.6</ele>
        <time>2023-10-01T07:14:48Z</time>
      </trkpt>
      <trkpt lat="48.16427" lon="6.41144">
        <ele>374.6</ele>
        <time>2023-10-01T07:14:49Z</time>
      </trkpt>
      <trkpt lat="48.16429" lon="6.41148">
        <ele>374.6</ele>
        <time>2023-10-01T07:14:50Z</time>
      </trkpt>
      <trkpt lat="48.16431" lon="6.41151">
        <ele>374.6</ele>
        <time>2023-10-01T07:14:51Z</time>
      </trkpt>
      <trkpt lat="48.16433" lon="6.41156">
        <ele>374.6</ele>
        <time>2023-10-01T07:14:52Z</time>
      </trkpt>
      <trkpt lat="48.16436" lon="6.41161">
        <ele>374.6</ele>
        <time>2023-10-01T07:14:53Z</time>
      </trkpt>
      <trkpt lat="48.16438" lon="6.41164">
        <ele>374.4</ele>
        <time>2023-10-01T07:14:54Z</time>
      </trkpt>
      <trkpt lat="48.1644" lon="6.41168">
        <ele>374.4</ele>
        <time>2023-10-01T07:14:55Z</time>
      </trkpt>
      <trkpt lat="48.16443" lon="6.41171">
        <ele>374.2</ele>
        <time>2023-10-01T07:14:56Z</time>
      </trkpt>
      <trkpt lat="48.16445" lon="6.41176">
        <ele>374.2</ele>
        <time>2023-10-01T07:14:57Z</time>
      </trkpt>
      <trkpt lat="48.16447" lon="6.41183">
        <ele>374.2</ele>
        <time>2023-10-01T07:14:58Z</time>
      </trkpt>
      <trkpt lat="48.16449" lon="6.41189">
        <ele>374.2</ele>
        <time>2023-10-01T07:14:59Z</time>
      </trkpt>
      <trkpt lat="48.16452" lon="6.41196">
        <ele>374.2</ele>
        <time>2023-10-01T07:15:00Z</time>
      </trkpt>
      <trkpt lat="48.16455" lon="6.41201">
        <ele>374.2</ele>
        <time>2023-10-01T07:15:01Z</time>
      </trkpt>
      <trkpt lat="48.16458" lon="6.41205">
        <ele>374</ele>
        <time>2023-10-01T07:15:02Z</time>
      </trkpt>
      <trkpt lat="48.16461" lon="6.41209">
        <ele>374</ele>
        <time>2023-10-01T07:15:03Z</time>
      </trkpt>
      <trkpt lat="48.16463" lon="6.41212">
        <ele>373.8</ele>
        <time>2023-10-01T07:15:04Z</time>
      </trkpt>
      <trkpt lat="48.16466" lon="6.41215">
        <ele>373.6</ele>
        <time>2023-10-01T07:15:05Z</time>
      </trkpt>
      <trkpt lat="48.16469" lon="6.41218">
        <ele>373.6</ele>
        <time>2023-10-01T07:15:06Z</time>
      </trkpt>
      <trkpt lat="48.16469" lon="6.41222">
        <ele>373.6</ele>
        <time>2023-10-01T07:15:07Z</time>
      </trkpt>
      <trkpt lat="48.16469" lon="6.41226">
        <ele>373.6</ele>
        <time>2023-10-01T07:15:08Z</time>
      </trkpt>
      <trkpt lat="48.16471" lon="6.41229">
        <ele>373.4</ele>
        <time>2023-10-01T07:15:09Z</time>
      </trkpt>
      <trkpt lat="48.16474" lon="6.41232">
        <ele>373.4</ele>
        <time>2023-10-01T07:15:10Z</time>
      </trkpt>
      <trkpt lat="48.16476" lon="6.41235">
        <ele>373.2</ele>
        <time>2023-10-01T07:15:11Z</time>
      </trkpt>
      <trkpt lat="48.1648" lon="6.4124">
        <ele>373</ele>
        <time>2023-10-01T07:15:12Z</time>
      </trkpt>
      <trkpt lat="48.16484" lon="6.41244">
        <ele>373</ele>
        <time>2023-10-01T07:15:13Z</time>
      </trkpt>
      <trkpt lat="48.16489" lon="6.41251">
        <ele>373</ele>
        <time>2023-10-01T07:15:14Z</time>
      </trkpt>
      <trkpt lat="48.16491" lon="6.41257">
        <ele>373</ele>
        <time>2023-10-01T07:15:15Z</time>
      </trkpt>
      <trkpt lat="48.16492" lon="6.41263">
        <ele>373</ele>
        <time>2023-10-01T07:15:16Z</time>
      </trkpt>
      <trkpt lat="48.16494" lon="6.41268">
        <ele>373.2</ele>
        <time>2023-10-01T07:15:17Z</time>
      </trkpt>
      <trkpt lat="48.16496" lon="6.4127">
        <ele>373.2</ele>
        <time>2023-10-01T07:15:18Z</time>
      </trkpt>
      <trkpt lat="48.16499" lon="6.41272">
        <ele>373.2</ele>
        <time>2023-10-01T07:15:19Z</time>
      </trkpt>
      <trkpt lat="48.16501" lon="6.41273">
        <ele>372.8</ele>
        <time>2023-10-01T07:15:20Z</time>
      </trkpt>
      <trkpt lat="48.16502" lon="6.41275">
        <ele>372.6</ele>
        <time>2023-10-01T07:15:21Z</time>
      </trkpt>
      <trkpt lat="48.16503" lon="6.41276">
        <ele>372.4</ele>
        <time>2023-10-01T07:15:22Z</time>
      </trkpt>
      <trkpt lat="48.16503" lon="6.41276">
        <ele>372.4</ele>
        <time>2023-10-01T07:15:23Z</time>
      </trkpt>
      <trkpt lat="48.16503" lon="6.41276">
        <ele>372.2</ele>
        <time>2023-10-01T07:15:24Z</time>
      </trkpt>
      <trkpt lat="48.16502" lon="6.41276">
        <ele>372.2</ele>
        <time>2023-10-01T07:15:25Z</time>
      </trkpt>
      <trkpt lat="48.16501" lon="6.41277">
        <ele>372.2</ele>
        <time>2023-10-01T07:15:26Z</time>
      </trkpt>
      <trkpt lat="48.165" lon="6.41278">
        <ele>372</ele>
        <time>2023-10-01T07:15:27Z</time>
      </trkpt>
      <trkpt lat="48.16498" lon="6.4128">
        <ele>371.8</ele>
        <time>2023-10-01T07:15:28Z</time>
      </trkpt>
      <trkpt lat="48.16496" lon="6.41281">
        <ele>371.6</ele>
        <time>2023-10-01T07:15:29Z</time>
      </trkpt>
      <trkpt lat="48.16493" lon="6.4128">
        <ele>371.2</ele>
        <time>2023-10-01T07:15:30Z</time>
      </trkpt>
      <trkpt lat="48.1649" lon="6.4128">
        <ele>371</ele>
        <time>2023-10-01T07:15:31Z</time>
      </trkpt>
      <trkpt lat="48.16487" lon="6.4128">
        <ele>370.4</ele>
        <time>2023-10-01T07:15:32Z</time>
      </trkpt>
      <trkpt lat="48.16485" lon="6.41279">
        <ele>369.6</ele>
        <time>2023-10-01T07:15:33Z</time>
      </trkpt>
      <trkpt lat="48.16485" lon="6.41279">
        <ele>368.6</ele>
        <time>2023-10-01T07:15:34Z</time>
      </trkpt>
      <trkpt lat="48.16483" lon="6.41279">
        <ele>368</ele>
        <time>2023-10-01T07:15:35Z</time>
      </trkpt>
      <trkpt lat="48.16479" lon="6.41279">
        <ele>366.8</ele>
        <time>2023-10-01T07:15:36Z</time>
      </trkpt>
      <trkpt lat="48.16476" lon="6.41279">
        <ele>366.2</ele>
        <time>2023-10-01T07:15:37Z</time>
      </trkpt>
      <trkpt lat="48.16472" lon="6.41279">
        <ele>365.2</ele>
        <time>2023-10-01T07:15:38Z</time>
      </trkpt>
      <trkpt lat="48.16469" lon="6.41281">
        <ele>364.6</ele>
        <time>2023-10-01T07:15:39Z</time>
      </trkpt>
      <trkpt lat="48.16465" lon="6.41284">
        <ele>363.8</ele>
        <time>2023-10-01T07:15:40Z</time>
      </trkpt>
      <trkpt lat="48.16462" lon="6.41288">
        <ele>363.2</ele>
        <time>2023-10-01T07:15:41Z</time>
      </trkpt>
      <trkpt lat="48.16458" lon="6.41293">
        <ele>362.4</ele>
        <time>2023-10-01T07:15:42Z</time>
      </trkpt>
      <trkpt lat="48.16454" lon="6.41297">
        <ele>362</ele>
        <time>2023-10-01T07:15:43Z</time>
      </trkpt>
      <trkpt lat="48.1645" lon="6.41302">
        <ele>361.4</ele>
        <time>2023-10-01T07:15:44Z</time>
      </trkpt>
      <trkpt lat="48.16446" lon="6.41306">
        <ele>361.2</ele>
        <time>2023-10-01T07:15:45Z</time>
      </trkpt>
      <trkpt lat="48.16442" lon="6.4131">
        <ele>360.8</ele>
        <time>2023-10-01T07:15:46Z</time>
      </trkpt>
      <trkpt lat="48.16442" lon="6.4131">
        <ele>360.2</ele>
        <time>2023-10-01T07:15:47Z</time>
      </trkpt>
      <trkpt lat="48.16435" lon="6.41318">
        <ele>360.2</ele>
        <time>2023-10-01T07:15:48Z</time>
      </trkpt>
      <trkpt lat="48.16432" lon="6.41321">
        <ele>360</ele>
        <time>2023-10-01T07:15:49Z</time>
      </trkpt>
      <trkpt lat="48.16428" lon="6.41325">
        <ele>360</ele>
        <time>2023-10-01T07:15:50Z</time>
      </trkpt>
      <trkpt lat="48.16425" lon="6.41329">
        <ele>360</ele>
        <time>2023-10-01T07:15:51Z</time>
      </trkpt>
      <trkpt lat="48.16422" lon="6.41333">
        <ele>360</ele>
        <time>2023-10-01T07:15:52Z</time>
      </trkpt>
      <trkpt lat="48.1642" lon="6.41337">
        <ele>360</ele>
        <time>2023-10-01T07:15:53Z</time>
      </trkpt>
      <trkpt lat="48.16418" lon="6.41343">
        <ele>360</ele>
        <time>2023-10-01T07:15:54Z</time>
      </trkpt>
      <trkpt lat="48.16416" lon="6.41348">
        <ele>360</ele>
        <time>2023-10-01T07:15:55Z</time>
      </trkpt>
      <trkpt lat="48.16415" lon="6.41353">
        <ele>360</ele>
        <time>2023-10-01T07:15:56Z</time>
      </trkpt>
      <trkpt lat="48.16413" lon="6.41359">
        <ele>360.4</ele>
        <time>2023-10-01T07:15:57Z</time>
      </trkpt>
      <trkpt lat="48.16413" lon="6.41365">
        <ele>360.4</ele>
        <time>2023-10-01T07:15:58Z</time>
      </trkpt>
      <trkpt lat="48.16412" lon="6.41371">
        <ele>360.6</ele>
        <time>2023-10-01T07:15:59Z</time>
      </trkpt>
      <trkpt lat="48.16411" lon="6.41378">
        <ele>360.6</ele>
        <time>2023-10-01T07:16:00Z</time>
      </trkpt>
      <trkpt lat="48.1641" lon="6.41385">
        <ele>360.6</ele>
        <time>2023-10-01T07:16:01Z</time>
      </trkpt>
      <trkpt lat="48.1641" lon="6.41391">
        <ele>360.6</ele>
        <time>2023-10-01T07:16:02Z</time>
      </trkpt>
      <trkpt lat="48.16409" lon="6.41397">
        <ele>360.6</ele>
        <time>2023-10-01T07:16:03Z</time>
      </trkpt>
      <trkpt lat="48.16408" lon="6.41404">
        <ele>360.6</ele>
        <time>2023-10-01T07:16:04Z</time>
      </trkpt>
      <trkpt lat="48.16407" lon="6.4141">
        <ele>360.8</ele>
        <time>2023-10-01T07:16:05Z</time>
      </trkpt>
      <trkpt lat="48.16407" lon="6.41416">
        <ele>360.8</ele>
        <time>2023-10-01T07:16:06Z</time>
      </trkpt>
      <trkpt lat="48.16406" lon="6.41422">
        <ele>360.8</ele>
        <time>2023-10-01T07:16:07Z</time>
      </trkpt>
      <trkpt lat="48.16405" lon="6.41428">
        <ele>361</ele>
        <time>2023-10-01T07:16:08Z</time>
      </trkpt>
      <trkpt lat="48.16405" lon="6.41434">
        <ele>361</ele>
        <time>2023-10-01T07:16:09Z</time>
      </trkpt>
      <trkpt lat="48.16404" lon="6.4144">
        <ele>361.2</ele>
        <time>2023-10-01T07:16:10Z</time>
      </trkpt>
      <trkpt lat="48.16403" lon="6.41444">
        <ele>361.4</ele>
        <time>2023-10-01T07:16:11Z</time>
      </trkpt>
      <trkpt lat="48.16402" lon="6.41447">
        <ele>361.4</ele>
        <time>2023-10-01T07:16:12Z</time>
      </trkpt>
      <trkpt lat="48.16402" lon="6.41449">
        <ele>361.6</ele>
        <time>2023-10-01T07:16:13Z</time>
      </trkpt>
      <trkpt lat="48.16401" lon="6.41451">
        <ele>361.8</ele>
        <time>2023-10-01T07:16:14Z</time>
      </trkpt>
      <trkpt lat="48.16399" lon="6.41451">
        <ele>362</ele>
        <time>2023-10-01T07:16:15Z</time>
      </trkpt>
      <trkpt lat="48.16396" lon="6.41451">
        <ele>362.2</ele>
        <time>2023-10-01T07:16:16Z</time>
      </trkpt>
      <trkpt lat="48.16394" lon="6.41451">
        <ele>362.4</ele>
        <time>2023-10-01T07:16:17Z</time>
      </trkpt>
      <trkpt lat="48.16391" lon="6.4145">
        <ele>362.6</ele>
        <time>2023-10-01T07:16:18Z</time>
      </trkpt>
      <trkpt lat="48.16389" lon="6.4145">
        <ele>362.6</ele>
        <time>2023-10-01T07:16:19Z</time>
      </trkpt>
      <trkpt lat="48.16386" lon="6.4145">
        <ele>362.6</ele>
        <time>2023-10-01T07:16:20Z</time>
      </trkpt>
      <trkpt lat="48.16383" lon="6.41449">
        <ele>362.8</ele>
        <time>2023-10-01T07:16:21Z</time>
      </trkpt>
      <trkpt lat="48.1638" lon="6.41449">
        <ele>363.4</ele>
        <time>2023-10-01T07:16:22Z</time>
      </trkpt>
      <trkpt lat="48.16378" lon="6.41449">
        <ele>363.6</ele>
        <time>2023-10-01T07:16:23Z</time>
      </trkpt>
      <trkpt lat="48.16375" lon="6.41449">
        <ele>364</ele>
        <time>2023-10-01T07:16:24Z</time>
      </trkpt>
      <trkpt lat="48.16372" lon="6.41449">
        <ele>364.2</ele>
        <time>2023-10-01T07:16:25Z</time>
      </trkpt>
      <trkpt lat="48.16367" lon="6.41449">
        <ele>364.2</ele>
        <time>2023-10-01T07:16:26Z</time>
      </trkpt>
      <trkpt lat="48.16364" lon="6.41449">
        <ele>364.4</ele>
        <time>2023-10-01T07:16:27Z</time>
      </trkpt>
      <trkpt lat="48.16362" lon="6.41448">
        <ele>364.6</ele>
        <time>2023-10-01T07:16:28Z</time>
      </trkpt>
      <trkpt lat="48.1636" lon="6.41449">
        <ele>364.6</ele>
        <time>2023-10-01T07:16:29Z</time>
      </trkpt>
      <trkpt lat="48.16357" lon="6.41449">
        <ele>364.8</ele>
        <time>2023-10-01T07:16:30Z</time>
      </trkpt>
      <trkpt lat="48.16354" lon="6.41449">
        <ele>364.8</ele>
        <time>2023-10-01T07:16:31Z</time>
      </trkpt>
      <trkpt lat="48.16351" lon="6.41449">
        <ele>365</ele>
        <time>2023-10-01T07:16:32Z</time>
      </trkpt>
      <trkpt lat="48.16348" lon="6.41449">
        <ele>365</ele>
        <time>2023-10-01T07:16:33Z</time>
      </trkpt>
      <trkpt lat="48.16346" lon="6.41449">
        <ele>365.2</ele>
        <time>2023-10-01T07:16:34Z</time>
      </trkpt>
      <trkpt lat="48.16344" lon="6.41449">
        <ele>365.2</ele>
        <time>2023-10-01T07:16:35Z</time>
      </trkpt>
      <trkpt lat="48.16344" lon="6.41449">
        <ele>365.4</ele>
        <time>2023-10-01T07:16:36Z</time>
      </trkpt>
      <trkpt lat="48.16344" lon="6.41449">
        <ele>365.8</ele>
        <time>2023-10-01T07:16:37Z</time>
      </trkpt>
      <trkpt lat="48.16342" lon="6.4145">
        <ele>366</ele>
        <time>2023-10-01T07:16:38Z</time>
      </trkpt>
      <trkpt lat="48.16339" lon="6.41451">
        <ele>366.2</ele>
        <time>2023-10-01T07:16:39Z</time>
      </trkpt>
      <trkpt lat="48.16337" lon="6.41452">
        <ele>366.4</ele>
        <time>2023-10-01T07:16:40Z</time>
      </trkpt>
      <trkpt lat="48.16332" lon="6.41455">
        <ele>366.4</ele>
        <time>2023-10-01T07:16:41Z</time>
      </trkpt>
      <trkpt lat="48.16327" lon="6.41456">
        <ele>366.6</ele>
        <time>2023-10-01T07:16:42Z</time>
      </trkpt>
      <trkpt lat="48.16322" lon="6.41457">
        <ele>367</ele>
        <time>2023-10-01T07:16:43Z</time>
      </trkpt>
      <trkpt lat="48.16316" lon="6.4146">
        <ele>367.2</ele>
        <time>2023-10-01T07:16:44Z</time>
      </trkpt>
      <trkpt lat="48.16312" lon="6.41462">
        <ele>367.6</ele>
        <time>2023-10-01T07:16:45Z</time>
      </trkpt>
      <trkpt lat="48.16308" lon="6.41464">
        <ele>367.6</ele>
        <time>2023-10-01T07:16:46Z</time>
      </trkpt>
      <trkpt lat="48.16303" lon="6.41466">
        <ele>367.6</ele>
        <time>2023-10-01T07:16:47Z</time>
      </trkpt>
      <trkpt lat="48.16297" lon="6.41467">
        <ele>367.8</ele>
        <time>2023-10-01T07:16:48Z</time>
      </trkpt>
      <trkpt lat="48.16293" lon="6.41468">
        <ele>367.6</ele>
        <time>2023-10-01T07:16:49Z</time>
      </trkpt>
      <trkpt lat="48.16291" lon="6.41469">
        <ele>367.8</ele>
        <time>2023-10-01T07:16:50Z</time>
      </trkpt>
      <trkpt lat="48.16286" lon="6.4147">
        <ele>367.8</ele>
        <time>2023-10-01T07:16:51Z</time>
      </trkpt>
      <trkpt lat="48.16282" lon="6.41471">
        <ele>368.2</ele>
        <time>2023-10-01T07:16:52Z</time>
      </trkpt>
      <trkpt lat="48.16278" lon="6.41474">
        <ele>368.4</ele>
        <time>2023-10-01T07:16:53Z</time>
      </trkpt>
      <trkpt lat="48.16274" lon="6.41477">
        <ele>368.8</ele>
        <time>2023-10-01T07:16:54Z</time>
      </trkpt>
      <trkpt lat="48.16268" lon="6.41481">
        <ele>369</ele>
        <time>2023-10-01T07:16:55Z</time>
      </trkpt>
      <trkpt lat="48.16264" lon="6.41486">
        <ele>369</ele>
        <time>2023-10-01T07:16:56Z</time>
      </trkpt>
      <trkpt lat="48.16261" lon="6.41488">
        <ele>369.2</ele>
        <time>2023-10-01T07:16:57Z</time>
      </trkpt>
      <trkpt lat="48.16256" lon="6.41492">
        <ele>369.2</ele>
        <time>2023-10-01T07:16:58Z</time>
      </trkpt>
      <trkpt lat="48.16252" lon="6.41495">
        <ele>369.2</ele>
        <time>2023-10-01T07:16:59Z</time>
      </trkpt>
      <trkpt lat="48.1625" lon="6.41496">
        <ele>369.2</ele>
        <time>2023-10-01T07:17:00Z</time>
      </trkpt>
      <trkpt lat="48.16247" lon="6.41498">
        <ele>369.2</ele>
        <time>2023-10-01T07:17:01Z</time>
      </trkpt>
      <trkpt lat="48.16245" lon="6.41499">
        <ele>369.4</ele>
        <time>2023-10-01T07:17:02Z</time>
      </trkpt>
      <trkpt lat="48.16243" lon="6.41503">
        <ele>369.6</ele>
        <time>2023-10-01T07:17:03Z</time>
      </trkpt>
      <trkpt lat="48.16242" lon="6.41504">
        <ele>369.6</ele>
        <time>2023-10-01T07:17:04Z</time>
      </trkpt>
      <trkpt lat="48.16235" lon="6.41505">
        <ele>369.8</ele>
        <time>2023-10-01T07:17:05Z</time>
      </trkpt>
      <trkpt lat="48.16232" lon="6.41509">
        <ele>370</ele>
        <time>2023-10-01T07:17:06Z</time>
      </trkpt>
      <trkpt lat="48.1623" lon="6.41512">
        <ele>370</ele>
        <time>2023-10-01T07:17:07Z</time>
      </trkpt>
      <trkpt lat="48.16227" lon="6.41514">
        <ele>370</ele>
        <time>2023-10-01T07:17:08Z</time>
      </trkpt>
      <trkpt lat="48.16226" lon="6.41519">
        <ele>370</ele>
        <time>2023-10-01T07:17:09Z</time>
      </trkpt>
      <trkpt lat="48.16225" lon="6.41524">
        <ele>370.2</ele>
        <time>2023-10-01T07:17:10Z</time>
      </trkpt>
      <trkpt lat="48.16224" lon="6.41526">
        <ele>370.2</ele>
        <time>2023-10-01T07:17:11Z</time>
      </trkpt>
      <trkpt lat="48.16221" lon="6.41529">
        <ele>370.2</ele>
        <time>2023-10-01T07:17:12Z</time>
      </trkpt>
      <trkpt lat="48.1622" lon="6.41533">
        <ele>370.4</ele>
        <time>2023-10-01T07:17:13Z</time>
      </trkpt>
      <trkpt lat="48.16219" lon="6.41537">
        <ele>370.4</ele>
        <time>2023-10-01T07:17:14Z</time>
      </trkpt>
      <trkpt lat="48.16215" lon="6.4154">
        <ele>370.2</ele>
        <time>2023-10-01T07:17:15Z</time>
      </trkpt>
      <trkpt lat="48.16209" lon="6.41545">
        <ele>370.2</ele>
        <time>2023-10-01T07:17:16Z</time>
      </trkpt>
      <trkpt lat="48.16204" lon="6.41548">
        <ele>370.2</ele>
        <time>2023-10-01T07:17:17Z</time>
      </trkpt>
      <trkpt lat="48.16201" lon="6.41553">
        <ele>370.2</ele>
        <time>2023-10-01T07:17:18Z</time>
      </trkpt>
      <trkpt lat="48.16201" lon="6.41556">
        <ele>370.4</ele>
        <time>2023-10-01T07:17:19Z</time>
      </trkpt>
      <trkpt lat="48.16201" lon="6.41557">
        <ele>370.6</ele>
        <time>2023-10-01T07:17:20Z</time>
      </trkpt>
      <trkpt lat="48.162" lon="6.41561">
        <ele>370.8</ele>
        <time>2023-10-01T07:17:21Z</time>
      </trkpt>
      <trkpt lat="48.16199" lon="6.41565">
        <ele>371</ele>
        <time>2023-10-01T07:17:22Z</time>
      </trkpt>
      <trkpt lat="48.16195" lon="6.41568">
        <ele>371.4</ele>
        <time>2023-10-01T07:17:23Z</time>
      </trkpt>
      <trkpt lat="48.16186" lon="6.41569">
        <ele>371.6</ele>
        <time>2023-10-01T07:17:24Z</time>
      </trkpt>
      <trkpt lat="48.16182" lon="6.41571">
        <ele>371.8</ele>
        <time>2023-10-01T07:17:25Z</time>
      </trkpt>
      <trkpt lat="48.16177" lon="6.41573">
        <ele>372</ele>
        <time>2023-10-01T07:17:26Z</time>
      </trkpt>
      <trkpt lat="48.16176" lon="6.41575">
        <ele>372.2</ele>
        <time>2023-10-01T07:17:27Z</time>
      </trkpt>
      <trkpt lat="48.16176" lon="6.41575">
        <ele>372.2</ele>
        <time>2023-10-01T07:17:28Z</time>
      </trkpt>
      <trkpt lat="48.16175" lon="6.41576">
        <ele>372.4</ele>
        <time>2023-10-01T07:17:29Z</time>
      </trkpt>
      <trkpt lat="48.16174" lon="6.41578">
        <ele>372.4</ele>
        <time>2023-10-01T07:17:30Z</time>
      </trkpt>
      <trkpt lat="48.16172" lon="6.4158">
        <ele>372.6</ele>
        <time>2023-10-01T07:17:31Z</time>
      </trkpt>
      <trkpt lat="48.1617" lon="6.41584">
        <ele>372.8</ele>
        <time>2023-10-01T07:17:32Z</time>
      </trkpt>
      <trkpt lat="48.16167" lon="6.41587">
        <ele>373</ele>
        <time>2023-10-01T07:17:33Z</time>
      </trkpt>
      <trkpt lat="48.16163" lon="6.4159">
        <ele>373</ele>
        <time>2023-10-01T07:17:34Z</time>
      </trkpt>
      <trkpt lat="48.1616" lon="6.41593">
        <ele>373</ele>
        <time>2023-10-01T07:17:35Z</time>
      </trkpt>
      <trkpt lat="48.16157" lon="6.41596">
        <ele>373</ele>
        <time>2023-10-01T07:17:36Z</time>
      </trkpt>
      <trkpt lat="48.16154" lon="6.41599">
        <ele>373.2</ele>
        <time>2023-10-01T07:17:37Z</time>
      </trkpt>
      <trkpt lat="48.16152" lon="6.41602">
        <ele>373.4</ele>
        <time>2023-10-01T07:17:38Z</time>
      </trkpt>
      <trkpt lat="48.16151" lon="6.41604">
        <ele>373.4</ele>
        <time>2023-10-01T07:17:39Z</time>
      </trkpt>
      <trkpt lat="48.1615" lon="6.41605">
        <ele>373.4</ele>
        <time>2023-10-01T07:17:40Z</time>
      </trkpt>
      <trkpt lat="48.1615" lon="6.41606">
        <ele>373.6</ele>
        <time>2023-10-01T07:17:41Z</time>
      </trkpt>
      <trkpt lat="48.16146" lon="6.41608">
        <ele>373.6</ele>
        <time>2023-10-01T07:17:42Z</time>
      </trkpt>
      <trkpt lat="48.1614" lon="6.41611">
        <ele>373.6</ele>
        <time>2023-10-01T07:17:43Z</time>
      </trkpt>
      <trkpt lat="48.16135" lon="6.41613">
        <ele>373.8</ele>
        <time>2023-10-01T07:17:44Z</time>
      </trkpt>
      <trkpt lat="48.16133" lon="6.41614">
        <ele>373.8</ele>
        <time>2023-10-01T07:17:45Z</time>
      </trkpt>
      <trkpt lat="48.16132" lon="6.41615">
        <ele>374.2</ele>
        <time>2023-10-01T07:17:46Z</time>
      </trkpt>
      <trkpt lat="48.16128" lon="6.41618">
        <ele>374.2</ele>
        <time>2023-10-01T07:17:47Z</time>
      </trkpt>
      <trkpt lat="48.16123" lon="6.41623">
        <ele>374.4</ele>
        <time>2023-10-01T07:17:48Z</time>
      </trkpt>
      <trkpt lat="48.16121" lon="6.41628">
        <ele>374.4</ele>
        <time>2023-10-01T07:17:49Z</time>
      </trkpt>
      <trkpt lat="48.1612" lon="6.4163">
        <ele>374.6</ele>
        <time>2023-10-01T07:17:50Z</time>
      </trkpt>
      <trkpt lat="48.16117" lon="6.41631">
        <ele>374.6</ele>
        <time>2023-10-01T07:17:51Z</time>
      </trkpt>
      <trkpt lat="48.16114" lon="6.41632">
        <ele>374.8</ele>
        <time>2023-10-01T07:17:52Z</time>
      </trkpt>
      <trkpt lat="48.16111" lon="6.41635">
        <ele>374.8</ele>
        <time>2023-10-01T07:17:53Z</time>
      </trkpt>
      <trkpt lat="48.16108" lon="6.41638">
        <ele>374.8</ele>
        <time>2023-10-01T07:17:54Z</time>
      </trkpt>
      <trkpt lat="48.16103" lon="6.41643">
        <ele>375</ele>
        <time>2023-10-01T07:17:55Z</time>
      </trkpt>
      <trkpt lat="48.16101" lon="6.41646">
        <ele>375.2</ele>
        <time>2023-10-01T07:17:56Z</time>
      </trkpt>
      <trkpt lat="48.161" lon="6.41649">
        <ele>375.2</ele>
        <time>2023-10-01T07:17:57Z</time>
      </trkpt>
      <trkpt lat="48.16098" lon="6.41652">
        <ele>375.4</ele>
        <time>2023-10-01T07:17:58Z</time>
      </trkpt>
      <trkpt lat="48.16098" lon="6.41655">
        <ele>375.6</ele>
        <time>2023-10-01T07:17:59Z</time>
      </trkpt>
      <trkpt lat="48.16097" lon="6.41658">
        <ele>375.6</ele>
        <time>2023-10-01T07:18:00Z</time>
      </trkpt>
      <trkpt lat="48.16096" lon="6.41662">
        <ele>375.8</ele>
        <time>2023-10-01T07:18:01Z</time>
      </trkpt>
      <trkpt lat="48.16094" lon="6.41666">
        <ele>375.8</ele>
        <time>2023-10-01T07:18:02Z</time>
      </trkpt>
      <trkpt lat="48.16092" lon="6.4167">
        <ele>375.8</ele>
        <time>2023-10-01T07:18:03Z</time>
      </trkpt>
      <trkpt lat="48.1609" lon="6.41673">
        <ele>376</ele>
        <time>2023-10-01T07:18:04Z</time>
      </trkpt>
      <trkpt lat="48.16087" lon="6.4168">
        <ele>376</ele>
        <time>2023-10-01T07:18:05Z</time>
      </trkpt>
      <trkpt lat="48.16086" lon="6.41686">
        <ele>376</ele>
        <time>2023-10-01T07:18:06Z</time>
      </trkpt>
      <trkpt lat="48.16084" lon="6.41689">
        <ele>376.2</ele>
        <time>2023-10-01T07:18:07Z</time>
      </trkpt>
      <trkpt lat="48.16084" lon="6.41693">
        <ele>376.2</ele>
        <time>2023-10-01T07:18:08Z</time>
      </trkpt>
      <trkpt lat="48.16083" lon="6.41697">
        <ele>376.4</ele>
        <time>2023-10-01T07:18:09Z</time>
      </trkpt>
      <trkpt lat="48.16083" lon="6.41701">
        <ele>376.4</ele>
        <time>2023-10-01T07:18:10Z</time>
      </trkpt>
      <trkpt lat="48.16081" lon="6.41705">
        <ele>376.6</ele>
        <time>2023-10-01T07:18:11Z</time>
      </trkpt>
      <trkpt lat="48.16079" lon="6.41708">
        <ele>376.6</ele>
        <time>2023-10-01T07:18:12Z</time>
      </trkpt>
      <trkpt lat="48.16077" lon="6.4171">
        <ele>376.8</ele>
        <time>2023-10-01T07:18:13Z</time>
      </trkpt>
      <trkpt lat="48.16074" lon="6.41713">
        <ele>377</ele>
        <time>2023-10-01T07:18:14Z</time>
      </trkpt>
      <trkpt lat="48.16071" lon="6.41715">
        <ele>377.2</ele>
        <time>2023-10-01T07:18:15Z</time>
      </trkpt>
      <trkpt lat="48.16066" lon="6.41718">
        <ele>377.4</ele>
        <time>2023-10-01T07:18:16Z</time>
      </trkpt>
      <trkpt lat="48.16061" lon="6.41721">
        <ele>377.6</ele>
        <time>2023-10-01T07:18:17Z</time>
      </trkpt>
      <trkpt lat="48.16058" lon="6.41723">
        <ele>377.8</ele>
        <time>2023-10-01T07:18:18Z</time>
      </trkpt>
      <trkpt lat="48.16058" lon="6.41723">
        <ele>378</ele>
        <time>2023-10-01T07:18:19Z</time>
      </trkpt>
      <trkpt lat="48.16056" lon="6.41725">
        <ele>378</ele>
        <time>2023-10-01T07:18:20Z</time>
      </trkpt>
      <trkpt lat="48.16054" lon="6.41729">
        <ele>378.2</ele>
        <time>2023-10-01T07:18:21Z</time>
      </trkpt>
      <trkpt lat="48.16053" lon="6.41732">
        <ele>378.4</ele>
        <time>2023-10-01T07:18:22Z</time>
      </trkpt>
      <trkpt lat="48.16053" lon="6.41735">
        <ele>378.4</ele>
        <time>2023-10-01T07:18:23Z</time>
      </trkpt>
      <trkpt lat="48.16052" lon="6.4174">
        <ele>378.4</ele>
        <time>2023-10-01T07:18:24Z</time>
      </trkpt>
      <trkpt lat="48.1605" lon="6.41743">
        <ele>378.4</ele>
        <time>2023-10-01T07:18:25Z</time>
      </trkpt>
      <trkpt lat="48.16048" lon="6.41747">
        <ele>378.6</ele>
        <time>2023-10-01T07:18:26Z</time>
      </trkpt>
      <trkpt lat="48.16045" lon="6.41751">
        <ele>378.8</ele>
        <time>2023-10-01T07:18:27Z</time>
      </trkpt>
      <trkpt lat="48.16041" lon="6.41754">
        <ele>379</ele>
        <time>2023-10-01T07:18:28Z</time>
      </trkpt>
      <trkpt lat="48.16038" lon="6.41758">
        <ele>379</ele>
        <time>2023-10-01T07:18:29Z</time>
      </trkpt>
      <trkpt lat="48.16033" lon="6.41762">
        <ele>379.2</ele>
        <time>2023-10-01T07:18:30Z</time>
      </trkpt>
      <trkpt lat="48.16029" lon="6.41767">
        <ele>379.4</ele>
        <time>2023-10-01T07:18:31Z</time>
      </trkpt>
      <trkpt lat="48.16026" lon="6.41774">
        <ele>379.6</ele>
        <time>2023-10-01T07:18:32Z</time>
      </trkpt>
      <trkpt lat="48.16027" lon="6.41776">
        <ele>379.8</ele>
        <time>2023-10-01T07:18:33Z</time>
      </trkpt>
      <trkpt lat="48.16026" lon="6.41781">
        <ele>380</ele>
        <time>2023-10-01T07:18:34Z</time>
      </trkpt>
      <trkpt lat="48.16024" lon="6.41784">
        <ele>380</ele>
        <time>2023-10-01T07:18:35Z</time>
      </trkpt>
      <trkpt lat="48.16023" lon="6.41787">
        <ele>380</ele>
        <time>2023-10-01T07:18:36Z</time>
      </trkpt>
      <trkpt lat="48.16021" lon="6.4179">
        <ele>380.2</ele>
        <time>2023-10-01T07:18:37Z</time>
      </trkpt>
      <trkpt lat="48.1602" lon="6.41794">
        <ele>380.2</ele>
        <time>2023-10-01T07:18:38Z</time>
      </trkpt>
      <trkpt lat="48.1602" lon="6.41797">
        <ele>380.4</ele>
        <time>2023-10-01T07:18:39Z</time>
      </trkpt>
      <trkpt lat="48.1602" lon="6.41801">
        <ele>380.6</ele>
        <time>2023-10-01T07:18:40Z</time>
      </trkpt>
      <trkpt lat="48.16021" lon="6.41804">
        <ele>380.8</ele>
        <time>2023-10-01T07:18:41Z</time>
      </trkpt>
      <trkpt lat="48.16021" lon="6.41809">
        <ele>381</ele>
        <time>2023-10-01T07:18:42Z</time>
      </trkpt>
      <trkpt lat="48.16022" lon="6.41813">
        <ele>381</ele>
        <time>2023-10-01T07:18:43Z</time>
      </trkpt>
      <trkpt lat="48.1602" lon="6.41817">
        <ele>381</ele>
        <time>2023-10-01T07:18:44Z</time>
      </trkpt>
      <trkpt lat="48.16017" lon="6.41821">
        <ele>381.2</ele>
        <time>2023-10-01T07:18:45Z</time>
      </trkpt>
      <trkpt lat="48.16012" lon="6.41825">
        <ele>381.4</ele>
        <time>2023-10-01T07:18:46Z</time>
      </trkpt>
      <trkpt lat="48.16006" lon="6.41828">
        <ele>381.6</ele>
        <time>2023-10-01T07:18:47Z</time>
      </trkpt>
      <trkpt lat="48.16002" lon="6.41832">
        <ele>381.6</ele>
        <time>2023-10-01T07:18:48Z</time>
      </trkpt>
      <trkpt lat="48.16002" lon="6.41834">
        <ele>381.8</ele>
        <time>2023-10-01T07:18:49Z</time>
      </trkpt>
      <trkpt lat="48.16001" lon="6.41838">
        <ele>381.8</ele>
        <time>2023-10-01T07:18:50Z</time>
      </trkpt>
      <trkpt lat="48.15999" lon="6.41841">
        <ele>382</ele>
        <time>2023-10-01T07:18:51Z</time>
      </trkpt>
      <trkpt lat="48.15997" lon="6.41847">
        <ele>382.4</ele>
        <time>2023-10-01T07:18:52Z</time>
      </trkpt>
      <trkpt lat="48.15997" lon="6.41851">
        <ele>382.6</ele>
        <time>2023-10-01T07:18:53Z</time>
      </trkpt>
      <trkpt lat="48.15997" lon="6.41859">
        <ele>382.8</ele>
        <time>2023-10-01T07:18:54Z</time>
      </trkpt>
      <trkpt lat="48.15996" lon="6.41863">
        <ele>382.8</ele>
        <time>2023-10-01T07:18:55Z</time>
      </trkpt>
      <trkpt lat="48.15996" lon="6.41866">
        <ele>382.8</ele>
        <time>2023-10-01T07:18:56Z</time>
      </trkpt>
      <trkpt lat="48.15996" lon="6.41867">
        <ele>383.2</ele>
        <time>2023-10-01T07:18:57Z</time>
      </trkpt>
      <trkpt lat="48.15995" lon="6.41869">
        <ele>383.2</ele>
        <time>2023-10-01T07:18:58Z</time>
      </trkpt>
      <trkpt lat="48.15993" lon="6.4187">
        <ele>383.6</ele>
        <time>2023-10-01T07:18:59Z</time>
      </trkpt>
      <trkpt lat="48.15992" lon="6.41872">
        <ele>383.6</ele>
        <time>2023-10-01T07:19:00Z</time>
      </trkpt>
      <trkpt lat="48.15991" lon="6.41876">
        <ele>384</ele>
        <time>2023-10-01T07:19:01Z</time>
      </trkpt>
      <trkpt lat="48.15993" lon="6.41883">
        <ele>384.2</ele>
        <time>2023-10-01T07:19:02Z</time>
      </trkpt>
      <trkpt lat="48.15992" lon="6.41886">
        <ele>384.8</ele>
        <time>2023-10-01T07:19:03Z</time>
      </trkpt>
      <trkpt lat="48.1599" lon="6.4189">
        <ele>385</ele>
        <time>2023-10-01T07:19:04Z</time>
      </trkpt>
      <trkpt lat="48.15989" lon="6.41892">
        <ele>385.2</ele>
        <time>2023-10-01T07:19:05Z</time>
      </trkpt>
      <trkpt lat="48.15988" lon="6.41894">
        <ele>385.4</ele>
        <time>2023-10-01T07:19:06Z</time>
      </trkpt>
      <trkpt lat="48.15988" lon="6.41896">
        <ele>385.8</ele>
        <time>2023-10-01T07:19:07Z</time>
      </trkpt>
      <trkpt lat="48.15988" lon="6.41899">
        <ele>386</ele>
        <time>2023-10-01T07:19:08Z</time>
      </trkpt>
      <trkpt lat="48.15987" lon="6.41903">
        <ele>386.2</ele>
        <time>2023-10-01T07:19:09Z</time>
      </trkpt>
      <trkpt lat="48.15988" lon="6.41905">
        <ele>386.4</ele>
        <time>2023-10-01T07:19:10Z</time>
      </trkpt>
      <trkpt lat="48.1599" lon="6.41907">
        <ele>386.6</ele>
        <time>2023-10-01T07:19:11Z</time>
      </trkpt>
      <trkpt lat="48.15989" lon="6.41912">
        <ele>387</ele>
        <time>2023-10-01T07:19:12Z</time>
      </trkpt>
      <trkpt lat="48.15989" lon="6.41916">
        <ele>387</ele>
        <time>2023-10-01T07:19:13Z</time>
      </trkpt>
      <trkpt lat="48.15987" lon="6.4192">
        <ele>387.6</ele>
        <time>2023-10-01T07:19:14Z</time>
      </trkpt>
      <trkpt lat="48.15986" lon="6.41924">
        <ele>387.6</ele>
        <time>2023-10-01T07:19:15Z</time>
      </trkpt>
      <trkpt lat="48.15986" lon="6.41928">
        <ele>387.8</ele>
        <time>2023-10-01T07:19:16Z</time>
      </trkpt>
      <trkpt lat="48.15986" lon="6.41932">
        <ele>387.8</ele>
        <time>2023-10-01T07:19:17Z</time>
      </trkpt>
      <trkpt lat="48.15985" lon="6.41934">
        <ele>388.2</ele>
        <time>2023-10-01T07:19:18Z</time>
      </trkpt>
      <trkpt lat="48.15984" lon="6.41939">
        <ele>388.2</ele>
        <time>2023-10-01T07:19:19Z</time>
      </trkpt>
      <trkpt lat="48.15983" lon="6.41943">
        <ele>388.4</ele>
        <time>2023-10-01T07:19:20Z</time>
      </trkpt>
      <trkpt lat="48.15981" lon="6.41947">
        <ele>388.4</ele>
        <time>2023-10-01T07:19:21Z</time>
      </trkpt>
      <trkpt lat="48.15979" lon="6.41952">
        <ele>389</ele>
        <time>2023-10-01T07:19:22Z</time>
      </trkpt>
      <trkpt lat="48.15979" lon="6.41955">
        <ele>389.2</ele>
        <time>2023-10-01T07:19:23Z</time>
      </trkpt>
      <trkpt lat="48.15979" lon="6.41959">
        <ele>389.6</ele>
        <time>2023-10-01T07:19:24Z</time>
      </trkpt>
      <trkpt lat="48.15977" lon="6.41963">
        <ele>389.6</ele>
        <time>2023-10-01T07:19:25Z</time>
      </trkpt>
      <trkpt lat="48.15976" lon="6.41967">
        <ele>390</ele>
        <time>2023-10-01T07:19:26Z</time>
      </trkpt>
      <trkpt lat="48.15974" lon="6.41971">
        <ele>390.2</ele>
        <time>2023-10-01T07:19:27Z</time>
      </trkpt>
      <trkpt lat="48.15972" lon="6.41976">
        <ele>390.4</ele>
        <time>2023-10-01T07:19:28Z</time>
      </trkpt>
      <trkpt lat="48.15971" lon="6.41979">
        <ele>390.6</ele>
        <time>2023-10-01T07:19:29Z</time>
      </trkpt>
      <trkpt lat="48.15974" lon="6.41983">
        <ele>390.8</ele>
        <time>2023-10-01T07:19:30Z</time>
      </trkpt>
      <trkpt lat="48.15978" lon="6.41989">
        <ele>390.8</ele>
        <time>2023-10-01T07:19:31Z</time>
      </trkpt>
      <trkpt lat="48.15979" lon="6.41996">
        <ele>391</ele>
        <time>2023-10-01T07:19:32Z</time>
      </trkpt>
      <trkpt lat="48.15979" lon="6.42004">
        <ele>391.2</ele>
        <time>2023-10-01T07:19:33Z</time>
      </trkpt>
      <trkpt lat="48.15979" lon="6.4201">
        <ele>391.6</ele>
        <time>2023-10-01T07:19:34Z</time>
      </trkpt>
      <trkpt lat="48.15979" lon="6.42013">
        <ele>391.8</ele>
        <time>2023-10-01T07:19:35Z</time>
      </trkpt>
      <trkpt lat="48.15978" lon="6.42015">
        <ele>392.2</ele>
        <time>2023-10-01T07:19:36Z</time>
      </trkpt>
      <trkpt lat="48.15979" lon="6.42017">
        <ele>392.6</ele>
        <time>2023-10-01T07:19:37Z</time>
      </trkpt>
      <trkpt lat="48.1598" lon="6.42019">
        <ele>392.8</ele>
        <time>2023-10-01T07:19:38Z</time>
      </trkpt>
      <trkpt lat="48.1598" lon="6.4202">
        <ele>393.2</ele>
        <time>2023-10-01T07:19:39Z</time>
      </trkpt>
      <trkpt lat="48.1598" lon="6.42023">
        <ele>393.4</ele>
        <time>2023-10-01T07:19:40Z</time>
      </trkpt>
      <trkpt lat="48.15979" lon="6.42025">
        <ele>393.8</ele>
        <time>2023-10-01T07:19:41Z</time>
      </trkpt>
      <trkpt lat="48.15978" lon="6.42028">
        <ele>394</ele>
        <time>2023-10-01T07:19:42Z</time>
      </trkpt>
      <trkpt lat="48.15976" lon="6.42032">
        <ele>394.2</ele>
        <time>2023-10-01T07:19:43Z</time>
      </trkpt>
      <trkpt lat="48.15973" lon="6.42039">
        <ele>394.4</ele>
        <time>2023-10-01T07:19:44Z</time>
      </trkpt>
      <trkpt lat="48.15971" lon="6.42044">
        <ele>394.6</ele>
        <time>2023-10-01T07:19:45Z</time>
      </trkpt>
      <trkpt lat="48.15971" lon="6.42044">
        <ele>394.8</ele>
        <time>2023-10-01T07:19:46Z</time>
      </trkpt>
      <trkpt lat="48.15971" lon="6.42044">
        <ele>395</ele>
        <time>2023-10-01T07:19:47Z</time>
      </trkpt>
      <trkpt lat="48.15971" lon="6.42044">
        <ele>395</ele>
        <time>2023-10-01T07:19:48Z</time>
      </trkpt>
      <trkpt lat="48.1597" lon="6.42046">
        <ele>395.4</ele>
        <time>2023-10-01T07:19:49Z</time>
      </trkpt>
      <trkpt lat="48.15969" lon="6.42049">
        <ele>395.6</ele>
        <time>2023-10-01T07:19:50Z</time>
      </trkpt>
      <trkpt lat="48.15967" lon="6.42053">
        <ele>396</ele>
        <time>2023-10-01T07:19:51Z</time>
      </trkpt>
      <trkpt lat="48.15966" lon="6.42056">
        <ele>396</ele>
        <time>2023-10-01T07:19:52Z</time>
      </trkpt>
      <trkpt lat="48.15965" lon="6.4206">
        <ele>396.2</ele>
        <time>2023-10-01T07:19:53Z</time>
      </trkpt>
      <trkpt lat="48.15963" lon="6.42066">
        <ele>396.2</ele>
        <time>2023-10-01T07:19:54Z</time>
      </trkpt>
      <trkpt lat="48.15961" lon="6.42072">
        <ele>396.4</ele>
        <time>2023-10-01T07:19:55Z</time>
      </trkpt>
      <trkpt lat="48.15961" lon="6.42077">
        <ele>396.6</ele>
        <time>2023-10-01T07:19:56Z</time>
      </trkpt>
      <trkpt lat="48.1596" lon="6.4208">
        <ele>396.8</ele>
        <time>2023-10-01T07:19:57Z</time>
      </trkpt>
      <trkpt lat="48.1596" lon="6.42083">
        <ele>397.2</ele>
        <time>2023-10-01T07:19:58Z</time>
      </trkpt>
      <trkpt lat="48.15958" lon="6.42085">
        <ele>397.6</ele>
        <time>2023-10-01T07:19:59Z</time>
      </trkpt>
      <trkpt lat="48.15954" lon="6.42087">
        <ele>397.8</ele>
        <time>2023-10-01T07:20:00Z</time>
      </trkpt>
      <trkpt lat="48.15953" lon="6.42088">
        <ele>398</ele>
        <time>2023-10-01T07:20:01Z</time>
      </trkpt>
      <trkpt lat="48.15951" lon="6.42089">
        <ele>398.4</ele>
        <time>2023-10-01T07:20:02Z</time>
      </trkpt>
      <trkpt lat="48.1595" lon="6.42091">
        <ele>398.6</ele>
        <time>2023-10-01T07:20:03Z</time>
      </trkpt>
      <trkpt lat="48.15949" lon="6.42093">
        <ele>398.8</ele>
        <time>2023-10-01T07:20:04Z</time>
      </trkpt>
      <trkpt lat="48.15948" lon="6.42096">
        <ele>399</ele>
        <time>2023-10-01T07:20:05Z</time>
      </trkpt>
      <trkpt lat="48.15947" lon="6.42099">
        <ele>399.4</ele>
        <time>2023-10-01T07:20:06Z</time>
      </trkpt>
      <trkpt lat="48.15945" lon="6.42103">
        <ele>399.6</ele>
        <time>2023-10-01T07:20:07Z</time>
      </trkpt>
      <trkpt lat="48.15946" lon="6.42108">
        <ele>400</ele>
        <time>2023-10-01T07:20:08Z</time>
      </trkpt>
      <trkpt lat="48.15945" lon="6.42115">
        <ele>400.4</ele>
        <time>2023-10-01T07:20:09Z</time>
      </trkpt>
      <trkpt lat="48.15943" lon="6.4212">
        <ele>401</ele>
        <time>2023-10-01T07:20:10Z</time>
      </trkpt>
      <trkpt lat="48.15942" lon="6.42123">
        <ele>401</ele>
        <time>2023-10-01T07:20:11Z</time>
      </trkpt>
      <trkpt lat="48.15942" lon="6.42124">
        <ele>401.4</ele>
        <time>2023-10-01T07:20:12Z</time>
      </trkpt>
      <trkpt lat="48.15942" lon="6.42125">
        <ele>401.2</ele>
        <time>2023-10-01T07:20:13Z</time>
      </trkpt>
      <trkpt lat="48.15941" lon="6.42126">
        <ele>401.6</ele>
        <time>2023-10-01T07:20:14Z</time>
      </trkpt>
      <trkpt lat="48.1594" lon="6.42128">
        <ele>402</ele>
        <time>2023-10-01T07:20:15Z</time>
      </trkpt>
      <trkpt lat="48.15939" lon="6.4213">
        <ele>402.4</ele>
        <time>2023-10-01T07:20:16Z</time>
      </trkpt>
      <trkpt lat="48.15938" lon="6.42133">
        <ele>402.6</ele>
        <time>2023-10-01T07:20:17Z</time>
      </trkpt>
      <trkpt lat="48.15937" lon="6.42135">
        <ele>402.8</ele>
        <time>2023-10-01T07:20:18Z</time>
      </trkpt>
      <trkpt lat="48.15936" lon="6.42136">
        <ele>403</ele>
        <time>2023-10-01T07:20:19Z</time>
      </trkpt>
      <trkpt lat="48.15935" lon="6.42138">
        <ele>403.2</ele>
        <time>2023-10-01T07:20:20Z</time>
      </trkpt>
      <trkpt lat="48.15934" lon="6.4214">
        <ele>403.4</ele>
        <time>2023-10-01T07:20:21Z</time>
      </trkpt>
      <trkpt lat="48.15936" lon="6.42141">
        <ele>403.8</ele>
        <time>2023-10-01T07:20:22Z</time>
      </trkpt>
      <trkpt lat="48.15934" lon="6.42142">
        <ele>403.8</ele>
        <time>2023-10-01T07:20:23Z</time>
      </trkpt>
      <trkpt lat="48.1593" lon="6.42143">
        <ele>404.2</ele>
        <time>2023-10-01T07:20:24Z</time>
      </trkpt>
      <trkpt lat="48.15929" lon="6.42143">
        <ele>404.2</ele>
        <time>2023-10-01T07:20:25Z</time>
      </trkpt>
      <trkpt lat="48.15928" lon="6.42144">
        <ele>404.4</ele>
        <time>2023-10-01T07:20:26Z</time>
      </trkpt>
      <trkpt lat="48.15927" lon="6.42144">
        <ele>404.4</ele>
        <time>2023-10-01T07:20:27Z</time>
      </trkpt>
      <trkpt lat="48.15927" lon="6.42143">
        <ele>404.4</ele>
        <time>2023-10-01T07:20:28Z</time>
      </trkpt>
      <trkpt lat="48.15927" lon="6.42141">
        <ele>404.6</ele>
        <time>2023-10-01T07:20:29Z</time>
      </trkpt>
      <trkpt lat="48.15927" lon="6.42139">
        <ele>404.6</ele>
        <time>2023-10-01T07:20:30Z</time>
      </trkpt>
      <trkpt lat="48.15927" lon="6.42137">
        <ele>404.6</ele>
        <time>2023-10-01T07:20:31Z</time>
      </trkpt>
      <trkpt lat="48.15926" lon="6.42134">
        <ele>404.6</ele>
        <time>2023-10-01T07:20:32Z</time>
      </trkpt>
      <trkpt lat="48.15926" lon="6.42131">
        <ele>404.6</ele>
        <time>2023-10-01T07:20:33Z</time>
      </trkpt>
      <trkpt lat="48.15925" lon="6.42129">
        <ele>404.6</ele>
        <time>2023-10-01T07:20:34Z</time>
      </trkpt>
      <trkpt lat="48.15925" lon="6.42125">
        <ele>404.6</ele>
        <time>2023-10-01T07:20:35Z</time>
      </trkpt>
      <trkpt lat="48.15925" lon="6.42123">
        <ele>404.6</ele>
        <time>2023-10-01T07:20:36Z</time>
      </trkpt>
      <trkpt lat="48.15924" lon="6.42116">
        <ele>404.4</ele>
        <time>2023-10-01T07:20:37Z</time>
      </trkpt>
      <trkpt lat="48.15922" lon="6.42111">
        <ele>404.2</ele>
        <time>2023-10-01T07:20:38Z</time>
      </trkpt>
      <trkpt lat="48.15922" lon="6.42108">
        <ele>403.8</ele>
        <time>2023-10-01T07:20:39Z</time>
      </trkpt>
      <trkpt lat="48.15922" lon="6.42104">
        <ele>403.6</ele>
        <time>2023-10-01T07:20:40Z</time>
      </trkpt>
      <trkpt lat="48.15923" lon="6.42101">
        <ele>403.2</ele>
        <time>2023-10-01T07:20:41Z</time>
      </trkpt>
      <trkpt lat="48.15922" lon="6.42098">
        <ele>403.2</ele>
        <time>2023-10-01T07:20:42Z</time>
      </trkpt>
      <trkpt lat="48.15923" lon="6.42096">
        <ele>403</ele>
        <time>2023-10-01T07:20:43Z</time>
      </trkpt>
      <trkpt lat="48.15922" lon="6.42095">
        <ele>403</ele>
        <time>2023-10-01T07:20:44Z</time>
      </trkpt>
      <trkpt lat="48.15922" lon="6.42094">
        <ele>403</ele>
        <time>2023-10-01T07:20:45Z</time>
      </trkpt>
      <trkpt lat="48.15921" lon="6.42093">
        <ele>402.8</ele>
        <time>2023-10-01T07:20:46Z</time>
      </trkpt>
      <trkpt lat="48.1592" lon="6.42091">
        <ele>402.8</ele>
        <time>2023-10-01T07:20:47Z</time>
      </trkpt>
      <trkpt lat="48.15918" lon="6.42088">
        <ele>402.8</ele>
        <time>2023-10-01T07:20:48Z</time>
      </trkpt>
      <trkpt lat="48.15915" lon="6.42086">
        <ele>403</ele>
        <time>2023-10-01T07:20:49Z</time>
      </trkpt>
      <trkpt lat="48.15914" lon="6.42081">
        <ele>403</ele>
        <time>2023-10-01T07:20:50Z</time>
      </trkpt>
      <trkpt lat="48.15913" lon="6.42077">
        <ele>403.2</ele>
        <time>2023-10-01T07:20:51Z</time>
      </trkpt>
      <trkpt lat="48.15911" lon="6.42074">
        <ele>403.2</ele>
        <time>2023-10-01T07:20:52Z</time>
      </trkpt>
      <trkpt lat="48.1591" lon="6.42072">
        <ele>403.6</ele>
        <time>2023-10-01T07:20:53Z</time>
      </trkpt>
      <trkpt lat="48.15909" lon="6.42069">
        <ele>403.8</ele>
        <time>2023-10-01T07:20:54Z</time>
      </trkpt>
      <trkpt lat="48.15908" lon="6.42068">
        <ele>404</ele>
        <time>2023-10-01T07:20:55Z</time>
      </trkpt>
      <trkpt lat="48.15907" lon="6.42068">
        <ele>404.4</ele>
        <time>2023-10-01T07:20:56Z</time>
      </trkpt>
      <trkpt lat="48.15907" lon="6.42068">
        <ele>404.8</ele>
        <time>2023-10-01T07:20:57Z</time>
      </trkpt>
      <trkpt lat="48.15906" lon="6.42067">
        <ele>405</ele>
        <time>2023-10-01T07:20:58Z</time>
      </trkpt>
      <trkpt lat="48.15905" lon="6.42066">
        <ele>405.2</ele>
        <time>2023-10-01T07:20:59Z</time>
      </trkpt>
      <trkpt lat="48.15904" lon="6.42065">
        <ele>405.8</ele>
        <time>2023-10-01T07:21:00Z</time>
      </trkpt>
      <trkpt lat="48.15903" lon="6.42063">
        <ele>406</ele>
        <time>2023-10-01T07:21:01Z</time>
      </trkpt>
      <trkpt lat="48.15901" lon="6.42061">
        <ele>406.2</ele>
        <time>2023-10-01T07:21:02Z</time>
      </trkpt>
      <trkpt lat="48.15898" lon="6.42059">
        <ele>406.2</ele>
        <time>2023-10-01T07:21:03Z</time>
      </trkpt>
      <trkpt lat="48.15897" lon="6.42058">
        <ele>406.4</ele>
        <time>2023-10-01T07:21:04Z</time>
      </trkpt>
      <trkpt lat="48.15897" lon="6.42056">
        <ele>406.6</ele>
        <time>2023-10-01T07:21:05Z</time>
      </trkpt>
      <trkpt lat="48.15895" lon="6.42054">
        <ele>406.8</ele>
        <time>2023-10-01T07:21:06Z</time>
      </trkpt>
      <trkpt lat="48.15894" lon="6.42054">
        <ele>407</ele>
        <time>2023-10-01T07:21:07Z</time>
      </trkpt>
      <trkpt lat="48.15892" lon="6.42052">
        <ele>407.6</ele>
        <time>2023-10-01T07:21:08Z</time>
      </trkpt>
      <trkpt lat="48.15891" lon="6.42052">
        <ele>407.8</ele>
        <time>2023-10-01T07:21:09Z</time>
      </trkpt>
      <trkpt lat="48.15888" lon="6.42053">
        <ele>408.4</ele>
        <time>2023-10-01T07:21:10Z</time>
      </trkpt>
      <trkpt lat="48.15887" lon="6.42053">
        <ele>408.4</ele>
        <time>2023-10-01T07:21:11Z</time>
      </trkpt>
      <trkpt lat="48.15886" lon="6.42053">
        <ele>408.8</ele>
        <time>2023-10-01T07:21:12Z</time>
      </trkpt>
      <trkpt lat="48.15884" lon="6.42053">
        <ele>408.8</ele>
        <time>2023-10-01T07:21:13Z</time>
      </trkpt>
      <trkpt lat="48.15883" lon="6.42052">
        <ele>409</ele>
        <time>2023-10-01T07:21:14Z</time>
      </trkpt>
      <trkpt lat="48.15881" lon="6.42052">
        <ele>409.2</ele>
        <time>2023-10-01T07:21:15Z</time>
      </trkpt>
      <trkpt lat="48.15881" lon="6.42052">
        <ele>409.4</ele>
        <time>2023-10-01T07:21:16Z</time>
      </trkpt>
      <trkpt lat="48.15881" lon="6.42052">
        <ele>409.6</ele>
        <time>2023-10-01T07:21:17Z</time>
      </trkpt>
      <trkpt lat="48.15881" lon="6.42052">
        <ele>410</ele>
        <time>2023-10-01T07:21:18Z</time>
      </trkpt>
      <trkpt lat="48.15879" lon="6.42051">
        <ele>410.2</ele>
        <time>2023-10-01T07:21:19Z</time>
      </trkpt>
      <trkpt lat="48.15877" lon="6.4205">
        <ele>410.4</ele>
        <time>2023-10-01T07:21:20Z</time>
      </trkpt>
      <trkpt lat="48.15876" lon="6.42049">
        <ele>410.8</ele>
        <time>2023-10-01T07:21:21Z</time>
      </trkpt>
      <trkpt lat="48.15874" lon="6.42048">
        <ele>410.8</ele>
        <time>2023-10-01T07:21:22Z</time>
      </trkpt>
      <trkpt lat="48.15873" lon="6.42047">
        <ele>411.2</ele>
        <time>2023-10-01T07:21:23Z</time>
      </trkpt>
      <trkpt lat="48.15872" lon="6.42046">
        <ele>411.4</ele>
        <time>2023-10-01T07:21:24Z</time>
      </trkpt>
      <trkpt lat="48.1587" lon="6.42045">
        <ele>411.6</ele>
        <time>2023-10-01T07:21:25Z</time>
      </trkpt>
      <trkpt lat="48.15868" lon="6.42045">
        <ele>411.8</ele>
        <time>2023-10-01T07:21:26Z</time>
      </trkpt>
      <trkpt lat="48.15867" lon="6.42044">
        <ele>412.2</ele>
        <time>2023-10-01T07:21:27Z</time>
      </trkpt>
      <trkpt lat="48.15866" lon="6.42043">
        <ele>412.4</ele>
        <time>2023-10-01T07:21:28Z</time>
      </trkpt>
      <trkpt lat="48.15865" lon="6.42043">
        <ele>412.8</ele>
        <time>2023-10-01T07:21:29Z</time>
      </trkpt>
      <trkpt lat="48.15865" lon="6.42043">
        <ele>413</ele>
        <time>2023-10-01T07:21:30Z</time>
      </trkpt>
      <trkpt lat="48.15864" lon="6.42043">
        <ele>413.4</ele>
        <time>2023-10-01T07:21:31Z</time>
      </trkpt>
      <trkpt lat="48.15862" lon="6.42044">
        <ele>413.4</ele>
        <time>2023-10-01T07:21:32Z</time>
      </trkpt>
      <trkpt lat="48.1586" lon="6.42043">
        <ele>413.6</ele>
        <time>2023-10-01T07:21:33Z</time>
      </trkpt>
      <trkpt lat="48.15858" lon="6.42043">
        <ele>413.8</ele>
        <time>2023-10-01T07:21:34Z</time>
      </trkpt>
      <trkpt lat="48.15856" lon="6.42041">
        <ele>413.8</ele>
        <time>2023-10-01T07:21:35Z</time>
      </trkpt>
      <trkpt lat="48.15853" lon="6.4204">
        <ele>414</ele>
        <time>2023-10-01T07:21:36Z</time>
      </trkpt>
      <trkpt lat="48.1585" lon="6.42038">
        <ele>414.2</ele>
        <time>2023-10-01T07:21:37Z</time>
      </trkpt>
      <trkpt lat="48.15848" lon="6.42039">
        <ele>414.4</ele>
        <time>2023-10-01T07:21:38Z</time>
      </trkpt>
      <trkpt lat="48.15846" lon="6.42039">
        <ele>414.4</ele>
        <time>2023-10-01T07:21:39Z</time>
      </trkpt>
      <trkpt lat="48.15845" lon="6.4204">
        <ele>414.6</ele>
        <time>2023-10-01T07:21:40Z</time>
      </trkpt>
      <trkpt lat="48.15844" lon="6.42039">
        <ele>414.8</ele>
        <time>2023-10-01T07:21:41Z</time>
      </trkpt>
      <trkpt lat="48.15842" lon="6.42039">
        <ele>414.8</ele>
        <time>2023-10-01T07:21:42Z</time>
      </trkpt>
      <trkpt lat="48.1584" lon="6.42039">
        <ele>415</ele>
        <time>2023-10-01T07:21:43Z</time>
      </trkpt>
      <trkpt lat="48.1584" lon="6.42039">
        <ele>415.2</ele>
        <time>2023-10-01T07:21:44Z</time>
      </trkpt>
      <trkpt lat="48.15838" lon="6.42039">
        <ele>415.4</ele>
        <time>2023-10-01T07:21:45Z</time>
      </trkpt>
      <trkpt lat="48.15838" lon="6.42038">
        <ele>415.6</ele>
        <time>2023-10-01T07:21:46Z</time>
      </trkpt>
      <trkpt lat="48.15836" lon="6.42037">
        <ele>415.8</ele>
        <time>2023-10-01T07:21:47Z</time>
      </trkpt>
      <trkpt lat="48.15831" lon="6.42037">
        <ele>416.2</ele>
        <time>2023-10-01T07:21:48Z</time>
      </trkpt>
      <trkpt lat="48.1583" lon="6.42037">
        <ele>416.4</ele>
        <time>2023-10-01T07:21:49Z</time>
      </trkpt>
      <trkpt lat="48.1583" lon="6.42037">
        <ele>416.6</ele>
        <time>2023-10-01T07:21:50Z</time>
      </trkpt>
      <trkpt lat="48.15824" lon="6.42037">
        <ele>416.8</ele>
        <time>2023-10-01T07:21:51Z</time>
      </trkpt>
      <trkpt lat="48.15819" lon="6.42038">
        <ele>417</ele>
        <time>2023-10-01T07:21:52Z</time>
      </trkpt>
      <trkpt lat="48.15817" lon="6.42041">
        <ele>417.2</ele>
        <time>2023-10-01T07:21:53Z</time>
      </trkpt>
      <trkpt lat="48.15815" lon="6.42043">
        <ele>417.4</ele>
        <time>2023-10-01T07:21:54Z</time>
      </trkpt>
      <trkpt lat="48.15814" lon="6.42043">
        <ele>417.6</ele>
        <time>2023-10-01T07:21:55Z</time>
      </trkpt>
      <trkpt lat="48.15813" lon="6.42044">
        <ele>418</ele>
        <time>2023-10-01T07:21:56Z</time>
      </trkpt>
      <trkpt lat="48.15812" lon="6.42043">
        <ele>418.2</ele>
        <time>2023-10-01T07:21:57Z</time>
      </trkpt>
      <trkpt lat="48.15812" lon="6.42041">
        <ele>418.4</ele>
        <time>2023-10-01T07:21:58Z</time>
      </trkpt>
      <trkpt lat="48.15811" lon="6.42041">
        <ele>418.6</ele>
        <time>2023-10-01T07:21:59Z</time>
      </trkpt>
      <trkpt lat="48.1581" lon="6.42042">
        <ele>418.8</ele>
        <time>2023-10-01T07:22:00Z</time>
      </trkpt>
      <trkpt lat="48.15809" lon="6.42041">
        <ele>418.8</ele>
        <time>2023-10-01T07:22:01Z</time>
      </trkpt>
      <trkpt lat="48.15808" lon="6.42042">
        <ele>419</ele>
        <time>2023-10-01T07:22:02Z</time>
      </trkpt>
      <trkpt lat="48.15808" lon="6.42043">
        <ele>419.2</ele>
        <time>2023-10-01T07:22:03Z</time>
      </trkpt>
      <trkpt lat="48.15807" lon="6.42043">
        <ele>419.4</ele>
        <time>2023-10-01T07:22:04Z</time>
      </trkpt>
      <trkpt lat="48.15807" lon="6.42043">
        <ele>419.4</ele>
        <time>2023-10-01T07:22:05Z</time>
      </trkpt>
      <trkpt lat="48.15807" lon="6.42043">
        <ele>419.8</ele>
        <time>2023-10-01T07:22:06Z</time>
      </trkpt>
      <trkpt lat="48.15807" lon="6.42044">
        <ele>419.8</ele>
        <time>2023-10-01T07:22:07Z</time>
      </trkpt>
      <trkpt lat="48.15805" lon="6.42045">
        <ele>420.4</ele>
        <time>2023-10-01T07:22:08Z</time>
      </trkpt>
      <trkpt lat="48.15803" lon="6.42046">
        <ele>420.6</ele>
        <time>2023-10-01T07:22:09Z</time>
      </trkpt>
      <trkpt lat="48.15803" lon="6.42046">
        <ele>420.8</ele>
        <time>2023-10-01T07:22:10Z</time>
      </trkpt>
      <trkpt lat="48.15802" lon="6.42047">
        <ele>421</ele>
        <time>2023-10-01T07:22:11Z</time>
      </trkpt>
      <trkpt lat="48.15802" lon="6.42047">
        <ele>421</ele>
        <time>2023-10-01T07:22:12Z</time>
      </trkpt>
      <trkpt lat="48.15801" lon="6.42048">
        <ele>421.2</ele>
        <time>2023-10-01T07:22:13Z</time>
      </trkpt>
      <trkpt lat="48.15801" lon="6.42049">
        <ele>421.4</ele>
        <time>2023-10-01T07:22:14Z</time>
      </trkpt>
      <trkpt lat="48.15801" lon="6.42049">
        <ele>421.6</ele>
        <time>2023-10-01T07:22:15Z</time>
      </trkpt>
      <trkpt lat="48.15801" lon="6.42049">
        <ele>421.6</ele>
        <time>2023-10-01T07:22:16Z</time>
      </trkpt>
      <trkpt lat="48.15801" lon="6.42049">
        <ele>422</ele>
        <time>2023-10-01T07:22:17Z</time>
      </trkpt>
      <trkpt lat="48.15801" lon="6.42049">
        <ele>422</ele>
        <time>2023-10-01T07:22:18Z</time>
      </trkpt>
      <trkpt lat="48.158" lon="6.42049">
        <ele>422.2</ele>
        <time>2023-10-01T07:22:19Z</time>
      </trkpt>
      <trkpt lat="48.158" lon="6.4205">
        <ele>422.4</ele>
        <time>2023-10-01T07:22:20Z</time>
      </trkpt>
      <trkpt lat="48.158" lon="6.4205">
        <ele>423</ele>
        <time>2023-10-01T07:22:21Z</time>
      </trkpt>
      <trkpt lat="48.15799" lon="6.42051">
        <ele>423.2</ele>
        <time>2023-10-01T07:22:22Z</time>
      </trkpt>
      <trkpt lat="48.15799" lon="6.42051">
        <ele>423.4</ele>
        <time>2023-10-01T07:22:23Z</time>
      </trkpt>
      <trkpt lat="48.15796" lon="6.42052">
        <ele>423.6</ele>
        <time>2023-10-01T07:22:24Z</time>
      </trkpt>
      <trkpt lat="48.15792" lon="6.42055">
        <ele>424</ele>
        <time>2023-10-01T07:22:25Z</time>
      </trkpt>
      <trkpt lat="48.15792" lon="6.42056">
        <ele>424</ele>
        <time>2023-10-01T07:22:26Z</time>
      </trkpt>
      <trkpt lat="48.15792" lon="6.42056">
        <ele>424.4</ele>
        <time>2023-10-01T07:22:27Z</time>
      </trkpt>
      <trkpt lat="48.15792" lon="6.42056">
        <ele>424.4</ele>
        <time>2023-10-01T07:22:28Z</time>
      </trkpt>
      <trkpt lat="48.15792" lon="6.42056">
        <ele>424.8</ele>
        <time>2023-10-01T07:22:29Z</time>
      </trkpt>
      <trkpt lat="48.15792" lon="6.42056">
        <ele>424.8</ele>
        <time>2023-10-01T07:22:30Z</time>
      </trkpt>
      <trkpt lat="48.15792" lon="6.42056">
        <ele>425</ele>
        <time>2023-10-01T07:22:31Z</time>
      </trkpt>
      <trkpt lat="48.15792" lon="6.42056">
        <ele>425.2</ele>
        <time>2023-10-01T07:22:32Z</time>
      </trkpt>
      <trkpt lat="48.15791" lon="6.42056">
        <ele>425.4</ele>
        <time>2023-10-01T07:22:33Z</time>
      </trkpt>
      <trkpt lat="48.15791" lon="6.42057">
        <ele>425.8</ele>
        <time>2023-10-01T07:22:34Z</time>
      </trkpt>
      <trkpt lat="48.15791" lon="6.42057">
        <ele>426.2</ele>
        <time>2023-10-01T07:22:35Z</time>
      </trkpt>
      <trkpt lat="48.15791" lon="6.42057">
        <ele>426.4</ele>
        <time>2023-10-01T07:22:36Z</time>
      </trkpt>
      <trkpt lat="48.15791" lon="6.42057">
        <ele>426.8</ele>
        <time>2023-10-01T07:22:37Z</time>
      </trkpt>
      <trkpt lat="48.15791" lon="6.42057">
        <ele>427</ele>
        <time>2023-10-01T07:22:38Z</time>
      </trkpt>
      <trkpt lat="48.15791" lon="6.42057">
        <ele>427.2</ele>
        <time>2023-10-01T07:22:39Z</time>
      </trkpt>
      <trkpt lat="48.1579" lon="6.42058">
        <ele>427.6</ele>
        <time>2023-10-01T07:22:40Z</time>
      </trkpt>
      <trkpt lat="48.15789" lon="6.42059">
        <ele>427.6</ele>
        <time>2023-10-01T07:22:41Z</time>
      </trkpt>
      <trkpt lat="48.15787" lon="6.42061">
        <ele>428</ele>
        <time>2023-10-01T07:22:42Z</time>
      </trkpt>
      <trkpt lat="48.15786" lon="6.42062">
        <ele>428.2</ele>
        <time>2023-10-01T07:22:43Z</time>
      </trkpt>
      <trkpt lat="48.15784" lon="6.42064">
        <ele>428.4</ele>
        <time>2023-10-01T07:22:44Z</time>
      </trkpt>
      <trkpt lat="48.15777" lon="6.42068">
        <ele>428.6</ele>
        <time>2023-10-01T07:22:45Z</time>
      </trkpt>
      <trkpt lat="48.15775" lon="6.42071">
        <ele>428.8</ele>
        <time>2023-10-01T07:22:46Z</time>
      </trkpt>
      <trkpt lat="48.15774" lon="6.42072">
        <ele>429</ele>
        <time>2023-10-01T07:22:47Z</time>
      </trkpt>
      <trkpt lat="48.15772" lon="6.42074">
        <ele>429.6</ele>
        <time>2023-10-01T07:22:48Z</time>
      </trkpt>
      <trkpt lat="48.1577" lon="6.42077">
        <ele>429.8</ele>
        <time>2023-10-01T07:22:49Z</time>
      </trkpt>
      <trkpt lat="48.15769" lon="6.42078">
        <ele>430</ele>
        <time>2023-10-01T07:22:50Z</time>
      </trkpt>
      <trkpt lat="48.15767" lon="6.42081">
        <ele>430.2</ele>
        <time>2023-10-01T07:22:51Z</time>
      </trkpt>
      <trkpt lat="48.15765" lon="6.42083">
        <ele>430.6</ele>
        <time>2023-10-01T07:22:52Z</time>
      </trkpt>
      <trkpt lat="48.15764" lon="6.42086">
        <ele>430.8</ele>
        <time>2023-10-01T07:22:53Z</time>
      </trkpt>
      <trkpt lat="48.15759" lon="6.42089">
        <ele>431</ele>
        <time>2023-10-01T07:22:54Z</time>
      </trkpt>
      <trkpt lat="48.15757" lon="6.42092">
        <ele>431.4</ele>
        <time>2023-10-01T07:22:55Z</time>
      </trkpt>
      <trkpt lat="48.15753" lon="6.42095">
        <ele>431.8</ele>
        <time>2023-10-01T07:22:56Z</time>
      </trkpt>
      <trkpt lat="48.15753" lon="6.42095">
        <ele>432</ele>
        <time>2023-10-01T07:22:57Z</time>
      </trkpt>
      <trkpt lat="48.15751" lon="6.42097">
        <ele>432.2</ele>
        <time>2023-10-01T07:22:58Z</time>
      </trkpt>
      <trkpt lat="48.15751" lon="6.42098">
        <ele>432.6</ele>
        <time>2023-10-01T07:22:59Z</time>
      </trkpt>
      <trkpt lat="48.15751" lon="6.42098">
        <ele>432.6</ele>
        <time>2023-10-01T07:23:00Z</time>
      </trkpt>
      <trkpt lat="48.15751" lon="6.42098">
        <ele>433</ele>
        <time>2023-10-01T07:23:01Z</time>
      </trkpt>
      <trkpt lat="48.15751" lon="6.42098">
        <ele>433.2</ele>
        <time>2023-10-01T07:23:02Z</time>
      </trkpt>
      <trkpt lat="48.15749" lon="6.42101">
        <ele>433.6</ele>
        <time>2023-10-01T07:23:03Z</time>
      </trkpt>
      <trkpt lat="48.15749" lon="6.42101">
        <ele>433.8</ele>
        <time>2023-10-01T07:23:04Z</time>
      </trkpt>
      <trkpt lat="48.15742" lon="6.42104">
        <ele>434.2</ele>
        <time>2023-10-01T07:23:05Z</time>
      </trkpt>
      <trkpt lat="48.15737" lon="6.42111">
        <ele>434.4</ele>
        <time>2023-10-01T07:23:06Z</time>
      </trkpt>
      <trkpt lat="48.15737" lon="6.42112">
        <ele>434.6</ele>
        <time>2023-10-01T07:23:07Z</time>
      </trkpt>
      <trkpt lat="48.15735" lon="6.42113">
        <ele>434.8</ele>
        <time>2023-10-01T07:23:08Z</time>
      </trkpt>
      <trkpt lat="48.15732" lon="6.42117">
        <ele>435.4</ele>
        <time>2023-10-01T07:23:09Z</time>
      </trkpt>
      <trkpt lat="48.15728" lon="6.42121">
        <ele>435.6</ele>
        <time>2023-10-01T07:23:10Z</time>
      </trkpt>
      <trkpt lat="48.15728" lon="6.42122">
        <ele>436.2</ele>
        <time>2023-10-01T07:23:11Z</time>
      </trkpt>
      <trkpt lat="48.15728" lon="6.42122">
        <ele>436.6</ele>
        <time>2023-10-01T07:23:12Z</time>
      </trkpt>
      <trkpt lat="48.15728" lon="6.42122">
        <ele>437</ele>
        <time>2023-10-01T07:23:13Z</time>
      </trkpt>
      <trkpt lat="48.15727" lon="6.42124">
        <ele>437.2</ele>
        <time>2023-10-01T07:23:14Z</time>
      </trkpt>
      <trkpt lat="48.15726" lon="6.42124">
        <ele>437.4</ele>
        <time>2023-10-01T07:23:15Z</time>
      </trkpt>
      <trkpt lat="48.15726" lon="6.42124">
        <ele>437.6</ele>
        <time>2023-10-01T07:23:16Z</time>
      </trkpt>
      <trkpt lat="48.15723" lon="6.42126">
        <ele>438</ele>
        <time>2023-10-01T07:23:17Z</time>
      </trkpt>
      <trkpt lat="48.1572" lon="6.42129">
        <ele>438.2</ele>
        <time>2023-10-01T07:23:18Z</time>
      </trkpt>
      <trkpt lat="48.15714" lon="6.42133">
        <ele>438.6</ele>
        <time>2023-10-01T07:23:19Z</time>
      </trkpt>
      <trkpt lat="48.15711" lon="6.42135">
        <ele>438.8</ele>
        <time>2023-10-01T07:23:20Z</time>
      </trkpt>
      <trkpt lat="48.1571" lon="6.42135">
        <ele>439.4</ele>
        <time>2023-10-01T07:23:21Z</time>
      </trkpt>
      <trkpt lat="48.15708" lon="6.42138">
        <ele>439.6</ele>
        <time>2023-10-01T07:23:22Z</time>
      </trkpt>
      <trkpt lat="48.15708" lon="6.42138">
        <ele>439.6</ele>
        <time>2023-10-01T07:23:23Z</time>
      </trkpt>
      <trkpt lat="48.15707" lon="6.42141">
        <ele>440</ele>
        <time>2023-10-01T07:23:24Z</time>
      </trkpt>
      <trkpt lat="48.15706" lon="6.42144">
        <ele>440.2</ele>
        <time>2023-10-01T07:23:25Z</time>
      </trkpt>
      <trkpt lat="48.15705" lon="6.42144">
        <ele>440.6</ele>
        <time>2023-10-01T07:23:26Z</time>
      </trkpt>
      <trkpt lat="48.15705" lon="6.42144">
        <ele>440.8</ele>
        <time>2023-10-01T07:23:27Z</time>
      </trkpt>
      <trkpt lat="48.15705" lon="6.42144">
        <ele>441.2</ele>
        <time>2023-10-01T07:23:28Z</time>
      </trkpt>
      <trkpt lat="48.15701" lon="6.42146">
        <ele>441.4</ele>
        <time>2023-10-01T07:23:29Z</time>
      </trkpt>
      <trkpt lat="48.15701" lon="6.42146">
        <ele>442</ele>
        <time>2023-10-01T07:23:30Z</time>
      </trkpt>
      <trkpt lat="48.15698" lon="6.42149">
        <ele>442.4</ele>
        <time>2023-10-01T07:23:31Z</time>
      </trkpt>
      <trkpt lat="48.15696" lon="6.4215">
        <ele>442.8</ele>
        <time>2023-10-01T07:23:32Z</time>
      </trkpt>
      <trkpt lat="48.15695" lon="6.42148">
        <ele>443</ele>
        <time>2023-10-01T07:23:33Z</time>
      </trkpt>
      <trkpt lat="48.15694" lon="6.42148">
        <ele>443.2</ele>
        <time>2023-10-01T07:23:34Z</time>
      </trkpt>
      <trkpt lat="48.15693" lon="6.42149">
        <ele>443.4</ele>
        <time>2023-10-01T07:23:35Z</time>
      </trkpt>
      <trkpt lat="48.15693" lon="6.42149">
        <ele>443.6</ele>
        <time>2023-10-01T07:23:36Z</time>
      </trkpt>
      <trkpt lat="48.15693" lon="6.42149">
        <ele>443.6</ele>
        <time>2023-10-01T07:23:37Z</time>
      </trkpt>
      <trkpt lat="48.15693" lon="6.42149">
        <ele>443.8</ele>
        <time>2023-10-01T07:23:38Z</time>
      </trkpt>
      <trkpt lat="48.15692" lon="6.42148">
        <ele>443.8</ele>
        <time>2023-10-01T07:23:39Z</time>
      </trkpt>
      <trkpt lat="48.15692" lon="6.42149">
        <ele>444</ele>
        <time>2023-10-01T07:23:40Z</time>
      </trkpt>
      <trkpt lat="48.15692" lon="6.42149">
        <ele>444</ele>
        <time>2023-10-01T07:23:41Z</time>
      </trkpt>
      <trkpt lat="48.15692" lon="6.42149">
        <ele>444</ele>
        <time>2023-10-01T07:23:42Z</time>
      </trkpt>
      <trkpt lat="48.15691" lon="6.42149">
        <ele>444</ele>
        <time>2023-10-01T07:23:43Z</time>
      </trkpt>
      <trkpt lat="48.15689" lon="6.42149">
        <ele>444.2</ele>
        <time>2023-10-01T07:23:44Z</time>
      </trkpt>
      <trkpt lat="48.15688" lon="6.42147">
        <ele>444.2</ele>
        <time>2023-10-01T07:23:45Z</time>
      </trkpt>
      <trkpt lat="48.15687" lon="6.42146">
        <ele>444.2</ele>
        <time>2023-10-01T07:23:46Z</time>
      </trkpt>
      <trkpt lat="48.15686" lon="6.42144">
        <ele>444.2</ele>
        <time>2023-10-01T07:23:47Z</time>
      </trkpt>
      <trkpt lat="48.15686" lon="6.42143">
        <ele>444.2</ele>
        <time>2023-10-01T07:23:48Z</time>
      </trkpt>
      <trkpt lat="48.15685" lon="6.42144">
        <ele>444.2</ele>
        <time>2023-10-01T07:23:49Z</time>
      </trkpt>
      <trkpt lat="48.15684" lon="6.42142">
        <ele>444.2</ele>
        <time>2023-10-01T07:23:50Z</time>
      </trkpt>
      <trkpt lat="48.15683" lon="6.4214">
        <ele>444.2</ele>
        <time>2023-10-01T07:23:51Z</time>
      </trkpt>
      <trkpt lat="48.15682" lon="6.42139">
        <ele>444.2</ele>
        <time>2023-10-01T07:23:52Z</time>
      </trkpt>
      <trkpt lat="48.15681" lon="6.42137">
        <ele>444.2</ele>
        <time>2023-10-01T07:23:53Z</time>
      </trkpt>
      <trkpt lat="48.15681" lon="6.42135">
        <ele>444.2</ele>
        <time>2023-10-01T07:23:54Z</time>
      </trkpt>
      <trkpt lat="48.15679" lon="6.42132">
        <ele>444.2</ele>
        <time>2023-10-01T07:23:55Z</time>
      </trkpt>
      <trkpt lat="48.15678" lon="6.42129">
        <ele>444.2</ele>
        <time>2023-10-01T07:23:56Z</time>
      </trkpt>
      <trkpt lat="48.15678" lon="6.42127">
        <ele>444.2</ele>
        <time>2023-10-01T07:23:57Z</time>
      </trkpt>
      <trkpt lat="48.15678" lon="6.42125">
        <ele>444</ele>
        <time>2023-10-01T07:23:58Z</time>
      </trkpt>
      <trkpt lat="48.15678" lon="6.42123">
        <ele>444</ele>
        <time>2023-10-01T07:23:59Z</time>
      </trkpt>
      <trkpt lat="48.15678" lon="6.42121">
        <ele>444</ele>
        <time>2023-10-01T07:24:00Z</time>
      </trkpt>
      <trkpt lat="48.15678" lon="6.42119">
        <ele>444</ele>
        <time>2023-10-01T07:24:01Z</time>
      </trkpt>
      <trkpt lat="48.15678" lon="6.42116">
        <ele>444</ele>
        <time>2023-10-01T07:24:02Z</time>
      </trkpt>
      <trkpt lat="48.15678" lon="6.42114">
        <ele>444</ele>
        <time>2023-10-01T07:24:03Z</time>
      </trkpt>
      <trkpt lat="48.15678" lon="6.42111">
        <ele>444</ele>
        <time>2023-10-01T07:24:04Z</time>
      </trkpt>
      <trkpt lat="48.15678" lon="6.42109">
        <ele>444</ele>
        <time>2023-10-01T07:24:05Z</time>
      </trkpt>
      <trkpt lat="48.15679" lon="6.42107">
        <ele>444</ele>
        <time>2023-10-01T07:24:06Z</time>
      </trkpt>
      <trkpt lat="48.1568" lon="6.42105">
        <ele>444</ele>
        <time>2023-10-01T07:24:07Z</time>
      </trkpt>
      <trkpt lat="48.15681" lon="6.42102">
        <ele>444</ele>
        <time>2023-10-01T07:24:08Z</time>
      </trkpt>
      <trkpt lat="48.15681" lon="6.42099">
        <ele>444</ele>
        <time>2023-10-01T07:24:09Z</time>
      </trkpt>
      <trkpt lat="48.15682" lon="6.42097">
        <ele>444</ele>
        <time>2023-10-01T07:24:10Z</time>
      </trkpt>
      <trkpt lat="48.15682" lon="6.42094">
        <ele>444.2</ele>
        <time>2023-10-01T07:24:11Z</time>
      </trkpt>
      <trkpt lat="48.15683" lon="6.42092">
        <ele>444.2</ele>
        <time>2023-10-01T07:24:12Z</time>
      </trkpt>
      <trkpt lat="48.15684" lon="6.4209">
        <ele>444.2</ele>
        <time>2023-10-01T07:24:13Z</time>
      </trkpt>
      <trkpt lat="48.15685" lon="6.42087">
        <ele>444.4</ele>
        <time>2023-10-01T07:24:14Z</time>
      </trkpt>
      <trkpt lat="48.15685" lon="6.42086">
        <ele>444.4</ele>
        <time>2023-10-01T07:24:15Z</time>
      </trkpt>
      <trkpt lat="48.15686" lon="6.42083">
        <ele>444.4</ele>
        <time>2023-10-01T07:24:16Z</time>
      </trkpt>
      <trkpt lat="48.15688" lon="6.42077">
        <ele>444.4</ele>
        <time>2023-10-01T07:24:17Z</time>
      </trkpt>
      <trkpt lat="48.15688" lon="6.42074">
        <ele>444.4</ele>
        <time>2023-10-01T07:24:18Z</time>
      </trkpt>
      <trkpt lat="48.15688" lon="6.42071">
        <ele>444.4</ele>
        <time>2023-10-01T07:24:19Z</time>
      </trkpt>
      <trkpt lat="48.15689" lon="6.42067">
        <ele>444.4</ele>
        <time>2023-10-01T07:24:20Z</time>
      </trkpt>
      <trkpt lat="48.1569" lon="6.42064">
        <ele>444.2</ele>
        <time>2023-10-01T07:24:21Z</time>
      </trkpt>
      <trkpt lat="48.15691" lon="6.4206">
        <ele>444.2</ele>
        <time>2023-10-01T07:24:22Z</time>
      </trkpt>
      <trkpt lat="48.15692" lon="6.42056">
        <ele>444.2</ele>
        <time>2023-10-01T07:24:23Z</time>
      </trkpt>
      <trkpt lat="48.15692" lon="6.4205">
        <ele>444.2</ele>
        <time>2023-10-01T07:24:24Z</time>
      </trkpt>
      <trkpt lat="48.15692" lon="6.42046">
        <ele>444.2</ele>
        <time>2023-10-01T07:24:25Z</time>
      </trkpt>
      <trkpt lat="48.15692" lon="6.42042">
        <ele>444.4</ele>
        <time>2023-10-01T07:24:26Z</time>
      </trkpt>
      <trkpt lat="48.15691" lon="6.42038">
        <ele>444.4</ele>
        <time>2023-10-01T07:24:27Z</time>
      </trkpt>
      <trkpt lat="48.15691" lon="6.42034">
        <ele>444.6</ele>
        <time>2023-10-01T07:24:28Z</time>
      </trkpt>
      <trkpt lat="48.15692" lon="6.42029">
        <ele>444.6</ele>
        <time>2023-10-01T07:24:29Z</time>
      </trkpt>
      <trkpt lat="48.15693" lon="6.42026">
        <ele>444.8</ele>
        <time>2023-10-01T07:24:30Z</time>
      </trkpt>
      <trkpt lat="48.15695" lon="6.4202">
        <ele>444.8</ele>
        <time>2023-10-01T07:24:31Z</time>
      </trkpt>
      <trkpt lat="48.15693" lon="6.42012">
        <ele>444.8</ele>
        <time>2023-10-01T07:24:32Z</time>
      </trkpt>
      <trkpt lat="48.15692" lon="6.42006">
        <ele>445</ele>
        <time>2023-10-01T07:24:33Z</time>
      </trkpt>
      <trkpt lat="48.15692" lon="6.42001">
        <ele>445</ele>
        <time>2023-10-01T07:24:34Z</time>
      </trkpt>
      <trkpt lat="48.15692" lon="6.41996">
        <ele>445.2</ele>
        <time>2023-10-01T07:24:35Z</time>
      </trkpt>
      <trkpt lat="48.15692" lon="6.41991">
        <ele>445.2</ele>
        <time>2023-10-01T07:24:36Z</time>
      </trkpt>
      <trkpt lat="48.15691" lon="6.41985">
        <ele>445.2</ele>
        <time>2023-10-01T07:24:37Z</time>
      </trkpt>
      <trkpt lat="48.15688" lon="6.4198">
        <ele>445.2</ele>
        <time>2023-10-01T07:24:38Z</time>
      </trkpt>
      <trkpt lat="48.15687" lon="6.41975">
        <ele>445.4</ele>
        <time>2023-10-01T07:24:39Z</time>
      </trkpt>
      <trkpt lat="48.15687" lon="6.4197">
        <ele>445.4</ele>
        <time>2023-10-01T07:24:40Z</time>
      </trkpt>
      <trkpt lat="48.15688" lon="6.41966">
        <ele>445.4</ele>
        <time>2023-10-01T07:24:41Z</time>
      </trkpt>
      <trkpt lat="48.15688" lon="6.41962">
        <ele>445.6</ele>
        <time>2023-10-01T07:24:42Z</time>
      </trkpt>
      <trkpt lat="48.15688" lon="6.41959">
        <ele>445.6</ele>
        <time>2023-10-01T07:24:43Z</time>
      </trkpt>
      <trkpt lat="48.15688" lon="6.41956">
        <ele>445.6</ele>
        <time>2023-10-01T07:24:44Z</time>
      </trkpt>
      <trkpt lat="48.15688" lon="6.41952">
        <ele>445.8</ele>
        <time>2023-10-01T07:24:45Z</time>
      </trkpt>
      <trkpt lat="48.15687" lon="6.41948">
        <ele>445.8</ele>
        <time>2023-10-01T07:24:46Z</time>
      </trkpt>
      <trkpt lat="48.15686" lon="6.41945">
        <ele>445.8</ele>
        <time>2023-10-01T07:24:47Z</time>
      </trkpt>
      <trkpt lat="48.15684" lon="6.41941">
        <ele>445.8</ele>
        <time>2023-10-01T07:24:48Z</time>
      </trkpt>
      <trkpt lat="48.15682" lon="6.41937">
        <ele>446</ele>
        <time>2023-10-01T07:24:49Z</time>
      </trkpt>
      <trkpt lat="48.15679" lon="6.41933">
        <ele>446</ele>
        <time>2023-10-01T07:24:50Z</time>
      </trkpt>
      <trkpt lat="48.15677" lon="6.41929">
        <ele>446.2</ele>
        <time>2023-10-01T07:24:51Z</time>
      </trkpt>
      <trkpt lat="48.15676" lon="6.41925">
        <ele>446.2</ele>
        <time>2023-10-01T07:24:52Z</time>
      </trkpt>
      <trkpt lat="48.15674" lon="6.41923">
        <ele>446.4</ele>
        <time>2023-10-01T07:24:53Z</time>
      </trkpt>
      <trkpt lat="48.15674" lon="6.41922">
        <ele>446.4</ele>
        <time>2023-10-01T07:24:54Z</time>
      </trkpt>
      <trkpt lat="48.15673" lon="6.4192">
        <ele>446.4</ele>
        <time>2023-10-01T07:24:55Z</time>
      </trkpt>
      <trkpt lat="48.15672" lon="6.41918">
        <ele>446.6</ele>
        <time>2023-10-01T07:24:56Z</time>
      </trkpt>
      <trkpt lat="48.1567" lon="6.41915">
        <ele>446.8</ele>
        <time>2023-10-01T07:24:57Z</time>
      </trkpt>
      <trkpt lat="48.15667" lon="6.41912">
        <ele>446.8</ele>
        <time>2023-10-01T07:24:58Z</time>
      </trkpt>
      <trkpt lat="48.15664" lon="6.41909">
        <ele>446.8</ele>
        <time>2023-10-01T07:24:59Z</time>
      </trkpt>
      <trkpt lat="48.15662" lon="6.41906">
        <ele>447</ele>
        <time>2023-10-01T07:25:00Z</time>
      </trkpt>
      <trkpt lat="48.15658" lon="6.41902">
        <ele>447.2</ele>
        <time>2023-10-01T07:25:01Z</time>
      </trkpt>
      <trkpt lat="48.15654" lon="6.419">
        <ele>447.4</ele>
        <time>2023-10-01T07:25:02Z</time>
      </trkpt>
      <trkpt lat="48.1565" lon="6.41899">
        <ele>447.4</ele>
        <time>2023-10-01T07:25:03Z</time>
      </trkpt>
      <trkpt lat="48.15646" lon="6.41899">
        <ele>447.6</ele>
        <time>2023-10-01T07:25:04Z</time>
      </trkpt>
      <trkpt lat="48.15642" lon="6.41898">
        <ele>447.6</ele>
        <time>2023-10-01T07:25:05Z</time>
      </trkpt>
      <trkpt lat="48.15639" lon="6.41898">
        <ele>447.6</ele>
        <time>2023-10-01T07:25:06Z</time>
      </trkpt>
      <trkpt lat="48.15637" lon="6.41898">
        <ele>447.6</ele>
        <time>2023-10-01T07:25:07Z</time>
      </trkpt>
      <trkpt lat="48.15635" lon="6.41897">
        <ele>447.6</ele>
        <time>2023-10-01T07:25:08Z</time>
      </trkpt>
      <trkpt lat="48.15632" lon="6.41895">
        <ele>447.8</ele>
        <time>2023-10-01T07:25:09Z</time>
      </trkpt>
      <trkpt lat="48.15631" lon="6.41893">
        <ele>448.2</ele>
        <time>2023-10-01T07:25:10Z</time>
      </trkpt>
      <trkpt lat="48.1563" lon="6.41892">
        <ele>448.4</ele>
        <time>2023-10-01T07:25:11Z</time>
      </trkpt>
      <trkpt lat="48.15627" lon="6.4189">
        <ele>448.4</ele>
        <time>2023-10-01T07:25:12Z</time>
      </trkpt>
      <trkpt lat="48.15625" lon="6.41888">
        <ele>448.6</ele>
        <time>2023-10-01T07:25:13Z</time>
      </trkpt>
      <trkpt lat="48.15622" lon="6.41885">
        <ele>449</ele>
        <time>2023-10-01T07:25:14Z</time>
      </trkpt>
      <trkpt lat="48.15619" lon="6.41883">
        <ele>449</ele>
        <time>2023-10-01T07:25:15Z</time>
      </trkpt>
      <trkpt lat="48.15616" lon="6.41883">
        <ele>449.2</ele>
        <time>2023-10-01T07:25:16Z</time>
      </trkpt>
      <trkpt lat="48.15612" lon="6.41883">
        <ele>449.2</ele>
        <time>2023-10-01T07:25:17Z</time>
      </trkpt>
      <trkpt lat="48.15612" lon="6.41883">
        <ele>449.4</ele>
        <time>2023-10-01T07:25:18Z</time>
      </trkpt>
      <trkpt lat="48.15611" lon="6.41884">
        <ele>449.6</ele>
        <time>2023-10-01T07:25:19Z</time>
      </trkpt>
      <trkpt lat="48.15609" lon="6.41887">
        <ele>449.8</ele>
        <time>2023-10-01T07:25:20Z</time>
      </trkpt>
      <trkpt lat="48.15606" lon="6.41889">
        <ele>450</ele>
        <time>2023-10-01T07:25:21Z</time>
      </trkpt>
      <trkpt lat="48.15604" lon="6.41891">
        <ele>450.2</ele>
        <time>2023-10-01T07:25:22Z</time>
      </trkpt>
      <trkpt lat="48.15602" lon="6.41892">
        <ele>450.4</ele>
        <time>2023-10-01T07:25:23Z</time>
      </trkpt>
      <trkpt lat="48.15599" lon="6.41893">
        <ele>450.6</ele>
        <time>2023-10-01T07:25:24Z</time>
      </trkpt>
      <trkpt lat="48.15596" lon="6.41894">
        <ele>451</ele>
        <time>2023-10-01T07:25:25Z</time>
      </trkpt>
      <trkpt lat="48.15593" lon="6.41892">
        <ele>451.2</ele>
        <time>2023-10-01T07:25:26Z</time>
      </trkpt>
      <trkpt lat="48.15588" lon="6.41893">
        <ele>451.6</ele>
        <time>2023-10-01T07:25:27Z</time>
      </trkpt>
      <trkpt lat="48.15585" lon="6.41895">
        <ele>451.8</ele>
        <time>2023-10-01T07:25:28Z</time>
      </trkpt>
      <trkpt lat="48.15583" lon="6.41897">
        <ele>452.6</ele>
        <time>2023-10-01T07:25:29Z</time>
      </trkpt>
      <trkpt lat="48.15582" lon="6.41898">
        <ele>452.8</ele>
        <time>2023-10-01T07:25:30Z</time>
      </trkpt>
      <trkpt lat="48.15579" lon="6.41899">
        <ele>453</ele>
        <time>2023-10-01T07:25:31Z</time>
      </trkpt>
      <trkpt lat="48.15577" lon="6.41901">
        <ele>453.2</ele>
        <time>2023-10-01T07:25:32Z</time>
      </trkpt>
      <trkpt lat="48.15576" lon="6.41903">
        <ele>453.8</ele>
        <time>2023-10-01T07:25:33Z</time>
      </trkpt>
      <trkpt lat="48.15575" lon="6.41903">
        <ele>454</ele>
        <time>2023-10-01T07:25:34Z</time>
      </trkpt>
      <trkpt lat="48.15573" lon="6.41905">
        <ele>454.4</ele>
        <time>2023-10-01T07:25:35Z</time>
      </trkpt>
      <trkpt lat="48.15571" lon="6.41907">
        <ele>454.6</ele>
        <time>2023-10-01T07:25:36Z</time>
      </trkpt>
      <trkpt lat="48.1557" lon="6.41907">
        <ele>455</ele>
        <time>2023-10-01T07:25:37Z</time>
      </trkpt>
      <trkpt lat="48.15569" lon="6.41908">
        <ele>455.2</ele>
        <time>2023-10-01T07:25:38Z</time>
      </trkpt>
      <trkpt lat="48.15567" lon="6.41909">
        <ele>455.6</ele>
        <time>2023-10-01T07:25:39Z</time>
      </trkpt>
      <trkpt lat="48.15566" lon="6.41909">
        <ele>456</ele>
        <time>2023-10-01T07:25:40Z</time>
      </trkpt>
      <trkpt lat="48.15566" lon="6.4191">
        <ele>456.4</ele>
        <time>2023-10-01T07:25:41Z</time>
      </trkpt>
      <trkpt lat="48.15565" lon="6.41912">
        <ele>457</ele>
        <time>2023-10-01T07:25:42Z</time>
      </trkpt>
      <trkpt lat="48.15564" lon="6.41914">
        <ele>457.2</ele>
        <time>2023-10-01T07:25:43Z</time>
      </trkpt>
      <trkpt lat="48.15563" lon="6.41916">
        <ele>457.6</ele>
        <time>2023-10-01T07:25:44Z</time>
      </trkpt>
      <trkpt lat="48.15562" lon="6.41918">
        <ele>458</ele>
        <time>2023-10-01T07:25:45Z</time>
      </trkpt>
      <trkpt lat="48.1556" lon="6.4192">
        <ele>458.2</ele>
        <time>2023-10-01T07:25:46Z</time>
      </trkpt>
      <trkpt lat="48.1556" lon="6.41923">
        <ele>458.6</ele>
        <time>2023-10-01T07:25:47Z</time>
      </trkpt>
      <trkpt lat="48.15559" lon="6.41926">
        <ele>458.8</ele>
        <time>2023-10-01T07:25:48Z</time>
      </trkpt>
      <trkpt lat="48.1556" lon="6.41928">
        <ele>459</ele>
        <time>2023-10-01T07:25:49Z</time>
      </trkpt>
      <trkpt lat="48.15561" lon="6.41929">
        <ele>459.4</ele>
        <time>2023-10-01T07:25:50Z</time>
      </trkpt>
      <trkpt lat="48.15562" lon="6.41931">
        <ele>459.4</ele>
        <time>2023-10-01T07:25:51Z</time>
      </trkpt>
      <trkpt lat="48.15564" lon="6.41934">
        <ele>459.8</ele>
        <time>2023-10-01T07:25:52Z</time>
      </trkpt>
      <trkpt lat="48.15565" lon="6.41937">
        <ele>459.8</ele>
        <time>2023-10-01T07:25:53Z</time>
      </trkpt>
      <trkpt lat="48.15566" lon="6.4194">
        <ele>459.8</ele>
        <time>2023-10-01T07:25:54Z</time>
      </trkpt>
      <trkpt lat="48.15566" lon="6.41943">
        <ele>459.8</ele>
        <time>2023-10-01T07:25:55Z</time>
      </trkpt>
      <trkpt lat="48.15567" lon="6.41946">
        <ele>460</ele>
        <time>2023-10-01T07:25:56Z</time>
      </trkpt>
      <trkpt lat="48.15568" lon="6.41949">
        <ele>460</ele>
        <time>2023-10-01T07:25:57Z</time>
      </trkpt>
      <trkpt lat="48.15569" lon="6.41952">
        <ele>460.2</ele>
        <time>2023-10-01T07:25:58Z</time>
      </trkpt>
      <trkpt lat="48.1557" lon="6.41955">
        <ele>460.2</ele>
        <time>2023-10-01T07:25:59Z</time>
      </trkpt>
      <trkpt lat="48.15572" lon="6.41958">
        <ele>460.2</ele>
        <time>2023-10-01T07:26:00Z</time>
      </trkpt>
      <trkpt lat="48.15573" lon="6.41963">
        <ele>460.4</ele>
        <time>2023-10-01T07:26:01Z</time>
      </trkpt>
      <trkpt lat="48.15577" lon="6.41969">
        <ele>460.4</ele>
        <time>2023-10-01T07:26:02Z</time>
      </trkpt>
      <trkpt lat="48.15581" lon="6.41976">
        <ele>460.4</ele>
        <time>2023-10-01T07:26:03Z</time>
      </trkpt>
      <trkpt lat="48.15581" lon="6.4198">
        <ele>460.4</ele>
        <time>2023-10-01T07:26:04Z</time>
      </trkpt>
      <trkpt lat="48.15581" lon="6.41984">
        <ele>460.4</ele>
        <time>2023-10-01T07:26:05Z</time>
      </trkpt>
      <trkpt lat="48.15581" lon="6.41988">
        <ele>460.4</ele>
        <time>2023-10-01T07:26:06Z</time>
      </trkpt>
      <trkpt lat="48.15583" lon="6.41994">
        <ele>460.4</ele>
        <time>2023-10-01T07:26:07Z</time>
      </trkpt>
      <trkpt lat="48.15585" lon="6.42001">
        <ele>460.6</ele>
        <time>2023-10-01T07:26:08Z</time>
      </trkpt>
      <trkpt lat="48.15586" lon="6.42006">
        <ele>460.4</ele>
        <time>2023-10-01T07:26:09Z</time>
      </trkpt>
      <trkpt lat="48.15588" lon="6.42013">
        <ele>460.4</ele>
        <time>2023-10-01T07:26:10Z</time>
      </trkpt>
      <trkpt lat="48.1559" lon="6.42021">
        <ele>460.2</ele>
        <time>2023-10-01T07:26:11Z</time>
      </trkpt>
      <trkpt lat="48.15596" lon="6.42029">
        <ele>460.2</ele>
        <time>2023-10-01T07:26:12Z</time>
      </trkpt>
      <trkpt lat="48.15603" lon="6.42038">
        <ele>460</ele>
        <time>2023-10-01T07:26:13Z</time>
      </trkpt>
      <trkpt lat="48.15609" lon="6.42044">
        <ele>460</ele>
        <time>2023-10-01T07:26:14Z</time>
      </trkpt>
      <trkpt lat="48.15615" lon="6.4205">
        <ele>460</ele>
        <time>2023-10-01T07:26:15Z</time>
      </trkpt>
      <trkpt lat="48.15622" lon="6.42058">
        <ele>460</ele>
        <time>2023-10-01T07:26:16Z</time>
      </trkpt>
      <trkpt lat="48.15625" lon="6.42065">
        <ele>459.6</ele>
        <time>2023-10-01T07:26:17Z</time>
      </trkpt>
      <trkpt lat="48.15627" lon="6.42071">
        <ele>459.2</ele>
        <time>2023-10-01T07:26:18Z</time>
      </trkpt>
      <trkpt lat="48.15626" lon="6.42078">
        <ele>459</ele>
        <time>2023-10-01T07:26:19Z</time>
      </trkpt>
      <trkpt lat="48.15624" lon="6.42084">
        <ele>459</ele>
        <time>2023-10-01T07:26:20Z</time>
      </trkpt>
      <trkpt lat="48.15623" lon="6.4209">
        <ele>458.6</ele>
        <time>2023-10-01T07:26:21Z</time>
      </trkpt>
      <trkpt lat="48.15623" lon="6.42097">
        <ele>458.4</ele>
        <time>2023-10-01T07:26:22Z</time>
      </trkpt>
      <trkpt lat="48.15623" lon="6.42104">
        <ele>458.2</ele>
        <time>2023-10-01T07:26:23Z</time>
      </trkpt>
      <trkpt lat="48.15625" lon="6.42112">
        <ele>458</ele>
        <time>2023-10-01T07:26:24Z</time>
      </trkpt>
      <trkpt lat="48.15624" lon="6.42121">
        <ele>457.8</ele>
        <time>2023-10-01T07:26:25Z</time>
      </trkpt>
      <trkpt lat="48.15624" lon="6.42128">
        <ele>457.8</ele>
        <time>2023-10-01T07:26:26Z</time>
      </trkpt>
      <trkpt lat="48.15626" lon="6.42136">
        <ele>457.8</ele>
        <time>2023-10-01T07:26:27Z</time>
      </trkpt>
      <trkpt lat="48.1563" lon="6.42145">
        <ele>457.6</ele>
        <time>2023-10-01T07:26:28Z</time>
      </trkpt>
      <trkpt lat="48.15635" lon="6.42155">
        <ele>457.6</ele>
        <time>2023-10-01T07:26:29Z</time>
      </trkpt>
      <trkpt lat="48.15639" lon="6.42164">
        <ele>457.4</ele>
        <time>2023-10-01T07:26:30Z</time>
      </trkpt>
      <trkpt lat="48.15645" lon="6.42175">
        <ele>457.4</ele>
        <time>2023-10-01T07:26:31Z</time>
      </trkpt>
      <trkpt lat="48.1565" lon="6.42183">
        <ele>457.2</ele>
        <time>2023-10-01T07:26:32Z</time>
      </trkpt>
      <trkpt lat="48.15656" lon="6.42193">
        <ele>457</ele>
        <time>2023-10-01T07:26:33Z</time>
      </trkpt>
      <trkpt lat="48.15662" lon="6.42204">
        <ele>456.8</ele>
        <time>2023-10-01T07:26:34Z</time>
      </trkpt>
      <trkpt lat="48.15665" lon="6.42212">
        <ele>456.2</ele>
        <time>2023-10-01T07:26:35Z</time>
      </trkpt>
      <trkpt lat="48.15669" lon="6.42222">
        <ele>455.2</ele>
        <time>2023-10-01T07:26:36Z</time>
      </trkpt>
      <trkpt lat="48.15673" lon="6.42229">
        <ele>454.8</ele>
        <time>2023-10-01T07:26:37Z</time>
      </trkpt>
      <trkpt lat="48.15678" lon="6.42236">
        <ele>453.8</ele>
        <time>2023-10-01T07:26:38Z</time>
      </trkpt>
      <trkpt lat="48.15682" lon="6.42243">
        <ele>453.4</ele>
        <time>2023-10-01T07:26:39Z</time>
      </trkpt>
      <trkpt lat="48.15685" lon="6.42248">
        <ele>452.6</ele>
        <time>2023-10-01T07:26:40Z</time>
      </trkpt>
      <trkpt lat="48.15687" lon="6.42253">
        <ele>452.2</ele>
        <time>2023-10-01T07:26:41Z</time>
      </trkpt>
      <trkpt lat="48.15689" lon="6.42258">
        <ele>451.8</ele>
        <time>2023-10-01T07:26:42Z</time>
      </trkpt>
      <trkpt lat="48.15693" lon="6.42265">
        <ele>451.4</ele>
        <time>2023-10-01T07:26:43Z</time>
      </trkpt>
      <trkpt lat="48.15698" lon="6.42273">
        <ele>451.2</ele>
        <time>2023-10-01T07:26:44Z</time>
      </trkpt>
      <trkpt lat="48.15703" lon="6.4228">
        <ele>451</ele>
        <time>2023-10-01T07:26:45Z</time>
      </trkpt>
      <trkpt lat="48.15706" lon="6.42286">
        <ele>451</ele>
        <time>2023-10-01T07:26:46Z</time>
      </trkpt>
      <trkpt lat="48.15709" lon="6.42292">
        <ele>451</ele>
        <time>2023-10-01T07:26:47Z</time>
      </trkpt>
      <trkpt lat="48.15713" lon="6.42298">
        <ele>451</ele>
        <time>2023-10-01T07:26:48Z</time>
      </trkpt>
      <trkpt lat="48.15716" lon="6.42304">
        <ele>451.2</ele>
        <time>2023-10-01T07:26:49Z</time>
      </trkpt>
      <trkpt lat="48.15719" lon="6.4231">
        <ele>451.2</ele>
        <time>2023-10-01T07:26:50Z</time>
      </trkpt>
      <trkpt lat="48.15722" lon="6.42316">
        <ele>451.4</ele>
        <time>2023-10-01T07:26:51Z</time>
      </trkpt>
      <trkpt lat="48.15725" lon="6.42322">
        <ele>451.4</ele>
        <time>2023-10-01T07:26:52Z</time>
      </trkpt>
      <trkpt lat="48.15727" lon="6.42328">
        <ele>451.6</ele>
        <time>2023-10-01T07:26:53Z</time>
      </trkpt>
      <trkpt lat="48.1573" lon="6.42333">
        <ele>451.6</ele>
        <time>2023-10-01T07:26:54Z</time>
      </trkpt>
      <trkpt lat="48.15732" lon="6.42339">
        <ele>452</ele>
        <time>2023-10-01T07:26:55Z</time>
      </trkpt>
      <trkpt lat="48.15733" lon="6.42344">
        <ele>452.2</ele>
        <time>2023-10-01T07:26:56Z</time>
      </trkpt>
      <trkpt lat="48.15736" lon="6.42349">
        <ele>452.4</ele>
        <time>2023-10-01T07:26:57Z</time>
      </trkpt>
      <trkpt lat="48.15738" lon="6.42354">
        <ele>452.4</ele>
        <time>2023-10-01T07:26:58Z</time>
      </trkpt>
      <trkpt lat="48.15743" lon="6.4236">
        <ele>452.4</ele>
        <time>2023-10-01T07:26:59Z</time>
      </trkpt>
      <trkpt lat="48.15746" lon="6.42366">
        <ele>452.4</ele>
        <time>2023-10-01T07:27:00Z</time>
      </trkpt>
      <trkpt lat="48.15748" lon="6.42372">
        <ele>452.6</ele>
        <time>2023-10-01T07:27:01Z</time>
      </trkpt>
      <trkpt lat="48.1575" lon="6.42378">
        <ele>452.8</ele>
        <time>2023-10-01T07:27:02Z</time>
      </trkpt>
      <trkpt lat="48.15753" lon="6.42383">
        <ele>452.8</ele>
        <time>2023-10-01T07:27:03Z</time>
      </trkpt>
      <trkpt lat="48.15755" lon="6.42389">
        <ele>452.8</ele>
        <time>2023-10-01T07:27:04Z</time>
      </trkpt>
      <trkpt lat="48.15758" lon="6.42395">
        <ele>452.8</ele>
        <time>2023-10-01T07:27:05Z</time>
      </trkpt>
      <trkpt lat="48.15763" lon="6.42402">
        <ele>452.8</ele>
        <time>2023-10-01T07:27:06Z</time>
      </trkpt>
      <trkpt lat="48.15768" lon="6.42408">
        <ele>452.8</ele>
        <time>2023-10-01T07:27:07Z</time>
      </trkpt>
      <trkpt lat="48.15773" lon="6.42415">
        <ele>452.8</ele>
        <time>2023-10-01T07:27:08Z</time>
      </trkpt>
      <trkpt lat="48.15777" lon="6.42423">
        <ele>452.8</ele>
        <time>2023-10-01T07:27:09Z</time>
      </trkpt>
      <trkpt lat="48.15782" lon="6.42431">
        <ele>452.8</ele>
        <time>2023-10-01T07:27:10Z</time>
      </trkpt>
      <trkpt lat="48.15786" lon="6.42439">
        <ele>452.8</ele>
        <time>2023-10-01T07:27:11Z</time>
      </trkpt>
      <trkpt lat="48.15792" lon="6.42446">
        <ele>452.6</ele>
        <time>2023-10-01T07:27:12Z</time>
      </trkpt>
      <trkpt lat="48.15797" lon="6.42453">
        <ele>452.4</ele>
        <time>2023-10-01T07:27:13Z</time>
      </trkpt>
      <trkpt lat="48.15804" lon="6.4246">
        <ele>452.2</ele>
        <time>2023-10-01T07:27:14Z</time>
      </trkpt>
      <trkpt lat="48.15812" lon="6.42468">
        <ele>452</ele>
        <time>2023-10-01T07:27:15Z</time>
      </trkpt>
      <trkpt lat="48.1582" lon="6.42476">
        <ele>451.6</ele>
        <time>2023-10-01T07:27:16Z</time>
      </trkpt>
      <trkpt lat="48.15826" lon="6.42486">
        <ele>451.4</ele>
        <time>2023-10-01T07:27:17Z</time>
      </trkpt>
      <trkpt lat="48.15831" lon="6.42495">
        <ele>451</ele>
        <time>2023-10-01T07:27:18Z</time>
      </trkpt>
      <trkpt lat="48.15834" lon="6.42505">
        <ele>450.8</ele>
        <time>2023-10-01T07:27:19Z</time>
      </trkpt>
      <trkpt lat="48.1584" lon="6.42515">
        <ele>450.6</ele>
        <time>2023-10-01T07:27:20Z</time>
      </trkpt>
      <trkpt lat="48.15846" lon="6.42524">
        <ele>449.8</ele>
        <time>2023-10-01T07:27:21Z</time>
      </trkpt>
      <trkpt lat="48.15853" lon="6.42531">
        <ele>448.8</ele>
        <time>2023-10-01T07:27:22Z</time>
      </trkpt>
      <trkpt lat="48.15861" lon="6.42537">
        <ele>448.2</ele>
        <time>2023-10-01T07:27:23Z</time>
      </trkpt>
      <trkpt lat="48.15867" lon="6.42545">
        <ele>447</ele>
        <time>2023-10-01T07:27:24Z</time>
      </trkpt>
      <trkpt lat="48.15873" lon="6.42552">
        <ele>446.6</ele>
        <time>2023-10-01T07:27:25Z</time>
      </trkpt>
      <trkpt lat="48.1588" lon="6.42557">
        <ele>445</ele>
        <time>2023-10-01T07:27:26Z</time>
      </trkpt>
      <trkpt lat="48.15887" lon="6.42561">
        <ele>444.2</ele>
        <time>2023-10-01T07:27:27Z</time>
      </trkpt>
      <trkpt lat="48.15893" lon="6.42566">
        <ele>443.2</ele>
        <time>2023-10-01T07:27:28Z</time>
      </trkpt>
      <trkpt lat="48.15898" lon="6.42571">
        <ele>442.8</ele>
        <time>2023-10-01T07:27:29Z</time>
      </trkpt>
      <trkpt lat="48.15902" lon="6.42577">
        <ele>442</ele>
        <time>2023-10-01T07:27:30Z</time>
      </trkpt>
      <trkpt lat="48.15906" lon="6.42582">
        <ele>441.6</ele>
        <time>2023-10-01T07:27:31Z</time>
      </trkpt>
      <trkpt lat="48.1591" lon="6.42587">
        <ele>441.4</ele>
        <time>2023-10-01T07:27:32Z</time>
      </trkpt>
      <trkpt lat="48.15914" lon="6.42591">
        <ele>441</ele>
        <time>2023-10-01T07:27:33Z</time>
      </trkpt>
      <trkpt lat="48.15917" lon="6.42595">
        <ele>441</ele>
        <time>2023-10-01T07:27:34Z</time>
      </trkpt>
      <trkpt lat="48.15921" lon="6.426">
        <ele>440.8</ele>
        <time>2023-10-01T07:27:35Z</time>
      </trkpt>
      <trkpt lat="48.15924" lon="6.42604">
        <ele>440.6</ele>
        <time>2023-10-01T07:27:36Z</time>
      </trkpt>
      <trkpt lat="48.15928" lon="6.42609">
        <ele>440.6</ele>
        <time>2023-10-01T07:27:37Z</time>
      </trkpt>
      <trkpt lat="48.15931" lon="6.42613">
        <ele>440.4</ele>
        <time>2023-10-01T07:27:38Z</time>
      </trkpt>
      <trkpt lat="48.15934" lon="6.42617">
        <ele>440.4</ele>
        <time>2023-10-01T07:27:39Z</time>
      </trkpt>
      <trkpt lat="48.15938" lon="6.42621">
        <ele>440.4</ele>
        <time>2023-10-01T07:27:40Z</time>
      </trkpt>
      <trkpt lat="48.15941" lon="6.42624">
        <ele>440.4</ele>
        <time>2023-10-01T07:27:41Z</time>
      </trkpt>
      <trkpt lat="48.15945" lon="6.42626">
        <ele>440.4</ele>
        <time>2023-10-01T07:27:42Z</time>
      </trkpt>
      <trkpt lat="48.15949" lon="6.42628">
        <ele>440.4</ele>
        <time>2023-10-01T07:27:43Z</time>
      </trkpt>
      <trkpt lat="48.15953" lon="6.42631">
        <ele>440.4</ele>
        <time>2023-10-01T07:27:44Z</time>
      </trkpt>
      <trkpt lat="48.15956" lon="6.42633">
        <ele>440.4</ele>
        <time>2023-10-01T07:27:45Z</time>
      </trkpt>
      <trkpt lat="48.15959" lon="6.42636">
        <ele>440.4</ele>
        <time>2023-10-01T07:27:46Z</time>
      </trkpt>
      <trkpt lat="48.15962" lon="6.4264">
        <ele>440.4</ele>
        <time>2023-10-01T07:27:47Z</time>
      </trkpt>
      <trkpt lat="48.15965" lon="6.42646">
        <ele>440.4</ele>
        <time>2023-10-01T07:27:48Z</time>
      </trkpt>
      <trkpt lat="48.15969" lon="6.4265">
        <ele>440.2</ele>
        <time>2023-10-01T07:27:49Z</time>
      </trkpt>
      <trkpt lat="48.15973" lon="6.42655">
        <ele>440</ele>
        <time>2023-10-01T07:27:50Z</time>
      </trkpt>
      <trkpt lat="48.15976" lon="6.42661">
        <ele>440.2</ele>
        <time>2023-10-01T07:27:51Z</time>
      </trkpt>
      <trkpt lat="48.15978" lon="6.42667">
        <ele>440</ele>
        <time>2023-10-01T07:27:52Z</time>
      </trkpt>
      <trkpt lat="48.15981" lon="6.42673">
        <ele>439.8</ele>
        <time>2023-10-01T07:27:53Z</time>
      </trkpt>
      <trkpt lat="48.15984" lon="6.42681">
        <ele>439.6</ele>
        <time>2023-10-01T07:27:54Z</time>
      </trkpt>
      <trkpt lat="48.15986" lon="6.42687">
        <ele>439.6</ele>
        <time>2023-10-01T07:27:55Z</time>
      </trkpt>
      <trkpt lat="48.15989" lon="6.42694">
        <ele>439.6</ele>
        <time>2023-10-01T07:27:56Z</time>
      </trkpt>
      <trkpt lat="48.15991" lon="6.42701">
        <ele>439.6</ele>
        <time>2023-10-01T07:27:57Z</time>
      </trkpt>
      <trkpt lat="48.15993" lon="6.42709">
        <ele>439.6</ele>
        <time>2023-10-01T07:27:58Z</time>
      </trkpt>
      <trkpt lat="48.15993" lon="6.42715">
        <ele>439.6</ele>
        <time>2023-10-01T07:27:59Z</time>
      </trkpt>
      <trkpt lat="48.15993" lon="6.42722">
        <ele>439.8</ele>
        <time>2023-10-01T07:28:00Z</time>
      </trkpt>
      <trkpt lat="48.15991" lon="6.42729">
        <ele>439.8</ele>
        <time>2023-10-01T07:28:01Z</time>
      </trkpt>
      <trkpt lat="48.1599" lon="6.42734">
        <ele>440</ele>
        <time>2023-10-01T07:28:02Z</time>
      </trkpt>
      <trkpt lat="48.15988" lon="6.42738">
        <ele>440</ele>
        <time>2023-10-01T07:28:03Z</time>
      </trkpt>
      <trkpt lat="48.15985" lon="6.42742">
        <ele>440</ele>
        <time>2023-10-01T07:28:04Z</time>
      </trkpt>
      <trkpt lat="48.15981" lon="6.42746">
        <ele>440.2</ele>
        <time>2023-10-01T07:28:05Z</time>
      </trkpt>
      <trkpt lat="48.15979" lon="6.42751">
        <ele>440.2</ele>
        <time>2023-10-01T07:28:06Z</time>
      </trkpt>
      <trkpt lat="48.15977" lon="6.42756">
        <ele>440.4</ele>
        <time>2023-10-01T07:28:07Z</time>
      </trkpt>
      <trkpt lat="48.15974" lon="6.42761">
        <ele>440.8</ele>
        <time>2023-10-01T07:28:08Z</time>
      </trkpt>
      <trkpt lat="48.15971" lon="6.42765">
        <ele>440.8</ele>
        <time>2023-10-01T07:28:09Z</time>
      </trkpt>
      <trkpt lat="48.15968" lon="6.4277">
        <ele>441.2</ele>
        <time>2023-10-01T07:28:10Z</time>
      </trkpt>
      <trkpt lat="48.15965" lon="6.42773">
        <ele>441.4</ele>
        <time>2023-10-01T07:28:11Z</time>
      </trkpt>
      <trkpt lat="48.15961" lon="6.42777">
        <ele>441.8</ele>
        <time>2023-10-01T07:28:12Z</time>
      </trkpt>
      <trkpt lat="48.15958" lon="6.42781">
        <ele>442</ele>
        <time>2023-10-01T07:28:13Z</time>
      </trkpt>
      <trkpt lat="48.15957" lon="6.42786">
        <ele>442.2</ele>
        <time>2023-10-01T07:28:14Z</time>
      </trkpt>
      <trkpt lat="48.15955" lon="6.4279">
        <ele>442.6</ele>
        <time>2023-10-01T07:28:15Z</time>
      </trkpt>
      <trkpt lat="48.15953" lon="6.42794">
        <ele>442.8</ele>
        <time>2023-10-01T07:28:16Z</time>
      </trkpt>
      <trkpt lat="48.15951" lon="6.42796">
        <ele>443</ele>
        <time>2023-10-01T07:28:17Z</time>
      </trkpt>
      <trkpt lat="48.15948" lon="6.42799">
        <ele>443.2</ele>
        <time>2023-10-01T07:28:18Z</time>
      </trkpt>
      <trkpt lat="48.15944" lon="6.42801">
        <ele>443.4</ele>
        <time>2023-10-01T07:28:19Z</time>
      </trkpt>
      <trkpt lat="48.15942" lon="6.42804">
        <ele>443.6</ele>
        <time>2023-10-01T07:28:20Z</time>
      </trkpt>
      <trkpt lat="48.15939" lon="6.42806">
        <ele>444</ele>
        <time>2023-10-01T07:28:21Z</time>
      </trkpt>
      <trkpt lat="48.15938" lon="6.42807">
        <ele>444</ele>
        <time>2023-10-01T07:28:22Z</time>
      </trkpt>
      <trkpt lat="48.15936" lon="6.42809">
        <ele>444.6</ele>
        <time>2023-10-01T07:28:23Z</time>
      </trkpt>
      <trkpt lat="48.15936" lon="6.42811">
        <ele>444.6</ele>
        <time>2023-10-01T07:28:24Z</time>
      </trkpt>
      <trkpt lat="48.15934" lon="6.42813">
        <ele>444.8</ele>
        <time>2023-10-01T07:28:25Z</time>
      </trkpt>
      <trkpt lat="48.15933" lon="6.42816">
        <ele>445</ele>
        <time>2023-10-01T07:28:26Z</time>
      </trkpt>
      <trkpt lat="48.15931" lon="6.42819">
        <ele>445</ele>
        <time>2023-10-01T07:28:27Z</time>
      </trkpt>
      <trkpt lat="48.15928" lon="6.42822">
        <ele>445.2</ele>
        <time>2023-10-01T07:28:28Z</time>
      </trkpt>
      <trkpt lat="48.15925" lon="6.42825">
        <ele>445.2</ele>
        <time>2023-10-01T07:28:29Z</time>
      </trkpt>
      <trkpt lat="48.15922" lon="6.42829">
        <ele>445.2</ele>
        <time>2023-10-01T07:28:30Z</time>
      </trkpt>
      <trkpt lat="48.15919" lon="6.42832">
        <ele>445.4</ele>
        <time>2023-10-01T07:28:31Z</time>
      </trkpt>
      <trkpt lat="48.15915" lon="6.42836">
        <ele>445.4</ele>
        <time>2023-10-01T07:28:32Z</time>
      </trkpt>
      <trkpt lat="48.15911" lon="6.4284">
        <ele>445.4</ele>
        <time>2023-10-01T07:28:33Z</time>
      </trkpt>
      <trkpt lat="48.15908" lon="6.42843">
        <ele>445.4</ele>
        <time>2023-10-01T07:28:34Z</time>
      </trkpt>
      <trkpt lat="48.15904" lon="6.42847">
        <ele>445.4</ele>
        <time>2023-10-01T07:28:35Z</time>
      </trkpt>
      <trkpt lat="48.159" lon="6.4285">
        <ele>445.4</ele>
        <time>2023-10-01T07:28:36Z</time>
      </trkpt>
      <trkpt lat="48.15896" lon="6.42854">
        <ele>445.4</ele>
        <time>2023-10-01T07:28:37Z</time>
      </trkpt>
      <trkpt lat="48.15893" lon="6.42858">
        <ele>445.2</ele>
        <time>2023-10-01T07:28:38Z</time>
      </trkpt>
      <trkpt lat="48.15889" lon="6.42862">
        <ele>445.2</ele>
        <time>2023-10-01T07:28:39Z</time>
      </trkpt>
      <trkpt lat="48.15885" lon="6.42867">
        <ele>445</ele>
        <time>2023-10-01T07:28:40Z</time>
      </trkpt>
      <trkpt lat="48.15881" lon="6.42871">
        <ele>445</ele>
        <time>2023-10-01T07:28:41Z</time>
      </trkpt>
      <trkpt lat="48.15878" lon="6.42876">
        <ele>445</ele>
        <time>2023-10-01T07:28:42Z</time>
      </trkpt>
      <trkpt lat="48.15874" lon="6.42881">
        <ele>445</ele>
        <time>2023-10-01T07:28:43Z</time>
      </trkpt>
      <trkpt lat="48.1587" lon="6.42886">
        <ele>444.8</ele>
        <time>2023-10-01T07:28:44Z</time>
      </trkpt>
      <trkpt lat="48.15867" lon="6.4289">
        <ele>444.6</ele>
        <time>2023-10-01T07:28:45Z</time>
      </trkpt>
      <trkpt lat="48.15863" lon="6.42893">
        <ele>444.6</ele>
        <time>2023-10-01T07:28:46Z</time>
      </trkpt>
      <trkpt lat="48.15859" lon="6.42895">
        <ele>444.6</ele>
        <time>2023-10-01T07:28:47Z</time>
      </trkpt>
      <trkpt lat="48.15854" lon="6.42895">
        <ele>444.6</ele>
        <time>2023-10-01T07:28:48Z</time>
      </trkpt>
      <trkpt lat="48.1585" lon="6.42893">
        <ele>444.4</ele>
        <time>2023-10-01T07:28:49Z</time>
      </trkpt>
      <trkpt lat="48.15847" lon="6.42888">
        <ele>444.4</ele>
        <time>2023-10-01T07:28:50Z</time>
      </trkpt>
      <trkpt lat="48.15844" lon="6.42881">
        <ele>444.4</ele>
        <time>2023-10-01T07:28:51Z</time>
      </trkpt>
      <trkpt lat="48.15841" lon="6.42872">
        <ele>444.4</ele>
        <time>2023-10-01T07:28:52Z</time>
      </trkpt>
      <trkpt lat="48.1584" lon="6.42863">
        <ele>444</ele>
        <time>2023-10-01T07:28:53Z</time>
      </trkpt>
      <trkpt lat="48.15838" lon="6.42852">
        <ele>443.6</ele>
        <time>2023-10-01T07:28:54Z</time>
      </trkpt>
      <trkpt lat="48.15836" lon="6.42843">
        <ele>442.8</ele>
        <time>2023-10-01T07:28:55Z</time>
      </trkpt>
      <trkpt lat="48.15832" lon="6.42833">
        <ele>442.8</ele>
        <time>2023-10-01T07:28:56Z</time>
      </trkpt>
      <trkpt lat="48.15828" lon="6.42824">
        <ele>442.4</ele>
        <time>2023-10-01T07:28:57Z</time>
      </trkpt>
      <trkpt lat="48.15821" lon="6.42816">
        <ele>442.2</ele>
        <time>2023-10-01T07:28:58Z</time>
      </trkpt>
      <trkpt lat="48.15814" lon="6.42809">
        <ele>441.6</ele>
        <time>2023-10-01T07:28:59Z</time>
      </trkpt>
      <trkpt lat="48.15807" lon="6.42804">
        <ele>441</ele>
        <time>2023-10-01T07:29:00Z</time>
      </trkpt>
      <trkpt lat="48.15801" lon="6.42797">
        <ele>440.4</ele>
        <time>2023-10-01T07:29:01Z</time>
      </trkpt>
      <trkpt lat="48.15796" lon="6.42789">
        <ele>440</ele>
        <time>2023-10-01T07:29:02Z</time>
      </trkpt>
      <trkpt lat="48.15788" lon="6.42779">
        <ele>439.6</ele>
        <time>2023-10-01T07:29:03Z</time>
      </trkpt>
      <trkpt lat="48.15782" lon="6.42769">
        <ele>439.6</ele>
        <time>2023-10-01T07:29:04Z</time>
      </trkpt>
      <trkpt lat="48.15775" lon="6.42759">
        <ele>439</ele>
        <time>2023-10-01T07:29:05Z</time>
      </trkpt>
      <trkpt lat="48.15769" lon="6.4275">
        <ele>438.8</ele>
        <time>2023-10-01T07:29:06Z</time>
      </trkpt>
      <trkpt lat="48.15767" lon="6.4274">
        <ele>438.2</ele>
        <time>2023-10-01T07:29:07Z</time>
      </trkpt>
      <trkpt lat="48.15763" lon="6.42732">
        <ele>437.8</ele>
        <time>2023-10-01T07:29:08Z</time>
      </trkpt>
      <trkpt lat="48.15761" lon="6.42724">
        <ele>436.4</ele>
        <time>2023-10-01T07:29:09Z</time>
      </trkpt>
      <trkpt lat="48.15758" lon="6.42718">
        <ele>436</ele>
        <time>2023-10-01T07:29:10Z</time>
      </trkpt>
      <trkpt lat="48.15755" lon="6.42712">
        <ele>435.4</ele>
        <time>2023-10-01T07:29:11Z</time>
      </trkpt>
      <trkpt lat="48.15752" lon="6.42708">
        <ele>435.4</ele>
        <time>2023-10-01T07:29:12Z</time>
      </trkpt>
      <trkpt lat="48.15751" lon="6.42706">
        <ele>435.2</ele>
        <time>2023-10-01T07:29:13Z</time>
      </trkpt>
      <trkpt lat="48.15749" lon="6.42702">
        <ele>435</ele>
        <time>2023-10-01T07:29:14Z</time>
      </trkpt>
      <trkpt lat="48.15746" lon="6.42699">
        <ele>435</ele>
        <time>2023-10-01T07:29:15Z</time>
      </trkpt>
      <trkpt lat="48.15744" lon="6.42698">
        <ele>435</ele>
        <time>2023-10-01T07:29:16Z</time>
      </trkpt>
      <trkpt lat="48.15742" lon="6.42698">
        <ele>435.2</ele>
        <time>2023-10-01T07:29:17Z</time>
      </trkpt>
      <trkpt lat="48.1574" lon="6.42697">
        <ele>435.8</ele>
        <time>2023-10-01T07:29:18Z</time>
      </trkpt>
      <trkpt lat="48.15737" lon="6.42697">
        <ele>436.2</ele>
        <time>2023-10-01T07:29:19Z</time>
      </trkpt>
      <trkpt lat="48.15735" lon="6.42699">
        <ele>437</ele>
        <time>2023-10-01T07:29:20Z</time>
      </trkpt>
      <trkpt lat="48.15734" lon="6.42701">
        <ele>437.2</ele>
        <time>2023-10-01T07:29:21Z</time>
      </trkpt>
      <trkpt lat="48.15733" lon="6.42704">
        <ele>437.8</ele>
        <time>2023-10-01T07:29:22Z</time>
      </trkpt>
      <trkpt lat="48.15731" lon="6.42707">
        <ele>437.8</ele>
        <time>2023-10-01T07:29:23Z</time>
      </trkpt>
      <trkpt lat="48.15729" lon="6.42711">
        <ele>438.2</ele>
        <time>2023-10-01T07:29:24Z</time>
      </trkpt>
      <trkpt lat="48.15726" lon="6.42714">
        <ele>438.2</ele>
        <time>2023-10-01T07:29:25Z</time>
      </trkpt>
      <trkpt lat="48.15724" lon="6.42717">
        <ele>438.6</ele>
        <time>2023-10-01T07:29:26Z</time>
      </trkpt>
      <trkpt lat="48.15721" lon="6.42719">
        <ele>438.6</ele>
        <time>2023-10-01T07:29:27Z</time>
      </trkpt>
      <trkpt lat="48.15719" lon="6.42723">
        <ele>438.6</ele>
        <time>2023-10-01T07:29:28Z</time>
      </trkpt>
      <trkpt lat="48.15716" lon="6.42727">
        <ele>438.8</ele>
        <time>2023-10-01T07:29:29Z</time>
      </trkpt>
      <trkpt lat="48.15714" lon="6.4273">
        <ele>438.8</ele>
        <time>2023-10-01T07:29:30Z</time>
      </trkpt>
      <trkpt lat="48.15711" lon="6.42733">
        <ele>438.8</ele>
        <time>2023-10-01T07:29:31Z</time>
      </trkpt>
      <trkpt lat="48.15707" lon="6.42735">
        <ele>438.8</ele>
        <time>2023-10-01T07:29:32Z</time>
      </trkpt>
      <trkpt lat="48.15704" lon="6.42735">
        <ele>438.8</ele>
        <time>2023-10-01T07:29:33Z</time>
      </trkpt>
      <trkpt lat="48.15702" lon="6.42734">
        <ele>438.8</ele>
        <time>2023-10-01T07:29:34Z</time>
      </trkpt>
      <trkpt lat="48.15699" lon="6.42734">
        <ele>439</ele>
        <time>2023-10-01T07:29:35Z</time>
      </trkpt>
      <trkpt lat="48.15695" lon="6.42733">
        <ele>439.2</ele>
        <time>2023-10-01T07:29:36Z</time>
      </trkpt>
      <trkpt lat="48.15692" lon="6.42732">
        <ele>439.4</ele>
        <time>2023-10-01T07:29:37Z</time>
      </trkpt>
      <trkpt lat="48.15689" lon="6.42731">
        <ele>439.4</ele>
        <time>2023-10-01T07:29:38Z</time>
      </trkpt>
      <trkpt lat="48.15685" lon="6.4273">
        <ele>439.4</ele>
        <time>2023-10-01T07:29:39Z</time>
      </trkpt>
      <trkpt lat="48.15682" lon="6.42729">
        <ele>439.4</ele>
        <time>2023-10-01T07:29:40Z</time>
      </trkpt>
      <trkpt lat="48.1568" lon="6.42726">
        <ele>439.6</ele>
        <time>2023-10-01T07:29:41Z</time>
      </trkpt>
      <trkpt lat="48.15676" lon="6.42723">
        <ele>439.6</ele>
        <time>2023-10-01T07:29:42Z</time>
      </trkpt>
      <trkpt lat="48.15673" lon="6.4272">
        <ele>439.6</ele>
        <time>2023-10-01T07:29:43Z</time>
      </trkpt>
      <trkpt lat="48.15668" lon="6.42716">
        <ele>439.6</ele>
        <time>2023-10-01T07:29:44Z</time>
      </trkpt>
      <trkpt lat="48.15665" lon="6.42713">
        <ele>439.6</ele>
        <time>2023-10-01T07:29:45Z</time>
      </trkpt>
      <trkpt lat="48.15665" lon="6.42713">
        <ele>439.6</ele>
        <time>2023-10-01T07:29:46Z</time>
      </trkpt>
      <trkpt lat="48.15658" lon="6.42709">
        <ele>439.6</ele>
        <time>2023-10-01T07:29:47Z</time>
      </trkpt>
      <trkpt lat="48.15654" lon="6.42708">
        <ele>439.6</ele>
        <time>2023-10-01T07:29:48Z</time>
      </trkpt>
      <trkpt lat="48.15646" lon="6.427">
        <ele>439.6</ele>
        <time>2023-10-01T07:29:49Z</time>
      </trkpt>
      <trkpt lat="48.15641" lon="6.42695">
        <ele>439.6</ele>
        <time>2023-10-01T07:29:50Z</time>
      </trkpt>
      <trkpt lat="48.15638" lon="6.42691">
        <ele>439.6</ele>
        <time>2023-10-01T07:29:51Z</time>
      </trkpt>
      <trkpt lat="48.15634" lon="6.42687">
        <ele>439.6</ele>
        <time>2023-10-01T07:29:52Z</time>
      </trkpt>
      <trkpt lat="48.1563" lon="6.42684">
        <ele>439.6</ele>
        <time>2023-10-01T07:29:53Z</time>
      </trkpt>
      <trkpt lat="48.15626" lon="6.42681">
        <ele>439.6</ele>
        <time>2023-10-01T07:29:54Z</time>
      </trkpt>
      <trkpt lat="48.15623" lon="6.42678">
        <ele>439.6</ele>
        <time>2023-10-01T07:29:55Z</time>
      </trkpt>
      <trkpt lat="48.1562" lon="6.42676">
        <ele>439.6</ele>
        <time>2023-10-01T07:29:56Z</time>
      </trkpt>
      <trkpt lat="48.15618" lon="6.42675">
        <ele>439.6</ele>
        <time>2023-10-01T07:29:57Z</time>
      </trkpt>
      <trkpt lat="48.15615" lon="6.42672">
        <ele>439.6</ele>
        <time>2023-10-01T07:29:58Z</time>
      </trkpt>
      <trkpt lat="48.15611" lon="6.4267">
        <ele>439.6</ele>
        <time>2023-10-01T07:29:59Z</time>
      </trkpt>
      <trkpt lat="48.15607" lon="6.42669">
        <ele>439.6</ele>
        <time>2023-10-01T07:30:00Z</time>
      </trkpt>
      <trkpt lat="48.15602" lon="6.42666">
        <ele>439.6</ele>
        <time>2023-10-01T07:30:01Z</time>
      </trkpt>
      <trkpt lat="48.156" lon="6.42662">
        <ele>439.8</ele>
        <time>2023-10-01T07:30:02Z</time>
      </trkpt>
      <trkpt lat="48.15599" lon="6.42658">
        <ele>440</ele>
        <time>2023-10-01T07:30:03Z</time>
      </trkpt>
      <trkpt lat="48.15599" lon="6.42655">
        <ele>440.4</ele>
        <time>2023-10-01T07:30:04Z</time>
      </trkpt>
      <trkpt lat="48.15598" lon="6.42652">
        <ele>440.6</ele>
        <time>2023-10-01T07:30:05Z</time>
      </trkpt>
      <trkpt lat="48.15596" lon="6.4265">
        <ele>440.8</ele>
        <time>2023-10-01T07:30:06Z</time>
      </trkpt>
      <trkpt lat="48.15595" lon="6.42648">
        <ele>441</ele>
        <time>2023-10-01T07:30:07Z</time>
      </trkpt>
      <trkpt lat="48.15594" lon="6.42647">
        <ele>441.6</ele>
        <time>2023-10-01T07:30:08Z</time>
      </trkpt>
      <trkpt lat="48.15592" lon="6.42644">
        <ele>441.8</ele>
        <time>2023-10-01T07:30:09Z</time>
      </trkpt>
      <trkpt lat="48.15588" lon="6.42641">
        <ele>442.4</ele>
        <time>2023-10-01T07:30:10Z</time>
      </trkpt>
      <trkpt lat="48.15585" lon="6.4264">
        <ele>442.6</ele>
        <time>2023-10-01T07:30:11Z</time>
      </trkpt>
      <trkpt lat="48.15584" lon="6.42642">
        <ele>442.8</ele>
        <time>2023-10-01T07:30:12Z</time>
      </trkpt>
      <trkpt lat="48.15581" lon="6.42645">
        <ele>443.2</ele>
        <time>2023-10-01T07:30:13Z</time>
      </trkpt>
      <trkpt lat="48.15578" lon="6.42648">
        <ele>443.4</ele>
        <time>2023-10-01T07:30:14Z</time>
      </trkpt>
      <trkpt lat="48.15575" lon="6.42651">
        <ele>443.6</ele>
        <time>2023-10-01T07:30:15Z</time>
      </trkpt>
      <trkpt lat="48.15573" lon="6.42654">
        <ele>443.6</ele>
        <time>2023-10-01T07:30:16Z</time>
      </trkpt>
      <trkpt lat="48.1557" lon="6.42657">
        <ele>443.8</ele>
        <time>2023-10-01T07:30:17Z</time>
      </trkpt>
      <trkpt lat="48.15567" lon="6.42659">
        <ele>443.8</ele>
        <time>2023-10-01T07:30:18Z</time>
      </trkpt>
      <trkpt lat="48.15564" lon="6.42662">
        <ele>444</ele>
        <time>2023-10-01T07:30:19Z</time>
      </trkpt>
      <trkpt lat="48.15562" lon="6.42663">
        <ele>444</ele>
        <time>2023-10-01T07:30:20Z</time>
      </trkpt>
      <trkpt lat="48.1556" lon="6.42666">
        <ele>444.2</ele>
        <time>2023-10-01T07:30:21Z</time>
      </trkpt>
      <trkpt lat="48.15557" lon="6.4267">
        <ele>444.2</ele>
        <time>2023-10-01T07:30:22Z</time>
      </trkpt>
      <trkpt lat="48.15554" lon="6.42673">
        <ele>444.2</ele>
        <time>2023-10-01T07:30:23Z</time>
      </trkpt>
      <trkpt lat="48.15552" lon="6.42677">
        <ele>444.2</ele>
        <time>2023-10-01T07:30:24Z</time>
      </trkpt>
      <trkpt lat="48.15548" lon="6.42681">
        <ele>444</ele>
        <time>2023-10-01T07:30:25Z</time>
      </trkpt>
      <trkpt lat="48.15544" lon="6.42685">
        <ele>444</ele>
        <time>2023-10-01T07:30:26Z</time>
      </trkpt>
      <trkpt lat="48.15541" lon="6.42689">
        <ele>444</ele>
        <time>2023-10-01T07:30:27Z</time>
      </trkpt>
      <trkpt lat="48.15538" lon="6.42693">
        <ele>444</ele>
        <time>2023-10-01T07:30:28Z</time>
      </trkpt>
      <trkpt lat="48.15534" lon="6.42697">
        <ele>444</ele>
        <time>2023-10-01T07:30:29Z</time>
      </trkpt>
      <trkpt lat="48.1553" lon="6.42702">
        <ele>444</ele>
        <time>2023-10-01T07:30:30Z</time>
      </trkpt>
      <trkpt lat="48.15527" lon="6.42706">
        <ele>444</ele>
        <time>2023-10-01T07:30:31Z</time>
      </trkpt>
      <trkpt lat="48.15524" lon="6.4271">
        <ele>443.8</ele>
        <time>2023-10-01T07:30:32Z</time>
      </trkpt>
      <trkpt lat="48.1552" lon="6.42714">
        <ele>443.8</ele>
        <time>2023-10-01T07:30:33Z</time>
      </trkpt>
      <trkpt lat="48.15517" lon="6.42719">
        <ele>444</ele>
        <time>2023-10-01T07:30:34Z</time>
      </trkpt>
      <trkpt lat="48.15514" lon="6.42723">
        <ele>444</ele>
        <time>2023-10-01T07:30:35Z</time>
      </trkpt>
      <trkpt lat="48.15512" lon="6.42727">
        <ele>444</ele>
        <time>2023-10-01T07:30:36Z</time>
      </trkpt>
      <trkpt lat="48.15512" lon="6.42728">
        <ele>444.2</ele>
        <time>2023-10-01T07:30:37Z</time>
      </trkpt>
      <trkpt lat="48.15512" lon="6.42728">
        <ele>444.2</ele>
        <time>2023-10-01T07:30:38Z</time>
      </trkpt>
      <trkpt lat="48.1551" lon="6.42731">
        <ele>444.2</ele>
        <time>2023-10-01T07:30:39Z</time>
      </trkpt>
      <trkpt lat="48.15507" lon="6.42734">
        <ele>444</ele>
        <time>2023-10-01T07:30:40Z</time>
      </trkpt>
      <trkpt lat="48.15504" lon="6.42738">
        <ele>444</ele>
        <time>2023-10-01T07:30:41Z</time>
      </trkpt>
      <trkpt lat="48.15501" lon="6.42743">
        <ele>443.8</ele>
        <time>2023-10-01T07:30:42Z</time>
      </trkpt>
      <trkpt lat="48.15498" lon="6.42748">
        <ele>443.8</ele>
        <time>2023-10-01T07:30:43Z</time>
      </trkpt>
      <trkpt lat="48.15495" lon="6.42756">
        <ele>443.6</ele>
        <time>2023-10-01T07:30:44Z</time>
      </trkpt>
      <trkpt lat="48.15493" lon="6.42762">
        <ele>443.6</ele>
        <time>2023-10-01T07:30:45Z</time>
      </trkpt>
      <trkpt lat="48.1549" lon="6.42769">
        <ele>443.6</ele>
        <time>2023-10-01T07:30:46Z</time>
      </trkpt>
      <trkpt lat="48.15486" lon="6.42775">
        <ele>443.4</ele>
        <time>2023-10-01T07:30:47Z</time>
      </trkpt>
      <trkpt lat="48.15482" lon="6.42781">
        <ele>443.4</ele>
        <time>2023-10-01T07:30:48Z</time>
      </trkpt>
      <trkpt lat="48.15479" lon="6.42788">
        <ele>443.4</ele>
        <time>2023-10-01T07:30:49Z</time>
      </trkpt>
      <trkpt lat="48.15476" lon="6.42794">
        <ele>443.4</ele>
        <time>2023-10-01T07:30:50Z</time>
      </trkpt>
      <trkpt lat="48.15473" lon="6.42801">
        <ele>443.4</ele>
        <time>2023-10-01T07:30:51Z</time>
      </trkpt>
      <trkpt lat="48.15469" lon="6.42807">
        <ele>443.4</ele>
        <time>2023-10-01T07:30:52Z</time>
      </trkpt>
      <trkpt lat="48.15466" lon="6.42813">
        <ele>443.4</ele>
        <time>2023-10-01T07:30:53Z</time>
      </trkpt>
      <trkpt lat="48.15462" lon="6.42818">
        <ele>443.4</ele>
        <time>2023-10-01T07:30:54Z</time>
      </trkpt>
      <trkpt lat="48.15459" lon="6.42823">
        <ele>443.4</ele>
        <time>2023-10-01T07:30:55Z</time>
      </trkpt>
      <trkpt lat="48.15455" lon="6.42829">
        <ele>443.2</ele>
        <time>2023-10-01T07:30:56Z</time>
      </trkpt>
      <trkpt lat="48.15451" lon="6.42838">
        <ele>443.2</ele>
        <time>2023-10-01T07:30:57Z</time>
      </trkpt>
      <trkpt lat="48.15447" lon="6.42847">
        <ele>442.8</ele>
        <time>2023-10-01T07:30:58Z</time>
      </trkpt>
      <trkpt lat="48.15442" lon="6.42856">
        <ele>442.6</ele>
        <time>2023-10-01T07:30:59Z</time>
      </trkpt>
      <trkpt lat="48.15437" lon="6.42864">
        <ele>442.6</ele>
        <time>2023-10-01T07:31:00Z</time>
      </trkpt>
      <trkpt lat="48.15434" lon="6.42869">
        <ele>442.4</ele>
        <time>2023-10-01T07:31:01Z</time>
      </trkpt>
      <trkpt lat="48.15431" lon="6.42874">
        <ele>442.2</ele>
        <time>2023-10-01T07:31:02Z</time>
      </trkpt>
      <trkpt lat="48.15427" lon="6.42878">
        <ele>442</ele>
        <time>2023-10-01T07:31:03Z</time>
      </trkpt>
      <trkpt lat="48.15424" lon="6.42881">
        <ele>441.8</ele>
        <time>2023-10-01T07:31:04Z</time>
      </trkpt>
      <trkpt lat="48.1542" lon="6.42885">
        <ele>441.6</ele>
        <time>2023-10-01T07:31:05Z</time>
      </trkpt>
      <trkpt lat="48.15416" lon="6.42887">
        <ele>441.6</ele>
        <time>2023-10-01T07:31:06Z</time>
      </trkpt>
      <trkpt lat="48.15413" lon="6.42886">
        <ele>441.2</ele>
        <time>2023-10-01T07:31:07Z</time>
      </trkpt>
      <trkpt lat="48.15412" lon="6.42885">
        <ele>441.2</ele>
        <time>2023-10-01T07:31:08Z</time>
      </trkpt>
      <trkpt lat="48.15409" lon="6.42882">
        <ele>441</ele>
        <time>2023-10-01T07:31:09Z</time>
      </trkpt>
      <trkpt lat="48.15407" lon="6.42878">
        <ele>441</ele>
        <time>2023-10-01T07:31:10Z</time>
      </trkpt>
      <trkpt lat="48.15405" lon="6.42874">
        <ele>441</ele>
        <time>2023-10-01T07:31:11Z</time>
      </trkpt>
      <trkpt lat="48.15404" lon="6.42872">
        <ele>441</ele>
        <time>2023-10-01T07:31:12Z</time>
      </trkpt>
      <trkpt lat="48.15404" lon="6.42869">
        <ele>441.2</ele>
        <time>2023-10-01T07:31:13Z</time>
      </trkpt>
      <trkpt lat="48.15405" lon="6.42866">
        <ele>441.4</ele>
        <time>2023-10-01T07:31:14Z</time>
      </trkpt>
      <trkpt lat="48.15405" lon="6.42863">
        <ele>441.6</ele>
        <time>2023-10-01T07:31:15Z</time>
      </trkpt>
      <trkpt lat="48.15405" lon="6.42859">
        <ele>441.6</ele>
        <time>2023-10-01T07:31:16Z</time>
      </trkpt>
      <trkpt lat="48.15405" lon="6.42856">
        <ele>441.8</ele>
        <time>2023-10-01T07:31:17Z</time>
      </trkpt>
      <trkpt lat="48.15406" lon="6.42853">
        <ele>441.8</ele>
        <time>2023-10-01T07:31:18Z</time>
      </trkpt>
      <trkpt lat="48.15406" lon="6.42849">
        <ele>442</ele>
        <time>2023-10-01T07:31:19Z</time>
      </trkpt>
      <trkpt lat="48.15407" lon="6.42844">
        <ele>442.2</ele>
        <time>2023-10-01T07:31:20Z</time>
      </trkpt>
      <trkpt lat="48.15408" lon="6.4284">
        <ele>442.4</ele>
        <time>2023-10-01T07:31:21Z</time>
      </trkpt>
      <trkpt lat="48.15408" lon="6.42836">
        <ele>442.6</ele>
        <time>2023-10-01T07:31:22Z</time>
      </trkpt>
      <trkpt lat="48.15409" lon="6.42832">
        <ele>443.2</ele>
        <time>2023-10-01T07:31:23Z</time>
      </trkpt>
      <trkpt lat="48.15409" lon="6.42828">
        <ele>443.6</ele>
        <time>2023-10-01T07:31:24Z</time>
      </trkpt>
      <trkpt lat="48.1541" lon="6.42824">
        <ele>443.8</ele>
        <time>2023-10-01T07:31:25Z</time>
      </trkpt>
      <trkpt lat="48.15411" lon="6.42819">
        <ele>444</ele>
        <time>2023-10-01T07:31:26Z</time>
      </trkpt>
      <trkpt lat="48.15411" lon="6.42815">
        <ele>444.2</ele>
        <time>2023-10-01T07:31:27Z</time>
      </trkpt>
      <trkpt lat="48.15412" lon="6.42812">
        <ele>444.6</ele>
        <time>2023-10-01T07:31:28Z</time>
      </trkpt>
      <trkpt lat="48.15412" lon="6.42809">
        <ele>444.6</ele>
        <time>2023-10-01T07:31:29Z</time>
      </trkpt>
      <trkpt lat="48.15412" lon="6.42803">
        <ele>444.8</ele>
        <time>2023-10-01T07:31:30Z</time>
      </trkpt>
      <trkpt lat="48.15413" lon="6.42796">
        <ele>444.8</ele>
        <time>2023-10-01T07:31:31Z</time>
      </trkpt>
      <trkpt lat="48.15415" lon="6.42791">
        <ele>445</ele>
        <time>2023-10-01T07:31:32Z</time>
      </trkpt>
      <trkpt lat="48.15417" lon="6.42786">
        <ele>445.2</ele>
        <time>2023-10-01T07:31:33Z</time>
      </trkpt>
      <trkpt lat="48.15419" lon="6.42782">
        <ele>445.4</ele>
        <time>2023-10-01T07:31:34Z</time>
      </trkpt>
      <trkpt lat="48.15421" lon="6.42778">
        <ele>445.4</ele>
        <time>2023-10-01T07:31:35Z</time>
      </trkpt>
      <trkpt lat="48.15422" lon="6.42773">
        <ele>445.6</ele>
        <time>2023-10-01T07:31:36Z</time>
      </trkpt>
      <trkpt lat="48.15423" lon="6.42768">
        <ele>445.6</ele>
        <time>2023-10-01T07:31:37Z</time>
      </trkpt>
      <trkpt lat="48.15425" lon="6.42763">
        <ele>445.6</ele>
        <time>2023-10-01T07:31:38Z</time>
      </trkpt>
      <trkpt lat="48.15427" lon="6.42757">
        <ele>445.6</ele>
        <time>2023-10-01T07:31:39Z</time>
      </trkpt>
      <trkpt lat="48.15429" lon="6.42752">
        <ele>445.6</ele>
        <time>2023-10-01T07:31:40Z</time>
      </trkpt>
      <trkpt lat="48.15431" lon="6.42747">
        <ele>445.6</ele>
        <time>2023-10-01T07:31:41Z</time>
      </trkpt>
      <trkpt lat="48.15434" lon="6.42741">
        <ele>445.8</ele>
        <time>2023-10-01T07:31:42Z</time>
      </trkpt>
      <trkpt lat="48.15436" lon="6.42736">
        <ele>445.8</ele>
        <time>2023-10-01T07:31:43Z</time>
      </trkpt>
      <trkpt lat="48.15438" lon="6.4273">
        <ele>446</ele>
        <time>2023-10-01T07:31:44Z</time>
      </trkpt>
      <trkpt lat="48.15439" lon="6.42726">
        <ele>446.2</ele>
        <time>2023-10-01T07:31:45Z</time>
      </trkpt>
      <trkpt lat="48.15441" lon="6.4272">
        <ele>446.2</ele>
        <time>2023-10-01T07:31:46Z</time>
      </trkpt>
      <trkpt lat="48.15443" lon="6.42714">
        <ele>446.2</ele>
        <time>2023-10-01T07:31:47Z</time>
      </trkpt>
      <trkpt lat="48.15445" lon="6.42708">
        <ele>446.2</ele>
        <time>2023-10-01T07:31:48Z</time>
      </trkpt>
      <trkpt lat="48.15448" lon="6.42703">
        <ele>446.2</ele>
        <time>2023-10-01T07:31:49Z</time>
      </trkpt>
      <trkpt lat="48.15451" lon="6.42698">
        <ele>446.2</ele>
        <time>2023-10-01T07:31:50Z</time>
      </trkpt>
      <trkpt lat="48.15454" lon="6.42692">
        <ele>446.2</ele>
        <time>2023-10-01T07:31:51Z</time>
      </trkpt>
      <trkpt lat="48.15457" lon="6.42685">
        <ele>446</ele>
        <time>2023-10-01T07:31:52Z</time>
      </trkpt>
      <trkpt lat="48.15458" lon="6.42678">
        <ele>446</ele>
        <time>2023-10-01T07:31:53Z</time>
      </trkpt>
      <trkpt lat="48.15461" lon="6.42672">
        <ele>446</ele>
        <time>2023-10-01T07:31:54Z</time>
      </trkpt>
      <trkpt lat="48.15463" lon="6.42664">
        <ele>446</ele>
        <time>2023-10-01T07:31:55Z</time>
      </trkpt>
      <trkpt lat="48.15465" lon="6.42657">
        <ele>445.8</ele>
        <time>2023-10-01T07:31:56Z</time>
      </trkpt>
      <trkpt lat="48.15467" lon="6.42651">
        <ele>445.8</ele>
        <time>2023-10-01T07:31:57Z</time>
      </trkpt>
      <trkpt lat="48.15469" lon="6.42645">
        <ele>445.8</ele>
        <time>2023-10-01T07:31:58Z</time>
      </trkpt>
      <trkpt lat="48.15472" lon="6.4264">
        <ele>445.8</ele>
        <time>2023-10-01T07:31:59Z</time>
      </trkpt>
      <trkpt lat="48.15474" lon="6.42634">
        <ele>445.6</ele>
        <time>2023-10-01T07:32:00Z</time>
      </trkpt>
      <trkpt lat="48.15477" lon="6.42628">
        <ele>445.8</ele>
        <time>2023-10-01T07:32:01Z</time>
      </trkpt>
      <trkpt lat="48.15481" lon="6.42622">
        <ele>445.8</ele>
        <time>2023-10-01T07:32:02Z</time>
      </trkpt>
      <trkpt lat="48.15485" lon="6.42615">
        <ele>445.8</ele>
        <time>2023-10-01T07:32:03Z</time>
      </trkpt>
      <trkpt lat="48.15487" lon="6.42609">
        <ele>445.8</ele>
        <time>2023-10-01T07:32:04Z</time>
      </trkpt>
      <trkpt lat="48.1549" lon="6.42605">
        <ele>445.8</ele>
        <time>2023-10-01T07:32:05Z</time>
      </trkpt>
      <trkpt lat="48.15492" lon="6.42599">
        <ele>445.8</ele>
        <time>2023-10-01T07:32:06Z</time>
      </trkpt>
      <trkpt lat="48.15495" lon="6.42593">
        <ele>446</ele>
        <time>2023-10-01T07:32:07Z</time>
      </trkpt>
      <trkpt lat="48.15498" lon="6.42587">
        <ele>446</ele>
        <time>2023-10-01T07:32:08Z</time>
      </trkpt>
      <trkpt lat="48.155" lon="6.42581">
        <ele>446</ele>
        <time>2023-10-01T07:32:09Z</time>
      </trkpt>
      <trkpt lat="48.15502" lon="6.42577">
        <ele>446.2</ele>
        <time>2023-10-01T07:32:10Z</time>
      </trkpt>
      <trkpt lat="48.15503" lon="6.4257">
        <ele>446.2</ele>
        <time>2023-10-01T07:32:11Z</time>
      </trkpt>
      <trkpt lat="48.15505" lon="6.42565">
        <ele>446.2</ele>
        <time>2023-10-01T07:32:12Z</time>
      </trkpt>
      <trkpt lat="48.15505" lon="6.4256">
        <ele>446.2</ele>
        <time>2023-10-01T07:32:13Z</time>
      </trkpt>
      <trkpt lat="48.15503" lon="6.42554">
        <ele>446.2</ele>
        <time>2023-10-01T07:32:14Z</time>
      </trkpt>
      <trkpt lat="48.155" lon="6.42549">
        <ele>446.2</ele>
        <time>2023-10-01T07:32:15Z</time>
      </trkpt>
      <trkpt lat="48.15497" lon="6.42543">
        <ele>446.2</ele>
        <time>2023-10-01T07:32:16Z</time>
      </trkpt>
      <trkpt lat="48.15494" lon="6.42537">
        <ele>446</ele>
        <time>2023-10-01T07:32:17Z</time>
      </trkpt>
      <trkpt lat="48.15492" lon="6.42531">
        <ele>446.2</ele>
        <time>2023-10-01T07:32:18Z</time>
      </trkpt>
      <trkpt lat="48.1549" lon="6.42524">
        <ele>446</ele>
        <time>2023-10-01T07:32:19Z</time>
      </trkpt>
      <trkpt lat="48.1549" lon="6.42518">
        <ele>446</ele>
        <time>2023-10-01T07:32:20Z</time>
      </trkpt>
      <trkpt lat="48.15489" lon="6.42511">
        <ele>446</ele>
        <time>2023-10-01T07:32:21Z</time>
      </trkpt>
      <trkpt lat="48.15488" lon="6.42502">
        <ele>446</ele>
        <time>2023-10-01T07:32:22Z</time>
      </trkpt>
      <trkpt lat="48.15489" lon="6.42495">
        <ele>446</ele>
        <time>2023-10-01T07:32:23Z</time>
      </trkpt>
      <trkpt lat="48.15492" lon="6.42488">
        <ele>445.8</ele>
        <time>2023-10-01T07:32:24Z</time>
      </trkpt>
      <trkpt lat="48.15496" lon="6.42482">
        <ele>445.8</ele>
        <time>2023-10-01T07:32:25Z</time>
      </trkpt>
      <trkpt lat="48.155" lon="6.42477">
        <ele>445.6</ele>
        <time>2023-10-01T07:32:26Z</time>
      </trkpt>
      <trkpt lat="48.15502" lon="6.42471">
        <ele>445.6</ele>
        <time>2023-10-01T07:32:27Z</time>
      </trkpt>
      <trkpt lat="48.15504" lon="6.42465">
        <ele>445</ele>
        <time>2023-10-01T07:32:28Z</time>
      </trkpt>
      <trkpt lat="48.15505" lon="6.42459">
        <ele>444.4</ele>
        <time>2023-10-01T07:32:29Z</time>
      </trkpt>
      <trkpt lat="48.15503" lon="6.42452">
        <ele>444.2</ele>
        <time>2023-10-01T07:32:30Z</time>
      </trkpt>
      <trkpt lat="48.15501" lon="6.42446">
        <ele>443.8</ele>
        <time>2023-10-01T07:32:31Z</time>
      </trkpt>
      <trkpt lat="48.155" lon="6.4244">
        <ele>443.4</ele>
        <time>2023-10-01T07:32:32Z</time>
      </trkpt>
      <trkpt lat="48.15499" lon="6.42434">
        <ele>442.4</ele>
        <time>2023-10-01T07:32:33Z</time>
      </trkpt>
      <trkpt lat="48.15497" lon="6.42427">
        <ele>442</ele>
        <time>2023-10-01T07:32:34Z</time>
      </trkpt>
      <trkpt lat="48.15495" lon="6.42421">
        <ele>440.6</ele>
        <time>2023-10-01T07:32:35Z</time>
      </trkpt>
      <trkpt lat="48.1549" lon="6.42415">
        <ele>440.2</ele>
        <time>2023-10-01T07:32:36Z</time>
      </trkpt>
      <trkpt lat="48.15489" lon="6.4241">
        <ele>438.8</ele>
        <time>2023-10-01T07:32:37Z</time>
      </trkpt>
      <trkpt lat="48.15489" lon="6.42406">
        <ele>438.6</ele>
        <time>2023-10-01T07:32:38Z</time>
      </trkpt>
      <trkpt lat="48.15489" lon="6.42403">
        <ele>436.6</ele>
        <time>2023-10-01T07:32:39Z</time>
      </trkpt>
      <trkpt lat="48.15489" lon="6.42402">
        <ele>436.2</ele>
        <time>2023-10-01T07:32:40Z</time>
      </trkpt>
      <trkpt lat="48.15486" lon="6.42399">
        <ele>435.2</ele>
        <time>2023-10-01T07:32:41Z</time>
      </trkpt>
      <trkpt lat="48.15486" lon="6.42398">
        <ele>435</ele>
        <time>2023-10-01T07:32:42Z</time>
      </trkpt>
      <trkpt lat="48.15486" lon="6.42398">
        <ele>434.6</ele>
        <time>2023-10-01T07:32:43Z</time>
      </trkpt>
      <trkpt lat="48.15486" lon="6.42397">
        <ele>434.4</ele>
        <time>2023-10-01T07:32:44Z</time>
      </trkpt>
      <trkpt lat="48.15485" lon="6.42397">
        <ele>434.2</ele>
        <time>2023-10-01T07:32:45Z</time>
      </trkpt>
      <trkpt lat="48.15483" lon="6.42394">
        <ele>434.2</ele>
        <time>2023-10-01T07:32:46Z</time>
      </trkpt>
      <trkpt lat="48.15482" lon="6.42391">
        <ele>433.8</ele>
        <time>2023-10-01T07:32:47Z</time>
      </trkpt>
      <trkpt lat="48.1548" lon="6.42387">
        <ele>433.4</ele>
        <time>2023-10-01T07:32:48Z</time>
      </trkpt>
      <trkpt lat="48.15478" lon="6.42381">
        <ele>432.8</ele>
        <time>2023-10-01T07:32:49Z</time>
      </trkpt>
      <trkpt lat="48.15477" lon="6.4238">
        <ele>432.2</ele>
        <time>2023-10-01T07:32:50Z</time>
      </trkpt>
      <trkpt lat="48.15477" lon="6.4238">
        <ele>432</ele>
        <time>2023-10-01T07:32:51Z</time>
      </trkpt>
      <trkpt lat="48.15475" lon="6.42375">
        <ele>431.6</ele>
        <time>2023-10-01T07:32:52Z</time>
      </trkpt>
      <trkpt lat="48.15475" lon="6.42375">
        <ele>431.6</ele>
        <time>2023-10-01T07:32:53Z</time>
      </trkpt>
      <trkpt lat="48.15475" lon="6.42375">
        <ele>431.4</ele>
        <time>2023-10-01T07:32:54Z</time>
      </trkpt>
      <trkpt lat="48.15473" lon="6.42372">
        <ele>431.4</ele>
        <time>2023-10-01T07:32:55Z</time>
      </trkpt>
      <trkpt lat="48.15472" lon="6.42372">
        <ele>431.2</ele>
        <time>2023-10-01T07:32:56Z</time>
      </trkpt>
      <trkpt lat="48.15472" lon="6.42369">
        <ele>431.2</ele>
        <time>2023-10-01T07:32:57Z</time>
      </trkpt>
      <trkpt lat="48.1547" lon="6.42365">
        <ele>431</ele>
        <time>2023-10-01T07:32:58Z</time>
      </trkpt>
      <trkpt lat="48.15467" lon="6.4236">
        <ele>431</ele>
        <time>2023-10-01T07:32:59Z</time>
      </trkpt>
      <trkpt lat="48.15466" lon="6.42355">
        <ele>431</ele>
        <time>2023-10-01T07:33:00Z</time>
      </trkpt>
      <trkpt lat="48.15461" lon="6.4235">
        <ele>431</ele>
        <time>2023-10-01T07:33:01Z</time>
      </trkpt>
      <trkpt lat="48.15459" lon="6.42344">
        <ele>431</ele>
        <time>2023-10-01T07:33:02Z</time>
      </trkpt>
      <trkpt lat="48.15457" lon="6.42339">
        <ele>431</ele>
        <time>2023-10-01T07:33:03Z</time>
      </trkpt>
      <trkpt lat="48.15454" lon="6.42335">
        <ele>431</ele>
        <time>2023-10-01T07:33:04Z</time>
      </trkpt>
      <trkpt lat="48.15452" lon="6.4233">
        <ele>431</ele>
        <time>2023-10-01T07:33:05Z</time>
      </trkpt>
      <trkpt lat="48.1545" lon="6.42326">
        <ele>431.2</ele>
        <time>2023-10-01T07:33:06Z</time>
      </trkpt>
      <trkpt lat="48.15446" lon="6.42321">
        <ele>431.4</ele>
        <time>2023-10-01T07:33:07Z</time>
      </trkpt>
      <trkpt lat="48.15443" lon="6.42317">
        <ele>431.6</ele>
        <time>2023-10-01T07:33:08Z</time>
      </trkpt>
      <trkpt lat="48.15442" lon="6.42312">
        <ele>432</ele>
        <time>2023-10-01T07:33:09Z</time>
      </trkpt>
      <trkpt lat="48.15444" lon="6.42307">
        <ele>432.4</ele>
        <time>2023-10-01T07:33:10Z</time>
      </trkpt>
      <trkpt lat="48.15444" lon="6.42303">
        <ele>432.6</ele>
        <time>2023-10-01T07:33:11Z</time>
      </trkpt>
      <trkpt lat="48.15443" lon="6.42299">
        <ele>432.8</ele>
        <time>2023-10-01T07:33:12Z</time>
      </trkpt>
      <trkpt lat="48.15442" lon="6.42294">
        <ele>433</ele>
        <time>2023-10-01T07:33:13Z</time>
      </trkpt>
      <trkpt lat="48.15442" lon="6.4229">
        <ele>433.2</ele>
        <time>2023-10-01T07:33:14Z</time>
      </trkpt>
      <trkpt lat="48.15441" lon="6.42287">
        <ele>433.4</ele>
        <time>2023-10-01T07:33:15Z</time>
      </trkpt>
      <trkpt lat="48.15441" lon="6.42284">
        <ele>433.6</ele>
        <time>2023-10-01T07:33:16Z</time>
      </trkpt>
      <trkpt lat="48.15442" lon="6.42282">
        <ele>434</ele>
        <time>2023-10-01T07:33:17Z</time>
      </trkpt>
      <trkpt lat="48.15441" lon="6.42278">
        <ele>434.6</ele>
        <time>2023-10-01T07:33:18Z</time>
      </trkpt>
      <trkpt lat="48.15442" lon="6.42274">
        <ele>435.2</ele>
        <time>2023-10-01T07:33:19Z</time>
      </trkpt>
      <trkpt lat="48.1544" lon="6.4227">
        <ele>435.4</ele>
        <time>2023-10-01T07:33:20Z</time>
      </trkpt>
      <trkpt lat="48.15437" lon="6.42265">
        <ele>436</ele>
        <time>2023-10-01T07:33:21Z</time>
      </trkpt>
      <trkpt lat="48.15437" lon="6.4226">
        <ele>436</ele>
        <time>2023-10-01T07:33:22Z</time>
      </trkpt>
      <trkpt lat="48.15434" lon="6.42253">
        <ele>436.4</ele>
        <time>2023-10-01T07:33:23Z</time>
      </trkpt>
      <trkpt lat="48.15434" lon="6.4225">
        <ele>436.6</ele>
        <time>2023-10-01T07:33:24Z</time>
      </trkpt>
      <trkpt lat="48.15435" lon="6.42249">
        <ele>437</ele>
        <time>2023-10-01T07:33:25Z</time>
      </trkpt>
      <trkpt lat="48.15436" lon="6.42247">
        <ele>437.2</ele>
        <time>2023-10-01T07:33:26Z</time>
      </trkpt>
      <trkpt lat="48.15435" lon="6.42245">
        <ele>437.4</ele>
        <time>2023-10-01T07:33:27Z</time>
      </trkpt>
      <trkpt lat="48.15435" lon="6.42242">
        <ele>437.6</ele>
        <time>2023-10-01T07:33:28Z</time>
      </trkpt>
      <trkpt lat="48.15433" lon="6.42239">
        <ele>438.2</ele>
        <time>2023-10-01T07:33:29Z</time>
      </trkpt>
      <trkpt lat="48.15433" lon="6.42238">
        <ele>438.4</ele>
        <time>2023-10-01T07:33:30Z</time>
      </trkpt>
      <trkpt lat="48.15433" lon="6.42235">
        <ele>438.8</ele>
        <time>2023-10-01T07:33:31Z</time>
      </trkpt>
      <trkpt lat="48.15433" lon="6.42234">
        <ele>439</ele>
        <time>2023-10-01T07:33:32Z</time>
      </trkpt>
      <trkpt lat="48.15432" lon="6.42232">
        <ele>439.2</ele>
        <time>2023-10-01T07:33:33Z</time>
      </trkpt>
      <trkpt lat="48.1543" lon="6.4223">
        <ele>439.4</ele>
        <time>2023-10-01T07:33:34Z</time>
      </trkpt>
      <trkpt lat="48.15429" lon="6.42227">
        <ele>439.4</ele>
        <time>2023-10-01T07:33:35Z</time>
      </trkpt>
      <trkpt lat="48.15429" lon="6.42225">
        <ele>440</ele>
        <time>2023-10-01T07:33:36Z</time>
      </trkpt>
      <trkpt lat="48.15429" lon="6.42224">
        <ele>440.2</ele>
        <time>2023-10-01T07:33:37Z</time>
      </trkpt>
      <trkpt lat="48.15429" lon="6.42222">
        <ele>440.4</ele>
        <time>2023-10-01T07:33:38Z</time>
      </trkpt>
      <trkpt lat="48.15428" lon="6.42219">
        <ele>440.6</ele>
        <time>2023-10-01T07:33:39Z</time>
      </trkpt>
      <trkpt lat="48.15427" lon="6.42216">
        <ele>441</ele>
        <time>2023-10-01T07:33:40Z</time>
      </trkpt>
      <trkpt lat="48.15426" lon="6.42213">
        <ele>441.2</ele>
        <time>2023-10-01T07:33:41Z</time>
      </trkpt>
      <trkpt lat="48.15428" lon="6.4221">
        <ele>441.6</ele>
        <time>2023-10-01T07:33:42Z</time>
      </trkpt>
      <trkpt lat="48.15427" lon="6.42207">
        <ele>441.6</ele>
        <time>2023-10-01T07:33:43Z</time>
      </trkpt>
      <trkpt lat="48.15426" lon="6.42204">
        <ele>442</ele>
        <time>2023-10-01T07:33:44Z</time>
      </trkpt>
      <trkpt lat="48.15426" lon="6.42202">
        <ele>442.2</ele>
        <time>2023-10-01T07:33:45Z</time>
      </trkpt>
      <trkpt lat="48.15425" lon="6.422">
        <ele>442.4</ele>
        <time>2023-10-01T07:33:46Z</time>
      </trkpt>
      <trkpt lat="48.15425" lon="6.42198">
        <ele>442.8</ele>
        <time>2023-10-01T07:33:47Z</time>
      </trkpt>
      <trkpt lat="48.15424" lon="6.42195">
        <ele>443.2</ele>
        <time>2023-10-01T07:33:48Z</time>
      </trkpt>
      <trkpt lat="48.15423" lon="6.42193">
        <ele>443.6</ele>
        <time>2023-10-01T07:33:49Z</time>
      </trkpt>
      <trkpt lat="48.15422" lon="6.42189">
        <ele>444</ele>
        <time>2023-10-01T07:33:50Z</time>
      </trkpt>
      <trkpt lat="48.15421" lon="6.42186">
        <ele>444.2</ele>
        <time>2023-10-01T07:33:51Z</time>
      </trkpt>
      <trkpt lat="48.15422" lon="6.42184">
        <ele>444.6</ele>
        <time>2023-10-01T07:33:52Z</time>
      </trkpt>
      <trkpt lat="48.15421" lon="6.42183">
        <ele>444.8</ele>
        <time>2023-10-01T07:33:53Z</time>
      </trkpt>
      <trkpt lat="48.15422" lon="6.4218">
        <ele>445</ele>
        <time>2023-10-01T07:33:54Z</time>
      </trkpt>
      <trkpt lat="48.15423" lon="6.42178">
        <ele>445.4</ele>
        <time>2023-10-01T07:33:55Z</time>
      </trkpt>
      <trkpt lat="48.15424" lon="6.42173">
        <ele>445.6</ele>
        <time>2023-10-01T07:33:56Z</time>
      </trkpt>
      <trkpt lat="48.15425" lon="6.42171">
        <ele>446</ele>
        <time>2023-10-01T07:33:57Z</time>
      </trkpt>
      <trkpt lat="48.15425" lon="6.42169">
        <ele>446.2</ele>
        <time>2023-10-01T07:33:58Z</time>
      </trkpt>
      <trkpt lat="48.15425" lon="6.42166">
        <ele>446.4</ele>
        <time>2023-10-01T07:33:59Z</time>
      </trkpt>
      <trkpt lat="48.15427" lon="6.42164">
        <ele>446.6</ele>
        <time>2023-10-01T07:34:00Z</time>
      </trkpt>
      <trkpt lat="48.15428" lon="6.42162">
        <ele>447</ele>
        <time>2023-10-01T07:34:01Z</time>
      </trkpt>
      <trkpt lat="48.15429" lon="6.4216">
        <ele>447.2</ele>
        <time>2023-10-01T07:34:02Z</time>
      </trkpt>
      <trkpt lat="48.15431" lon="6.42158">
        <ele>447.6</ele>
        <time>2023-10-01T07:34:03Z</time>
      </trkpt>
      <trkpt lat="48.15431" lon="6.42154">
        <ele>447.6</ele>
        <time>2023-10-01T07:34:04Z</time>
      </trkpt>
      <trkpt lat="48.15431" lon="6.4215">
        <ele>448</ele>
        <time>2023-10-01T07:34:05Z</time>
      </trkpt>
      <trkpt lat="48.15431" lon="6.42149">
        <ele>448</ele>
        <time>2023-10-01T07:34:06Z</time>
      </trkpt>
      <trkpt lat="48.15429" lon="6.42146">
        <ele>448.4</ele>
        <time>2023-10-01T07:34:07Z</time>
      </trkpt>
      <trkpt lat="48.15428" lon="6.42144">
        <ele>448.6</ele>
        <time>2023-10-01T07:34:08Z</time>
      </trkpt>
      <trkpt lat="48.15425" lon="6.42142">
        <ele>448.8</ele>
        <time>2023-10-01T07:34:09Z</time>
      </trkpt>
      <trkpt lat="48.15424" lon="6.42142">
        <ele>448.8</ele>
        <time>2023-10-01T07:34:10Z</time>
      </trkpt>
      <trkpt lat="48.15422" lon="6.42143">
        <ele>449</ele>
        <time>2023-10-01T07:34:11Z</time>
      </trkpt>
      <trkpt lat="48.15421" lon="6.42142">
        <ele>449</ele>
        <time>2023-10-01T07:34:12Z</time>
      </trkpt>
      <trkpt lat="48.15419" lon="6.42142">
        <ele>449.2</ele>
        <time>2023-10-01T07:34:13Z</time>
      </trkpt>
      <trkpt lat="48.15417" lon="6.42142">
        <ele>449.4</ele>
        <time>2023-10-01T07:34:14Z</time>
      </trkpt>
      <trkpt lat="48.15415" lon="6.42143">
        <ele>449.6</ele>
        <time>2023-10-01T07:34:15Z</time>
      </trkpt>
      <trkpt lat="48.15413" lon="6.42145">
        <ele>449.6</ele>
        <time>2023-10-01T07:34:16Z</time>
      </trkpt>
      <trkpt lat="48.15411" lon="6.42146">
        <ele>449.8</ele>
        <time>2023-10-01T07:34:17Z</time>
      </trkpt>
      <trkpt lat="48.15409" lon="6.42149">
        <ele>449.8</ele>
        <time>2023-10-01T07:34:18Z</time>
      </trkpt>
      <trkpt lat="48.15406" lon="6.42151">
        <ele>449.8</ele>
        <time>2023-10-01T07:34:19Z</time>
      </trkpt>
      <trkpt lat="48.15403" lon="6.42155">
        <ele>450</ele>
        <time>2023-10-01T07:34:20Z</time>
      </trkpt>
      <trkpt lat="48.15402" lon="6.42158">
        <ele>450</ele>
        <time>2023-10-01T07:34:21Z</time>
      </trkpt>
      <trkpt lat="48.15399" lon="6.42161">
        <ele>450</ele>
        <time>2023-10-01T07:34:22Z</time>
      </trkpt>
      <trkpt lat="48.15397" lon="6.42165">
        <ele>450</ele>
        <time>2023-10-01T07:34:23Z</time>
      </trkpt>
      <trkpt lat="48.15394" lon="6.42169">
        <ele>450</ele>
        <time>2023-10-01T07:34:24Z</time>
      </trkpt>
      <trkpt lat="48.15392" lon="6.42172">
        <ele>450</ele>
        <time>2023-10-01T07:34:25Z</time>
      </trkpt>
      <trkpt lat="48.15389" lon="6.42175">
        <ele>450</ele>
        <time>2023-10-01T07:34:26Z</time>
      </trkpt>
      <trkpt lat="48.15388" lon="6.42178">
        <ele>450</ele>
        <time>2023-10-01T07:34:27Z</time>
      </trkpt>
      <trkpt lat="48.15386" lon="6.42182">
        <ele>450</ele>
        <time>2023-10-01T07:34:28Z</time>
      </trkpt>
      <trkpt lat="48.15383" lon="6.42188">
        <ele>450</ele>
        <time>2023-10-01T07:34:29Z</time>
      </trkpt>
      <trkpt lat="48.15382" lon="6.42195">
        <ele>450</ele>
        <time>2023-10-01T07:34:30Z</time>
      </trkpt>
      <trkpt lat="48.15381" lon="6.422">
        <ele>449.8</ele>
        <time>2023-10-01T07:34:31Z</time>
      </trkpt>
      <trkpt lat="48.1538" lon="6.42206">
        <ele>449.8</ele>
        <time>2023-10-01T07:34:32Z</time>
      </trkpt>
      <trkpt lat="48.15379" lon="6.42211">
        <ele>449.8</ele>
        <time>2023-10-01T07:34:33Z</time>
      </trkpt>
      <trkpt lat="48.15378" lon="6.42216">
        <ele>449.8</ele>
        <time>2023-10-01T07:34:34Z</time>
      </trkpt>
      <trkpt lat="48.15377" lon="6.42222">
        <ele>449.6</ele>
        <time>2023-10-01T07:34:35Z</time>
      </trkpt>
      <trkpt lat="48.15376" lon="6.42228">
        <ele>449.6</ele>
        <time>2023-10-01T07:34:36Z</time>
      </trkpt>
      <trkpt lat="48.15374" lon="6.42236">
        <ele>449.6</ele>
        <time>2023-10-01T07:34:37Z</time>
      </trkpt>
      <trkpt lat="48.15372" lon="6.42244">
        <ele>449.6</ele>
        <time>2023-10-01T07:34:38Z</time>
      </trkpt>
      <trkpt lat="48.15371" lon="6.42252">
        <ele>449.4</ele>
        <time>2023-10-01T07:34:39Z</time>
      </trkpt>
      <trkpt lat="48.15372" lon="6.42261">
        <ele>449.2</ele>
        <time>2023-10-01T07:34:40Z</time>
      </trkpt>
      <trkpt lat="48.1537" lon="6.42269">
        <ele>449.2</ele>
        <time>2023-10-01T07:34:41Z</time>
      </trkpt>
      <trkpt lat="48.15367" lon="6.42279">
        <ele>449</ele>
        <time>2023-10-01T07:34:42Z</time>
      </trkpt>
      <trkpt lat="48.15365" lon="6.42286">
        <ele>449</ele>
        <time>2023-10-01T07:34:43Z</time>
      </trkpt>
      <trkpt lat="48.15362" lon="6.42294">
        <ele>449</ele>
        <time>2023-10-01T07:34:44Z</time>
      </trkpt>
      <trkpt lat="48.15359" lon="6.42302">
        <ele>448.8</ele>
        <time>2023-10-01T07:34:45Z</time>
      </trkpt>
      <trkpt lat="48.15359" lon="6.42311">
        <ele>448.6</ele>
        <time>2023-10-01T07:34:46Z</time>
      </trkpt>
      <trkpt lat="48.15359" lon="6.42318">
        <ele>448.4</ele>
        <time>2023-10-01T07:34:47Z</time>
      </trkpt>
      <trkpt lat="48.15359" lon="6.42323">
        <ele>448.2</ele>
        <time>2023-10-01T07:34:48Z</time>
      </trkpt>
      <trkpt lat="48.15357" lon="6.42329">
        <ele>448.2</ele>
        <time>2023-10-01T07:34:49Z</time>
      </trkpt>
      <trkpt lat="48.15356" lon="6.42337">
        <ele>448.2</ele>
        <time>2023-10-01T07:34:50Z</time>
      </trkpt>
      <trkpt lat="48.15355" lon="6.42348">
        <ele>448</ele>
        <time>2023-10-01T07:34:51Z</time>
      </trkpt>
      <trkpt lat="48.15353" lon="6.42358">
        <ele>448</ele>
        <time>2023-10-01T07:34:52Z</time>
      </trkpt>
      <trkpt lat="48.1535" lon="6.42367">
        <ele>447.8</ele>
        <time>2023-10-01T07:34:53Z</time>
      </trkpt>
      <trkpt lat="48.15347" lon="6.42374">
        <ele>447.8</ele>
        <time>2023-10-01T07:34:54Z</time>
      </trkpt>
      <trkpt lat="48.15345" lon="6.42381">
        <ele>447.6</ele>
        <time>2023-10-01T07:34:55Z</time>
      </trkpt>
      <trkpt lat="48.15345" lon="6.42387">
        <ele>447.6</ele>
        <time>2023-10-01T07:34:56Z</time>
      </trkpt>
      <trkpt lat="48.15344" lon="6.42391">
        <ele>447.6</ele>
        <time>2023-10-01T07:34:57Z</time>
      </trkpt>
      <trkpt lat="48.15341" lon="6.42396">
        <ele>447.6</ele>
        <time>2023-10-01T07:34:58Z</time>
      </trkpt>
      <trkpt lat="48.15339" lon="6.42402">
        <ele>447.4</ele>
        <time>2023-10-01T07:34:59Z</time>
      </trkpt>
      <trkpt lat="48.15336" lon="6.42406">
        <ele>447.4</ele>
        <time>2023-10-01T07:35:00Z</time>
      </trkpt>
      <trkpt lat="48.15334" lon="6.42413">
        <ele>447.2</ele>
        <time>2023-10-01T07:35:01Z</time>
      </trkpt>
      <trkpt lat="48.15331" lon="6.4242">
        <ele>447</ele>
        <time>2023-10-01T07:35:02Z</time>
      </trkpt>
      <trkpt lat="48.15328" lon="6.42426">
        <ele>447</ele>
        <time>2023-10-01T07:35:03Z</time>
      </trkpt>
      <trkpt lat="48.15325" lon="6.4243">
        <ele>446.6</ele>
        <time>2023-10-01T07:35:04Z</time>
      </trkpt>
      <trkpt lat="48.15323" lon="6.42437">
        <ele>446.4</ele>
        <time>2023-10-01T07:35:05Z</time>
      </trkpt>
      <trkpt lat="48.15321" lon="6.42441">
        <ele>445.6</ele>
        <time>2023-10-01T07:35:06Z</time>
      </trkpt>
      <trkpt lat="48.15321" lon="6.42444">
        <ele>445.2</ele>
        <time>2023-10-01T07:35:07Z</time>
      </trkpt>
      <trkpt lat="48.15323" lon="6.42446">
        <ele>445</ele>
        <time>2023-10-01T07:35:08Z</time>
      </trkpt>
      <trkpt lat="48.15327" lon="6.42447">
        <ele>444.8</ele>
        <time>2023-10-01T07:35:09Z</time>
      </trkpt>
      <trkpt lat="48.15331" lon="6.42446">
        <ele>444</ele>
        <time>2023-10-01T07:35:10Z</time>
      </trkpt>
      <trkpt lat="48.15337" lon="6.42446">
        <ele>443.4</ele>
        <time>2023-10-01T07:35:11Z</time>
      </trkpt>
      <trkpt lat="48.15343" lon="6.42445">
        <ele>442.6</ele>
        <time>2023-10-01T07:35:12Z</time>
      </trkpt>
      <trkpt lat="48.1535" lon="6.42445">
        <ele>442.4</ele>
        <time>2023-10-01T07:35:13Z</time>
      </trkpt>
      <trkpt lat="48.15356" lon="6.42445">
        <ele>441.6</ele>
        <time>2023-10-01T07:35:14Z</time>
      </trkpt>
      <trkpt lat="48.15362" lon="6.42445">
        <ele>441.4</ele>
        <time>2023-10-01T07:35:15Z</time>
      </trkpt>
      <trkpt lat="48.15371" lon="6.42444">
        <ele>440.6</ele>
        <time>2023-10-01T07:35:16Z</time>
      </trkpt>
      <trkpt lat="48.15378" lon="6.42442">
        <ele>440.2</ele>
        <time>2023-10-01T07:35:17Z</time>
      </trkpt>
      <trkpt lat="48.15385" lon="6.4244">
        <ele>439.8</ele>
        <time>2023-10-01T07:35:18Z</time>
      </trkpt>
      <trkpt lat="48.15393" lon="6.42439">
        <ele>439.4</ele>
        <time>2023-10-01T07:35:19Z</time>
      </trkpt>
      <trkpt lat="48.15402" lon="6.42437">
        <ele>438.8</ele>
        <time>2023-10-01T07:35:20Z</time>
      </trkpt>
      <trkpt lat="48.15412" lon="6.42434">
        <ele>438.6</ele>
        <time>2023-10-01T07:35:21Z</time>
      </trkpt>
      <trkpt lat="48.15422" lon="6.4243">
        <ele>438.2</ele>
        <time>2023-10-01T07:35:22Z</time>
      </trkpt>
      <trkpt lat="48.15431" lon="6.42428">
        <ele>438</ele>
        <time>2023-10-01T07:35:23Z</time>
      </trkpt>
      <trkpt lat="48.1544" lon="6.42425">
        <ele>437.2</ele>
        <time>2023-10-01T07:35:24Z</time>
      </trkpt>
      <trkpt lat="48.1544" lon="6.42425">
        <ele>436</ele>
        <time>2023-10-01T07:35:25Z</time>
      </trkpt>
      <trkpt lat="48.1544" lon="6.42424">
        <ele>434.4</ele>
        <time>2023-10-01T07:35:26Z</time>
      </trkpt>
      <trkpt lat="48.1544" lon="6.42426">
        <ele>431.4</ele>
        <time>2023-10-01T07:35:27Z</time>
      </trkpt>
      <trkpt lat="48.15439" lon="6.42428">
        <ele>430.4</ele>
        <time>2023-10-01T07:35:28Z</time>
      </trkpt>
      <trkpt lat="48.15438" lon="6.42432">
        <ele>429</ele>
        <time>2023-10-01T07:35:29Z</time>
      </trkpt>
      <trkpt lat="48.15436" lon="6.42437">
        <ele>428.2</ele>
        <time>2023-10-01T07:35:30Z</time>
      </trkpt>
      <trkpt lat="48.15433" lon="6.42442">
        <ele>426.8</ele>
        <time>2023-10-01T07:35:31Z</time>
      </trkpt>
      <trkpt lat="48.1543" lon="6.42448">
        <ele>426.4</ele>
        <time>2023-10-01T07:35:32Z</time>
      </trkpt>
      <trkpt lat="48.1543" lon="6.42454">
        <ele>426.2</ele>
        <time>2023-10-01T07:35:33Z</time>
      </trkpt>
      <trkpt lat="48.15431" lon="6.42459">
        <ele>426</ele>
        <time>2023-10-01T07:35:34Z</time>
      </trkpt>
      <trkpt lat="48.15437" lon="6.42464">
        <ele>426</ele>
        <time>2023-10-01T07:35:35Z</time>
      </trkpt>
      <trkpt lat="48.15439" lon="6.42467">
        <ele>426</ele>
        <time>2023-10-01T07:35:36Z</time>
      </trkpt>
      <trkpt lat="48.15439" lon="6.42472">
        <ele>426</ele>
        <time>2023-10-01T07:35:37Z</time>
      </trkpt>
      <trkpt lat="48.15438" lon="6.42477">
        <ele>426</ele>
        <time>2023-10-01T07:35:38Z</time>
      </trkpt>
      <trkpt lat="48.15436" lon="6.42482">
        <ele>426</ele>
        <time>2023-10-01T07:35:39Z</time>
      </trkpt>
      <trkpt lat="48.15434" lon="6.42486">
        <ele>426</ele>
        <time>2023-10-01T07:35:40Z</time>
      </trkpt>
      <trkpt lat="48.15433" lon="6.42491">
        <ele>426.2</ele>
        <time>2023-10-01T07:35:41Z</time>
      </trkpt>
      <trkpt lat="48.15431" lon="6.42496">
        <ele>426.4</ele>
        <time>2023-10-01T07:35:42Z</time>
      </trkpt>
      <trkpt lat="48.15429" lon="6.42501">
        <ele>426.6</ele>
        <time>2023-10-01T07:35:43Z</time>
      </trkpt>
      <trkpt lat="48.15426" lon="6.42509">
        <ele>426.6</ele>
        <time>2023-10-01T07:35:44Z</time>
      </trkpt>
      <trkpt lat="48.15422" lon="6.42518">
        <ele>426.6</ele>
        <time>2023-10-01T07:35:45Z</time>
      </trkpt>
      <trkpt lat="48.15419" lon="6.42526">
        <ele>426.6</ele>
        <time>2023-10-01T07:35:46Z</time>
      </trkpt>
      <trkpt lat="48.15416" lon="6.42532">
        <ele>426.6</ele>
        <time>2023-10-01T07:35:47Z</time>
      </trkpt>
      <trkpt lat="48.15414" lon="6.42537">
        <ele>426.6</ele>
        <time>2023-10-01T07:35:48Z</time>
      </trkpt>
      <trkpt lat="48.15413" lon="6.42541">
        <ele>426.6</ele>
        <time>2023-10-01T07:35:49Z</time>
      </trkpt>
      <trkpt lat="48.15412" lon="6.42545">
        <ele>426.6</ele>
        <time>2023-10-01T07:35:50Z</time>
      </trkpt>
      <trkpt lat="48.15408" lon="6.4255">
        <ele>426.8</ele>
        <time>2023-10-01T07:35:51Z</time>
      </trkpt>
      <trkpt lat="48.15405" lon="6.42557">
        <ele>426.8</ele>
        <time>2023-10-01T07:35:52Z</time>
      </trkpt>
      <trkpt lat="48.15403" lon="6.42561">
        <ele>426.8</ele>
        <time>2023-10-01T07:35:53Z</time>
      </trkpt>
      <trkpt lat="48.15403" lon="6.42565">
        <ele>426.8</ele>
        <time>2023-10-01T07:35:54Z</time>
      </trkpt>
      <trkpt lat="48.15402" lon="6.42569">
        <ele>426.8</ele>
        <time>2023-10-01T07:35:55Z</time>
      </trkpt>
      <trkpt lat="48.154" lon="6.42575">
        <ele>426.8</ele>
        <time>2023-10-01T07:35:56Z</time>
      </trkpt>
      <trkpt lat="48.15397" lon="6.42586">
        <ele>426.8</ele>
        <time>2023-10-01T07:35:57Z</time>
      </trkpt>
      <trkpt lat="48.15393" lon="6.42595">
        <ele>426.8</ele>
        <time>2023-10-01T07:35:58Z</time>
      </trkpt>
      <trkpt lat="48.15389" lon="6.42603">
        <ele>427</ele>
        <time>2023-10-01T07:35:59Z</time>
      </trkpt>
      <trkpt lat="48.15385" lon="6.42609">
        <ele>426.8</ele>
        <time>2023-10-01T07:36:00Z</time>
      </trkpt>
      <trkpt lat="48.15381" lon="6.42613">
        <ele>426.6</ele>
        <time>2023-10-01T07:36:01Z</time>
      </trkpt>
      <trkpt lat="48.15379" lon="6.42617">
        <ele>426.4</ele>
        <time>2023-10-01T07:36:02Z</time>
      </trkpt>
      <trkpt lat="48.15376" lon="6.4262">
        <ele>426.4</ele>
        <time>2023-10-01T07:36:03Z</time>
      </trkpt>
      <trkpt lat="48.15373" lon="6.42626">
        <ele>426.2</ele>
        <time>2023-10-01T07:36:04Z</time>
      </trkpt>
      <trkpt lat="48.15367" lon="6.42635">
        <ele>426.2</ele>
        <time>2023-10-01T07:36:05Z</time>
      </trkpt>
      <trkpt lat="48.1536" lon="6.42646">
        <ele>426.2</ele>
        <time>2023-10-01T07:36:06Z</time>
      </trkpt>
      <trkpt lat="48.15354" lon="6.42656">
        <ele>426.2</ele>
        <time>2023-10-01T07:36:07Z</time>
      </trkpt>
      <trkpt lat="48.15351" lon="6.42661">
        <ele>426.2</ele>
        <time>2023-10-01T07:36:08Z</time>
      </trkpt>
      <trkpt lat="48.15349" lon="6.42666">
        <ele>426.2</ele>
        <time>2023-10-01T07:36:09Z</time>
      </trkpt>
      <trkpt lat="48.15347" lon="6.42669">
        <ele>426.2</ele>
        <time>2023-10-01T07:36:10Z</time>
      </trkpt>
      <trkpt lat="48.15344" lon="6.42675">
        <ele>425.6</ele>
        <time>2023-10-01T07:36:11Z</time>
      </trkpt>
      <trkpt lat="48.15342" lon="6.42679">
        <ele>425.4</ele>
        <time>2023-10-01T07:36:12Z</time>
      </trkpt>
      <trkpt lat="48.15339" lon="6.42685">
        <ele>425.2</ele>
        <time>2023-10-01T07:36:13Z</time>
      </trkpt>
      <trkpt lat="48.15336" lon="6.4269">
        <ele>425.2</ele>
        <time>2023-10-01T07:36:14Z</time>
      </trkpt>
      <trkpt lat="48.15331" lon="6.42696">
        <ele>425</ele>
        <time>2023-10-01T07:36:15Z</time>
      </trkpt>
      <trkpt lat="48.15327" lon="6.42706">
        <ele>425</ele>
        <time>2023-10-01T07:36:16Z</time>
      </trkpt>
      <trkpt lat="48.15325" lon="6.42716">
        <ele>425</ele>
        <time>2023-10-01T07:36:17Z</time>
      </trkpt>
      <trkpt lat="48.15323" lon="6.42725">
        <ele>425</ele>
        <time>2023-10-01T07:36:18Z</time>
      </trkpt>
      <trkpt lat="48.1532" lon="6.42733">
        <ele>425</ele>
        <time>2023-10-01T07:36:19Z</time>
      </trkpt>
      <trkpt lat="48.15317" lon="6.42743">
        <ele>425</ele>
        <time>2023-10-01T07:36:20Z</time>
      </trkpt>
      <trkpt lat="48.15317" lon="6.42751">
        <ele>424.8</ele>
        <time>2023-10-01T07:36:21Z</time>
      </trkpt>
      <trkpt lat="48.15316" lon="6.42758">
        <ele>424.4</ele>
        <time>2023-10-01T07:36:22Z</time>
      </trkpt>
      <trkpt lat="48.15314" lon="6.42767">
        <ele>424.2</ele>
        <time>2023-10-01T07:36:23Z</time>
      </trkpt>
      <trkpt lat="48.15312" lon="6.42779">
        <ele>424.2</ele>
        <time>2023-10-01T07:36:24Z</time>
      </trkpt>
      <trkpt lat="48.15312" lon="6.42797">
        <ele>423.6</ele>
        <time>2023-10-01T07:36:25Z</time>
      </trkpt>
      <trkpt lat="48.15313" lon="6.42814">
        <ele>423.4</ele>
        <time>2023-10-01T07:36:26Z</time>
      </trkpt>
      <trkpt lat="48.15313" lon="6.42831">
        <ele>422.4</ele>
        <time>2023-10-01T07:36:27Z</time>
      </trkpt>
      <trkpt lat="48.15312" lon="6.42848">
        <ele>421.8</ele>
        <time>2023-10-01T07:36:28Z</time>
      </trkpt>
      <trkpt lat="48.15311" lon="6.42862">
        <ele>421</ele>
        <time>2023-10-01T07:36:29Z</time>
      </trkpt>
      <trkpt lat="48.15309" lon="6.42876">
        <ele>420.6</ele>
        <time>2023-10-01T07:36:30Z</time>
      </trkpt>
      <trkpt lat="48.15308" lon="6.42895">
        <ele>419</ele>
        <time>2023-10-01T07:36:31Z</time>
      </trkpt>
      <trkpt lat="48.15308" lon="6.42906">
        <ele>418.6</ele>
        <time>2023-10-01T07:36:32Z</time>
      </trkpt>
      <trkpt lat="48.15309" lon="6.42916">
        <ele>417.2</ele>
        <time>2023-10-01T07:36:33Z</time>
      </trkpt>
      <trkpt lat="48.15309" lon="6.42924">
        <ele>416.2</ele>
        <time>2023-10-01T07:36:34Z</time>
      </trkpt>
      <trkpt lat="48.1531" lon="6.42932">
        <ele>415.2</ele>
        <time>2023-10-01T07:36:35Z</time>
      </trkpt>
      <trkpt lat="48.1531" lon="6.42939">
        <ele>414</ele>
        <time>2023-10-01T07:36:36Z</time>
      </trkpt>
      <trkpt lat="48.15311" lon="6.42946">
        <ele>413.4</ele>
        <time>2023-10-01T07:36:37Z</time>
      </trkpt>
      <trkpt lat="48.15313" lon="6.42952">
        <ele>412.2</ele>
        <time>2023-10-01T07:36:38Z</time>
      </trkpt>
      <trkpt lat="48.15315" lon="6.42958">
        <ele>411.2</ele>
        <time>2023-10-01T07:36:39Z</time>
      </trkpt>
      <trkpt lat="48.15316" lon="6.42965">
        <ele>410</ele>
        <time>2023-10-01T07:36:40Z</time>
      </trkpt>
      <trkpt lat="48.15319" lon="6.4297">
        <ele>409.6</ele>
        <time>2023-10-01T07:36:41Z</time>
      </trkpt>
      <trkpt lat="48.15322" lon="6.42976">
        <ele>409</ele>
        <time>2023-10-01T07:36:42Z</time>
      </trkpt>
      <trkpt lat="48.15325" lon="6.42981">
        <ele>408.8</ele>
        <time>2023-10-01T07:36:43Z</time>
      </trkpt>
      <trkpt lat="48.15328" lon="6.42986">
        <ele>408.4</ele>
        <time>2023-10-01T07:36:44Z</time>
      </trkpt>
      <trkpt lat="48.1533" lon="6.42991">
        <ele>408.2</ele>
        <time>2023-10-01T07:36:45Z</time>
      </trkpt>
      <trkpt lat="48.15333" lon="6.42995">
        <ele>407.8</ele>
        <time>2023-10-01T07:36:46Z</time>
      </trkpt>
      <trkpt lat="48.15335" lon="6.42998">
        <ele>407.8</ele>
        <time>2023-10-01T07:36:47Z</time>
      </trkpt>
      <trkpt lat="48.15337" lon="6.43">
        <ele>407.4</ele>
        <time>2023-10-01T07:36:48Z</time>
      </trkpt>
      <trkpt lat="48.1534" lon="6.43002">
        <ele>407.6</ele>
        <time>2023-10-01T07:36:49Z</time>
      </trkpt>
      <trkpt lat="48.15342" lon="6.43005">
        <ele>407.8</ele>
        <time>2023-10-01T07:36:50Z</time>
      </trkpt>
      <trkpt lat="48.15345" lon="6.43009">
        <ele>407.8</ele>
        <time>2023-10-01T07:36:51Z</time>
      </trkpt>
      <trkpt lat="48.15349" lon="6.43011">
        <ele>407.8</ele>
        <time>2023-10-01T07:36:52Z</time>
      </trkpt>
      <trkpt lat="48.15351" lon="6.43011">
        <ele>407.8</ele>
        <time>2023-10-01T07:36:53Z</time>
      </trkpt>
      <trkpt lat="48.15353" lon="6.43011">
        <ele>407.8</ele>
        <time>2023-10-01T07:36:54Z</time>
      </trkpt>
      <trkpt lat="48.15355" lon="6.43011">
        <ele>407.8</ele>
        <time>2023-10-01T07:36:55Z</time>
      </trkpt>
      <trkpt lat="48.15358" lon="6.4301">
        <ele>408</ele>
        <time>2023-10-01T07:36:56Z</time>
      </trkpt>
      <trkpt lat="48.1536" lon="6.43009">
        <ele>408.2</ele>
        <time>2023-10-01T07:36:57Z</time>
      </trkpt>
      <trkpt lat="48.15363" lon="6.43009">
        <ele>408.2</ele>
        <time>2023-10-01T07:36:58Z</time>
      </trkpt>
      <trkpt lat="48.15365" lon="6.43009">
        <ele>408.6</ele>
        <time>2023-10-01T07:36:59Z</time>
      </trkpt>
      <trkpt lat="48.15368" lon="6.43008">
        <ele>408.6</ele>
        <time>2023-10-01T07:37:00Z</time>
      </trkpt>
      <trkpt lat="48.1537" lon="6.43008">
        <ele>409.6</ele>
        <time>2023-10-01T07:37:01Z</time>
      </trkpt>
      <trkpt lat="48.15374" lon="6.43009">
        <ele>410</ele>
        <time>2023-10-01T07:37:02Z</time>
      </trkpt>
      <trkpt lat="48.15377" lon="6.4301">
        <ele>410.2</ele>
        <time>2023-10-01T07:37:03Z</time>
      </trkpt>
      <trkpt lat="48.15382" lon="6.4301">
        <ele>410.4</ele>
        <time>2023-10-01T07:37:04Z</time>
      </trkpt>
      <trkpt lat="48.15388" lon="6.4301">
        <ele>410.4</ele>
        <time>2023-10-01T07:37:05Z</time>
      </trkpt>
      <trkpt lat="48.15394" lon="6.4301">
        <ele>410.4</ele>
        <time>2023-10-01T07:37:06Z</time>
      </trkpt>
      <trkpt lat="48.15399" lon="6.43009">
        <ele>410.4</ele>
        <time>2023-10-01T07:37:07Z</time>
      </trkpt>
      <trkpt lat="48.15404" lon="6.43009">
        <ele>410.2</ele>
        <time>2023-10-01T07:37:08Z</time>
      </trkpt>
      <trkpt lat="48.15409" lon="6.4301">
        <ele>410.2</ele>
        <time>2023-10-01T07:37:09Z</time>
      </trkpt>
      <trkpt lat="48.15415" lon="6.43011">
        <ele>410.2</ele>
        <time>2023-10-01T07:37:10Z</time>
      </trkpt>
      <trkpt lat="48.15422" lon="6.43012">
        <ele>410.2</ele>
        <time>2023-10-01T07:37:11Z</time>
      </trkpt>
      <trkpt lat="48.15428" lon="6.43012">
        <ele>410</ele>
        <time>2023-10-01T07:37:12Z</time>
      </trkpt>
      <trkpt lat="48.15434" lon="6.43011">
        <ele>410</ele>
        <time>2023-10-01T07:37:13Z</time>
      </trkpt>
      <trkpt lat="48.1544" lon="6.43011">
        <ele>409.8</ele>
        <time>2023-10-01T07:37:14Z</time>
      </trkpt>
      <trkpt lat="48.15446" lon="6.4301">
        <ele>409.6</ele>
        <time>2023-10-01T07:37:15Z</time>
      </trkpt>
      <trkpt lat="48.15449" lon="6.43006">
        <ele>409.6</ele>
        <time>2023-10-01T07:37:16Z</time>
      </trkpt>
      <trkpt lat="48.15454" lon="6.42999">
        <ele>409.4</ele>
        <time>2023-10-01T07:37:17Z</time>
      </trkpt>
      <trkpt lat="48.15458" lon="6.4299">
        <ele>409.2</ele>
        <time>2023-10-01T07:37:18Z</time>
      </trkpt>
      <trkpt lat="48.15462" lon="6.42984">
        <ele>409.2</ele>
        <time>2023-10-01T07:37:19Z</time>
      </trkpt>
      <trkpt lat="48.15467" lon="6.42978">
        <ele>409.2</ele>
        <time>2023-10-01T07:37:20Z</time>
      </trkpt>
      <trkpt lat="48.1547" lon="6.42973">
        <ele>409.2</ele>
        <time>2023-10-01T07:37:21Z</time>
      </trkpt>
      <trkpt lat="48.15473" lon="6.42968">
        <ele>409</ele>
        <time>2023-10-01T07:37:22Z</time>
      </trkpt>
      <trkpt lat="48.15476" lon="6.42965">
        <ele>408.6</ele>
        <time>2023-10-01T07:37:23Z</time>
      </trkpt>
      <trkpt lat="48.15478" lon="6.42959">
        <ele>408.4</ele>
        <time>2023-10-01T07:37:24Z</time>
      </trkpt>
      <trkpt lat="48.1548" lon="6.42954">
        <ele>408.4</ele>
        <time>2023-10-01T07:37:25Z</time>
      </trkpt>
      <trkpt lat="48.15484" lon="6.42951">
        <ele>408.4</ele>
        <time>2023-10-01T07:37:26Z</time>
      </trkpt>
      <trkpt lat="48.15487" lon="6.42947">
        <ele>408.4</ele>
        <time>2023-10-01T07:37:27Z</time>
      </trkpt>
      <trkpt lat="48.1549" lon="6.42943">
        <ele>408.6</ele>
        <time>2023-10-01T07:37:28Z</time>
      </trkpt>
      <trkpt lat="48.15492" lon="6.42939">
        <ele>408.8</ele>
        <time>2023-10-01T07:37:29Z</time>
      </trkpt>
      <trkpt lat="48.15493" lon="6.42935">
        <ele>409</ele>
        <time>2023-10-01T07:37:30Z</time>
      </trkpt>
      <trkpt lat="48.15494" lon="6.42931">
        <ele>409</ele>
        <time>2023-10-01T07:37:31Z</time>
      </trkpt>
      <trkpt lat="48.15496" lon="6.42927">
        <ele>409</ele>
        <time>2023-10-01T07:37:32Z</time>
      </trkpt>
      <trkpt lat="48.15498" lon="6.42923">
        <ele>409</ele>
        <time>2023-10-01T07:37:33Z</time>
      </trkpt>
      <trkpt lat="48.155" lon="6.42919">
        <ele>409</ele>
        <time>2023-10-01T07:37:34Z</time>
      </trkpt>
      <trkpt lat="48.15502" lon="6.42916">
        <ele>409</ele>
        <time>2023-10-01T07:37:35Z</time>
      </trkpt>
      <trkpt lat="48.15507" lon="6.42912">
        <ele>409.2</ele>
        <time>2023-10-01T07:37:36Z</time>
      </trkpt>
      <trkpt lat="48.15508" lon="6.4291">
        <ele>409.2</ele>
        <time>2023-10-01T07:37:37Z</time>
      </trkpt>
      <trkpt lat="48.15508" lon="6.4291">
        <ele>409.2</ele>
        <time>2023-10-01T07:37:38Z</time>
      </trkpt>
      <trkpt lat="48.1551" lon="6.4291">
        <ele>409.2</ele>
        <time>2023-10-01T07:37:39Z</time>
      </trkpt>
      <trkpt lat="48.15512" lon="6.42912">
        <ele>409.2</ele>
        <time>2023-10-01T07:37:40Z</time>
      </trkpt>
      <trkpt lat="48.15514" lon="6.42913">
        <ele>409.2</ele>
        <time>2023-10-01T07:37:41Z</time>
      </trkpt>
      <trkpt lat="48.15514" lon="6.42915">
        <ele>409.2</ele>
        <time>2023-10-01T07:37:42Z</time>
      </trkpt>
      <trkpt lat="48.15513" lon="6.42917">
        <ele>408.8</ele>
        <time>2023-10-01T07:37:43Z</time>
      </trkpt>
      <trkpt lat="48.15511" lon="6.42921">
        <ele>408.8</ele>
        <time>2023-10-01T07:37:44Z</time>
      </trkpt>
      <trkpt lat="48.1551" lon="6.42925">
        <ele>408.6</ele>
        <time>2023-10-01T07:37:45Z</time>
      </trkpt>
      <trkpt lat="48.15508" lon="6.42931">
        <ele>408.4</ele>
        <time>2023-10-01T07:37:46Z</time>
      </trkpt>
      <trkpt lat="48.15505" lon="6.42938">
        <ele>408.4</ele>
        <time>2023-10-01T07:37:47Z</time>
      </trkpt>
      <trkpt lat="48.15502" lon="6.42946">
        <ele>408</ele>
        <time>2023-10-01T07:37:48Z</time>
      </trkpt>
      <trkpt lat="48.15501" lon="6.42955">
        <ele>407</ele>
        <time>2023-10-01T07:37:49Z</time>
      </trkpt>
      <trkpt lat="48.15499" lon="6.42961">
        <ele>406.6</ele>
        <time>2023-10-01T07:37:50Z</time>
      </trkpt>
      <trkpt lat="48.15497" lon="6.42966">
        <ele>405.2</ele>
        <time>2023-10-01T07:37:51Z</time>
      </trkpt>
      <trkpt lat="48.15496" lon="6.42969">
        <ele>404.8</ele>
        <time>2023-10-01T07:37:52Z</time>
      </trkpt>
      <trkpt lat="48.15496" lon="6.42971">
        <ele>404</ele>
        <time>2023-10-01T07:37:53Z</time>
      </trkpt>
      <trkpt lat="48.15496" lon="6.42972">
        <ele>403.6</ele>
        <time>2023-10-01T07:37:54Z</time>
      </trkpt>
      <trkpt lat="48.15497" lon="6.42975">
        <ele>401</ele>
        <time>2023-10-01T07:37:55Z</time>
      </trkpt>
      <trkpt lat="48.15498" lon="6.4298">
        <ele>400</ele>
        <time>2023-10-01T07:37:56Z</time>
      </trkpt>
      <trkpt lat="48.15498" lon="6.42984">
        <ele>398.2</ele>
        <time>2023-10-01T07:37:57Z</time>
      </trkpt>
      <trkpt lat="48.15498" lon="6.42988">
        <ele>397.6</ele>
        <time>2023-10-01T07:37:58Z</time>
      </trkpt>
      <trkpt lat="48.15498" lon="6.42991">
        <ele>397</ele>
        <time>2023-10-01T07:37:59Z</time>
      </trkpt>
      <trkpt lat="48.15498" lon="6.42995">
        <ele>396.4</ele>
        <time>2023-10-01T07:38:00Z</time>
      </trkpt>
      <trkpt lat="48.15498" lon="6.42995">
        <ele>395.2</ele>
        <time>2023-10-01T07:38:01Z</time>
      </trkpt>
      <trkpt lat="48.15498" lon="6.42997">
        <ele>394.8</ele>
        <time>2023-10-01T07:38:02Z</time>
      </trkpt>
      <trkpt lat="48.15498" lon="6.43">
        <ele>393.4</ele>
        <time>2023-10-01T07:38:03Z</time>
      </trkpt>
      <trkpt lat="48.15497" lon="6.43004">
        <ele>393</ele>
        <time>2023-10-01T07:38:04Z</time>
      </trkpt>
      <trkpt lat="48.15496" lon="6.43004">
        <ele>392.2</ele>
        <time>2023-10-01T07:38:05Z</time>
      </trkpt>
      <trkpt lat="48.15497" lon="6.43008">
        <ele>392</ele>
        <time>2023-10-01T07:38:06Z</time>
      </trkpt>
      <trkpt lat="48.15498" lon="6.43013">
        <ele>391.8</ele>
        <time>2023-10-01T07:38:07Z</time>
      </trkpt>
      <trkpt lat="48.15501" lon="6.43017">
        <ele>391.8</ele>
        <time>2023-10-01T07:38:08Z</time>
      </trkpt>
      <trkpt lat="48.15505" lon="6.43023">
        <ele>391.6</ele>
        <time>2023-10-01T07:38:09Z</time>
      </trkpt>
      <trkpt lat="48.15508" lon="6.43031">
        <ele>391.2</ele>
        <time>2023-10-01T07:38:10Z</time>
      </trkpt>
      <trkpt lat="48.1551" lon="6.43036">
        <ele>391.2</ele>
        <time>2023-10-01T07:38:11Z</time>
      </trkpt>
      <trkpt lat="48.15512" lon="6.43039">
        <ele>391.2</ele>
        <time>2023-10-01T07:38:12Z</time>
      </trkpt>
      <trkpt lat="48.15514" lon="6.43043">
        <ele>391.2</ele>
        <time>2023-10-01T07:38:13Z</time>
      </trkpt>
      <trkpt lat="48.15515" lon="6.43043">
        <ele>391.4</ele>
        <time>2023-10-01T07:38:14Z</time>
      </trkpt>
      <trkpt lat="48.15516" lon="6.43045">
        <ele>391.4</ele>
        <time>2023-10-01T07:38:15Z</time>
      </trkpt>
      <trkpt lat="48.15519" lon="6.43047">
        <ele>391.4</ele>
        <time>2023-10-01T07:38:16Z</time>
      </trkpt>
      <trkpt lat="48.15521" lon="6.43048">
        <ele>391.6</ele>
        <time>2023-10-01T07:38:17Z</time>
      </trkpt>
      <trkpt lat="48.15524" lon="6.43051">
        <ele>391.8</ele>
        <time>2023-10-01T07:38:18Z</time>
      </trkpt>
      <trkpt lat="48.15528" lon="6.43056">
        <ele>392</ele>
        <time>2023-10-01T07:38:19Z</time>
      </trkpt>
      <trkpt lat="48.15531" lon="6.4306">
        <ele>392.6</ele>
        <time>2023-10-01T07:38:20Z</time>
      </trkpt>
      <trkpt lat="48.15535" lon="6.43062">
        <ele>392.6</ele>
        <time>2023-10-01T07:38:21Z</time>
      </trkpt>
      <trkpt lat="48.15539" lon="6.43064">
        <ele>393</ele>
        <time>2023-10-01T07:38:22Z</time>
      </trkpt>
      <trkpt lat="48.15541" lon="6.43065">
        <ele>393</ele>
        <time>2023-10-01T07:38:23Z</time>
      </trkpt>
      <trkpt lat="48.15544" lon="6.43068">
        <ele>393.6</ele>
        <time>2023-10-01T07:38:24Z</time>
      </trkpt>
      <trkpt lat="48.15547" lon="6.43071">
        <ele>393.8</ele>
        <time>2023-10-01T07:38:25Z</time>
      </trkpt>
      <trkpt lat="48.1555" lon="6.43073">
        <ele>394.2</ele>
        <time>2023-10-01T07:38:26Z</time>
      </trkpt>
      <trkpt lat="48.15552" lon="6.43075">
        <ele>394.4</ele>
        <time>2023-10-01T07:38:27Z</time>
      </trkpt>
      <trkpt lat="48.15553" lon="6.43075">
        <ele>394.6</ele>
        <time>2023-10-01T07:38:28Z</time>
      </trkpt>
      <trkpt lat="48.15553" lon="6.43075">
        <ele>395</ele>
        <time>2023-10-01T07:38:29Z</time>
      </trkpt>
      <trkpt lat="48.15553" lon="6.43075">
        <ele>395</ele>
        <time>2023-10-01T07:38:30Z</time>
      </trkpt>
      <trkpt lat="48.15553" lon="6.43075">
        <ele>395.6</ele>
        <time>2023-10-01T07:38:31Z</time>
      </trkpt>
      <trkpt lat="48.15553" lon="6.43075">
        <ele>395.6</ele>
        <time>2023-10-01T07:38:32Z</time>
      </trkpt>
      <trkpt lat="48.15553" lon="6.43075">
        <ele>395.8</ele>
        <time>2023-10-01T07:38:33Z</time>
      </trkpt>
      <trkpt lat="48.15553" lon="6.43075">
        <ele>396</ele>
        <time>2023-10-01T07:38:34Z</time>
      </trkpt>
      <trkpt lat="48.15553" lon="6.43075">
        <ele>396.2</ele>
        <time>2023-10-01T07:38:35Z</time>
      </trkpt>
      <trkpt lat="48.15556" lon="6.43076">
        <ele>396.2</ele>
        <time>2023-10-01T07:38:36Z</time>
      </trkpt>
      <trkpt lat="48.15556" lon="6.43076">
        <ele>396.4</ele>
        <time>2023-10-01T07:38:37Z</time>
      </trkpt>
      <trkpt lat="48.15561" lon="6.43078">
        <ele>396.4</ele>
        <time>2023-10-01T07:38:38Z</time>
      </trkpt>
      <trkpt lat="48.15567" lon="6.4308">
        <ele>397</ele>
        <time>2023-10-01T07:38:39Z</time>
      </trkpt>
      <trkpt lat="48.1557" lon="6.43081">
        <ele>397.4</ele>
        <time>2023-10-01T07:38:40Z</time>
      </trkpt>
      <trkpt lat="48.15574" lon="6.43078">
        <ele>397.8</ele>
        <time>2023-10-01T07:38:41Z</time>
      </trkpt>
      <trkpt lat="48.15577" lon="6.43078">
        <ele>398</ele>
        <time>2023-10-01T07:38:42Z</time>
      </trkpt>
      <trkpt lat="48.1558" lon="6.43075">
        <ele>398.6</ele>
        <time>2023-10-01T07:38:43Z</time>
      </trkpt>
      <trkpt lat="48.15581" lon="6.43074">
        <ele>398.6</ele>
        <time>2023-10-01T07:38:44Z</time>
      </trkpt>
      <trkpt lat="48.15584" lon="6.43071">
        <ele>399</ele>
        <time>2023-10-01T07:38:45Z</time>
      </trkpt>
      <trkpt lat="48.15584" lon="6.4307">
        <ele>399.4</ele>
        <time>2023-10-01T07:38:46Z</time>
      </trkpt>
      <trkpt lat="48.15591" lon="6.43071">
        <ele>399.8</ele>
        <time>2023-10-01T07:38:47Z</time>
      </trkpt>
      <trkpt lat="48.15598" lon="6.43073">
        <ele>400</ele>
        <time>2023-10-01T07:38:48Z</time>
      </trkpt>
      <trkpt lat="48.15601" lon="6.43073">
        <ele>400.2</ele>
        <time>2023-10-01T07:38:49Z</time>
      </trkpt>
      <trkpt lat="48.15606" lon="6.43074">
        <ele>400.2</ele>
        <time>2023-10-01T07:38:50Z</time>
      </trkpt>
      <trkpt lat="48.1561" lon="6.43075">
        <ele>400.4</ele>
        <time>2023-10-01T07:38:51Z</time>
      </trkpt>
      <trkpt lat="48.15611" lon="6.43075">
        <ele>400.6</ele>
        <time>2023-10-01T07:38:52Z</time>
      </trkpt>
      <trkpt lat="48.15613" lon="6.43074">
        <ele>400.8</ele>
        <time>2023-10-01T07:38:53Z</time>
      </trkpt>
      <trkpt lat="48.15615" lon="6.43073">
        <ele>401</ele>
        <time>2023-10-01T07:38:54Z</time>
      </trkpt>
      <trkpt lat="48.15616" lon="6.43071">
        <ele>401</ele>
        <time>2023-10-01T07:38:55Z</time>
      </trkpt>
      <trkpt lat="48.15618" lon="6.4307">
        <ele>401.2</ele>
        <time>2023-10-01T07:38:56Z</time>
      </trkpt>
      <trkpt lat="48.1562" lon="6.43067">
        <ele>401.4</ele>
        <time>2023-10-01T07:38:57Z</time>
      </trkpt>
      <trkpt lat="48.15625" lon="6.43057">
        <ele>401.8</ele>
        <time>2023-10-01T07:38:58Z</time>
      </trkpt>
      <trkpt lat="48.15629" lon="6.43051">
        <ele>401.8</ele>
        <time>2023-10-01T07:38:59Z</time>
      </trkpt>
      <trkpt lat="48.15629" lon="6.43051">
        <ele>402</ele>
        <time>2023-10-01T07:39:00Z</time>
      </trkpt>
      <trkpt lat="48.15629" lon="6.43051">
        <ele>402.2</ele>
        <time>2023-10-01T07:39:01Z</time>
      </trkpt>
      <trkpt lat="48.15629" lon="6.43052">
        <ele>402.2</ele>
        <time>2023-10-01T07:39:02Z</time>
      </trkpt>
      <trkpt lat="48.1563" lon="6.43052">
        <ele>402.6</ele>
        <time>2023-10-01T07:39:03Z</time>
      </trkpt>
      <trkpt lat="48.1563" lon="6.43053">
        <ele>403</ele>
        <time>2023-10-01T07:39:04Z</time>
      </trkpt>
      <trkpt lat="48.1563" lon="6.43054">
        <ele>403.4</ele>
        <time>2023-10-01T07:39:05Z</time>
      </trkpt>
      <trkpt lat="48.15629" lon="6.43056">
        <ele>403.6</ele>
        <time>2023-10-01T07:39:06Z</time>
      </trkpt>
      <trkpt lat="48.15629" lon="6.43057">
        <ele>403.8</ele>
        <time>2023-10-01T07:39:07Z</time>
      </trkpt>
      <trkpt lat="48.15629" lon="6.43058">
        <ele>403.6</ele>
        <time>2023-10-01T07:39:08Z</time>
      </trkpt>
      <trkpt lat="48.15629" lon="6.43059">
        <ele>403.8</ele>
        <time>2023-10-01T07:39:09Z</time>
      </trkpt>
      <trkpt lat="48.15629" lon="6.43061">
        <ele>404.2</ele>
        <time>2023-10-01T07:39:10Z</time>
      </trkpt>
      <trkpt lat="48.1563" lon="6.43061">
        <ele>404.4</ele>
        <time>2023-10-01T07:39:11Z</time>
      </trkpt>
      <trkpt lat="48.1563" lon="6.43061">
        <ele>404.4</ele>
        <time>2023-10-01T07:39:12Z</time>
      </trkpt>
      <trkpt lat="48.1563" lon="6.43061">
        <ele>404.6</ele>
        <time>2023-10-01T07:39:13Z</time>
      </trkpt>
      <trkpt lat="48.1563" lon="6.43061">
        <ele>405</ele>
        <time>2023-10-01T07:39:14Z</time>
      </trkpt>
      <trkpt lat="48.1563" lon="6.43061">
        <ele>405.4</ele>
        <time>2023-10-01T07:39:15Z</time>
      </trkpt>
      <trkpt lat="48.1563" lon="6.43061">
        <ele>405.8</ele>
        <time>2023-10-01T07:39:16Z</time>
      </trkpt>
      <trkpt lat="48.1563" lon="6.43061">
        <ele>406.4</ele>
        <time>2023-10-01T07:39:17Z</time>
      </trkpt>
      <trkpt lat="48.1563" lon="6.43062">
        <ele>406.6</ele>
        <time>2023-10-01T07:39:18Z</time>
      </trkpt>
      <trkpt lat="48.1563" lon="6.43062">
        <ele>407</ele>
        <time>2023-10-01T07:39:19Z</time>
      </trkpt>
      <trkpt lat="48.1563" lon="6.43062">
        <ele>407</ele>
        <time>2023-10-01T07:39:20Z</time>
      </trkpt>
      <trkpt lat="48.1563" lon="6.43062">
        <ele>407.2</ele>
        <time>2023-10-01T07:39:21Z</time>
      </trkpt>
      <trkpt lat="48.15629" lon="6.43063">
        <ele>407.4</ele>
        <time>2023-10-01T07:39:22Z</time>
      </trkpt>
      <trkpt lat="48.15629" lon="6.43066">
        <ele>407.6</ele>
        <time>2023-10-01T07:39:23Z</time>
      </trkpt>
      <trkpt lat="48.15629" lon="6.43067">
        <ele>407.8</ele>
        <time>2023-10-01T07:39:24Z</time>
      </trkpt>
      <trkpt lat="48.15629" lon="6.43067">
        <ele>408</ele>
        <time>2023-10-01T07:39:25Z</time>
      </trkpt>
      <trkpt lat="48.15629" lon="6.43067">
        <ele>408</ele>
        <time>2023-10-01T07:39:26Z</time>
      </trkpt>
      <trkpt lat="48.15629" lon="6.43067">
        <ele>408.4</ele>
        <time>2023-10-01T07:39:27Z</time>
      </trkpt>
      <trkpt lat="48.15629" lon="6.43067">
        <ele>408.8</ele>
        <time>2023-10-01T07:39:28Z</time>
      </trkpt>
      <trkpt lat="48.15629" lon="6.43067">
        <ele>409</ele>
        <time>2023-10-01T07:39:29Z</time>
      </trkpt>
      <trkpt lat="48.15629" lon="6.43067">
        <ele>409.2</ele>
        <time>2023-10-01T07:39:30Z</time>
      </trkpt>
      <trkpt lat="48.15628" lon="6.43068">
        <ele>409.4</ele>
        <time>2023-10-01T07:39:31Z</time>
      </trkpt>
      <trkpt lat="48.15625" lon="6.43071">
        <ele>409.4</ele>
        <time>2023-10-01T07:39:32Z</time>
      </trkpt>
      <trkpt lat="48.15624" lon="6.43074">
        <ele>409.6</ele>
        <time>2023-10-01T07:39:33Z</time>
      </trkpt>
      <trkpt lat="48.15623" lon="6.43076">
        <ele>409.6</ele>
        <time>2023-10-01T07:39:34Z</time>
      </trkpt>
      <trkpt lat="48.15621" lon="6.43079">
        <ele>409.8</ele>
        <time>2023-10-01T07:39:35Z</time>
      </trkpt>
      <trkpt lat="48.15618" lon="6.43082">
        <ele>409.8</ele>
        <time>2023-10-01T07:39:36Z</time>
      </trkpt>
      <trkpt lat="48.15614" lon="6.43088">
        <ele>409.8</ele>
        <time>2023-10-01T07:39:37Z</time>
      </trkpt>
      <trkpt lat="48.15608" lon="6.43095">
        <ele>409.6</ele>
        <time>2023-10-01T07:39:38Z</time>
      </trkpt>
      <trkpt lat="48.15604" lon="6.43101">
        <ele>409.6</ele>
        <time>2023-10-01T07:39:39Z</time>
      </trkpt>
      <trkpt lat="48.15601" lon="6.43105">
        <ele>409.6</ele>
        <time>2023-10-01T07:39:40Z</time>
      </trkpt>
      <trkpt lat="48.15599" lon="6.43107">
        <ele>409.6</ele>
        <time>2023-10-01T07:39:41Z</time>
      </trkpt>
      <trkpt lat="48.15598" lon="6.4311">
        <ele>409.8</ele>
        <time>2023-10-01T07:39:42Z</time>
      </trkpt>
      <trkpt lat="48.15596" lon="6.43113">
        <ele>409.8</ele>
        <time>2023-10-01T07:39:43Z</time>
      </trkpt>
      <trkpt lat="48.15594" lon="6.43116">
        <ele>410.2</ele>
        <time>2023-10-01T07:39:44Z</time>
      </trkpt>
      <trkpt lat="48.15593" lon="6.43118">
        <ele>410.4</ele>
        <time>2023-10-01T07:39:45Z</time>
      </trkpt>
      <trkpt lat="48.15592" lon="6.43121">
        <ele>410.8</ele>
        <time>2023-10-01T07:39:46Z</time>
      </trkpt>
      <trkpt lat="48.15591" lon="6.43125">
        <ele>411.2</ele>
        <time>2023-10-01T07:39:47Z</time>
      </trkpt>
      <trkpt lat="48.1559" lon="6.43127">
        <ele>411.4</ele>
        <time>2023-10-01T07:39:48Z</time>
      </trkpt>
      <trkpt lat="48.15588" lon="6.4313">
        <ele>411.8</ele>
        <time>2023-10-01T07:39:49Z</time>
      </trkpt>
      <trkpt lat="48.15587" lon="6.43133">
        <ele>412</ele>
        <time>2023-10-01T07:39:50Z</time>
      </trkpt>
      <trkpt lat="48.15584" lon="6.43135">
        <ele>412.2</ele>
        <time>2023-10-01T07:39:51Z</time>
      </trkpt>
      <trkpt lat="48.15581" lon="6.43139">
        <ele>412.6</ele>
        <time>2023-10-01T07:39:52Z</time>
      </trkpt>
      <trkpt lat="48.1558" lon="6.43141">
        <ele>413</ele>
        <time>2023-10-01T07:39:53Z</time>
      </trkpt>
      <trkpt lat="48.15577" lon="6.43146">
        <ele>413.4</ele>
        <time>2023-10-01T07:39:54Z</time>
      </trkpt>
      <trkpt lat="48.15576" lon="6.43148">
        <ele>413.4</ele>
        <time>2023-10-01T07:39:55Z</time>
      </trkpt>
      <trkpt lat="48.15574" lon="6.4315">
        <ele>413.6</ele>
        <time>2023-10-01T07:39:56Z</time>
      </trkpt>
      <trkpt lat="48.15572" lon="6.43152">
        <ele>413.6</ele>
        <time>2023-10-01T07:39:57Z</time>
      </trkpt>
      <trkpt lat="48.15571" lon="6.43152">
        <ele>414.6</ele>
        <time>2023-10-01T07:39:58Z</time>
      </trkpt>
      <trkpt lat="48.1557" lon="6.43154">
        <ele>415</ele>
        <time>2023-10-01T07:39:59Z</time>
      </trkpt>
      <trkpt lat="48.15568" lon="6.43157">
        <ele>415.6</ele>
        <time>2023-10-01T07:40:00Z</time>
      </trkpt>
      <trkpt lat="48.15566" lon="6.43158">
        <ele>415.8</ele>
        <time>2023-10-01T07:40:01Z</time>
      </trkpt>
      <trkpt lat="48.15564" lon="6.4316">
        <ele>416</ele>
        <time>2023-10-01T07:40:02Z</time>
      </trkpt>
      <trkpt lat="48.15562" lon="6.43161">
        <ele>416.2</ele>
        <time>2023-10-01T07:40:03Z</time>
      </trkpt>
      <trkpt lat="48.1556" lon="6.43163">
        <ele>416.2</ele>
        <time>2023-10-01T07:40:04Z</time>
      </trkpt>
      <trkpt lat="48.1556" lon="6.43164">
        <ele>416.6</ele>
        <time>2023-10-01T07:40:05Z</time>
      </trkpt>
      <trkpt lat="48.1556" lon="6.43164">
        <ele>416.6</ele>
        <time>2023-10-01T07:40:06Z</time>
      </trkpt>
      <trkpt lat="48.15558" lon="6.43164">
        <ele>416.6</ele>
        <time>2023-10-01T07:40:07Z</time>
      </trkpt>
      <trkpt lat="48.15558" lon="6.43165">
        <ele>416.8</ele>
        <time>2023-10-01T07:40:08Z</time>
      </trkpt>
      <trkpt lat="48.15558" lon="6.43165">
        <ele>417</ele>
        <time>2023-10-01T07:40:09Z</time>
      </trkpt>
      <trkpt lat="48.15558" lon="6.43165">
        <ele>417.2</ele>
        <time>2023-10-01T07:40:10Z</time>
      </trkpt>
      <trkpt lat="48.15555" lon="6.43166">
        <ele>417.6</ele>
        <time>2023-10-01T07:40:11Z</time>
      </trkpt>
      <trkpt lat="48.15553" lon="6.4317">
        <ele>417.8</ele>
        <time>2023-10-01T07:40:12Z</time>
      </trkpt>
      <trkpt lat="48.15551" lon="6.43173">
        <ele>418.2</ele>
        <time>2023-10-01T07:40:13Z</time>
      </trkpt>
      <trkpt lat="48.1555" lon="6.43175">
        <ele>418.4</ele>
        <time>2023-10-01T07:40:14Z</time>
      </trkpt>
      <trkpt lat="48.15549" lon="6.43178">
        <ele>418.8</ele>
        <time>2023-10-01T07:40:15Z</time>
      </trkpt>
      <trkpt lat="48.15548" lon="6.43182">
        <ele>419.2</ele>
        <time>2023-10-01T07:40:16Z</time>
      </trkpt>
      <trkpt lat="48.15546" lon="6.43183">
        <ele>419.8</ele>
        <time>2023-10-01T07:40:17Z</time>
      </trkpt>
      <trkpt lat="48.15546" lon="6.43184">
        <ele>420.2</ele>
        <time>2023-10-01T07:40:18Z</time>
      </trkpt>
      <trkpt lat="48.15545" lon="6.43183">
        <ele>420.4</ele>
        <time>2023-10-01T07:40:19Z</time>
      </trkpt>
      <trkpt lat="48.15543" lon="6.43184">
        <ele>420.6</ele>
        <time>2023-10-01T07:40:20Z</time>
      </trkpt>
      <trkpt lat="48.15542" lon="6.43186">
        <ele>420.8</ele>
        <time>2023-10-01T07:40:21Z</time>
      </trkpt>
      <trkpt lat="48.1554" lon="6.43186">
        <ele>421</ele>
        <time>2023-10-01T07:40:22Z</time>
      </trkpt>
      <trkpt lat="48.15538" lon="6.43187">
        <ele>421.4</ele>
        <time>2023-10-01T07:40:23Z</time>
      </trkpt>
      <trkpt lat="48.15535" lon="6.43188">
        <ele>421.6</ele>
        <time>2023-10-01T07:40:24Z</time>
      </trkpt>
      <trkpt lat="48.15532" lon="6.4319">
        <ele>421.8</ele>
        <time>2023-10-01T07:40:25Z</time>
      </trkpt>
      <trkpt lat="48.15528" lon="6.4319">
        <ele>422</ele>
        <time>2023-10-01T07:40:26Z</time>
      </trkpt>
      <trkpt lat="48.15525" lon="6.4319">
        <ele>422</ele>
        <time>2023-10-01T07:40:27Z</time>
      </trkpt>
      <trkpt lat="48.15522" lon="6.43191">
        <ele>422</ele>
        <time>2023-10-01T07:40:28Z</time>
      </trkpt>
      <trkpt lat="48.15519" lon="6.43193">
        <ele>422.2</ele>
        <time>2023-10-01T07:40:29Z</time>
      </trkpt>
      <trkpt lat="48.15517" lon="6.43196">
        <ele>422.4</ele>
        <time>2023-10-01T07:40:30Z</time>
      </trkpt>
      <trkpt lat="48.15516" lon="6.43198">
        <ele>422.6</ele>
        <time>2023-10-01T07:40:31Z</time>
      </trkpt>
      <trkpt lat="48.15514" lon="6.43199">
        <ele>422.6</ele>
        <time>2023-10-01T07:40:32Z</time>
      </trkpt>
      <trkpt lat="48.15512" lon="6.43199">
        <ele>422.6</ele>
        <time>2023-10-01T07:40:33Z</time>
      </trkpt>
      <trkpt lat="48.1551" lon="6.43201">
        <ele>422.8</ele>
        <time>2023-10-01T07:40:34Z</time>
      </trkpt>
      <trkpt lat="48.15508" lon="6.43204">
        <ele>422.8</ele>
        <time>2023-10-01T07:40:35Z</time>
      </trkpt>
      <trkpt lat="48.15508" lon="6.43205">
        <ele>423</ele>
        <time>2023-10-01T07:40:36Z</time>
      </trkpt>
      <trkpt lat="48.15506" lon="6.43206">
        <ele>423</ele>
        <time>2023-10-01T07:40:37Z</time>
      </trkpt>
      <trkpt lat="48.15505" lon="6.43208">
        <ele>423</ele>
        <time>2023-10-01T07:40:38Z</time>
      </trkpt>
      <trkpt lat="48.15504" lon="6.43211">
        <ele>423</ele>
        <time>2023-10-01T07:40:39Z</time>
      </trkpt>
      <trkpt lat="48.15499" lon="6.43214">
        <ele>423.2</ele>
        <time>2023-10-01T07:40:40Z</time>
      </trkpt>
      <trkpt lat="48.15496" lon="6.43217">
        <ele>423.2</ele>
        <time>2023-10-01T07:40:41Z</time>
      </trkpt>
      <trkpt lat="48.15494" lon="6.4322">
        <ele>423.4</ele>
        <time>2023-10-01T07:40:42Z</time>
      </trkpt>
      <trkpt lat="48.15493" lon="6.43222">
        <ele>423.6</ele>
        <time>2023-10-01T07:40:43Z</time>
      </trkpt>
      <trkpt lat="48.15492" lon="6.43223">
        <ele>423.6</ele>
        <time>2023-10-01T07:40:44Z</time>
      </trkpt>
      <trkpt lat="48.15489" lon="6.43227">
        <ele>423.6</ele>
        <time>2023-10-01T07:40:45Z</time>
      </trkpt>
      <trkpt lat="48.15487" lon="6.43229">
        <ele>423.6</ele>
        <time>2023-10-01T07:40:46Z</time>
      </trkpt>
      <trkpt lat="48.15487" lon="6.43231">
        <ele>423.8</ele>
        <time>2023-10-01T07:40:47Z</time>
      </trkpt>
      <trkpt lat="48.15486" lon="6.43233">
        <ele>424.2</ele>
        <time>2023-10-01T07:40:48Z</time>
      </trkpt>
      <trkpt lat="48.15486" lon="6.43233">
        <ele>424.4</ele>
        <time>2023-10-01T07:40:49Z</time>
      </trkpt>
      <trkpt lat="48.15485" lon="6.43235">
        <ele>424.8</ele>
        <time>2023-10-01T07:40:50Z</time>
      </trkpt>
      <trkpt lat="48.15483" lon="6.43239">
        <ele>425.2</ele>
        <time>2023-10-01T07:40:51Z</time>
      </trkpt>
      <trkpt lat="48.15483" lon="6.43241">
        <ele>425.4</ele>
        <time>2023-10-01T07:40:52Z</time>
      </trkpt>
      <trkpt lat="48.15482" lon="6.43243">
        <ele>426</ele>
        <time>2023-10-01T07:40:53Z</time>
      </trkpt>
      <trkpt lat="48.15482" lon="6.43244">
        <ele>426.2</ele>
        <time>2023-10-01T07:40:54Z</time>
      </trkpt>
      <trkpt lat="48.15479" lon="6.43245">
        <ele>426.6</ele>
        <time>2023-10-01T07:40:55Z</time>
      </trkpt>
      <trkpt lat="48.15478" lon="6.43245">
        <ele>427</ele>
        <time>2023-10-01T07:40:56Z</time>
      </trkpt>
      <trkpt lat="48.15474" lon="6.43244">
        <ele>427.4</ele>
        <time>2023-10-01T07:40:57Z</time>
      </trkpt>
      <trkpt lat="48.15471" lon="6.43246">
        <ele>427.4</ele>
        <time>2023-10-01T07:40:58Z</time>
      </trkpt>
      <trkpt lat="48.15469" lon="6.43248">
        <ele>427.6</ele>
        <time>2023-10-01T07:40:59Z</time>
      </trkpt>
      <trkpt lat="48.15468" lon="6.43249">
        <ele>427.6</ele>
        <time>2023-10-01T07:41:00Z</time>
      </trkpt>
      <trkpt lat="48.15467" lon="6.43251">
        <ele>427.8</ele>
        <time>2023-10-01T07:41:01Z</time>
      </trkpt>
      <trkpt lat="48.15464" lon="6.43254">
        <ele>428</ele>
        <time>2023-10-01T07:41:02Z</time>
      </trkpt>
      <trkpt lat="48.15464" lon="6.43256">
        <ele>428.4</ele>
        <time>2023-10-01T07:41:03Z</time>
      </trkpt>
      <trkpt lat="48.15462" lon="6.43256">
        <ele>428.4</ele>
        <time>2023-10-01T07:41:04Z</time>
      </trkpt>
      <trkpt lat="48.1546" lon="6.43259">
        <ele>428.6</ele>
        <time>2023-10-01T07:41:05Z</time>
      </trkpt>
      <trkpt lat="48.15457" lon="6.43261">
        <ele>428.6</ele>
        <time>2023-10-01T07:41:06Z</time>
      </trkpt>
      <trkpt lat="48.15453" lon="6.43266">
        <ele>428.6</ele>
        <time>2023-10-01T07:41:07Z</time>
      </trkpt>
      <trkpt lat="48.15452" lon="6.43271">
        <ele>428.6</ele>
        <time>2023-10-01T07:41:08Z</time>
      </trkpt>
      <trkpt lat="48.15451" lon="6.43273">
        <ele>428.8</ele>
        <time>2023-10-01T07:41:09Z</time>
      </trkpt>
      <trkpt lat="48.15451" lon="6.43275">
        <ele>428.8</ele>
        <time>2023-10-01T07:41:10Z</time>
      </trkpt>
      <trkpt lat="48.15452" lon="6.43277">
        <ele>429</ele>
        <time>2023-10-01T07:41:11Z</time>
      </trkpt>
      <trkpt lat="48.15452" lon="6.43277">
        <ele>429.2</ele>
        <time>2023-10-01T07:41:12Z</time>
      </trkpt>
      <trkpt lat="48.15452" lon="6.43277">
        <ele>429.6</ele>
        <time>2023-10-01T07:41:13Z</time>
      </trkpt>
      <trkpt lat="48.15451" lon="6.43277">
        <ele>429.8</ele>
        <time>2023-10-01T07:41:14Z</time>
      </trkpt>
      <trkpt lat="48.15449" lon="6.43278">
        <ele>430</ele>
        <time>2023-10-01T07:41:15Z</time>
      </trkpt>
      <trkpt lat="48.15448" lon="6.4328">
        <ele>430.4</ele>
        <time>2023-10-01T07:41:16Z</time>
      </trkpt>
      <trkpt lat="48.15444" lon="6.43282">
        <ele>430.6</ele>
        <time>2023-10-01T07:41:17Z</time>
      </trkpt>
      <trkpt lat="48.15441" lon="6.43286">
        <ele>430.8</ele>
        <time>2023-10-01T07:41:18Z</time>
      </trkpt>
      <trkpt lat="48.1544" lon="6.43286">
        <ele>431</ele>
        <time>2023-10-01T07:41:19Z</time>
      </trkpt>
      <trkpt lat="48.15439" lon="6.43289">
        <ele>431</ele>
        <time>2023-10-01T07:41:20Z</time>
      </trkpt>
      <trkpt lat="48.15437" lon="6.43293">
        <ele>431</ele>
        <time>2023-10-01T07:41:21Z</time>
      </trkpt>
      <trkpt lat="48.15437" lon="6.43293">
        <ele>431</ele>
        <time>2023-10-01T07:41:22Z</time>
      </trkpt>
      <trkpt lat="48.15434" lon="6.43294">
        <ele>431</ele>
        <time>2023-10-01T07:41:23Z</time>
      </trkpt>
      <trkpt lat="48.15433" lon="6.43295">
        <ele>431.2</ele>
        <time>2023-10-01T07:41:24Z</time>
      </trkpt>
      <trkpt lat="48.15431" lon="6.43297">
        <ele>431.2</ele>
        <time>2023-10-01T07:41:25Z</time>
      </trkpt>
      <trkpt lat="48.1543" lon="6.433">
        <ele>431.4</ele>
        <time>2023-10-01T07:41:26Z</time>
      </trkpt>
      <trkpt lat="48.15428" lon="6.43303">
        <ele>431.2</ele>
        <time>2023-10-01T07:41:27Z</time>
      </trkpt>
      <trkpt lat="48.15428" lon="6.43304">
        <ele>431.2</ele>
        <time>2023-10-01T07:41:28Z</time>
      </trkpt>
      <trkpt lat="48.15427" lon="6.43308">
        <ele>431.4</ele>
        <time>2023-10-01T07:41:29Z</time>
      </trkpt>
      <trkpt lat="48.15426" lon="6.4331">
        <ele>431.4</ele>
        <time>2023-10-01T07:41:30Z</time>
      </trkpt>
      <trkpt lat="48.15426" lon="6.43311">
        <ele>431.4</ele>
        <time>2023-10-01T07:41:31Z</time>
      </trkpt>
      <trkpt lat="48.15425" lon="6.4331">
        <ele>431.4</ele>
        <time>2023-10-01T07:41:32Z</time>
      </trkpt>
      <trkpt lat="48.15423" lon="6.4331">
        <ele>431.4</ele>
        <time>2023-10-01T07:41:33Z</time>
      </trkpt>
      <trkpt lat="48.15423" lon="6.43311">
        <ele>431.4</ele>
        <time>2023-10-01T07:41:34Z</time>
      </trkpt>
      <trkpt lat="48.15423" lon="6.43311">
        <ele>431.4</ele>
        <time>2023-10-01T07:41:35Z</time>
      </trkpt>
      <trkpt lat="48.15423" lon="6.43311">
        <ele>431.8</ele>
        <time>2023-10-01T07:42:50Z</time>
      </trkpt>
      <trkpt lat="48.15423" lon="6.43311">
        <ele>431.8</ele>
        <time>2023-10-01T07:42:51Z</time>
      </trkpt>
      <trkpt lat="48.15423" lon="6.43311">
        <ele>431.6</ele>
        <time>2023-10-01T07:43:07Z</time>
      </trkpt>
      <trkpt lat="48.15423" lon="6.43311">
        <ele>431.6</ele>
        <time>2023-10-01T07:43:08Z</time>
      </trkpt>
      <trkpt lat="48.15423" lon="6.43311">
        <ele>431.6</ele>
        <time>2023-10-01T07:43:09Z</time>
      </trkpt>
      <trkpt lat="48.15423" lon="6.43311">
        <ele>431.8</ele>
        <time>2023-10-01T07:44:36Z</time>
      </trkpt>
      <trkpt lat="48.15423" lon="6.43311">
        <ele>431.8</ele>
        <time>2023-10-01T07:44:37Z</time>
      </trkpt>
      <trkpt lat="48.15423" lon="6.43311">
        <ele>431.8</ele>
        <time>2023-10-01T07:44:38Z</time>
      </trkpt>
      <trkpt lat="48.15423" lon="6.43314">
        <ele>431.8</ele>
        <time>2023-10-01T07:44:39Z</time>
      </trkpt>
      <trkpt lat="48.15424" lon="6.43317">
        <ele>431.8</ele>
        <time>2023-10-01T07:44:40Z</time>
      </trkpt>
      <trkpt lat="48.15424" lon="6.4332">
        <ele>431.8</ele>
        <time>2023-10-01T07:44:41Z</time>
      </trkpt>
      <trkpt lat="48.15424" lon="6.43324">
        <ele>432</ele>
        <time>2023-10-01T07:44:42Z</time>
      </trkpt>
      <trkpt lat="48.15425" lon="6.43328">
        <ele>432</ele>
        <time>2023-10-01T07:44:43Z</time>
      </trkpt>
      <trkpt lat="48.15425" lon="6.43331">
        <ele>432.2</ele>
        <time>2023-10-01T07:44:44Z</time>
      </trkpt>
      <trkpt lat="48.15425" lon="6.43334">
        <ele>432.2</ele>
        <time>2023-10-01T07:44:45Z</time>
      </trkpt>
      <trkpt lat="48.15426" lon="6.43338">
        <ele>432.8</ele>
        <time>2023-10-01T07:44:46Z</time>
      </trkpt>
      <trkpt lat="48.15426" lon="6.43341">
        <ele>433</ele>
        <time>2023-10-01T07:44:47Z</time>
      </trkpt>
      <trkpt lat="48.15427" lon="6.43344">
        <ele>433.2</ele>
        <time>2023-10-01T07:44:48Z</time>
      </trkpt>
      <trkpt lat="48.15428" lon="6.43347">
        <ele>433.4</ele>
        <time>2023-10-01T07:44:49Z</time>
      </trkpt>
      <trkpt lat="48.15429" lon="6.4335">
        <ele>433.8</ele>
        <time>2023-10-01T07:44:50Z</time>
      </trkpt>
      <trkpt lat="48.15431" lon="6.43353">
        <ele>434.2</ele>
        <time>2023-10-01T07:44:51Z</time>
      </trkpt>
      <trkpt lat="48.15432" lon="6.43357">
        <ele>434.4</ele>
        <time>2023-10-01T07:44:52Z</time>
      </trkpt>
      <trkpt lat="48.15432" lon="6.43361">
        <ele>434.8</ele>
        <time>2023-10-01T07:44:53Z</time>
      </trkpt>
      <trkpt lat="48.15432" lon="6.43365">
        <ele>434.8</ele>
        <time>2023-10-01T07:44:54Z</time>
      </trkpt>
      <trkpt lat="48.15432" lon="6.4337">
        <ele>435.2</ele>
        <time>2023-10-01T07:44:55Z</time>
      </trkpt>
      <trkpt lat="48.15431" lon="6.43375">
        <ele>435.4</ele>
        <time>2023-10-01T07:44:56Z</time>
      </trkpt>
      <trkpt lat="48.15431" lon="6.43379">
        <ele>435.6</ele>
        <time>2023-10-01T07:44:57Z</time>
      </trkpt>
      <trkpt lat="48.15432" lon="6.43383">
        <ele>435.8</ele>
        <time>2023-10-01T07:44:58Z</time>
      </trkpt>
      <trkpt lat="48.15432" lon="6.43387">
        <ele>435.8</ele>
        <time>2023-10-01T07:44:59Z</time>
      </trkpt>
      <trkpt lat="48.15431" lon="6.43394">
        <ele>435.8</ele>
        <time>2023-10-01T07:45:00Z</time>
      </trkpt>
      <trkpt lat="48.15432" lon="6.434">
        <ele>435.8</ele>
        <time>2023-10-01T07:45:01Z</time>
      </trkpt>
      <trkpt lat="48.15433" lon="6.43406">
        <ele>435.8</ele>
        <time>2023-10-01T07:45:02Z</time>
      </trkpt>
      <trkpt lat="48.15436" lon="6.43413">
        <ele>435.8</ele>
        <time>2023-10-01T07:45:03Z</time>
      </trkpt>
      <trkpt lat="48.15441" lon="6.4342">
        <ele>435.8</ele>
        <time>2023-10-01T07:45:04Z</time>
      </trkpt>
      <trkpt lat="48.15443" lon="6.43427">
        <ele>435.6</ele>
        <time>2023-10-01T07:45:05Z</time>
      </trkpt>
      <trkpt lat="48.15444" lon="6.43433">
        <ele>435.6</ele>
        <time>2023-10-01T07:45:06Z</time>
      </trkpt>
      <trkpt lat="48.15444" lon="6.4344">
        <ele>435.6</ele>
        <time>2023-10-01T07:45:07Z</time>
      </trkpt>
      <trkpt lat="48.15445" lon="6.43446">
        <ele>435.4</ele>
        <time>2023-10-01T07:45:08Z</time>
      </trkpt>
      <trkpt lat="48.15446" lon="6.43452">
        <ele>435.2</ele>
        <time>2023-10-01T07:45:09Z</time>
      </trkpt>
      <trkpt lat="48.15446" lon="6.43461">
        <ele>435.2</ele>
        <time>2023-10-01T07:45:10Z</time>
      </trkpt>
      <trkpt lat="48.15446" lon="6.43469">
        <ele>435.2</ele>
        <time>2023-10-01T07:45:11Z</time>
      </trkpt>
      <trkpt lat="48.15446" lon="6.43477">
        <ele>435</ele>
        <time>2023-10-01T07:45:12Z</time>
      </trkpt>
      <trkpt lat="48.15448" lon="6.43487">
        <ele>435</ele>
        <time>2023-10-01T07:45:13Z</time>
      </trkpt>
      <trkpt lat="48.1545" lon="6.43498">
        <ele>434.8</ele>
        <time>2023-10-01T07:45:14Z</time>
      </trkpt>
      <trkpt lat="48.15453" lon="6.43507">
        <ele>434.6</ele>
        <time>2023-10-01T07:45:15Z</time>
      </trkpt>
      <trkpt lat="48.15457" lon="6.43514">
        <ele>434.4</ele>
        <time>2023-10-01T07:45:16Z</time>
      </trkpt>
      <trkpt lat="48.15462" lon="6.43521">
        <ele>434.2</ele>
        <time>2023-10-01T07:45:17Z</time>
      </trkpt>
      <trkpt lat="48.15465" lon="6.43527">
        <ele>433.8</ele>
        <time>2023-10-01T07:45:18Z</time>
      </trkpt>
      <trkpt lat="48.15467" lon="6.43531">
        <ele>433.6</ele>
        <time>2023-10-01T07:45:19Z</time>
      </trkpt>
      <trkpt lat="48.1547" lon="6.43534">
        <ele>433.2</ele>
        <time>2023-10-01T07:45:20Z</time>
      </trkpt>
      <trkpt lat="48.15472" lon="6.43536">
        <ele>433</ele>
        <time>2023-10-01T07:45:21Z</time>
      </trkpt>
      <trkpt lat="48.15472" lon="6.43538">
        <ele>432.8</ele>
        <time>2023-10-01T07:45:22Z</time>
      </trkpt>
      <trkpt lat="48.15473" lon="6.43541">
        <ele>432.8</ele>
        <time>2023-10-01T07:45:23Z</time>
      </trkpt>
      <trkpt lat="48.15475" lon="6.43545">
        <ele>432.8</ele>
        <time>2023-10-01T07:45:24Z</time>
      </trkpt>
      <trkpt lat="48.1548" lon="6.43547">
        <ele>432.6</ele>
        <time>2023-10-01T07:45:25Z</time>
      </trkpt>
      <trkpt lat="48.15483" lon="6.43549">
        <ele>432.6</ele>
        <time>2023-10-01T07:45:26Z</time>
      </trkpt>
      <trkpt lat="48.15486" lon="6.4355">
        <ele>432.6</ele>
        <time>2023-10-01T07:45:27Z</time>
      </trkpt>
      <trkpt lat="48.15488" lon="6.4355">
        <ele>432.4</ele>
        <time>2023-10-01T07:45:28Z</time>
      </trkpt>
      <trkpt lat="48.15489" lon="6.43552">
        <ele>432.4</ele>
        <time>2023-10-01T07:45:29Z</time>
      </trkpt>
      <trkpt lat="48.15492" lon="6.43554">
        <ele>432</ele>
        <time>2023-10-01T07:45:30Z</time>
      </trkpt>
      <trkpt lat="48.15494" lon="6.43556">
        <ele>432</ele>
        <time>2023-10-01T07:45:31Z</time>
      </trkpt>
      <trkpt lat="48.15496" lon="6.43557">
        <ele>431.6</ele>
        <time>2023-10-01T07:45:32Z</time>
      </trkpt>
      <trkpt lat="48.15498" lon="6.4356">
        <ele>431.4</ele>
        <time>2023-10-01T07:45:33Z</time>
      </trkpt>
      <trkpt lat="48.155" lon="6.43563">
        <ele>430.8</ele>
        <time>2023-10-01T07:45:34Z</time>
      </trkpt>
      <trkpt lat="48.15502" lon="6.43567">
        <ele>430.4</ele>
        <time>2023-10-01T07:45:35Z</time>
      </trkpt>
      <trkpt lat="48.15505" lon="6.43571">
        <ele>430.2</ele>
        <time>2023-10-01T07:45:36Z</time>
      </trkpt>
      <trkpt lat="48.15507" lon="6.43577">
        <ele>429.4</ele>
        <time>2023-10-01T07:45:37Z</time>
      </trkpt>
      <trkpt lat="48.15508" lon="6.43583">
        <ele>429</ele>
        <time>2023-10-01T07:45:38Z</time>
      </trkpt>
      <trkpt lat="48.1551" lon="6.43589">
        <ele>428</ele>
        <time>2023-10-01T07:45:39Z</time>
      </trkpt>
      <trkpt lat="48.15515" lon="6.43597">
        <ele>427.4</ele>
        <time>2023-10-01T07:45:40Z</time>
      </trkpt>
      <trkpt lat="48.15515" lon="6.43602">
        <ele>426.6</ele>
        <time>2023-10-01T07:45:41Z</time>
      </trkpt>
      <trkpt lat="48.15514" lon="6.43606">
        <ele>426.4</ele>
        <time>2023-10-01T07:45:42Z</time>
      </trkpt>
      <trkpt lat="48.15513" lon="6.43609">
        <ele>425.8</ele>
        <time>2023-10-01T07:45:43Z</time>
      </trkpt>
      <trkpt lat="48.15512" lon="6.43612">
        <ele>425.4</ele>
        <time>2023-10-01T07:45:44Z</time>
      </trkpt>
      <trkpt lat="48.15512" lon="6.43617">
        <ele>425</ele>
        <time>2023-10-01T07:45:45Z</time>
      </trkpt>
      <trkpt lat="48.15512" lon="6.4362">
        <ele>424.4</ele>
        <time>2023-10-01T07:45:46Z</time>
      </trkpt>
      <trkpt lat="48.15513" lon="6.43624">
        <ele>423.6</ele>
        <time>2023-10-01T07:45:47Z</time>
      </trkpt>
      <trkpt lat="48.15514" lon="6.43627">
        <ele>422.6</ele>
        <time>2023-10-01T07:45:48Z</time>
      </trkpt>
      <trkpt lat="48.15515" lon="6.4363">
        <ele>421.6</ele>
        <time>2023-10-01T07:45:49Z</time>
      </trkpt>
      <trkpt lat="48.15515" lon="6.43635">
        <ele>421.2</ele>
        <time>2023-10-01T07:45:50Z</time>
      </trkpt>
      <trkpt lat="48.15516" lon="6.43638">
        <ele>420.6</ele>
        <time>2023-10-01T07:45:51Z</time>
      </trkpt>
      <trkpt lat="48.15518" lon="6.43642">
        <ele>420.4</ele>
        <time>2023-10-01T07:45:52Z</time>
      </trkpt>
      <trkpt lat="48.15519" lon="6.43645">
        <ele>420.4</ele>
        <time>2023-10-01T07:45:53Z</time>
      </trkpt>
      <trkpt lat="48.15518" lon="6.43648">
        <ele>420.4</ele>
        <time>2023-10-01T07:45:54Z</time>
      </trkpt>
      <trkpt lat="48.15518" lon="6.43651">
        <ele>420.4</ele>
        <time>2023-10-01T07:45:55Z</time>
      </trkpt>
      <trkpt lat="48.15518" lon="6.43655">
        <ele>420.4</ele>
        <time>2023-10-01T07:45:56Z</time>
      </trkpt>
      <trkpt lat="48.1552" lon="6.43661">
        <ele>420.4</ele>
        <time>2023-10-01T07:45:57Z</time>
      </trkpt>
      <trkpt lat="48.15524" lon="6.43666">
        <ele>420.6</ele>
        <time>2023-10-01T07:45:58Z</time>
      </trkpt>
      <trkpt lat="48.15531" lon="6.43673">
        <ele>420.6</ele>
        <time>2023-10-01T07:45:59Z</time>
      </trkpt>
      <trkpt lat="48.15536" lon="6.43678">
        <ele>420.8</ele>
        <time>2023-10-01T07:46:00Z</time>
      </trkpt>
      <trkpt lat="48.15539" lon="6.43683">
        <ele>421</ele>
        <time>2023-10-01T07:46:01Z</time>
      </trkpt>
      <trkpt lat="48.1554" lon="6.43686">
        <ele>421.2</ele>
        <time>2023-10-01T07:46:02Z</time>
      </trkpt>
      <trkpt lat="48.15543" lon="6.4369">
        <ele>421.2</ele>
        <time>2023-10-01T07:46:03Z</time>
      </trkpt>
      <trkpt lat="48.15545" lon="6.43694">
        <ele>421.4</ele>
        <time>2023-10-01T07:46:04Z</time>
      </trkpt>
      <trkpt lat="48.15546" lon="6.43699">
        <ele>421.8</ele>
        <time>2023-10-01T07:46:05Z</time>
      </trkpt>
      <trkpt lat="48.15544" lon="6.43708">
        <ele>422</ele>
        <time>2023-10-01T07:46:06Z</time>
      </trkpt>
      <trkpt lat="48.15542" lon="6.43718">
        <ele>422</ele>
        <time>2023-10-01T07:46:07Z</time>
      </trkpt>
      <trkpt lat="48.15539" lon="6.43727">
        <ele>422.4</ele>
        <time>2023-10-01T07:46:08Z</time>
      </trkpt>
      <trkpt lat="48.15538" lon="6.43735">
        <ele>422.4</ele>
        <time>2023-10-01T07:46:09Z</time>
      </trkpt>
      <trkpt lat="48.15537" lon="6.43743">
        <ele>422.2</ele>
        <time>2023-10-01T07:46:10Z</time>
      </trkpt>
      <trkpt lat="48.15535" lon="6.4375">
        <ele>422.2</ele>
        <time>2023-10-01T07:46:11Z</time>
      </trkpt>
      <trkpt lat="48.15533" lon="6.43755">
        <ele>422.2</ele>
        <time>2023-10-01T07:46:12Z</time>
      </trkpt>
      <trkpt lat="48.15527" lon="6.43758">
        <ele>422</ele>
        <time>2023-10-01T07:46:13Z</time>
      </trkpt>
      <trkpt lat="48.15525" lon="6.4376">
        <ele>421.8</ele>
        <time>2023-10-01T07:46:14Z</time>
      </trkpt>
      <trkpt lat="48.15524" lon="6.43763">
        <ele>421.8</ele>
        <time>2023-10-01T07:46:15Z</time>
      </trkpt>
      <trkpt lat="48.15522" lon="6.43766">
        <ele>421.6</ele>
        <time>2023-10-01T07:46:16Z</time>
      </trkpt>
      <trkpt lat="48.15523" lon="6.43768">
        <ele>421.6</ele>
        <time>2023-10-01T07:46:17Z</time>
      </trkpt>
      <trkpt lat="48.15523" lon="6.43772">
        <ele>421.8</ele>
        <time>2023-10-01T07:46:18Z</time>
      </trkpt>
      <trkpt lat="48.15524" lon="6.43775">
        <ele>421.8</ele>
        <time>2023-10-01T07:46:19Z</time>
      </trkpt>
      <trkpt lat="48.15525" lon="6.43777">
        <ele>422</ele>
        <time>2023-10-01T07:46:20Z</time>
      </trkpt>
      <trkpt lat="48.15525" lon="6.43779">
        <ele>422.2</ele>
        <time>2023-10-01T07:46:21Z</time>
      </trkpt>
      <trkpt lat="48.15526" lon="6.4378">
        <ele>422.2</ele>
        <time>2023-10-01T07:46:22Z</time>
      </trkpt>
      <trkpt lat="48.15527" lon="6.43784">
        <ele>422.8</ele>
        <time>2023-10-01T07:46:23Z</time>
      </trkpt>
      <trkpt lat="48.15527" lon="6.43789">
        <ele>423.2</ele>
        <time>2023-10-01T07:46:24Z</time>
      </trkpt>
      <trkpt lat="48.15527" lon="6.43793">
        <ele>423.4</ele>
        <time>2023-10-01T07:46:25Z</time>
      </trkpt>
      <trkpt lat="48.15528" lon="6.43796">
        <ele>423.6</ele>
        <time>2023-10-01T07:46:26Z</time>
      </trkpt>
      <trkpt lat="48.15528" lon="6.43799">
        <ele>423.8</ele>
        <time>2023-10-01T07:46:27Z</time>
      </trkpt>
      <trkpt lat="48.15527" lon="6.43802">
        <ele>424</ele>
        <time>2023-10-01T07:46:28Z</time>
      </trkpt>
      <trkpt lat="48.15527" lon="6.43804">
        <ele>424.2</ele>
        <time>2023-10-01T07:46:29Z</time>
      </trkpt>
      <trkpt lat="48.15527" lon="6.43807">
        <ele>424.2</ele>
        <time>2023-10-01T07:46:30Z</time>
      </trkpt>
      <trkpt lat="48.15528" lon="6.4381">
        <ele>424.8</ele>
        <time>2023-10-01T07:46:31Z</time>
      </trkpt>
      <trkpt lat="48.15529" lon="6.43813">
        <ele>425</ele>
        <time>2023-10-01T07:46:32Z</time>
      </trkpt>
      <trkpt lat="48.15529" lon="6.43815">
        <ele>425.8</ele>
        <time>2023-10-01T07:46:33Z</time>
      </trkpt>
      <trkpt lat="48.15529" lon="6.43818">
        <ele>426</ele>
        <time>2023-10-01T07:46:34Z</time>
      </trkpt>
      <trkpt lat="48.1553" lon="6.4382">
        <ele>426.4</ele>
        <time>2023-10-01T07:46:35Z</time>
      </trkpt>
      <trkpt lat="48.15532" lon="6.43823">
        <ele>426.6</ele>
        <time>2023-10-01T07:46:36Z</time>
      </trkpt>
      <trkpt lat="48.15533" lon="6.43825">
        <ele>426.8</ele>
        <time>2023-10-01T07:46:37Z</time>
      </trkpt>
      <trkpt lat="48.15533" lon="6.43827">
        <ele>426.8</ele>
        <time>2023-10-01T07:46:38Z</time>
      </trkpt>
      <trkpt lat="48.15533" lon="6.43828">
        <ele>427.2</ele>
        <time>2023-10-01T07:46:39Z</time>
      </trkpt>
      <trkpt lat="48.15533" lon="6.43831">
        <ele>427.6</ele>
        <time>2023-10-01T07:46:40Z</time>
      </trkpt>
      <trkpt lat="48.15533" lon="6.43833">
        <ele>427.8</ele>
        <time>2023-10-01T07:46:41Z</time>
      </trkpt>
      <trkpt lat="48.15533" lon="6.43836">
        <ele>428.2</ele>
        <time>2023-10-01T07:46:42Z</time>
      </trkpt>
      <trkpt lat="48.15533" lon="6.43839">
        <ele>428.6</ele>
        <time>2023-10-01T07:46:43Z</time>
      </trkpt>
      <trkpt lat="48.15533" lon="6.43842">
        <ele>428.8</ele>
        <time>2023-10-01T07:46:44Z</time>
      </trkpt>
      <trkpt lat="48.15534" lon="6.43844">
        <ele>429.2</ele>
        <time>2023-10-01T07:46:45Z</time>
      </trkpt>
      <trkpt lat="48.15533" lon="6.43847">
        <ele>429.6</ele>
        <time>2023-10-01T07:46:46Z</time>
      </trkpt>
      <trkpt lat="48.15532" lon="6.4385">
        <ele>429.8</ele>
        <time>2023-10-01T07:46:47Z</time>
      </trkpt>
      <trkpt lat="48.15533" lon="6.43855">
        <ele>430.2</ele>
        <time>2023-10-01T07:46:48Z</time>
      </trkpt>
      <trkpt lat="48.15531" lon="6.4386">
        <ele>430.2</ele>
        <time>2023-10-01T07:46:49Z</time>
      </trkpt>
      <trkpt lat="48.15531" lon="6.43865">
        <ele>430.6</ele>
        <time>2023-10-01T07:46:50Z</time>
      </trkpt>
      <trkpt lat="48.15532" lon="6.43868">
        <ele>430.6</ele>
        <time>2023-10-01T07:46:51Z</time>
      </trkpt>
      <trkpt lat="48.15531" lon="6.43872">
        <ele>430.8</ele>
        <time>2023-10-01T07:46:52Z</time>
      </trkpt>
      <trkpt lat="48.15532" lon="6.43874">
        <ele>431</ele>
        <time>2023-10-01T07:46:53Z</time>
      </trkpt>
      <trkpt lat="48.15532" lon="6.43878">
        <ele>431</ele>
        <time>2023-10-01T07:46:54Z</time>
      </trkpt>
      <trkpt lat="48.15531" lon="6.43881">
        <ele>431.2</ele>
        <time>2023-10-01T07:46:55Z</time>
      </trkpt>
      <trkpt lat="48.15531" lon="6.43884">
        <ele>431.4</ele>
        <time>2023-10-01T07:46:56Z</time>
      </trkpt>
      <trkpt lat="48.15531" lon="6.43886">
        <ele>431.6</ele>
        <time>2023-10-01T07:46:57Z</time>
      </trkpt>
      <trkpt lat="48.15531" lon="6.43889">
        <ele>431.6</ele>
        <time>2023-10-01T07:46:58Z</time>
      </trkpt>
      <trkpt lat="48.15531" lon="6.43892">
        <ele>431.6</ele>
        <time>2023-10-01T07:46:59Z</time>
      </trkpt>
      <trkpt lat="48.15531" lon="6.43895">
        <ele>432</ele>
        <time>2023-10-01T07:47:00Z</time>
      </trkpt>
      <trkpt lat="48.15531" lon="6.43898">
        <ele>432.2</ele>
        <time>2023-10-01T07:47:01Z</time>
      </trkpt>
      <trkpt lat="48.15531" lon="6.43901">
        <ele>432.4</ele>
        <time>2023-10-01T07:47:02Z</time>
      </trkpt>
      <trkpt lat="48.15532" lon="6.43904">
        <ele>432.4</ele>
        <time>2023-10-01T07:47:03Z</time>
      </trkpt>
      <trkpt lat="48.15533" lon="6.43907">
        <ele>432.6</ele>
        <time>2023-10-01T07:47:04Z</time>
      </trkpt>
      <trkpt lat="48.15533" lon="6.43911">
        <ele>432.6</ele>
        <time>2023-10-01T07:47:05Z</time>
      </trkpt>
      <trkpt lat="48.15534" lon="6.43915">
        <ele>432.8</ele>
        <time>2023-10-01T07:47:06Z</time>
      </trkpt>
      <trkpt lat="48.15534" lon="6.43919">
        <ele>432.8</ele>
        <time>2023-10-01T07:47:07Z</time>
      </trkpt>
      <trkpt lat="48.15535" lon="6.43922">
        <ele>432.8</ele>
        <time>2023-10-01T07:47:08Z</time>
      </trkpt>
      <trkpt lat="48.15533" lon="6.43927">
        <ele>433</ele>
        <time>2023-10-01T07:47:09Z</time>
      </trkpt>
      <trkpt lat="48.15535" lon="6.43932">
        <ele>433</ele>
        <time>2023-10-01T07:47:10Z</time>
      </trkpt>
      <trkpt lat="48.15536" lon="6.43935">
        <ele>433</ele>
        <time>2023-10-01T07:47:11Z</time>
      </trkpt>
      <trkpt lat="48.15538" lon="6.4394">
        <ele>433</ele>
        <time>2023-10-01T07:47:12Z</time>
      </trkpt>
      <trkpt lat="48.15539" lon="6.43943">
        <ele>433.2</ele>
        <time>2023-10-01T07:47:13Z</time>
      </trkpt>
      <trkpt lat="48.1554" lon="6.43946">
        <ele>433.4</ele>
        <time>2023-10-01T07:47:14Z</time>
      </trkpt>
      <trkpt lat="48.15541" lon="6.43949">
        <ele>433.4</ele>
        <time>2023-10-01T07:47:15Z</time>
      </trkpt>
      <trkpt lat="48.15541" lon="6.43949">
        <ele>433.4</ele>
        <time>2023-10-01T07:47:16Z</time>
      </trkpt>
      <trkpt lat="48.15541" lon="6.43951">
        <ele>433.4</ele>
        <time>2023-10-01T07:47:17Z</time>
      </trkpt>
      <trkpt lat="48.15541" lon="6.43954">
        <ele>433.6</ele>
        <time>2023-10-01T07:47:18Z</time>
      </trkpt>
      <trkpt lat="48.15541" lon="6.43957">
        <ele>433.8</ele>
        <time>2023-10-01T07:47:19Z</time>
      </trkpt>
      <trkpt lat="48.15542" lon="6.43961">
        <ele>433.8</ele>
        <time>2023-10-01T07:47:20Z</time>
      </trkpt>
      <trkpt lat="48.15542" lon="6.43964">
        <ele>434</ele>
        <time>2023-10-01T07:47:21Z</time>
      </trkpt>
      <trkpt lat="48.15543" lon="6.43968">
        <ele>434</ele>
        <time>2023-10-01T07:47:22Z</time>
      </trkpt>
      <trkpt lat="48.15544" lon="6.43971">
        <ele>434.2</ele>
        <time>2023-10-01T07:47:23Z</time>
      </trkpt>
      <trkpt lat="48.15545" lon="6.43973">
        <ele>434.4</ele>
        <time>2023-10-01T07:47:24Z</time>
      </trkpt>
      <trkpt lat="48.15547" lon="6.43975">
        <ele>434.6</ele>
        <time>2023-10-01T07:47:25Z</time>
      </trkpt>
      <trkpt lat="48.15548" lon="6.43978">
        <ele>434.6</ele>
        <time>2023-10-01T07:47:26Z</time>
      </trkpt>
      <trkpt lat="48.15549" lon="6.43982">
        <ele>434.8</ele>
        <time>2023-10-01T07:47:27Z</time>
      </trkpt>
      <trkpt lat="48.1555" lon="6.43986">
        <ele>435</ele>
        <time>2023-10-01T07:47:28Z</time>
      </trkpt>
      <trkpt lat="48.15551" lon="6.43989">
        <ele>435</ele>
        <time>2023-10-01T07:47:29Z</time>
      </trkpt>
      <trkpt lat="48.15552" lon="6.43993">
        <ele>435.2</ele>
        <time>2023-10-01T07:47:30Z</time>
      </trkpt>
      <trkpt lat="48.15553" lon="6.43997">
        <ele>435.2</ele>
        <time>2023-10-01T07:47:31Z</time>
      </trkpt>
      <trkpt lat="48.15554" lon="6.44001">
        <ele>435.4</ele>
        <time>2023-10-01T07:47:32Z</time>
      </trkpt>
      <trkpt lat="48.15555" lon="6.44005">
        <ele>435.6</ele>
        <time>2023-10-01T07:47:33Z</time>
      </trkpt>
      <trkpt lat="48.15556" lon="6.44009">
        <ele>435.6</ele>
        <time>2023-10-01T07:47:34Z</time>
      </trkpt>
      <trkpt lat="48.15558" lon="6.44013">
        <ele>435.6</ele>
        <time>2023-10-01T07:47:35Z</time>
      </trkpt>
      <trkpt lat="48.1556" lon="6.44016">
        <ele>435.8</ele>
        <time>2023-10-01T07:47:36Z</time>
      </trkpt>
      <trkpt lat="48.15561" lon="6.44019">
        <ele>435.8</ele>
        <time>2023-10-01T07:47:37Z</time>
      </trkpt>
      <trkpt lat="48.15563" lon="6.44023">
        <ele>436</ele>
        <time>2023-10-01T07:47:38Z</time>
      </trkpt>
      <trkpt lat="48.15564" lon="6.44026">
        <ele>436</ele>
        <time>2023-10-01T07:47:39Z</time>
      </trkpt>
      <trkpt lat="48.15565" lon="6.44028">
        <ele>436.2</ele>
        <time>2023-10-01T07:47:40Z</time>
      </trkpt>
      <trkpt lat="48.15566" lon="6.4403">
        <ele>436.4</ele>
        <time>2023-10-01T07:47:41Z</time>
      </trkpt>
      <trkpt lat="48.15568" lon="6.44034">
        <ele>436.4</ele>
        <time>2023-10-01T07:47:42Z</time>
      </trkpt>
      <trkpt lat="48.15569" lon="6.44038">
        <ele>436.4</ele>
        <time>2023-10-01T07:47:43Z</time>
      </trkpt>
      <trkpt lat="48.1557" lon="6.44042">
        <ele>436.6</ele>
        <time>2023-10-01T07:47:44Z</time>
      </trkpt>
      <trkpt lat="48.15571" lon="6.44046">
        <ele>436.6</ele>
        <time>2023-10-01T07:47:45Z</time>
      </trkpt>
      <trkpt lat="48.15573" lon="6.44052">
        <ele>436.6</ele>
        <time>2023-10-01T07:47:46Z</time>
      </trkpt>
      <trkpt lat="48.15574" lon="6.44055">
        <ele>436.6</ele>
        <time>2023-10-01T07:47:47Z</time>
      </trkpt>
      <trkpt lat="48.15575" lon="6.44059">
        <ele>436.8</ele>
        <time>2023-10-01T07:47:48Z</time>
      </trkpt>
      <trkpt lat="48.15577" lon="6.44064">
        <ele>436.8</ele>
        <time>2023-10-01T07:47:49Z</time>
      </trkpt>
      <trkpt lat="48.15579" lon="6.44068">
        <ele>436.8</ele>
        <time>2023-10-01T07:47:50Z</time>
      </trkpt>
      <trkpt lat="48.15581" lon="6.44071">
        <ele>436.8</ele>
        <time>2023-10-01T07:47:51Z</time>
      </trkpt>
      <trkpt lat="48.15583" lon="6.44073">
        <ele>436.8</ele>
        <time>2023-10-01T07:47:52Z</time>
      </trkpt>
      <trkpt lat="48.15586" lon="6.44076">
        <ele>437</ele>
        <time>2023-10-01T07:47:53Z</time>
      </trkpt>
      <trkpt lat="48.15588" lon="6.44078">
        <ele>437.2</ele>
        <time>2023-10-01T07:47:54Z</time>
      </trkpt>
      <trkpt lat="48.15589" lon="6.44082">
        <ele>437.2</ele>
        <time>2023-10-01T07:47:55Z</time>
      </trkpt>
      <trkpt lat="48.15591" lon="6.44085">
        <ele>437.4</ele>
        <time>2023-10-01T07:47:56Z</time>
      </trkpt>
      <trkpt lat="48.15593" lon="6.44088">
        <ele>437.4</ele>
        <time>2023-10-01T07:47:57Z</time>
      </trkpt>
      <trkpt lat="48.15595" lon="6.44092">
        <ele>437.4</ele>
        <time>2023-10-01T07:47:58Z</time>
      </trkpt>
      <trkpt lat="48.15596" lon="6.44095">
        <ele>437.6</ele>
        <time>2023-10-01T07:47:59Z</time>
      </trkpt>
      <trkpt lat="48.15597" lon="6.44099">
        <ele>437.8</ele>
        <time>2023-10-01T07:48:00Z</time>
      </trkpt>
      <trkpt lat="48.15597" lon="6.44103">
        <ele>438</ele>
        <time>2023-10-01T07:48:01Z</time>
      </trkpt>
      <trkpt lat="48.15599" lon="6.44108">
        <ele>438</ele>
        <time>2023-10-01T07:48:02Z</time>
      </trkpt>
      <trkpt lat="48.156" lon="6.44113">
        <ele>438</ele>
        <time>2023-10-01T07:48:03Z</time>
      </trkpt>
      <trkpt lat="48.15601" lon="6.44119">
        <ele>438</ele>
        <time>2023-10-01T07:48:04Z</time>
      </trkpt>
      <trkpt lat="48.15602" lon="6.44124">
        <ele>438.2</ele>
        <time>2023-10-01T07:48:05Z</time>
      </trkpt>
      <trkpt lat="48.15601" lon="6.44131">
        <ele>438.2</ele>
        <time>2023-10-01T07:48:06Z</time>
      </trkpt>
      <trkpt lat="48.15599" lon="6.44138">
        <ele>438.2</ele>
        <time>2023-10-01T07:48:07Z</time>
      </trkpt>
      <trkpt lat="48.15598" lon="6.44146">
        <ele>438.2</ele>
        <time>2023-10-01T07:48:08Z</time>
      </trkpt>
      <trkpt lat="48.15597" lon="6.44153">
        <ele>438.4</ele>
        <time>2023-10-01T07:48:09Z</time>
      </trkpt>
      <trkpt lat="48.15596" lon="6.44161">
        <ele>438.2</ele>
        <time>2023-10-01T07:48:10Z</time>
      </trkpt>
      <trkpt lat="48.15594" lon="6.4417">
        <ele>438.2</ele>
        <time>2023-10-01T07:48:11Z</time>
      </trkpt>
      <trkpt lat="48.15592" lon="6.44178">
        <ele>438</ele>
        <time>2023-10-01T07:48:12Z</time>
      </trkpt>
      <trkpt lat="48.15589" lon="6.44188">
        <ele>437.8</ele>
        <time>2023-10-01T07:48:13Z</time>
      </trkpt>
      <trkpt lat="48.15587" lon="6.44197">
        <ele>437.2</ele>
        <time>2023-10-01T07:48:14Z</time>
      </trkpt>
      <trkpt lat="48.15584" lon="6.44207">
        <ele>437</ele>
        <time>2023-10-01T07:48:15Z</time>
      </trkpt>
      <trkpt lat="48.15582" lon="6.44218">
        <ele>436.8</ele>
        <time>2023-10-01T07:48:16Z</time>
      </trkpt>
      <trkpt lat="48.15581" lon="6.44229">
        <ele>436.6</ele>
        <time>2023-10-01T07:48:17Z</time>
      </trkpt>
      <trkpt lat="48.15579" lon="6.44241">
        <ele>436</ele>
        <time>2023-10-01T07:48:18Z</time>
      </trkpt>
      <trkpt lat="48.15577" lon="6.44253">
        <ele>435.8</ele>
        <time>2023-10-01T07:48:19Z</time>
      </trkpt>
      <trkpt lat="48.15574" lon="6.44264">
        <ele>435.6</ele>
        <time>2023-10-01T07:48:20Z</time>
      </trkpt>
      <trkpt lat="48.15571" lon="6.44275">
        <ele>435.4</ele>
        <time>2023-10-01T07:48:21Z</time>
      </trkpt>
      <trkpt lat="48.1557" lon="6.44286">
        <ele>435.2</ele>
        <time>2023-10-01T07:48:22Z</time>
      </trkpt>
      <trkpt lat="48.1557" lon="6.44296">
        <ele>435.2</ele>
        <time>2023-10-01T07:48:23Z</time>
      </trkpt>
      <trkpt lat="48.15572" lon="6.44306">
        <ele>434.8</ele>
        <time>2023-10-01T07:48:24Z</time>
      </trkpt>
      <trkpt lat="48.15575" lon="6.44316">
        <ele>434.8</ele>
        <time>2023-10-01T07:48:25Z</time>
      </trkpt>
      <trkpt lat="48.15579" lon="6.44327">
        <ele>433.6</ele>
        <time>2023-10-01T07:48:26Z</time>
      </trkpt>
      <trkpt lat="48.15583" lon="6.4434">
        <ele>433</ele>
        <time>2023-10-01T07:48:27Z</time>
      </trkpt>
      <trkpt lat="48.15586" lon="6.44352">
        <ele>431.6</ele>
        <time>2023-10-01T07:48:28Z</time>
      </trkpt>
      <trkpt lat="48.15588" lon="6.44367">
        <ele>431.2</ele>
        <time>2023-10-01T07:48:29Z</time>
      </trkpt>
      <trkpt lat="48.15592" lon="6.44383">
        <ele>430</ele>
        <time>2023-10-01T07:48:30Z</time>
      </trkpt>
      <trkpt lat="48.15597" lon="6.444">
        <ele>429.6</ele>
        <time>2023-10-01T07:48:31Z</time>
      </trkpt>
      <trkpt lat="48.15605" lon="6.44417">
        <ele>429</ele>
        <time>2023-10-01T07:48:32Z</time>
      </trkpt>
      <trkpt lat="48.15607" lon="6.44431">
        <ele>428.4</ele>
        <time>2023-10-01T07:48:33Z</time>
      </trkpt>
      <trkpt lat="48.15607" lon="6.44444">
        <ele>427.2</ele>
        <time>2023-10-01T07:48:34Z</time>
      </trkpt>
      <trkpt lat="48.15607" lon="6.44458">
        <ele>425.2</ele>
        <time>2023-10-01T07:48:35Z</time>
      </trkpt>
      <trkpt lat="48.15608" lon="6.44468">
        <ele>424</ele>
        <time>2023-10-01T07:48:36Z</time>
      </trkpt>
      <trkpt lat="48.1561" lon="6.44479">
        <ele>422.4</ele>
        <time>2023-10-01T07:48:37Z</time>
      </trkpt>
      <trkpt lat="48.15613" lon="6.44489">
        <ele>421.6</ele>
        <time>2023-10-01T07:48:38Z</time>
      </trkpt>
      <trkpt lat="48.15616" lon="6.44499">
        <ele>420.2</ele>
        <time>2023-10-01T07:48:39Z</time>
      </trkpt>
      <trkpt lat="48.15618" lon="6.44509">
        <ele>419.4</ele>
        <time>2023-10-01T07:48:40Z</time>
      </trkpt>
      <trkpt lat="48.15619" lon="6.4452">
        <ele>418.2</ele>
        <time>2023-10-01T07:48:41Z</time>
      </trkpt>
      <trkpt lat="48.15623" lon="6.4453">
        <ele>417.6</ele>
        <time>2023-10-01T07:48:42Z</time>
      </trkpt>
      <trkpt lat="48.15627" lon="6.4454">
        <ele>415.4</ele>
        <time>2023-10-01T07:48:43Z</time>
      </trkpt>
      <trkpt lat="48.15629" lon="6.44551">
        <ele>414.8</ele>
        <time>2023-10-01T07:48:44Z</time>
      </trkpt>
      <trkpt lat="48.15631" lon="6.44562">
        <ele>413.4</ele>
        <time>2023-10-01T07:48:45Z</time>
      </trkpt>
      <trkpt lat="48.15631" lon="6.44572">
        <ele>412.8</ele>
        <time>2023-10-01T07:48:46Z</time>
      </trkpt>
      <trkpt lat="48.15631" lon="6.4458">
        <ele>412</ele>
        <time>2023-10-01T07:48:47Z</time>
      </trkpt>
      <trkpt lat="48.15632" lon="6.44587">
        <ele>411.4</ele>
        <time>2023-10-01T07:48:48Z</time>
      </trkpt>
      <trkpt lat="48.15635" lon="6.44595">
        <ele>410.4</ele>
        <time>2023-10-01T07:48:49Z</time>
      </trkpt>
      <trkpt lat="48.15638" lon="6.446">
        <ele>409.6</ele>
        <time>2023-10-01T07:48:50Z</time>
      </trkpt>
      <trkpt lat="48.1564" lon="6.44605">
        <ele>408</ele>
        <time>2023-10-01T07:48:51Z</time>
      </trkpt>
      <trkpt lat="48.15642" lon="6.44609">
        <ele>407.4</ele>
        <time>2023-10-01T07:48:52Z</time>
      </trkpt>
      <trkpt lat="48.15643" lon="6.44615">
        <ele>406.2</ele>
        <time>2023-10-01T07:48:53Z</time>
      </trkpt>
      <trkpt lat="48.15644" lon="6.4462">
        <ele>405.6</ele>
        <time>2023-10-01T07:48:54Z</time>
      </trkpt>
      <trkpt lat="48.15644" lon="6.44623">
        <ele>404.8</ele>
        <time>2023-10-01T07:48:55Z</time>
      </trkpt>
      <trkpt lat="48.15643" lon="6.44626">
        <ele>404.2</ele>
        <time>2023-10-01T07:48:56Z</time>
      </trkpt>
      <trkpt lat="48.15641" lon="6.44631">
        <ele>404</ele>
        <time>2023-10-01T07:48:57Z</time>
      </trkpt>
      <trkpt lat="48.1564" lon="6.44635">
        <ele>403.8</ele>
        <time>2023-10-01T07:48:58Z</time>
      </trkpt>
      <trkpt lat="48.15639" lon="6.4464">
        <ele>403.8</ele>
        <time>2023-10-01T07:48:59Z</time>
      </trkpt>
      <trkpt lat="48.15637" lon="6.44646">
        <ele>402.8</ele>
        <time>2023-10-01T07:49:00Z</time>
      </trkpt>
      <trkpt lat="48.15634" lon="6.44651">
        <ele>402.4</ele>
        <time>2023-10-01T07:49:01Z</time>
      </trkpt>
      <trkpt lat="48.15631" lon="6.44654">
        <ele>401.6</ele>
        <time>2023-10-01T07:49:02Z</time>
      </trkpt>
      <trkpt lat="48.15628" lon="6.44655">
        <ele>401.2</ele>
        <time>2023-10-01T07:49:03Z</time>
      </trkpt>
      <trkpt lat="48.15625" lon="6.44653">
        <ele>400</ele>
        <time>2023-10-01T07:49:04Z</time>
      </trkpt>
      <trkpt lat="48.15622" lon="6.44652">
        <ele>399.8</ele>
        <time>2023-10-01T07:49:05Z</time>
      </trkpt>
      <trkpt lat="48.15619" lon="6.44651">
        <ele>399.4</ele>
        <time>2023-10-01T07:49:06Z</time>
      </trkpt>
      <trkpt lat="48.15618" lon="6.44651">
        <ele>399.4</ele>
        <time>2023-10-01T07:49:07Z</time>
      </trkpt>
      <trkpt lat="48.15616" lon="6.44653">
        <ele>399.4</ele>
        <time>2023-10-01T07:49:08Z</time>
      </trkpt>
      <trkpt lat="48.15614" lon="6.44652">
        <ele>399.4</ele>
        <time>2023-10-01T07:49:09Z</time>
      </trkpt>
      <trkpt lat="48.15611" lon="6.44654">
        <ele>399.4</ele>
        <time>2023-10-01T07:49:10Z</time>
      </trkpt>
      <trkpt lat="48.15609" lon="6.44654">
        <ele>399.4</ele>
        <time>2023-10-01T07:49:11Z</time>
      </trkpt>
      <trkpt lat="48.15607" lon="6.44655">
        <ele>400</ele>
        <time>2023-10-01T07:49:12Z</time>
      </trkpt>
      <trkpt lat="48.15605" lon="6.44657">
        <ele>400.4</ele>
        <time>2023-10-01T07:49:13Z</time>
      </trkpt>
      <trkpt lat="48.15601" lon="6.44657">
        <ele>400.6</ele>
        <time>2023-10-01T07:49:14Z</time>
      </trkpt>
      <trkpt lat="48.15598" lon="6.44659">
        <ele>400.6</ele>
        <time>2023-10-01T07:49:15Z</time>
      </trkpt>
      <trkpt lat="48.15595" lon="6.44662">
        <ele>401.2</ele>
        <time>2023-10-01T07:49:16Z</time>
      </trkpt>
      <trkpt lat="48.15591" lon="6.44665">
        <ele>401.2</ele>
        <time>2023-10-01T07:49:17Z</time>
      </trkpt>
      <trkpt lat="48.15588" lon="6.44666">
        <ele>401.4</ele>
        <time>2023-10-01T07:49:18Z</time>
      </trkpt>
      <trkpt lat="48.15585" lon="6.44668">
        <ele>401.4</ele>
        <time>2023-10-01T07:49:19Z</time>
      </trkpt>
      <trkpt lat="48.15581" lon="6.44672">
        <ele>401.4</ele>
        <time>2023-10-01T07:49:20Z</time>
      </trkpt>
      <trkpt lat="48.15578" lon="6.44676">
        <ele>401.4</ele>
        <time>2023-10-01T07:49:21Z</time>
      </trkpt>
      <trkpt lat="48.15574" lon="6.44678">
        <ele>401.2</ele>
        <time>2023-10-01T07:49:22Z</time>
      </trkpt>
      <trkpt lat="48.1557" lon="6.44677">
        <ele>401</ele>
        <time>2023-10-01T07:49:23Z</time>
      </trkpt>
      <trkpt lat="48.15566" lon="6.44675">
        <ele>400.6</ele>
        <time>2023-10-01T07:49:24Z</time>
      </trkpt>
      <trkpt lat="48.15563" lon="6.44675">
        <ele>399.6</ele>
        <time>2023-10-01T07:49:25Z</time>
      </trkpt>
      <trkpt lat="48.15558" lon="6.44675">
        <ele>399</ele>
        <time>2023-10-01T07:49:26Z</time>
      </trkpt>
      <trkpt lat="48.15554" lon="6.44673">
        <ele>398.4</ele>
        <time>2023-10-01T07:49:27Z</time>
      </trkpt>
      <trkpt lat="48.1555" lon="6.44671">
        <ele>398</ele>
        <time>2023-10-01T07:49:28Z</time>
      </trkpt>
      <trkpt lat="48.15545" lon="6.44669">
        <ele>397.6</ele>
        <time>2023-10-01T07:49:29Z</time>
      </trkpt>
      <trkpt lat="48.1554" lon="6.44666">
        <ele>397.2</ele>
        <time>2023-10-01T07:49:30Z</time>
      </trkpt>
      <trkpt lat="48.15535" lon="6.44663">
        <ele>397</ele>
        <time>2023-10-01T07:49:31Z</time>
      </trkpt>
      <trkpt lat="48.1553" lon="6.44661">
        <ele>396.8</ele>
        <time>2023-10-01T07:49:32Z</time>
      </trkpt>
      <trkpt lat="48.15527" lon="6.44658">
        <ele>396.2</ele>
        <time>2023-10-01T07:49:33Z</time>
      </trkpt>
      <trkpt lat="48.15524" lon="6.44655">
        <ele>395.8</ele>
        <time>2023-10-01T07:49:34Z</time>
      </trkpt>
      <trkpt lat="48.15521" lon="6.44652">
        <ele>395.2</ele>
        <time>2023-10-01T07:49:35Z</time>
      </trkpt>
      <trkpt lat="48.15518" lon="6.44649">
        <ele>395</ele>
        <time>2023-10-01T07:49:36Z</time>
      </trkpt>
      <trkpt lat="48.15516" lon="6.44646">
        <ele>394.6</ele>
        <time>2023-10-01T07:49:37Z</time>
      </trkpt>
      <trkpt lat="48.15513" lon="6.44642">
        <ele>394.4</ele>
        <time>2023-10-01T07:49:38Z</time>
      </trkpt>
      <trkpt lat="48.15511" lon="6.44638">
        <ele>394.4</ele>
        <time>2023-10-01T07:49:39Z</time>
      </trkpt>
      <trkpt lat="48.15511" lon="6.44635">
        <ele>394.2</ele>
        <time>2023-10-01T07:49:40Z</time>
      </trkpt>
      <trkpt lat="48.15511" lon="6.44631">
        <ele>394</ele>
        <time>2023-10-01T07:49:41Z</time>
      </trkpt>
      <trkpt lat="48.1551" lon="6.44628">
        <ele>394</ele>
        <time>2023-10-01T07:49:42Z</time>
      </trkpt>
      <trkpt lat="48.15507" lon="6.44623">
        <ele>393.8</ele>
        <time>2023-10-01T07:49:43Z</time>
      </trkpt>
      <trkpt lat="48.15506" lon="6.44619">
        <ele>393.8</ele>
        <time>2023-10-01T07:49:44Z</time>
      </trkpt>
      <trkpt lat="48.15506" lon="6.44613">
        <ele>393.6</ele>
        <time>2023-10-01T07:49:45Z</time>
      </trkpt>
      <trkpt lat="48.15504" lon="6.44607">
        <ele>393.6</ele>
        <time>2023-10-01T07:49:46Z</time>
      </trkpt>
      <trkpt lat="48.15503" lon="6.44601">
        <ele>393.6</ele>
        <time>2023-10-01T07:49:47Z</time>
      </trkpt>
      <trkpt lat="48.15501" lon="6.44595">
        <ele>393.6</ele>
        <time>2023-10-01T07:49:48Z</time>
      </trkpt>
      <trkpt lat="48.15499" lon="6.44589">
        <ele>393.6</ele>
        <time>2023-10-01T07:49:49Z</time>
      </trkpt>
      <trkpt lat="48.15498" lon="6.44583">
        <ele>393.2</ele>
        <time>2023-10-01T07:49:50Z</time>
      </trkpt>
      <trkpt lat="48.15496" lon="6.44575">
        <ele>393.2</ele>
        <time>2023-10-01T07:49:51Z</time>
      </trkpt>
      <trkpt lat="48.15495" lon="6.44569">
        <ele>393</ele>
        <time>2023-10-01T07:49:52Z</time>
      </trkpt>
      <trkpt lat="48.15493" lon="6.44562">
        <ele>393</ele>
        <time>2023-10-01T07:49:53Z</time>
      </trkpt>
      <trkpt lat="48.15489" lon="6.44556">
        <ele>392.8</ele>
        <time>2023-10-01T07:49:54Z</time>
      </trkpt>
      <trkpt lat="48.15486" lon="6.44549">
        <ele>392.8</ele>
        <time>2023-10-01T07:49:55Z</time>
      </trkpt>
      <trkpt lat="48.15484" lon="6.44541">
        <ele>392</ele>
        <time>2023-10-01T07:49:56Z</time>
      </trkpt>
      <trkpt lat="48.15482" lon="6.44534">
        <ele>391.8</ele>
        <time>2023-10-01T07:49:57Z</time>
      </trkpt>
      <trkpt lat="48.1548" lon="6.44526">
        <ele>391.2</ele>
        <time>2023-10-01T07:49:58Z</time>
      </trkpt>
      <trkpt lat="48.15477" lon="6.44518">
        <ele>391</ele>
        <time>2023-10-01T07:49:59Z</time>
      </trkpt>
      <trkpt lat="48.15473" lon="6.44509">
        <ele>390.8</ele>
        <time>2023-10-01T07:50:00Z</time>
      </trkpt>
      <trkpt lat="48.15469" lon="6.44502">
        <ele>390.6</ele>
        <time>2023-10-01T07:50:01Z</time>
      </trkpt>
      <trkpt lat="48.15464" lon="6.44496">
        <ele>390</ele>
        <time>2023-10-01T07:50:02Z</time>
      </trkpt>
      <trkpt lat="48.15459" lon="6.44491">
        <ele>389.4</ele>
        <time>2023-10-01T07:50:03Z</time>
      </trkpt>
      <trkpt lat="48.15456" lon="6.44487">
        <ele>389.2</ele>
        <time>2023-10-01T07:50:04Z</time>
      </trkpt>
      <trkpt lat="48.15455" lon="6.44481">
        <ele>388</ele>
        <time>2023-10-01T07:50:05Z</time>
      </trkpt>
      <trkpt lat="48.15456" lon="6.44477">
        <ele>387.2</ele>
        <time>2023-10-01T07:50:06Z</time>
      </trkpt>
      <trkpt lat="48.15455" lon="6.44472">
        <ele>386.4</ele>
        <time>2023-10-01T07:50:07Z</time>
      </trkpt>
      <trkpt lat="48.15455" lon="6.44468">
        <ele>386</ele>
        <time>2023-10-01T07:50:08Z</time>
      </trkpt>
      <trkpt lat="48.15455" lon="6.44465">
        <ele>385.6</ele>
        <time>2023-10-01T07:50:09Z</time>
      </trkpt>
      <trkpt lat="48.15455" lon="6.4446">
        <ele>385.4</ele>
        <time>2023-10-01T07:50:10Z</time>
      </trkpt>
      <trkpt lat="48.15455" lon="6.44456">
        <ele>385.4</ele>
        <time>2023-10-01T07:50:11Z</time>
      </trkpt>
      <trkpt lat="48.15455" lon="6.44452">
        <ele>385.4</ele>
        <time>2023-10-01T07:50:12Z</time>
      </trkpt>
      <trkpt lat="48.15456" lon="6.44449">
        <ele>385.2</ele>
        <time>2023-10-01T07:50:13Z</time>
      </trkpt>
      <trkpt lat="48.15456" lon="6.44447">
        <ele>385</ele>
        <time>2023-10-01T07:50:14Z</time>
      </trkpt>
      <trkpt lat="48.15456" lon="6.44442">
        <ele>385.4</ele>
        <time>2023-10-01T07:50:15Z</time>
      </trkpt>
      <trkpt lat="48.15455" lon="6.44436">
        <ele>385.6</ele>
        <time>2023-10-01T07:50:16Z</time>
      </trkpt>
      <trkpt lat="48.15454" lon="6.44432">
        <ele>385.8</ele>
        <time>2023-10-01T07:50:17Z</time>
      </trkpt>
      <trkpt lat="48.15453" lon="6.44427">
        <ele>386</ele>
        <time>2023-10-01T07:50:18Z</time>
      </trkpt>
      <trkpt lat="48.15452" lon="6.44423">
        <ele>386.2</ele>
        <time>2023-10-01T07:50:19Z</time>
      </trkpt>
      <trkpt lat="48.15453" lon="6.44419">
        <ele>386.2</ele>
        <time>2023-10-01T07:50:20Z</time>
      </trkpt>
      <trkpt lat="48.15452" lon="6.44414">
        <ele>386.6</ele>
        <time>2023-10-01T07:50:21Z</time>
      </trkpt>
      <trkpt lat="48.15452" lon="6.4441">
        <ele>386.6</ele>
        <time>2023-10-01T07:50:22Z</time>
      </trkpt>
      <trkpt lat="48.15452" lon="6.44408">
        <ele>387.2</ele>
        <time>2023-10-01T07:50:23Z</time>
      </trkpt>
      <trkpt lat="48.15453" lon="6.44405">
        <ele>387.6</ele>
        <time>2023-10-01T07:50:24Z</time>
      </trkpt>
      <trkpt lat="48.15451" lon="6.444">
        <ele>387.8</ele>
        <time>2023-10-01T07:50:25Z</time>
      </trkpt>
      <trkpt lat="48.1545" lon="6.44398">
        <ele>388.2</ele>
        <time>2023-10-01T07:50:26Z</time>
      </trkpt>
      <trkpt lat="48.1545" lon="6.44396">
        <ele>388.4</ele>
        <time>2023-10-01T07:50:27Z</time>
      </trkpt>
      <trkpt lat="48.15448" lon="6.44392">
        <ele>388.6</ele>
        <time>2023-10-01T07:50:28Z</time>
      </trkpt>
      <trkpt lat="48.15447" lon="6.44387">
        <ele>388.8</ele>
        <time>2023-10-01T07:50:29Z</time>
      </trkpt>
      <trkpt lat="48.15447" lon="6.44384">
        <ele>389</ele>
        <time>2023-10-01T07:50:30Z</time>
      </trkpt>
      <trkpt lat="48.15448" lon="6.44381">
        <ele>389.2</ele>
        <time>2023-10-01T07:50:31Z</time>
      </trkpt>
      <trkpt lat="48.15449" lon="6.44379">
        <ele>389.4</ele>
        <time>2023-10-01T07:50:32Z</time>
      </trkpt>
      <trkpt lat="48.15449" lon="6.44375">
        <ele>389.8</ele>
        <time>2023-10-01T07:50:33Z</time>
      </trkpt>
      <trkpt lat="48.1545" lon="6.44371">
        <ele>390.2</ele>
        <time>2023-10-01T07:50:34Z</time>
      </trkpt>
      <trkpt lat="48.1545" lon="6.44367">
        <ele>390.4</ele>
        <time>2023-10-01T07:50:35Z</time>
      </trkpt>
      <trkpt lat="48.1545" lon="6.44363">
        <ele>390.8</ele>
        <time>2023-10-01T07:50:36Z</time>
      </trkpt>
      <trkpt lat="48.15451" lon="6.4436">
        <ele>391</ele>
        <time>2023-10-01T07:50:37Z</time>
      </trkpt>
      <trkpt lat="48.15452" lon="6.44355">
        <ele>391.4</ele>
        <time>2023-10-01T07:50:38Z</time>
      </trkpt>
      <trkpt lat="48.15452" lon="6.44351">
        <ele>391.4</ele>
        <time>2023-10-01T07:50:39Z</time>
      </trkpt>
      <trkpt lat="48.15451" lon="6.44347">
        <ele>391.8</ele>
        <time>2023-10-01T07:50:40Z</time>
      </trkpt>
      <trkpt lat="48.1545" lon="6.44345">
        <ele>392</ele>
        <time>2023-10-01T07:50:41Z</time>
      </trkpt>
      <trkpt lat="48.15448" lon="6.44341">
        <ele>392.4</ele>
        <time>2023-10-01T07:50:42Z</time>
      </trkpt>
      <trkpt lat="48.15448" lon="6.44339">
        <ele>392.4</ele>
        <time>2023-10-01T07:50:43Z</time>
      </trkpt>
      <trkpt lat="48.15449" lon="6.44337">
        <ele>392.6</ele>
        <time>2023-10-01T07:50:44Z</time>
      </trkpt>
      <trkpt lat="48.1545" lon="6.44335">
        <ele>393</ele>
        <time>2023-10-01T07:50:45Z</time>
      </trkpt>
      <trkpt lat="48.1545" lon="6.44332">
        <ele>393.2</ele>
        <time>2023-10-01T07:50:46Z</time>
      </trkpt>
      <trkpt lat="48.1545" lon="6.44328">
        <ele>393.4</ele>
        <time>2023-10-01T07:50:47Z</time>
      </trkpt>
      <trkpt lat="48.1545" lon="6.44324">
        <ele>393.4</ele>
        <time>2023-10-01T07:50:48Z</time>
      </trkpt>
      <trkpt lat="48.15449" lon="6.44321">
        <ele>393.6</ele>
        <time>2023-10-01T07:50:49Z</time>
      </trkpt>
      <trkpt lat="48.15448" lon="6.44319">
        <ele>393.8</ele>
        <time>2023-10-01T07:50:50Z</time>
      </trkpt>
      <trkpt lat="48.15448" lon="6.44315">
        <ele>394.2</ele>
        <time>2023-10-01T07:50:51Z</time>
      </trkpt>
      <trkpt lat="48.15448" lon="6.44311">
        <ele>394.4</ele>
        <time>2023-10-01T07:50:52Z</time>
      </trkpt>
      <trkpt lat="48.15447" lon="6.44305">
        <ele>394.6</ele>
        <time>2023-10-01T07:50:53Z</time>
      </trkpt>
      <trkpt lat="48.15446" lon="6.44301">
        <ele>394.6</ele>
        <time>2023-10-01T07:50:54Z</time>
      </trkpt>
      <trkpt lat="48.15447" lon="6.44297">
        <ele>394.8</ele>
        <time>2023-10-01T07:50:55Z</time>
      </trkpt>
      <trkpt lat="48.15447" lon="6.44294">
        <ele>394.8</ele>
        <time>2023-10-01T07:50:56Z</time>
      </trkpt>
      <trkpt lat="48.15448" lon="6.4429">
        <ele>395.2</ele>
        <time>2023-10-01T07:50:57Z</time>
      </trkpt>
      <trkpt lat="48.15449" lon="6.44286">
        <ele>395.2</ele>
        <time>2023-10-01T07:50:58Z</time>
      </trkpt>
      <trkpt lat="48.15449" lon="6.44283">
        <ele>395.2</ele>
        <time>2023-10-01T07:50:59Z</time>
      </trkpt>
      <trkpt lat="48.15448" lon="6.44279">
        <ele>395.2</ele>
        <time>2023-10-01T07:51:00Z</time>
      </trkpt>
      <trkpt lat="48.15447" lon="6.44275">
        <ele>395.4</ele>
        <time>2023-10-01T07:51:01Z</time>
      </trkpt>
      <trkpt lat="48.15447" lon="6.44273">
        <ele>395.4</ele>
        <time>2023-10-01T07:51:02Z</time>
      </trkpt>
      <trkpt lat="48.15447" lon="6.4427">
        <ele>395.6</ele>
        <time>2023-10-01T07:51:03Z</time>
      </trkpt>
      <trkpt lat="48.15447" lon="6.44267">
        <ele>395.8</ele>
        <time>2023-10-01T07:51:04Z</time>
      </trkpt>
      <trkpt lat="48.15445" lon="6.44265">
        <ele>396</ele>
        <time>2023-10-01T07:51:05Z</time>
      </trkpt>
      <trkpt lat="48.15444" lon="6.44262">
        <ele>396.2</ele>
        <time>2023-10-01T07:51:06Z</time>
      </trkpt>
      <trkpt lat="48.15445" lon="6.44259">
        <ele>396.6</ele>
        <time>2023-10-01T07:51:07Z</time>
      </trkpt>
      <trkpt lat="48.15447" lon="6.44256">
        <ele>397.2</ele>
        <time>2023-10-01T07:51:08Z</time>
      </trkpt>
      <trkpt lat="48.15447" lon="6.44251">
        <ele>397.6</ele>
        <time>2023-10-01T07:51:09Z</time>
      </trkpt>
      <trkpt lat="48.15447" lon="6.44246">
        <ele>398.2</ele>
        <time>2023-10-01T07:51:10Z</time>
      </trkpt>
      <trkpt lat="48.15448" lon="6.44242">
        <ele>398.4</ele>
        <time>2023-10-01T07:51:11Z</time>
      </trkpt>
      <trkpt lat="48.15449" lon="6.44239">
        <ele>398.8</ele>
        <time>2023-10-01T07:51:12Z</time>
      </trkpt>
      <trkpt lat="48.15449" lon="6.44235">
        <ele>399</ele>
        <time>2023-10-01T07:51:13Z</time>
      </trkpt>
      <trkpt lat="48.15449" lon="6.44234">
        <ele>399.4</ele>
        <time>2023-10-01T07:51:14Z</time>
      </trkpt>
      <trkpt lat="48.1545" lon="6.44231">
        <ele>399.6</ele>
        <time>2023-10-01T07:51:15Z</time>
      </trkpt>
      <trkpt lat="48.15451" lon="6.44228">
        <ele>399.8</ele>
        <time>2023-10-01T07:51:16Z</time>
      </trkpt>
      <trkpt lat="48.15452" lon="6.44222">
        <ele>399.8</ele>
        <time>2023-10-01T07:51:17Z</time>
      </trkpt>
      <trkpt lat="48.15453" lon="6.44217">
        <ele>400</ele>
        <time>2023-10-01T07:51:18Z</time>
      </trkpt>
      <trkpt lat="48.15454" lon="6.44212">
        <ele>400</ele>
        <time>2023-10-01T07:51:19Z</time>
      </trkpt>
      <trkpt lat="48.15455" lon="6.44207">
        <ele>400</ele>
        <time>2023-10-01T07:51:20Z</time>
      </trkpt>
      <trkpt lat="48.15456" lon="6.44204">
        <ele>400</ele>
        <time>2023-10-01T07:51:21Z</time>
      </trkpt>
      <trkpt lat="48.15457" lon="6.44199">
        <ele>400.2</ele>
        <time>2023-10-01T07:51:22Z</time>
      </trkpt>
      <trkpt lat="48.15457" lon="6.44193">
        <ele>400.2</ele>
        <time>2023-10-01T07:51:23Z</time>
      </trkpt>
      <trkpt lat="48.15456" lon="6.44187">
        <ele>400.2</ele>
        <time>2023-10-01T07:51:24Z</time>
      </trkpt>
      <trkpt lat="48.15455" lon="6.44183">
        <ele>400.2</ele>
        <time>2023-10-01T07:51:25Z</time>
      </trkpt>
      <trkpt lat="48.15457" lon="6.44181">
        <ele>400.2</ele>
        <time>2023-10-01T07:51:26Z</time>
      </trkpt>
      <trkpt lat="48.15458" lon="6.44177">
        <ele>400.2</ele>
        <time>2023-10-01T07:51:27Z</time>
      </trkpt>
      <trkpt lat="48.15457" lon="6.44173">
        <ele>400.2</ele>
        <time>2023-10-01T07:51:28Z</time>
      </trkpt>
      <trkpt lat="48.15458" lon="6.4417">
        <ele>400.4</ele>
        <time>2023-10-01T07:51:29Z</time>
      </trkpt>
      <trkpt lat="48.15458" lon="6.44166">
        <ele>400.8</ele>
        <time>2023-10-01T07:51:30Z</time>
      </trkpt>
      <trkpt lat="48.15459" lon="6.44163">
        <ele>401</ele>
        <time>2023-10-01T07:51:31Z</time>
      </trkpt>
      <trkpt lat="48.1546" lon="6.4416">
        <ele>401</ele>
        <time>2023-10-01T07:51:32Z</time>
      </trkpt>
      <trkpt lat="48.15462" lon="6.44156">
        <ele>401.2</ele>
        <time>2023-10-01T07:51:33Z</time>
      </trkpt>
      <trkpt lat="48.15463" lon="6.44151">
        <ele>401.2</ele>
        <time>2023-10-01T07:51:34Z</time>
      </trkpt>
      <trkpt lat="48.15464" lon="6.44148">
        <ele>401.4</ele>
        <time>2023-10-01T07:51:35Z</time>
      </trkpt>
      <trkpt lat="48.15464" lon="6.44145">
        <ele>401.6</ele>
        <time>2023-10-01T07:51:36Z</time>
      </trkpt>
      <trkpt lat="48.15465" lon="6.44141">
        <ele>401.8</ele>
        <time>2023-10-01T07:51:37Z</time>
      </trkpt>
      <trkpt lat="48.15466" lon="6.44137">
        <ele>401.8</ele>
        <time>2023-10-01T07:51:38Z</time>
      </trkpt>
      <trkpt lat="48.15467" lon="6.44134">
        <ele>402</ele>
        <time>2023-10-01T07:51:39Z</time>
      </trkpt>
      <trkpt lat="48.15468" lon="6.44128">
        <ele>402.2</ele>
        <time>2023-10-01T07:51:40Z</time>
      </trkpt>
      <trkpt lat="48.15469" lon="6.44124">
        <ele>402.2</ele>
        <time>2023-10-01T07:51:41Z</time>
      </trkpt>
      <trkpt lat="48.15469" lon="6.44121">
        <ele>402.4</ele>
        <time>2023-10-01T07:51:42Z</time>
      </trkpt>
      <trkpt lat="48.15469" lon="6.44118">
        <ele>402.6</ele>
        <time>2023-10-01T07:51:43Z</time>
      </trkpt>
      <trkpt lat="48.15469" lon="6.44114">
        <ele>402.6</ele>
        <time>2023-10-01T07:51:44Z</time>
      </trkpt>
      <trkpt lat="48.15468" lon="6.44107">
        <ele>402.8</ele>
        <time>2023-10-01T07:51:45Z</time>
      </trkpt>
      <trkpt lat="48.15468" lon="6.44102">
        <ele>403</ele>
        <time>2023-10-01T07:51:46Z</time>
      </trkpt>
      <trkpt lat="48.15468" lon="6.44095">
        <ele>403</ele>
        <time>2023-10-01T07:51:47Z</time>
      </trkpt>
      <trkpt lat="48.15468" lon="6.44089">
        <ele>403</ele>
        <time>2023-10-01T07:51:48Z</time>
      </trkpt>
      <trkpt lat="48.15466" lon="6.44079">
        <ele>403</ele>
        <time>2023-10-01T07:51:49Z</time>
      </trkpt>
      <trkpt lat="48.15464" lon="6.44075">
        <ele>403</ele>
        <time>2023-10-01T07:51:50Z</time>
      </trkpt>
      <trkpt lat="48.15462" lon="6.44069">
        <ele>403.2</ele>
        <time>2023-10-01T07:51:51Z</time>
      </trkpt>
      <trkpt lat="48.15462" lon="6.44065">
        <ele>403.6</ele>
        <time>2023-10-01T07:51:52Z</time>
      </trkpt>
      <trkpt lat="48.15463" lon="6.44062">
        <ele>403.8</ele>
        <time>2023-10-01T07:51:53Z</time>
      </trkpt>
      <trkpt lat="48.15465" lon="6.44058">
        <ele>403.8</ele>
        <time>2023-10-01T07:51:54Z</time>
      </trkpt>
      <trkpt lat="48.15465" lon="6.44054">
        <ele>404</ele>
        <time>2023-10-01T07:51:55Z</time>
      </trkpt>
      <trkpt lat="48.15463" lon="6.4405">
        <ele>404.2</ele>
        <time>2023-10-01T07:51:56Z</time>
      </trkpt>
      <trkpt lat="48.15461" lon="6.44046">
        <ele>404.4</ele>
        <time>2023-10-01T07:51:57Z</time>
      </trkpt>
      <trkpt lat="48.15461" lon="6.44043">
        <ele>404.6</ele>
        <time>2023-10-01T07:51:58Z</time>
      </trkpt>
      <trkpt lat="48.15461" lon="6.4404">
        <ele>404.8</ele>
        <time>2023-10-01T07:51:59Z</time>
      </trkpt>
      <trkpt lat="48.15461" lon="6.44034">
        <ele>405</ele>
        <time>2023-10-01T07:52:00Z</time>
      </trkpt>
      <trkpt lat="48.15459" lon="6.44028">
        <ele>405</ele>
        <time>2023-10-01T07:52:01Z</time>
      </trkpt>
      <trkpt lat="48.1546" lon="6.44019">
        <ele>405.2</ele>
        <time>2023-10-01T07:52:02Z</time>
      </trkpt>
      <trkpt lat="48.1546" lon="6.44015">
        <ele>405.2</ele>
        <time>2023-10-01T07:52:03Z</time>
      </trkpt>
      <trkpt lat="48.1546" lon="6.4401">
        <ele>405.4</ele>
        <time>2023-10-01T07:52:04Z</time>
      </trkpt>
      <trkpt lat="48.15459" lon="6.44006">
        <ele>405.6</ele>
        <time>2023-10-01T07:52:05Z</time>
      </trkpt>
      <trkpt lat="48.15458" lon="6.44">
        <ele>405.8</ele>
        <time>2023-10-01T07:52:06Z</time>
      </trkpt>
      <trkpt lat="48.15459" lon="6.43996">
        <ele>406</ele>
        <time>2023-10-01T07:52:07Z</time>
      </trkpt>
      <trkpt lat="48.15461" lon="6.43993">
        <ele>406.6</ele>
        <time>2023-10-01T07:52:08Z</time>
      </trkpt>
      <trkpt lat="48.15461" lon="6.4399">
        <ele>406.8</ele>
        <time>2023-10-01T07:52:09Z</time>
      </trkpt>
      <trkpt lat="48.15461" lon="6.43987">
        <ele>407.2</ele>
        <time>2023-10-01T07:52:10Z</time>
      </trkpt>
      <trkpt lat="48.15462" lon="6.43982">
        <ele>407.2</ele>
        <time>2023-10-01T07:52:11Z</time>
      </trkpt>
      <trkpt lat="48.15461" lon="6.43979">
        <ele>407.4</ele>
        <time>2023-10-01T07:52:12Z</time>
      </trkpt>
      <trkpt lat="48.15461" lon="6.43975">
        <ele>407.8</ele>
        <time>2023-10-01T07:52:13Z</time>
      </trkpt>
      <trkpt lat="48.15462" lon="6.43973">
        <ele>408</ele>
        <time>2023-10-01T07:52:14Z</time>
      </trkpt>
      <trkpt lat="48.15463" lon="6.43967">
        <ele>408.4</ele>
        <time>2023-10-01T07:52:15Z</time>
      </trkpt>
      <trkpt lat="48.15463" lon="6.43967">
        <ele>408.6</ele>
        <time>2023-10-01T07:52:16Z</time>
      </trkpt>
      <trkpt lat="48.15461" lon="6.43959">
        <ele>408.8</ele>
        <time>2023-10-01T07:52:17Z</time>
      </trkpt>
      <trkpt lat="48.1546" lon="6.43955">
        <ele>409</ele>
        <time>2023-10-01T07:52:18Z</time>
      </trkpt>
      <trkpt lat="48.15463" lon="6.43952">
        <ele>409.2</ele>
        <time>2023-10-01T07:52:19Z</time>
      </trkpt>
      <trkpt lat="48.15464" lon="6.43949">
        <ele>409.4</ele>
        <time>2023-10-01T07:52:20Z</time>
      </trkpt>
      <trkpt lat="48.15465" lon="6.43945">
        <ele>409.6</ele>
        <time>2023-10-01T07:52:21Z</time>
      </trkpt>
      <trkpt lat="48.15465" lon="6.43942">
        <ele>409.8</ele>
        <time>2023-10-01T07:52:22Z</time>
      </trkpt>
      <trkpt lat="48.15464" lon="6.43939">
        <ele>410</ele>
        <time>2023-10-01T07:52:23Z</time>
      </trkpt>
      <trkpt lat="48.15464" lon="6.43938">
        <ele>410.2</ele>
        <time>2023-10-01T07:52:24Z</time>
      </trkpt>
      <trkpt lat="48.15464" lon="6.43936">
        <ele>410.6</ele>
        <time>2023-10-01T07:52:25Z</time>
      </trkpt>
      <trkpt lat="48.15466" lon="6.43935">
        <ele>410.8</ele>
        <time>2023-10-01T07:52:26Z</time>
      </trkpt>
      <trkpt lat="48.15469" lon="6.43931">
        <ele>411</ele>
        <time>2023-10-01T07:52:27Z</time>
      </trkpt>
      <trkpt lat="48.15471" lon="6.43927">
        <ele>411.2</ele>
        <time>2023-10-01T07:52:28Z</time>
      </trkpt>
      <trkpt lat="48.15472" lon="6.43921">
        <ele>411.4</ele>
        <time>2023-10-01T07:52:29Z</time>
      </trkpt>
      <trkpt lat="48.15474" lon="6.43915">
        <ele>411.4</ele>
        <time>2023-10-01T07:52:30Z</time>
      </trkpt>
      <trkpt lat="48.15475" lon="6.43912">
        <ele>411.8</ele>
        <time>2023-10-01T07:52:31Z</time>
      </trkpt>
      <trkpt lat="48.15476" lon="6.43909">
        <ele>412</ele>
        <time>2023-10-01T07:52:32Z</time>
      </trkpt>
      <trkpt lat="48.15478" lon="6.43904">
        <ele>412.2</ele>
        <time>2023-10-01T07:52:33Z</time>
      </trkpt>
      <trkpt lat="48.15479" lon="6.43898">
        <ele>412.2</ele>
        <time>2023-10-01T07:52:34Z</time>
      </trkpt>
      <trkpt lat="48.1548" lon="6.43896">
        <ele>412.4</ele>
        <time>2023-10-01T07:52:35Z</time>
      </trkpt>
      <trkpt lat="48.15482" lon="6.43893">
        <ele>412.6</ele>
        <time>2023-10-01T07:52:36Z</time>
      </trkpt>
      <trkpt lat="48.15483" lon="6.43889">
        <ele>412.6</ele>
        <time>2023-10-01T07:52:37Z</time>
      </trkpt>
      <trkpt lat="48.15484" lon="6.43884">
        <ele>412.8</ele>
        <time>2023-10-01T07:52:38Z</time>
      </trkpt>
      <trkpt lat="48.15484" lon="6.43881">
        <ele>413</ele>
        <time>2023-10-01T07:52:39Z</time>
      </trkpt>
      <trkpt lat="48.15485" lon="6.43877">
        <ele>413.2</ele>
        <time>2023-10-01T07:52:40Z</time>
      </trkpt>
      <trkpt lat="48.15486" lon="6.43875">
        <ele>413.4</ele>
        <time>2023-10-01T07:52:41Z</time>
      </trkpt>
      <trkpt lat="48.15487" lon="6.43871">
        <ele>413.6</ele>
        <time>2023-10-01T07:52:42Z</time>
      </trkpt>
      <trkpt lat="48.15487" lon="6.43868">
        <ele>413.8</ele>
        <time>2023-10-01T07:52:43Z</time>
      </trkpt>
      <trkpt lat="48.15487" lon="6.43865">
        <ele>414.2</ele>
        <time>2023-10-01T07:52:44Z</time>
      </trkpt>
      <trkpt lat="48.15488" lon="6.43861">
        <ele>414.2</ele>
        <time>2023-10-01T07:52:45Z</time>
      </trkpt>
      <trkpt lat="48.15489" lon="6.43857">
        <ele>414.6</ele>
        <time>2023-10-01T07:52:46Z</time>
      </trkpt>
      <trkpt lat="48.1549" lon="6.43854">
        <ele>414.6</ele>
        <time>2023-10-01T07:52:47Z</time>
      </trkpt>
      <trkpt lat="48.15492" lon="6.43851">
        <ele>414.8</ele>
        <time>2023-10-01T07:52:48Z</time>
      </trkpt>
      <trkpt lat="48.15493" lon="6.43848">
        <ele>414.8</ele>
        <time>2023-10-01T07:52:49Z</time>
      </trkpt>
      <trkpt lat="48.15494" lon="6.43845">
        <ele>415.2</ele>
        <time>2023-10-01T07:52:50Z</time>
      </trkpt>
      <trkpt lat="48.15496" lon="6.43843">
        <ele>415.4</ele>
        <time>2023-10-01T07:52:51Z</time>
      </trkpt>
      <trkpt lat="48.15497" lon="6.4384">
        <ele>415.4</ele>
        <time>2023-10-01T07:52:52Z</time>
      </trkpt>
      <trkpt lat="48.15499" lon="6.43838">
        <ele>415.4</ele>
        <time>2023-10-01T07:52:53Z</time>
      </trkpt>
      <trkpt lat="48.155" lon="6.43836">
        <ele>415.6</ele>
        <time>2023-10-01T07:52:54Z</time>
      </trkpt>
      <trkpt lat="48.15502" lon="6.43834">
        <ele>415.8</ele>
        <time>2023-10-01T07:52:55Z</time>
      </trkpt>
      <trkpt lat="48.15503" lon="6.43832">
        <ele>415.8</ele>
        <time>2023-10-01T07:52:56Z</time>
      </trkpt>
      <trkpt lat="48.15504" lon="6.43829">
        <ele>416</ele>
        <time>2023-10-01T07:52:57Z</time>
      </trkpt>
      <trkpt lat="48.15506" lon="6.43827">
        <ele>416.2</ele>
        <time>2023-10-01T07:52:58Z</time>
      </trkpt>
      <trkpt lat="48.15508" lon="6.43825">
        <ele>416.4</ele>
        <time>2023-10-01T07:52:59Z</time>
      </trkpt>
      <trkpt lat="48.1551" lon="6.43822">
        <ele>416.6</ele>
        <time>2023-10-01T07:53:00Z</time>
      </trkpt>
      <trkpt lat="48.15511" lon="6.4382">
        <ele>416.8</ele>
        <time>2023-10-01T07:53:01Z</time>
      </trkpt>
      <trkpt lat="48.15512" lon="6.43816">
        <ele>416.8</ele>
        <time>2023-10-01T07:53:02Z</time>
      </trkpt>
      <trkpt lat="48.15512" lon="6.43813">
        <ele>417.2</ele>
        <time>2023-10-01T07:53:03Z</time>
      </trkpt>
      <trkpt lat="48.15513" lon="6.4381">
        <ele>417.4</ele>
        <time>2023-10-01T07:53:04Z</time>
      </trkpt>
      <trkpt lat="48.15514" lon="6.43806">
        <ele>417.4</ele>
        <time>2023-10-01T07:53:05Z</time>
      </trkpt>
      <trkpt lat="48.15514" lon="6.43802">
        <ele>417.6</ele>
        <time>2023-10-01T07:53:06Z</time>
      </trkpt>
      <trkpt lat="48.15516" lon="6.43798">
        <ele>417.8</ele>
        <time>2023-10-01T07:53:07Z</time>
      </trkpt>
      <trkpt lat="48.15517" lon="6.43795">
        <ele>417.8</ele>
        <time>2023-10-01T07:53:08Z</time>
      </trkpt>
      <trkpt lat="48.15518" lon="6.43791">
        <ele>418</ele>
        <time>2023-10-01T07:53:09Z</time>
      </trkpt>
      <trkpt lat="48.15519" lon="6.43787">
        <ele>418</ele>
        <time>2023-10-01T07:53:10Z</time>
      </trkpt>
      <trkpt lat="48.1552" lon="6.43782">
        <ele>418</ele>
        <time>2023-10-01T07:53:11Z</time>
      </trkpt>
      <trkpt lat="48.15521" lon="6.43778">
        <ele>417.8</ele>
        <time>2023-10-01T07:53:12Z</time>
      </trkpt>
      <trkpt lat="48.15523" lon="6.43773">
        <ele>417.6</ele>
        <time>2023-10-01T07:53:13Z</time>
      </trkpt>
      <trkpt lat="48.15524" lon="6.43767">
        <ele>417.4</ele>
        <time>2023-10-01T07:53:14Z</time>
      </trkpt>
      <trkpt lat="48.15525" lon="6.4376">
        <ele>417.4</ele>
        <time>2023-10-01T07:53:15Z</time>
      </trkpt>
      <trkpt lat="48.15526" lon="6.43752">
        <ele>416.6</ele>
        <time>2023-10-01T07:53:16Z</time>
      </trkpt>
      <trkpt lat="48.15526" lon="6.43747">
        <ele>416.4</ele>
        <time>2023-10-01T07:53:17Z</time>
      </trkpt>
      <trkpt lat="48.15522" lon="6.43743">
        <ele>416</ele>
        <time>2023-10-01T07:53:18Z</time>
      </trkpt>
      <trkpt lat="48.15515" lon="6.4374">
        <ele>415.4</ele>
        <time>2023-10-01T07:53:19Z</time>
      </trkpt>
      <trkpt lat="48.15512" lon="6.43738">
        <ele>414.4</ele>
        <time>2023-10-01T07:53:20Z</time>
      </trkpt>
      <trkpt lat="48.15509" lon="6.43735">
        <ele>414</ele>
        <time>2023-10-01T07:53:21Z</time>
      </trkpt>
      <trkpt lat="48.15504" lon="6.43733">
        <ele>412.8</ele>
        <time>2023-10-01T07:53:22Z</time>
      </trkpt>
      <trkpt lat="48.15497" lon="6.43729">
        <ele>412.6</ele>
        <time>2023-10-01T07:53:23Z</time>
      </trkpt>
      <trkpt lat="48.15488" lon="6.43724">
        <ele>411.4</ele>
        <time>2023-10-01T07:53:24Z</time>
      </trkpt>
      <trkpt lat="48.15478" lon="6.43718">
        <ele>410.8</ele>
        <time>2023-10-01T07:53:25Z</time>
      </trkpt>
      <trkpt lat="48.15472" lon="6.43715">
        <ele>409.6</ele>
        <time>2023-10-01T07:53:26Z</time>
      </trkpt>
      <trkpt lat="48.15466" lon="6.43712">
        <ele>409.4</ele>
        <time>2023-10-01T07:53:27Z</time>
      </trkpt>
      <trkpt lat="48.1546" lon="6.43709">
        <ele>408.6</ele>
        <time>2023-10-01T07:53:28Z</time>
      </trkpt>
      <trkpt lat="48.15454" lon="6.43707">
        <ele>407.2</ele>
        <time>2023-10-01T07:53:29Z</time>
      </trkpt>
      <trkpt lat="48.15447" lon="6.43706">
        <ele>405.4</ele>
        <time>2023-10-01T07:53:30Z</time>
      </trkpt>
      <trkpt lat="48.15441" lon="6.43704">
        <ele>404</ele>
        <time>2023-10-01T07:53:31Z</time>
      </trkpt>
      <trkpt lat="48.15434" lon="6.43704">
        <ele>402.4</ele>
        <time>2023-10-01T07:53:32Z</time>
      </trkpt>
      <trkpt lat="48.15428" lon="6.43706">
        <ele>399</ele>
        <time>2023-10-01T07:53:33Z</time>
      </trkpt>
      <trkpt lat="48.15424" lon="6.4371">
        <ele>397.6</ele>
        <time>2023-10-01T07:53:34Z</time>
      </trkpt>
      <trkpt lat="48.1542" lon="6.43714">
        <ele>396</ele>
        <time>2023-10-01T07:53:35Z</time>
      </trkpt>
      <trkpt lat="48.15413" lon="6.43717">
        <ele>395.6</ele>
        <time>2023-10-01T07:53:36Z</time>
      </trkpt>
      <trkpt lat="48.15408" lon="6.4372">
        <ele>393.8</ele>
        <time>2023-10-01T07:53:37Z</time>
      </trkpt>
      <trkpt lat="48.15406" lon="6.43722">
        <ele>392.8</ele>
        <time>2023-10-01T07:53:38Z</time>
      </trkpt>
      <trkpt lat="48.15402" lon="6.43726">
        <ele>391.4</ele>
        <time>2023-10-01T07:53:39Z</time>
      </trkpt>
      <trkpt lat="48.15399" lon="6.43729">
        <ele>390.8</ele>
        <time>2023-10-01T07:53:40Z</time>
      </trkpt>
      <trkpt lat="48.15396" lon="6.43732">
        <ele>389</ele>
        <time>2023-10-01T07:53:41Z</time>
      </trkpt>
      <trkpt lat="48.15394" lon="6.43735">
        <ele>388.2</ele>
        <time>2023-10-01T07:53:42Z</time>
      </trkpt>
      <trkpt lat="48.15392" lon="6.43738">
        <ele>386.6</ele>
        <time>2023-10-01T07:53:43Z</time>
      </trkpt>
      <trkpt lat="48.15391" lon="6.4374">
        <ele>386.2</ele>
        <time>2023-10-01T07:53:44Z</time>
      </trkpt>
      <trkpt lat="48.15392" lon="6.4374">
        <ele>385</ele>
        <time>2023-10-01T07:53:45Z</time>
      </trkpt>
      <trkpt lat="48.1539" lon="6.43741">
        <ele>384.6</ele>
        <time>2023-10-01T07:53:46Z</time>
      </trkpt>
      <trkpt lat="48.15391" lon="6.43741">
        <ele>381.2</ele>
        <time>2023-10-01T07:53:50Z</time>
      </trkpt>
      <trkpt lat="48.15391" lon="6.43741">
        <ele>380.8</ele>
        <time>2023-10-01T07:53:51Z</time>
      </trkpt>
      <trkpt lat="48.15391" lon="6.43741">
        <ele>380.6</ele>
        <time>2023-10-01T07:53:52Z</time>
      </trkpt>
      <trkpt lat="48.15391" lon="6.43744">
        <ele>378.8</ele>
        <time>2023-10-01T07:58:24Z</time>
      </trkpt>
      <trkpt lat="48.15389" lon="6.43746">
        <ele>378.8</ele>
        <time>2023-10-01T07:58:25Z</time>
      </trkpt>
      <trkpt lat="48.15388" lon="6.43746">
        <ele>378.8</ele>
        <time>2023-10-01T07:58:26Z</time>
      </trkpt>
      <trkpt lat="48.15388" lon="6.43746">
        <ele>378.8</ele>
        <time>2023-10-01T07:58:27Z</time>
      </trkpt>
      <trkpt lat="48.15388" lon="6.43747">
        <ele>378.8</ele>
        <time>2023-10-01T07:58:28Z</time>
      </trkpt>
      <trkpt lat="48.15386" lon="6.4375">
        <ele>378.8</ele>
        <time>2023-10-01T07:58:29Z</time>
      </trkpt>
      <trkpt lat="48.15382" lon="6.43752">
        <ele>378.8</ele>
        <time>2023-10-01T07:58:30Z</time>
      </trkpt>
      <trkpt lat="48.15378" lon="6.43754">
        <ele>378.8</ele>
        <time>2023-10-01T07:58:31Z</time>
      </trkpt>
      <trkpt lat="48.15374" lon="6.43759">
        <ele>378.8</ele>
        <time>2023-10-01T07:58:32Z</time>
      </trkpt>
      <trkpt lat="48.1537" lon="6.43764">
        <ele>378.6</ele>
        <time>2023-10-01T07:58:33Z</time>
      </trkpt>
      <trkpt lat="48.15368" lon="6.43769">
        <ele>378</ele>
        <time>2023-10-01T07:58:34Z</time>
      </trkpt>
      <trkpt lat="48.15365" lon="6.43775">
        <ele>377.2</ele>
        <time>2023-10-01T07:58:35Z</time>
      </trkpt>
      <trkpt lat="48.15365" lon="6.43783">
        <ele>376.8</ele>
        <time>2023-10-01T07:58:36Z</time>
      </trkpt>
      <trkpt lat="48.15364" lon="6.43788">
        <ele>376.4</ele>
        <time>2023-10-01T07:58:37Z</time>
      </trkpt>
      <trkpt lat="48.15362" lon="6.43793">
        <ele>376.2</ele>
        <time>2023-10-01T07:58:38Z</time>
      </trkpt>
      <trkpt lat="48.1536" lon="6.43799">
        <ele>375.8</ele>
        <time>2023-10-01T07:58:39Z</time>
      </trkpt>
      <trkpt lat="48.15357" lon="6.43807">
        <ele>375.6</ele>
        <time>2023-10-01T07:58:40Z</time>
      </trkpt>
      <trkpt lat="48.15355" lon="6.43813">
        <ele>375.4</ele>
        <time>2023-10-01T07:58:41Z</time>
      </trkpt>
      <trkpt lat="48.15353" lon="6.43818">
        <ele>375.4</ele>
        <time>2023-10-01T07:58:42Z</time>
      </trkpt>
      <trkpt lat="48.15351" lon="6.43824">
        <ele>375.4</ele>
        <time>2023-10-01T07:58:43Z</time>
      </trkpt>
      <trkpt lat="48.15348" lon="6.43827">
        <ele>375.4</ele>
        <time>2023-10-01T07:58:44Z</time>
      </trkpt>
      <trkpt lat="48.15346" lon="6.43831">
        <ele>375.4</ele>
        <time>2023-10-01T07:58:45Z</time>
      </trkpt>
      <trkpt lat="48.15344" lon="6.43835">
        <ele>375.4</ele>
        <time>2023-10-01T07:58:46Z</time>
      </trkpt>
      <trkpt lat="48.15342" lon="6.4384">
        <ele>375.4</ele>
        <time>2023-10-01T07:58:47Z</time>
      </trkpt>
      <trkpt lat="48.1534" lon="6.43845">
        <ele>375.6</ele>
        <time>2023-10-01T07:58:48Z</time>
      </trkpt>
      <trkpt lat="48.15339" lon="6.43852">
        <ele>375.6</ele>
        <time>2023-10-01T07:58:49Z</time>
      </trkpt>
      <trkpt lat="48.15339" lon="6.4386">
        <ele>375.8</ele>
        <time>2023-10-01T07:58:50Z</time>
      </trkpt>
      <trkpt lat="48.15338" lon="6.43867">
        <ele>376</ele>
        <time>2023-10-01T07:58:51Z</time>
      </trkpt>
      <trkpt lat="48.15337" lon="6.43873">
        <ele>376.2</ele>
        <time>2023-10-01T07:58:52Z</time>
      </trkpt>
      <trkpt lat="48.15335" lon="6.43878">
        <ele>376.2</ele>
        <time>2023-10-01T07:58:53Z</time>
      </trkpt>
      <trkpt lat="48.15333" lon="6.43882">
        <ele>376.4</ele>
        <time>2023-10-01T07:58:54Z</time>
      </trkpt>
      <trkpt lat="48.15332" lon="6.43888">
        <ele>376.4</ele>
        <time>2023-10-01T07:58:55Z</time>
      </trkpt>
      <trkpt lat="48.15331" lon="6.43895">
        <ele>376.8</ele>
        <time>2023-10-01T07:58:56Z</time>
      </trkpt>
      <trkpt lat="48.15331" lon="6.43903">
        <ele>376.8</ele>
        <time>2023-10-01T07:58:57Z</time>
      </trkpt>
      <trkpt lat="48.15331" lon="6.4391">
        <ele>376.6</ele>
        <time>2023-10-01T07:58:58Z</time>
      </trkpt>
      <trkpt lat="48.15331" lon="6.43918">
        <ele>376.6</ele>
        <time>2023-10-01T07:58:59Z</time>
      </trkpt>
      <trkpt lat="48.15329" lon="6.43929">
        <ele>376.6</ele>
        <time>2023-10-01T07:59:00Z</time>
      </trkpt>
      <trkpt lat="48.15327" lon="6.43939">
        <ele>376.6</ele>
        <time>2023-10-01T07:59:01Z</time>
      </trkpt>
      <trkpt lat="48.15326" lon="6.4395">
        <ele>376.4</ele>
        <time>2023-10-01T07:59:02Z</time>
      </trkpt>
      <trkpt lat="48.15325" lon="6.4396">
        <ele>376.2</ele>
        <time>2023-10-01T07:59:03Z</time>
      </trkpt>
      <trkpt lat="48.15324" lon="6.4397">
        <ele>375.8</ele>
        <time>2023-10-01T07:59:04Z</time>
      </trkpt>
      <trkpt lat="48.15324" lon="6.43979">
        <ele>375.4</ele>
        <time>2023-10-01T07:59:05Z</time>
      </trkpt>
      <trkpt lat="48.15324" lon="6.43993">
        <ele>375.2</ele>
        <time>2023-10-01T07:59:06Z</time>
      </trkpt>
      <trkpt lat="48.15323" lon="6.44005">
        <ele>374.8</ele>
        <time>2023-10-01T07:59:07Z</time>
      </trkpt>
      <trkpt lat="48.15323" lon="6.44016">
        <ele>374.6</ele>
        <time>2023-10-01T07:59:08Z</time>
      </trkpt>
      <trkpt lat="48.15323" lon="6.44028">
        <ele>374.4</ele>
        <time>2023-10-01T07:59:09Z</time>
      </trkpt>
      <trkpt lat="48.15323" lon="6.44039">
        <ele>374.2</ele>
        <time>2023-10-01T07:59:10Z</time>
      </trkpt>
      <trkpt lat="48.15324" lon="6.4405">
        <ele>373.8</ele>
        <time>2023-10-01T07:59:11Z</time>
      </trkpt>
      <trkpt lat="48.15324" lon="6.4406">
        <ele>373.6</ele>
        <time>2023-10-01T07:59:12Z</time>
      </trkpt>
      <trkpt lat="48.15324" lon="6.4407">
        <ele>372.6</ele>
        <time>2023-10-01T07:59:13Z</time>
      </trkpt>
      <trkpt lat="48.15324" lon="6.4408">
        <ele>372.4</ele>
        <time>2023-10-01T07:59:14Z</time>
      </trkpt>
      <trkpt lat="48.15323" lon="6.44089">
        <ele>371.6</ele>
        <time>2023-10-01T07:59:15Z</time>
      </trkpt>
      <trkpt lat="48.15324" lon="6.441">
        <ele>371.4</ele>
        <time>2023-10-01T07:59:16Z</time>
      </trkpt>
      <trkpt lat="48.15324" lon="6.4411">
        <ele>371.2</ele>
        <time>2023-10-01T07:59:17Z</time>
      </trkpt>
      <trkpt lat="48.15325" lon="6.44119">
        <ele>371.2</ele>
        <time>2023-10-01T07:59:18Z</time>
      </trkpt>
      <trkpt lat="48.15325" lon="6.44125">
        <ele>371</ele>
        <time>2023-10-01T07:59:19Z</time>
      </trkpt>
      <trkpt lat="48.15326" lon="6.44131">
        <ele>371</ele>
        <time>2023-10-01T07:59:20Z</time>
      </trkpt>
      <trkpt lat="48.15328" lon="6.44136">
        <ele>371</ele>
        <time>2023-10-01T07:59:21Z</time>
      </trkpt>
      <trkpt lat="48.15329" lon="6.44142">
        <ele>371</ele>
        <time>2023-10-01T07:59:22Z</time>
      </trkpt>
      <trkpt lat="48.1533" lon="6.44149">
        <ele>371</ele>
        <time>2023-10-01T07:59:23Z</time>
      </trkpt>
      <trkpt lat="48.15327" lon="6.44156">
        <ele>370.8</ele>
        <time>2023-10-01T07:59:24Z</time>
      </trkpt>
      <trkpt lat="48.15326" lon="6.44165">
        <ele>371</ele>
        <time>2023-10-01T07:59:25Z</time>
      </trkpt>
      <trkpt lat="48.15325" lon="6.44174">
        <ele>371</ele>
        <time>2023-10-01T07:59:26Z</time>
      </trkpt>
      <trkpt lat="48.15325" lon="6.44183">
        <ele>371</ele>
        <time>2023-10-01T07:59:27Z</time>
      </trkpt>
      <trkpt lat="48.15325" lon="6.4419">
        <ele>371</ele>
        <time>2023-10-01T07:59:28Z</time>
      </trkpt>
      <trkpt lat="48.15324" lon="6.44201">
        <ele>371</ele>
        <time>2023-10-01T07:59:29Z</time>
      </trkpt>
      <trkpt lat="48.15322" lon="6.4421">
        <ele>371</ele>
        <time>2023-10-01T07:59:30Z</time>
      </trkpt>
      <trkpt lat="48.15322" lon="6.44218">
        <ele>370.8</ele>
        <time>2023-10-01T07:59:31Z</time>
      </trkpt>
      <trkpt lat="48.15322" lon="6.44225">
        <ele>370.4</ele>
        <time>2023-10-01T07:59:32Z</time>
      </trkpt>
      <trkpt lat="48.15321" lon="6.44233">
        <ele>370.4</ele>
        <time>2023-10-01T07:59:33Z</time>
      </trkpt>
      <trkpt lat="48.15321" lon="6.44241">
        <ele>370.4</ele>
        <time>2023-10-01T07:59:34Z</time>
      </trkpt>
      <trkpt lat="48.15322" lon="6.4425">
        <ele>370.4</ele>
        <time>2023-10-01T07:59:35Z</time>
      </trkpt>
      <trkpt lat="48.15322" lon="6.44258">
        <ele>370.2</ele>
        <time>2023-10-01T07:59:36Z</time>
      </trkpt>
      <trkpt lat="48.15322" lon="6.44266">
        <ele>370</ele>
        <time>2023-10-01T07:59:37Z</time>
      </trkpt>
      <trkpt lat="48.15322" lon="6.44274">
        <ele>369.4</ele>
        <time>2023-10-01T07:59:38Z</time>
      </trkpt>
      <trkpt lat="48.15322" lon="6.44283">
        <ele>369</ele>
        <time>2023-10-01T07:59:39Z</time>
      </trkpt>
      <trkpt lat="48.15323" lon="6.44292">
        <ele>368.6</ele>
        <time>2023-10-01T07:59:40Z</time>
      </trkpt>
      <trkpt lat="48.15323" lon="6.44302">
        <ele>368.6</ele>
        <time>2023-10-01T07:59:41Z</time>
      </trkpt>
      <trkpt lat="48.15324" lon="6.44313">
        <ele>368.4</ele>
        <time>2023-10-01T07:59:42Z</time>
      </trkpt>
      <trkpt lat="48.15325" lon="6.44323">
        <ele>368.4</ele>
        <time>2023-10-01T07:59:43Z</time>
      </trkpt>
      <trkpt lat="48.15326" lon="6.44333">
        <ele>367.6</ele>
        <time>2023-10-01T07:59:44Z</time>
      </trkpt>
      <trkpt lat="48.15326" lon="6.44342">
        <ele>367.4</ele>
        <time>2023-10-01T07:59:45Z</time>
      </trkpt>
      <trkpt lat="48.15328" lon="6.44349">
        <ele>367.2</ele>
        <time>2023-10-01T07:59:46Z</time>
      </trkpt>
      <trkpt lat="48.15329" lon="6.44357">
        <ele>366.8</ele>
        <time>2023-10-01T07:59:47Z</time>
      </trkpt>
      <trkpt lat="48.15331" lon="6.44363">
        <ele>366.6</ele>
        <time>2023-10-01T07:59:48Z</time>
      </trkpt>
      <trkpt lat="48.15333" lon="6.44369">
        <ele>366.4</ele>
        <time>2023-10-01T07:59:49Z</time>
      </trkpt>
      <trkpt lat="48.15335" lon="6.44375">
        <ele>366.4</ele>
        <time>2023-10-01T07:59:50Z</time>
      </trkpt>
      <trkpt lat="48.15336" lon="6.4438">
        <ele>366.4</ele>
        <time>2023-10-01T07:59:51Z</time>
      </trkpt>
      <trkpt lat="48.15338" lon="6.44385">
        <ele>366.4</ele>
        <time>2023-10-01T07:59:52Z</time>
      </trkpt>
      <trkpt lat="48.15341" lon="6.44392">
        <ele>366</ele>
        <time>2023-10-01T07:59:53Z</time>
      </trkpt>
      <trkpt lat="48.15344" lon="6.44398">
        <ele>366</ele>
        <time>2023-10-01T07:59:54Z</time>
      </trkpt>
      <trkpt lat="48.15347" lon="6.44405">
        <ele>366</ele>
        <time>2023-10-01T07:59:55Z</time>
      </trkpt>
      <trkpt lat="48.15349" lon="6.44411">
        <ele>366</ele>
        <time>2023-10-01T07:59:56Z</time>
      </trkpt>
      <trkpt lat="48.1535" lon="6.44417">
        <ele>366.2</ele>
        <time>2023-10-01T07:59:57Z</time>
      </trkpt>
      <trkpt lat="48.15352" lon="6.44423">
        <ele>366.2</ele>
        <time>2023-10-01T07:59:58Z</time>
      </trkpt>
      <trkpt lat="48.15354" lon="6.44429">
        <ele>366.2</ele>
        <time>2023-10-01T07:59:59Z</time>
      </trkpt>
      <trkpt lat="48.15357" lon="6.44435">
        <ele>366.2</ele>
        <time>2023-10-01T08:00:00Z</time>
      </trkpt>
      <trkpt lat="48.15359" lon="6.44442">
        <ele>366.4</ele>
        <time>2023-10-01T08:00:01Z</time>
      </trkpt>
      <trkpt lat="48.1536" lon="6.44448">
        <ele>366.4</ele>
        <time>2023-10-01T08:00:02Z</time>
      </trkpt>
      <trkpt lat="48.15363" lon="6.44456">
        <ele>366.4</ele>
        <time>2023-10-01T08:00:03Z</time>
      </trkpt>
      <trkpt lat="48.15365" lon="6.44464">
        <ele>366.4</ele>
        <time>2023-10-01T08:00:04Z</time>
      </trkpt>
      <trkpt lat="48.15368" lon="6.44472">
        <ele>366.4</ele>
        <time>2023-10-01T08:00:05Z</time>
      </trkpt>
      <trkpt lat="48.15371" lon="6.44479">
        <ele>366.4</ele>
        <time>2023-10-01T08:00:06Z</time>
      </trkpt>
      <trkpt lat="48.15372" lon="6.44487">
        <ele>366.4</ele>
        <time>2023-10-01T08:00:07Z</time>
      </trkpt>
      <trkpt lat="48.15373" lon="6.44495">
        <ele>366.4</ele>
        <time>2023-10-01T08:00:08Z</time>
      </trkpt>
      <trkpt lat="48.15375" lon="6.44503">
        <ele>366.4</ele>
        <time>2023-10-01T08:00:09Z</time>
      </trkpt>
      <trkpt lat="48.15378" lon="6.44512">
        <ele>366.6</ele>
        <time>2023-10-01T08:00:10Z</time>
      </trkpt>
      <trkpt lat="48.1538" lon="6.44523">
        <ele>366.6</ele>
        <time>2023-10-01T08:00:11Z</time>
      </trkpt>
      <trkpt lat="48.15383" lon="6.44534">
        <ele>366.6</ele>
        <time>2023-10-01T08:00:12Z</time>
      </trkpt>
      <trkpt lat="48.15385" lon="6.44544">
        <ele>366.6</ele>
        <time>2023-10-01T08:00:13Z</time>
      </trkpt>
      <trkpt lat="48.15387" lon="6.44554">
        <ele>366.6</ele>
        <time>2023-10-01T08:00:14Z</time>
      </trkpt>
      <trkpt lat="48.15389" lon="6.44564">
        <ele>366.6</ele>
        <time>2023-10-01T08:00:15Z</time>
      </trkpt>
      <trkpt lat="48.15391" lon="6.44574">
        <ele>366.2</ele>
        <time>2023-10-01T08:00:16Z</time>
      </trkpt>
      <trkpt lat="48.15393" lon="6.44584">
        <ele>365.8</ele>
        <time>2023-10-01T08:00:17Z</time>
      </trkpt>
      <trkpt lat="48.15397" lon="6.44594">
        <ele>365.6</ele>
        <time>2023-10-01T08:00:18Z</time>
      </trkpt>
      <trkpt lat="48.15399" lon="6.44602">
        <ele>365.4</ele>
        <time>2023-10-01T08:00:19Z</time>
      </trkpt>
      <trkpt lat="48.15402" lon="6.44612">
        <ele>365</ele>
        <time>2023-10-01T08:00:20Z</time>
      </trkpt>
      <trkpt lat="48.15404" lon="6.44622">
        <ele>364.8</ele>
        <time>2023-10-01T08:00:21Z</time>
      </trkpt>
      <trkpt lat="48.15407" lon="6.44632">
        <ele>364.6</ele>
        <time>2023-10-01T08:00:22Z</time>
      </trkpt>
      <trkpt lat="48.15411" lon="6.44641">
        <ele>364.4</ele>
        <time>2023-10-01T08:00:23Z</time>
      </trkpt>
      <trkpt lat="48.15414" lon="6.4465">
        <ele>363.8</ele>
        <time>2023-10-01T08:00:24Z</time>
      </trkpt>
      <trkpt lat="48.15417" lon="6.44658">
        <ele>363.6</ele>
        <time>2023-10-01T08:00:25Z</time>
      </trkpt>
      <trkpt lat="48.15421" lon="6.44666">
        <ele>363.4</ele>
        <time>2023-10-01T08:00:26Z</time>
      </trkpt>
      <trkpt lat="48.15425" lon="6.44675">
        <ele>363</ele>
        <time>2023-10-01T08:00:27Z</time>
      </trkpt>
      <trkpt lat="48.15428" lon="6.44683">
        <ele>363</ele>
        <time>2023-10-01T08:00:28Z</time>
      </trkpt>
      <trkpt lat="48.15432" lon="6.44691">
        <ele>362.8</ele>
        <time>2023-10-01T08:00:29Z</time>
      </trkpt>
      <trkpt lat="48.15436" lon="6.44698">
        <ele>362.8</ele>
        <time>2023-10-01T08:00:30Z</time>
      </trkpt>
      <trkpt lat="48.1544" lon="6.44704">
        <ele>362.6</ele>
        <time>2023-10-01T08:00:31Z</time>
      </trkpt>
      <trkpt lat="48.15443" lon="6.4471">
        <ele>362.8</ele>
        <time>2023-10-01T08:00:32Z</time>
      </trkpt>
      <trkpt lat="48.15447" lon="6.44716">
        <ele>362.6</ele>
        <time>2023-10-01T08:00:33Z</time>
      </trkpt>
      <trkpt lat="48.15451" lon="6.44722">
        <ele>362.6</ele>
        <time>2023-10-01T08:00:34Z</time>
      </trkpt>
      <trkpt lat="48.15455" lon="6.44728">
        <ele>362.4</ele>
        <time>2023-10-01T08:00:35Z</time>
      </trkpt>
      <trkpt lat="48.1546" lon="6.44734">
        <ele>362.4</ele>
        <time>2023-10-01T08:00:36Z</time>
      </trkpt>
      <trkpt lat="48.15465" lon="6.44738">
        <ele>362.2</ele>
        <time>2023-10-01T08:00:37Z</time>
      </trkpt>
      <trkpt lat="48.15468" lon="6.44743">
        <ele>362</ele>
        <time>2023-10-01T08:00:38Z</time>
      </trkpt>
      <trkpt lat="48.15472" lon="6.44747">
        <ele>362</ele>
        <time>2023-10-01T08:00:39Z</time>
      </trkpt>
      <trkpt lat="48.15475" lon="6.44751">
        <ele>362</ele>
        <time>2023-10-01T08:00:40Z</time>
      </trkpt>
      <trkpt lat="48.15478" lon="6.44755">
        <ele>361.8</ele>
        <time>2023-10-01T08:00:41Z</time>
      </trkpt>
      <trkpt lat="48.15481" lon="6.44758">
        <ele>361.8</ele>
        <time>2023-10-01T08:00:42Z</time>
      </trkpt>
      <trkpt lat="48.15485" lon="6.44761">
        <ele>362</ele>
        <time>2023-10-01T08:00:43Z</time>
      </trkpt>
      <trkpt lat="48.15487" lon="6.44764">
        <ele>362.2</ele>
        <time>2023-10-01T08:00:44Z</time>
      </trkpt>
      <trkpt lat="48.1549" lon="6.44767">
        <ele>362.4</ele>
        <time>2023-10-01T08:00:45Z</time>
      </trkpt>
      <trkpt lat="48.15492" lon="6.44768">
        <ele>362.4</ele>
        <time>2023-10-01T08:00:46Z</time>
      </trkpt>
      <trkpt lat="48.15496" lon="6.44771">
        <ele>362.6</ele>
        <time>2023-10-01T08:00:47Z</time>
      </trkpt>
      <trkpt lat="48.155" lon="6.44775">
        <ele>363</ele>
        <time>2023-10-01T08:00:48Z</time>
      </trkpt>
      <trkpt lat="48.15506" lon="6.44779">
        <ele>363</ele>
        <time>2023-10-01T08:00:49Z</time>
      </trkpt>
      <trkpt lat="48.15512" lon="6.44782">
        <ele>363</ele>
        <time>2023-10-01T08:00:50Z</time>
      </trkpt>
      <trkpt lat="48.15518" lon="6.44784">
        <ele>363.2</ele>
        <time>2023-10-01T08:00:51Z</time>
      </trkpt>
      <trkpt lat="48.15523" lon="6.44787">
        <ele>363.2</ele>
        <time>2023-10-01T08:00:52Z</time>
      </trkpt>
      <trkpt lat="48.1553" lon="6.44789">
        <ele>363.2</ele>
        <time>2023-10-01T08:00:53Z</time>
      </trkpt>
      <trkpt lat="48.15534" lon="6.4479">
        <ele>363</ele>
        <time>2023-10-01T08:00:54Z</time>
      </trkpt>
      <trkpt lat="48.1554" lon="6.44792">
        <ele>362.8</ele>
        <time>2023-10-01T08:00:55Z</time>
      </trkpt>
      <trkpt lat="48.15547" lon="6.44794">
        <ele>362</ele>
        <time>2023-10-01T08:00:56Z</time>
      </trkpt>
      <trkpt lat="48.15553" lon="6.44795">
        <ele>361.8</ele>
        <time>2023-10-01T08:00:57Z</time>
      </trkpt>
      <trkpt lat="48.1556" lon="6.44797">
        <ele>361.4</ele>
        <time>2023-10-01T08:00:58Z</time>
      </trkpt>
      <trkpt lat="48.15567" lon="6.44797">
        <ele>361.4</ele>
        <time>2023-10-01T08:00:59Z</time>
      </trkpt>
      <trkpt lat="48.15574" lon="6.44797">
        <ele>361.2</ele>
        <time>2023-10-01T08:01:00Z</time>
      </trkpt>
      <trkpt lat="48.15582" lon="6.44795">
        <ele>361</ele>
        <time>2023-10-01T08:01:01Z</time>
      </trkpt>
      <trkpt lat="48.15589" lon="6.44793">
        <ele>360.8</ele>
        <time>2023-10-01T08:01:02Z</time>
      </trkpt>
      <trkpt lat="48.15596" lon="6.44792">
        <ele>360.8</ele>
        <time>2023-10-01T08:01:03Z</time>
      </trkpt>
      <trkpt lat="48.15603" lon="6.4479">
        <ele>360.6</ele>
        <time>2023-10-01T08:01:04Z</time>
      </trkpt>
      <trkpt lat="48.1561" lon="6.44789">
        <ele>360.2</ele>
        <time>2023-10-01T08:01:05Z</time>
      </trkpt>
      <trkpt lat="48.15615" lon="6.44789">
        <ele>359.6</ele>
        <time>2023-10-01T08:01:06Z</time>
      </trkpt>
      <trkpt lat="48.15621" lon="6.44788">
        <ele>359.6</ele>
        <time>2023-10-01T08:01:07Z</time>
      </trkpt>
      <trkpt lat="48.15596" lon="6.44763">
        <ele>359.2</ele>
        <time>2023-10-01T08:01:08Z</time>
      </trkpt>
      <trkpt lat="48.15597" lon="6.4476">
        <ele>358.8</ele>
        <time>2023-10-01T08:01:09Z</time>
      </trkpt>
      <trkpt lat="48.15603" lon="6.44758">
        <ele>358.8</ele>
        <time>2023-10-01T08:01:10Z</time>
      </trkpt>
      <trkpt lat="48.15608" lon="6.44728">
        <ele>358.2</ele>
        <time>2023-10-01T08:01:11Z</time>
      </trkpt>
      <trkpt lat="48.15615" lon="6.44722">
        <ele>358</ele>
        <time>2023-10-01T08:01:12Z</time>
      </trkpt>
      <trkpt lat="48.15652" lon="6.44767">
        <ele>357.6</ele>
        <time>2023-10-01T08:01:13Z</time>
      </trkpt>
      <trkpt lat="48.15663" lon="6.44767">
        <ele>357.6</ele>
        <time>2023-10-01T08:01:14Z</time>
      </trkpt>
      <trkpt lat="48.15669" lon="6.44764">
        <ele>357.6</ele>
        <time>2023-10-01T08:01:15Z</time>
      </trkpt>
      <trkpt lat="48.15674" lon="6.44761">
        <ele>357.4</ele>
        <time>2023-10-01T08:01:16Z</time>
      </trkpt>
      <trkpt lat="48.15679" lon="6.44758">
        <ele>356.8</ele>
        <time>2023-10-01T08:01:17Z</time>
      </trkpt>
      <trkpt lat="48.15684" lon="6.44754">
        <ele>356.8</ele>
        <time>2023-10-01T08:01:18Z</time>
      </trkpt>
      <trkpt lat="48.15692" lon="6.44751">
        <ele>356.6</ele>
        <time>2023-10-01T08:01:19Z</time>
      </trkpt>
      <trkpt lat="48.157" lon="6.44748">
        <ele>356.4</ele>
        <time>2023-10-01T08:01:20Z</time>
      </trkpt>
      <trkpt lat="48.15706" lon="6.44746">
        <ele>356.4</ele>
        <time>2023-10-01T08:01:21Z</time>
      </trkpt>
      <trkpt lat="48.15711" lon="6.44743">
        <ele>356.4</ele>
        <time>2023-10-01T08:01:22Z</time>
      </trkpt>
      <trkpt lat="48.15716" lon="6.44738">
        <ele>356.4</ele>
        <time>2023-10-01T08:01:23Z</time>
      </trkpt>
      <trkpt lat="48.15721" lon="6.44734">
        <ele>356.4</ele>
        <time>2023-10-01T08:01:24Z</time>
      </trkpt>
      <trkpt lat="48.15729" lon="6.4473">
        <ele>356.2</ele>
        <time>2023-10-01T08:01:25Z</time>
      </trkpt>
      <trkpt lat="48.15737" lon="6.44727">
        <ele>356</ele>
        <time>2023-10-01T08:01:26Z</time>
      </trkpt>
      <trkpt lat="48.15744" lon="6.44724">
        <ele>355.8</ele>
        <time>2023-10-01T08:01:27Z</time>
      </trkpt>
      <trkpt lat="48.15752" lon="6.44722">
        <ele>355.8</ele>
        <time>2023-10-01T08:01:28Z</time>
      </trkpt>
      <trkpt lat="48.15761" lon="6.44719">
        <ele>355.8</ele>
        <time>2023-10-01T08:01:29Z</time>
      </trkpt>
      <trkpt lat="48.15768" lon="6.44715">
        <ele>355.6</ele>
        <time>2023-10-01T08:01:30Z</time>
      </trkpt>
      <trkpt lat="48.15776" lon="6.44712">
        <ele>355.6</ele>
        <time>2023-10-01T08:01:31Z</time>
      </trkpt>
      <trkpt lat="48.15783" lon="6.44709">
        <ele>355.4</ele>
        <time>2023-10-01T08:01:32Z</time>
      </trkpt>
      <trkpt lat="48.1579" lon="6.44705">
        <ele>355</ele>
        <time>2023-10-01T08:01:33Z</time>
      </trkpt>
      <trkpt lat="48.15796" lon="6.447">
        <ele>354.4</ele>
        <time>2023-10-01T08:01:34Z</time>
      </trkpt>
      <trkpt lat="48.15803" lon="6.44692">
        <ele>354.2</ele>
        <time>2023-10-01T08:01:35Z</time>
      </trkpt>
      <trkpt lat="48.1581" lon="6.44685">
        <ele>353.6</ele>
        <time>2023-10-01T08:01:36Z</time>
      </trkpt>
      <trkpt lat="48.15815" lon="6.4468">
        <ele>353.4</ele>
        <time>2023-10-01T08:01:37Z</time>
      </trkpt>
      <trkpt lat="48.1582" lon="6.44672">
        <ele>353</ele>
        <time>2023-10-01T08:01:38Z</time>
      </trkpt>
      <trkpt lat="48.15824" lon="6.44665">
        <ele>352.8</ele>
        <time>2023-10-01T08:01:39Z</time>
      </trkpt>
      <trkpt lat="48.15829" lon="6.44659">
        <ele>352.4</ele>
        <time>2023-10-01T08:01:40Z</time>
      </trkpt>
      <trkpt lat="48.15833" lon="6.44654">
        <ele>352.4</ele>
        <time>2023-10-01T08:01:41Z</time>
      </trkpt>
      <trkpt lat="48.15838" lon="6.44649">
        <ele>352.2</ele>
        <time>2023-10-01T08:01:42Z</time>
      </trkpt>
      <trkpt lat="48.15842" lon="6.44644">
        <ele>352.2</ele>
        <time>2023-10-01T08:01:43Z</time>
      </trkpt>
      <trkpt lat="48.15848" lon="6.44638">
        <ele>352.2</ele>
        <time>2023-10-01T08:01:44Z</time>
      </trkpt>
      <trkpt lat="48.15851" lon="6.44631">
        <ele>352.2</ele>
        <time>2023-10-01T08:01:45Z</time>
      </trkpt>
      <trkpt lat="48.1585" lon="6.44623">
        <ele>352.2</ele>
        <time>2023-10-01T08:01:46Z</time>
      </trkpt>
      <trkpt lat="48.15849" lon="6.44615">
        <ele>352.2</ele>
        <time>2023-10-01T08:01:47Z</time>
      </trkpt>
      <trkpt lat="48.15848" lon="6.44608">
        <ele>352.2</ele>
        <time>2023-10-01T08:01:48Z</time>
      </trkpt>
      <trkpt lat="48.15847" lon="6.44599">
        <ele>352.2</ele>
        <time>2023-10-01T08:01:49Z</time>
      </trkpt>
      <trkpt lat="48.15846" lon="6.44592">
        <ele>352.2</ele>
        <time>2023-10-01T08:01:50Z</time>
      </trkpt>
      <trkpt lat="48.15845" lon="6.44587">
        <ele>352.2</ele>
        <time>2023-10-01T08:01:51Z</time>
      </trkpt>
      <trkpt lat="48.15844" lon="6.44582">
        <ele>352.4</ele>
        <time>2023-10-01T08:01:52Z</time>
      </trkpt>
      <trkpt lat="48.15844" lon="6.44578">
        <ele>352.4</ele>
        <time>2023-10-01T08:01:53Z</time>
      </trkpt>
      <trkpt lat="48.15844" lon="6.44575">
        <ele>352.4</ele>
        <time>2023-10-01T08:01:54Z</time>
      </trkpt>
      <trkpt lat="48.15844" lon="6.44571">
        <ele>352.8</ele>
        <time>2023-10-01T08:01:55Z</time>
      </trkpt>
      <trkpt lat="48.15844" lon="6.44567">
        <ele>353.2</ele>
        <time>2023-10-01T08:01:56Z</time>
      </trkpt>
      <trkpt lat="48.15845" lon="6.44562">
        <ele>353.8</ele>
        <time>2023-10-01T08:01:57Z</time>
      </trkpt>
      <trkpt lat="48.15843" lon="6.44556">
        <ele>354</ele>
        <time>2023-10-01T08:01:58Z</time>
      </trkpt>
      <trkpt lat="48.15841" lon="6.44548">
        <ele>354.2</ele>
        <time>2023-10-01T08:01:59Z</time>
      </trkpt>
      <trkpt lat="48.1584" lon="6.44544">
        <ele>354.4</ele>
        <time>2023-10-01T08:02:00Z</time>
      </trkpt>
      <trkpt lat="48.15839" lon="6.44539">
        <ele>354.6</ele>
        <time>2023-10-01T08:02:01Z</time>
      </trkpt>
      <trkpt lat="48.15839" lon="6.44534">
        <ele>354.6</ele>
        <time>2023-10-01T08:02:02Z</time>
      </trkpt>
      <trkpt lat="48.15837" lon="6.44529">
        <ele>355.2</ele>
        <time>2023-10-01T08:02:03Z</time>
      </trkpt>
      <trkpt lat="48.15837" lon="6.44526">
        <ele>355.6</ele>
        <time>2023-10-01T08:02:04Z</time>
      </trkpt>
      <trkpt lat="48.15838" lon="6.44523">
        <ele>356</ele>
        <time>2023-10-01T08:02:05Z</time>
      </trkpt>
      <trkpt lat="48.15843" lon="6.44521">
        <ele>356.4</ele>
        <time>2023-10-01T08:02:06Z</time>
      </trkpt>
      <trkpt lat="48.15842" lon="6.44517">
        <ele>356.8</ele>
        <time>2023-10-01T08:02:07Z</time>
      </trkpt>
      <trkpt lat="48.15842" lon="6.44513">
        <ele>357</ele>
        <time>2023-10-01T08:02:08Z</time>
      </trkpt>
      <trkpt lat="48.15845" lon="6.44508">
        <ele>357.2</ele>
        <time>2023-10-01T08:02:09Z</time>
      </trkpt>
      <trkpt lat="48.15844" lon="6.44502">
        <ele>357.4</ele>
        <time>2023-10-01T08:02:10Z</time>
      </trkpt>
      <trkpt lat="48.15842" lon="6.44495">
        <ele>357.6</ele>
        <time>2023-10-01T08:02:11Z</time>
      </trkpt>
      <trkpt lat="48.15842" lon="6.4449">
        <ele>357.8</ele>
        <time>2023-10-01T08:02:12Z</time>
      </trkpt>
      <trkpt lat="48.15841" lon="6.44485">
        <ele>357.8</ele>
        <time>2023-10-01T08:02:13Z</time>
      </trkpt>
      <trkpt lat="48.15841" lon="6.44481">
        <ele>358</ele>
        <time>2023-10-01T08:02:14Z</time>
      </trkpt>
      <trkpt lat="48.15841" lon="6.44477">
        <ele>358</ele>
        <time>2023-10-01T08:02:15Z</time>
      </trkpt>
      <trkpt lat="48.15842" lon="6.44474">
        <ele>358.2</ele>
        <time>2023-10-01T08:02:16Z</time>
      </trkpt>
      <trkpt lat="48.15841" lon="6.4447">
        <ele>358.4</ele>
        <time>2023-10-01T08:02:17Z</time>
      </trkpt>
      <trkpt lat="48.15838" lon="6.4446">
        <ele>358.8</ele>
        <time>2023-10-01T08:02:18Z</time>
      </trkpt>
      <trkpt lat="48.15835" lon="6.44452">
        <ele>359</ele>
        <time>2023-10-01T08:02:19Z</time>
      </trkpt>
      <trkpt lat="48.15834" lon="6.44449">
        <ele>359.4</ele>
        <time>2023-10-01T08:02:20Z</time>
      </trkpt>
      <trkpt lat="48.15834" lon="6.44448">
        <ele>359.6</ele>
        <time>2023-10-01T08:02:21Z</time>
      </trkpt>
      <trkpt lat="48.15834" lon="6.44448">
        <ele>361.6</ele>
        <time>2023-10-01T08:02:39Z</time>
      </trkpt>
      <trkpt lat="48.15834" lon="6.44448">
        <ele>361.6</ele>
        <time>2023-10-01T08:02:40Z</time>
      </trkpt>
      <trkpt lat="48.15835" lon="6.44448">
        <ele>361.6</ele>
        <time>2023-10-01T08:02:41Z</time>
      </trkpt>
      <trkpt lat="48.15835" lon="6.44447">
        <ele>361.6</ele>
        <time>2023-10-01T08:02:42Z</time>
      </trkpt>
      <trkpt lat="48.15835" lon="6.44446">
        <ele>361.6</ele>
        <time>2023-10-01T08:02:43Z</time>
      </trkpt>
      <trkpt lat="48.15836" lon="6.44445">
        <ele>361.8</ele>
        <time>2023-10-01T08:02:44Z</time>
      </trkpt>
      <trkpt lat="48.15836" lon="6.44445">
        <ele>362</ele>
        <time>2023-10-01T08:02:45Z</time>
      </trkpt>
      <trkpt lat="48.15835" lon="6.44445">
        <ele>362</ele>
        <time>2023-10-01T08:02:46Z</time>
      </trkpt>
      <trkpt lat="48.15834" lon="6.44443">
        <ele>362.2</ele>
        <time>2023-10-01T08:02:47Z</time>
      </trkpt>
      <trkpt lat="48.15829" lon="6.4444">
        <ele>362.4</ele>
        <time>2023-10-01T08:02:48Z</time>
      </trkpt>
      <trkpt lat="48.15826" lon="6.44437">
        <ele>362.8</ele>
        <time>2023-10-01T08:02:49Z</time>
      </trkpt>
      <trkpt lat="48.15824" lon="6.44434">
        <ele>363</ele>
        <time>2023-10-01T08:02:50Z</time>
      </trkpt>
      <trkpt lat="48.15823" lon="6.44432">
        <ele>363.4</ele>
        <time>2023-10-01T08:02:51Z</time>
      </trkpt>
      <trkpt lat="48.15821" lon="6.44428">
        <ele>363.8</ele>
        <time>2023-10-01T08:02:52Z</time>
      </trkpt>
      <trkpt lat="48.15819" lon="6.44425">
        <ele>363.8</ele>
        <time>2023-10-01T08:02:53Z</time>
      </trkpt>
      <trkpt lat="48.15818" lon="6.44422">
        <ele>364.2</ele>
        <time>2023-10-01T08:02:54Z</time>
      </trkpt>
      <trkpt lat="48.15816" lon="6.44419">
        <ele>364.2</ele>
        <time>2023-10-01T08:02:55Z</time>
      </trkpt>
      <trkpt lat="48.15815" lon="6.44416">
        <ele>364.4</ele>
        <time>2023-10-01T08:02:56Z</time>
      </trkpt>
      <trkpt lat="48.15813" lon="6.44413">
        <ele>364.4</ele>
        <time>2023-10-01T08:02:57Z</time>
      </trkpt>
      <trkpt lat="48.1581" lon="6.44409">
        <ele>364.6</ele>
        <time>2023-10-01T08:02:58Z</time>
      </trkpt>
      <trkpt lat="48.15806" lon="6.44404">
        <ele>364.6</ele>
        <time>2023-10-01T08:02:59Z</time>
      </trkpt>
      <trkpt lat="48.15803" lon="6.44401">
        <ele>365</ele>
        <time>2023-10-01T08:03:00Z</time>
      </trkpt>
      <trkpt lat="48.15801" lon="6.44398">
        <ele>365.4</ele>
        <time>2023-10-01T08:03:01Z</time>
      </trkpt>
      <trkpt lat="48.15797" lon="6.44394">
        <ele>365.6</ele>
        <time>2023-10-01T08:03:02Z</time>
      </trkpt>
      <trkpt lat="48.15794" lon="6.44391">
        <ele>365.8</ele>
        <time>2023-10-01T08:03:03Z</time>
      </trkpt>
      <trkpt lat="48.15791" lon="6.44388">
        <ele>366</ele>
        <time>2023-10-01T08:03:04Z</time>
      </trkpt>
      <trkpt lat="48.15787" lon="6.44386">
        <ele>366</ele>
        <time>2023-10-01T08:03:05Z</time>
      </trkpt>
      <trkpt lat="48.15784" lon="6.44385">
        <ele>366.2</ele>
        <time>2023-10-01T08:03:06Z</time>
      </trkpt>
      <trkpt lat="48.15782" lon="6.44383">
        <ele>366.4</ele>
        <time>2023-10-01T08:03:07Z</time>
      </trkpt>
      <trkpt lat="48.15781" lon="6.44383">
        <ele>366.6</ele>
        <time>2023-10-01T08:03:08Z</time>
      </trkpt>
      <trkpt lat="48.15781" lon="6.44384">
        <ele>367</ele>
        <time>2023-10-01T08:03:09Z</time>
      </trkpt>
      <trkpt lat="48.15781" lon="6.44384">
        <ele>367.8</ele>
        <time>2023-10-01T08:03:10Z</time>
      </trkpt>
      <trkpt lat="48.1578" lon="6.44383">
        <ele>368.2</ele>
        <time>2023-10-01T08:03:11Z</time>
      </trkpt>
      <trkpt lat="48.15778" lon="6.44382">
        <ele>368.6</ele>
        <time>2023-10-01T08:03:12Z</time>
      </trkpt>
      <trkpt lat="48.15775" lon="6.4438">
        <ele>369</ele>
        <time>2023-10-01T08:03:13Z</time>
      </trkpt>
      <trkpt lat="48.15775" lon="6.4438">
        <ele>369.2</ele>
        <time>2023-10-01T08:03:14Z</time>
      </trkpt>
      <trkpt lat="48.1577" lon="6.44375">
        <ele>369.6</ele>
        <time>2023-10-01T08:03:15Z</time>
      </trkpt>
      <trkpt lat="48.15768" lon="6.44374">
        <ele>369.8</ele>
        <time>2023-10-01T08:03:16Z</time>
      </trkpt>
      <trkpt lat="48.15768" lon="6.44374">
        <ele>370</ele>
        <time>2023-10-01T08:03:17Z</time>
      </trkpt>
      <trkpt lat="48.15766" lon="6.44373">
        <ele>370.2</ele>
        <time>2023-10-01T08:03:18Z</time>
      </trkpt>
      <trkpt lat="48.15762" lon="6.44371">
        <ele>370.6</ele>
        <time>2023-10-01T08:03:19Z</time>
      </trkpt>
      <trkpt lat="48.15759" lon="6.44369">
        <ele>370.8</ele>
        <time>2023-10-01T08:03:20Z</time>
      </trkpt>
      <trkpt lat="48.15757" lon="6.44369">
        <ele>371.4</ele>
        <time>2023-10-01T08:03:21Z</time>
      </trkpt>
      <trkpt lat="48.15756" lon="6.44369">
        <ele>371.6</ele>
        <time>2023-10-01T08:03:22Z</time>
      </trkpt>
      <trkpt lat="48.15755" lon="6.44369">
        <ele>372</ele>
        <time>2023-10-01T08:03:23Z</time>
      </trkpt>
      <trkpt lat="48.15755" lon="6.44369">
        <ele>372.2</ele>
        <time>2023-10-01T08:03:24Z</time>
      </trkpt>
      <trkpt lat="48.15755" lon="6.4437">
        <ele>372.6</ele>
        <time>2023-10-01T08:03:25Z</time>
      </trkpt>
      <trkpt lat="48.15754" lon="6.4437">
        <ele>372.8</ele>
        <time>2023-10-01T08:03:26Z</time>
      </trkpt>
      <trkpt lat="48.15753" lon="6.44369">
        <ele>373.2</ele>
        <time>2023-10-01T08:03:27Z</time>
      </trkpt>
      <trkpt lat="48.15752" lon="6.44368">
        <ele>373.2</ele>
        <time>2023-10-01T08:03:28Z</time>
      </trkpt>
      <trkpt lat="48.15748" lon="6.44366">
        <ele>373.6</ele>
        <time>2023-10-01T08:03:29Z</time>
      </trkpt>
      <trkpt lat="48.15748" lon="6.44366">
        <ele>373.8</ele>
        <time>2023-10-01T08:03:30Z</time>
      </trkpt>
      <trkpt lat="48.15746" lon="6.44364">
        <ele>374.2</ele>
        <time>2023-10-01T08:03:31Z</time>
      </trkpt>
      <trkpt lat="48.15744" lon="6.44363">
        <ele>374.4</ele>
        <time>2023-10-01T08:03:32Z</time>
      </trkpt>
      <trkpt lat="48.15743" lon="6.44362">
        <ele>374.8</ele>
        <time>2023-10-01T08:03:33Z</time>
      </trkpt>
      <trkpt lat="48.15742" lon="6.44362">
        <ele>375</ele>
        <time>2023-10-01T08:03:34Z</time>
      </trkpt>
      <trkpt lat="48.15741" lon="6.44362">
        <ele>375.2</ele>
        <time>2023-10-01T08:03:35Z</time>
      </trkpt>
      <trkpt lat="48.1574" lon="6.44361">
        <ele>375.6</ele>
        <time>2023-10-01T08:03:36Z</time>
      </trkpt>
      <trkpt lat="48.15739" lon="6.44361">
        <ele>375.8</ele>
        <time>2023-10-01T08:03:37Z</time>
      </trkpt>
      <trkpt lat="48.15738" lon="6.4436">
        <ele>376</ele>
        <time>2023-10-01T08:03:38Z</time>
      </trkpt>
      <trkpt lat="48.15737" lon="6.44359">
        <ele>376</ele>
        <time>2023-10-01T08:03:39Z</time>
      </trkpt>
      <trkpt lat="48.15736" lon="6.44359">
        <ele>376.6</ele>
        <time>2023-10-01T08:03:40Z</time>
      </trkpt>
      <trkpt lat="48.15735" lon="6.44359">
        <ele>376.8</ele>
        <time>2023-10-01T08:03:41Z</time>
      </trkpt>
      <trkpt lat="48.15735" lon="6.44359">
        <ele>377</ele>
        <time>2023-10-01T08:03:42Z</time>
      </trkpt>
      <trkpt lat="48.15733" lon="6.44358">
        <ele>377.4</ele>
        <time>2023-10-01T08:03:43Z</time>
      </trkpt>
      <trkpt lat="48.15732" lon="6.44358">
        <ele>377.8</ele>
        <time>2023-10-01T08:03:44Z</time>
      </trkpt>
      <trkpt lat="48.15732" lon="6.44358">
        <ele>378</ele>
        <time>2023-10-01T08:03:45Z</time>
      </trkpt>
      <trkpt lat="48.15732" lon="6.44358">
        <ele>378.4</ele>
        <time>2023-10-01T08:03:46Z</time>
      </trkpt>
      <trkpt lat="48.15732" lon="6.44358">
        <ele>378.6</ele>
        <time>2023-10-01T08:03:47Z</time>
      </trkpt>
      <trkpt lat="48.15732" lon="6.44358">
        <ele>379</ele>
        <time>2023-10-01T08:03:48Z</time>
      </trkpt>
      <trkpt lat="48.1573" lon="6.44358">
        <ele>379.4</ele>
        <time>2023-10-01T08:03:49Z</time>
      </trkpt>
      <trkpt lat="48.15728" lon="6.44356">
        <ele>379.6</ele>
        <time>2023-10-01T08:03:50Z</time>
      </trkpt>
      <trkpt lat="48.15727" lon="6.44356">
        <ele>380</ele>
        <time>2023-10-01T08:03:51Z</time>
      </trkpt>
      <trkpt lat="48.15725" lon="6.44355">
        <ele>380.2</ele>
        <time>2023-10-01T08:03:52Z</time>
      </trkpt>
      <trkpt lat="48.15724" lon="6.44354">
        <ele>380.4</ele>
        <time>2023-10-01T08:03:53Z</time>
      </trkpt>
      <trkpt lat="48.15723" lon="6.44354">
        <ele>380.6</ele>
        <time>2023-10-01T08:03:54Z</time>
      </trkpt>
      <trkpt lat="48.1572" lon="6.44354">
        <ele>381</ele>
        <time>2023-10-01T08:03:55Z</time>
      </trkpt>
      <trkpt lat="48.15717" lon="6.44352">
        <ele>381</ele>
        <time>2023-10-01T08:03:56Z</time>
      </trkpt>
      <trkpt lat="48.15713" lon="6.44349">
        <ele>381.4</ele>
        <time>2023-10-01T08:03:57Z</time>
      </trkpt>
      <trkpt lat="48.15712" lon="6.44349">
        <ele>381.4</ele>
        <time>2023-10-01T08:03:58Z</time>
      </trkpt>
      <trkpt lat="48.1571" lon="6.44348">
        <ele>381.8</ele>
        <time>2023-10-01T08:03:59Z</time>
      </trkpt>
      <trkpt lat="48.1571" lon="6.44348">
        <ele>382</ele>
        <time>2023-10-01T08:04:00Z</time>
      </trkpt>
      <trkpt lat="48.1571" lon="6.44348">
        <ele>382.2</ele>
        <time>2023-10-01T08:04:01Z</time>
      </trkpt>
      <trkpt lat="48.15709" lon="6.44348">
        <ele>382.4</ele>
        <time>2023-10-01T08:04:02Z</time>
      </trkpt>
      <trkpt lat="48.15708" lon="6.44346">
        <ele>382.8</ele>
        <time>2023-10-01T08:04:03Z</time>
      </trkpt>
      <trkpt lat="48.15708" lon="6.44346">
        <ele>382.8</ele>
        <time>2023-10-01T08:04:04Z</time>
      </trkpt>
      <trkpt lat="48.15708" lon="6.44345">
        <ele>383</ele>
        <time>2023-10-01T08:04:05Z</time>
      </trkpt>
      <trkpt lat="48.15708" lon="6.44344">
        <ele>383.2</ele>
        <time>2023-10-01T08:04:06Z</time>
      </trkpt>
      <trkpt lat="48.15709" lon="6.44342">
        <ele>383.4</ele>
        <time>2023-10-01T08:04:07Z</time>
      </trkpt>
      <trkpt lat="48.15709" lon="6.44342">
        <ele>383.6</ele>
        <time>2023-10-01T08:04:08Z</time>
      </trkpt>
      <trkpt lat="48.15708" lon="6.44341">
        <ele>383.6</ele>
        <time>2023-10-01T08:04:09Z</time>
      </trkpt>
      <trkpt lat="48.15706" lon="6.44339">
        <ele>383.8</ele>
        <time>2023-10-01T08:04:10Z</time>
      </trkpt>
      <trkpt lat="48.15704" lon="6.44337">
        <ele>383.8</ele>
        <time>2023-10-01T08:04:11Z</time>
      </trkpt>
      <trkpt lat="48.15704" lon="6.44335">
        <ele>384</ele>
        <time>2023-10-01T08:04:12Z</time>
      </trkpt>
      <trkpt lat="48.15703" lon="6.44331">
        <ele>384.2</ele>
        <time>2023-10-01T08:04:13Z</time>
      </trkpt>
      <trkpt lat="48.15696" lon="6.44325">
        <ele>384.4</ele>
        <time>2023-10-01T08:04:14Z</time>
      </trkpt>
      <trkpt lat="48.15692" lon="6.4432">
        <ele>384.4</ele>
        <time>2023-10-01T08:04:15Z</time>
      </trkpt>
      <trkpt lat="48.1569" lon="6.44315">
        <ele>384.8</ele>
        <time>2023-10-01T08:04:16Z</time>
      </trkpt>
      <trkpt lat="48.1569" lon="6.44311">
        <ele>385</ele>
        <time>2023-10-01T08:04:17Z</time>
      </trkpt>
      <trkpt lat="48.15691" lon="6.44309">
        <ele>385.2</ele>
        <time>2023-10-01T08:04:18Z</time>
      </trkpt>
      <trkpt lat="48.15691" lon="6.44307">
        <ele>385.2</ele>
        <time>2023-10-01T08:04:19Z</time>
      </trkpt>
      <trkpt lat="48.15692" lon="6.44304">
        <ele>385.4</ele>
        <time>2023-10-01T08:04:20Z</time>
      </trkpt>
      <trkpt lat="48.15692" lon="6.44301">
        <ele>385.4</ele>
        <time>2023-10-01T08:04:21Z</time>
      </trkpt>
      <trkpt lat="48.15692" lon="6.44298">
        <ele>385.6</ele>
        <time>2023-10-01T08:04:22Z</time>
      </trkpt>
      <trkpt lat="48.15693" lon="6.44296">
        <ele>385.8</ele>
        <time>2023-10-01T08:04:23Z</time>
      </trkpt>
      <trkpt lat="48.15695" lon="6.44293">
        <ele>386</ele>
        <time>2023-10-01T08:04:24Z</time>
      </trkpt>
      <trkpt lat="48.15695" lon="6.44293">
        <ele>386.2</ele>
        <time>2023-10-01T08:04:25Z</time>
      </trkpt>
      <trkpt lat="48.15695" lon="6.44292">
        <ele>386.4</ele>
        <time>2023-10-01T08:04:26Z</time>
      </trkpt>
      <trkpt lat="48.15696" lon="6.4429">
        <ele>386.6</ele>
        <time>2023-10-01T08:04:27Z</time>
      </trkpt>
      <trkpt lat="48.15696" lon="6.44287">
        <ele>386.8</ele>
        <time>2023-10-01T08:04:28Z</time>
      </trkpt>
      <trkpt lat="48.15696" lon="6.44284">
        <ele>387</ele>
        <time>2023-10-01T08:04:29Z</time>
      </trkpt>
      <trkpt lat="48.15697" lon="6.44282">
        <ele>387.2</ele>
        <time>2023-10-01T08:04:30Z</time>
      </trkpt>
      <trkpt lat="48.15699" lon="6.44281">
        <ele>387.4</ele>
        <time>2023-10-01T08:04:31Z</time>
      </trkpt>
      <trkpt lat="48.15699" lon="6.44281">
        <ele>387.6</ele>
        <time>2023-10-01T08:04:32Z</time>
      </trkpt>
      <trkpt lat="48.15702" lon="6.44278">
        <ele>388</ele>
        <time>2023-10-01T08:04:33Z</time>
      </trkpt>
      <trkpt lat="48.15703" lon="6.44274">
        <ele>388.4</ele>
        <time>2023-10-01T08:04:34Z</time>
      </trkpt>
      <trkpt lat="48.15704" lon="6.44272">
        <ele>389</ele>
        <time>2023-10-01T08:04:35Z</time>
      </trkpt>
      <trkpt lat="48.15705" lon="6.4427">
        <ele>389</ele>
        <time>2023-10-01T08:04:36Z</time>
      </trkpt>
      <trkpt lat="48.15708" lon="6.44268">
        <ele>389.4</ele>
        <time>2023-10-01T08:04:37Z</time>
      </trkpt>
      <trkpt lat="48.15709" lon="6.44265">
        <ele>389.6</ele>
        <time>2023-10-01T08:04:38Z</time>
      </trkpt>
      <trkpt lat="48.1571" lon="6.44263">
        <ele>389.8</ele>
        <time>2023-10-01T08:04:39Z</time>
      </trkpt>
      <trkpt lat="48.1571" lon="6.44261">
        <ele>389.8</ele>
        <time>2023-10-01T08:04:40Z</time>
      </trkpt>
      <trkpt lat="48.15711" lon="6.44258">
        <ele>390</ele>
        <time>2023-10-01T08:04:41Z</time>
      </trkpt>
      <trkpt lat="48.15711" lon="6.44256">
        <ele>390.2</ele>
        <time>2023-10-01T08:04:42Z</time>
      </trkpt>
      <trkpt lat="48.15712" lon="6.44252">
        <ele>390.6</ele>
        <time>2023-10-01T08:04:43Z</time>
      </trkpt>
      <trkpt lat="48.15713" lon="6.4425">
        <ele>390.8</ele>
        <time>2023-10-01T08:04:44Z</time>
      </trkpt>
      <trkpt lat="48.15713" lon="6.44248">
        <ele>391.2</ele>
        <time>2023-10-01T08:04:45Z</time>
      </trkpt>
      <trkpt lat="48.15715" lon="6.44246">
        <ele>391.8</ele>
        <time>2023-10-01T08:04:46Z</time>
      </trkpt>
      <trkpt lat="48.15716" lon="6.44244">
        <ele>392</ele>
        <time>2023-10-01T08:04:47Z</time>
      </trkpt>
      <trkpt lat="48.15719" lon="6.44243">
        <ele>392.2</ele>
        <time>2023-10-01T08:04:48Z</time>
      </trkpt>
      <trkpt lat="48.15721" lon="6.44241">
        <ele>392.2</ele>
        <time>2023-10-01T08:04:49Z</time>
      </trkpt>
      <trkpt lat="48.15722" lon="6.44239">
        <ele>392.4</ele>
        <time>2023-10-01T08:04:50Z</time>
      </trkpt>
      <trkpt lat="48.15723" lon="6.44236">
        <ele>392.4</ele>
        <time>2023-10-01T08:04:51Z</time>
      </trkpt>
      <trkpt lat="48.15723" lon="6.44234">
        <ele>392.8</ele>
        <time>2023-10-01T08:04:52Z</time>
      </trkpt>
      <trkpt lat="48.15725" lon="6.44231">
        <ele>392.8</ele>
        <time>2023-10-01T08:04:53Z</time>
      </trkpt>
      <trkpt lat="48.15726" lon="6.44228">
        <ele>393</ele>
        <time>2023-10-01T08:04:54Z</time>
      </trkpt>
      <trkpt lat="48.15726" lon="6.44224">
        <ele>393.2</ele>
        <time>2023-10-01T08:04:55Z</time>
      </trkpt>
      <trkpt lat="48.15728" lon="6.4422">
        <ele>393.4</ele>
        <time>2023-10-01T08:04:56Z</time>
      </trkpt>
      <trkpt lat="48.1573" lon="6.44216">
        <ele>393.4</ele>
        <time>2023-10-01T08:04:57Z</time>
      </trkpt>
      <trkpt lat="48.15732" lon="6.44212">
        <ele>393.6</ele>
        <time>2023-10-01T08:04:58Z</time>
      </trkpt>
      <trkpt lat="48.15732" lon="6.4421">
        <ele>393.6</ele>
        <time>2023-10-01T08:04:59Z</time>
      </trkpt>
      <trkpt lat="48.15733" lon="6.44205">
        <ele>393.8</ele>
        <time>2023-10-01T08:05:00Z</time>
      </trkpt>
      <trkpt lat="48.15734" lon="6.44201">
        <ele>393.8</ele>
        <time>2023-10-01T08:05:01Z</time>
      </trkpt>
      <trkpt lat="48.15734" lon="6.44197">
        <ele>394</ele>
        <time>2023-10-01T08:05:02Z</time>
      </trkpt>
      <trkpt lat="48.15736" lon="6.44194">
        <ele>394</ele>
        <time>2023-10-01T08:05:03Z</time>
      </trkpt>
      <trkpt lat="48.15737" lon="6.44189">
        <ele>394</ele>
        <time>2023-10-01T08:05:04Z</time>
      </trkpt>
      <trkpt lat="48.15741" lon="6.44184">
        <ele>394</ele>
        <time>2023-10-01T08:05:05Z</time>
      </trkpt>
      <trkpt lat="48.15743" lon="6.44181">
        <ele>394</ele>
        <time>2023-10-01T08:05:06Z</time>
      </trkpt>
      <trkpt lat="48.15744" lon="6.44178">
        <ele>394.2</ele>
        <time>2023-10-01T08:05:07Z</time>
      </trkpt>
      <trkpt lat="48.15746" lon="6.44175">
        <ele>394.2</ele>
        <time>2023-10-01T08:05:08Z</time>
      </trkpt>
      <trkpt lat="48.15748" lon="6.44172">
        <ele>394.2</ele>
        <time>2023-10-01T08:05:09Z</time>
      </trkpt>
      <trkpt lat="48.1575" lon="6.44169">
        <ele>394.4</ele>
        <time>2023-10-01T08:05:10Z</time>
      </trkpt>
      <trkpt lat="48.15751" lon="6.44166">
        <ele>394.6</ele>
        <time>2023-10-01T08:05:11Z</time>
      </trkpt>
      <trkpt lat="48.15751" lon="6.44163">
        <ele>394.6</ele>
        <time>2023-10-01T08:05:12Z</time>
      </trkpt>
      <trkpt lat="48.15751" lon="6.44158">
        <ele>394.8</ele>
        <time>2023-10-01T08:05:13Z</time>
      </trkpt>
      <trkpt lat="48.15752" lon="6.44155">
        <ele>395</ele>
        <time>2023-10-01T08:05:14Z</time>
      </trkpt>
      <trkpt lat="48.15753" lon="6.44152">
        <ele>395.2</ele>
        <time>2023-10-01T08:05:15Z</time>
      </trkpt>
      <trkpt lat="48.15753" lon="6.44146">
        <ele>395.4</ele>
        <time>2023-10-01T08:05:16Z</time>
      </trkpt>
      <trkpt lat="48.15752" lon="6.44141">
        <ele>395.6</ele>
        <time>2023-10-01T08:05:17Z</time>
      </trkpt>
      <trkpt lat="48.15753" lon="6.44136">
        <ele>395.8</ele>
        <time>2023-10-01T08:05:18Z</time>
      </trkpt>
      <trkpt lat="48.15754" lon="6.44131">
        <ele>396</ele>
        <time>2023-10-01T08:05:19Z</time>
      </trkpt>
      <trkpt lat="48.15755" lon="6.44128">
        <ele>396</ele>
        <time>2023-10-01T08:05:20Z</time>
      </trkpt>
      <trkpt lat="48.15756" lon="6.44125">
        <ele>396.2</ele>
        <time>2023-10-01T08:05:21Z</time>
      </trkpt>
      <trkpt lat="48.15757" lon="6.44121">
        <ele>396.4</ele>
        <time>2023-10-01T08:05:22Z</time>
      </trkpt>
      <trkpt lat="48.15757" lon="6.44118">
        <ele>396.4</ele>
        <time>2023-10-01T08:05:23Z</time>
      </trkpt>
      <trkpt lat="48.15757" lon="6.44114">
        <ele>396.6</ele>
        <time>2023-10-01T08:05:24Z</time>
      </trkpt>
      <trkpt lat="48.15756" lon="6.44111">
        <ele>396.6</ele>
        <time>2023-10-01T08:05:25Z</time>
      </trkpt>
      <trkpt lat="48.15755" lon="6.44107">
        <ele>396.6</ele>
        <time>2023-10-01T08:05:26Z</time>
      </trkpt>
      <trkpt lat="48.15757" lon="6.44103">
        <ele>396.8</ele>
        <time>2023-10-01T08:05:27Z</time>
      </trkpt>
      <trkpt lat="48.15757" lon="6.44099">
        <ele>396.8</ele>
        <time>2023-10-01T08:05:28Z</time>
      </trkpt>
      <trkpt lat="48.15755" lon="6.44096">
        <ele>396.8</ele>
        <time>2023-10-01T08:05:29Z</time>
      </trkpt>
      <trkpt lat="48.15756" lon="6.44093">
        <ele>397</ele>
        <time>2023-10-01T08:05:30Z</time>
      </trkpt>
      <trkpt lat="48.15756" lon="6.4409">
        <ele>397.2</ele>
        <time>2023-10-01T08:05:31Z</time>
      </trkpt>
      <trkpt lat="48.15756" lon="6.44086">
        <ele>397.4</ele>
        <time>2023-10-01T08:05:32Z</time>
      </trkpt>
      <trkpt lat="48.15755" lon="6.44084">
        <ele>397.4</ele>
        <time>2023-10-01T08:05:33Z</time>
      </trkpt>
      <trkpt lat="48.15755" lon="6.44081">
        <ele>397.6</ele>
        <time>2023-10-01T08:05:34Z</time>
      </trkpt>
      <trkpt lat="48.15753" lon="6.44078">
        <ele>397.8</ele>
        <time>2023-10-01T08:05:35Z</time>
      </trkpt>
      <trkpt lat="48.15751" lon="6.44071">
        <ele>398</ele>
        <time>2023-10-01T08:05:36Z</time>
      </trkpt>
      <trkpt lat="48.15751" lon="6.44066">
        <ele>398</ele>
        <time>2023-10-01T08:05:37Z</time>
      </trkpt>
      <trkpt lat="48.15751" lon="6.44064">
        <ele>398</ele>
        <time>2023-10-01T08:05:38Z</time>
      </trkpt>
      <trkpt lat="48.15752" lon="6.44061">
        <ele>398.2</ele>
        <time>2023-10-01T08:05:39Z</time>
      </trkpt>
      <trkpt lat="48.15752" lon="6.44059">
        <ele>398.4</ele>
        <time>2023-10-01T08:05:40Z</time>
      </trkpt>
      <trkpt lat="48.15752" lon="6.44057">
        <ele>398.6</ele>
        <time>2023-10-01T08:05:41Z</time>
      </trkpt>
      <trkpt lat="48.15752" lon="6.44055">
        <ele>398.6</ele>
        <time>2023-10-01T08:05:42Z</time>
      </trkpt>
      <trkpt lat="48.15751" lon="6.44052">
        <ele>398.8</ele>
        <time>2023-10-01T08:05:43Z</time>
      </trkpt>
      <trkpt lat="48.15751" lon="6.44051">
        <ele>398.8</ele>
        <time>2023-10-01T08:05:44Z</time>
      </trkpt>
      <trkpt lat="48.15751" lon="6.4405">
        <ele>399</ele>
        <time>2023-10-01T08:05:45Z</time>
      </trkpt>
      <trkpt lat="48.1575" lon="6.44048">
        <ele>399.2</ele>
        <time>2023-10-01T08:05:46Z</time>
      </trkpt>
      <trkpt lat="48.15748" lon="6.44045">
        <ele>399.2</ele>
        <time>2023-10-01T08:05:47Z</time>
      </trkpt>
      <trkpt lat="48.15747" lon="6.44043">
        <ele>399.4</ele>
        <time>2023-10-01T08:05:48Z</time>
      </trkpt>
      <trkpt lat="48.15745" lon="6.44041">
        <ele>399.4</ele>
        <time>2023-10-01T08:05:49Z</time>
      </trkpt>
      <trkpt lat="48.15742" lon="6.44037">
        <ele>399.4</ele>
        <time>2023-10-01T08:05:50Z</time>
      </trkpt>
      <trkpt lat="48.15738" lon="6.44032">
        <ele>399.6</ele>
        <time>2023-10-01T08:05:51Z</time>
      </trkpt>
      <trkpt lat="48.15736" lon="6.44029">
        <ele>399.6</ele>
        <time>2023-10-01T08:05:52Z</time>
      </trkpt>
      <trkpt lat="48.15734" lon="6.44028">
        <ele>399.6</ele>
        <time>2023-10-01T08:05:53Z</time>
      </trkpt>
      <trkpt lat="48.15734" lon="6.44025">
        <ele>399.8</ele>
        <time>2023-10-01T08:05:54Z</time>
      </trkpt>
      <trkpt lat="48.15734" lon="6.44023">
        <ele>400</ele>
        <time>2023-10-01T08:05:55Z</time>
      </trkpt>
      <trkpt lat="48.15733" lon="6.44021">
        <ele>400</ele>
        <time>2023-10-01T08:05:56Z</time>
      </trkpt>
      <trkpt lat="48.15732" lon="6.44018">
        <ele>400.4</ele>
        <time>2023-10-01T08:05:57Z</time>
      </trkpt>
      <trkpt lat="48.15731" lon="6.44014">
        <ele>400.4</ele>
        <time>2023-10-01T08:05:58Z</time>
      </trkpt>
      <trkpt lat="48.15731" lon="6.44011">
        <ele>400.4</ele>
        <time>2023-10-01T08:05:59Z</time>
      </trkpt>
      <trkpt lat="48.15731" lon="6.44006">
        <ele>400.6</ele>
        <time>2023-10-01T08:06:00Z</time>
      </trkpt>
      <trkpt lat="48.1573" lon="6.44002">
        <ele>400.6</ele>
        <time>2023-10-01T08:06:01Z</time>
      </trkpt>
      <trkpt lat="48.15729" lon="6.43999">
        <ele>400.8</ele>
        <time>2023-10-01T08:06:02Z</time>
      </trkpt>
      <trkpt lat="48.15728" lon="6.43996">
        <ele>400.8</ele>
        <time>2023-10-01T08:06:03Z</time>
      </trkpt>
      <trkpt lat="48.15726" lon="6.43992">
        <ele>401</ele>
        <time>2023-10-01T08:06:04Z</time>
      </trkpt>
      <trkpt lat="48.15726" lon="6.43991">
        <ele>401</ele>
        <time>2023-10-01T08:06:05Z</time>
      </trkpt>
      <trkpt lat="48.15726" lon="6.43991">
        <ele>401.2</ele>
        <time>2023-10-01T08:06:06Z</time>
      </trkpt>
      <trkpt lat="48.15724" lon="6.43986">
        <ele>401.4</ele>
        <time>2023-10-01T08:06:07Z</time>
      </trkpt>
      <trkpt lat="48.15724" lon="6.43985">
        <ele>402</ele>
        <time>2023-10-01T08:06:08Z</time>
      </trkpt>
      <trkpt lat="48.15724" lon="6.43985">
        <ele>402.2</ele>
        <time>2023-10-01T08:06:09Z</time>
      </trkpt>
      <trkpt lat="48.15723" lon="6.43982">
        <ele>402.8</ele>
        <time>2023-10-01T08:06:10Z</time>
      </trkpt>
      <trkpt lat="48.15723" lon="6.43982">
        <ele>402.8</ele>
        <time>2023-10-01T08:06:11Z</time>
      </trkpt>
      <trkpt lat="48.15723" lon="6.43982">
        <ele>403.4</ele>
        <time>2023-10-01T08:06:12Z</time>
      </trkpt>
      <trkpt lat="48.15721" lon="6.43975">
        <ele>403.6</ele>
        <time>2023-10-01T08:06:13Z</time>
      </trkpt>
      <trkpt lat="48.15718" lon="6.43971">
        <ele>404.2</ele>
        <time>2023-10-01T08:06:14Z</time>
      </trkpt>
      <trkpt lat="48.15717" lon="6.43965">
        <ele>404.4</ele>
        <time>2023-10-01T08:06:15Z</time>
      </trkpt>
      <trkpt lat="48.15717" lon="6.43959">
        <ele>404.6</ele>
        <time>2023-10-01T08:06:16Z</time>
      </trkpt>
      <trkpt lat="48.15716" lon="6.43954">
        <ele>405.2</ele>
        <time>2023-10-01T08:06:17Z</time>
      </trkpt>
      <trkpt lat="48.15716" lon="6.43951">
        <ele>405.4</ele>
        <time>2023-10-01T08:06:18Z</time>
      </trkpt>
      <trkpt lat="48.15716" lon="6.43946">
        <ele>405.8</ele>
        <time>2023-10-01T08:06:19Z</time>
      </trkpt>
      <trkpt lat="48.15716" lon="6.43945">
        <ele>406</ele>
        <time>2023-10-01T08:06:20Z</time>
      </trkpt>
      <trkpt lat="48.15717" lon="6.43944">
        <ele>406.2</ele>
        <time>2023-10-01T08:06:21Z</time>
      </trkpt>
      <trkpt lat="48.15719" lon="6.43943">
        <ele>406.4</ele>
        <time>2023-10-01T08:06:22Z</time>
      </trkpt>
      <trkpt lat="48.1572" lon="6.43938">
        <ele>407</ele>
        <time>2023-10-01T08:06:23Z</time>
      </trkpt>
      <trkpt lat="48.1572" lon="6.43938">
        <ele>407.4</ele>
        <time>2023-10-01T08:06:24Z</time>
      </trkpt>
      <trkpt lat="48.1572" lon="6.43938">
        <ele>408</ele>
        <time>2023-10-01T08:06:25Z</time>
      </trkpt>
      <trkpt lat="48.1572" lon="6.43934">
        <ele>408.2</ele>
        <time>2023-10-01T08:06:26Z</time>
      </trkpt>
      <trkpt lat="48.1572" lon="6.43931">
        <ele>408.6</ele>
        <time>2023-10-01T08:06:27Z</time>
      </trkpt>
      <trkpt lat="48.15721" lon="6.43928">
        <ele>408.8</ele>
        <time>2023-10-01T08:06:28Z</time>
      </trkpt>
      <trkpt lat="48.15722" lon="6.43923">
        <ele>409.2</ele>
        <time>2023-10-01T08:06:29Z</time>
      </trkpt>
      <trkpt lat="48.15723" lon="6.43922">
        <ele>409.4</ele>
        <time>2023-10-01T08:06:30Z</time>
      </trkpt>
      <trkpt lat="48.15724" lon="6.43921">
        <ele>409.8</ele>
        <time>2023-10-01T08:06:31Z</time>
      </trkpt>
      <trkpt lat="48.15724" lon="6.43918">
        <ele>410.2</ele>
        <time>2023-10-01T08:06:32Z</time>
      </trkpt>
      <trkpt lat="48.15723" lon="6.43914">
        <ele>410.4</ele>
        <time>2023-10-01T08:06:33Z</time>
      </trkpt>
      <trkpt lat="48.15723" lon="6.4391">
        <ele>410.8</ele>
        <time>2023-10-01T08:06:34Z</time>
      </trkpt>
      <trkpt lat="48.15723" lon="6.43909">
        <ele>411.6</ele>
        <time>2023-10-01T08:06:35Z</time>
      </trkpt>
      <trkpt lat="48.15724" lon="6.43905">
        <ele>411.8</ele>
        <time>2023-10-01T08:06:36Z</time>
      </trkpt>
      <trkpt lat="48.15724" lon="6.43902">
        <ele>412.2</ele>
        <time>2023-10-01T08:06:37Z</time>
      </trkpt>
      <trkpt lat="48.15725" lon="6.439">
        <ele>412.4</ele>
        <time>2023-10-01T08:06:38Z</time>
      </trkpt>
      <trkpt lat="48.15725" lon="6.43897">
        <ele>412.6</ele>
        <time>2023-10-01T08:06:39Z</time>
      </trkpt>
      <trkpt lat="48.15725" lon="6.43897">
        <ele>412.8</ele>
        <time>2023-10-01T08:06:40Z</time>
      </trkpt>
      <trkpt lat="48.15725" lon="6.43896">
        <ele>412.8</ele>
        <time>2023-10-01T08:06:41Z</time>
      </trkpt>
      <trkpt lat="48.15725" lon="6.43892">
        <ele>413.2</ele>
        <time>2023-10-01T08:06:42Z</time>
      </trkpt>
      <trkpt lat="48.15726" lon="6.43887">
        <ele>413.4</ele>
        <time>2023-10-01T08:06:43Z</time>
      </trkpt>
      <trkpt lat="48.15727" lon="6.43885">
        <ele>413.6</ele>
        <time>2023-10-01T08:06:44Z</time>
      </trkpt>
      <trkpt lat="48.15729" lon="6.43884">
        <ele>413.6</ele>
        <time>2023-10-01T08:06:45Z</time>
      </trkpt>
      <trkpt lat="48.15731" lon="6.43881">
        <ele>413.8</ele>
        <time>2023-10-01T08:06:46Z</time>
      </trkpt>
      <trkpt lat="48.15734" lon="6.43877">
        <ele>413.8</ele>
        <time>2023-10-01T08:06:47Z</time>
      </trkpt>
      <trkpt lat="48.15736" lon="6.43871">
        <ele>413.8</ele>
        <time>2023-10-01T08:06:48Z</time>
      </trkpt>
      <trkpt lat="48.15736" lon="6.43867">
        <ele>414</ele>
        <time>2023-10-01T08:06:49Z</time>
      </trkpt>
      <trkpt lat="48.15737" lon="6.43864">
        <ele>414</ele>
        <time>2023-10-01T08:06:50Z</time>
      </trkpt>
      <trkpt lat="48.15738" lon="6.43861">
        <ele>414</ele>
        <time>2023-10-01T08:06:51Z</time>
      </trkpt>
      <trkpt lat="48.1574" lon="6.43858">
        <ele>413.8</ele>
        <time>2023-10-01T08:06:52Z</time>
      </trkpt>
      <trkpt lat="48.15743" lon="6.43855">
        <ele>413.8</ele>
        <time>2023-10-01T08:06:53Z</time>
      </trkpt>
      <trkpt lat="48.15747" lon="6.43851">
        <ele>413.4</ele>
        <time>2023-10-01T08:06:54Z</time>
      </trkpt>
      <trkpt lat="48.15747" lon="6.43844">
        <ele>413.2</ele>
        <time>2023-10-01T08:06:55Z</time>
      </trkpt>
      <trkpt lat="48.15745" lon="6.43835">
        <ele>412.6</ele>
        <time>2023-10-01T08:06:56Z</time>
      </trkpt>
      <trkpt lat="48.15743" lon="6.43826">
        <ele>412.6</ele>
        <time>2023-10-01T08:06:57Z</time>
      </trkpt>
      <trkpt lat="48.15743" lon="6.43821">
        <ele>412.2</ele>
        <time>2023-10-01T08:06:58Z</time>
      </trkpt>
      <trkpt lat="48.15743" lon="6.43816">
        <ele>412.2</ele>
        <time>2023-10-01T08:06:59Z</time>
      </trkpt>
      <trkpt lat="48.15743" lon="6.43813">
        <ele>412</ele>
        <time>2023-10-01T08:07:00Z</time>
      </trkpt>
      <trkpt lat="48.15737" lon="6.43808">
        <ele>412</ele>
        <time>2023-10-01T08:07:01Z</time>
      </trkpt>
      <trkpt lat="48.15736" lon="6.43805">
        <ele>412</ele>
        <time>2023-10-01T08:07:02Z</time>
      </trkpt>
      <trkpt lat="48.15736" lon="6.43801">
        <ele>412</ele>
        <time>2023-10-01T08:07:03Z</time>
      </trkpt>
      <trkpt lat="48.15736" lon="6.43796">
        <ele>412</ele>
        <time>2023-10-01T08:07:04Z</time>
      </trkpt>
      <trkpt lat="48.15737" lon="6.43791">
        <ele>411.8</ele>
        <time>2023-10-01T08:07:05Z</time>
      </trkpt>
      <trkpt lat="48.15738" lon="6.43788">
        <ele>411.6</ele>
        <time>2023-10-01T08:07:06Z</time>
      </trkpt>
      <trkpt lat="48.15736" lon="6.43783">
        <ele>411.6</ele>
        <time>2023-10-01T08:07:07Z</time>
      </trkpt>
      <trkpt lat="48.15733" lon="6.43777">
        <ele>411.8</ele>
        <time>2023-10-01T08:07:08Z</time>
      </trkpt>
      <trkpt lat="48.15732" lon="6.43771">
        <ele>411.8</ele>
        <time>2023-10-01T08:07:09Z</time>
      </trkpt>
      <trkpt lat="48.15732" lon="6.43765">
        <ele>411.8</ele>
        <time>2023-10-01T08:07:10Z</time>
      </trkpt>
      <trkpt lat="48.15731" lon="6.43754">
        <ele>411.8</ele>
        <time>2023-10-01T08:07:11Z</time>
      </trkpt>
      <trkpt lat="48.15729" lon="6.43743">
        <ele>411.8</ele>
        <time>2023-10-01T08:07:12Z</time>
      </trkpt>
      <trkpt lat="48.15727" lon="6.43736">
        <ele>412</ele>
        <time>2023-10-01T08:07:13Z</time>
      </trkpt>
      <trkpt lat="48.15726" lon="6.4373">
        <ele>412</ele>
        <time>2023-10-01T08:07:14Z</time>
      </trkpt>
      <trkpt lat="48.15725" lon="6.43725">
        <ele>412</ele>
        <time>2023-10-01T08:07:15Z</time>
      </trkpt>
      <trkpt lat="48.15725" lon="6.43718">
        <ele>412</ele>
        <time>2023-10-01T08:07:16Z</time>
      </trkpt>
      <trkpt lat="48.15727" lon="6.43714">
        <ele>412</ele>
        <time>2023-10-01T08:07:17Z</time>
      </trkpt>
      <trkpt lat="48.15728" lon="6.43708">
        <ele>412</ele>
        <time>2023-10-01T08:07:18Z</time>
      </trkpt>
      <trkpt lat="48.1573" lon="6.43702">
        <ele>412.2</ele>
        <time>2023-10-01T08:07:19Z</time>
      </trkpt>
      <trkpt lat="48.1573" lon="6.43697">
        <ele>412.2</ele>
        <time>2023-10-01T08:07:20Z</time>
      </trkpt>
      <trkpt lat="48.15731" lon="6.43694">
        <ele>412.2</ele>
        <time>2023-10-01T08:07:21Z</time>
      </trkpt>
      <trkpt lat="48.15732" lon="6.43691">
        <ele>412.4</ele>
        <time>2023-10-01T08:07:22Z</time>
      </trkpt>
      <trkpt lat="48.15734" lon="6.43686">
        <ele>412.6</ele>
        <time>2023-10-01T08:07:23Z</time>
      </trkpt>
      <trkpt lat="48.15736" lon="6.43684">
        <ele>412.8</ele>
        <time>2023-10-01T08:07:24Z</time>
      </trkpt>
      <trkpt lat="48.15738" lon="6.43679">
        <ele>413</ele>
        <time>2023-10-01T08:07:25Z</time>
      </trkpt>
      <trkpt lat="48.15739" lon="6.43677">
        <ele>413.2</ele>
        <time>2023-10-01T08:07:26Z</time>
      </trkpt>
      <trkpt lat="48.15739" lon="6.43672">
        <ele>413.2</ele>
        <time>2023-10-01T08:07:27Z</time>
      </trkpt>
      <trkpt lat="48.15739" lon="6.43668">
        <ele>413.2</ele>
        <time>2023-10-01T08:07:28Z</time>
      </trkpt>
      <trkpt lat="48.15738" lon="6.43663">
        <ele>413.2</ele>
        <time>2023-10-01T08:07:29Z</time>
      </trkpt>
      <trkpt lat="48.15739" lon="6.43658">
        <ele>413.2</ele>
        <time>2023-10-01T08:07:30Z</time>
      </trkpt>
      <trkpt lat="48.15743" lon="6.43654">
        <ele>413.4</ele>
        <time>2023-10-01T08:07:31Z</time>
      </trkpt>
      <trkpt lat="48.15744" lon="6.43648">
        <ele>413.4</ele>
        <time>2023-10-01T08:07:32Z</time>
      </trkpt>
      <trkpt lat="48.15744" lon="6.43645">
        <ele>413.4</ele>
        <time>2023-10-01T08:07:33Z</time>
      </trkpt>
      <trkpt lat="48.15744" lon="6.43643">
        <ele>413.4</ele>
        <time>2023-10-01T08:07:34Z</time>
      </trkpt>
      <trkpt lat="48.15743" lon="6.43638">
        <ele>413.2</ele>
        <time>2023-10-01T08:07:35Z</time>
      </trkpt>
      <trkpt lat="48.15743" lon="6.43634">
        <ele>413.2</ele>
        <time>2023-10-01T08:07:36Z</time>
      </trkpt>
      <trkpt lat="48.15742" lon="6.4363">
        <ele>413.4</ele>
        <time>2023-10-01T08:07:37Z</time>
      </trkpt>
      <trkpt lat="48.15742" lon="6.43628">
        <ele>413.4</ele>
        <time>2023-10-01T08:07:38Z</time>
      </trkpt>
      <trkpt lat="48.15739" lon="6.43623">
        <ele>413.6</ele>
        <time>2023-10-01T08:07:39Z</time>
      </trkpt>
      <trkpt lat="48.15737" lon="6.43618">
        <ele>413.6</ele>
        <time>2023-10-01T08:07:40Z</time>
      </trkpt>
      <trkpt lat="48.15735" lon="6.43613">
        <ele>413.6</ele>
        <time>2023-10-01T08:07:41Z</time>
      </trkpt>
      <trkpt lat="48.15732" lon="6.43606">
        <ele>413.6</ele>
        <time>2023-10-01T08:07:42Z</time>
      </trkpt>
      <trkpt lat="48.15731" lon="6.43603">
        <ele>413.6</ele>
        <time>2023-10-01T08:07:43Z</time>
      </trkpt>
      <trkpt lat="48.15729" lon="6.43599">
        <ele>413.6</ele>
        <time>2023-10-01T08:07:44Z</time>
      </trkpt>
      <trkpt lat="48.15724" lon="6.43593">
        <ele>413.6</ele>
        <time>2023-10-01T08:07:45Z</time>
      </trkpt>
      <trkpt lat="48.1572" lon="6.43587">
        <ele>413.6</ele>
        <time>2023-10-01T08:07:46Z</time>
      </trkpt>
      <trkpt lat="48.15718" lon="6.43583">
        <ele>413.6</ele>
        <time>2023-10-01T08:07:47Z</time>
      </trkpt>
      <trkpt lat="48.15716" lon="6.43578">
        <ele>413.4</ele>
        <time>2023-10-01T08:07:48Z</time>
      </trkpt>
      <trkpt lat="48.15715" lon="6.43573">
        <ele>413.2</ele>
        <time>2023-10-01T08:07:49Z</time>
      </trkpt>
      <trkpt lat="48.15714" lon="6.43567">
        <ele>413.2</ele>
        <time>2023-10-01T08:07:50Z</time>
      </trkpt>
      <trkpt lat="48.15711" lon="6.43563">
        <ele>413</ele>
        <time>2023-10-01T08:07:51Z</time>
      </trkpt>
      <trkpt lat="48.15711" lon="6.4356">
        <ele>412.8</ele>
        <time>2023-10-01T08:07:52Z</time>
      </trkpt>
      <trkpt lat="48.15711" lon="6.4356">
        <ele>412.6</ele>
        <time>2023-10-01T08:07:53Z</time>
      </trkpt>
      <trkpt lat="48.15711" lon="6.43559">
        <ele>412.6</ele>
        <time>2023-10-01T08:07:54Z</time>
      </trkpt>
      <trkpt lat="48.15711" lon="6.43556">
        <ele>412.4</ele>
        <time>2023-10-01T08:07:55Z</time>
      </trkpt>
      <trkpt lat="48.15712" lon="6.43556">
        <ele>412.4</ele>
        <time>2023-10-01T08:07:56Z</time>
      </trkpt>
      <trkpt lat="48.15706" lon="6.43551">
        <ele>412.4</ele>
        <time>2023-10-01T08:07:57Z</time>
      </trkpt>
      <trkpt lat="48.15704" lon="6.43549">
        <ele>412.4</ele>
        <time>2023-10-01T08:07:58Z</time>
      </trkpt>
      <trkpt lat="48.15702" lon="6.43546">
        <ele>412.4</ele>
        <time>2023-10-01T08:07:59Z</time>
      </trkpt>
      <trkpt lat="48.15701" lon="6.43544">
        <ele>412.4</ele>
        <time>2023-10-01T08:08:00Z</time>
      </trkpt>
      <trkpt lat="48.157" lon="6.43542">
        <ele>412.4</ele>
        <time>2023-10-01T08:08:01Z</time>
      </trkpt>
      <trkpt lat="48.157" lon="6.4354">
        <ele>412.4</ele>
        <time>2023-10-01T08:08:02Z</time>
      </trkpt>
      <trkpt lat="48.157" lon="6.4354">
        <ele>412.4</ele>
        <time>2023-10-01T08:08:03Z</time>
      </trkpt>
      <trkpt lat="48.15702" lon="6.43539">
        <ele>412.4</ele>
        <time>2023-10-01T08:08:04Z</time>
      </trkpt>
      <trkpt lat="48.15704" lon="6.43534">
        <ele>412.4</ele>
        <time>2023-10-01T08:08:05Z</time>
      </trkpt>
      <trkpt lat="48.15704" lon="6.43529">
        <ele>412.2</ele>
        <time>2023-10-01T08:08:06Z</time>
      </trkpt>
      <trkpt lat="48.15705" lon="6.43523">
        <ele>412.2</ele>
        <time>2023-10-01T08:08:07Z</time>
      </trkpt>
      <trkpt lat="48.15706" lon="6.43518">
        <ele>412.2</ele>
        <time>2023-10-01T08:08:08Z</time>
      </trkpt>
      <trkpt lat="48.15709" lon="6.43514">
        <ele>412.2</ele>
        <time>2023-10-01T08:08:09Z</time>
      </trkpt>
      <trkpt lat="48.15711" lon="6.4351">
        <ele>412.2</ele>
        <time>2023-10-01T08:08:10Z</time>
      </trkpt>
      <trkpt lat="48.15712" lon="6.43507">
        <ele>412.2</ele>
        <time>2023-10-01T08:08:11Z</time>
      </trkpt>
      <trkpt lat="48.15712" lon="6.43504">
        <ele>412.2</ele>
        <time>2023-10-01T08:08:12Z</time>
      </trkpt>
      <trkpt lat="48.15713" lon="6.43499">
        <ele>412.2</ele>
        <time>2023-10-01T08:08:13Z</time>
      </trkpt>
      <trkpt lat="48.15713" lon="6.43498">
        <ele>412.2</ele>
        <time>2023-10-01T08:08:14Z</time>
      </trkpt>
      <trkpt lat="48.15713" lon="6.43498">
        <ele>412.2</ele>
        <time>2023-10-01T08:08:15Z</time>
      </trkpt>
      <trkpt lat="48.15715" lon="6.43495">
        <ele>412.4</ele>
        <time>2023-10-01T08:08:16Z</time>
      </trkpt>
      <trkpt lat="48.15716" lon="6.43493">
        <ele>412.6</ele>
        <time>2023-10-01T08:08:17Z</time>
      </trkpt>
      <trkpt lat="48.15718" lon="6.43491">
        <ele>412.8</ele>
        <time>2023-10-01T08:08:18Z</time>
      </trkpt>
      <trkpt lat="48.15719" lon="6.43487">
        <ele>413.4</ele>
        <time>2023-10-01T08:08:19Z</time>
      </trkpt>
      <trkpt lat="48.1572" lon="6.43484">
        <ele>414</ele>
        <time>2023-10-01T08:08:20Z</time>
      </trkpt>
      <trkpt lat="48.15721" lon="6.4348">
        <ele>414.6</ele>
        <time>2023-10-01T08:08:21Z</time>
      </trkpt>
      <trkpt lat="48.15724" lon="6.43477">
        <ele>415</ele>
        <time>2023-10-01T08:08:22Z</time>
      </trkpt>
      <trkpt lat="48.15726" lon="6.43474">
        <ele>415.4</ele>
        <time>2023-10-01T08:08:23Z</time>
      </trkpt>
      <trkpt lat="48.15726" lon="6.43473">
        <ele>415.4</ele>
        <time>2023-10-01T08:08:24Z</time>
      </trkpt>
      <trkpt lat="48.15727" lon="6.43472">
        <ele>416</ele>
        <time>2023-10-01T08:08:25Z</time>
      </trkpt>
      <trkpt lat="48.15728" lon="6.43471">
        <ele>416.2</ele>
        <time>2023-10-01T08:08:26Z</time>
      </trkpt>
      <trkpt lat="48.15729" lon="6.43471">
        <ele>416.6</ele>
        <time>2023-10-01T08:08:27Z</time>
      </trkpt>
      <trkpt lat="48.15732" lon="6.43469">
        <ele>416.6</ele>
        <time>2023-10-01T08:08:28Z</time>
      </trkpt>
      <trkpt lat="48.15736" lon="6.43467">
        <ele>416.8</ele>
        <time>2023-10-01T08:08:29Z</time>
      </trkpt>
      <trkpt lat="48.15741" lon="6.43464">
        <ele>416.8</ele>
        <time>2023-10-01T08:08:30Z</time>
      </trkpt>
      <trkpt lat="48.15745" lon="6.43461">
        <ele>416.8</ele>
        <time>2023-10-01T08:08:31Z</time>
      </trkpt>
      <trkpt lat="48.15748" lon="6.43456">
        <ele>416.8</ele>
        <time>2023-10-01T08:08:32Z</time>
      </trkpt>
      <trkpt lat="48.1575" lon="6.43452">
        <ele>416.8</ele>
        <time>2023-10-01T08:08:33Z</time>
      </trkpt>
      <trkpt lat="48.15752" lon="6.43451">
        <ele>416.6</ele>
        <time>2023-10-01T08:08:34Z</time>
      </trkpt>
      <trkpt lat="48.15754" lon="6.43446">
        <ele>416.4</ele>
        <time>2023-10-01T08:08:35Z</time>
      </trkpt>
      <trkpt lat="48.15755" lon="6.43444">
        <ele>416.4</ele>
        <time>2023-10-01T08:08:36Z</time>
      </trkpt>
      <trkpt lat="48.15757" lon="6.4344">
        <ele>416.2</ele>
        <time>2023-10-01T08:08:37Z</time>
      </trkpt>
      <trkpt lat="48.1576" lon="6.43434">
        <ele>416</ele>
        <time>2023-10-01T08:08:38Z</time>
      </trkpt>
      <trkpt lat="48.15763" lon="6.43429">
        <ele>416</ele>
        <time>2023-10-01T08:08:39Z</time>
      </trkpt>
      <trkpt lat="48.15765" lon="6.43427">
        <ele>415.8</ele>
        <time>2023-10-01T08:08:40Z</time>
      </trkpt>
      <trkpt lat="48.15768" lon="6.43423">
        <ele>415.8</ele>
        <time>2023-10-01T08:08:41Z</time>
      </trkpt>
      <trkpt lat="48.15771" lon="6.43417">
        <ele>415.6</ele>
        <time>2023-10-01T08:08:42Z</time>
      </trkpt>
      <trkpt lat="48.15774" lon="6.43411">
        <ele>415.4</ele>
        <time>2023-10-01T08:08:43Z</time>
      </trkpt>
      <trkpt lat="48.15777" lon="6.43406">
        <ele>415.2</ele>
        <time>2023-10-01T08:08:44Z</time>
      </trkpt>
      <trkpt lat="48.15779" lon="6.43403">
        <ele>415</ele>
        <time>2023-10-01T08:08:45Z</time>
      </trkpt>
      <trkpt lat="48.15781" lon="6.43401">
        <ele>414</ele>
        <time>2023-10-01T08:08:46Z</time>
      </trkpt>
      <trkpt lat="48.15783" lon="6.43398">
        <ele>413.6</ele>
        <time>2023-10-01T08:08:47Z</time>
      </trkpt>
      <trkpt lat="48.15786" lon="6.43395">
        <ele>413</ele>
        <time>2023-10-01T08:08:48Z</time>
      </trkpt>
      <trkpt lat="48.15786" lon="6.43394">
        <ele>413</ele>
        <time>2023-10-01T08:08:49Z</time>
      </trkpt>
      <trkpt lat="48.15787" lon="6.43392">
        <ele>412.8</ele>
        <time>2023-10-01T08:08:50Z</time>
      </trkpt>
      <trkpt lat="48.15789" lon="6.43389">
        <ele>412.8</ele>
        <time>2023-10-01T08:08:51Z</time>
      </trkpt>
      <trkpt lat="48.15792" lon="6.43385">
        <ele>412.8</ele>
        <time>2023-10-01T08:08:52Z</time>
      </trkpt>
      <trkpt lat="48.15793" lon="6.43383">
        <ele>412.8</ele>
        <time>2023-10-01T08:08:53Z</time>
      </trkpt>
      <trkpt lat="48.15794" lon="6.43381">
        <ele>412.8</ele>
        <time>2023-10-01T08:08:54Z</time>
      </trkpt>
      <trkpt lat="48.15796" lon="6.43379">
        <ele>413</ele>
        <time>2023-10-01T08:08:55Z</time>
      </trkpt>
      <trkpt lat="48.15797" lon="6.43376">
        <ele>413.2</ele>
        <time>2023-10-01T08:08:56Z</time>
      </trkpt>
      <trkpt lat="48.15799" lon="6.43372">
        <ele>413.4</ele>
        <time>2023-10-01T08:08:57Z</time>
      </trkpt>
      <trkpt lat="48.15801" lon="6.43368">
        <ele>413.4</ele>
        <time>2023-10-01T08:08:58Z</time>
      </trkpt>
      <trkpt lat="48.15803" lon="6.43364">
        <ele>413.4</ele>
        <time>2023-10-01T08:08:59Z</time>
      </trkpt>
      <trkpt lat="48.15805" lon="6.43361">
        <ele>413.4</ele>
        <time>2023-10-01T08:09:00Z</time>
      </trkpt>
      <trkpt lat="48.15807" lon="6.43355">
        <ele>413.6</ele>
        <time>2023-10-01T08:09:01Z</time>
      </trkpt>
      <trkpt lat="48.15809" lon="6.43352">
        <ele>413.6</ele>
        <time>2023-10-01T08:09:02Z</time>
      </trkpt>
      <trkpt lat="48.15811" lon="6.43347">
        <ele>413.6</ele>
        <time>2023-10-01T08:09:03Z</time>
      </trkpt>
      <trkpt lat="48.1581" lon="6.43342">
        <ele>413.8</ele>
        <time>2023-10-01T08:09:04Z</time>
      </trkpt>
      <trkpt lat="48.15811" lon="6.43338">
        <ele>413.8</ele>
        <time>2023-10-01T08:09:05Z</time>
      </trkpt>
      <trkpt lat="48.15811" lon="6.43335">
        <ele>413.8</ele>
        <time>2023-10-01T08:09:06Z</time>
      </trkpt>
      <trkpt lat="48.15812" lon="6.43333">
        <ele>413.8</ele>
        <time>2023-10-01T08:09:07Z</time>
      </trkpt>
      <trkpt lat="48.15812" lon="6.43329">
        <ele>414</ele>
        <time>2023-10-01T08:09:08Z</time>
      </trkpt>
      <trkpt lat="48.15812" lon="6.43328">
        <ele>414</ele>
        <time>2023-10-01T08:09:09Z</time>
      </trkpt>
      <trkpt lat="48.15814" lon="6.43325">
        <ele>414</ele>
        <time>2023-10-01T08:09:10Z</time>
      </trkpt>
      <trkpt lat="48.15816" lon="6.4332">
        <ele>414</ele>
        <time>2023-10-01T08:09:11Z</time>
      </trkpt>
      <trkpt lat="48.15816" lon="6.43314">
        <ele>414.2</ele>
        <time>2023-10-01T08:09:12Z</time>
      </trkpt>
      <trkpt lat="48.15817" lon="6.43308">
        <ele>414.2</ele>
        <time>2023-10-01T08:09:13Z</time>
      </trkpt>
      <trkpt lat="48.15817" lon="6.43304">
        <ele>414.4</ele>
        <time>2023-10-01T08:09:14Z</time>
      </trkpt>
      <trkpt lat="48.15817" lon="6.433">
        <ele>414.6</ele>
        <time>2023-10-01T08:09:15Z</time>
      </trkpt>
      <trkpt lat="48.15817" lon="6.43297">
        <ele>415</ele>
        <time>2023-10-01T08:09:16Z</time>
      </trkpt>
      <trkpt lat="48.15818" lon="6.43294">
        <ele>415.2</ele>
        <time>2023-10-01T08:09:17Z</time>
      </trkpt>
      <trkpt lat="48.15819" lon="6.43291">
        <ele>415.6</ele>
        <time>2023-10-01T08:09:18Z</time>
      </trkpt>
      <trkpt lat="48.15819" lon="6.43289">
        <ele>415.8</ele>
        <time>2023-10-01T08:09:19Z</time>
      </trkpt>
      <trkpt lat="48.1582" lon="6.43286">
        <ele>416</ele>
        <time>2023-10-01T08:09:20Z</time>
      </trkpt>
      <trkpt lat="48.1582" lon="6.43286">
        <ele>416.2</ele>
        <time>2023-10-01T08:09:21Z</time>
      </trkpt>
      <trkpt lat="48.1582" lon="6.43284">
        <ele>416.6</ele>
        <time>2023-10-01T08:09:22Z</time>
      </trkpt>
      <trkpt lat="48.15821" lon="6.43281">
        <ele>416.6</ele>
        <time>2023-10-01T08:09:23Z</time>
      </trkpt>
      <trkpt lat="48.15821" lon="6.43279">
        <ele>417</ele>
        <time>2023-10-01T08:09:24Z</time>
      </trkpt>
      <trkpt lat="48.15822" lon="6.43277">
        <ele>417.2</ele>
        <time>2023-10-01T08:09:25Z</time>
      </trkpt>
      <trkpt lat="48.15824" lon="6.43277">
        <ele>417.8</ele>
        <time>2023-10-01T08:09:26Z</time>
      </trkpt>
      <trkpt lat="48.15824" lon="6.43277">
        <ele>418.2</ele>
        <time>2023-10-01T08:09:27Z</time>
      </trkpt>
      <trkpt lat="48.15825" lon="6.43277">
        <ele>418.6</ele>
        <time>2023-10-01T08:09:28Z</time>
      </trkpt>
      <trkpt lat="48.15832" lon="6.43272">
        <ele>418.8</ele>
        <time>2023-10-01T08:09:29Z</time>
      </trkpt>
      <trkpt lat="48.15836" lon="6.4327">
        <ele>419</ele>
        <time>2023-10-01T08:09:30Z</time>
      </trkpt>
      <trkpt lat="48.15838" lon="6.43264">
        <ele>419</ele>
        <time>2023-10-01T08:09:31Z</time>
      </trkpt>
      <trkpt lat="48.15841" lon="6.43258">
        <ele>419</ele>
        <time>2023-10-01T08:09:32Z</time>
      </trkpt>
      <trkpt lat="48.15843" lon="6.43254">
        <ele>419</ele>
        <time>2023-10-01T08:09:33Z</time>
      </trkpt>
      <trkpt lat="48.15844" lon="6.4325">
        <ele>419</ele>
        <time>2023-10-01T08:09:34Z</time>
      </trkpt>
      <trkpt lat="48.15846" lon="6.43247">
        <ele>419</ele>
        <time>2023-10-01T08:09:35Z</time>
      </trkpt>
      <trkpt lat="48.15846" lon="6.43243">
        <ele>419</ele>
        <time>2023-10-01T08:09:36Z</time>
      </trkpt>
      <trkpt lat="48.15849" lon="6.43238">
        <ele>418.8</ele>
        <time>2023-10-01T08:09:37Z</time>
      </trkpt>
      <trkpt lat="48.1585" lon="6.43236">
        <ele>418.8</ele>
        <time>2023-10-01T08:09:38Z</time>
      </trkpt>
      <trkpt lat="48.15851" lon="6.43234">
        <ele>418.8</ele>
        <time>2023-10-01T08:09:39Z</time>
      </trkpt>
      <trkpt lat="48.15853" lon="6.43232">
        <ele>418.6</ele>
        <time>2023-10-01T08:09:40Z</time>
      </trkpt>
      <trkpt lat="48.15854" lon="6.4323">
        <ele>418.8</ele>
        <time>2023-10-01T08:09:41Z</time>
      </trkpt>
      <trkpt lat="48.15854" lon="6.43227">
        <ele>418.8</ele>
        <time>2023-10-01T08:09:42Z</time>
      </trkpt>
      <trkpt lat="48.15854" lon="6.43223">
        <ele>418.8</ele>
        <time>2023-10-01T08:09:43Z</time>
      </trkpt>
      <trkpt lat="48.15856" lon="6.43221">
        <ele>418.8</ele>
        <time>2023-10-01T08:09:44Z</time>
      </trkpt>
      <trkpt lat="48.1586" lon="6.43215">
        <ele>418.8</ele>
        <time>2023-10-01T08:09:45Z</time>
      </trkpt>
      <trkpt lat="48.15861" lon="6.43215">
        <ele>419</ele>
        <time>2023-10-01T08:09:46Z</time>
      </trkpt>
      <trkpt lat="48.15861" lon="6.43214">
        <ele>419.4</ele>
        <time>2023-10-01T08:09:47Z</time>
      </trkpt>
      <trkpt lat="48.15862" lon="6.43213">
        <ele>419.4</ele>
        <time>2023-10-01T08:09:48Z</time>
      </trkpt>
      <trkpt lat="48.15862" lon="6.43213">
        <ele>419.8</ele>
        <time>2023-10-01T08:09:49Z</time>
      </trkpt>
      <trkpt lat="48.15862" lon="6.43212">
        <ele>420</ele>
        <time>2023-10-01T08:09:50Z</time>
      </trkpt>
      <trkpt lat="48.15864" lon="6.4321">
        <ele>420.4</ele>
        <time>2023-10-01T08:09:51Z</time>
      </trkpt>
      <trkpt lat="48.15865" lon="6.43209">
        <ele>420.4</ele>
        <time>2023-10-01T08:09:52Z</time>
      </trkpt>
      <trkpt lat="48.15867" lon="6.43207">
        <ele>420.6</ele>
        <time>2023-10-01T08:09:53Z</time>
      </trkpt>
      <trkpt lat="48.15869" lon="6.43206">
        <ele>420.8</ele>
        <time>2023-10-01T08:09:54Z</time>
      </trkpt>
      <trkpt lat="48.15871" lon="6.43205">
        <ele>420.8</ele>
        <time>2023-10-01T08:09:55Z</time>
      </trkpt>
      <trkpt lat="48.15875" lon="6.43203">
        <ele>420.8</ele>
        <time>2023-10-01T08:09:56Z</time>
      </trkpt>
      <trkpt lat="48.15876" lon="6.43202">
        <ele>420.8</ele>
        <time>2023-10-01T08:09:57Z</time>
      </trkpt>
      <trkpt lat="48.15877" lon="6.43202">
        <ele>421</ele>
        <time>2023-10-01T08:09:58Z</time>
      </trkpt>
      <trkpt lat="48.15877" lon="6.43202">
        <ele>421</ele>
        <time>2023-10-01T08:09:59Z</time>
      </trkpt>
      <trkpt lat="48.15879" lon="6.43201">
        <ele>421</ele>
        <time>2023-10-01T08:10:00Z</time>
      </trkpt>
      <trkpt lat="48.15884" lon="6.432">
        <ele>421</ele>
        <time>2023-10-01T08:10:01Z</time>
      </trkpt>
      <trkpt lat="48.1589" lon="6.43196">
        <ele>420.8</ele>
        <time>2023-10-01T08:10:02Z</time>
      </trkpt>
      <trkpt lat="48.15892" lon="6.43195">
        <ele>420.8</ele>
        <time>2023-10-01T08:10:03Z</time>
      </trkpt>
      <trkpt lat="48.15894" lon="6.43195">
        <ele>420.8</ele>
        <time>2023-10-01T08:10:04Z</time>
      </trkpt>
      <trkpt lat="48.15896" lon="6.43197">
        <ele>420.8</ele>
        <time>2023-10-01T08:10:05Z</time>
      </trkpt>
      <trkpt lat="48.15899" lon="6.43199">
        <ele>420.8</ele>
        <time>2023-10-01T08:10:06Z</time>
      </trkpt>
      <trkpt lat="48.15902" lon="6.432">
        <ele>420.8</ele>
        <time>2023-10-01T08:10:07Z</time>
      </trkpt>
      <trkpt lat="48.15907" lon="6.43202">
        <ele>420.8</ele>
        <time>2023-10-01T08:10:08Z</time>
      </trkpt>
      <trkpt lat="48.15913" lon="6.43203">
        <ele>420.8</ele>
        <time>2023-10-01T08:10:09Z</time>
      </trkpt>
      <trkpt lat="48.15916" lon="6.43202">
        <ele>420.8</ele>
        <time>2023-10-01T08:10:10Z</time>
      </trkpt>
      <trkpt lat="48.15922" lon="6.432">
        <ele>420.8</ele>
        <time>2023-10-01T08:10:11Z</time>
      </trkpt>
      <trkpt lat="48.15927" lon="6.43197">
        <ele>420.8</ele>
        <time>2023-10-01T08:10:12Z</time>
      </trkpt>
      <trkpt lat="48.15929" lon="6.43195">
        <ele>421.2</ele>
        <time>2023-10-01T08:10:13Z</time>
      </trkpt>
      <trkpt lat="48.15929" lon="6.43195">
        <ele>421.2</ele>
        <time>2023-10-01T08:10:14Z</time>
      </trkpt>
      <trkpt lat="48.15929" lon="6.43195">
        <ele>421.2</ele>
        <time>2023-10-01T08:10:15Z</time>
      </trkpt>
      <trkpt lat="48.15929" lon="6.43194">
        <ele>421.4</ele>
        <time>2023-10-01T08:10:16Z</time>
      </trkpt>
      <trkpt lat="48.15929" lon="6.43194">
        <ele>421.4</ele>
        <time>2023-10-01T08:10:17Z</time>
      </trkpt>
      <trkpt lat="48.15931" lon="6.43193">
        <ele>421.4</ele>
        <time>2023-10-01T08:10:18Z</time>
      </trkpt>
      <trkpt lat="48.15931" lon="6.43192">
        <ele>422</ele>
        <time>2023-10-01T08:10:19Z</time>
      </trkpt>
      <trkpt lat="48.15931" lon="6.43192">
        <ele>422.2</ele>
        <time>2023-10-01T08:10:20Z</time>
      </trkpt>
      <trkpt lat="48.15931" lon="6.43192">
        <ele>422.4</ele>
        <time>2023-10-01T08:10:21Z</time>
      </trkpt>
      <trkpt lat="48.15933" lon="6.43191">
        <ele>422.6</ele>
        <time>2023-10-01T08:10:22Z</time>
      </trkpt>
      <trkpt lat="48.15935" lon="6.4319">
        <ele>423</ele>
        <time>2023-10-01T08:10:23Z</time>
      </trkpt>
      <trkpt lat="48.15935" lon="6.4319">
        <ele>423</ele>
        <time>2023-10-01T08:10:24Z</time>
      </trkpt>
      <trkpt lat="48.15935" lon="6.4319">
        <ele>423.4</ele>
        <time>2023-10-01T08:10:25Z</time>
      </trkpt>
      <trkpt lat="48.15935" lon="6.4319">
        <ele>423.6</ele>
        <time>2023-10-01T08:10:26Z</time>
      </trkpt>
      <trkpt lat="48.15935" lon="6.4319">
        <ele>424</ele>
        <time>2023-10-01T08:10:27Z</time>
      </trkpt>
      <trkpt lat="48.15935" lon="6.4319">
        <ele>424.2</ele>
        <time>2023-10-01T08:10:28Z</time>
      </trkpt>
      <trkpt lat="48.1594" lon="6.43191">
        <ele>424.6</ele>
        <time>2023-10-01T08:10:29Z</time>
      </trkpt>
      <trkpt lat="48.15943" lon="6.43193">
        <ele>425</ele>
        <time>2023-10-01T08:10:30Z</time>
      </trkpt>
      <trkpt lat="48.15946" lon="6.43195">
        <ele>425</ele>
        <time>2023-10-01T08:10:31Z</time>
      </trkpt>
      <trkpt lat="48.15947" lon="6.43195">
        <ele>425.2</ele>
        <time>2023-10-01T08:10:32Z</time>
      </trkpt>
      <trkpt lat="48.15947" lon="6.43195">
        <ele>425.4</ele>
        <time>2023-10-01T08:10:33Z</time>
      </trkpt>
      <trkpt lat="48.15952" lon="6.43194">
        <ele>425.6</ele>
        <time>2023-10-01T08:10:34Z</time>
      </trkpt>
      <trkpt lat="48.15955" lon="6.43194">
        <ele>426</ele>
        <time>2023-10-01T08:10:35Z</time>
      </trkpt>
      <trkpt lat="48.15957" lon="6.43193">
        <ele>426.6</ele>
        <time>2023-10-01T08:10:36Z</time>
      </trkpt>
      <trkpt lat="48.15959" lon="6.43192">
        <ele>426.8</ele>
        <time>2023-10-01T08:10:37Z</time>
      </trkpt>
      <trkpt lat="48.15961" lon="6.43192">
        <ele>427.2</ele>
        <time>2023-10-01T08:10:38Z</time>
      </trkpt>
      <trkpt lat="48.15964" lon="6.43193">
        <ele>427.6</ele>
        <time>2023-10-01T08:10:39Z</time>
      </trkpt>
      <trkpt lat="48.15966" lon="6.43194">
        <ele>428</ele>
        <time>2023-10-01T08:10:40Z</time>
      </trkpt>
      <trkpt lat="48.15969" lon="6.43194">
        <ele>428.2</ele>
        <time>2023-10-01T08:10:41Z</time>
      </trkpt>
      <trkpt lat="48.15972" lon="6.43196">
        <ele>428.6</ele>
        <time>2023-10-01T08:10:42Z</time>
      </trkpt>
      <trkpt lat="48.15975" lon="6.43196">
        <ele>429</ele>
        <time>2023-10-01T08:10:43Z</time>
      </trkpt>
      <trkpt lat="48.15979" lon="6.43199">
        <ele>429.4</ele>
        <time>2023-10-01T08:10:44Z</time>
      </trkpt>
      <trkpt lat="48.15982" lon="6.432">
        <ele>429.8</ele>
        <time>2023-10-01T08:10:45Z</time>
      </trkpt>
      <trkpt lat="48.15986" lon="6.432">
        <ele>430.2</ele>
        <time>2023-10-01T08:10:46Z</time>
      </trkpt>
      <trkpt lat="48.15988" lon="6.432">
        <ele>430.4</ele>
        <time>2023-10-01T08:10:47Z</time>
      </trkpt>
      <trkpt lat="48.1599" lon="6.432">
        <ele>430.8</ele>
        <time>2023-10-01T08:10:48Z</time>
      </trkpt>
      <trkpt lat="48.15991" lon="6.43199">
        <ele>431</ele>
        <time>2023-10-01T08:10:49Z</time>
      </trkpt>
      <trkpt lat="48.15992" lon="6.43199">
        <ele>431.4</ele>
        <time>2023-10-01T08:10:50Z</time>
      </trkpt>
      <trkpt lat="48.15994" lon="6.43199">
        <ele>431.8</ele>
        <time>2023-10-01T08:10:51Z</time>
      </trkpt>
      <trkpt lat="48.15996" lon="6.43201">
        <ele>432</ele>
        <time>2023-10-01T08:10:52Z</time>
      </trkpt>
      <trkpt lat="48.15998" lon="6.43202">
        <ele>432.4</ele>
        <time>2023-10-01T08:10:53Z</time>
      </trkpt>
      <trkpt lat="48.15999" lon="6.43203">
        <ele>432.4</ele>
        <time>2023-10-01T08:10:54Z</time>
      </trkpt>
      <trkpt lat="48.16001" lon="6.43205">
        <ele>432.8</ele>
        <time>2023-10-01T08:10:55Z</time>
      </trkpt>
      <trkpt lat="48.16003" lon="6.43207">
        <ele>433.2</ele>
        <time>2023-10-01T08:10:56Z</time>
      </trkpt>
      <trkpt lat="48.16004" lon="6.43209">
        <ele>433.6</ele>
        <time>2023-10-01T08:10:57Z</time>
      </trkpt>
      <trkpt lat="48.16005" lon="6.43212">
        <ele>433.6</ele>
        <time>2023-10-01T08:10:58Z</time>
      </trkpt>
      <trkpt lat="48.16006" lon="6.43215">
        <ele>434.2</ele>
        <time>2023-10-01T08:10:59Z</time>
      </trkpt>
      <trkpt lat="48.16007" lon="6.43217">
        <ele>434.4</ele>
        <time>2023-10-01T08:11:00Z</time>
      </trkpt>
      <trkpt lat="48.16008" lon="6.43218">
        <ele>434.8</ele>
        <time>2023-10-01T08:11:01Z</time>
      </trkpt>
      <trkpt lat="48.16008" lon="6.4322">
        <ele>435</ele>
        <time>2023-10-01T08:11:02Z</time>
      </trkpt>
      <trkpt lat="48.16008" lon="6.43222">
        <ele>435.2</ele>
        <time>2023-10-01T08:11:03Z</time>
      </trkpt>
      <trkpt lat="48.16008" lon="6.43223">
        <ele>435.4</ele>
        <time>2023-10-01T08:11:04Z</time>
      </trkpt>
      <trkpt lat="48.16007" lon="6.43225">
        <ele>435.8</ele>
        <time>2023-10-01T08:11:05Z</time>
      </trkpt>
      <trkpt lat="48.16008" lon="6.43228">
        <ele>436</ele>
        <time>2023-10-01T08:11:06Z</time>
      </trkpt>
      <trkpt lat="48.16008" lon="6.43228">
        <ele>436.2</ele>
        <time>2023-10-01T08:11:07Z</time>
      </trkpt>
      <trkpt lat="48.16009" lon="6.4323">
        <ele>436.4</ele>
        <time>2023-10-01T08:11:08Z</time>
      </trkpt>
      <trkpt lat="48.16009" lon="6.43233">
        <ele>436.4</ele>
        <time>2023-10-01T08:11:09Z</time>
      </trkpt>
      <trkpt lat="48.16008" lon="6.43235">
        <ele>436.6</ele>
        <time>2023-10-01T08:11:10Z</time>
      </trkpt>
      <trkpt lat="48.16008" lon="6.43238">
        <ele>436.8</ele>
        <time>2023-10-01T08:11:11Z</time>
      </trkpt>
      <trkpt lat="48.16007" lon="6.4324">
        <ele>436.8</ele>
        <time>2023-10-01T08:11:12Z</time>
      </trkpt>
      <trkpt lat="48.16006" lon="6.43242">
        <ele>436.8</ele>
        <time>2023-10-01T08:11:13Z</time>
      </trkpt>
      <trkpt lat="48.16005" lon="6.43244">
        <ele>436.8</ele>
        <time>2023-10-01T08:11:14Z</time>
      </trkpt>
      <trkpt lat="48.16005" lon="6.43246">
        <ele>436.8</ele>
        <time>2023-10-01T08:11:15Z</time>
      </trkpt>
      <trkpt lat="48.16005" lon="6.43249">
        <ele>436.8</ele>
        <time>2023-10-01T08:11:16Z</time>
      </trkpt>
      <trkpt lat="48.16005" lon="6.4325">
        <ele>436.8</ele>
        <time>2023-10-01T08:11:17Z</time>
      </trkpt>
      <trkpt lat="48.16005" lon="6.43251">
        <ele>436.8</ele>
        <time>2023-10-01T08:11:18Z</time>
      </trkpt>
      <trkpt lat="48.16004" lon="6.43251">
        <ele>437</ele>
        <time>2023-10-01T08:11:19Z</time>
      </trkpt>
      <trkpt lat="48.16004" lon="6.43252">
        <ele>437</ele>
        <time>2023-10-01T08:11:20Z</time>
      </trkpt>
      <trkpt lat="48.16001" lon="6.43265">
        <ele>437.6</ele>
        <time>2023-10-01T08:20:57Z</time>
      </trkpt>
      <trkpt lat="48.15999" lon="6.43271">
        <ele>437.6</ele>
        <time>2023-10-01T08:20:58Z</time>
      </trkpt>
      <trkpt lat="48.15997" lon="6.43278">
        <ele>437.6</ele>
        <time>2023-10-01T08:20:59Z</time>
      </trkpt>
      <trkpt lat="48.15995" lon="6.43283">
        <ele>437.6</ele>
        <time>2023-10-01T08:21:00Z</time>
      </trkpt>
      <trkpt lat="48.15994" lon="6.43287">
        <ele>437.8</ele>
        <time>2023-10-01T08:21:01Z</time>
      </trkpt>
      <trkpt lat="48.15993" lon="6.4329">
        <ele>437.6</ele>
        <time>2023-10-01T08:21:02Z</time>
      </trkpt>
      <trkpt lat="48.15993" lon="6.43294">
        <ele>437.6</ele>
        <time>2023-10-01T08:21:03Z</time>
      </trkpt>
      <trkpt lat="48.15993" lon="6.43297">
        <ele>437.6</ele>
        <time>2023-10-01T08:21:04Z</time>
      </trkpt>
      <trkpt lat="48.15994" lon="6.43301">
        <ele>437.6</ele>
        <time>2023-10-01T08:21:05Z</time>
      </trkpt>
      <trkpt lat="48.15996" lon="6.43308">
        <ele>437.6</ele>
        <time>2023-10-01T08:21:06Z</time>
      </trkpt>
      <trkpt lat="48.15999" lon="6.43313">
        <ele>437.4</ele>
        <time>2023-10-01T08:21:07Z</time>
      </trkpt>
      <trkpt lat="48.16001" lon="6.43319">
        <ele>437.4</ele>
        <time>2023-10-01T08:21:08Z</time>
      </trkpt>
      <trkpt lat="48.16004" lon="6.43326">
        <ele>437.4</ele>
        <time>2023-10-01T08:21:09Z</time>
      </trkpt>
      <trkpt lat="48.16008" lon="6.43333">
        <ele>437.2</ele>
        <time>2023-10-01T08:21:10Z</time>
      </trkpt>
      <trkpt lat="48.1601" lon="6.43339">
        <ele>437</ele>
        <time>2023-10-01T08:21:11Z</time>
      </trkpt>
      <trkpt lat="48.16012" lon="6.43343">
        <ele>436.8</ele>
        <time>2023-10-01T08:21:12Z</time>
      </trkpt>
      <trkpt lat="48.16013" lon="6.43347">
        <ele>436.6</ele>
        <time>2023-10-01T08:21:13Z</time>
      </trkpt>
      <trkpt lat="48.16013" lon="6.43351">
        <ele>436.4</ele>
        <time>2023-10-01T08:21:14Z</time>
      </trkpt>
      <trkpt lat="48.16014" lon="6.43357">
        <ele>436.2</ele>
        <time>2023-10-01T08:21:15Z</time>
      </trkpt>
      <trkpt lat="48.16015" lon="6.43361">
        <ele>436.2</ele>
        <time>2023-10-01T08:21:16Z</time>
      </trkpt>
      <trkpt lat="48.16018" lon="6.43366">
        <ele>436</ele>
        <time>2023-10-01T08:21:17Z</time>
      </trkpt>
      <trkpt lat="48.16019" lon="6.43371">
        <ele>435.8</ele>
        <time>2023-10-01T08:21:18Z</time>
      </trkpt>
      <trkpt lat="48.1602" lon="6.43374">
        <ele>435.6</ele>
        <time>2023-10-01T08:21:19Z</time>
      </trkpt>
      <trkpt lat="48.16022" lon="6.43378">
        <ele>435.6</ele>
        <time>2023-10-01T08:21:20Z</time>
      </trkpt>
      <trkpt lat="48.16026" lon="6.43384">
        <ele>435.6</ele>
        <time>2023-10-01T08:21:21Z</time>
      </trkpt>
      <trkpt lat="48.16031" lon="6.43392">
        <ele>435.6</ele>
        <time>2023-10-01T08:21:22Z</time>
      </trkpt>
      <trkpt lat="48.16031" lon="6.43397">
        <ele>435.6</ele>
        <time>2023-10-01T08:21:23Z</time>
      </trkpt>
      <trkpt lat="48.16032" lon="6.43405">
        <ele>435.6</ele>
        <time>2023-10-01T08:21:24Z</time>
      </trkpt>
      <trkpt lat="48.16032" lon="6.43411">
        <ele>435.6</ele>
        <time>2023-10-01T08:21:25Z</time>
      </trkpt>
      <trkpt lat="48.16033" lon="6.43417">
        <ele>435.8</ele>
        <time>2023-10-01T08:21:26Z</time>
      </trkpt>
      <trkpt lat="48.16033" lon="6.43424">
        <ele>435.6</ele>
        <time>2023-10-01T08:21:27Z</time>
      </trkpt>
      <trkpt lat="48.16034" lon="6.43429">
        <ele>435.6</ele>
        <time>2023-10-01T08:21:28Z</time>
      </trkpt>
      <trkpt lat="48.16035" lon="6.43437">
        <ele>435.8</ele>
        <time>2023-10-01T08:21:29Z</time>
      </trkpt>
      <trkpt lat="48.16034" lon="6.43442">
        <ele>435.8</ele>
        <time>2023-10-01T08:21:30Z</time>
      </trkpt>
      <trkpt lat="48.16033" lon="6.43447">
        <ele>435.8</ele>
        <time>2023-10-01T08:21:31Z</time>
      </trkpt>
      <trkpt lat="48.16032" lon="6.4345">
        <ele>435.6</ele>
        <time>2023-10-01T08:21:32Z</time>
      </trkpt>
      <trkpt lat="48.16032" lon="6.43455">
        <ele>435.6</ele>
        <time>2023-10-01T08:21:33Z</time>
      </trkpt>
      <trkpt lat="48.16029" lon="6.4346">
        <ele>435.8</ele>
        <time>2023-10-01T08:21:34Z</time>
      </trkpt>
      <trkpt lat="48.1603" lon="6.43463">
        <ele>435.8</ele>
        <time>2023-10-01T08:21:35Z</time>
      </trkpt>
      <trkpt lat="48.16031" lon="6.43466">
        <ele>435.8</ele>
        <time>2023-10-01T08:21:36Z</time>
      </trkpt>
      <trkpt lat="48.16034" lon="6.43467">
        <ele>435.8</ele>
        <time>2023-10-01T08:21:37Z</time>
      </trkpt>
      <trkpt lat="48.16037" lon="6.43467">
        <ele>435.6</ele>
        <time>2023-10-01T08:21:38Z</time>
      </trkpt>
      <trkpt lat="48.16039" lon="6.43466">
        <ele>435.6</ele>
        <time>2023-10-01T08:21:39Z</time>
      </trkpt>
      <trkpt lat="48.16042" lon="6.43464">
        <ele>435.6</ele>
        <time>2023-10-01T08:21:40Z</time>
      </trkpt>
      <trkpt lat="48.16044" lon="6.43462">
        <ele>435.6</ele>
        <time>2023-10-01T08:21:41Z</time>
      </trkpt>
      <trkpt lat="48.16046" lon="6.43461">
        <ele>435.4</ele>
        <time>2023-10-01T08:21:42Z</time>
      </trkpt>
      <trkpt lat="48.16049" lon="6.43459">
        <ele>435.4</ele>
        <time>2023-10-01T08:21:43Z</time>
      </trkpt>
      <trkpt lat="48.16051" lon="6.43457">
        <ele>435.6</ele>
        <time>2023-10-01T08:21:44Z</time>
      </trkpt>
      <trkpt lat="48.16054" lon="6.43454">
        <ele>435.6</ele>
        <time>2023-10-01T08:21:45Z</time>
      </trkpt>
      <trkpt lat="48.16056" lon="6.43451">
        <ele>435.8</ele>
        <time>2023-10-01T08:21:46Z</time>
      </trkpt>
      <trkpt lat="48.16058" lon="6.43449">
        <ele>435.8</ele>
        <time>2023-10-01T08:21:47Z</time>
      </trkpt>
      <trkpt lat="48.1606" lon="6.43446">
        <ele>435.8</ele>
        <time>2023-10-01T08:21:48Z</time>
      </trkpt>
      <trkpt lat="48.16062" lon="6.43443">
        <ele>435.8</ele>
        <time>2023-10-01T08:21:49Z</time>
      </trkpt>
      <trkpt lat="48.16064" lon="6.43441">
        <ele>435.8</ele>
        <time>2023-10-01T08:21:50Z</time>
      </trkpt>
      <trkpt lat="48.16065" lon="6.4344">
        <ele>435.8</ele>
        <time>2023-10-01T08:21:51Z</time>
      </trkpt>
      <trkpt lat="48.16069" lon="6.43437">
        <ele>435.8</ele>
        <time>2023-10-01T08:21:52Z</time>
      </trkpt>
      <trkpt lat="48.16072" lon="6.43435">
        <ele>436</ele>
        <time>2023-10-01T08:21:53Z</time>
      </trkpt>
      <trkpt lat="48.16075" lon="6.43434">
        <ele>436</ele>
        <time>2023-10-01T08:21:54Z</time>
      </trkpt>
      <trkpt lat="48.16077" lon="6.43434">
        <ele>436</ele>
        <time>2023-10-01T08:21:55Z</time>
      </trkpt>
      <trkpt lat="48.16078" lon="6.43434">
        <ele>436</ele>
        <time>2023-10-01T08:21:56Z</time>
      </trkpt>
      <trkpt lat="48.16081" lon="6.43436">
        <ele>435.8</ele>
        <time>2023-10-01T08:21:57Z</time>
      </trkpt>
      <trkpt lat="48.16084" lon="6.4344">
        <ele>435.8</ele>
        <time>2023-10-01T08:21:58Z</time>
      </trkpt>
      <trkpt lat="48.16087" lon="6.43446">
        <ele>435.6</ele>
        <time>2023-10-01T08:21:59Z</time>
      </trkpt>
      <trkpt lat="48.1609" lon="6.43451">
        <ele>435.6</ele>
        <time>2023-10-01T08:22:00Z</time>
      </trkpt>
      <trkpt lat="48.16094" lon="6.43457">
        <ele>435.4</ele>
        <time>2023-10-01T08:22:01Z</time>
      </trkpt>
      <trkpt lat="48.16097" lon="6.43462">
        <ele>435.4</ele>
        <time>2023-10-01T08:22:02Z</time>
      </trkpt>
      <trkpt lat="48.16099" lon="6.43465">
        <ele>435.4</ele>
        <time>2023-10-01T08:22:03Z</time>
      </trkpt>
      <trkpt lat="48.16101" lon="6.43467">
        <ele>435.4</ele>
        <time>2023-10-01T08:22:04Z</time>
      </trkpt>
      <trkpt lat="48.16103" lon="6.4347">
        <ele>435.2</ele>
        <time>2023-10-01T08:22:05Z</time>
      </trkpt>
      <trkpt lat="48.16104" lon="6.43473">
        <ele>435</ele>
        <time>2023-10-01T08:22:06Z</time>
      </trkpt>
      <trkpt lat="48.16104" lon="6.43475">
        <ele>434.8</ele>
        <time>2023-10-01T08:22:07Z</time>
      </trkpt>
      <trkpt lat="48.16104" lon="6.43477">
        <ele>434.8</ele>
        <time>2023-10-01T08:22:08Z</time>
      </trkpt>
      <trkpt lat="48.16105" lon="6.43479">
        <ele>434.6</ele>
        <time>2023-10-01T08:22:09Z</time>
      </trkpt>
      <trkpt lat="48.16106" lon="6.43483">
        <ele>434.6</ele>
        <time>2023-10-01T08:22:10Z</time>
      </trkpt>
      <trkpt lat="48.16108" lon="6.43487">
        <ele>434.4</ele>
        <time>2023-10-01T08:22:11Z</time>
      </trkpt>
      <trkpt lat="48.1611" lon="6.43492">
        <ele>434.4</ele>
        <time>2023-10-01T08:22:12Z</time>
      </trkpt>
      <trkpt lat="48.16111" lon="6.43497">
        <ele>434.4</ele>
        <time>2023-10-01T08:22:13Z</time>
      </trkpt>
      <trkpt lat="48.16112" lon="6.43501">
        <ele>434.4</ele>
        <time>2023-10-01T08:22:14Z</time>
      </trkpt>
      <trkpt lat="48.16114" lon="6.43507">
        <ele>434.4</ele>
        <time>2023-10-01T08:22:15Z</time>
      </trkpt>
      <trkpt lat="48.16115" lon="6.4351">
        <ele>434.4</ele>
        <time>2023-10-01T08:22:16Z</time>
      </trkpt>
      <trkpt lat="48.16116" lon="6.43516">
        <ele>434.2</ele>
        <time>2023-10-01T08:22:17Z</time>
      </trkpt>
      <trkpt lat="48.16118" lon="6.43521">
        <ele>434.2</ele>
        <time>2023-10-01T08:22:18Z</time>
      </trkpt>
      <trkpt lat="48.16117" lon="6.43527">
        <ele>434.2</ele>
        <time>2023-10-01T08:22:19Z</time>
      </trkpt>
      <trkpt lat="48.16116" lon="6.43533">
        <ele>434</ele>
        <time>2023-10-01T08:22:20Z</time>
      </trkpt>
      <trkpt lat="48.16115" lon="6.4354">
        <ele>434</ele>
        <time>2023-10-01T08:22:21Z</time>
      </trkpt>
      <trkpt lat="48.16115" lon="6.43545">
        <ele>434</ele>
        <time>2023-10-01T08:22:22Z</time>
      </trkpt>
      <trkpt lat="48.16114" lon="6.4355">
        <ele>434</ele>
        <time>2023-10-01T08:22:23Z</time>
      </trkpt>
      <trkpt lat="48.16113" lon="6.43554">
        <ele>434</ele>
        <time>2023-10-01T08:22:24Z</time>
      </trkpt>
      <trkpt lat="48.16111" lon="6.43559">
        <ele>434</ele>
        <time>2023-10-01T08:22:25Z</time>
      </trkpt>
      <trkpt lat="48.16109" lon="6.43564">
        <ele>433.8</ele>
        <time>2023-10-01T08:22:26Z</time>
      </trkpt>
      <trkpt lat="48.16108" lon="6.43569">
        <ele>433.8</ele>
        <time>2023-10-01T08:22:27Z</time>
      </trkpt>
      <trkpt lat="48.16108" lon="6.43574">
        <ele>434</ele>
        <time>2023-10-01T08:22:28Z</time>
      </trkpt>
      <trkpt lat="48.16107" lon="6.4358">
        <ele>434</ele>
        <time>2023-10-01T08:22:29Z</time>
      </trkpt>
      <trkpt lat="48.16107" lon="6.43585">
        <ele>434</ele>
        <time>2023-10-01T08:22:30Z</time>
      </trkpt>
      <trkpt lat="48.16105" lon="6.4359">
        <ele>434</ele>
        <time>2023-10-01T08:22:31Z</time>
      </trkpt>
      <trkpt lat="48.16104" lon="6.43593">
        <ele>434</ele>
        <time>2023-10-01T08:22:32Z</time>
      </trkpt>
      <trkpt lat="48.16103" lon="6.43597">
        <ele>434</ele>
        <time>2023-10-01T08:22:33Z</time>
      </trkpt>
      <trkpt lat="48.16101" lon="6.43601">
        <ele>434</ele>
        <time>2023-10-01T08:22:34Z</time>
      </trkpt>
      <trkpt lat="48.161" lon="6.43606">
        <ele>434</ele>
        <time>2023-10-01T08:22:35Z</time>
      </trkpt>
      <trkpt lat="48.16099" lon="6.4361">
        <ele>434</ele>
        <time>2023-10-01T08:22:36Z</time>
      </trkpt>
      <trkpt lat="48.16097" lon="6.43615">
        <ele>434</ele>
        <time>2023-10-01T08:22:37Z</time>
      </trkpt>
      <trkpt lat="48.16095" lon="6.4362">
        <ele>434</ele>
        <time>2023-10-01T08:22:38Z</time>
      </trkpt>
      <trkpt lat="48.16092" lon="6.43625">
        <ele>434</ele>
        <time>2023-10-01T08:22:39Z</time>
      </trkpt>
      <trkpt lat="48.1609" lon="6.43629">
        <ele>434</ele>
        <time>2023-10-01T08:22:40Z</time>
      </trkpt>
      <trkpt lat="48.1609" lon="6.43633">
        <ele>434</ele>
        <time>2023-10-01T08:22:41Z</time>
      </trkpt>
      <trkpt lat="48.16091" lon="6.43636">
        <ele>434</ele>
        <time>2023-10-01T08:22:42Z</time>
      </trkpt>
      <trkpt lat="48.16091" lon="6.4364">
        <ele>434</ele>
        <time>2023-10-01T08:22:43Z</time>
      </trkpt>
      <trkpt lat="48.16092" lon="6.43645">
        <ele>434</ele>
        <time>2023-10-01T08:22:44Z</time>
      </trkpt>
      <trkpt lat="48.16093" lon="6.43654">
        <ele>434</ele>
        <time>2023-10-01T08:22:45Z</time>
      </trkpt>
      <trkpt lat="48.16093" lon="6.43659">
        <ele>433.8</ele>
        <time>2023-10-01T08:22:46Z</time>
      </trkpt>
      <trkpt lat="48.16091" lon="6.43666">
        <ele>433.8</ele>
        <time>2023-10-01T08:22:47Z</time>
      </trkpt>
      <trkpt lat="48.16089" lon="6.43673">
        <ele>433.8</ele>
        <time>2023-10-01T08:22:48Z</time>
      </trkpt>
      <trkpt lat="48.16088" lon="6.43679">
        <ele>433.8</ele>
        <time>2023-10-01T08:22:49Z</time>
      </trkpt>
      <trkpt lat="48.16089" lon="6.43688">
        <ele>433.8</ele>
        <time>2023-10-01T08:22:50Z</time>
      </trkpt>
      <trkpt lat="48.16089" lon="6.43694">
        <ele>433.8</ele>
        <time>2023-10-01T08:22:51Z</time>
      </trkpt>
      <trkpt lat="48.16088" lon="6.437">
        <ele>433.6</ele>
        <time>2023-10-01T08:22:52Z</time>
      </trkpt>
      <trkpt lat="48.16087" lon="6.43707">
        <ele>433.6</ele>
        <time>2023-10-01T08:22:53Z</time>
      </trkpt>
      <trkpt lat="48.16085" lon="6.43715">
        <ele>433.6</ele>
        <time>2023-10-01T08:22:54Z</time>
      </trkpt>
      <trkpt lat="48.16082" lon="6.43725">
        <ele>433.4</ele>
        <time>2023-10-01T08:22:55Z</time>
      </trkpt>
      <trkpt lat="48.16083" lon="6.43735">
        <ele>433.4</ele>
        <time>2023-10-01T08:22:56Z</time>
      </trkpt>
      <trkpt lat="48.16084" lon="6.43743">
        <ele>433.4</ele>
        <time>2023-10-01T08:22:57Z</time>
      </trkpt>
      <trkpt lat="48.16086" lon="6.4375">
        <ele>433.4</ele>
        <time>2023-10-01T08:22:58Z</time>
      </trkpt>
      <trkpt lat="48.16087" lon="6.43757">
        <ele>433.2</ele>
        <time>2023-10-01T08:22:59Z</time>
      </trkpt>
      <trkpt lat="48.16087" lon="6.43763">
        <ele>433</ele>
        <time>2023-10-01T08:23:00Z</time>
      </trkpt>
      <trkpt lat="48.16085" lon="6.43771">
        <ele>433</ele>
        <time>2023-10-01T08:23:01Z</time>
      </trkpt>
      <trkpt lat="48.16083" lon="6.43778">
        <ele>432.8</ele>
        <time>2023-10-01T08:23:02Z</time>
      </trkpt>
      <trkpt lat="48.1608" lon="6.43786">
        <ele>432.6</ele>
        <time>2023-10-01T08:23:03Z</time>
      </trkpt>
      <trkpt lat="48.16078" lon="6.43794">
        <ele>432.4</ele>
        <time>2023-10-01T08:23:04Z</time>
      </trkpt>
      <trkpt lat="48.16077" lon="6.43803">
        <ele>432.4</ele>
        <time>2023-10-01T08:23:05Z</time>
      </trkpt>
      <trkpt lat="48.1608" lon="6.43814">
        <ele>432.2</ele>
        <time>2023-10-01T08:23:06Z</time>
      </trkpt>
      <trkpt lat="48.16083" lon="6.43825">
        <ele>432</ele>
        <time>2023-10-01T08:23:07Z</time>
      </trkpt>
      <trkpt lat="48.16085" lon="6.43832">
        <ele>431.8</ele>
        <time>2023-10-01T08:23:08Z</time>
      </trkpt>
      <trkpt lat="48.16087" lon="6.43837">
        <ele>431.8</ele>
        <time>2023-10-01T08:23:09Z</time>
      </trkpt>
      <trkpt lat="48.16089" lon="6.43843">
        <ele>431.8</ele>
        <time>2023-10-01T08:23:10Z</time>
      </trkpt>
      <trkpt lat="48.1609" lon="6.43848">
        <ele>431.8</ele>
        <time>2023-10-01T08:23:11Z</time>
      </trkpt>
      <trkpt lat="48.1609" lon="6.43854">
        <ele>431.8</ele>
        <time>2023-10-01T08:23:12Z</time>
      </trkpt>
      <trkpt lat="48.1609" lon="6.4386">
        <ele>431.8</ele>
        <time>2023-10-01T08:23:13Z</time>
      </trkpt>
      <trkpt lat="48.1609" lon="6.43867">
        <ele>431.6</ele>
        <time>2023-10-01T08:23:14Z</time>
      </trkpt>
      <trkpt lat="48.16089" lon="6.43873">
        <ele>431.4</ele>
        <time>2023-10-01T08:23:15Z</time>
      </trkpt>
      <trkpt lat="48.16089" lon="6.43878">
        <ele>431.4</ele>
        <time>2023-10-01T08:23:16Z</time>
      </trkpt>
      <trkpt lat="48.16089" lon="6.43884">
        <ele>431.4</ele>
        <time>2023-10-01T08:23:17Z</time>
      </trkpt>
      <trkpt lat="48.16089" lon="6.43889">
        <ele>431.4</ele>
        <time>2023-10-01T08:23:18Z</time>
      </trkpt>
      <trkpt lat="48.16089" lon="6.43894">
        <ele>431.2</ele>
        <time>2023-10-01T08:23:19Z</time>
      </trkpt>
      <trkpt lat="48.1609" lon="6.43899">
        <ele>431.2</ele>
        <time>2023-10-01T08:23:20Z</time>
      </trkpt>
      <trkpt lat="48.16091" lon="6.43906">
        <ele>431.2</ele>
        <time>2023-10-01T08:23:21Z</time>
      </trkpt>
      <trkpt lat="48.16094" lon="6.43913">
        <ele>431.2</ele>
        <time>2023-10-01T08:23:22Z</time>
      </trkpt>
      <trkpt lat="48.16097" lon="6.4392">
        <ele>431</ele>
        <time>2023-10-01T08:23:23Z</time>
      </trkpt>
      <trkpt lat="48.16099" lon="6.43927">
        <ele>431</ele>
        <time>2023-10-01T08:23:24Z</time>
      </trkpt>
      <trkpt lat="48.16102" lon="6.43933">
        <ele>431</ele>
        <time>2023-10-01T08:23:25Z</time>
      </trkpt>
      <trkpt lat="48.16106" lon="6.43939">
        <ele>431</ele>
        <time>2023-10-01T08:23:26Z</time>
      </trkpt>
      <trkpt lat="48.16109" lon="6.43942">
        <ele>431</ele>
        <time>2023-10-01T08:23:27Z</time>
      </trkpt>
      <trkpt lat="48.16112" lon="6.43945">
        <ele>430.6</ele>
        <time>2023-10-01T08:23:28Z</time>
      </trkpt>
      <trkpt lat="48.16115" lon="6.43948">
        <ele>430.6</ele>
        <time>2023-10-01T08:23:29Z</time>
      </trkpt>
      <trkpt lat="48.16117" lon="6.43954">
        <ele>430.2</ele>
        <time>2023-10-01T08:23:30Z</time>
      </trkpt>
      <trkpt lat="48.1612" lon="6.43961">
        <ele>430</ele>
        <time>2023-10-01T08:23:31Z</time>
      </trkpt>
      <trkpt lat="48.16123" lon="6.43968">
        <ele>429.8</ele>
        <time>2023-10-01T08:23:32Z</time>
      </trkpt>
      <trkpt lat="48.16127" lon="6.43975">
        <ele>429.8</ele>
        <time>2023-10-01T08:23:33Z</time>
      </trkpt>
      <trkpt lat="48.16131" lon="6.43983">
        <ele>429.6</ele>
        <time>2023-10-01T08:23:34Z</time>
      </trkpt>
      <trkpt lat="48.16135" lon="6.43993">
        <ele>429.4</ele>
        <time>2023-10-01T08:23:35Z</time>
      </trkpt>
      <trkpt lat="48.16139" lon="6.44003">
        <ele>429.2</ele>
        <time>2023-10-01T08:23:36Z</time>
      </trkpt>
      <trkpt lat="48.16143" lon="6.44011">
        <ele>429</ele>
        <time>2023-10-01T08:23:37Z</time>
      </trkpt>
      <trkpt lat="48.16146" lon="6.44018">
        <ele>429</ele>
        <time>2023-10-01T08:23:38Z</time>
      </trkpt>
      <trkpt lat="48.16147" lon="6.44024">
        <ele>429</ele>
        <time>2023-10-01T08:23:39Z</time>
      </trkpt>
      <trkpt lat="48.16148" lon="6.44032">
        <ele>429</ele>
        <time>2023-10-01T08:23:40Z</time>
      </trkpt>
      <trkpt lat="48.1615" lon="6.44039">
        <ele>429</ele>
        <time>2023-10-01T08:23:41Z</time>
      </trkpt>
      <trkpt lat="48.16151" lon="6.44048">
        <ele>429</ele>
        <time>2023-10-01T08:23:42Z</time>
      </trkpt>
      <trkpt lat="48.16152" lon="6.44059">
        <ele>429</ele>
        <time>2023-10-01T08:23:43Z</time>
      </trkpt>
      <trkpt lat="48.16153" lon="6.44067">
        <ele>429</ele>
        <time>2023-10-01T08:23:44Z</time>
      </trkpt>
      <trkpt lat="48.16154" lon="6.44075">
        <ele>429</ele>
        <time>2023-10-01T08:23:45Z</time>
      </trkpt>
      <trkpt lat="48.16156" lon="6.44082">
        <ele>429</ele>
        <time>2023-10-01T08:23:46Z</time>
      </trkpt>
      <trkpt lat="48.16159" lon="6.4409">
        <ele>429</ele>
        <time>2023-10-01T08:23:47Z</time>
      </trkpt>
      <trkpt lat="48.16163" lon="6.441">
        <ele>429</ele>
        <time>2023-10-01T08:23:48Z</time>
      </trkpt>
      <trkpt lat="48.16163" lon="6.44107">
        <ele>429.2</ele>
        <time>2023-10-01T08:23:49Z</time>
      </trkpt>
      <trkpt lat="48.16166" lon="6.44114">
        <ele>429.4</ele>
        <time>2023-10-01T08:23:50Z</time>
      </trkpt>
      <trkpt lat="48.16168" lon="6.4412">
        <ele>429.6</ele>
        <time>2023-10-01T08:23:51Z</time>
      </trkpt>
      <trkpt lat="48.16168" lon="6.44126">
        <ele>429.6</ele>
        <time>2023-10-01T08:23:52Z</time>
      </trkpt>
      <trkpt lat="48.16168" lon="6.44131">
        <ele>429.6</ele>
        <time>2023-10-01T08:23:53Z</time>
      </trkpt>
      <trkpt lat="48.1617" lon="6.44133">
        <ele>429.6</ele>
        <time>2023-10-01T08:23:54Z</time>
      </trkpt>
      <trkpt lat="48.16171" lon="6.44134">
        <ele>429.6</ele>
        <time>2023-10-01T08:23:55Z</time>
      </trkpt>
      <trkpt lat="48.16174" lon="6.44137">
        <ele>429.2</ele>
        <time>2023-10-01T08:23:56Z</time>
      </trkpt>
      <trkpt lat="48.16178" lon="6.4414">
        <ele>429.2</ele>
        <time>2023-10-01T08:23:57Z</time>
      </trkpt>
      <trkpt lat="48.16181" lon="6.44141">
        <ele>429.2</ele>
        <time>2023-10-01T08:23:58Z</time>
      </trkpt>
      <trkpt lat="48.16185" lon="6.44146">
        <ele>429.4</ele>
        <time>2023-10-01T08:23:59Z</time>
      </trkpt>
      <trkpt lat="48.16185" lon="6.44147">
        <ele>429.4</ele>
        <time>2023-10-01T08:24:00Z</time>
      </trkpt>
      <trkpt lat="48.16187" lon="6.44148">
        <ele>429.2</ele>
        <time>2023-10-01T08:24:01Z</time>
      </trkpt>
      <trkpt lat="48.16196" lon="6.44156">
        <ele>429</ele>
        <time>2023-10-01T08:24:02Z</time>
      </trkpt>
      <trkpt lat="48.16202" lon="6.44166">
        <ele>429</ele>
        <time>2023-10-01T08:24:03Z</time>
      </trkpt>
      <trkpt lat="48.1621" lon="6.44175">
        <ele>429.2</ele>
        <time>2023-10-01T08:24:04Z</time>
      </trkpt>
      <trkpt lat="48.16216" lon="6.44182">
        <ele>429.2</ele>
        <time>2023-10-01T08:24:05Z</time>
      </trkpt>
      <trkpt lat="48.16222" lon="6.44189">
        <ele>428.6</ele>
        <time>2023-10-01T08:24:06Z</time>
      </trkpt>
      <trkpt lat="48.16228" lon="6.44196">
        <ele>428.6</ele>
        <time>2023-10-01T08:24:07Z</time>
      </trkpt>
      <trkpt lat="48.16234" lon="6.44204">
        <ele>428.4</ele>
        <time>2023-10-01T08:24:08Z</time>
      </trkpt>
      <trkpt lat="48.1624" lon="6.44212">
        <ele>428.4</ele>
        <time>2023-10-01T08:24:09Z</time>
      </trkpt>
      <trkpt lat="48.16247" lon="6.44222">
        <ele>428</ele>
        <time>2023-10-01T08:24:10Z</time>
      </trkpt>
      <trkpt lat="48.16255" lon="6.44232">
        <ele>427.4</ele>
        <time>2023-10-01T08:24:11Z</time>
      </trkpt>
      <trkpt lat="48.16263" lon="6.44243">
        <ele>427.2</ele>
        <time>2023-10-01T08:24:12Z</time>
      </trkpt>
      <trkpt lat="48.1627" lon="6.44253">
        <ele>426.8</ele>
        <time>2023-10-01T08:24:13Z</time>
      </trkpt>
      <trkpt lat="48.16276" lon="6.44264">
        <ele>426.4</ele>
        <time>2023-10-01T08:24:14Z</time>
      </trkpt>
      <trkpt lat="48.16282" lon="6.44277">
        <ele>425.2</ele>
        <time>2023-10-01T08:24:15Z</time>
      </trkpt>
      <trkpt lat="48.16288" lon="6.4429">
        <ele>424.8</ele>
        <time>2023-10-01T08:24:16Z</time>
      </trkpt>
      <trkpt lat="48.16294" lon="6.44303">
        <ele>424</ele>
        <time>2023-10-01T08:24:17Z</time>
      </trkpt>
      <trkpt lat="48.16298" lon="6.44314">
        <ele>423.6</ele>
        <time>2023-10-01T08:24:18Z</time>
      </trkpt>
      <trkpt lat="48.16302" lon="6.44325">
        <ele>422.4</ele>
        <time>2023-10-01T08:24:19Z</time>
      </trkpt>
      <trkpt lat="48.16304" lon="6.44334">
        <ele>421.8</ele>
        <time>2023-10-01T08:24:20Z</time>
      </trkpt>
      <trkpt lat="48.16304" lon="6.44342">
        <ele>420.6</ele>
        <time>2023-10-01T08:24:21Z</time>
      </trkpt>
      <trkpt lat="48.16304" lon="6.4435">
        <ele>420.2</ele>
        <time>2023-10-01T08:24:22Z</time>
      </trkpt>
      <trkpt lat="48.16301" lon="6.44357">
        <ele>419.8</ele>
        <time>2023-10-01T08:24:23Z</time>
      </trkpt>
      <trkpt lat="48.16297" lon="6.44365">
        <ele>419</ele>
        <time>2023-10-01T08:24:24Z</time>
      </trkpt>
      <trkpt lat="48.16292" lon="6.44371">
        <ele>417.4</ele>
        <time>2023-10-01T08:24:25Z</time>
      </trkpt>
      <trkpt lat="48.16287" lon="6.44378">
        <ele>416.4</ele>
        <time>2023-10-01T08:24:26Z</time>
      </trkpt>
      <trkpt lat="48.16282" lon="6.44384">
        <ele>416</ele>
        <time>2023-10-01T08:24:27Z</time>
      </trkpt>
      <trkpt lat="48.16275" lon="6.44392">
        <ele>415.4</ele>
        <time>2023-10-01T08:24:28Z</time>
      </trkpt>
      <trkpt lat="48.16271" lon="6.44398">
        <ele>415.2</ele>
        <time>2023-10-01T08:24:29Z</time>
      </trkpt>
      <trkpt lat="48.16266" lon="6.44408">
        <ele>414.6</ele>
        <time>2023-10-01T08:24:30Z</time>
      </trkpt>
      <trkpt lat="48.16264" lon="6.44415">
        <ele>414.4</ele>
        <time>2023-10-01T08:24:31Z</time>
      </trkpt>
      <trkpt lat="48.1626" lon="6.44424">
        <ele>414</ele>
        <time>2023-10-01T08:24:32Z</time>
      </trkpt>
      <trkpt lat="48.16256" lon="6.44431">
        <ele>413.4</ele>
        <time>2023-10-01T08:24:33Z</time>
      </trkpt>
      <trkpt lat="48.16254" lon="6.44436">
        <ele>412.6</ele>
        <time>2023-10-01T08:24:34Z</time>
      </trkpt>
      <trkpt lat="48.16251" lon="6.4444">
        <ele>412</ele>
        <time>2023-10-01T08:24:35Z</time>
      </trkpt>
      <trkpt lat="48.16249" lon="6.44443">
        <ele>411.4</ele>
        <time>2023-10-01T08:24:36Z</time>
      </trkpt>
      <trkpt lat="48.16246" lon="6.44445">
        <ele>411.2</ele>
        <time>2023-10-01T08:24:37Z</time>
      </trkpt>
      <trkpt lat="48.16241" lon="6.44447">
        <ele>410.4</ele>
        <time>2023-10-01T08:24:38Z</time>
      </trkpt>
      <trkpt lat="48.16236" lon="6.44447">
        <ele>410</ele>
        <time>2023-10-01T08:24:39Z</time>
      </trkpt>
      <trkpt lat="48.1623" lon="6.44448">
        <ele>409.6</ele>
        <time>2023-10-01T08:24:40Z</time>
      </trkpt>
      <trkpt lat="48.16224" lon="6.44449">
        <ele>409.4</ele>
        <time>2023-10-01T08:24:41Z</time>
      </trkpt>
      <trkpt lat="48.16217" lon="6.44449">
        <ele>409.2</ele>
        <time>2023-10-01T08:24:42Z</time>
      </trkpt>
      <trkpt lat="48.16211" lon="6.4445">
        <ele>409</ele>
        <time>2023-10-01T08:24:43Z</time>
      </trkpt>
      <trkpt lat="48.16206" lon="6.4445">
        <ele>409</ele>
        <time>2023-10-01T08:24:44Z</time>
      </trkpt>
      <trkpt lat="48.16199" lon="6.44451">
        <ele>408.4</ele>
        <time>2023-10-01T08:24:45Z</time>
      </trkpt>
      <trkpt lat="48.1619" lon="6.44452">
        <ele>408.4</ele>
        <time>2023-10-01T08:24:46Z</time>
      </trkpt>
      <trkpt lat="48.16182" lon="6.44454">
        <ele>407.8</ele>
        <time>2023-10-01T08:24:47Z</time>
      </trkpt>
      <trkpt lat="48.16173" lon="6.44454">
        <ele>407.6</ele>
        <time>2023-10-01T08:24:48Z</time>
      </trkpt>
      <trkpt lat="48.16166" lon="6.44454">
        <ele>407</ele>
        <time>2023-10-01T08:24:49Z</time>
      </trkpt>
      <trkpt lat="48.16156" lon="6.44452">
        <ele>406.8</ele>
        <time>2023-10-01T08:24:50Z</time>
      </trkpt>
      <trkpt lat="48.16146" lon="6.44449">
        <ele>406.6</ele>
        <time>2023-10-01T08:24:51Z</time>
      </trkpt>
      <trkpt lat="48.16138" lon="6.44445">
        <ele>406.4</ele>
        <time>2023-10-01T08:24:52Z</time>
      </trkpt>
      <trkpt lat="48.16129" lon="6.44442">
        <ele>406</ele>
        <time>2023-10-01T08:24:53Z</time>
      </trkpt>
      <trkpt lat="48.16122" lon="6.44439">
        <ele>405.4</ele>
        <time>2023-10-01T08:24:54Z</time>
      </trkpt>
      <trkpt lat="48.16115" lon="6.44436">
        <ele>404.6</ele>
        <time>2023-10-01T08:24:55Z</time>
      </trkpt>
      <trkpt lat="48.16107" lon="6.44433">
        <ele>404.4</ele>
        <time>2023-10-01T08:24:56Z</time>
      </trkpt>
      <trkpt lat="48.16101" lon="6.44428">
        <ele>403.8</ele>
        <time>2023-10-01T08:24:57Z</time>
      </trkpt>
      <trkpt lat="48.16097" lon="6.44424">
        <ele>403.4</ele>
        <time>2023-10-01T08:24:58Z</time>
      </trkpt>
      <trkpt lat="48.16092" lon="6.44418">
        <ele>403.2</ele>
        <time>2023-10-01T08:24:59Z</time>
      </trkpt>
      <trkpt lat="48.16087" lon="6.44411">
        <ele>403</ele>
        <time>2023-10-01T08:25:00Z</time>
      </trkpt>
      <trkpt lat="48.16083" lon="6.44404">
        <ele>403</ele>
        <time>2023-10-01T08:25:01Z</time>
      </trkpt>
      <trkpt lat="48.16079" lon="6.44397">
        <ele>402.2</ele>
        <time>2023-10-01T08:25:02Z</time>
      </trkpt>
      <trkpt lat="48.16076" lon="6.4439">
        <ele>402</ele>
        <time>2023-10-01T08:25:03Z</time>
      </trkpt>
      <trkpt lat="48.16073" lon="6.44384">
        <ele>401.6</ele>
        <time>2023-10-01T08:25:04Z</time>
      </trkpt>
      <trkpt lat="48.1607" lon="6.44377">
        <ele>401.4</ele>
        <time>2023-10-01T08:25:05Z</time>
      </trkpt>
      <trkpt lat="48.16067" lon="6.4437">
        <ele>401.2</ele>
        <time>2023-10-01T08:25:06Z</time>
      </trkpt>
      <trkpt lat="48.16064" lon="6.44363">
        <ele>401</ele>
        <time>2023-10-01T08:25:07Z</time>
      </trkpt>
      <trkpt lat="48.16063" lon="6.44357">
        <ele>400.8</ele>
        <time>2023-10-01T08:25:08Z</time>
      </trkpt>
      <trkpt lat="48.16061" lon="6.4435">
        <ele>400.8</ele>
        <time>2023-10-01T08:25:09Z</time>
      </trkpt>
      <trkpt lat="48.16061" lon="6.44343">
        <ele>400.6</ele>
        <time>2023-10-01T08:25:10Z</time>
      </trkpt>
      <trkpt lat="48.1606" lon="6.44335">
        <ele>400.6</ele>
        <time>2023-10-01T08:25:11Z</time>
      </trkpt>
      <trkpt lat="48.16058" lon="6.44327">
        <ele>400.4</ele>
        <time>2023-10-01T08:25:12Z</time>
      </trkpt>
      <trkpt lat="48.16057" lon="6.4432">
        <ele>400.4</ele>
        <time>2023-10-01T08:25:13Z</time>
      </trkpt>
      <trkpt lat="48.16057" lon="6.44312">
        <ele>400.4</ele>
        <time>2023-10-01T08:25:14Z</time>
      </trkpt>
      <trkpt lat="48.16057" lon="6.44305">
        <ele>400.6</ele>
        <time>2023-10-01T08:25:15Z</time>
      </trkpt>
      <trkpt lat="48.16057" lon="6.44299">
        <ele>400.6</ele>
        <time>2023-10-01T08:25:16Z</time>
      </trkpt>
      <trkpt lat="48.16058" lon="6.44292">
        <ele>400.6</ele>
        <time>2023-10-01T08:25:17Z</time>
      </trkpt>
      <trkpt lat="48.16059" lon="6.44285">
        <ele>400.8</ele>
        <time>2023-10-01T08:25:18Z</time>
      </trkpt>
      <trkpt lat="48.1606" lon="6.4428">
        <ele>400.8</ele>
        <time>2023-10-01T08:25:19Z</time>
      </trkpt>
      <trkpt lat="48.16061" lon="6.44273">
        <ele>400.8</ele>
        <time>2023-10-01T08:25:20Z</time>
      </trkpt>
      <trkpt lat="48.16061" lon="6.44267">
        <ele>400.8</ele>
        <time>2023-10-01T08:25:21Z</time>
      </trkpt>
      <trkpt lat="48.16063" lon="6.44259">
        <ele>400.8</ele>
        <time>2023-10-01T08:25:22Z</time>
      </trkpt>
      <trkpt lat="48.16063" lon="6.4425">
        <ele>401</ele>
        <time>2023-10-01T08:25:23Z</time>
      </trkpt>
      <trkpt lat="48.16063" lon="6.44241">
        <ele>401</ele>
        <time>2023-10-01T08:25:24Z</time>
      </trkpt>
      <trkpt lat="48.16062" lon="6.44232">
        <ele>401.4</ele>
        <time>2023-10-01T08:25:25Z</time>
      </trkpt>
      <trkpt lat="48.16063" lon="6.44221">
        <ele>401.6</ele>
        <time>2023-10-01T08:25:26Z</time>
      </trkpt>
      <trkpt lat="48.16063" lon="6.44212">
        <ele>401.8</ele>
        <time>2023-10-01T08:25:27Z</time>
      </trkpt>
      <trkpt lat="48.16064" lon="6.44204">
        <ele>401.8</ele>
        <time>2023-10-01T08:25:28Z</time>
      </trkpt>
      <trkpt lat="48.16065" lon="6.44199">
        <ele>401.8</ele>
        <time>2023-10-01T08:25:29Z</time>
      </trkpt>
      <trkpt lat="48.16065" lon="6.44193">
        <ele>401.8</ele>
        <time>2023-10-01T08:25:30Z</time>
      </trkpt>
      <trkpt lat="48.16066" lon="6.44184">
        <ele>402</ele>
        <time>2023-10-01T08:25:31Z</time>
      </trkpt>
      <trkpt lat="48.16065" lon="6.44175">
        <ele>402</ele>
        <time>2023-10-01T08:25:32Z</time>
      </trkpt>
      <trkpt lat="48.16065" lon="6.44168">
        <ele>402</ele>
        <time>2023-10-01T08:25:33Z</time>
      </trkpt>
      <trkpt lat="48.16065" lon="6.44163">
        <ele>402.2</ele>
        <time>2023-10-01T08:25:34Z</time>
      </trkpt>
      <trkpt lat="48.16065" lon="6.44155">
        <ele>402.4</ele>
        <time>2023-10-01T08:25:35Z</time>
      </trkpt>
      <trkpt lat="48.16063" lon="6.44147">
        <ele>402.6</ele>
        <time>2023-10-01T08:25:36Z</time>
      </trkpt>
      <trkpt lat="48.1606" lon="6.44138">
        <ele>402.6</ele>
        <time>2023-10-01T08:25:37Z</time>
      </trkpt>
      <trkpt lat="48.16058" lon="6.44128">
        <ele>402.6</ele>
        <time>2023-10-01T08:25:38Z</time>
      </trkpt>
      <trkpt lat="48.16057" lon="6.44116">
        <ele>402.6</ele>
        <time>2023-10-01T08:25:39Z</time>
      </trkpt>
      <trkpt lat="48.16056" lon="6.44106">
        <ele>402.6</ele>
        <time>2023-10-01T08:25:40Z</time>
      </trkpt>
      <trkpt lat="48.16055" lon="6.44098">
        <ele>402.6</ele>
        <time>2023-10-01T08:25:41Z</time>
      </trkpt>
      <trkpt lat="48.16054" lon="6.44089">
        <ele>403</ele>
        <time>2023-10-01T08:25:42Z</time>
      </trkpt>
      <trkpt lat="48.16053" lon="6.44083">
        <ele>403</ele>
        <time>2023-10-01T08:25:43Z</time>
      </trkpt>
      <trkpt lat="48.1605" lon="6.44071">
        <ele>402.8</ele>
        <time>2023-10-01T08:25:44Z</time>
      </trkpt>
      <trkpt lat="48.16046" lon="6.44059">
        <ele>402.8</ele>
        <time>2023-10-01T08:25:45Z</time>
      </trkpt>
      <trkpt lat="48.16043" lon="6.44051">
        <ele>402.8</ele>
        <time>2023-10-01T08:25:46Z</time>
      </trkpt>
      <trkpt lat="48.1604" lon="6.44044">
        <ele>402.6</ele>
        <time>2023-10-01T08:25:47Z</time>
      </trkpt>
      <trkpt lat="48.16036" lon="6.4404">
        <ele>402.6</ele>
        <time>2023-10-01T08:25:48Z</time>
      </trkpt>
      <trkpt lat="48.16031" lon="6.44036">
        <ele>402.6</ele>
        <time>2023-10-01T08:25:49Z</time>
      </trkpt>
      <trkpt lat="48.16025" lon="6.44033">
        <ele>402.6</ele>
        <time>2023-10-01T08:25:50Z</time>
      </trkpt>
      <trkpt lat="48.1602" lon="6.44032">
        <ele>402.6</ele>
        <time>2023-10-01T08:25:51Z</time>
      </trkpt>
      <trkpt lat="48.16015" lon="6.44031">
        <ele>402.6</ele>
        <time>2023-10-01T08:25:52Z</time>
      </trkpt>
      <trkpt lat="48.16008" lon="6.44029">
        <ele>402.6</ele>
        <time>2023-10-01T08:25:53Z</time>
      </trkpt>
      <trkpt lat="48.16001" lon="6.44027">
        <ele>402.4</ele>
        <time>2023-10-01T08:25:54Z</time>
      </trkpt>
      <trkpt lat="48.15995" lon="6.44025">
        <ele>402.2</ele>
        <time>2023-10-01T08:25:55Z</time>
      </trkpt>
      <trkpt lat="48.15988" lon="6.44021">
        <ele>402.2</ele>
        <time>2023-10-01T08:25:56Z</time>
      </trkpt>
      <trkpt lat="48.15982" lon="6.44015">
        <ele>401.4</ele>
        <time>2023-10-01T08:25:57Z</time>
      </trkpt>
      <trkpt lat="48.15974" lon="6.44008">
        <ele>401</ele>
        <time>2023-10-01T08:25:58Z</time>
      </trkpt>
      <trkpt lat="48.15968" lon="6.44001">
        <ele>400.2</ele>
        <time>2023-10-01T08:25:59Z</time>
      </trkpt>
      <trkpt lat="48.15963" lon="6.43994">
        <ele>400</ele>
        <time>2023-10-01T08:26:00Z</time>
      </trkpt>
      <trkpt lat="48.15958" lon="6.43988">
        <ele>399.6</ele>
        <time>2023-10-01T08:26:01Z</time>
      </trkpt>
      <trkpt lat="48.15954" lon="6.43982">
        <ele>399.4</ele>
        <time>2023-10-01T08:26:02Z</time>
      </trkpt>
      <trkpt lat="48.15949" lon="6.43974">
        <ele>399</ele>
        <time>2023-10-01T08:26:03Z</time>
      </trkpt>
      <trkpt lat="48.15944" lon="6.43964">
        <ele>398.8</ele>
        <time>2023-10-01T08:26:04Z</time>
      </trkpt>
      <trkpt lat="48.15942" lon="6.43956">
        <ele>398.4</ele>
        <time>2023-10-01T08:26:05Z</time>
      </trkpt>
      <trkpt lat="48.1594" lon="6.43948">
        <ele>398</ele>
        <time>2023-10-01T08:26:06Z</time>
      </trkpt>
      <trkpt lat="48.1594" lon="6.4394">
        <ele>397.4</ele>
        <time>2023-10-01T08:26:07Z</time>
      </trkpt>
      <trkpt lat="48.15939" lon="6.43931">
        <ele>397</ele>
        <time>2023-10-01T08:26:08Z</time>
      </trkpt>
      <trkpt lat="48.15937" lon="6.43923">
        <ele>396.8</ele>
        <time>2023-10-01T08:26:09Z</time>
      </trkpt>
      <trkpt lat="48.15935" lon="6.43914">
        <ele>396.8</ele>
        <time>2023-10-01T08:26:10Z</time>
      </trkpt>
      <trkpt lat="48.15933" lon="6.43905">
        <ele>396.6</ele>
        <time>2023-10-01T08:26:11Z</time>
      </trkpt>
      <trkpt lat="48.15932" lon="6.43897">
        <ele>396.4</ele>
        <time>2023-10-01T08:26:12Z</time>
      </trkpt>
      <trkpt lat="48.1593" lon="6.43888">
        <ele>396.4</ele>
        <time>2023-10-01T08:26:13Z</time>
      </trkpt>
      <trkpt lat="48.15928" lon="6.43878">
        <ele>396.2</ele>
        <time>2023-10-01T08:26:14Z</time>
      </trkpt>
      <trkpt lat="48.15926" lon="6.43868">
        <ele>396.2</ele>
        <time>2023-10-01T08:26:15Z</time>
      </trkpt>
      <trkpt lat="48.15924" lon="6.43858">
        <ele>396.2</ele>
        <time>2023-10-01T08:26:16Z</time>
      </trkpt>
      <trkpt lat="48.15921" lon="6.43848">
        <ele>395.8</ele>
        <time>2023-10-01T08:26:17Z</time>
      </trkpt>
      <trkpt lat="48.15918" lon="6.43837">
        <ele>395.6</ele>
        <time>2023-10-01T08:26:18Z</time>
      </trkpt>
      <trkpt lat="48.15915" lon="6.43825">
        <ele>395.4</ele>
        <time>2023-10-01T08:26:19Z</time>
      </trkpt>
      <trkpt lat="48.15912" lon="6.43816">
        <ele>394.2</ele>
        <time>2023-10-01T08:26:20Z</time>
      </trkpt>
      <trkpt lat="48.15909" lon="6.43803">
        <ele>394</ele>
        <time>2023-10-01T08:26:21Z</time>
      </trkpt>
      <trkpt lat="48.15907" lon="6.43793">
        <ele>393.2</ele>
        <time>2023-10-01T08:26:22Z</time>
      </trkpt>
      <trkpt lat="48.15906" lon="6.43785">
        <ele>393</ele>
        <time>2023-10-01T08:26:23Z</time>
      </trkpt>
      <trkpt lat="48.15903" lon="6.43778">
        <ele>392.6</ele>
        <time>2023-10-01T08:26:24Z</time>
      </trkpt>
      <trkpt lat="48.15901" lon="6.43772">
        <ele>392</ele>
        <time>2023-10-01T08:26:25Z</time>
      </trkpt>
      <trkpt lat="48.15898" lon="6.43769">
        <ele>391.2</ele>
        <time>2023-10-01T08:26:26Z</time>
      </trkpt>
      <trkpt lat="48.15896" lon="6.43768">
        <ele>390.8</ele>
        <time>2023-10-01T08:26:27Z</time>
      </trkpt>
      <trkpt lat="48.15893" lon="6.43769">
        <ele>390.6</ele>
        <time>2023-10-01T08:26:28Z</time>
      </trkpt>
      <trkpt lat="48.15893" lon="6.43768">
        <ele>390</ele>
        <time>2023-10-01T08:26:29Z</time>
      </trkpt>
      <trkpt lat="48.1589" lon="6.43769">
        <ele>389.8</ele>
        <time>2023-10-01T08:26:30Z</time>
      </trkpt>
      <trkpt lat="48.15886" lon="6.43771">
        <ele>389.2</ele>
        <time>2023-10-01T08:26:31Z</time>
      </trkpt>
      <trkpt lat="48.15881" lon="6.43772">
        <ele>388.2</ele>
        <time>2023-10-01T08:26:32Z</time>
      </trkpt>
      <trkpt lat="48.15876" lon="6.43775">
        <ele>386.8</ele>
        <time>2023-10-01T08:26:33Z</time>
      </trkpt>
      <trkpt lat="48.1587" lon="6.43779">
        <ele>386</ele>
        <time>2023-10-01T08:26:34Z</time>
      </trkpt>
      <trkpt lat="48.15862" lon="6.43783">
        <ele>384</ele>
        <time>2023-10-01T08:26:35Z</time>
      </trkpt>
      <trkpt lat="48.15857" lon="6.43787">
        <ele>383.4</ele>
        <time>2023-10-01T08:26:36Z</time>
      </trkpt>
      <trkpt lat="48.15854" lon="6.43792">
        <ele>382.4</ele>
        <time>2023-10-01T08:26:37Z</time>
      </trkpt>
      <trkpt lat="48.15854" lon="6.43795">
        <ele>381.6</ele>
        <time>2023-10-01T08:26:38Z</time>
      </trkpt>
      <trkpt lat="48.15855" lon="6.43799">
        <ele>380.8</ele>
        <time>2023-10-01T08:26:39Z</time>
      </trkpt>
      <trkpt lat="48.15857" lon="6.43802">
        <ele>380.2</ele>
        <time>2023-10-01T08:26:40Z</time>
      </trkpt>
      <trkpt lat="48.15859" lon="6.43806">
        <ele>378.8</ele>
        <time>2023-10-01T08:26:41Z</time>
      </trkpt>
      <trkpt lat="48.15862" lon="6.43811">
        <ele>378.4</ele>
        <time>2023-10-01T08:26:42Z</time>
      </trkpt>
      <trkpt lat="48.15865" lon="6.43817">
        <ele>377.6</ele>
        <time>2023-10-01T08:26:43Z</time>
      </trkpt>
      <trkpt lat="48.15868" lon="6.43823">
        <ele>376.8</ele>
        <time>2023-10-01T08:26:44Z</time>
      </trkpt>
      <trkpt lat="48.15871" lon="6.43829">
        <ele>376.4</ele>
        <time>2023-10-01T08:26:45Z</time>
      </trkpt>
      <trkpt lat="48.15876" lon="6.4384">
        <ele>375.6</ele>
        <time>2023-10-01T08:26:46Z</time>
      </trkpt>
      <trkpt lat="48.15877" lon="6.43851">
        <ele>375.6</ele>
        <time>2023-10-01T08:26:47Z</time>
      </trkpt>
      <trkpt lat="48.15878" lon="6.43863">
        <ele>375.4</ele>
        <time>2023-10-01T08:26:48Z</time>
      </trkpt>
      <trkpt lat="48.15879" lon="6.43872">
        <ele>375.2</ele>
        <time>2023-10-01T08:26:49Z</time>
      </trkpt>
      <trkpt lat="48.1588" lon="6.43882">
        <ele>375</ele>
        <time>2023-10-01T08:26:50Z</time>
      </trkpt>
      <trkpt lat="48.15881" lon="6.4389">
        <ele>374.8</ele>
        <time>2023-10-01T08:26:51Z</time>
      </trkpt>
      <trkpt lat="48.15881" lon="6.43896">
        <ele>374.2</ele>
        <time>2023-10-01T08:26:52Z</time>
      </trkpt>
      <trkpt lat="48.15881" lon="6.43906">
        <ele>373.8</ele>
        <time>2023-10-01T08:26:53Z</time>
      </trkpt>
      <trkpt lat="48.15883" lon="6.43916">
        <ele>373.2</ele>
        <time>2023-10-01T08:26:54Z</time>
      </trkpt>
      <trkpt lat="48.15887" lon="6.43933">
        <ele>372.8</ele>
        <time>2023-10-01T08:26:55Z</time>
      </trkpt>
      <trkpt lat="48.1589" lon="6.43943">
        <ele>372.2</ele>
        <time>2023-10-01T08:26:56Z</time>
      </trkpt>
      <trkpt lat="48.15891" lon="6.43953">
        <ele>372</ele>
        <time>2023-10-01T08:26:57Z</time>
      </trkpt>
      <trkpt lat="48.15895" lon="6.43964">
        <ele>371.6</ele>
        <time>2023-10-01T08:26:58Z</time>
      </trkpt>
      <trkpt lat="48.15899" lon="6.43974">
        <ele>371.2</ele>
        <time>2023-10-01T08:26:59Z</time>
      </trkpt>
      <trkpt lat="48.15903" lon="6.43984">
        <ele>370.8</ele>
        <time>2023-10-01T08:27:00Z</time>
      </trkpt>
      <trkpt lat="48.15907" lon="6.43993">
        <ele>370.4</ele>
        <time>2023-10-01T08:27:01Z</time>
      </trkpt>
      <trkpt lat="48.15911" lon="6.44">
        <ele>370.2</ele>
        <time>2023-10-01T08:27:02Z</time>
      </trkpt>
      <trkpt lat="48.15914" lon="6.44008">
        <ele>370.2</ele>
        <time>2023-10-01T08:27:03Z</time>
      </trkpt>
      <trkpt lat="48.15918" lon="6.44016">
        <ele>370</ele>
        <time>2023-10-01T08:27:04Z</time>
      </trkpt>
      <trkpt lat="48.15919" lon="6.44024">
        <ele>369.8</ele>
        <time>2023-10-01T08:27:05Z</time>
      </trkpt>
      <trkpt lat="48.15919" lon="6.44033">
        <ele>369.6</ele>
        <time>2023-10-01T08:27:06Z</time>
      </trkpt>
      <trkpt lat="48.15919" lon="6.44043">
        <ele>369.4</ele>
        <time>2023-10-01T08:27:07Z</time>
      </trkpt>
      <trkpt lat="48.15922" lon="6.44052">
        <ele>369.2</ele>
        <time>2023-10-01T08:27:08Z</time>
      </trkpt>
      <trkpt lat="48.15926" lon="6.44061">
        <ele>369</ele>
        <time>2023-10-01T08:27:09Z</time>
      </trkpt>
      <trkpt lat="48.1593" lon="6.44071">
        <ele>368.8</ele>
        <time>2023-10-01T08:27:10Z</time>
      </trkpt>
      <trkpt lat="48.15934" lon="6.44082">
        <ele>368.6</ele>
        <time>2023-10-01T08:27:11Z</time>
      </trkpt>
      <trkpt lat="48.15937" lon="6.44091">
        <ele>368.6</ele>
        <time>2023-10-01T08:27:12Z</time>
      </trkpt>
      <trkpt lat="48.15939" lon="6.441">
        <ele>368</ele>
        <time>2023-10-01T08:27:13Z</time>
      </trkpt>
      <trkpt lat="48.1594" lon="6.44109">
        <ele>368</ele>
        <time>2023-10-01T08:27:14Z</time>
      </trkpt>
      <trkpt lat="48.15939" lon="6.44119">
        <ele>367.8</ele>
        <time>2023-10-01T08:27:15Z</time>
      </trkpt>
      <trkpt lat="48.15938" lon="6.44129">
        <ele>367.6</ele>
        <time>2023-10-01T08:27:16Z</time>
      </trkpt>
      <trkpt lat="48.1594" lon="6.44138">
        <ele>367.4</ele>
        <time>2023-10-01T08:27:17Z</time>
      </trkpt>
      <trkpt lat="48.15941" lon="6.44147">
        <ele>367.4</ele>
        <time>2023-10-01T08:27:18Z</time>
      </trkpt>
      <trkpt lat="48.15941" lon="6.44152">
        <ele>367.4</ele>
        <time>2023-10-01T08:27:19Z</time>
      </trkpt>
      <trkpt lat="48.1594" lon="6.44158">
        <ele>367.4</ele>
        <time>2023-10-01T08:27:20Z</time>
      </trkpt>
      <trkpt lat="48.1594" lon="6.44163">
        <ele>367.4</ele>
        <time>2023-10-01T08:27:21Z</time>
      </trkpt>
      <trkpt lat="48.15938" lon="6.44173">
        <ele>367.4</ele>
        <time>2023-10-01T08:27:22Z</time>
      </trkpt>
      <trkpt lat="48.15939" lon="6.44186">
        <ele>367.2</ele>
        <time>2023-10-01T08:27:23Z</time>
      </trkpt>
      <trkpt lat="48.15938" lon="6.44191">
        <ele>367.2</ele>
        <time>2023-10-01T08:27:24Z</time>
      </trkpt>
      <trkpt lat="48.15938" lon="6.44196">
        <ele>367.2</ele>
        <time>2023-10-01T08:27:25Z</time>
      </trkpt>
      <trkpt lat="48.15937" lon="6.44203">
        <ele>367.2</ele>
        <time>2023-10-01T08:27:26Z</time>
      </trkpt>
      <trkpt lat="48.15937" lon="6.4421">
        <ele>367.2</ele>
        <time>2023-10-01T08:27:27Z</time>
      </trkpt>
      <trkpt lat="48.15938" lon="6.44219">
        <ele>367</ele>
        <time>2023-10-01T08:27:28Z</time>
      </trkpt>
      <trkpt lat="48.15938" lon="6.44229">
        <ele>367</ele>
        <time>2023-10-01T08:27:29Z</time>
      </trkpt>
      <trkpt lat="48.15941" lon="6.44237">
        <ele>367</ele>
        <time>2023-10-01T08:27:30Z</time>
      </trkpt>
      <trkpt lat="48.15944" lon="6.44247">
        <ele>367</ele>
        <time>2023-10-01T08:27:31Z</time>
      </trkpt>
      <trkpt lat="48.15946" lon="6.44256">
        <ele>366.6</ele>
        <time>2023-10-01T08:27:32Z</time>
      </trkpt>
      <trkpt lat="48.15948" lon="6.44265">
        <ele>366.4</ele>
        <time>2023-10-01T08:27:33Z</time>
      </trkpt>
      <trkpt lat="48.1595" lon="6.44275">
        <ele>366.2</ele>
        <time>2023-10-01T08:27:34Z</time>
      </trkpt>
      <trkpt lat="48.15951" lon="6.44284">
        <ele>366</ele>
        <time>2023-10-01T08:27:35Z</time>
      </trkpt>
      <trkpt lat="48.15952" lon="6.44295">
        <ele>365.6</ele>
        <time>2023-10-01T08:27:36Z</time>
      </trkpt>
      <trkpt lat="48.15956" lon="6.44307">
        <ele>365</ele>
        <time>2023-10-01T08:27:37Z</time>
      </trkpt>
      <trkpt lat="48.1596" lon="6.44322">
        <ele>365</ele>
        <time>2023-10-01T08:27:38Z</time>
      </trkpt>
      <trkpt lat="48.15964" lon="6.44334">
        <ele>364.8</ele>
        <time>2023-10-01T08:27:39Z</time>
      </trkpt>
      <trkpt lat="48.15968" lon="6.44344">
        <ele>364.6</ele>
        <time>2023-10-01T08:27:40Z</time>
      </trkpt>
      <trkpt lat="48.15971" lon="6.44355">
        <ele>364.6</ele>
        <time>2023-10-01T08:27:41Z</time>
      </trkpt>
      <trkpt lat="48.15974" lon="6.44366">
        <ele>364.4</ele>
        <time>2023-10-01T08:27:42Z</time>
      </trkpt>
      <trkpt lat="48.15977" lon="6.44376">
        <ele>364</ele>
        <time>2023-10-01T08:27:43Z</time>
      </trkpt>
      <trkpt lat="48.15978" lon="6.44386">
        <ele>363.8</ele>
        <time>2023-10-01T08:27:44Z</time>
      </trkpt>
      <trkpt lat="48.15979" lon="6.44396">
        <ele>363.6</ele>
        <time>2023-10-01T08:27:45Z</time>
      </trkpt>
      <trkpt lat="48.15981" lon="6.44406">
        <ele>363.4</ele>
        <time>2023-10-01T08:27:46Z</time>
      </trkpt>
      <trkpt lat="48.15983" lon="6.44416">
        <ele>363.4</ele>
        <time>2023-10-01T08:27:47Z</time>
      </trkpt>
      <trkpt lat="48.15986" lon="6.44426">
        <ele>363.4</ele>
        <time>2023-10-01T08:27:48Z</time>
      </trkpt>
      <trkpt lat="48.15988" lon="6.44437">
        <ele>363.4</ele>
        <time>2023-10-01T08:27:49Z</time>
      </trkpt>
      <trkpt lat="48.15991" lon="6.44448">
        <ele>363.2</ele>
        <time>2023-10-01T08:27:50Z</time>
      </trkpt>
      <trkpt lat="48.15996" lon="6.44458">
        <ele>363</ele>
        <time>2023-10-01T08:27:51Z</time>
      </trkpt>
      <trkpt lat="48.16001" lon="6.4447">
        <ele>363</ele>
        <time>2023-10-01T08:27:52Z</time>
      </trkpt>
      <trkpt lat="48.16005" lon="6.4448">
        <ele>362.8</ele>
        <time>2023-10-01T08:27:53Z</time>
      </trkpt>
      <trkpt lat="48.16011" lon="6.44488">
        <ele>362.4</ele>
        <time>2023-10-01T08:27:54Z</time>
      </trkpt>
      <trkpt lat="48.16016" lon="6.44498">
        <ele>362.4</ele>
        <time>2023-10-01T08:27:55Z</time>
      </trkpt>
      <trkpt lat="48.16021" lon="6.44506">
        <ele>361.2</ele>
        <time>2023-10-01T08:27:56Z</time>
      </trkpt>
      <trkpt lat="48.16028" lon="6.44515">
        <ele>360.8</ele>
        <time>2023-10-01T08:27:57Z</time>
      </trkpt>
      <trkpt lat="48.16034" lon="6.44523">
        <ele>360.2</ele>
        <time>2023-10-01T08:27:58Z</time>
      </trkpt>
      <trkpt lat="48.1604" lon="6.44531">
        <ele>359.8</ele>
        <time>2023-10-01T08:27:59Z</time>
      </trkpt>
      <trkpt lat="48.16046" lon="6.44539">
        <ele>359</ele>
        <time>2023-10-01T08:28:00Z</time>
      </trkpt>
      <trkpt lat="48.16053" lon="6.44548">
        <ele>358.6</ele>
        <time>2023-10-01T08:28:01Z</time>
      </trkpt>
      <trkpt lat="48.1606" lon="6.44559">
        <ele>357.8</ele>
        <time>2023-10-01T08:28:02Z</time>
      </trkpt>
      <trkpt lat="48.16069" lon="6.44567">
        <ele>357.4</ele>
        <time>2023-10-01T08:28:03Z</time>
      </trkpt>
      <trkpt lat="48.16077" lon="6.44577">
        <ele>356.8</ele>
        <time>2023-10-01T08:28:04Z</time>
      </trkpt>
      <trkpt lat="48.16082" lon="6.44586">
        <ele>356.8</ele>
        <time>2023-10-01T08:28:05Z</time>
      </trkpt>
      <trkpt lat="48.16086" lon="6.44593">
        <ele>355.6</ele>
        <time>2023-10-01T08:28:06Z</time>
      </trkpt>
      <trkpt lat="48.1609" lon="6.44597">
        <ele>355.4</ele>
        <time>2023-10-01T08:28:07Z</time>
      </trkpt>
      <trkpt lat="48.16094" lon="6.44599">
        <ele>354.6</ele>
        <time>2023-10-01T08:28:08Z</time>
      </trkpt>
      <trkpt lat="48.16097" lon="6.446">
        <ele>354.4</ele>
        <time>2023-10-01T08:28:09Z</time>
      </trkpt>
      <trkpt lat="48.16099" lon="6.446">
        <ele>353.8</ele>
        <time>2023-10-01T08:28:10Z</time>
      </trkpt>
      <trkpt lat="48.16102" lon="6.44598">
        <ele>352.4</ele>
        <time>2023-10-01T08:28:11Z</time>
      </trkpt>
      <trkpt lat="48.16104" lon="6.44598">
        <ele>351.2</ele>
        <time>2023-10-01T08:28:12Z</time>
      </trkpt>
      <trkpt lat="48.16107" lon="6.44598">
        <ele>350.6</ele>
        <time>2023-10-01T08:28:13Z</time>
      </trkpt>
      <trkpt lat="48.1611" lon="6.44596">
        <ele>350.2</ele>
        <time>2023-10-01T08:28:14Z</time>
      </trkpt>
      <trkpt lat="48.16113" lon="6.44596">
        <ele>349.8</ele>
        <time>2023-10-01T08:28:15Z</time>
      </trkpt>
      <trkpt lat="48.16116" lon="6.44595">
        <ele>349.8</ele>
        <time>2023-10-01T08:28:16Z</time>
      </trkpt>
      <trkpt lat="48.16119" lon="6.44593">
        <ele>349.6</ele>
        <time>2023-10-01T08:28:17Z</time>
      </trkpt>
      <trkpt lat="48.16122" lon="6.44593">
        <ele>349.8</ele>
        <time>2023-10-01T08:28:18Z</time>
      </trkpt>
      <trkpt lat="48.16124" lon="6.44592">
        <ele>350</ele>
        <time>2023-10-01T08:28:19Z</time>
      </trkpt>
      <trkpt lat="48.16126" lon="6.44591">
        <ele>350</ele>
        <time>2023-10-01T08:28:20Z</time>
      </trkpt>
      <trkpt lat="48.16127" lon="6.4459">
        <ele>350.2</ele>
        <time>2023-10-01T08:28:21Z</time>
      </trkpt>
      <trkpt lat="48.16128" lon="6.4459">
        <ele>350.4</ele>
        <time>2023-10-01T08:28:22Z</time>
      </trkpt>
      <trkpt lat="48.16129" lon="6.4459">
        <ele>350.6</ele>
        <time>2023-10-01T08:28:23Z</time>
      </trkpt>
      <trkpt lat="48.16131" lon="6.4459">
        <ele>351</ele>
        <time>2023-10-01T08:28:24Z</time>
      </trkpt>
      <trkpt lat="48.16132" lon="6.4459">
        <ele>351.4</ele>
        <time>2023-10-01T08:28:25Z</time>
      </trkpt>
      <trkpt lat="48.16134" lon="6.4459">
        <ele>351.6</ele>
        <time>2023-10-01T08:28:26Z</time>
      </trkpt>
      <trkpt lat="48.16135" lon="6.44589">
        <ele>351.8</ele>
        <time>2023-10-01T08:28:27Z</time>
      </trkpt>
      <trkpt lat="48.16136" lon="6.44588">
        <ele>352</ele>
        <time>2023-10-01T08:28:28Z</time>
      </trkpt>
      <trkpt lat="48.16138" lon="6.44588">
        <ele>352.4</ele>
        <time>2023-10-01T08:28:29Z</time>
      </trkpt>
      <trkpt lat="48.1614" lon="6.44587">
        <ele>352.6</ele>
        <time>2023-10-01T08:28:30Z</time>
      </trkpt>
      <trkpt lat="48.16141" lon="6.44586">
        <ele>352.8</ele>
        <time>2023-10-01T08:28:31Z</time>
      </trkpt>
      <trkpt lat="48.16142" lon="6.44586">
        <ele>353</ele>
        <time>2023-10-01T08:28:32Z</time>
      </trkpt>
      <trkpt lat="48.16144" lon="6.44586">
        <ele>353</ele>
        <time>2023-10-01T08:28:33Z</time>
      </trkpt>
      <trkpt lat="48.16146" lon="6.44586">
        <ele>353.4</ele>
        <time>2023-10-01T08:28:34Z</time>
      </trkpt>
      <trkpt lat="48.16147" lon="6.44586">
        <ele>353.6</ele>
        <time>2023-10-01T08:28:35Z</time>
      </trkpt>
      <trkpt lat="48.16149" lon="6.44586">
        <ele>354</ele>
        <time>2023-10-01T08:28:36Z</time>
      </trkpt>
      <trkpt lat="48.16151" lon="6.44586">
        <ele>354.4</ele>
        <time>2023-10-01T08:28:37Z</time>
      </trkpt>
      <trkpt lat="48.16152" lon="6.44586">
        <ele>354.6</ele>
        <time>2023-10-01T08:28:38Z</time>
      </trkpt>
      <trkpt lat="48.16156" lon="6.44587">
        <ele>354.8</ele>
        <time>2023-10-01T08:28:39Z</time>
      </trkpt>
      <trkpt lat="48.16158" lon="6.44587">
        <ele>355.2</ele>
        <time>2023-10-01T08:28:40Z</time>
      </trkpt>
      <trkpt lat="48.1616" lon="6.44587">
        <ele>355.2</ele>
        <time>2023-10-01T08:28:41Z</time>
      </trkpt>
      <trkpt lat="48.16164" lon="6.44586">
        <ele>355.4</ele>
        <time>2023-10-01T08:28:42Z</time>
      </trkpt>
      <trkpt lat="48.16166" lon="6.44586">
        <ele>355.8</ele>
        <time>2023-10-01T08:28:43Z</time>
      </trkpt>
      <trkpt lat="48.16168" lon="6.44586">
        <ele>356.2</ele>
        <time>2023-10-01T08:28:44Z</time>
      </trkpt>
      <trkpt lat="48.1617" lon="6.44585">
        <ele>356.4</ele>
        <time>2023-10-01T08:28:45Z</time>
      </trkpt>
      <trkpt lat="48.16173" lon="6.44584">
        <ele>356.6</ele>
        <time>2023-10-01T08:28:46Z</time>
      </trkpt>
      <trkpt lat="48.16175" lon="6.44581">
        <ele>356.8</ele>
        <time>2023-10-01T08:28:47Z</time>
      </trkpt>
      <trkpt lat="48.16177" lon="6.44581">
        <ele>357</ele>
        <time>2023-10-01T08:28:48Z</time>
      </trkpt>
      <trkpt lat="48.16179" lon="6.44581">
        <ele>357.4</ele>
        <time>2023-10-01T08:28:49Z</time>
      </trkpt>
      <trkpt lat="48.16182" lon="6.44578">
        <ele>357.6</ele>
        <time>2023-10-01T08:28:50Z</time>
      </trkpt>
      <trkpt lat="48.16185" lon="6.44578">
        <ele>357.8</ele>
        <time>2023-10-01T08:28:51Z</time>
      </trkpt>
      <trkpt lat="48.16187" lon="6.44577">
        <ele>358</ele>
        <time>2023-10-01T08:28:52Z</time>
      </trkpt>
      <trkpt lat="48.16193" lon="6.44575">
        <ele>358.4</ele>
        <time>2023-10-01T08:28:53Z</time>
      </trkpt>
      <trkpt lat="48.16195" lon="6.44576">
        <ele>358.6</ele>
        <time>2023-10-01T08:28:54Z</time>
      </trkpt>
      <trkpt lat="48.16197" lon="6.44576">
        <ele>359</ele>
        <time>2023-10-01T08:28:55Z</time>
      </trkpt>
      <trkpt lat="48.162" lon="6.44576">
        <ele>359.2</ele>
        <time>2023-10-01T08:28:56Z</time>
      </trkpt>
      <trkpt lat="48.16202" lon="6.44575">
        <ele>359.4</ele>
        <time>2023-10-01T08:28:57Z</time>
      </trkpt>
      <trkpt lat="48.16204" lon="6.44574">
        <ele>359.8</ele>
        <time>2023-10-01T08:28:58Z</time>
      </trkpt>
      <trkpt lat="48.16206" lon="6.44572">
        <ele>360</ele>
        <time>2023-10-01T08:28:59Z</time>
      </trkpt>
      <trkpt lat="48.16208" lon="6.44571">
        <ele>360.2</ele>
        <time>2023-10-01T08:29:00Z</time>
      </trkpt>
      <trkpt lat="48.1621" lon="6.44571">
        <ele>360.6</ele>
        <time>2023-10-01T08:29:01Z</time>
      </trkpt>
      <trkpt lat="48.16213" lon="6.44571">
        <ele>360.6</ele>
        <time>2023-10-01T08:29:02Z</time>
      </trkpt>
      <trkpt lat="48.16215" lon="6.44571">
        <ele>360.8</ele>
        <time>2023-10-01T08:29:03Z</time>
      </trkpt>
      <trkpt lat="48.16218" lon="6.4457">
        <ele>360.8</ele>
        <time>2023-10-01T08:29:04Z</time>
      </trkpt>
      <trkpt lat="48.1622" lon="6.44569">
        <ele>361</ele>
        <time>2023-10-01T08:29:05Z</time>
      </trkpt>
      <trkpt lat="48.16224" lon="6.44566">
        <ele>361.2</ele>
        <time>2023-10-01T08:29:06Z</time>
      </trkpt>
      <trkpt lat="48.1623" lon="6.44562">
        <ele>361.4</ele>
        <time>2023-10-01T08:29:07Z</time>
      </trkpt>
      <trkpt lat="48.16232" lon="6.44562">
        <ele>361.6</ele>
        <time>2023-10-01T08:29:08Z</time>
      </trkpt>
      <trkpt lat="48.16236" lon="6.4456">
        <ele>361.6</ele>
        <time>2023-10-01T08:29:09Z</time>
      </trkpt>
      <trkpt lat="48.1624" lon="6.44559">
        <ele>361.6</ele>
        <time>2023-10-01T08:29:10Z</time>
      </trkpt>
      <trkpt lat="48.16243" lon="6.44559">
        <ele>361.8</ele>
        <time>2023-10-01T08:29:11Z</time>
      </trkpt>
      <trkpt lat="48.16245" lon="6.44559">
        <ele>361.8</ele>
        <time>2023-10-01T08:29:12Z</time>
      </trkpt>
      <trkpt lat="48.16246" lon="6.44558">
        <ele>361.8</ele>
        <time>2023-10-01T08:29:13Z</time>
      </trkpt>
      <trkpt lat="48.16247" lon="6.44557">
        <ele>362</ele>
        <time>2023-10-01T08:29:14Z</time>
      </trkpt>
      <trkpt lat="48.16249" lon="6.44557">
        <ele>362</ele>
        <time>2023-10-01T08:29:15Z</time>
      </trkpt>
      <trkpt lat="48.16252" lon="6.44557">
        <ele>362.2</ele>
        <time>2023-10-01T08:29:16Z</time>
      </trkpt>
      <trkpt lat="48.16255" lon="6.44556">
        <ele>362.4</ele>
        <time>2023-10-01T08:29:17Z</time>
      </trkpt>
      <trkpt lat="48.16258" lon="6.44559">
        <ele>362.4</ele>
        <time>2023-10-01T08:29:18Z</time>
      </trkpt>
      <trkpt lat="48.1626" lon="6.44558">
        <ele>362.4</ele>
        <time>2023-10-01T08:29:19Z</time>
      </trkpt>
      <trkpt lat="48.16261" lon="6.44558">
        <ele>362.6</ele>
        <time>2023-10-01T08:29:20Z</time>
      </trkpt>
      <trkpt lat="48.16263" lon="6.44557">
        <ele>362.8</ele>
        <time>2023-10-01T08:29:21Z</time>
      </trkpt>
      <trkpt lat="48.16266" lon="6.44557">
        <ele>363</ele>
        <time>2023-10-01T08:29:22Z</time>
      </trkpt>
      <trkpt lat="48.16269" lon="6.44555">
        <ele>363.2</ele>
        <time>2023-10-01T08:29:23Z</time>
      </trkpt>
      <trkpt lat="48.16272" lon="6.44554">
        <ele>363.4</ele>
        <time>2023-10-01T08:29:24Z</time>
      </trkpt>
      <trkpt lat="48.16275" lon="6.44553">
        <ele>363.6</ele>
        <time>2023-10-01T08:29:25Z</time>
      </trkpt>
      <trkpt lat="48.16278" lon="6.44551">
        <ele>363.8</ele>
        <time>2023-10-01T08:29:26Z</time>
      </trkpt>
      <trkpt lat="48.16279" lon="6.4455">
        <ele>363.6</ele>
        <time>2023-10-01T08:29:27Z</time>
      </trkpt>
      <trkpt lat="48.16281" lon="6.44549">
        <ele>363.8</ele>
        <time>2023-10-01T08:29:28Z</time>
      </trkpt>
      <trkpt lat="48.16285" lon="6.44548">
        <ele>363.8</ele>
        <time>2023-10-01T08:29:29Z</time>
      </trkpt>
      <trkpt lat="48.16288" lon="6.44549">
        <ele>363.8</ele>
        <time>2023-10-01T08:29:30Z</time>
      </trkpt>
      <trkpt lat="48.16291" lon="6.44549">
        <ele>364</ele>
        <time>2023-10-01T08:29:31Z</time>
      </trkpt>
      <trkpt lat="48.16293" lon="6.4455">
        <ele>364</ele>
        <time>2023-10-01T08:29:32Z</time>
      </trkpt>
      <trkpt lat="48.16296" lon="6.44551">
        <ele>364</ele>
        <time>2023-10-01T08:29:33Z</time>
      </trkpt>
      <trkpt lat="48.16299" lon="6.44552">
        <ele>364</ele>
        <time>2023-10-01T08:29:34Z</time>
      </trkpt>
      <trkpt lat="48.16302" lon="6.44554">
        <ele>364.2</ele>
        <time>2023-10-01T08:29:35Z</time>
      </trkpt>
      <trkpt lat="48.16306" lon="6.44558">
        <ele>364.2</ele>
        <time>2023-10-01T08:29:36Z</time>
      </trkpt>
      <trkpt lat="48.16311" lon="6.44562">
        <ele>364.4</ele>
        <time>2023-10-01T08:29:37Z</time>
      </trkpt>
      <trkpt lat="48.16317" lon="6.44566">
        <ele>364.6</ele>
        <time>2023-10-01T08:29:38Z</time>
      </trkpt>
      <trkpt lat="48.16325" lon="6.44564">
        <ele>364.6</ele>
        <time>2023-10-01T08:29:39Z</time>
      </trkpt>
      <trkpt lat="48.1633" lon="6.44561">
        <ele>364.8</ele>
        <time>2023-10-01T08:29:40Z</time>
      </trkpt>
      <trkpt lat="48.16331" lon="6.4456">
        <ele>365.2</ele>
        <time>2023-10-01T08:29:41Z</time>
      </trkpt>
      <trkpt lat="48.16334" lon="6.44555">
        <ele>365.6</ele>
        <time>2023-10-01T08:29:42Z</time>
      </trkpt>
      <trkpt lat="48.16336" lon="6.44552">
        <ele>365.8</ele>
        <time>2023-10-01T08:29:43Z</time>
      </trkpt>
      <trkpt lat="48.1634" lon="6.44552">
        <ele>366.2</ele>
        <time>2023-10-01T08:29:44Z</time>
      </trkpt>
      <trkpt lat="48.16342" lon="6.44552">
        <ele>366.4</ele>
        <time>2023-10-01T08:29:45Z</time>
      </trkpt>
      <trkpt lat="48.16345" lon="6.44552">
        <ele>367</ele>
        <time>2023-10-01T08:29:46Z</time>
      </trkpt>
      <trkpt lat="48.16347" lon="6.44553">
        <ele>367.4</ele>
        <time>2023-10-01T08:29:47Z</time>
      </trkpt>
      <trkpt lat="48.16352" lon="6.44552">
        <ele>368</ele>
        <time>2023-10-01T08:29:48Z</time>
      </trkpt>
      <trkpt lat="48.16356" lon="6.44551">
        <ele>368</ele>
        <time>2023-10-01T08:29:49Z</time>
      </trkpt>
      <trkpt lat="48.16359" lon="6.4455">
        <ele>368.4</ele>
        <time>2023-10-01T08:29:50Z</time>
      </trkpt>
      <trkpt lat="48.16362" lon="6.44548">
        <ele>368.6</ele>
        <time>2023-10-01T08:29:51Z</time>
      </trkpt>
      <trkpt lat="48.16363" lon="6.44547">
        <ele>368.8</ele>
        <time>2023-10-01T08:29:52Z</time>
      </trkpt>
      <trkpt lat="48.16364" lon="6.44546">
        <ele>368.8</ele>
        <time>2023-10-01T08:29:53Z</time>
      </trkpt>
      <trkpt lat="48.16364" lon="6.44546">
        <ele>369</ele>
        <time>2023-10-01T08:29:54Z</time>
      </trkpt>
      <trkpt lat="48.16364" lon="6.44546">
        <ele>369</ele>
        <time>2023-10-01T08:29:55Z</time>
      </trkpt>
      <trkpt lat="48.16366" lon="6.44547">
        <ele>369.2</ele>
        <time>2023-10-01T08:29:56Z</time>
      </trkpt>
      <trkpt lat="48.16367" lon="6.44547">
        <ele>369.2</ele>
        <time>2023-10-01T08:29:57Z</time>
      </trkpt>
      <trkpt lat="48.16368" lon="6.44545">
        <ele>369.2</ele>
        <time>2023-10-01T08:29:58Z</time>
      </trkpt>
      <trkpt lat="48.16369" lon="6.44544">
        <ele>369.2</ele>
        <time>2023-10-01T08:29:59Z</time>
      </trkpt>
      <trkpt lat="48.16372" lon="6.44542">
        <ele>369.2</ele>
        <time>2023-10-01T08:30:00Z</time>
      </trkpt>
      <trkpt lat="48.16374" lon="6.44541">
        <ele>369.2</ele>
        <time>2023-10-01T08:30:01Z</time>
      </trkpt>
      <trkpt lat="48.16377" lon="6.44543">
        <ele>369.2</ele>
        <time>2023-10-01T08:30:02Z</time>
      </trkpt>
      <trkpt lat="48.16381" lon="6.44544">
        <ele>369.2</ele>
        <time>2023-10-01T08:30:03Z</time>
      </trkpt>
      <trkpt lat="48.16386" lon="6.44544">
        <ele>369.2</ele>
        <time>2023-10-01T08:30:04Z</time>
      </trkpt>
      <trkpt lat="48.16393" lon="6.44546">
        <ele>369</ele>
        <time>2023-10-01T08:30:05Z</time>
      </trkpt>
      <trkpt lat="48.16399" lon="6.44546">
        <ele>369</ele>
        <time>2023-10-01T08:30:06Z</time>
      </trkpt>
      <trkpt lat="48.16404" lon="6.44546">
        <ele>368.8</ele>
        <time>2023-10-01T08:30:07Z</time>
      </trkpt>
      <trkpt lat="48.16409" lon="6.44545">
        <ele>368.8</ele>
        <time>2023-10-01T08:30:08Z</time>
      </trkpt>
      <trkpt lat="48.16414" lon="6.44542">
        <ele>368.6</ele>
        <time>2023-10-01T08:30:09Z</time>
      </trkpt>
      <trkpt lat="48.1642" lon="6.44538">
        <ele>368.4</ele>
        <time>2023-10-01T08:30:10Z</time>
      </trkpt>
      <trkpt lat="48.16425" lon="6.44536">
        <ele>368</ele>
        <time>2023-10-01T08:30:11Z</time>
      </trkpt>
      <trkpt lat="48.16428" lon="6.44533">
        <ele>368</ele>
        <time>2023-10-01T08:30:12Z</time>
      </trkpt>
      <trkpt lat="48.16429" lon="6.44531">
        <ele>367</ele>
        <time>2023-10-01T08:30:13Z</time>
      </trkpt>
      <trkpt lat="48.16431" lon="6.44528">
        <ele>366.8</ele>
        <time>2023-10-01T08:30:14Z</time>
      </trkpt>
      <trkpt lat="48.16432" lon="6.44525">
        <ele>366.4</ele>
        <time>2023-10-01T08:30:15Z</time>
      </trkpt>
      <trkpt lat="48.16433" lon="6.44523">
        <ele>365.8</ele>
        <time>2023-10-01T08:30:16Z</time>
      </trkpt>
      <trkpt lat="48.16434" lon="6.44517">
        <ele>365.6</ele>
        <time>2023-10-01T08:30:17Z</time>
      </trkpt>
      <trkpt lat="48.16435" lon="6.44514">
        <ele>364.8</ele>
        <time>2023-10-01T08:30:18Z</time>
      </trkpt>
      <trkpt lat="48.16437" lon="6.44511">
        <ele>364.6</ele>
        <time>2023-10-01T08:30:19Z</time>
      </trkpt>
      <trkpt lat="48.1644" lon="6.44507">
        <ele>364.2</ele>
        <time>2023-10-01T08:30:20Z</time>
      </trkpt>
      <trkpt lat="48.16441" lon="6.44503">
        <ele>364</ele>
        <time>2023-10-01T08:30:21Z</time>
      </trkpt>
      <trkpt lat="48.16442" lon="6.44498">
        <ele>363.8</ele>
        <time>2023-10-01T08:30:22Z</time>
      </trkpt>
      <trkpt lat="48.1644" lon="6.44491">
        <ele>363.6</ele>
        <time>2023-10-01T08:30:23Z</time>
      </trkpt>
      <trkpt lat="48.16439" lon="6.44484">
        <ele>362.8</ele>
        <time>2023-10-01T08:30:24Z</time>
      </trkpt>
      <trkpt lat="48.16439" lon="6.44476">
        <ele>362.6</ele>
        <time>2023-10-01T08:30:25Z</time>
      </trkpt>
      <trkpt lat="48.16439" lon="6.44466">
        <ele>361.8</ele>
        <time>2023-10-01T08:30:26Z</time>
      </trkpt>
      <trkpt lat="48.16439" lon="6.44456">
        <ele>361.6</ele>
        <time>2023-10-01T08:30:27Z</time>
      </trkpt>
      <trkpt lat="48.1644" lon="6.44444">
        <ele>361</ele>
        <time>2023-10-01T08:30:28Z</time>
      </trkpt>
      <trkpt lat="48.16442" lon="6.44436">
        <ele>360.6</ele>
        <time>2023-10-01T08:30:29Z</time>
      </trkpt>
      <trkpt lat="48.16447" lon="6.44429">
        <ele>359.6</ele>
        <time>2023-10-01T08:30:30Z</time>
      </trkpt>
      <trkpt lat="48.1645" lon="6.44422">
        <ele>359.4</ele>
        <time>2023-10-01T08:30:31Z</time>
      </trkpt>
      <trkpt lat="48.16451" lon="6.44421">
        <ele>359</ele>
        <time>2023-10-01T08:30:32Z</time>
      </trkpt>
      <trkpt lat="48.16451" lon="6.44415">
        <ele>358.8</ele>
        <time>2023-10-01T08:30:33Z</time>
      </trkpt>
      <trkpt lat="48.16452" lon="6.44411">
        <ele>358.8</ele>
        <time>2023-10-01T08:30:34Z</time>
      </trkpt>
      <trkpt lat="48.16451" lon="6.44407">
        <ele>358.8</ele>
        <time>2023-10-01T08:30:35Z</time>
      </trkpt>
      <trkpt lat="48.1645" lon="6.44402">
        <ele>358.8</ele>
        <time>2023-10-01T08:30:36Z</time>
      </trkpt>
      <trkpt lat="48.16451" lon="6.44397">
        <ele>359</ele>
        <time>2023-10-01T08:30:37Z</time>
      </trkpt>
      <trkpt lat="48.1645" lon="6.44391">
        <ele>359</ele>
        <time>2023-10-01T08:30:38Z</time>
      </trkpt>
      <trkpt lat="48.16448" lon="6.44385">
        <ele>359.2</ele>
        <time>2023-10-01T08:30:39Z</time>
      </trkpt>
      <trkpt lat="48.16447" lon="6.44381">
        <ele>359.2</ele>
        <time>2023-10-01T08:30:40Z</time>
      </trkpt>
      <trkpt lat="48.16447" lon="6.44378">
        <ele>359.2</ele>
        <time>2023-10-01T08:30:41Z</time>
      </trkpt>
      <trkpt lat="48.16446" lon="6.44375">
        <ele>359.2</ele>
        <time>2023-10-01T08:30:42Z</time>
      </trkpt>
      <trkpt lat="48.16446" lon="6.44371">
        <ele>359.4</ele>
        <time>2023-10-01T08:30:43Z</time>
      </trkpt>
      <trkpt lat="48.16447" lon="6.44368">
        <ele>359.4</ele>
        <time>2023-10-01T08:30:44Z</time>
      </trkpt>
      <trkpt lat="48.16449" lon="6.44362">
        <ele>359.6</ele>
        <time>2023-10-01T08:30:45Z</time>
      </trkpt>
      <trkpt lat="48.16452" lon="6.44354">
        <ele>359.6</ele>
        <time>2023-10-01T08:30:46Z</time>
      </trkpt>
      <trkpt lat="48.16452" lon="6.44348">
        <ele>359.8</ele>
        <time>2023-10-01T08:30:47Z</time>
      </trkpt>
      <trkpt lat="48.16452" lon="6.44342">
        <ele>359.8</ele>
        <time>2023-10-01T08:30:48Z</time>
      </trkpt>
      <trkpt lat="48.16451" lon="6.44336">
        <ele>360</ele>
        <time>2023-10-01T08:30:49Z</time>
      </trkpt>
      <trkpt lat="48.16454" lon="6.44328">
        <ele>360.2</ele>
        <time>2023-10-01T08:30:50Z</time>
      </trkpt>
      <trkpt lat="48.16452" lon="6.4432">
        <ele>360.2</ele>
        <time>2023-10-01T08:30:51Z</time>
      </trkpt>
      <trkpt lat="48.16452" lon="6.44312">
        <ele>359.8</ele>
        <time>2023-10-01T08:30:52Z</time>
      </trkpt>
      <trkpt lat="48.16452" lon="6.44302">
        <ele>359.6</ele>
        <time>2023-10-01T08:30:53Z</time>
      </trkpt>
      <trkpt lat="48.16452" lon="6.44292">
        <ele>359.4</ele>
        <time>2023-10-01T08:30:54Z</time>
      </trkpt>
      <trkpt lat="48.16453" lon="6.44282">
        <ele>359</ele>
        <time>2023-10-01T08:30:55Z</time>
      </trkpt>
      <trkpt lat="48.16455" lon="6.44268">
        <ele>358.4</ele>
        <time>2023-10-01T08:30:56Z</time>
      </trkpt>
      <trkpt lat="48.16456" lon="6.44257">
        <ele>358</ele>
        <time>2023-10-01T08:30:57Z</time>
      </trkpt>
      <trkpt lat="48.16455" lon="6.44246">
        <ele>357</ele>
        <time>2023-10-01T08:30:58Z</time>
      </trkpt>
      <trkpt lat="48.16455" lon="6.44235">
        <ele>356.6</ele>
        <time>2023-10-01T08:30:59Z</time>
      </trkpt>
      <trkpt lat="48.16458" lon="6.44223">
        <ele>355.6</ele>
        <time>2023-10-01T08:31:00Z</time>
      </trkpt>
      <trkpt lat="48.16457" lon="6.44212">
        <ele>355.6</ele>
        <time>2023-10-01T08:31:01Z</time>
      </trkpt>
      <trkpt lat="48.16456" lon="6.44203">
        <ele>355</ele>
        <time>2023-10-01T08:31:02Z</time>
      </trkpt>
      <trkpt lat="48.16455" lon="6.44194">
        <ele>354.4</ele>
        <time>2023-10-01T08:31:03Z</time>
      </trkpt>
      <trkpt lat="48.16452" lon="6.44186">
        <ele>353</ele>
        <time>2023-10-01T08:31:04Z</time>
      </trkpt>
      <trkpt lat="48.16451" lon="6.44177">
        <ele>352.4</ele>
        <time>2023-10-01T08:31:05Z</time>
      </trkpt>
      <trkpt lat="48.1645" lon="6.44169">
        <ele>351.8</ele>
        <time>2023-10-01T08:31:06Z</time>
      </trkpt>
      <trkpt lat="48.1645" lon="6.44163">
        <ele>351.4</ele>
        <time>2023-10-01T08:31:07Z</time>
      </trkpt>
      <trkpt lat="48.1645" lon="6.44156">
        <ele>350.6</ele>
        <time>2023-10-01T08:31:08Z</time>
      </trkpt>
      <trkpt lat="48.16448" lon="6.44151">
        <ele>350.4</ele>
        <time>2023-10-01T08:31:09Z</time>
      </trkpt>
      <trkpt lat="48.16447" lon="6.44145">
        <ele>350</ele>
        <time>2023-10-01T08:31:10Z</time>
      </trkpt>
      <trkpt lat="48.16446" lon="6.4414">
        <ele>349.8</ele>
        <time>2023-10-01T08:31:11Z</time>
      </trkpt>
      <trkpt lat="48.16446" lon="6.44135">
        <ele>349.6</ele>
        <time>2023-10-01T08:31:12Z</time>
      </trkpt>
      <trkpt lat="48.16446" lon="6.4413">
        <ele>349.4</ele>
        <time>2023-10-01T08:31:13Z</time>
      </trkpt>
      <trkpt lat="48.16447" lon="6.44124">
        <ele>349.4</ele>
        <time>2023-10-01T08:31:14Z</time>
      </trkpt>
      <trkpt lat="48.16447" lon="6.44119">
        <ele>349.2</ele>
        <time>2023-10-01T08:31:15Z</time>
      </trkpt>
      <trkpt lat="48.16447" lon="6.44114">
        <ele>349.2</ele>
        <time>2023-10-01T08:31:16Z</time>
      </trkpt>
      <trkpt lat="48.16448" lon="6.44111">
        <ele>349.2</ele>
        <time>2023-10-01T08:31:17Z</time>
      </trkpt>
      <trkpt lat="48.16447" lon="6.44108">
        <ele>349.2</ele>
        <time>2023-10-01T08:31:18Z</time>
      </trkpt>
      <trkpt lat="48.16447" lon="6.44105">
        <ele>349.2</ele>
        <time>2023-10-01T08:31:19Z</time>
      </trkpt>
      <trkpt lat="48.16446" lon="6.44095">
        <ele>349.2</ele>
        <time>2023-10-01T08:31:21Z</time>
      </trkpt>
      <trkpt lat="48.16445" lon="6.4409">
        <ele>348.6</ele>
        <time>2023-10-01T08:33:47Z</time>
      </trkpt>
      <trkpt lat="48.16445" lon="6.4409">
        <ele>348.6</ele>
        <time>2023-10-01T08:33:48Z</time>
      </trkpt>
      <trkpt lat="48.16444" lon="6.44091">
        <ele>348.6</ele>
        <time>2023-10-01T08:33:49Z</time>
      </trkpt>
      <trkpt lat="48.16443" lon="6.44092">
        <ele>348.6</ele>
        <time>2023-10-01T08:33:50Z</time>
      </trkpt>
      <trkpt lat="48.16441" lon="6.44093">
        <ele>348.6</ele>
        <time>2023-10-01T08:33:51Z</time>
      </trkpt>
      <trkpt lat="48.16439" lon="6.44092">
        <ele>348.8</ele>
        <time>2023-10-01T08:33:52Z</time>
      </trkpt>
      <trkpt lat="48.16436" lon="6.44091">
        <ele>348.8</ele>
        <time>2023-10-01T08:33:53Z</time>
      </trkpt>
      <trkpt lat="48.16434" lon="6.44091">
        <ele>349</ele>
        <time>2023-10-01T08:33:54Z</time>
      </trkpt>
      <trkpt lat="48.16431" lon="6.44091">
        <ele>349</ele>
        <time>2023-10-01T08:33:55Z</time>
      </trkpt>
      <trkpt lat="48.1643" lon="6.4409">
        <ele>349.4</ele>
        <time>2023-10-01T08:33:56Z</time>
      </trkpt>
      <trkpt lat="48.16429" lon="6.44089">
        <ele>349.6</ele>
        <time>2023-10-01T08:33:57Z</time>
      </trkpt>
      <trkpt lat="48.16428" lon="6.44089">
        <ele>349.8</ele>
        <time>2023-10-01T08:33:58Z</time>
      </trkpt>
      <trkpt lat="48.16427" lon="6.44089">
        <ele>350</ele>
        <time>2023-10-01T08:33:59Z</time>
      </trkpt>
      <trkpt lat="48.16427" lon="6.44088">
        <ele>350.2</ele>
        <time>2023-10-01T08:34:00Z</time>
      </trkpt>
      <trkpt lat="48.16425" lon="6.44087">
        <ele>350.4</ele>
        <time>2023-10-01T08:34:01Z</time>
      </trkpt>
      <trkpt lat="48.16423" lon="6.44086">
        <ele>350.6</ele>
        <time>2023-10-01T08:34:02Z</time>
      </trkpt>
      <trkpt lat="48.16423" lon="6.44086">
        <ele>350.8</ele>
        <time>2023-10-01T08:34:03Z</time>
      </trkpt>
      <trkpt lat="48.16421" lon="6.44084">
        <ele>351</ele>
        <time>2023-10-01T08:34:04Z</time>
      </trkpt>
      <trkpt lat="48.16417" lon="6.44081">
        <ele>351.2</ele>
        <time>2023-10-01T08:34:05Z</time>
      </trkpt>
      <trkpt lat="48.16417" lon="6.44081">
        <ele>351.2</ele>
        <time>2023-10-01T08:34:06Z</time>
      </trkpt>
      <trkpt lat="48.16417" lon="6.44081">
        <ele>352</ele>
        <time>2023-10-01T08:34:07Z</time>
      </trkpt>
      <trkpt lat="48.16417" lon="6.4408">
        <ele>352.4</ele>
        <time>2023-10-01T08:34:08Z</time>
      </trkpt>
      <trkpt lat="48.16414" lon="6.44077">
        <ele>352.8</ele>
        <time>2023-10-01T08:34:09Z</time>
      </trkpt>
      <trkpt lat="48.16413" lon="6.44077">
        <ele>353.2</ele>
        <time>2023-10-01T08:34:10Z</time>
      </trkpt>
      <trkpt lat="48.16413" lon="6.44077">
        <ele>353.6</ele>
        <time>2023-10-01T08:34:11Z</time>
      </trkpt>
      <trkpt lat="48.16411" lon="6.44075">
        <ele>353.6</ele>
        <time>2023-10-01T08:34:12Z</time>
      </trkpt>
      <trkpt lat="48.16411" lon="6.44074">
        <ele>353.8</ele>
        <time>2023-10-01T08:34:13Z</time>
      </trkpt>
      <trkpt lat="48.16408" lon="6.44073">
        <ele>354</ele>
        <time>2023-10-01T08:34:14Z</time>
      </trkpt>
      <trkpt lat="48.16405" lon="6.44071">
        <ele>354.2</ele>
        <time>2023-10-01T08:34:15Z</time>
      </trkpt>
      <trkpt lat="48.16404" lon="6.44071">
        <ele>354.4</ele>
        <time>2023-10-01T08:34:16Z</time>
      </trkpt>
      <trkpt lat="48.16403" lon="6.44067">
        <ele>354.6</ele>
        <time>2023-10-01T08:34:17Z</time>
      </trkpt>
      <trkpt lat="48.16401" lon="6.44066">
        <ele>355.6</ele>
        <time>2023-10-01T08:34:18Z</time>
      </trkpt>
      <trkpt lat="48.16399" lon="6.44065">
        <ele>356</ele>
        <time>2023-10-01T08:34:19Z</time>
      </trkpt>
      <trkpt lat="48.16398" lon="6.44065">
        <ele>356.6</ele>
        <time>2023-10-01T08:34:20Z</time>
      </trkpt>
      <trkpt lat="48.16398" lon="6.44065">
        <ele>356.8</ele>
        <time>2023-10-01T08:34:21Z</time>
      </trkpt>
      <trkpt lat="48.16397" lon="6.44064">
        <ele>357</ele>
        <time>2023-10-01T08:34:22Z</time>
      </trkpt>
      <trkpt lat="48.16396" lon="6.4406">
        <ele>357.2</ele>
        <time>2023-10-01T08:34:23Z</time>
      </trkpt>
      <trkpt lat="48.16396" lon="6.4406">
        <ele>357.4</ele>
        <time>2023-10-01T08:34:24Z</time>
      </trkpt>
      <trkpt lat="48.16396" lon="6.44061">
        <ele>357.6</ele>
        <time>2023-10-01T08:34:25Z</time>
      </trkpt>
      <trkpt lat="48.16394" lon="6.4406">
        <ele>358.2</ele>
        <time>2023-10-01T08:34:26Z</time>
      </trkpt>
      <trkpt lat="48.16392" lon="6.44059">
        <ele>358.4</ele>
        <time>2023-10-01T08:34:27Z</time>
      </trkpt>
      <trkpt lat="48.16391" lon="6.44058">
        <ele>358.8</ele>
        <time>2023-10-01T08:34:28Z</time>
      </trkpt>
      <trkpt lat="48.1639" lon="6.44058">
        <ele>359.2</ele>
        <time>2023-10-01T08:34:29Z</time>
      </trkpt>
      <trkpt lat="48.16389" lon="6.44057">
        <ele>359.6</ele>
        <time>2023-10-01T08:34:30Z</time>
      </trkpt>
      <trkpt lat="48.16388" lon="6.44057">
        <ele>359.8</ele>
        <time>2023-10-01T08:34:31Z</time>
      </trkpt>
      <trkpt lat="48.16387" lon="6.44058">
        <ele>360.2</ele>
        <time>2023-10-01T08:34:32Z</time>
      </trkpt>
      <trkpt lat="48.16386" lon="6.44057">
        <ele>360.8</ele>
        <time>2023-10-01T08:34:33Z</time>
      </trkpt>
      <trkpt lat="48.16384" lon="6.44057">
        <ele>361</ele>
        <time>2023-10-01T08:34:34Z</time>
      </trkpt>
      <trkpt lat="48.16383" lon="6.44057">
        <ele>361.6</ele>
        <time>2023-10-01T08:34:35Z</time>
      </trkpt>
      <trkpt lat="48.16381" lon="6.44057">
        <ele>361.8</ele>
        <time>2023-10-01T08:34:36Z</time>
      </trkpt>
      <trkpt lat="48.1638" lon="6.44058">
        <ele>362.6</ele>
        <time>2023-10-01T08:34:37Z</time>
      </trkpt>
      <trkpt lat="48.1638" lon="6.44058">
        <ele>362.8</ele>
        <time>2023-10-01T08:34:38Z</time>
      </trkpt>
      <trkpt lat="48.1638" lon="6.44058">
        <ele>363.2</ele>
        <time>2023-10-01T08:34:39Z</time>
      </trkpt>
      <trkpt lat="48.16379" lon="6.44058">
        <ele>363.2</ele>
        <time>2023-10-01T08:34:40Z</time>
      </trkpt>
      <trkpt lat="48.16378" lon="6.44057">
        <ele>363.6</ele>
        <time>2023-10-01T08:34:41Z</time>
      </trkpt>
      <trkpt lat="48.16376" lon="6.44057">
        <ele>363.8</ele>
        <time>2023-10-01T08:34:42Z</time>
      </trkpt>
      <trkpt lat="48.16375" lon="6.44057">
        <ele>364.2</ele>
        <time>2023-10-01T08:34:43Z</time>
      </trkpt>
      <trkpt lat="48.16374" lon="6.44056">
        <ele>364.4</ele>
        <time>2023-10-01T08:34:44Z</time>
      </trkpt>
      <trkpt lat="48.16372" lon="6.44056">
        <ele>365</ele>
        <time>2023-10-01T08:34:45Z</time>
      </trkpt>
      <trkpt lat="48.16372" lon="6.44056">
        <ele>365.2</ele>
        <time>2023-10-01T08:34:46Z</time>
      </trkpt>
      <trkpt lat="48.16372" lon="6.44056">
        <ele>365.6</ele>
        <time>2023-10-01T08:34:47Z</time>
      </trkpt>
      <trkpt lat="48.16371" lon="6.44056">
        <ele>365.8</ele>
        <time>2023-10-01T08:34:48Z</time>
      </trkpt>
      <trkpt lat="48.16371" lon="6.44056">
        <ele>366.2</ele>
        <time>2023-10-01T08:34:49Z</time>
      </trkpt>
      <trkpt lat="48.16371" lon="6.44056">
        <ele>366.4</ele>
        <time>2023-10-01T08:34:50Z</time>
      </trkpt>
      <trkpt lat="48.16371" lon="6.44056">
        <ele>366.8</ele>
        <time>2023-10-01T08:34:51Z</time>
      </trkpt>
      <trkpt lat="48.16371" lon="6.44055">
        <ele>367.2</ele>
        <time>2023-10-01T08:34:52Z</time>
      </trkpt>
      <trkpt lat="48.16372" lon="6.44055">
        <ele>367.4</ele>
        <time>2023-10-01T08:34:53Z</time>
      </trkpt>
      <trkpt lat="48.1637" lon="6.44054">
        <ele>367.6</ele>
        <time>2023-10-01T08:34:54Z</time>
      </trkpt>
      <trkpt lat="48.16371" lon="6.44054">
        <ele>367.6</ele>
        <time>2023-10-01T08:34:55Z</time>
      </trkpt>
      <trkpt lat="48.16371" lon="6.44054">
        <ele>367.8</ele>
        <time>2023-10-01T08:34:56Z</time>
      </trkpt>
      <trkpt lat="48.16371" lon="6.44053">
        <ele>367.8</ele>
        <time>2023-10-01T08:34:57Z</time>
      </trkpt>
      <trkpt lat="48.16372" lon="6.44053">
        <ele>368</ele>
        <time>2023-10-01T08:34:58Z</time>
      </trkpt>
      <trkpt lat="48.16372" lon="6.44053">
        <ele>368</ele>
        <time>2023-10-01T08:34:59Z</time>
      </trkpt>
      <trkpt lat="48.16372" lon="6.44053">
        <ele>368</ele>
        <time>2023-10-01T08:35:00Z</time>
      </trkpt>
      <trkpt lat="48.16372" lon="6.44053">
        <ele>368</ele>
        <time>2023-10-01T08:35:01Z</time>
      </trkpt>
      <trkpt lat="48.16372" lon="6.44053">
        <ele>368.2</ele>
        <time>2023-10-01T08:35:02Z</time>
      </trkpt>
      <trkpt lat="48.16372" lon="6.44053">
        <ele>368.4</ele>
        <time>2023-10-01T08:35:03Z</time>
      </trkpt>
      <trkpt lat="48.16373" lon="6.44052">
        <ele>368.6</ele>
        <time>2023-10-01T08:35:04Z</time>
      </trkpt>
      <trkpt lat="48.16373" lon="6.44051">
        <ele>368.8</ele>
        <time>2023-10-01T08:35:05Z</time>
      </trkpt>
      <trkpt lat="48.16373" lon="6.44051">
        <ele>369</ele>
        <time>2023-10-01T08:35:06Z</time>
      </trkpt>
      <trkpt lat="48.16373" lon="6.44051">
        <ele>369</ele>
        <time>2023-10-01T08:35:07Z</time>
      </trkpt>
      <trkpt lat="48.16373" lon="6.44051">
        <ele>369</ele>
        <time>2023-10-01T08:35:08Z</time>
      </trkpt>
      <trkpt lat="48.16373" lon="6.44051">
        <ele>369.2</ele>
        <time>2023-10-01T08:35:09Z</time>
      </trkpt>
      <trkpt lat="48.16373" lon="6.44051">
        <ele>369.6</ele>
        <time>2023-10-01T08:35:10Z</time>
      </trkpt>
      <trkpt lat="48.16373" lon="6.44051">
        <ele>369.6</ele>
        <time>2023-10-01T08:35:11Z</time>
      </trkpt>
      <trkpt lat="48.16373" lon="6.44051">
        <ele>369.8</ele>
        <time>2023-10-01T08:35:12Z</time>
      </trkpt>
      <trkpt lat="48.16373" lon="6.44051">
        <ele>370</ele>
        <time>2023-10-01T08:35:13Z</time>
      </trkpt>
      <trkpt lat="48.16373" lon="6.44051">
        <ele>370.2</ele>
        <time>2023-10-01T08:35:14Z</time>
      </trkpt>
      <trkpt lat="48.16373" lon="6.44051">
        <ele>370.2</ele>
        <time>2023-10-01T08:35:15Z</time>
      </trkpt>
      <trkpt lat="48.16374" lon="6.44051">
        <ele>370.2</ele>
        <time>2023-10-01T08:35:16Z</time>
      </trkpt>
      <trkpt lat="48.16375" lon="6.44049">
        <ele>370.4</ele>
        <time>2023-10-01T08:35:17Z</time>
      </trkpt>
      <trkpt lat="48.16376" lon="6.44047">
        <ele>370.4</ele>
        <time>2023-10-01T08:35:18Z</time>
      </trkpt>
      <trkpt lat="48.16379" lon="6.44044">
        <ele>370.4</ele>
        <time>2023-10-01T08:35:19Z</time>
      </trkpt>
      <trkpt lat="48.16381" lon="6.44041">
        <ele>370.4</ele>
        <time>2023-10-01T08:35:20Z</time>
      </trkpt>
      <trkpt lat="48.16384" lon="6.44037">
        <ele>370.4</ele>
        <time>2023-10-01T08:35:21Z</time>
      </trkpt>
      <trkpt lat="48.16386" lon="6.44033">
        <ele>370.4</ele>
        <time>2023-10-01T08:35:22Z</time>
      </trkpt>
      <trkpt lat="48.16389" lon="6.44029">
        <ele>370.4</ele>
        <time>2023-10-01T08:35:23Z</time>
      </trkpt>
      <trkpt lat="48.1639" lon="6.44026">
        <ele>370.4</ele>
        <time>2023-10-01T08:35:24Z</time>
      </trkpt>
      <trkpt lat="48.16392" lon="6.44023">
        <ele>370.4</ele>
        <time>2023-10-01T08:35:25Z</time>
      </trkpt>
      <trkpt lat="48.16393" lon="6.4402">
        <ele>370.4</ele>
        <time>2023-10-01T08:35:26Z</time>
      </trkpt>
      <trkpt lat="48.16395" lon="6.44018">
        <ele>370.4</ele>
        <time>2023-10-01T08:35:27Z</time>
      </trkpt>
      <trkpt lat="48.16397" lon="6.44015">
        <ele>370.6</ele>
        <time>2023-10-01T08:35:28Z</time>
      </trkpt>
      <trkpt lat="48.16397" lon="6.44012">
        <ele>370.6</ele>
        <time>2023-10-01T08:35:29Z</time>
      </trkpt>
      <trkpt lat="48.16398" lon="6.44009">
        <ele>370.6</ele>
        <time>2023-10-01T08:35:30Z</time>
      </trkpt>
      <trkpt lat="48.16398" lon="6.44006">
        <ele>370.8</ele>
        <time>2023-10-01T08:35:31Z</time>
      </trkpt>
      <trkpt lat="48.16399" lon="6.44004">
        <ele>371</ele>
        <time>2023-10-01T08:35:32Z</time>
      </trkpt>
      <trkpt lat="48.16399" lon="6.44002">
        <ele>371.2</ele>
        <time>2023-10-01T08:35:33Z</time>
      </trkpt>
      <trkpt lat="48.164" lon="6.44">
        <ele>371.4</ele>
        <time>2023-10-01T08:35:34Z</time>
      </trkpt>
      <trkpt lat="48.164" lon="6.43998">
        <ele>371.4</ele>
        <time>2023-10-01T08:35:35Z</time>
      </trkpt>
      <trkpt lat="48.164" lon="6.43992">
        <ele>371.6</ele>
        <time>2023-10-01T08:35:36Z</time>
      </trkpt>
      <trkpt lat="48.16401" lon="6.43987">
        <ele>371.6</ele>
        <time>2023-10-01T08:35:37Z</time>
      </trkpt>
      <trkpt lat="48.16401" lon="6.43982">
        <ele>371.6</ele>
        <time>2023-10-01T08:35:38Z</time>
      </trkpt>
      <trkpt lat="48.16401" lon="6.43974">
        <ele>371.6</ele>
        <time>2023-10-01T08:35:39Z</time>
      </trkpt>
      <trkpt lat="48.16401" lon="6.43968">
        <ele>371.8</ele>
        <time>2023-10-01T08:35:40Z</time>
      </trkpt>
      <trkpt lat="48.16401" lon="6.43963">
        <ele>371.8</ele>
        <time>2023-10-01T08:35:41Z</time>
      </trkpt>
      <trkpt lat="48.16401" lon="6.43959">
        <ele>371.8</ele>
        <time>2023-10-01T08:35:42Z</time>
      </trkpt>
      <trkpt lat="48.16401" lon="6.43956">
        <ele>371.8</ele>
        <time>2023-10-01T08:35:43Z</time>
      </trkpt>
      <trkpt lat="48.16402" lon="6.43953">
        <ele>372</ele>
        <time>2023-10-01T08:35:44Z</time>
      </trkpt>
      <trkpt lat="48.16403" lon="6.4395">
        <ele>372</ele>
        <time>2023-10-01T08:35:45Z</time>
      </trkpt>
      <trkpt lat="48.16403" lon="6.43946">
        <ele>372.2</ele>
        <time>2023-10-01T08:35:46Z</time>
      </trkpt>
      <trkpt lat="48.16403" lon="6.43942">
        <ele>372.4</ele>
        <time>2023-10-01T08:35:47Z</time>
      </trkpt>
      <trkpt lat="48.16403" lon="6.43937">
        <ele>372.4</ele>
        <time>2023-10-01T08:35:48Z</time>
      </trkpt>
      <trkpt lat="48.16404" lon="6.43935">
        <ele>372.8</ele>
        <time>2023-10-01T08:35:49Z</time>
      </trkpt>
      <trkpt lat="48.16404" lon="6.43934">
        <ele>372.8</ele>
        <time>2023-10-01T08:35:50Z</time>
      </trkpt>
      <trkpt lat="48.16404" lon="6.43933">
        <ele>373.2</ele>
        <time>2023-10-01T08:35:51Z</time>
      </trkpt>
      <trkpt lat="48.16404" lon="6.43931">
        <ele>373.4</ele>
        <time>2023-10-01T08:35:52Z</time>
      </trkpt>
      <trkpt lat="48.16401" lon="6.43926">
        <ele>373.6</ele>
        <time>2023-10-01T08:35:53Z</time>
      </trkpt>
      <trkpt lat="48.16398" lon="6.43921">
        <ele>373.8</ele>
        <time>2023-10-01T08:35:54Z</time>
      </trkpt>
      <trkpt lat="48.16396" lon="6.43918">
        <ele>374.2</ele>
        <time>2023-10-01T08:35:55Z</time>
      </trkpt>
      <trkpt lat="48.16397" lon="6.43917">
        <ele>374.2</ele>
        <time>2023-10-01T08:35:56Z</time>
      </trkpt>
      <trkpt lat="48.16397" lon="6.43916">
        <ele>374.4</ele>
        <time>2023-10-01T08:35:57Z</time>
      </trkpt>
      <trkpt lat="48.16397" lon="6.43913">
        <ele>374.6</ele>
        <time>2023-10-01T08:35:58Z</time>
      </trkpt>
      <trkpt lat="48.16397" lon="6.43911">
        <ele>374.8</ele>
        <time>2023-10-01T08:35:59Z</time>
      </trkpt>
      <trkpt lat="48.16396" lon="6.43906">
        <ele>374.8</ele>
        <time>2023-10-01T08:36:00Z</time>
      </trkpt>
      <trkpt lat="48.16395" lon="6.43903">
        <ele>375</ele>
        <time>2023-10-01T08:36:01Z</time>
      </trkpt>
      <trkpt lat="48.16394" lon="6.439">
        <ele>375</ele>
        <time>2023-10-01T08:36:02Z</time>
      </trkpt>
      <trkpt lat="48.16394" lon="6.439">
        <ele>375.2</ele>
        <time>2023-10-01T08:36:03Z</time>
      </trkpt>
      <trkpt lat="48.16393" lon="6.43898">
        <ele>375.6</ele>
        <time>2023-10-01T08:36:04Z</time>
      </trkpt>
      <trkpt lat="48.16393" lon="6.43898">
        <ele>375.8</ele>
        <time>2023-10-01T08:36:05Z</time>
      </trkpt>
      <trkpt lat="48.1639" lon="6.43895">
        <ele>376.4</ele>
        <time>2023-10-01T08:36:06Z</time>
      </trkpt>
      <trkpt lat="48.1639" lon="6.43892">
        <ele>376.4</ele>
        <time>2023-10-01T08:36:07Z</time>
      </trkpt>
      <trkpt lat="48.16388" lon="6.43886">
        <ele>376.8</ele>
        <time>2023-10-01T08:36:08Z</time>
      </trkpt>
      <trkpt lat="48.16385" lon="6.43882">
        <ele>376.8</ele>
        <time>2023-10-01T08:36:09Z</time>
      </trkpt>
      <trkpt lat="48.16385" lon="6.43881">
        <ele>377</ele>
        <time>2023-10-01T08:36:10Z</time>
      </trkpt>
      <trkpt lat="48.16383" lon="6.43879">
        <ele>377.2</ele>
        <time>2023-10-01T08:36:11Z</time>
      </trkpt>
      <trkpt lat="48.16382" lon="6.43879">
        <ele>377.2</ele>
        <time>2023-10-01T08:36:12Z</time>
      </trkpt>
      <trkpt lat="48.16382" lon="6.43878">
        <ele>377.4</ele>
        <time>2023-10-01T08:36:13Z</time>
      </trkpt>
      <trkpt lat="48.16382" lon="6.43877">
        <ele>378</ele>
        <time>2023-10-01T08:36:14Z</time>
      </trkpt>
      <trkpt lat="48.1638" lon="6.43874">
        <ele>378.2</ele>
        <time>2023-10-01T08:36:15Z</time>
      </trkpt>
      <trkpt lat="48.16377" lon="6.4387">
        <ele>378.6</ele>
        <time>2023-10-01T08:36:16Z</time>
      </trkpt>
      <trkpt lat="48.16375" lon="6.43868">
        <ele>379</ele>
        <time>2023-10-01T08:36:17Z</time>
      </trkpt>
      <trkpt lat="48.16373" lon="6.43866">
        <ele>379.4</ele>
        <time>2023-10-01T08:36:18Z</time>
      </trkpt>
      <trkpt lat="48.16373" lon="6.43865">
        <ele>379.6</ele>
        <time>2023-10-01T08:36:19Z</time>
      </trkpt>
      <trkpt lat="48.16372" lon="6.43864">
        <ele>380.2</ele>
        <time>2023-10-01T08:36:20Z</time>
      </trkpt>
      <trkpt lat="48.16371" lon="6.43862">
        <ele>380.6</ele>
        <time>2023-10-01T08:36:21Z</time>
      </trkpt>
      <trkpt lat="48.16371" lon="6.43862">
        <ele>381.2</ele>
        <time>2023-10-01T08:36:22Z</time>
      </trkpt>
      <trkpt lat="48.16371" lon="6.43861">
        <ele>381.8</ele>
        <time>2023-10-01T08:36:23Z</time>
      </trkpt>
      <trkpt lat="48.1637" lon="6.43859">
        <ele>381.8</ele>
        <time>2023-10-01T08:36:24Z</time>
      </trkpt>
      <trkpt lat="48.1637" lon="6.43859">
        <ele>382.4</ele>
        <time>2023-10-01T08:36:25Z</time>
      </trkpt>
      <trkpt lat="48.1637" lon="6.43859">
        <ele>382.6</ele>
        <time>2023-10-01T08:36:26Z</time>
      </trkpt>
      <trkpt lat="48.1637" lon="6.43859">
        <ele>383</ele>
        <time>2023-10-01T08:36:27Z</time>
      </trkpt>
      <trkpt lat="48.1637" lon="6.43859">
        <ele>383.2</ele>
        <time>2023-10-01T08:36:28Z</time>
      </trkpt>
      <trkpt lat="48.16369" lon="6.43858">
        <ele>383.4</ele>
        <time>2023-10-01T08:36:29Z</time>
      </trkpt>
      <trkpt lat="48.16368" lon="6.43856">
        <ele>383.4</ele>
        <time>2023-10-01T08:36:30Z</time>
      </trkpt>
      <trkpt lat="48.16367" lon="6.43854">
        <ele>384</ele>
        <time>2023-10-01T08:36:31Z</time>
      </trkpt>
      <trkpt lat="48.16367" lon="6.43854">
        <ele>384.2</ele>
        <time>2023-10-01T08:36:32Z</time>
      </trkpt>
      <trkpt lat="48.16367" lon="6.43854">
        <ele>384.6</ele>
        <time>2023-10-01T08:36:33Z</time>
      </trkpt>
      <trkpt lat="48.16367" lon="6.43854">
        <ele>384.8</ele>
        <time>2023-10-01T08:36:34Z</time>
      </trkpt>
      <trkpt lat="48.16366" lon="6.43852">
        <ele>385</ele>
        <time>2023-10-01T08:36:35Z</time>
      </trkpt>
      <trkpt lat="48.16366" lon="6.43852">
        <ele>385.2</ele>
        <time>2023-10-01T08:36:36Z</time>
      </trkpt>
      <trkpt lat="48.16366" lon="6.43852">
        <ele>385.4</ele>
        <time>2023-10-01T08:36:37Z</time>
      </trkpt>
      <trkpt lat="48.16365" lon="6.4385">
        <ele>385.4</ele>
        <time>2023-10-01T08:36:38Z</time>
      </trkpt>
      <trkpt lat="48.16363" lon="6.43847">
        <ele>386.2</ele>
        <time>2023-10-01T08:36:39Z</time>
      </trkpt>
      <trkpt lat="48.16362" lon="6.43844">
        <ele>386.4</ele>
        <time>2023-10-01T08:36:40Z</time>
      </trkpt>
      <trkpt lat="48.16359" lon="6.4384">
        <ele>386.6</ele>
        <time>2023-10-01T08:36:41Z</time>
      </trkpt>
      <trkpt lat="48.16359" lon="6.43839">
        <ele>386.8</ele>
        <time>2023-10-01T08:36:42Z</time>
      </trkpt>
      <trkpt lat="48.16359" lon="6.43839">
        <ele>387</ele>
        <time>2023-10-01T08:36:43Z</time>
      </trkpt>
      <trkpt lat="48.16358" lon="6.43834">
        <ele>387.4</ele>
        <time>2023-10-01T08:36:44Z</time>
      </trkpt>
      <trkpt lat="48.16358" lon="6.43834">
        <ele>387.6</ele>
        <time>2023-10-01T08:36:45Z</time>
      </trkpt>
      <trkpt lat="48.16357" lon="6.4383">
        <ele>388.2</ele>
        <time>2023-10-01T08:36:46Z</time>
      </trkpt>
      <trkpt lat="48.16357" lon="6.43825">
        <ele>388.4</ele>
        <time>2023-10-01T08:36:47Z</time>
      </trkpt>
      <trkpt lat="48.16357" lon="6.43825">
        <ele>388.6</ele>
        <time>2023-10-01T08:36:48Z</time>
      </trkpt>
      <trkpt lat="48.16355" lon="6.43821">
        <ele>388.6</ele>
        <time>2023-10-01T08:36:49Z</time>
      </trkpt>
      <trkpt lat="48.16352" lon="6.43814">
        <ele>389</ele>
        <time>2023-10-01T08:36:50Z</time>
      </trkpt>
      <trkpt lat="48.16348" lon="6.43809">
        <ele>389.2</ele>
        <time>2023-10-01T08:36:51Z</time>
      </trkpt>
      <trkpt lat="48.16346" lon="6.43805">
        <ele>389.6</ele>
        <time>2023-10-01T08:36:52Z</time>
      </trkpt>
      <trkpt lat="48.16344" lon="6.43803">
        <ele>389.8</ele>
        <time>2023-10-01T08:36:53Z</time>
      </trkpt>
      <trkpt lat="48.16342" lon="6.43801">
        <ele>390</ele>
        <time>2023-10-01T08:36:54Z</time>
      </trkpt>
      <trkpt lat="48.16341" lon="6.43798">
        <ele>390</ele>
        <time>2023-10-01T08:36:55Z</time>
      </trkpt>
      <trkpt lat="48.16339" lon="6.43795">
        <ele>390.2</ele>
        <time>2023-10-01T08:36:56Z</time>
      </trkpt>
      <trkpt lat="48.16338" lon="6.43792">
        <ele>390.4</ele>
        <time>2023-10-01T08:36:57Z</time>
      </trkpt>
      <trkpt lat="48.16339" lon="6.43791">
        <ele>390.6</ele>
        <time>2023-10-01T08:36:58Z</time>
      </trkpt>
      <trkpt lat="48.16338" lon="6.43789">
        <ele>390.8</ele>
        <time>2023-10-01T08:36:59Z</time>
      </trkpt>
      <trkpt lat="48.16337" lon="6.43786">
        <ele>391</ele>
        <time>2023-10-01T08:37:00Z</time>
      </trkpt>
      <trkpt lat="48.16336" lon="6.43786">
        <ele>391.2</ele>
        <time>2023-10-01T08:37:01Z</time>
      </trkpt>
      <trkpt lat="48.16336" lon="6.43786">
        <ele>391.2</ele>
        <time>2023-10-01T08:37:02Z</time>
      </trkpt>
      <trkpt lat="48.16335" lon="6.43784">
        <ele>391.6</ele>
        <time>2023-10-01T08:37:03Z</time>
      </trkpt>
      <trkpt lat="48.16335" lon="6.43783">
        <ele>391.6</ele>
        <time>2023-10-01T08:37:04Z</time>
      </trkpt>
      <trkpt lat="48.16334" lon="6.4378">
        <ele>391.8</ele>
        <time>2023-10-01T08:37:05Z</time>
      </trkpt>
      <trkpt lat="48.16332" lon="6.43778">
        <ele>392</ele>
        <time>2023-10-01T08:37:06Z</time>
      </trkpt>
      <trkpt lat="48.16332" lon="6.43778">
        <ele>392.4</ele>
        <time>2023-10-01T08:37:07Z</time>
      </trkpt>
      <trkpt lat="48.16329" lon="6.43774">
        <ele>392.4</ele>
        <time>2023-10-01T08:37:08Z</time>
      </trkpt>
      <trkpt lat="48.16329" lon="6.43774">
        <ele>392.6</ele>
        <time>2023-10-01T08:37:09Z</time>
      </trkpt>
      <trkpt lat="48.16328" lon="6.43773">
        <ele>393</ele>
        <time>2023-10-01T08:37:10Z</time>
      </trkpt>
      <trkpt lat="48.16327" lon="6.43771">
        <ele>393.4</ele>
        <time>2023-10-01T08:37:11Z</time>
      </trkpt>
      <trkpt lat="48.16327" lon="6.43769">
        <ele>393.4</ele>
        <time>2023-10-01T08:37:12Z</time>
      </trkpt>
      <trkpt lat="48.16327" lon="6.43769">
        <ele>393.8</ele>
        <time>2023-10-01T08:37:13Z</time>
      </trkpt>
      <trkpt lat="48.16327" lon="6.43769">
        <ele>393.8</ele>
        <time>2023-10-01T08:37:14Z</time>
      </trkpt>
      <trkpt lat="48.16326" lon="6.43767">
        <ele>394.2</ele>
        <time>2023-10-01T08:37:15Z</time>
      </trkpt>
      <trkpt lat="48.16325" lon="6.43765">
        <ele>394.2</ele>
        <time>2023-10-01T08:37:16Z</time>
      </trkpt>
      <trkpt lat="48.16325" lon="6.43765">
        <ele>394.4</ele>
        <time>2023-10-01T08:37:17Z</time>
      </trkpt>
      <trkpt lat="48.16325" lon="6.43765">
        <ele>394.8</ele>
        <time>2023-10-01T08:37:18Z</time>
      </trkpt>
      <trkpt lat="48.16325" lon="6.43765">
        <ele>395.4</ele>
        <time>2023-10-01T08:37:19Z</time>
      </trkpt>
      <trkpt lat="48.16325" lon="6.43765">
        <ele>395.6</ele>
        <time>2023-10-01T08:37:20Z</time>
      </trkpt>
      <trkpt lat="48.16323" lon="6.43762">
        <ele>395.8</ele>
        <time>2023-10-01T08:37:21Z</time>
      </trkpt>
      <trkpt lat="48.1632" lon="6.43759">
        <ele>396</ele>
        <time>2023-10-01T08:37:22Z</time>
      </trkpt>
      <trkpt lat="48.16317" lon="6.43755">
        <ele>396.2</ele>
        <time>2023-10-01T08:37:23Z</time>
      </trkpt>
      <trkpt lat="48.16317" lon="6.43753">
        <ele>396.4</ele>
        <time>2023-10-01T08:37:24Z</time>
      </trkpt>
      <trkpt lat="48.16317" lon="6.43751">
        <ele>396.6</ele>
        <time>2023-10-01T08:37:25Z</time>
      </trkpt>
      <trkpt lat="48.16315" lon="6.43749">
        <ele>397.2</ele>
        <time>2023-10-01T08:37:26Z</time>
      </trkpt>
      <trkpt lat="48.16314" lon="6.43747">
        <ele>397.4</ele>
        <time>2023-10-01T08:37:27Z</time>
      </trkpt>
      <trkpt lat="48.16314" lon="6.43745">
        <ele>397.6</ele>
        <time>2023-10-01T08:37:28Z</time>
      </trkpt>
      <trkpt lat="48.16313" lon="6.43742">
        <ele>397.6</ele>
        <time>2023-10-01T08:37:29Z</time>
      </trkpt>
      <trkpt lat="48.16312" lon="6.43739">
        <ele>398</ele>
        <time>2023-10-01T08:37:30Z</time>
      </trkpt>
      <trkpt lat="48.16311" lon="6.43737">
        <ele>398</ele>
        <time>2023-10-01T08:37:31Z</time>
      </trkpt>
      <trkpt lat="48.1631" lon="6.43734">
        <ele>398.4</ele>
        <time>2023-10-01T08:37:32Z</time>
      </trkpt>
      <trkpt lat="48.1631" lon="6.43733">
        <ele>398.8</ele>
        <time>2023-10-01T08:37:33Z</time>
      </trkpt>
      <trkpt lat="48.16309" lon="6.43732">
        <ele>399</ele>
        <time>2023-10-01T08:37:34Z</time>
      </trkpt>
      <trkpt lat="48.16307" lon="6.43728">
        <ele>399.2</ele>
        <time>2023-10-01T08:37:35Z</time>
      </trkpt>
      <trkpt lat="48.16304" lon="6.43724">
        <ele>399.6</ele>
        <time>2023-10-01T08:37:36Z</time>
      </trkpt>
      <trkpt lat="48.16303" lon="6.4372">
        <ele>399.6</ele>
        <time>2023-10-01T08:37:37Z</time>
      </trkpt>
      <trkpt lat="48.16303" lon="6.4372">
        <ele>399.8</ele>
        <time>2023-10-01T08:37:38Z</time>
      </trkpt>
      <trkpt lat="48.16303" lon="6.43719">
        <ele>400</ele>
        <time>2023-10-01T08:37:39Z</time>
      </trkpt>
      <trkpt lat="48.16304" lon="6.43717">
        <ele>400.2</ele>
        <time>2023-10-01T08:37:40Z</time>
      </trkpt>
      <trkpt lat="48.16304" lon="6.43715">
        <ele>400.4</ele>
        <time>2023-10-01T08:37:41Z</time>
      </trkpt>
      <trkpt lat="48.16303" lon="6.43712">
        <ele>400.4</ele>
        <time>2023-10-01T08:37:42Z</time>
      </trkpt>
      <trkpt lat="48.16301" lon="6.43709">
        <ele>400.8</ele>
        <time>2023-10-01T08:37:43Z</time>
      </trkpt>
      <trkpt lat="48.16301" lon="6.43709">
        <ele>400.8</ele>
        <time>2023-10-01T08:37:44Z</time>
      </trkpt>
      <trkpt lat="48.16301" lon="6.43708">
        <ele>401</ele>
        <time>2023-10-01T08:37:45Z</time>
      </trkpt>
      <trkpt lat="48.16301" lon="6.43707">
        <ele>401.2</ele>
        <time>2023-10-01T08:37:46Z</time>
      </trkpt>
      <trkpt lat="48.16301" lon="6.43706">
        <ele>401.4</ele>
        <time>2023-10-01T08:37:47Z</time>
      </trkpt>
      <trkpt lat="48.16301" lon="6.43704">
        <ele>401.4</ele>
        <time>2023-10-01T08:37:48Z</time>
      </trkpt>
      <trkpt lat="48.16302" lon="6.43701">
        <ele>401.6</ele>
        <time>2023-10-01T08:37:49Z</time>
      </trkpt>
      <trkpt lat="48.16299" lon="6.43698">
        <ele>401.8</ele>
        <time>2023-10-01T08:37:50Z</time>
      </trkpt>
      <trkpt lat="48.16298" lon="6.43696">
        <ele>402</ele>
        <time>2023-10-01T08:37:51Z</time>
      </trkpt>
      <trkpt lat="48.16297" lon="6.43693">
        <ele>402</ele>
        <time>2023-10-01T08:37:52Z</time>
      </trkpt>
      <trkpt lat="48.16297" lon="6.43688">
        <ele>402.2</ele>
        <time>2023-10-01T08:37:53Z</time>
      </trkpt>
      <trkpt lat="48.16296" lon="6.43684">
        <ele>402.2</ele>
        <time>2023-10-01T08:37:54Z</time>
      </trkpt>
      <trkpt lat="48.16294" lon="6.43681">
        <ele>402.4</ele>
        <time>2023-10-01T08:37:55Z</time>
      </trkpt>
      <trkpt lat="48.16291" lon="6.43675">
        <ele>402.6</ele>
        <time>2023-10-01T08:37:56Z</time>
      </trkpt>
      <trkpt lat="48.16291" lon="6.43672">
        <ele>402.8</ele>
        <time>2023-10-01T08:37:57Z</time>
      </trkpt>
      <trkpt lat="48.16291" lon="6.43668">
        <ele>403</ele>
        <time>2023-10-01T08:37:58Z</time>
      </trkpt>
      <trkpt lat="48.1629" lon="6.43662">
        <ele>403</ele>
        <time>2023-10-01T08:37:59Z</time>
      </trkpt>
      <trkpt lat="48.1629" lon="6.43658">
        <ele>403.2</ele>
        <time>2023-10-01T08:38:00Z</time>
      </trkpt>
      <trkpt lat="48.16291" lon="6.43655">
        <ele>403.2</ele>
        <time>2023-10-01T08:38:01Z</time>
      </trkpt>
      <trkpt lat="48.16292" lon="6.43652">
        <ele>403.2</ele>
        <time>2023-10-01T08:38:02Z</time>
      </trkpt>
      <trkpt lat="48.16292" lon="6.43646">
        <ele>403.2</ele>
        <time>2023-10-01T08:38:03Z</time>
      </trkpt>
      <trkpt lat="48.16293" lon="6.43642">
        <ele>403.2</ele>
        <time>2023-10-01T08:38:04Z</time>
      </trkpt>
      <trkpt lat="48.16292" lon="6.43637">
        <ele>403.2</ele>
        <time>2023-10-01T08:38:05Z</time>
      </trkpt>
      <trkpt lat="48.16291" lon="6.43628">
        <ele>403.2</ele>
        <time>2023-10-01T08:38:06Z</time>
      </trkpt>
      <trkpt lat="48.1629" lon="6.43621">
        <ele>403.2</ele>
        <time>2023-10-01T08:38:07Z</time>
      </trkpt>
      <trkpt lat="48.1629" lon="6.43613">
        <ele>403</ele>
        <time>2023-10-01T08:38:08Z</time>
      </trkpt>
      <trkpt lat="48.16287" lon="6.43604">
        <ele>402.6</ele>
        <time>2023-10-01T08:38:09Z</time>
      </trkpt>
      <trkpt lat="48.16283" lon="6.43595">
        <ele>402</ele>
        <time>2023-10-01T08:38:10Z</time>
      </trkpt>
      <trkpt lat="48.1628" lon="6.43587">
        <ele>402.2</ele>
        <time>2023-10-01T08:38:11Z</time>
      </trkpt>
      <trkpt lat="48.16277" lon="6.43578">
        <ele>401.6</ele>
        <time>2023-10-01T08:38:12Z</time>
      </trkpt>
      <trkpt lat="48.16275" lon="6.43569">
        <ele>401.6</ele>
        <time>2023-10-01T08:38:13Z</time>
      </trkpt>
      <trkpt lat="48.16276" lon="6.43562">
        <ele>401.6</ele>
        <time>2023-10-01T08:38:14Z</time>
      </trkpt>
      <trkpt lat="48.16276" lon="6.43555">
        <ele>401.4</ele>
        <time>2023-10-01T08:38:15Z</time>
      </trkpt>
      <trkpt lat="48.16276" lon="6.43548">
        <ele>401.4</ele>
        <time>2023-10-01T08:38:16Z</time>
      </trkpt>
      <trkpt lat="48.16276" lon="6.43542">
        <ele>401.6</ele>
        <time>2023-10-01T08:38:17Z</time>
      </trkpt>
      <trkpt lat="48.16275" lon="6.43536">
        <ele>401.6</ele>
        <time>2023-10-01T08:38:18Z</time>
      </trkpt>
      <trkpt lat="48.16273" lon="6.4353">
        <ele>402.2</ele>
        <time>2023-10-01T08:38:19Z</time>
      </trkpt>
      <trkpt lat="48.16274" lon="6.43525">
        <ele>402.4</ele>
        <time>2023-10-01T08:38:20Z</time>
      </trkpt>
      <trkpt lat="48.16275" lon="6.43521">
        <ele>402.8</ele>
        <time>2023-10-01T08:38:21Z</time>
      </trkpt>
      <trkpt lat="48.16276" lon="6.43518">
        <ele>403</ele>
        <time>2023-10-01T08:38:22Z</time>
      </trkpt>
      <trkpt lat="48.16275" lon="6.43514">
        <ele>403.8</ele>
        <time>2023-10-01T08:38:23Z</time>
      </trkpt>
      <trkpt lat="48.16274" lon="6.43511">
        <ele>404</ele>
        <time>2023-10-01T08:38:24Z</time>
      </trkpt>
      <trkpt lat="48.16275" lon="6.4351">
        <ele>404.4</ele>
        <time>2023-10-01T08:38:25Z</time>
      </trkpt>
      <trkpt lat="48.16276" lon="6.43507">
        <ele>404.8</ele>
        <time>2023-10-01T08:38:26Z</time>
      </trkpt>
      <trkpt lat="48.16277" lon="6.43504">
        <ele>405.6</ele>
        <time>2023-10-01T08:38:27Z</time>
      </trkpt>
      <trkpt lat="48.16277" lon="6.43502">
        <ele>406</ele>
        <time>2023-10-01T08:38:28Z</time>
      </trkpt>
      <trkpt lat="48.16277" lon="6.43499">
        <ele>406.8</ele>
        <time>2023-10-01T08:38:29Z</time>
      </trkpt>
      <trkpt lat="48.16278" lon="6.43497">
        <ele>407.2</ele>
        <time>2023-10-01T08:38:30Z</time>
      </trkpt>
      <trkpt lat="48.16278" lon="6.43493">
        <ele>407.8</ele>
        <time>2023-10-01T08:38:31Z</time>
      </trkpt>
      <trkpt lat="48.16279" lon="6.43491">
        <ele>407.8</ele>
        <time>2023-10-01T08:38:32Z</time>
      </trkpt>
      <trkpt lat="48.16281" lon="6.43489">
        <ele>408.2</ele>
        <time>2023-10-01T08:38:33Z</time>
      </trkpt>
      <trkpt lat="48.16281" lon="6.43486">
        <ele>408.4</ele>
        <time>2023-10-01T08:38:34Z</time>
      </trkpt>
      <trkpt lat="48.16282" lon="6.43484">
        <ele>408.6</ele>
        <time>2023-10-01T08:38:35Z</time>
      </trkpt>
      <trkpt lat="48.16284" lon="6.43483">
        <ele>409</ele>
        <time>2023-10-01T08:38:36Z</time>
      </trkpt>
      <trkpt lat="48.16284" lon="6.43481">
        <ele>409</ele>
        <time>2023-10-01T08:38:37Z</time>
      </trkpt>
      <trkpt lat="48.16283" lon="6.43476">
        <ele>409.2</ele>
        <time>2023-10-01T08:38:38Z</time>
      </trkpt>
      <trkpt lat="48.16282" lon="6.43471">
        <ele>409.2</ele>
        <time>2023-10-01T08:38:39Z</time>
      </trkpt>
      <trkpt lat="48.16281" lon="6.43466">
        <ele>409.2</ele>
        <time>2023-10-01T08:38:40Z</time>
      </trkpt>
      <trkpt lat="48.1628" lon="6.4346">
        <ele>409.2</ele>
        <time>2023-10-01T08:38:41Z</time>
      </trkpt>
      <trkpt lat="48.1628" lon="6.43454">
        <ele>409.2</ele>
        <time>2023-10-01T08:38:42Z</time>
      </trkpt>
      <trkpt lat="48.1628" lon="6.43449">
        <ele>409.2</ele>
        <time>2023-10-01T08:38:43Z</time>
      </trkpt>
      <trkpt lat="48.16281" lon="6.43442">
        <ele>409.2</ele>
        <time>2023-10-01T08:38:44Z</time>
      </trkpt>
      <trkpt lat="48.16282" lon="6.43433">
        <ele>409.2</ele>
        <time>2023-10-01T08:38:45Z</time>
      </trkpt>
      <trkpt lat="48.16284" lon="6.43425">
        <ele>409</ele>
        <time>2023-10-01T08:38:46Z</time>
      </trkpt>
      <trkpt lat="48.16285" lon="6.43416">
        <ele>408.8</ele>
        <time>2023-10-01T08:38:47Z</time>
      </trkpt>
      <trkpt lat="48.16285" lon="6.43409">
        <ele>408.4</ele>
        <time>2023-10-01T08:38:48Z</time>
      </trkpt>
      <trkpt lat="48.16285" lon="6.43402">
        <ele>408.4</ele>
        <time>2023-10-01T08:38:49Z</time>
      </trkpt>
      <trkpt lat="48.16284" lon="6.43396">
        <ele>407.8</ele>
        <time>2023-10-01T08:38:50Z</time>
      </trkpt>
      <trkpt lat="48.16283" lon="6.43392">
        <ele>407.8</ele>
        <time>2023-10-01T08:38:51Z</time>
      </trkpt>
      <trkpt lat="48.16283" lon="6.43389">
        <ele>407.8</ele>
        <time>2023-10-01T08:38:52Z</time>
      </trkpt>
      <trkpt lat="48.16282" lon="6.43387">
        <ele>407.8</ele>
        <time>2023-10-01T08:38:53Z</time>
      </trkpt>
      <trkpt lat="48.16282" lon="6.43383">
        <ele>408</ele>
        <time>2023-10-01T08:38:54Z</time>
      </trkpt>
      <trkpt lat="48.16281" lon="6.4338">
        <ele>408</ele>
        <time>2023-10-01T08:38:55Z</time>
      </trkpt>
      <trkpt lat="48.16281" lon="6.43377">
        <ele>408</ele>
        <time>2023-10-01T08:38:56Z</time>
      </trkpt>
      <trkpt lat="48.1628" lon="6.43375">
        <ele>408</ele>
        <time>2023-10-01T08:38:57Z</time>
      </trkpt>
      <trkpt lat="48.16276" lon="6.43369">
        <ele>408</ele>
        <time>2023-10-01T08:38:58Z</time>
      </trkpt>
      <trkpt lat="48.16275" lon="6.43366">
        <ele>408.6</ele>
        <time>2023-10-01T08:38:59Z</time>
      </trkpt>
      <trkpt lat="48.16272" lon="6.43362">
        <ele>408.8</ele>
        <time>2023-10-01T08:39:00Z</time>
      </trkpt>
      <trkpt lat="48.16271" lon="6.43358">
        <ele>409.2</ele>
        <time>2023-10-01T08:39:01Z</time>
      </trkpt>
      <trkpt lat="48.1627" lon="6.43356">
        <ele>409.4</ele>
        <time>2023-10-01T08:39:02Z</time>
      </trkpt>
      <trkpt lat="48.16268" lon="6.43353">
        <ele>410.2</ele>
        <time>2023-10-01T08:39:03Z</time>
      </trkpt>
      <trkpt lat="48.16268" lon="6.43352">
        <ele>410.4</ele>
        <time>2023-10-01T08:39:04Z</time>
      </trkpt>
      <trkpt lat="48.16266" lon="6.43351">
        <ele>411</ele>
        <time>2023-10-01T08:39:05Z</time>
      </trkpt>
      <trkpt lat="48.16264" lon="6.43348">
        <ele>411.2</ele>
        <time>2023-10-01T08:39:06Z</time>
      </trkpt>
      <trkpt lat="48.16262" lon="6.43346">
        <ele>411.6</ele>
        <time>2023-10-01T08:39:07Z</time>
      </trkpt>
      <trkpt lat="48.16259" lon="6.43342">
        <ele>411.8</ele>
        <time>2023-10-01T08:39:08Z</time>
      </trkpt>
      <trkpt lat="48.16257" lon="6.4334">
        <ele>412.2</ele>
        <time>2023-10-01T08:39:09Z</time>
      </trkpt>
      <trkpt lat="48.16256" lon="6.43339">
        <ele>412.2</ele>
        <time>2023-10-01T08:39:10Z</time>
      </trkpt>
      <trkpt lat="48.16256" lon="6.43337">
        <ele>412.8</ele>
        <time>2023-10-01T08:39:11Z</time>
      </trkpt>
      <trkpt lat="48.16255" lon="6.43336">
        <ele>413</ele>
        <time>2023-10-01T08:39:12Z</time>
      </trkpt>
      <trkpt lat="48.16255" lon="6.43336">
        <ele>413.2</ele>
        <time>2023-10-01T08:39:13Z</time>
      </trkpt>
      <trkpt lat="48.16254" lon="6.43336">
        <ele>413.2</ele>
        <time>2023-10-01T08:39:14Z</time>
      </trkpt>
      <trkpt lat="48.16254" lon="6.43336">
        <ele>413.8</ele>
        <time>2023-10-01T08:39:15Z</time>
      </trkpt>
      <trkpt lat="48.16254" lon="6.43336">
        <ele>414.2</ele>
        <time>2023-10-01T08:39:16Z</time>
      </trkpt>
      <trkpt lat="48.16253" lon="6.43331">
        <ele>414.4</ele>
        <time>2023-10-01T08:39:17Z</time>
      </trkpt>
      <trkpt lat="48.1625" lon="6.43329">
        <ele>415</ele>
        <time>2023-10-01T08:39:18Z</time>
      </trkpt>
      <trkpt lat="48.16249" lon="6.43328">
        <ele>415.2</ele>
        <time>2023-10-01T08:39:19Z</time>
      </trkpt>
      <trkpt lat="48.16248" lon="6.43327">
        <ele>415.4</ele>
        <time>2023-10-01T08:39:20Z</time>
      </trkpt>
      <trkpt lat="48.16247" lon="6.43326">
        <ele>415.4</ele>
        <time>2023-10-01T08:39:21Z</time>
      </trkpt>
      <trkpt lat="48.16245" lon="6.43324">
        <ele>415.8</ele>
        <time>2023-10-01T08:39:22Z</time>
      </trkpt>
      <trkpt lat="48.16243" lon="6.43322">
        <ele>416</ele>
        <time>2023-10-01T08:39:23Z</time>
      </trkpt>
      <trkpt lat="48.16241" lon="6.4332">
        <ele>416.4</ele>
        <time>2023-10-01T08:39:24Z</time>
      </trkpt>
      <trkpt lat="48.16241" lon="6.43319">
        <ele>416.6</ele>
        <time>2023-10-01T08:39:25Z</time>
      </trkpt>
      <trkpt lat="48.1624" lon="6.43317">
        <ele>417.2</ele>
        <time>2023-10-01T08:39:26Z</time>
      </trkpt>
      <trkpt lat="48.16238" lon="6.43316">
        <ele>417.4</ele>
        <time>2023-10-01T08:39:27Z</time>
      </trkpt>
      <trkpt lat="48.16238" lon="6.43316">
        <ele>417.8</ele>
        <time>2023-10-01T08:39:28Z</time>
      </trkpt>
      <trkpt lat="48.16236" lon="6.43314">
        <ele>418</ele>
        <time>2023-10-01T08:39:29Z</time>
      </trkpt>
      <trkpt lat="48.16235" lon="6.43313">
        <ele>418.6</ele>
        <time>2023-10-01T08:39:30Z</time>
      </trkpt>
      <trkpt lat="48.16234" lon="6.43312">
        <ele>418.8</ele>
        <time>2023-10-01T08:39:31Z</time>
      </trkpt>
      <trkpt lat="48.16233" lon="6.43311">
        <ele>419</ele>
        <time>2023-10-01T08:39:32Z</time>
      </trkpt>
      <trkpt lat="48.16233" lon="6.4331">
        <ele>419</ele>
        <time>2023-10-01T08:39:33Z</time>
      </trkpt>
      <trkpt lat="48.16233" lon="6.4331">
        <ele>419.2</ele>
        <time>2023-10-01T08:39:34Z</time>
      </trkpt>
      <trkpt lat="48.16233" lon="6.43309">
        <ele>419.8</ele>
        <time>2023-10-01T08:39:35Z</time>
      </trkpt>
      <trkpt lat="48.16234" lon="6.43309">
        <ele>420</ele>
        <time>2023-10-01T08:39:36Z</time>
      </trkpt>
      <trkpt lat="48.16235" lon="6.4331">
        <ele>420.4</ele>
        <time>2023-10-01T08:39:37Z</time>
      </trkpt>
      <trkpt lat="48.16236" lon="6.4331">
        <ele>420.4</ele>
        <time>2023-10-01T08:39:38Z</time>
      </trkpt>
      <trkpt lat="48.16239" lon="6.43311">
        <ele>420.8</ele>
        <time>2023-10-01T08:39:39Z</time>
      </trkpt>
      <trkpt lat="48.16241" lon="6.43311">
        <ele>420.8</ele>
        <time>2023-10-01T08:39:40Z</time>
      </trkpt>
      <trkpt lat="48.16245" lon="6.43313">
        <ele>421</ele>
        <time>2023-10-01T08:39:41Z</time>
      </trkpt>
      <trkpt lat="48.16248" lon="6.43315">
        <ele>421.2</ele>
        <time>2023-10-01T08:39:42Z</time>
      </trkpt>
      <trkpt lat="48.1625" lon="6.43316">
        <ele>421.2</ele>
        <time>2023-10-01T08:39:43Z</time>
      </trkpt>
      <trkpt lat="48.16254" lon="6.43318">
        <ele>421.2</ele>
        <time>2023-10-01T08:39:44Z</time>
      </trkpt>
      <trkpt lat="48.16259" lon="6.43321">
        <ele>421.2</ele>
        <time>2023-10-01T08:39:45Z</time>
      </trkpt>
      <trkpt lat="48.16265" lon="6.43323">
        <ele>420.6</ele>
        <time>2023-10-01T08:39:46Z</time>
      </trkpt>
      <trkpt lat="48.1627" lon="6.43326">
        <ele>419.8</ele>
        <time>2023-10-01T08:39:47Z</time>
      </trkpt>
      <trkpt lat="48.16275" lon="6.43329">
        <ele>419.6</ele>
        <time>2023-10-01T08:39:48Z</time>
      </trkpt>
      <trkpt lat="48.1628" lon="6.43331">
        <ele>419</ele>
        <time>2023-10-01T08:39:49Z</time>
      </trkpt>
      <trkpt lat="48.16284" lon="6.43333">
        <ele>418.8</ele>
        <time>2023-10-01T08:39:50Z</time>
      </trkpt>
      <trkpt lat="48.16289" lon="6.43334">
        <ele>418.6</ele>
        <time>2023-10-01T08:39:51Z</time>
      </trkpt>
      <trkpt lat="48.16293" lon="6.43336">
        <ele>418.6</ele>
        <time>2023-10-01T08:39:52Z</time>
      </trkpt>
      <trkpt lat="48.16297" lon="6.43338">
        <ele>418.4</ele>
        <time>2023-10-01T08:39:53Z</time>
      </trkpt>
      <trkpt lat="48.16302" lon="6.4334">
        <ele>418.4</ele>
        <time>2023-10-01T08:39:54Z</time>
      </trkpt>
      <trkpt lat="48.16306" lon="6.43343">
        <ele>418.4</ele>
        <time>2023-10-01T08:39:55Z</time>
      </trkpt>
      <trkpt lat="48.1631" lon="6.43344">
        <ele>418.4</ele>
        <time>2023-10-01T08:39:56Z</time>
      </trkpt>
      <trkpt lat="48.16313" lon="6.43345">
        <ele>418.4</ele>
        <time>2023-10-01T08:39:57Z</time>
      </trkpt>
      <trkpt lat="48.16318" lon="6.43347">
        <ele>418.4</ele>
        <time>2023-10-01T08:39:58Z</time>
      </trkpt>
      <trkpt lat="48.16321" lon="6.43347">
        <ele>418.4</ele>
        <time>2023-10-01T08:39:59Z</time>
      </trkpt>
      <trkpt lat="48.16324" lon="6.43348">
        <ele>418.6</ele>
        <time>2023-10-01T08:40:00Z</time>
      </trkpt>
      <trkpt lat="48.16328" lon="6.43349">
        <ele>418.6</ele>
        <time>2023-10-01T08:40:01Z</time>
      </trkpt>
      <trkpt lat="48.1633" lon="6.4335">
        <ele>419</ele>
        <time>2023-10-01T08:40:02Z</time>
      </trkpt>
      <trkpt lat="48.16333" lon="6.43352">
        <ele>419.2</ele>
        <time>2023-10-01T08:40:03Z</time>
      </trkpt>
      <trkpt lat="48.16337" lon="6.43353">
        <ele>419.4</ele>
        <time>2023-10-01T08:40:04Z</time>
      </trkpt>
      <trkpt lat="48.16341" lon="6.43355">
        <ele>419.6</ele>
        <time>2023-10-01T08:40:05Z</time>
      </trkpt>
      <trkpt lat="48.16343" lon="6.43357">
        <ele>420</ele>
        <time>2023-10-01T08:40:06Z</time>
      </trkpt>
      <trkpt lat="48.16347" lon="6.43358">
        <ele>420.2</ele>
        <time>2023-10-01T08:40:07Z</time>
      </trkpt>
      <trkpt lat="48.16351" lon="6.4336">
        <ele>420.6</ele>
        <time>2023-10-01T08:40:08Z</time>
      </trkpt>
      <trkpt lat="48.16353" lon="6.43362">
        <ele>421</ele>
        <time>2023-10-01T08:40:09Z</time>
      </trkpt>
      <trkpt lat="48.16356" lon="6.43364">
        <ele>421.4</ele>
        <time>2023-10-01T08:40:10Z</time>
      </trkpt>
      <trkpt lat="48.16359" lon="6.43366">
        <ele>421.8</ele>
        <time>2023-10-01T08:40:11Z</time>
      </trkpt>
      <trkpt lat="48.16363" lon="6.43367">
        <ele>422</ele>
        <time>2023-10-01T08:40:12Z</time>
      </trkpt>
      <trkpt lat="48.16366" lon="6.43368">
        <ele>422.2</ele>
        <time>2023-10-01T08:40:13Z</time>
      </trkpt>
      <trkpt lat="48.16369" lon="6.4337">
        <ele>422.4</ele>
        <time>2023-10-01T08:40:14Z</time>
      </trkpt>
      <trkpt lat="48.16372" lon="6.43373">
        <ele>422.6</ele>
        <time>2023-10-01T08:40:15Z</time>
      </trkpt>
      <trkpt lat="48.16375" lon="6.43375">
        <ele>422.6</ele>
        <time>2023-10-01T08:40:16Z</time>
      </trkpt>
      <trkpt lat="48.16378" lon="6.43377">
        <ele>422.8</ele>
        <time>2023-10-01T08:40:17Z</time>
      </trkpt>
      <trkpt lat="48.16381" lon="6.43378">
        <ele>422.8</ele>
        <time>2023-10-01T08:40:18Z</time>
      </trkpt>
      <trkpt lat="48.16384" lon="6.43379">
        <ele>423</ele>
        <time>2023-10-01T08:40:19Z</time>
      </trkpt>
      <trkpt lat="48.16386" lon="6.43381">
        <ele>423.2</ele>
        <time>2023-10-01T08:40:20Z</time>
      </trkpt>
      <trkpt lat="48.16389" lon="6.43383">
        <ele>423.6</ele>
        <time>2023-10-01T08:40:21Z</time>
      </trkpt>
      <trkpt lat="48.16391" lon="6.43385">
        <ele>423.6</ele>
        <time>2023-10-01T08:40:22Z</time>
      </trkpt>
      <trkpt lat="48.16394" lon="6.43386">
        <ele>423.8</ele>
        <time>2023-10-01T08:40:23Z</time>
      </trkpt>
      <trkpt lat="48.16397" lon="6.43388">
        <ele>424</ele>
        <time>2023-10-01T08:40:24Z</time>
      </trkpt>
      <trkpt lat="48.164" lon="6.43391">
        <ele>424</ele>
        <time>2023-10-01T08:40:25Z</time>
      </trkpt>
      <trkpt lat="48.16403" lon="6.43394">
        <ele>424.2</ele>
        <time>2023-10-01T08:40:26Z</time>
      </trkpt>
      <trkpt lat="48.16405" lon="6.43396">
        <ele>424.2</ele>
        <time>2023-10-01T08:40:27Z</time>
      </trkpt>
      <trkpt lat="48.16407" lon="6.43398">
        <ele>424.2</ele>
        <time>2023-10-01T08:40:28Z</time>
      </trkpt>
      <trkpt lat="48.1641" lon="6.43401">
        <ele>424.4</ele>
        <time>2023-10-01T08:40:29Z</time>
      </trkpt>
      <trkpt lat="48.16412" lon="6.43404">
        <ele>424.4</ele>
        <time>2023-10-01T08:40:30Z</time>
      </trkpt>
      <trkpt lat="48.16416" lon="6.43407">
        <ele>424.6</ele>
        <time>2023-10-01T08:40:31Z</time>
      </trkpt>
      <trkpt lat="48.1642" lon="6.4341">
        <ele>424.6</ele>
        <time>2023-10-01T08:40:32Z</time>
      </trkpt>
      <trkpt lat="48.16423" lon="6.43413">
        <ele>424.6</ele>
        <time>2023-10-01T08:40:33Z</time>
      </trkpt>
      <trkpt lat="48.16426" lon="6.43416">
        <ele>424.8</ele>
        <time>2023-10-01T08:40:34Z</time>
      </trkpt>
      <trkpt lat="48.1643" lon="6.43419">
        <ele>424.8</ele>
        <time>2023-10-01T08:40:35Z</time>
      </trkpt>
      <trkpt lat="48.16433" lon="6.43422">
        <ele>424.8</ele>
        <time>2023-10-01T08:40:36Z</time>
      </trkpt>
      <trkpt lat="48.16436" lon="6.43424">
        <ele>424.8</ele>
        <time>2023-10-01T08:40:37Z</time>
      </trkpt>
      <trkpt lat="48.16439" lon="6.43427">
        <ele>424.8</ele>
        <time>2023-10-01T08:40:38Z</time>
      </trkpt>
      <trkpt lat="48.16445" lon="6.43431">
        <ele>425</ele>
        <time>2023-10-01T08:40:39Z</time>
      </trkpt>
      <trkpt lat="48.16449" lon="6.43434">
        <ele>425</ele>
        <time>2023-10-01T08:40:40Z</time>
      </trkpt>
      <trkpt lat="48.16454" lon="6.43437">
        <ele>425</ele>
        <time>2023-10-01T08:40:41Z</time>
      </trkpt>
      <trkpt lat="48.16458" lon="6.4344">
        <ele>425</ele>
        <time>2023-10-01T08:40:42Z</time>
      </trkpt>
      <trkpt lat="48.16461" lon="6.43443">
        <ele>425</ele>
        <time>2023-10-01T08:40:43Z</time>
      </trkpt>
      <trkpt lat="48.16467" lon="6.43447">
        <ele>425</ele>
        <time>2023-10-01T08:40:44Z</time>
      </trkpt>
      <trkpt lat="48.16471" lon="6.43451">
        <ele>424.8</ele>
        <time>2023-10-01T08:40:45Z</time>
      </trkpt>
      <trkpt lat="48.16476" lon="6.43455">
        <ele>424.8</ele>
        <time>2023-10-01T08:40:46Z</time>
      </trkpt>
      <trkpt lat="48.1648" lon="6.43459">
        <ele>424.8</ele>
        <time>2023-10-01T08:40:47Z</time>
      </trkpt>
      <trkpt lat="48.16484" lon="6.43461">
        <ele>424.8</ele>
        <time>2023-10-01T08:40:48Z</time>
      </trkpt>
      <trkpt lat="48.1649" lon="6.43466">
        <ele>424.6</ele>
        <time>2023-10-01T08:40:49Z</time>
      </trkpt>
      <trkpt lat="48.16494" lon="6.4347">
        <ele>424.6</ele>
        <time>2023-10-01T08:40:50Z</time>
      </trkpt>
      <trkpt lat="48.16499" lon="6.43475">
        <ele>424.4</ele>
        <time>2023-10-01T08:40:51Z</time>
      </trkpt>
      <trkpt lat="48.16502" lon="6.43479">
        <ele>424.2</ele>
        <time>2023-10-01T08:40:52Z</time>
      </trkpt>
      <trkpt lat="48.16506" lon="6.43485">
        <ele>424.2</ele>
        <time>2023-10-01T08:40:53Z</time>
      </trkpt>
      <trkpt lat="48.16511" lon="6.43492">
        <ele>424</ele>
        <time>2023-10-01T08:40:54Z</time>
      </trkpt>
      <trkpt lat="48.16515" lon="6.43498">
        <ele>424</ele>
        <time>2023-10-01T08:40:55Z</time>
      </trkpt>
      <trkpt lat="48.16518" lon="6.43504">
        <ele>423.8</ele>
        <time>2023-10-01T08:40:56Z</time>
      </trkpt>
      <trkpt lat="48.16521" lon="6.43509">
        <ele>423.6</ele>
        <time>2023-10-01T08:40:57Z</time>
      </trkpt>
      <trkpt lat="48.16526" lon="6.43517">
        <ele>423.4</ele>
        <time>2023-10-01T08:40:58Z</time>
      </trkpt>
      <trkpt lat="48.16529" lon="6.43525">
        <ele>423.4</ele>
        <time>2023-10-01T08:40:59Z</time>
      </trkpt>
      <trkpt lat="48.16532" lon="6.43533">
        <ele>423</ele>
        <time>2023-10-01T08:41:00Z</time>
      </trkpt>
      <trkpt lat="48.16535" lon="6.43541">
        <ele>422.8</ele>
        <time>2023-10-01T08:41:01Z</time>
      </trkpt>
      <trkpt lat="48.16537" lon="6.43547">
        <ele>422.8</ele>
        <time>2023-10-01T08:41:02Z</time>
      </trkpt>
      <trkpt lat="48.16539" lon="6.43555">
        <ele>422.8</ele>
        <time>2023-10-01T08:41:03Z</time>
      </trkpt>
      <trkpt lat="48.16541" lon="6.43562">
        <ele>422.8</ele>
        <time>2023-10-01T08:41:04Z</time>
      </trkpt>
      <trkpt lat="48.16542" lon="6.43569">
        <ele>422.6</ele>
        <time>2023-10-01T08:41:05Z</time>
      </trkpt>
      <trkpt lat="48.16543" lon="6.43574">
        <ele>422.6</ele>
        <time>2023-10-01T08:41:06Z</time>
      </trkpt>
      <trkpt lat="48.16544" lon="6.43582">
        <ele>422.6</ele>
        <time>2023-10-01T08:41:07Z</time>
      </trkpt>
      <trkpt lat="48.16545" lon="6.43587">
        <ele>422.6</ele>
        <time>2023-10-01T08:41:08Z</time>
      </trkpt>
      <trkpt lat="48.16547" lon="6.43594">
        <ele>422.6</ele>
        <time>2023-10-01T08:41:09Z</time>
      </trkpt>
      <trkpt lat="48.16548" lon="6.436">
        <ele>422.6</ele>
        <time>2023-10-01T08:41:10Z</time>
      </trkpt>
      <trkpt lat="48.16549" lon="6.43606">
        <ele>422.6</ele>
        <time>2023-10-01T08:41:11Z</time>
      </trkpt>
      <trkpt lat="48.1655" lon="6.43613">
        <ele>422.6</ele>
        <time>2023-10-01T08:41:12Z</time>
      </trkpt>
      <trkpt lat="48.16552" lon="6.43619">
        <ele>422.6</ele>
        <time>2023-10-01T08:41:13Z</time>
      </trkpt>
      <trkpt lat="48.16554" lon="6.43625">
        <ele>422.8</ele>
        <time>2023-10-01T08:41:14Z</time>
      </trkpt>
      <trkpt lat="48.16555" lon="6.4363">
        <ele>422.8</ele>
        <time>2023-10-01T08:41:15Z</time>
      </trkpt>
      <trkpt lat="48.16557" lon="6.43635">
        <ele>422.8</ele>
        <time>2023-10-01T08:41:16Z</time>
      </trkpt>
      <trkpt lat="48.16558" lon="6.43643">
        <ele>423</ele>
        <time>2023-10-01T08:41:17Z</time>
      </trkpt>
      <trkpt lat="48.1656" lon="6.43649">
        <ele>423</ele>
        <time>2023-10-01T08:41:18Z</time>
      </trkpt>
      <trkpt lat="48.16561" lon="6.43656">
        <ele>423.2</ele>
        <time>2023-10-01T08:41:19Z</time>
      </trkpt>
      <trkpt lat="48.16562" lon="6.43662">
        <ele>423.2</ele>
        <time>2023-10-01T08:41:20Z</time>
      </trkpt>
      <trkpt lat="48.16564" lon="6.43667">
        <ele>423.4</ele>
        <time>2023-10-01T08:41:21Z</time>
      </trkpt>
      <trkpt lat="48.16566" lon="6.43673">
        <ele>423.6</ele>
        <time>2023-10-01T08:41:22Z</time>
      </trkpt>
      <trkpt lat="48.16568" lon="6.43681">
        <ele>423.6</ele>
        <time>2023-10-01T08:41:23Z</time>
      </trkpt>
      <trkpt lat="48.16569" lon="6.43686">
        <ele>423.8</ele>
        <time>2023-10-01T08:41:24Z</time>
      </trkpt>
      <trkpt lat="48.1657" lon="6.43693">
        <ele>424</ele>
        <time>2023-10-01T08:41:25Z</time>
      </trkpt>
      <trkpt lat="48.16572" lon="6.437">
        <ele>424</ele>
        <time>2023-10-01T08:41:26Z</time>
      </trkpt>
      <trkpt lat="48.16575" lon="6.43706">
        <ele>424</ele>
        <time>2023-10-01T08:41:27Z</time>
      </trkpt>
      <trkpt lat="48.16576" lon="6.43712">
        <ele>424</ele>
        <time>2023-10-01T08:41:28Z</time>
      </trkpt>
      <trkpt lat="48.16577" lon="6.43717">
        <ele>424</ele>
        <time>2023-10-01T08:41:29Z</time>
      </trkpt>
      <trkpt lat="48.16578" lon="6.43723">
        <ele>423.8</ele>
        <time>2023-10-01T08:41:30Z</time>
      </trkpt>
      <trkpt lat="48.16578" lon="6.4373">
        <ele>423.6</ele>
        <time>2023-10-01T08:41:31Z</time>
      </trkpt>
      <trkpt lat="48.16579" lon="6.43736">
        <ele>423.6</ele>
        <time>2023-10-01T08:41:32Z</time>
      </trkpt>
      <trkpt lat="48.1658" lon="6.43744">
        <ele>423.6</ele>
        <time>2023-10-01T08:41:33Z</time>
      </trkpt>
      <trkpt lat="48.16581" lon="6.43749">
        <ele>423.6</ele>
        <time>2023-10-01T08:41:34Z</time>
      </trkpt>
      <trkpt lat="48.16583" lon="6.43756">
        <ele>423.8</ele>
        <time>2023-10-01T08:41:35Z</time>
      </trkpt>
      <trkpt lat="48.16585" lon="6.43764">
        <ele>424</ele>
        <time>2023-10-01T08:41:36Z</time>
      </trkpt>
      <trkpt lat="48.16586" lon="6.43769">
        <ele>423.8</ele>
        <time>2023-10-01T08:41:37Z</time>
      </trkpt>
      <trkpt lat="48.16587" lon="6.43776">
        <ele>423.8</ele>
        <time>2023-10-01T08:41:38Z</time>
      </trkpt>
      <trkpt lat="48.16588" lon="6.43782">
        <ele>424</ele>
        <time>2023-10-01T08:41:39Z</time>
      </trkpt>
      <trkpt lat="48.1659" lon="6.43787">
        <ele>424.2</ele>
        <time>2023-10-01T08:41:40Z</time>
      </trkpt>
      <trkpt lat="48.16592" lon="6.43792">
        <ele>424.2</ele>
        <time>2023-10-01T08:41:41Z</time>
      </trkpt>
      <trkpt lat="48.16594" lon="6.43795">
        <ele>424.2</ele>
        <time>2023-10-01T08:41:42Z</time>
      </trkpt>
      <trkpt lat="48.16595" lon="6.43795">
        <ele>424.4</ele>
        <time>2023-10-01T08:41:43Z</time>
      </trkpt>
      <trkpt lat="48.16597" lon="6.43795">
        <ele>424.4</ele>
        <time>2023-10-01T08:41:44Z</time>
      </trkpt>
      <trkpt lat="48.16599" lon="6.43795">
        <ele>424.4</ele>
        <time>2023-10-01T08:41:45Z</time>
      </trkpt>
      <trkpt lat="48.166" lon="6.43797">
        <ele>424.6</ele>
        <time>2023-10-01T08:41:46Z</time>
      </trkpt>
      <trkpt lat="48.16602" lon="6.43799">
        <ele>424.4</ele>
        <time>2023-10-01T08:41:47Z</time>
      </trkpt>
      <trkpt lat="48.16605" lon="6.43803">
        <ele>424.4</ele>
        <time>2023-10-01T08:41:48Z</time>
      </trkpt>
      <trkpt lat="48.16608" lon="6.43808">
        <ele>424.2</ele>
        <time>2023-10-01T08:41:49Z</time>
      </trkpt>
      <trkpt lat="48.16611" lon="6.43814">
        <ele>424.2</ele>
        <time>2023-10-01T08:41:50Z</time>
      </trkpt>
      <trkpt lat="48.16613" lon="6.43818">
        <ele>424.2</ele>
        <time>2023-10-01T08:41:51Z</time>
      </trkpt>
      <trkpt lat="48.16616" lon="6.43822">
        <ele>424.2</ele>
        <time>2023-10-01T08:41:52Z</time>
      </trkpt>
      <trkpt lat="48.16619" lon="6.43825">
        <ele>424.2</ele>
        <time>2023-10-01T08:41:53Z</time>
      </trkpt>
      <trkpt lat="48.16623" lon="6.43829">
        <ele>423.8</ele>
        <time>2023-10-01T08:41:54Z</time>
      </trkpt>
      <trkpt lat="48.16627" lon="6.43833">
        <ele>423.6</ele>
        <time>2023-10-01T08:41:55Z</time>
      </trkpt>
      <trkpt lat="48.16629" lon="6.43839">
        <ele>423</ele>
        <time>2023-10-01T08:41:56Z</time>
      </trkpt>
      <trkpt lat="48.16632" lon="6.43843">
        <ele>422.8</ele>
        <time>2023-10-01T08:41:57Z</time>
      </trkpt>
      <trkpt lat="48.16635" lon="6.43848">
        <ele>422.6</ele>
        <time>2023-10-01T08:41:58Z</time>
      </trkpt>
      <trkpt lat="48.16641" lon="6.43854">
        <ele>422.6</ele>
        <time>2023-10-01T08:41:59Z</time>
      </trkpt>
      <trkpt lat="48.16645" lon="6.43859">
        <ele>422.6</ele>
        <time>2023-10-01T08:42:00Z</time>
      </trkpt>
      <trkpt lat="48.16648" lon="6.43865">
        <ele>422.4</ele>
        <time>2023-10-01T08:42:01Z</time>
      </trkpt>
      <trkpt lat="48.16651" lon="6.43872">
        <ele>422.4</ele>
        <time>2023-10-01T08:42:02Z</time>
      </trkpt>
      <trkpt lat="48.16654" lon="6.4388">
        <ele>421.8</ele>
        <time>2023-10-01T08:42:03Z</time>
      </trkpt>
      <trkpt lat="48.16656" lon="6.43885">
        <ele>421.8</ele>
        <time>2023-10-01T08:42:04Z</time>
      </trkpt>
      <trkpt lat="48.1666" lon="6.43889">
        <ele>421.4</ele>
        <time>2023-10-01T08:42:05Z</time>
      </trkpt>
      <trkpt lat="48.16663" lon="6.43889">
        <ele>421.4</ele>
        <time>2023-10-01T08:42:06Z</time>
      </trkpt>
      <trkpt lat="48.16666" lon="6.43889">
        <ele>421</ele>
        <time>2023-10-01T08:42:07Z</time>
      </trkpt>
      <trkpt lat="48.16671" lon="6.4389">
        <ele>420.6</ele>
        <time>2023-10-01T08:42:08Z</time>
      </trkpt>
      <trkpt lat="48.16677" lon="6.43893">
        <ele>420.2</ele>
        <time>2023-10-01T08:42:09Z</time>
      </trkpt>
      <trkpt lat="48.16681" lon="6.43897">
        <ele>419.8</ele>
        <time>2023-10-01T08:42:10Z</time>
      </trkpt>
      <trkpt lat="48.16684" lon="6.43903">
        <ele>419.2</ele>
        <time>2023-10-01T08:42:11Z</time>
      </trkpt>
      <trkpt lat="48.16687" lon="6.4391">
        <ele>419</ele>
        <time>2023-10-01T08:42:12Z</time>
      </trkpt>
      <trkpt lat="48.16691" lon="6.43917">
        <ele>417.8</ele>
        <time>2023-10-01T08:42:13Z</time>
      </trkpt>
      <trkpt lat="48.16694" lon="6.43922">
        <ele>417.6</ele>
        <time>2023-10-01T08:42:14Z</time>
      </trkpt>
      <trkpt lat="48.16698" lon="6.4393">
        <ele>417</ele>
        <time>2023-10-01T08:42:15Z</time>
      </trkpt>
      <trkpt lat="48.16702" lon="6.43938">
        <ele>416.6</ele>
        <time>2023-10-01T08:42:16Z</time>
      </trkpt>
      <trkpt lat="48.16704" lon="6.43944">
        <ele>416.6</ele>
        <time>2023-10-01T08:42:17Z</time>
      </trkpt>
      <trkpt lat="48.16708" lon="6.4395">
        <ele>415.4</ele>
        <time>2023-10-01T08:42:18Z</time>
      </trkpt>
      <trkpt lat="48.16711" lon="6.43953">
        <ele>414.6</ele>
        <time>2023-10-01T08:42:19Z</time>
      </trkpt>
      <trkpt lat="48.16723" lon="6.43928">
        <ele>408.6</ele>
        <time>2023-10-01T08:44:40Z</time>
      </trkpt>
      <trkpt lat="48.16723" lon="6.43923">
        <ele>408.8</ele>
        <time>2023-10-01T08:44:41Z</time>
      </trkpt>
      <trkpt lat="48.16723" lon="6.43917">
        <ele>408.8</ele>
        <time>2023-10-01T08:44:42Z</time>
      </trkpt>
      <trkpt lat="48.16722" lon="6.4391">
        <ele>409</ele>
        <time>2023-10-01T08:44:43Z</time>
      </trkpt>
      <trkpt lat="48.16722" lon="6.43906">
        <ele>409.2</ele>
        <time>2023-10-01T08:44:44Z</time>
      </trkpt>
      <trkpt lat="48.16723" lon="6.43901">
        <ele>409.4</ele>
        <time>2023-10-01T08:44:45Z</time>
      </trkpt>
      <trkpt lat="48.16724" lon="6.43896">
        <ele>409.6</ele>
        <time>2023-10-01T08:44:46Z</time>
      </trkpt>
      <trkpt lat="48.16724" lon="6.43891">
        <ele>410</ele>
        <time>2023-10-01T08:44:47Z</time>
      </trkpt>
      <trkpt lat="48.16726" lon="6.43887">
        <ele>410</ele>
        <time>2023-10-01T08:44:48Z</time>
      </trkpt>
      <trkpt lat="48.16726" lon="6.43879">
        <ele>410.2</ele>
        <time>2023-10-01T08:44:49Z</time>
      </trkpt>
      <trkpt lat="48.16726" lon="6.43873">
        <ele>410.4</ele>
        <time>2023-10-01T08:44:50Z</time>
      </trkpt>
      <trkpt lat="48.16726" lon="6.43867">
        <ele>410.6</ele>
        <time>2023-10-01T08:44:51Z</time>
      </trkpt>
      <trkpt lat="48.16726" lon="6.43862">
        <ele>410.6</ele>
        <time>2023-10-01T08:44:52Z</time>
      </trkpt>
      <trkpt lat="48.16725" lon="6.43856">
        <ele>411</ele>
        <time>2023-10-01T08:44:53Z</time>
      </trkpt>
      <trkpt lat="48.16726" lon="6.43851">
        <ele>411.2</ele>
        <time>2023-10-01T08:44:54Z</time>
      </trkpt>
      <trkpt lat="48.16727" lon="6.43845">
        <ele>411.4</ele>
        <time>2023-10-01T08:44:55Z</time>
      </trkpt>
      <trkpt lat="48.16726" lon="6.43838">
        <ele>411.6</ele>
        <time>2023-10-01T08:44:56Z</time>
      </trkpt>
      <trkpt lat="48.16725" lon="6.43831">
        <ele>411.6</ele>
        <time>2023-10-01T08:44:57Z</time>
      </trkpt>
      <trkpt lat="48.16724" lon="6.43825">
        <ele>411.6</ele>
        <time>2023-10-01T08:44:58Z</time>
      </trkpt>
      <trkpt lat="48.16723" lon="6.43819">
        <ele>411.6</ele>
        <time>2023-10-01T08:44:59Z</time>
      </trkpt>
      <trkpt lat="48.16723" lon="6.43811">
        <ele>411.8</ele>
        <time>2023-10-01T08:45:00Z</time>
      </trkpt>
      <trkpt lat="48.16723" lon="6.43804">
        <ele>412</ele>
        <time>2023-10-01T08:45:01Z</time>
      </trkpt>
      <trkpt lat="48.16723" lon="6.43798">
        <ele>412.2</ele>
        <time>2023-10-01T08:45:02Z</time>
      </trkpt>
      <trkpt lat="48.16724" lon="6.43792">
        <ele>412.4</ele>
        <time>2023-10-01T08:45:03Z</time>
      </trkpt>
      <trkpt lat="48.16724" lon="6.43785">
        <ele>412.8</ele>
        <time>2023-10-01T08:45:04Z</time>
      </trkpt>
      <trkpt lat="48.16723" lon="6.43779">
        <ele>413.2</ele>
        <time>2023-10-01T08:45:05Z</time>
      </trkpt>
      <trkpt lat="48.16724" lon="6.4377">
        <ele>413.4</ele>
        <time>2023-10-01T08:45:06Z</time>
      </trkpt>
      <trkpt lat="48.16725" lon="6.43763">
        <ele>413.4</ele>
        <time>2023-10-01T08:45:07Z</time>
      </trkpt>
      <trkpt lat="48.16726" lon="6.43755">
        <ele>413.4</ele>
        <time>2023-10-01T08:45:08Z</time>
      </trkpt>
      <trkpt lat="48.16727" lon="6.43746">
        <ele>413.4</ele>
        <time>2023-10-01T08:45:09Z</time>
      </trkpt>
      <trkpt lat="48.16728" lon="6.43735">
        <ele>413.4</ele>
        <time>2023-10-01T08:45:10Z</time>
      </trkpt>
      <trkpt lat="48.1673" lon="6.4373">
        <ele>413.4</ele>
        <time>2023-10-01T08:45:11Z</time>
      </trkpt>
      <trkpt lat="48.16734" lon="6.43724">
        <ele>413.4</ele>
        <time>2023-10-01T08:45:12Z</time>
      </trkpt>
      <trkpt lat="48.16739" lon="6.43718">
        <ele>413.2</ele>
        <time>2023-10-01T08:45:13Z</time>
      </trkpt>
      <trkpt lat="48.16742" lon="6.43713">
        <ele>413</ele>
        <time>2023-10-01T08:45:14Z</time>
      </trkpt>
      <trkpt lat="48.16746" lon="6.43705">
        <ele>412.8</ele>
        <time>2023-10-01T08:45:15Z</time>
      </trkpt>
      <trkpt lat="48.16749" lon="6.43699">
        <ele>412.6</ele>
        <time>2023-10-01T08:45:16Z</time>
      </trkpt>
      <trkpt lat="48.16753" lon="6.43692">
        <ele>412.4</ele>
        <time>2023-10-01T08:45:17Z</time>
      </trkpt>
      <trkpt lat="48.16759" lon="6.43684">
        <ele>412.2</ele>
        <time>2023-10-01T08:45:18Z</time>
      </trkpt>
      <trkpt lat="48.16765" lon="6.43678">
        <ele>410.2</ele>
        <time>2023-10-01T08:45:19Z</time>
      </trkpt>
      <trkpt lat="48.1677" lon="6.43673">
        <ele>409.2</ele>
        <time>2023-10-01T08:45:20Z</time>
      </trkpt>
      <trkpt lat="48.16777" lon="6.43666">
        <ele>408.2</ele>
        <time>2023-10-01T08:45:21Z</time>
      </trkpt>
      <trkpt lat="48.16782" lon="6.43656">
        <ele>406.8</ele>
        <time>2023-10-01T08:45:22Z</time>
      </trkpt>
      <trkpt lat="48.16787" lon="6.43644">
        <ele>405.6</ele>
        <time>2023-10-01T08:45:23Z</time>
      </trkpt>
      <trkpt lat="48.16792" lon="6.43633">
        <ele>405.2</ele>
        <time>2023-10-01T08:45:24Z</time>
      </trkpt>
      <trkpt lat="48.16797" lon="6.43624">
        <ele>404.6</ele>
        <time>2023-10-01T08:45:25Z</time>
      </trkpt>
      <trkpt lat="48.16801" lon="6.43615">
        <ele>404.4</ele>
        <time>2023-10-01T08:45:26Z</time>
      </trkpt>
      <trkpt lat="48.16804" lon="6.43611">
        <ele>403.6</ele>
        <time>2023-10-01T08:45:27Z</time>
      </trkpt>
      <trkpt lat="48.16806" lon="6.43607">
        <ele>403</ele>
        <time>2023-10-01T08:45:28Z</time>
      </trkpt>
      <trkpt lat="48.16807" lon="6.43605">
        <ele>402.4</ele>
        <time>2023-10-01T08:45:29Z</time>
      </trkpt>
      <trkpt lat="48.16808" lon="6.43604">
        <ele>401.4</ele>
        <time>2023-10-01T08:45:30Z</time>
      </trkpt>
      <trkpt lat="48.1681" lon="6.43599">
        <ele>396.4</ele>
        <time>2023-10-01T08:45:40Z</time>
      </trkpt>
      <trkpt lat="48.16811" lon="6.43598">
        <ele>396.4</ele>
        <time>2023-10-01T08:45:41Z</time>
      </trkpt>
      <trkpt lat="48.16813" lon="6.43596">
        <ele>396</ele>
        <time>2023-10-01T08:45:42Z</time>
      </trkpt>
      <trkpt lat="48.16814" lon="6.43594">
        <ele>396</ele>
        <time>2023-10-01T08:45:43Z</time>
      </trkpt>
      <trkpt lat="48.16816" lon="6.43591">
        <ele>395.8</ele>
        <time>2023-10-01T08:45:44Z</time>
      </trkpt>
      <trkpt lat="48.16817" lon="6.43588">
        <ele>395.8</ele>
        <time>2023-10-01T08:45:45Z</time>
      </trkpt>
      <trkpt lat="48.16817" lon="6.43584">
        <ele>395.6</ele>
        <time>2023-10-01T08:45:46Z</time>
      </trkpt>
      <trkpt lat="48.16817" lon="6.4358">
        <ele>395.4</ele>
        <time>2023-10-01T08:45:47Z</time>
      </trkpt>
      <trkpt lat="48.16815" lon="6.43576">
        <ele>395.4</ele>
        <time>2023-10-01T08:45:48Z</time>
      </trkpt>
      <trkpt lat="48.16813" lon="6.43572">
        <ele>395.4</ele>
        <time>2023-10-01T08:45:49Z</time>
      </trkpt>
      <trkpt lat="48.1681" lon="6.43569">
        <ele>395.4</ele>
        <time>2023-10-01T08:45:50Z</time>
      </trkpt>
      <trkpt lat="48.16808" lon="6.43565">
        <ele>395.4</ele>
        <time>2023-10-01T08:45:51Z</time>
      </trkpt>
      <trkpt lat="48.16806" lon="6.43562">
        <ele>395.4</ele>
        <time>2023-10-01T08:45:52Z</time>
      </trkpt>
      <trkpt lat="48.16804" lon="6.43558">
        <ele>395.4</ele>
        <time>2023-10-01T08:45:53Z</time>
      </trkpt>
      <trkpt lat="48.16802" lon="6.43555">
        <ele>395.4</ele>
        <time>2023-10-01T08:45:54Z</time>
      </trkpt>
      <trkpt lat="48.168" lon="6.43551">
        <ele>395.6</ele>
        <time>2023-10-01T08:45:55Z</time>
      </trkpt>
      <trkpt lat="48.16798" lon="6.43547">
        <ele>395.8</ele>
        <time>2023-10-01T08:45:56Z</time>
      </trkpt>
      <trkpt lat="48.16796" lon="6.43543">
        <ele>396</ele>
        <time>2023-10-01T08:45:57Z</time>
      </trkpt>
      <trkpt lat="48.16795" lon="6.4354">
        <ele>396.2</ele>
        <time>2023-10-01T08:45:58Z</time>
      </trkpt>
      <trkpt lat="48.16793" lon="6.43535">
        <ele>396.6</ele>
        <time>2023-10-01T08:45:59Z</time>
      </trkpt>
      <trkpt lat="48.16792" lon="6.43532">
        <ele>397</ele>
        <time>2023-10-01T08:46:00Z</time>
      </trkpt>
      <trkpt lat="48.1679" lon="6.43527">
        <ele>397.4</ele>
        <time>2023-10-01T08:46:01Z</time>
      </trkpt>
      <trkpt lat="48.16788" lon="6.43522">
        <ele>397.8</ele>
        <time>2023-10-01T08:46:02Z</time>
      </trkpt>
      <trkpt lat="48.16786" lon="6.43518">
        <ele>398</ele>
        <time>2023-10-01T08:46:03Z</time>
      </trkpt>
      <trkpt lat="48.16784" lon="6.43515">
        <ele>398.2</ele>
        <time>2023-10-01T08:46:04Z</time>
      </trkpt>
      <trkpt lat="48.16782" lon="6.43512">
        <ele>398.4</ele>
        <time>2023-10-01T08:46:05Z</time>
      </trkpt>
      <trkpt lat="48.1678" lon="6.43507">
        <ele>398.8</ele>
        <time>2023-10-01T08:46:06Z</time>
      </trkpt>
      <trkpt lat="48.16778" lon="6.43504">
        <ele>399</ele>
        <time>2023-10-01T08:46:07Z</time>
      </trkpt>
      <trkpt lat="48.16777" lon="6.43498">
        <ele>399.4</ele>
        <time>2023-10-01T08:46:08Z</time>
      </trkpt>
      <trkpt lat="48.16775" lon="6.43495">
        <ele>399.4</ele>
        <time>2023-10-01T08:46:09Z</time>
      </trkpt>
      <trkpt lat="48.16772" lon="6.43493">
        <ele>399.8</ele>
        <time>2023-10-01T08:46:10Z</time>
      </trkpt>
      <trkpt lat="48.16768" lon="6.4349">
        <ele>399.8</ele>
        <time>2023-10-01T08:46:11Z</time>
      </trkpt>
      <trkpt lat="48.16765" lon="6.43489">
        <ele>400</ele>
        <time>2023-10-01T08:46:12Z</time>
      </trkpt>
      <trkpt lat="48.16763" lon="6.43487">
        <ele>400.2</ele>
        <time>2023-10-01T08:46:13Z</time>
      </trkpt>
      <trkpt lat="48.16761" lon="6.43486">
        <ele>400.2</ele>
        <time>2023-10-01T08:46:14Z</time>
      </trkpt>
      <trkpt lat="48.16757" lon="6.43484">
        <ele>400.4</ele>
        <time>2023-10-01T08:46:15Z</time>
      </trkpt>
      <trkpt lat="48.16755" lon="6.43482">
        <ele>400.4</ele>
        <time>2023-10-01T08:46:16Z</time>
      </trkpt>
      <trkpt lat="48.16752" lon="6.4348">
        <ele>400.4</ele>
        <time>2023-10-01T08:46:17Z</time>
      </trkpt>
      <trkpt lat="48.16749" lon="6.43479">
        <ele>400.6</ele>
        <time>2023-10-01T08:46:18Z</time>
      </trkpt>
      <trkpt lat="48.16746" lon="6.43478">
        <ele>400.8</ele>
        <time>2023-10-01T08:46:19Z</time>
      </trkpt>
      <trkpt lat="48.16743" lon="6.43475">
        <ele>401</ele>
        <time>2023-10-01T08:46:20Z</time>
      </trkpt>
      <trkpt lat="48.1674" lon="6.43473">
        <ele>401.2</ele>
        <time>2023-10-01T08:46:21Z</time>
      </trkpt>
      <trkpt lat="48.16737" lon="6.43471">
        <ele>401.2</ele>
        <time>2023-10-01T08:46:22Z</time>
      </trkpt>
      <trkpt lat="48.16734" lon="6.4347">
        <ele>401.6</ele>
        <time>2023-10-01T08:46:23Z</time>
      </trkpt>
      <trkpt lat="48.16731" lon="6.43468">
        <ele>401.6</ele>
        <time>2023-10-01T08:46:24Z</time>
      </trkpt>
      <trkpt lat="48.16728" lon="6.43466">
        <ele>401.8</ele>
        <time>2023-10-01T08:46:25Z</time>
      </trkpt>
      <trkpt lat="48.16725" lon="6.43464">
        <ele>401.8</ele>
        <time>2023-10-01T08:46:26Z</time>
      </trkpt>
      <trkpt lat="48.16722" lon="6.43463">
        <ele>402.2</ele>
        <time>2023-10-01T08:46:27Z</time>
      </trkpt>
      <trkpt lat="48.1672" lon="6.43461">
        <ele>402.2</ele>
        <time>2023-10-01T08:46:28Z</time>
      </trkpt>
      <trkpt lat="48.16717" lon="6.43458">
        <ele>402.4</ele>
        <time>2023-10-01T08:46:29Z</time>
      </trkpt>
      <trkpt lat="48.16716" lon="6.43454">
        <ele>402.4</ele>
        <time>2023-10-01T08:46:30Z</time>
      </trkpt>
      <trkpt lat="48.16714" lon="6.43451">
        <ele>402.4</ele>
        <time>2023-10-01T08:46:31Z</time>
      </trkpt>
      <trkpt lat="48.16711" lon="6.43449">
        <ele>402.6</ele>
        <time>2023-10-01T08:46:32Z</time>
      </trkpt>
      <trkpt lat="48.16709" lon="6.43445">
        <ele>402.8</ele>
        <time>2023-10-01T08:46:33Z</time>
      </trkpt>
      <trkpt lat="48.16707" lon="6.43443">
        <ele>403</ele>
        <time>2023-10-01T08:46:34Z</time>
      </trkpt>
      <trkpt lat="48.16705" lon="6.4344">
        <ele>403</ele>
        <time>2023-10-01T08:46:35Z</time>
      </trkpt>
      <trkpt lat="48.16704" lon="6.43437">
        <ele>403.2</ele>
        <time>2023-10-01T08:46:36Z</time>
      </trkpt>
      <trkpt lat="48.16705" lon="6.43434">
        <ele>403.4</ele>
        <time>2023-10-01T08:46:37Z</time>
      </trkpt>
      <trkpt lat="48.16707" lon="6.43429">
        <ele>403.8</ele>
        <time>2023-10-01T08:46:38Z</time>
      </trkpt>
      <trkpt lat="48.16711" lon="6.43426">
        <ele>404</ele>
        <time>2023-10-01T08:46:39Z</time>
      </trkpt>
      <trkpt lat="48.16714" lon="6.43422">
        <ele>404</ele>
        <time>2023-10-01T08:46:40Z</time>
      </trkpt>
      <trkpt lat="48.16719" lon="6.43417">
        <ele>404</ele>
        <time>2023-10-01T08:46:41Z</time>
      </trkpt>
      <trkpt lat="48.16725" lon="6.43412">
        <ele>404</ele>
        <time>2023-10-01T08:46:42Z</time>
      </trkpt>
      <trkpt lat="48.16731" lon="6.43407">
        <ele>404</ele>
        <time>2023-10-01T08:46:43Z</time>
      </trkpt>
      <trkpt lat="48.16737" lon="6.43401">
        <ele>404</ele>
        <time>2023-10-01T08:46:44Z</time>
      </trkpt>
      <trkpt lat="48.16742" lon="6.43396">
        <ele>403.8</ele>
        <time>2023-10-01T08:46:45Z</time>
      </trkpt>
      <trkpt lat="48.16749" lon="6.43389">
        <ele>403.6</ele>
        <time>2023-10-01T08:46:46Z</time>
      </trkpt>
      <trkpt lat="48.16755" lon="6.43384">
        <ele>403.2</ele>
        <time>2023-10-01T08:46:47Z</time>
      </trkpt>
      <trkpt lat="48.16761" lon="6.43378">
        <ele>402.8</ele>
        <time>2023-10-01T08:46:48Z</time>
      </trkpt>
      <trkpt lat="48.16765" lon="6.43372">
        <ele>402.2</ele>
        <time>2023-10-01T08:46:49Z</time>
      </trkpt>
      <trkpt lat="48.16768" lon="6.43367">
        <ele>402.2</ele>
        <time>2023-10-01T08:46:50Z</time>
      </trkpt>
      <trkpt lat="48.1677" lon="6.4336">
        <ele>401.4</ele>
        <time>2023-10-01T08:46:51Z</time>
      </trkpt>
      <trkpt lat="48.1677" lon="6.43355">
        <ele>401</ele>
        <time>2023-10-01T08:46:52Z</time>
      </trkpt>
      <trkpt lat="48.16768" lon="6.43352">
        <ele>400</ele>
        <time>2023-10-01T08:46:53Z</time>
      </trkpt>
      <trkpt lat="48.16765" lon="6.4335">
        <ele>399.6</ele>
        <time>2023-10-01T08:46:54Z</time>
      </trkpt>
      <trkpt lat="48.16761" lon="6.43347">
        <ele>398.6</ele>
        <time>2023-10-01T08:46:55Z</time>
      </trkpt>
      <trkpt lat="48.16758" lon="6.43345">
        <ele>397.8</ele>
        <time>2023-10-01T08:46:56Z</time>
      </trkpt>
      <trkpt lat="48.16755" lon="6.43342">
        <ele>397.6</ele>
        <time>2023-10-01T08:46:57Z</time>
      </trkpt>
      <trkpt lat="48.16753" lon="6.4334">
        <ele>397.2</ele>
        <time>2023-10-01T08:46:58Z</time>
      </trkpt>
      <trkpt lat="48.16749" lon="6.43337">
        <ele>397.2</ele>
        <time>2023-10-01T08:46:59Z</time>
      </trkpt>
      <trkpt lat="48.16745" lon="6.43335">
        <ele>397</ele>
        <time>2023-10-01T08:47:00Z</time>
      </trkpt>
      <trkpt lat="48.16741" lon="6.43334">
        <ele>397</ele>
        <time>2023-10-01T08:47:01Z</time>
      </trkpt>
      <trkpt lat="48.16739" lon="6.43334">
        <ele>396.8</ele>
        <time>2023-10-01T08:47:02Z</time>
      </trkpt>
      <trkpt lat="48.16736" lon="6.43333">
        <ele>396.8</ele>
        <time>2023-10-01T08:47:03Z</time>
      </trkpt>
      <trkpt lat="48.16733" lon="6.4333">
        <ele>397</ele>
        <time>2023-10-01T08:47:04Z</time>
      </trkpt>
      <trkpt lat="48.16731" lon="6.43329">
        <ele>397</ele>
        <time>2023-10-01T08:47:05Z</time>
      </trkpt>
      <trkpt lat="48.16728" lon="6.43327">
        <ele>397.2</ele>
        <time>2023-10-01T08:47:06Z</time>
      </trkpt>
      <trkpt lat="48.16726" lon="6.43325">
        <ele>397.2</ele>
        <time>2023-10-01T08:47:07Z</time>
      </trkpt>
      <trkpt lat="48.16723" lon="6.43324">
        <ele>397.4</ele>
        <time>2023-10-01T08:47:08Z</time>
      </trkpt>
      <trkpt lat="48.1672" lon="6.43322">
        <ele>397.6</ele>
        <time>2023-10-01T08:47:09Z</time>
      </trkpt>
      <trkpt lat="48.16717" lon="6.4332">
        <ele>397.6</ele>
        <time>2023-10-01T08:47:10Z</time>
      </trkpt>
      <trkpt lat="48.16715" lon="6.43318">
        <ele>397.8</ele>
        <time>2023-10-01T08:47:11Z</time>
      </trkpt>
      <trkpt lat="48.16712" lon="6.43315">
        <ele>397.8</ele>
        <time>2023-10-01T08:47:12Z</time>
      </trkpt>
      <trkpt lat="48.1671" lon="6.43311">
        <ele>397.8</ele>
        <time>2023-10-01T08:47:13Z</time>
      </trkpt>
      <trkpt lat="48.16708" lon="6.43308">
        <ele>398</ele>
        <time>2023-10-01T08:47:14Z</time>
      </trkpt>
      <trkpt lat="48.16706" lon="6.43306">
        <ele>398.2</ele>
        <time>2023-10-01T08:47:15Z</time>
      </trkpt>
      <trkpt lat="48.16703" lon="6.43302">
        <ele>398.2</ele>
        <time>2023-10-01T08:47:16Z</time>
      </trkpt>
      <trkpt lat="48.16702" lon="6.433">
        <ele>398.4</ele>
        <time>2023-10-01T08:47:17Z</time>
      </trkpt>
      <trkpt lat="48.16699" lon="6.43298">
        <ele>398.6</ele>
        <time>2023-10-01T08:47:18Z</time>
      </trkpt>
      <trkpt lat="48.16697" lon="6.43295">
        <ele>399</ele>
        <time>2023-10-01T08:47:19Z</time>
      </trkpt>
      <trkpt lat="48.16695" lon="6.43293">
        <ele>399.2</ele>
        <time>2023-10-01T08:47:20Z</time>
      </trkpt>
      <trkpt lat="48.16693" lon="6.43289">
        <ele>399.2</ele>
        <time>2023-10-01T08:47:21Z</time>
      </trkpt>
      <trkpt lat="48.16691" lon="6.43283">
        <ele>399.4</ele>
        <time>2023-10-01T08:47:22Z</time>
      </trkpt>
      <trkpt lat="48.16689" lon="6.43278">
        <ele>399.6</ele>
        <time>2023-10-01T08:47:23Z</time>
      </trkpt>
      <trkpt lat="48.16688" lon="6.43273">
        <ele>399.6</ele>
        <time>2023-10-01T08:47:24Z</time>
      </trkpt>
      <trkpt lat="48.16687" lon="6.43267">
        <ele>399.8</ele>
        <time>2023-10-01T08:47:25Z</time>
      </trkpt>
      <trkpt lat="48.16686" lon="6.43261">
        <ele>400</ele>
        <time>2023-10-01T08:47:26Z</time>
      </trkpt>
      <trkpt lat="48.16685" lon="6.43253">
        <ele>400</ele>
        <time>2023-10-01T08:47:27Z</time>
      </trkpt>
      <trkpt lat="48.16684" lon="6.43244">
        <ele>400</ele>
        <time>2023-10-01T08:47:28Z</time>
      </trkpt>
      <trkpt lat="48.16685" lon="6.43235">
        <ele>399.8</ele>
        <time>2023-10-01T08:47:29Z</time>
      </trkpt>
      <trkpt lat="48.16686" lon="6.43226">
        <ele>399.8</ele>
        <time>2023-10-01T08:47:30Z</time>
      </trkpt>
      <trkpt lat="48.16688" lon="6.43217">
        <ele>399.8</ele>
        <time>2023-10-01T08:47:31Z</time>
      </trkpt>
      <trkpt lat="48.16691" lon="6.43208">
        <ele>399.6</ele>
        <time>2023-10-01T08:47:32Z</time>
      </trkpt>
      <trkpt lat="48.16694" lon="6.43201">
        <ele>399.4</ele>
        <time>2023-10-01T08:47:33Z</time>
      </trkpt>
      <trkpt lat="48.16696" lon="6.43195">
        <ele>399</ele>
        <time>2023-10-01T08:47:34Z</time>
      </trkpt>
      <trkpt lat="48.16698" lon="6.43191">
        <ele>398.6</ele>
        <time>2023-10-01T08:47:35Z</time>
      </trkpt>
      <trkpt lat="48.16701" lon="6.43187">
        <ele>398.4</ele>
        <time>2023-10-01T08:47:36Z</time>
      </trkpt>
      <trkpt lat="48.16703" lon="6.43181">
        <ele>398.2</ele>
        <time>2023-10-01T08:47:37Z</time>
      </trkpt>
      <trkpt lat="48.16704" lon="6.43175">
        <ele>398</ele>
        <time>2023-10-01T08:47:38Z</time>
      </trkpt>
      <trkpt lat="48.16705" lon="6.43168">
        <ele>398</ele>
        <time>2023-10-01T08:47:39Z</time>
      </trkpt>
      <trkpt lat="48.16706" lon="6.43162">
        <ele>398.2</ele>
        <time>2023-10-01T08:47:40Z</time>
      </trkpt>
      <trkpt lat="48.16708" lon="6.43157">
        <ele>398.4</ele>
        <time>2023-10-01T08:47:41Z</time>
      </trkpt>
      <trkpt lat="48.1671" lon="6.43151">
        <ele>398.6</ele>
        <time>2023-10-01T08:47:42Z</time>
      </trkpt>
      <trkpt lat="48.16713" lon="6.43145">
        <ele>398.8</ele>
        <time>2023-10-01T08:47:43Z</time>
      </trkpt>
      <trkpt lat="48.16715" lon="6.4314">
        <ele>399</ele>
        <time>2023-10-01T08:47:44Z</time>
      </trkpt>
      <trkpt lat="48.16717" lon="6.43134">
        <ele>399</ele>
        <time>2023-10-01T08:47:45Z</time>
      </trkpt>
      <trkpt lat="48.1672" lon="6.43129">
        <ele>399</ele>
        <time>2023-10-01T08:47:46Z</time>
      </trkpt>
      <trkpt lat="48.16723" lon="6.43124">
        <ele>398.6</ele>
        <time>2023-10-01T08:47:47Z</time>
      </trkpt>
      <trkpt lat="48.16725" lon="6.43119">
        <ele>398.6</ele>
        <time>2023-10-01T08:47:48Z</time>
      </trkpt>
      <trkpt lat="48.16729" lon="6.43114">
        <ele>398.4</ele>
        <time>2023-10-01T08:47:49Z</time>
      </trkpt>
      <trkpt lat="48.16735" lon="6.43108">
        <ele>398.4</ele>
        <time>2023-10-01T08:47:50Z</time>
      </trkpt>
      <trkpt lat="48.1674" lon="6.43101">
        <ele>398.2</ele>
        <time>2023-10-01T08:47:51Z</time>
      </trkpt>
      <trkpt lat="48.16744" lon="6.43094">
        <ele>398</ele>
        <time>2023-10-01T08:47:52Z</time>
      </trkpt>
      <trkpt lat="48.16747" lon="6.43087">
        <ele>397</ele>
        <time>2023-10-01T08:47:53Z</time>
      </trkpt>
      <trkpt lat="48.1675" lon="6.43081">
        <ele>396.6</ele>
        <time>2023-10-01T08:47:54Z</time>
      </trkpt>
      <trkpt lat="48.16754" lon="6.43075">
        <ele>395.8</ele>
        <time>2023-10-01T08:47:55Z</time>
      </trkpt>
      <trkpt lat="48.16757" lon="6.43069">
        <ele>395.4</ele>
        <time>2023-10-01T08:47:56Z</time>
      </trkpt>
      <trkpt lat="48.16758" lon="6.43063">
        <ele>395.2</ele>
        <time>2023-10-01T08:47:57Z</time>
      </trkpt>
      <trkpt lat="48.1676" lon="6.43058">
        <ele>395</ele>
        <time>2023-10-01T08:47:58Z</time>
      </trkpt>
      <trkpt lat="48.16762" lon="6.43053">
        <ele>395</ele>
        <time>2023-10-01T08:47:59Z</time>
      </trkpt>
      <trkpt lat="48.16764" lon="6.43049">
        <ele>395</ele>
        <time>2023-10-01T08:48:00Z</time>
      </trkpt>
      <trkpt lat="48.16765" lon="6.43047">
        <ele>395.2</ele>
        <time>2023-10-01T08:48:01Z</time>
      </trkpt>
      <trkpt lat="48.16766" lon="6.43043">
        <ele>395.8</ele>
        <time>2023-10-01T08:48:02Z</time>
      </trkpt>
      <trkpt lat="48.16767" lon="6.43039">
        <ele>396.2</ele>
        <time>2023-10-01T08:48:03Z</time>
      </trkpt>
      <trkpt lat="48.1677" lon="6.43034">
        <ele>396.6</ele>
        <time>2023-10-01T08:48:04Z</time>
      </trkpt>
      <trkpt lat="48.16773" lon="6.4303">
        <ele>396.8</ele>
        <time>2023-10-01T08:48:05Z</time>
      </trkpt>
      <trkpt lat="48.16774" lon="6.43027">
        <ele>397</ele>
        <time>2023-10-01T08:48:06Z</time>
      </trkpt>
      <trkpt lat="48.16776" lon="6.43022">
        <ele>397.2</ele>
        <time>2023-10-01T08:48:07Z</time>
      </trkpt>
      <trkpt lat="48.16778" lon="6.43017">
        <ele>397.6</ele>
        <time>2023-10-01T08:48:08Z</time>
      </trkpt>
      <trkpt lat="48.16779" lon="6.43013">
        <ele>398</ele>
        <time>2023-10-01T08:48:09Z</time>
      </trkpt>
      <trkpt lat="48.16781" lon="6.43009">
        <ele>398</ele>
        <time>2023-10-01T08:48:10Z</time>
      </trkpt>
      <trkpt lat="48.16783" lon="6.43004">
        <ele>398.4</ele>
        <time>2023-10-01T08:48:11Z</time>
      </trkpt>
      <trkpt lat="48.16787" lon="6.43">
        <ele>398.6</ele>
        <time>2023-10-01T08:48:12Z</time>
      </trkpt>
      <trkpt lat="48.16789" lon="6.42996">
        <ele>399</ele>
        <time>2023-10-01T08:48:13Z</time>
      </trkpt>
      <trkpt lat="48.1679" lon="6.42993">
        <ele>399.2</ele>
        <time>2023-10-01T08:48:14Z</time>
      </trkpt>
      <trkpt lat="48.16791" lon="6.42991">
        <ele>399.6</ele>
        <time>2023-10-01T08:48:15Z</time>
      </trkpt>
      <trkpt lat="48.16792" lon="6.42986">
        <ele>399.8</ele>
        <time>2023-10-01T08:48:16Z</time>
      </trkpt>
      <trkpt lat="48.16793" lon="6.42981">
        <ele>400</ele>
        <time>2023-10-01T08:48:17Z</time>
      </trkpt>
      <trkpt lat="48.16795" lon="6.42976">
        <ele>400</ele>
        <time>2023-10-01T08:48:18Z</time>
      </trkpt>
      <trkpt lat="48.16795" lon="6.42972">
        <ele>400.2</ele>
        <time>2023-10-01T08:48:19Z</time>
      </trkpt>
      <trkpt lat="48.16796" lon="6.4297">
        <ele>400.4</ele>
        <time>2023-10-01T08:48:20Z</time>
      </trkpt>
      <trkpt lat="48.16797" lon="6.42968">
        <ele>401.2</ele>
        <time>2023-10-01T08:48:21Z</time>
      </trkpt>
      <trkpt lat="48.16798" lon="6.42964">
        <ele>401.6</ele>
        <time>2023-10-01T08:48:22Z</time>
      </trkpt>
      <trkpt lat="48.16801" lon="6.42959">
        <ele>401.8</ele>
        <time>2023-10-01T08:48:23Z</time>
      </trkpt>
      <trkpt lat="48.16802" lon="6.42955">
        <ele>402</ele>
        <time>2023-10-01T08:48:24Z</time>
      </trkpt>
      <trkpt lat="48.16804" lon="6.42949">
        <ele>402</ele>
        <time>2023-10-01T08:48:25Z</time>
      </trkpt>
      <trkpt lat="48.16806" lon="6.42943">
        <ele>402.2</ele>
        <time>2023-10-01T08:48:26Z</time>
      </trkpt>
      <trkpt lat="48.16808" lon="6.42939">
        <ele>402.4</ele>
        <time>2023-10-01T08:48:27Z</time>
      </trkpt>
      <trkpt lat="48.16809" lon="6.42935">
        <ele>402.6</ele>
        <time>2023-10-01T08:48:28Z</time>
      </trkpt>
      <trkpt lat="48.1681" lon="6.42931">
        <ele>402.6</ele>
        <time>2023-10-01T08:48:29Z</time>
      </trkpt>
      <trkpt lat="48.16811" lon="6.42927">
        <ele>402.8</ele>
        <time>2023-10-01T08:48:30Z</time>
      </trkpt>
      <trkpt lat="48.16812" lon="6.42922">
        <ele>403</ele>
        <time>2023-10-01T08:48:31Z</time>
      </trkpt>
      <trkpt lat="48.16814" lon="6.42917">
        <ele>403.2</ele>
        <time>2023-10-01T08:48:32Z</time>
      </trkpt>
      <trkpt lat="48.16815" lon="6.42913">
        <ele>403.4</ele>
        <time>2023-10-01T08:48:33Z</time>
      </trkpt>
      <trkpt lat="48.16817" lon="6.42907">
        <ele>403.6</ele>
        <time>2023-10-01T08:48:34Z</time>
      </trkpt>
      <trkpt lat="48.16819" lon="6.42903">
        <ele>403.8</ele>
        <time>2023-10-01T08:48:35Z</time>
      </trkpt>
      <trkpt lat="48.16822" lon="6.42899">
        <ele>404.2</ele>
        <time>2023-10-01T08:48:36Z</time>
      </trkpt>
      <trkpt lat="48.16823" lon="6.42894">
        <ele>404.2</ele>
        <time>2023-10-01T08:48:37Z</time>
      </trkpt>
      <trkpt lat="48.16824" lon="6.42888">
        <ele>404.6</ele>
        <time>2023-10-01T08:48:38Z</time>
      </trkpt>
      <trkpt lat="48.16825" lon="6.42884">
        <ele>404.8</ele>
        <time>2023-10-01T08:48:39Z</time>
      </trkpt>
      <trkpt lat="48.16827" lon="6.42879">
        <ele>404.8</ele>
        <time>2023-10-01T08:48:40Z</time>
      </trkpt>
      <trkpt lat="48.16828" lon="6.42875">
        <ele>405.4</ele>
        <time>2023-10-01T08:48:41Z</time>
      </trkpt>
      <trkpt lat="48.16829" lon="6.42869">
        <ele>405.6</ele>
        <time>2023-10-01T08:48:42Z</time>
      </trkpt>
      <trkpt lat="48.1683" lon="6.42863">
        <ele>406</ele>
        <time>2023-10-01T08:48:43Z</time>
      </trkpt>
      <trkpt lat="48.16833" lon="6.42856">
        <ele>406</ele>
        <time>2023-10-01T08:48:44Z</time>
      </trkpt>
      <trkpt lat="48.16836" lon="6.4285">
        <ele>406</ele>
        <time>2023-10-01T08:48:45Z</time>
      </trkpt>
      <trkpt lat="48.16837" lon="6.42842">
        <ele>406.2</ele>
        <time>2023-10-01T08:48:46Z</time>
      </trkpt>
      <trkpt lat="48.16839" lon="6.42836">
        <ele>406.2</ele>
        <time>2023-10-01T08:48:47Z</time>
      </trkpt>
      <trkpt lat="48.16841" lon="6.4283">
        <ele>406.2</ele>
        <time>2023-10-01T08:48:48Z</time>
      </trkpt>
      <trkpt lat="48.16843" lon="6.42825">
        <ele>406.2</ele>
        <time>2023-10-01T08:48:49Z</time>
      </trkpt>
      <trkpt lat="48.16844" lon="6.42817">
        <ele>406.2</ele>
        <time>2023-10-01T08:48:50Z</time>
      </trkpt>
      <trkpt lat="48.16846" lon="6.4281">
        <ele>406.2</ele>
        <time>2023-10-01T08:48:51Z</time>
      </trkpt>
      <trkpt lat="48.16849" lon="6.42803">
        <ele>406.2</ele>
        <time>2023-10-01T08:48:52Z</time>
      </trkpt>
      <trkpt lat="48.16852" lon="6.42793">
        <ele>405.8</ele>
        <time>2023-10-01T08:48:53Z</time>
      </trkpt>
      <trkpt lat="48.16854" lon="6.42783">
        <ele>405.6</ele>
        <time>2023-10-01T08:48:54Z</time>
      </trkpt>
      <trkpt lat="48.16854" lon="6.4277">
        <ele>405.2</ele>
        <time>2023-10-01T08:48:55Z</time>
      </trkpt>
      <trkpt lat="48.16854" lon="6.42755">
        <ele>404.8</ele>
        <time>2023-10-01T08:48:56Z</time>
      </trkpt>
      <trkpt lat="48.16855" lon="6.4274">
        <ele>404.4</ele>
        <time>2023-10-01T08:48:57Z</time>
      </trkpt>
      <trkpt lat="48.16856" lon="6.42727">
        <ele>404.2</ele>
        <time>2023-10-01T08:48:58Z</time>
      </trkpt>
      <trkpt lat="48.16858" lon="6.42713">
        <ele>404</ele>
        <time>2023-10-01T08:48:59Z</time>
      </trkpt>
      <trkpt lat="48.16859" lon="6.42701">
        <ele>403.6</ele>
        <time>2023-10-01T08:49:00Z</time>
      </trkpt>
      <trkpt lat="48.1686" lon="6.42692">
        <ele>403.4</ele>
        <time>2023-10-01T08:49:01Z</time>
      </trkpt>
      <trkpt lat="48.16862" lon="6.42683">
        <ele>403.2</ele>
        <time>2023-10-01T08:49:02Z</time>
      </trkpt>
      <trkpt lat="48.16862" lon="6.42675">
        <ele>403</ele>
        <time>2023-10-01T08:49:03Z</time>
      </trkpt>
      <trkpt lat="48.16863" lon="6.42667">
        <ele>402.2</ele>
        <time>2023-10-01T08:49:04Z</time>
      </trkpt>
      <trkpt lat="48.16863" lon="6.42659">
        <ele>402</ele>
        <time>2023-10-01T08:49:05Z</time>
      </trkpt>
      <trkpt lat="48.16864" lon="6.42652">
        <ele>401.6</ele>
        <time>2023-10-01T08:49:06Z</time>
      </trkpt>
      <trkpt lat="48.16865" lon="6.42644">
        <ele>401.6</ele>
        <time>2023-10-01T08:49:07Z</time>
      </trkpt>
      <trkpt lat="48.16865" lon="6.42637">
        <ele>401.4</ele>
        <time>2023-10-01T08:49:08Z</time>
      </trkpt>
      <trkpt lat="48.16865" lon="6.42631">
        <ele>401.4</ele>
        <time>2023-10-01T08:49:09Z</time>
      </trkpt>
      <trkpt lat="48.16866" lon="6.42624">
        <ele>401.4</ele>
        <time>2023-10-01T08:49:10Z</time>
      </trkpt>
      <trkpt lat="48.16866" lon="6.42618">
        <ele>401.8</ele>
        <time>2023-10-01T08:49:11Z</time>
      </trkpt>
      <trkpt lat="48.16866" lon="6.42612">
        <ele>402</ele>
        <time>2023-10-01T08:49:12Z</time>
      </trkpt>
      <trkpt lat="48.16866" lon="6.42607">
        <ele>402.6</ele>
        <time>2023-10-01T08:49:13Z</time>
      </trkpt>
      <trkpt lat="48.16866" lon="6.426">
        <ele>402.6</ele>
        <time>2023-10-01T08:49:14Z</time>
      </trkpt>
      <trkpt lat="48.16866" lon="6.42594">
        <ele>402.8</ele>
        <time>2023-10-01T08:49:15Z</time>
      </trkpt>
      <trkpt lat="48.16866" lon="6.42588">
        <ele>403</ele>
        <time>2023-10-01T08:49:16Z</time>
      </trkpt>
      <trkpt lat="48.16867" lon="6.42581">
        <ele>403.2</ele>
        <time>2023-10-01T08:49:17Z</time>
      </trkpt>
      <trkpt lat="48.16868" lon="6.42575">
        <ele>403.2</ele>
        <time>2023-10-01T08:49:18Z</time>
      </trkpt>
      <trkpt lat="48.16869" lon="6.42569">
        <ele>403.6</ele>
        <time>2023-10-01T08:49:19Z</time>
      </trkpt>
      <trkpt lat="48.1687" lon="6.42564">
        <ele>403.6</ele>
        <time>2023-10-01T08:49:20Z</time>
      </trkpt>
      <trkpt lat="48.16872" lon="6.42559">
        <ele>403.8</ele>
        <time>2023-10-01T08:49:21Z</time>
      </trkpt>
      <trkpt lat="48.16873" lon="6.42555">
        <ele>404</ele>
        <time>2023-10-01T08:49:22Z</time>
      </trkpt>
      <trkpt lat="48.16874" lon="6.4255">
        <ele>404.2</ele>
        <time>2023-10-01T08:49:23Z</time>
      </trkpt>
      <trkpt lat="48.16875" lon="6.42546">
        <ele>404.4</ele>
        <time>2023-10-01T08:49:24Z</time>
      </trkpt>
      <trkpt lat="48.16876" lon="6.42543">
        <ele>404.8</ele>
        <time>2023-10-01T08:49:25Z</time>
      </trkpt>
      <trkpt lat="48.16877" lon="6.42541">
        <ele>405</ele>
        <time>2023-10-01T08:49:26Z</time>
      </trkpt>
      <trkpt lat="48.16878" lon="6.42537">
        <ele>405.2</ele>
        <time>2023-10-01T08:49:27Z</time>
      </trkpt>
      <trkpt lat="48.16878" lon="6.42535">
        <ele>405.2</ele>
        <time>2023-10-01T08:49:28Z</time>
      </trkpt>
      <trkpt lat="48.16878" lon="6.4253">
        <ele>405.2</ele>
        <time>2023-10-01T08:49:29Z</time>
      </trkpt>
      <trkpt lat="48.16879" lon="6.42525">
        <ele>405.4</ele>
        <time>2023-10-01T08:49:30Z</time>
      </trkpt>
      <trkpt lat="48.16879" lon="6.42521">
        <ele>405.4</ele>
        <time>2023-10-01T08:49:31Z</time>
      </trkpt>
      <trkpt lat="48.1688" lon="6.42515">
        <ele>405.4</ele>
        <time>2023-10-01T08:49:32Z</time>
      </trkpt>
      <trkpt lat="48.1688" lon="6.42509">
        <ele>405.4</ele>
        <time>2023-10-01T08:49:33Z</time>
      </trkpt>
      <trkpt lat="48.16881" lon="6.42503">
        <ele>405.4</ele>
        <time>2023-10-01T08:49:34Z</time>
      </trkpt>
      <trkpt lat="48.16881" lon="6.42497">
        <ele>405.6</ele>
        <time>2023-10-01T08:49:35Z</time>
      </trkpt>
      <trkpt lat="48.16881" lon="6.42488">
        <ele>405.6</ele>
        <time>2023-10-01T08:49:36Z</time>
      </trkpt>
      <trkpt lat="48.16881" lon="6.42481">
        <ele>405.6</ele>
        <time>2023-10-01T08:49:37Z</time>
      </trkpt>
      <trkpt lat="48.16881" lon="6.42474">
        <ele>405.4</ele>
        <time>2023-10-01T08:49:38Z</time>
      </trkpt>
      <trkpt lat="48.16879" lon="6.4247">
        <ele>405.2</ele>
        <time>2023-10-01T08:49:39Z</time>
      </trkpt>
      <trkpt lat="48.16877" lon="6.42464">
        <ele>404.8</ele>
        <time>2023-10-01T08:49:40Z</time>
      </trkpt>
      <trkpt lat="48.16873" lon="6.42457">
        <ele>404.6</ele>
        <time>2023-10-01T08:49:41Z</time>
      </trkpt>
      <trkpt lat="48.1687" lon="6.4245">
        <ele>404.6</ele>
        <time>2023-10-01T08:49:42Z</time>
      </trkpt>
      <trkpt lat="48.16866" lon="6.42442">
        <ele>404.4</ele>
        <time>2023-10-01T08:49:43Z</time>
      </trkpt>
      <trkpt lat="48.16864" lon="6.42435">
        <ele>404.2</ele>
        <time>2023-10-01T08:49:44Z</time>
      </trkpt>
      <trkpt lat="48.16861" lon="6.42427">
        <ele>404</ele>
        <time>2023-10-01T08:49:45Z</time>
      </trkpt>
      <trkpt lat="48.16857" lon="6.42418">
        <ele>403.8</ele>
        <time>2023-10-01T08:49:46Z</time>
      </trkpt>
      <trkpt lat="48.16854" lon="6.42407">
        <ele>403.4</ele>
        <time>2023-10-01T08:49:47Z</time>
      </trkpt>
      <trkpt lat="48.16852" lon="6.42398">
        <ele>403.2</ele>
        <time>2023-10-01T08:49:48Z</time>
      </trkpt>
      <trkpt lat="48.16849" lon="6.42389">
        <ele>403</ele>
        <time>2023-10-01T08:49:49Z</time>
      </trkpt>
      <trkpt lat="48.16846" lon="6.42379">
        <ele>402.8</ele>
        <time>2023-10-01T08:49:50Z</time>
      </trkpt>
      <trkpt lat="48.16843" lon="6.42367">
        <ele>402.4</ele>
        <time>2023-10-01T08:49:51Z</time>
      </trkpt>
      <trkpt lat="48.16841" lon="6.42358">
        <ele>402.2</ele>
        <time>2023-10-01T08:49:52Z</time>
      </trkpt>
      <trkpt lat="48.16839" lon="6.4235">
        <ele>402</ele>
        <time>2023-10-01T08:49:53Z</time>
      </trkpt>
      <trkpt lat="48.16837" lon="6.42344">
        <ele>402</ele>
        <time>2023-10-01T08:49:54Z</time>
      </trkpt>
      <trkpt lat="48.16835" lon="6.42336">
        <ele>401.2</ele>
        <time>2023-10-01T08:49:55Z</time>
      </trkpt>
      <trkpt lat="48.16832" lon="6.42328">
        <ele>400.8</ele>
        <time>2023-10-01T08:49:56Z</time>
      </trkpt>
      <trkpt lat="48.16828" lon="6.42319">
        <ele>400.6</ele>
        <time>2023-10-01T08:49:57Z</time>
      </trkpt>
      <trkpt lat="48.16823" lon="6.42309">
        <ele>400.4</ele>
        <time>2023-10-01T08:49:58Z</time>
      </trkpt>
      <trkpt lat="48.16819" lon="6.423">
        <ele>400.4</ele>
        <time>2023-10-01T08:49:59Z</time>
      </trkpt>
      <trkpt lat="48.16816" lon="6.42293">
        <ele>400.4</ele>
        <time>2023-10-01T08:50:00Z</time>
      </trkpt>
      <trkpt lat="48.16813" lon="6.42288">
        <ele>400.4</ele>
        <time>2023-10-01T08:50:01Z</time>
      </trkpt>
      <trkpt lat="48.16811" lon="6.42285">
        <ele>400.4</ele>
        <time>2023-10-01T08:50:02Z</time>
      </trkpt>
      <trkpt lat="48.16806" lon="6.42278">
        <ele>400.4</ele>
        <time>2023-10-01T08:50:03Z</time>
      </trkpt>
      <trkpt lat="48.16801" lon="6.42273">
        <ele>400.8</ele>
        <time>2023-10-01T08:50:04Z</time>
      </trkpt>
      <trkpt lat="48.16796" lon="6.42268">
        <ele>401</ele>
        <time>2023-10-01T08:50:05Z</time>
      </trkpt>
      <trkpt lat="48.16789" lon="6.4226">
        <ele>401.2</ele>
        <time>2023-10-01T08:50:06Z</time>
      </trkpt>
      <trkpt lat="48.16783" lon="6.42254">
        <ele>401.2</ele>
        <time>2023-10-01T08:50:07Z</time>
      </trkpt>
      <trkpt lat="48.16777" lon="6.42246">
        <ele>401.2</ele>
        <time>2023-10-01T08:50:08Z</time>
      </trkpt>
      <trkpt lat="48.16772" lon="6.42241">
        <ele>401.2</ele>
        <time>2023-10-01T08:50:09Z</time>
      </trkpt>
      <trkpt lat="48.16768" lon="6.42238">
        <ele>401.2</ele>
        <time>2023-10-01T08:50:10Z</time>
      </trkpt>
      <trkpt lat="48.16765" lon="6.42236">
        <ele>401.2</ele>
        <time>2023-10-01T08:50:11Z</time>
      </trkpt>
      <trkpt lat="48.16761" lon="6.42235">
        <ele>401</ele>
        <time>2023-10-01T08:50:12Z</time>
      </trkpt>
      <trkpt lat="48.16756" lon="6.42234">
        <ele>400.8</ele>
        <time>2023-10-01T08:50:13Z</time>
      </trkpt>
      <trkpt lat="48.1675" lon="6.42233">
        <ele>400.8</ele>
        <time>2023-10-01T08:50:14Z</time>
      </trkpt>
      <trkpt lat="48.16743" lon="6.42231">
        <ele>400.6</ele>
        <time>2023-10-01T08:50:15Z</time>
      </trkpt>
      <trkpt lat="48.16737" lon="6.42231">
        <ele>400.4</ele>
        <time>2023-10-01T08:50:16Z</time>
      </trkpt>
      <trkpt lat="48.16731" lon="6.42232">
        <ele>400</ele>
        <time>2023-10-01T08:50:17Z</time>
      </trkpt>
      <trkpt lat="48.16726" lon="6.42233">
        <ele>400</ele>
        <time>2023-10-01T08:50:18Z</time>
      </trkpt>
      <trkpt lat="48.16723" lon="6.42235">
        <ele>400</ele>
        <time>2023-10-01T08:50:19Z</time>
      </trkpt>
      <trkpt lat="48.16721" lon="6.42235">
        <ele>400.2</ele>
        <time>2023-10-01T08:50:20Z</time>
      </trkpt>
      <trkpt lat="48.16715" lon="6.42233">
        <ele>400.4</ele>
        <time>2023-10-01T08:50:21Z</time>
      </trkpt>
      <trkpt lat="48.16712" lon="6.42234">
        <ele>400.6</ele>
        <time>2023-10-01T08:50:22Z</time>
      </trkpt>
      <trkpt lat="48.16709" lon="6.42235">
        <ele>400.8</ele>
        <time>2023-10-01T08:50:23Z</time>
      </trkpt>
      <trkpt lat="48.16705" lon="6.42236">
        <ele>401</ele>
        <time>2023-10-01T08:50:24Z</time>
      </trkpt>
      <trkpt lat="48.167" lon="6.42238">
        <ele>401.2</ele>
        <time>2023-10-01T08:50:25Z</time>
      </trkpt>
      <trkpt lat="48.16696" lon="6.42238">
        <ele>401.6</ele>
        <time>2023-10-01T08:50:26Z</time>
      </trkpt>
      <trkpt lat="48.16693" lon="6.42238">
        <ele>401.6</ele>
        <time>2023-10-01T08:50:27Z</time>
      </trkpt>
      <trkpt lat="48.16689" lon="6.42239">
        <ele>402</ele>
        <time>2023-10-01T08:50:28Z</time>
      </trkpt>
      <trkpt lat="48.16686" lon="6.4224">
        <ele>402</ele>
        <time>2023-10-01T08:50:29Z</time>
      </trkpt>
      <trkpt lat="48.16683" lon="6.42242">
        <ele>402.8</ele>
        <time>2023-10-01T08:50:30Z</time>
      </trkpt>
      <trkpt lat="48.1668" lon="6.42243">
        <ele>403</ele>
        <time>2023-10-01T08:50:31Z</time>
      </trkpt>
      <trkpt lat="48.16677" lon="6.42243">
        <ele>403.8</ele>
        <time>2023-10-01T08:50:32Z</time>
      </trkpt>
      <trkpt lat="48.16674" lon="6.42244">
        <ele>404</ele>
        <time>2023-10-01T08:50:33Z</time>
      </trkpt>
      <trkpt lat="48.16671" lon="6.42245">
        <ele>404.4</ele>
        <time>2023-10-01T08:50:34Z</time>
      </trkpt>
      <trkpt lat="48.16668" lon="6.42247">
        <ele>404.6</ele>
        <time>2023-10-01T08:50:35Z</time>
      </trkpt>
      <trkpt lat="48.16664" lon="6.42248">
        <ele>405.2</ele>
        <time>2023-10-01T08:50:36Z</time>
      </trkpt>
      <trkpt lat="48.16659" lon="6.42248">
        <ele>405.2</ele>
        <time>2023-10-01T08:50:37Z</time>
      </trkpt>
      <trkpt lat="48.16657" lon="6.42249">
        <ele>405.4</ele>
        <time>2023-10-01T08:50:38Z</time>
      </trkpt>
      <trkpt lat="48.16654" lon="6.4225">
        <ele>405.6</ele>
        <time>2023-10-01T08:50:39Z</time>
      </trkpt>
      <trkpt lat="48.16652" lon="6.42251">
        <ele>406</ele>
        <time>2023-10-01T08:50:40Z</time>
      </trkpt>
      <trkpt lat="48.1665" lon="6.42254">
        <ele>406.4</ele>
        <time>2023-10-01T08:50:41Z</time>
      </trkpt>
      <trkpt lat="48.16649" lon="6.42256">
        <ele>406.6</ele>
        <time>2023-10-01T08:50:42Z</time>
      </trkpt>
      <trkpt lat="48.16648" lon="6.42257">
        <ele>406.8</ele>
        <time>2023-10-01T08:50:43Z</time>
      </trkpt>
      <trkpt lat="48.16646" lon="6.42258">
        <ele>407</ele>
        <time>2023-10-01T08:50:44Z</time>
      </trkpt>
      <trkpt lat="48.16643" lon="6.4226">
        <ele>407.4</ele>
        <time>2023-10-01T08:50:45Z</time>
      </trkpt>
      <trkpt lat="48.16641" lon="6.42261">
        <ele>407.6</ele>
        <time>2023-10-01T08:50:46Z</time>
      </trkpt>
      <trkpt lat="48.1664" lon="6.42263">
        <ele>407.8</ele>
        <time>2023-10-01T08:50:47Z</time>
      </trkpt>
      <trkpt lat="48.16637" lon="6.42267">
        <ele>408</ele>
        <time>2023-10-01T08:50:48Z</time>
      </trkpt>
      <trkpt lat="48.16636" lon="6.42271">
        <ele>408.2</ele>
        <time>2023-10-01T08:50:49Z</time>
      </trkpt>
      <trkpt lat="48.16634" lon="6.42275">
        <ele>408.4</ele>
        <time>2023-10-01T08:50:50Z</time>
      </trkpt>
      <trkpt lat="48.16632" lon="6.42277">
        <ele>408.6</ele>
        <time>2023-10-01T08:50:51Z</time>
      </trkpt>
      <trkpt lat="48.16629" lon="6.42278">
        <ele>408.8</ele>
        <time>2023-10-01T08:50:52Z</time>
      </trkpt>
      <trkpt lat="48.16626" lon="6.42278">
        <ele>409.2</ele>
        <time>2023-10-01T08:50:53Z</time>
      </trkpt>
      <trkpt lat="48.16624" lon="6.42279">
        <ele>409.4</ele>
        <time>2023-10-01T08:50:54Z</time>
      </trkpt>
      <trkpt lat="48.16621" lon="6.42279">
        <ele>409.8</ele>
        <time>2023-10-01T08:50:55Z</time>
      </trkpt>
      <trkpt lat="48.16619" lon="6.4228">
        <ele>410.2</ele>
        <time>2023-10-01T08:50:56Z</time>
      </trkpt>
      <trkpt lat="48.16616" lon="6.42283">
        <ele>410.2</ele>
        <time>2023-10-01T08:50:57Z</time>
      </trkpt>
      <trkpt lat="48.16612" lon="6.42284">
        <ele>410.4</ele>
        <time>2023-10-01T08:50:58Z</time>
      </trkpt>
      <trkpt lat="48.16609" lon="6.42287">
        <ele>410.6</ele>
        <time>2023-10-01T08:50:59Z</time>
      </trkpt>
      <trkpt lat="48.16606" lon="6.4229">
        <ele>411</ele>
        <time>2023-10-01T08:51:00Z</time>
      </trkpt>
      <trkpt lat="48.16603" lon="6.42292">
        <ele>411</ele>
        <time>2023-10-01T08:51:01Z</time>
      </trkpt>
      <trkpt lat="48.166" lon="6.42293">
        <ele>411.4</ele>
        <time>2023-10-01T08:51:02Z</time>
      </trkpt>
      <trkpt lat="48.16596" lon="6.42292">
        <ele>411.6</ele>
        <time>2023-10-01T08:51:03Z</time>
      </trkpt>
      <trkpt lat="48.16594" lon="6.42295">
        <ele>411.6</ele>
        <time>2023-10-01T08:51:04Z</time>
      </trkpt>
      <trkpt lat="48.16593" lon="6.42297">
        <ele>411.8</ele>
        <time>2023-10-01T08:51:05Z</time>
      </trkpt>
      <trkpt lat="48.16589" lon="6.423">
        <ele>411.8</ele>
        <time>2023-10-01T08:51:06Z</time>
      </trkpt>
      <trkpt lat="48.16587" lon="6.42301">
        <ele>411.8</ele>
        <time>2023-10-01T08:51:07Z</time>
      </trkpt>
      <trkpt lat="48.16584" lon="6.42304">
        <ele>412</ele>
        <time>2023-10-01T08:51:08Z</time>
      </trkpt>
      <trkpt lat="48.16582" lon="6.42308">
        <ele>412</ele>
        <time>2023-10-01T08:51:09Z</time>
      </trkpt>
      <trkpt lat="48.16579" lon="6.42313">
        <ele>412.2</ele>
        <time>2023-10-01T08:51:10Z</time>
      </trkpt>
      <trkpt lat="48.16577" lon="6.42316">
        <ele>412.4</ele>
        <time>2023-10-01T08:51:11Z</time>
      </trkpt>
      <trkpt lat="48.16575" lon="6.42319">
        <ele>412.4</ele>
        <time>2023-10-01T08:51:12Z</time>
      </trkpt>
      <trkpt lat="48.16571" lon="6.42322">
        <ele>412.6</ele>
        <time>2023-10-01T08:51:13Z</time>
      </trkpt>
      <trkpt lat="48.16567" lon="6.42323">
        <ele>412.6</ele>
        <time>2023-10-01T08:51:14Z</time>
      </trkpt>
      <trkpt lat="48.16565" lon="6.42326">
        <ele>412.8</ele>
        <time>2023-10-01T08:51:15Z</time>
      </trkpt>
      <trkpt lat="48.16562" lon="6.42329">
        <ele>412.8</ele>
        <time>2023-10-01T08:51:16Z</time>
      </trkpt>
      <trkpt lat="48.16561" lon="6.42331">
        <ele>412.8</ele>
        <time>2023-10-01T08:51:17Z</time>
      </trkpt>
      <trkpt lat="48.16559" lon="6.42333">
        <ele>412.8</ele>
        <time>2023-10-01T08:51:18Z</time>
      </trkpt>
      <trkpt lat="48.16557" lon="6.42337">
        <ele>413.4</ele>
        <time>2023-10-01T08:51:19Z</time>
      </trkpt>
      <trkpt lat="48.16555" lon="6.42341">
        <ele>413.4</ele>
        <time>2023-10-01T08:51:20Z</time>
      </trkpt>
      <trkpt lat="48.16553" lon="6.42346">
        <ele>413.6</ele>
        <time>2023-10-01T08:51:21Z</time>
      </trkpt>
      <trkpt lat="48.1655" lon="6.42348">
        <ele>413.6</ele>
        <time>2023-10-01T08:51:22Z</time>
      </trkpt>
      <trkpt lat="48.16548" lon="6.42349">
        <ele>413.6</ele>
        <time>2023-10-01T08:51:23Z</time>
      </trkpt>
      <trkpt lat="48.16543" lon="6.42352">
        <ele>413.8</ele>
        <time>2023-10-01T08:51:24Z</time>
      </trkpt>
      <trkpt lat="48.16541" lon="6.42354">
        <ele>414</ele>
        <time>2023-10-01T08:51:25Z</time>
      </trkpt>
      <trkpt lat="48.16539" lon="6.42356">
        <ele>414</ele>
        <time>2023-10-01T08:51:26Z</time>
      </trkpt>
      <trkpt lat="48.16538" lon="6.42359">
        <ele>414.2</ele>
        <time>2023-10-01T08:51:27Z</time>
      </trkpt>
      <trkpt lat="48.16536" lon="6.42363">
        <ele>414.8</ele>
        <time>2023-10-01T08:51:28Z</time>
      </trkpt>
      <trkpt lat="48.16533" lon="6.42365">
        <ele>415.2</ele>
        <time>2023-10-01T08:51:29Z</time>
      </trkpt>
      <trkpt lat="48.16531" lon="6.42367">
        <ele>415.4</ele>
        <time>2023-10-01T08:51:30Z</time>
      </trkpt>
      <trkpt lat="48.16528" lon="6.4237">
        <ele>415.6</ele>
        <time>2023-10-01T08:51:31Z</time>
      </trkpt>
      <trkpt lat="48.16525" lon="6.42374">
        <ele>415.8</ele>
        <time>2023-10-01T08:51:32Z</time>
      </trkpt>
      <trkpt lat="48.16523" lon="6.42377">
        <ele>415.8</ele>
        <time>2023-10-01T08:51:33Z</time>
      </trkpt>
      <trkpt lat="48.16522" lon="6.42379">
        <ele>416</ele>
        <time>2023-10-01T08:51:34Z</time>
      </trkpt>
      <trkpt lat="48.1652" lon="6.42382">
        <ele>416</ele>
        <time>2023-10-01T08:51:35Z</time>
      </trkpt>
      <trkpt lat="48.16516" lon="6.42383">
        <ele>416.2</ele>
        <time>2023-10-01T08:51:36Z</time>
      </trkpt>
      <trkpt lat="48.16515" lon="6.42386">
        <ele>416.2</ele>
        <time>2023-10-01T08:51:37Z</time>
      </trkpt>
      <trkpt lat="48.16514" lon="6.42389">
        <ele>416.4</ele>
        <time>2023-10-01T08:51:38Z</time>
      </trkpt>
      <trkpt lat="48.16511" lon="6.42393">
        <ele>416.6</ele>
        <time>2023-10-01T08:51:39Z</time>
      </trkpt>
      <trkpt lat="48.16508" lon="6.42394">
        <ele>417</ele>
        <time>2023-10-01T08:51:40Z</time>
      </trkpt>
      <trkpt lat="48.16506" lon="6.42396">
        <ele>417</ele>
        <time>2023-10-01T08:51:41Z</time>
      </trkpt>
      <trkpt lat="48.16503" lon="6.42398">
        <ele>417.2</ele>
        <time>2023-10-01T08:51:42Z</time>
      </trkpt>
      <trkpt lat="48.16501" lon="6.424">
        <ele>417.2</ele>
        <time>2023-10-01T08:51:43Z</time>
      </trkpt>
      <trkpt lat="48.16499" lon="6.42401">
        <ele>417.4</ele>
        <time>2023-10-01T08:51:44Z</time>
      </trkpt>
      <trkpt lat="48.16498" lon="6.42404">
        <ele>417.6</ele>
        <time>2023-10-01T08:51:45Z</time>
      </trkpt>
      <trkpt lat="48.16496" lon="6.42407">
        <ele>417.6</ele>
        <time>2023-10-01T08:51:46Z</time>
      </trkpt>
      <trkpt lat="48.16492" lon="6.4241">
        <ele>417.8</ele>
        <time>2023-10-01T08:51:47Z</time>
      </trkpt>
      <trkpt lat="48.16489" lon="6.42412">
        <ele>417.8</ele>
        <time>2023-10-01T08:51:48Z</time>
      </trkpt>
      <trkpt lat="48.16486" lon="6.42414">
        <ele>417.8</ele>
        <time>2023-10-01T08:51:49Z</time>
      </trkpt>
      <trkpt lat="48.16483" lon="6.42416">
        <ele>418</ele>
        <time>2023-10-01T08:51:50Z</time>
      </trkpt>
      <trkpt lat="48.16479" lon="6.42418">
        <ele>418.2</ele>
        <time>2023-10-01T08:51:51Z</time>
      </trkpt>
      <trkpt lat="48.16475" lon="6.42421">
        <ele>418.4</ele>
        <time>2023-10-01T08:51:52Z</time>
      </trkpt>
      <trkpt lat="48.16473" lon="6.42425">
        <ele>418.6</ele>
        <time>2023-10-01T08:51:53Z</time>
      </trkpt>
      <trkpt lat="48.1647" lon="6.42429">
        <ele>418.8</ele>
        <time>2023-10-01T08:51:54Z</time>
      </trkpt>
      <trkpt lat="48.16467" lon="6.42432">
        <ele>419</ele>
        <time>2023-10-01T08:51:55Z</time>
      </trkpt>
      <trkpt lat="48.16464" lon="6.42435">
        <ele>419</ele>
        <time>2023-10-01T08:51:56Z</time>
      </trkpt>
      <trkpt lat="48.16461" lon="6.42438">
        <ele>419.2</ele>
        <time>2023-10-01T08:51:57Z</time>
      </trkpt>
      <trkpt lat="48.16459" lon="6.42441">
        <ele>419.4</ele>
        <time>2023-10-01T08:51:58Z</time>
      </trkpt>
      <trkpt lat="48.16457" lon="6.42443">
        <ele>419.6</ele>
        <time>2023-10-01T08:51:59Z</time>
      </trkpt>
      <trkpt lat="48.16455" lon="6.42447">
        <ele>419.8</ele>
        <time>2023-10-01T08:52:00Z</time>
      </trkpt>
      <trkpt lat="48.16453" lon="6.42449">
        <ele>420</ele>
        <time>2023-10-01T08:52:01Z</time>
      </trkpt>
      <trkpt lat="48.1645" lon="6.42453">
        <ele>420.4</ele>
        <time>2023-10-01T08:52:02Z</time>
      </trkpt>
      <trkpt lat="48.16446" lon="6.42456">
        <ele>420.8</ele>
        <time>2023-10-01T08:52:03Z</time>
      </trkpt>
      <trkpt lat="48.16443" lon="6.4246">
        <ele>421.2</ele>
        <time>2023-10-01T08:52:04Z</time>
      </trkpt>
      <trkpt lat="48.16442" lon="6.42463">
        <ele>421.2</ele>
        <time>2023-10-01T08:52:05Z</time>
      </trkpt>
      <trkpt lat="48.1644" lon="6.42467">
        <ele>421.6</ele>
        <time>2023-10-01T08:52:06Z</time>
      </trkpt>
      <trkpt lat="48.16437" lon="6.4247">
        <ele>421.8</ele>
        <time>2023-10-01T08:52:07Z</time>
      </trkpt>
      <trkpt lat="48.16434" lon="6.42473">
        <ele>422</ele>
        <time>2023-10-01T08:52:08Z</time>
      </trkpt>
      <trkpt lat="48.16432" lon="6.42477">
        <ele>422</ele>
        <time>2023-10-01T08:52:09Z</time>
      </trkpt>
      <trkpt lat="48.16429" lon="6.42482">
        <ele>422.2</ele>
        <time>2023-10-01T08:52:10Z</time>
      </trkpt>
      <trkpt lat="48.16429" lon="6.42484">
        <ele>422.2</ele>
        <time>2023-10-01T08:52:11Z</time>
      </trkpt>
      <trkpt lat="48.16429" lon="6.42486">
        <ele>422.4</ele>
        <time>2023-10-01T08:52:12Z</time>
      </trkpt>
      <trkpt lat="48.16428" lon="6.4249">
        <ele>422.4</ele>
        <time>2023-10-01T08:52:13Z</time>
      </trkpt>
      <trkpt lat="48.16428" lon="6.42492">
        <ele>422.6</ele>
        <time>2023-10-01T08:52:14Z</time>
      </trkpt>
      <trkpt lat="48.16428" lon="6.42495">
        <ele>422.8</ele>
        <time>2023-10-01T08:52:15Z</time>
      </trkpt>
      <trkpt lat="48.16429" lon="6.42498">
        <ele>423.2</ele>
        <time>2023-10-01T08:52:16Z</time>
      </trkpt>
      <trkpt lat="48.16429" lon="6.425">
        <ele>423.4</ele>
        <time>2023-10-01T08:52:17Z</time>
      </trkpt>
      <trkpt lat="48.1643" lon="6.42504">
        <ele>423.4</ele>
        <time>2023-10-01T08:52:18Z</time>
      </trkpt>
      <trkpt lat="48.1643" lon="6.42509">
        <ele>423.6</ele>
        <time>2023-10-01T08:52:19Z</time>
      </trkpt>
      <trkpt lat="48.1643" lon="6.42514">
        <ele>423.6</ele>
        <time>2023-10-01T08:52:20Z</time>
      </trkpt>
      <trkpt lat="48.1643" lon="6.42518">
        <ele>423.6</ele>
        <time>2023-10-01T08:52:21Z</time>
      </trkpt>
      <trkpt lat="48.16429" lon="6.42523">
        <ele>423.8</ele>
        <time>2023-10-01T08:52:22Z</time>
      </trkpt>
      <trkpt lat="48.16429" lon="6.42528">
        <ele>423.8</ele>
        <time>2023-10-01T08:52:23Z</time>
      </trkpt>
      <trkpt lat="48.1643" lon="6.42534">
        <ele>423.8</ele>
        <time>2023-10-01T08:52:24Z</time>
      </trkpt>
      <trkpt lat="48.1643" lon="6.42539">
        <ele>423.8</ele>
        <time>2023-10-01T08:52:25Z</time>
      </trkpt>
      <trkpt lat="48.1643" lon="6.42545">
        <ele>424</ele>
        <time>2023-10-01T08:52:26Z</time>
      </trkpt>
      <trkpt lat="48.16431" lon="6.4255">
        <ele>424.2</ele>
        <time>2023-10-01T08:52:27Z</time>
      </trkpt>
      <trkpt lat="48.16433" lon="6.42554">
        <ele>424.4</ele>
        <time>2023-10-01T08:52:28Z</time>
      </trkpt>
      <trkpt lat="48.16433" lon="6.42557">
        <ele>424.6</ele>
        <time>2023-10-01T08:52:29Z</time>
      </trkpt>
      <trkpt lat="48.16434" lon="6.42562">
        <ele>424.8</ele>
        <time>2023-10-01T08:52:30Z</time>
      </trkpt>
      <trkpt lat="48.16434" lon="6.42567">
        <ele>425.4</ele>
        <time>2023-10-01T08:52:31Z</time>
      </trkpt>
      <trkpt lat="48.16433" lon="6.42571">
        <ele>425.6</ele>
        <time>2023-10-01T08:52:32Z</time>
      </trkpt>
      <trkpt lat="48.16433" lon="6.42575">
        <ele>425.6</ele>
        <time>2023-10-01T08:52:33Z</time>
      </trkpt>
      <trkpt lat="48.16432" lon="6.42579">
        <ele>425.8</ele>
        <time>2023-10-01T08:52:34Z</time>
      </trkpt>
      <trkpt lat="48.16432" lon="6.42583">
        <ele>426</ele>
        <time>2023-10-01T08:52:35Z</time>
      </trkpt>
      <trkpt lat="48.16432" lon="6.42586">
        <ele>426</ele>
        <time>2023-10-01T08:52:36Z</time>
      </trkpt>
      <trkpt lat="48.16432" lon="6.42591">
        <ele>426.2</ele>
        <time>2023-10-01T08:52:37Z</time>
      </trkpt>
      <trkpt lat="48.1643" lon="6.42596">
        <ele>426.6</ele>
        <time>2023-10-01T08:52:38Z</time>
      </trkpt>
      <trkpt lat="48.16431" lon="6.42601">
        <ele>426.6</ele>
        <time>2023-10-01T08:52:39Z</time>
      </trkpt>
      <trkpt lat="48.16432" lon="6.42605">
        <ele>426.8</ele>
        <time>2023-10-01T08:52:40Z</time>
      </trkpt>
      <trkpt lat="48.16432" lon="6.42611">
        <ele>427</ele>
        <time>2023-10-01T08:52:41Z</time>
      </trkpt>
      <trkpt lat="48.16432" lon="6.42615">
        <ele>427.4</ele>
        <time>2023-10-01T08:52:42Z</time>
      </trkpt>
      <trkpt lat="48.16433" lon="6.4262">
        <ele>427.6</ele>
        <time>2023-10-01T08:52:43Z</time>
      </trkpt>
      <trkpt lat="48.16433" lon="6.42626">
        <ele>427.8</ele>
        <time>2023-10-01T08:52:44Z</time>
      </trkpt>
      <trkpt lat="48.16433" lon="6.42634">
        <ele>427.8</ele>
        <time>2023-10-01T08:52:45Z</time>
      </trkpt>
      <trkpt lat="48.16431" lon="6.42641">
        <ele>428</ele>
        <time>2023-10-01T08:52:46Z</time>
      </trkpt>
      <trkpt lat="48.1643" lon="6.42647">
        <ele>428</ele>
        <time>2023-10-01T08:52:47Z</time>
      </trkpt>
      <trkpt lat="48.1643" lon="6.42652">
        <ele>428.2</ele>
        <time>2023-10-01T08:52:48Z</time>
      </trkpt>
      <trkpt lat="48.1643" lon="6.42657">
        <ele>428.6</ele>
        <time>2023-10-01T08:52:49Z</time>
      </trkpt>
      <trkpt lat="48.1643" lon="6.42662">
        <ele>428.8</ele>
        <time>2023-10-01T08:52:50Z</time>
      </trkpt>
      <trkpt lat="48.16431" lon="6.42668">
        <ele>428.8</ele>
        <time>2023-10-01T08:52:51Z</time>
      </trkpt>
      <trkpt lat="48.1643" lon="6.42675">
        <ele>428.8</ele>
        <time>2023-10-01T08:52:52Z</time>
      </trkpt>
      <trkpt lat="48.16431" lon="6.42681">
        <ele>429</ele>
        <time>2023-10-01T08:52:53Z</time>
      </trkpt>
      <trkpt lat="48.16432" lon="6.42689">
        <ele>429</ele>
        <time>2023-10-01T08:52:54Z</time>
      </trkpt>
      <trkpt lat="48.16432" lon="6.42695">
        <ele>429.2</ele>
        <time>2023-10-01T08:52:55Z</time>
      </trkpt>
      <trkpt lat="48.1643" lon="6.42701">
        <ele>429.2</ele>
        <time>2023-10-01T08:52:56Z</time>
      </trkpt>
      <trkpt lat="48.16428" lon="6.42704">
        <ele>429.2</ele>
        <time>2023-10-01T08:52:57Z</time>
      </trkpt>
      <trkpt lat="48.16426" lon="6.42707">
        <ele>429.2</ele>
        <time>2023-10-01T08:52:58Z</time>
      </trkpt>
      <trkpt lat="48.16424" lon="6.42708">
        <ele>429.4</ele>
        <time>2023-10-01T08:52:59Z</time>
      </trkpt>
      <trkpt lat="48.16423" lon="6.42708">
        <ele>429.4</ele>
        <time>2023-10-01T08:53:00Z</time>
      </trkpt>
      <trkpt lat="48.1642" lon="6.42706">
        <ele>429.4</ele>
        <time>2023-10-01T08:53:01Z</time>
      </trkpt>
      <trkpt lat="48.16418" lon="6.42704">
        <ele>429.4</ele>
        <time>2023-10-01T08:53:02Z</time>
      </trkpt>
      <trkpt lat="48.16415" lon="6.42703">
        <ele>429.6</ele>
        <time>2023-10-01T08:53:03Z</time>
      </trkpt>
      <trkpt lat="48.16412" lon="6.42701">
        <ele>429.6</ele>
        <time>2023-10-01T08:53:04Z</time>
      </trkpt>
      <trkpt lat="48.16409" lon="6.42699">
        <ele>429.6</ele>
        <time>2023-10-01T08:53:05Z</time>
      </trkpt>
      <trkpt lat="48.16407" lon="6.42697">
        <ele>429.6</ele>
        <time>2023-10-01T08:53:06Z</time>
      </trkpt>
      <trkpt lat="48.16402" lon="6.42694">
        <ele>429.6</ele>
        <time>2023-10-01T08:53:07Z</time>
      </trkpt>
      <trkpt lat="48.16399" lon="6.4269">
        <ele>429.4</ele>
        <time>2023-10-01T08:53:08Z</time>
      </trkpt>
      <trkpt lat="48.16395" lon="6.42685">
        <ele>429.4</ele>
        <time>2023-10-01T08:53:09Z</time>
      </trkpt>
      <trkpt lat="48.16391" lon="6.42681">
        <ele>429</ele>
        <time>2023-10-01T08:53:10Z</time>
      </trkpt>
      <trkpt lat="48.16386" lon="6.42675">
        <ele>429</ele>
        <time>2023-10-01T08:53:11Z</time>
      </trkpt>
      <trkpt lat="48.16381" lon="6.42669">
        <ele>428.2</ele>
        <time>2023-10-01T08:53:12Z</time>
      </trkpt>
      <trkpt lat="48.16376" lon="6.42663">
        <ele>427.8</ele>
        <time>2023-10-01T08:53:13Z</time>
      </trkpt>
      <trkpt lat="48.16372" lon="6.42658">
        <ele>427.6</ele>
        <time>2023-10-01T08:53:14Z</time>
      </trkpt>
      <trkpt lat="48.16367" lon="6.42653">
        <ele>427.4</ele>
        <time>2023-10-01T08:53:15Z</time>
      </trkpt>
      <trkpt lat="48.16364" lon="6.4265">
        <ele>427</ele>
        <time>2023-10-01T08:53:16Z</time>
      </trkpt>
      <trkpt lat="48.16361" lon="6.42649">
        <ele>426.6</ele>
        <time>2023-10-01T08:53:17Z</time>
      </trkpt>
      <trkpt lat="48.16359" lon="6.42648">
        <ele>426.4</ele>
        <time>2023-10-01T08:53:18Z</time>
      </trkpt>
      <trkpt lat="48.16357" lon="6.42648">
        <ele>426.2</ele>
        <time>2023-10-01T08:53:19Z</time>
      </trkpt>
      <trkpt lat="48.16355" lon="6.42648">
        <ele>426</ele>
        <time>2023-10-01T08:53:20Z</time>
      </trkpt>
      <trkpt lat="48.16353" lon="6.42647">
        <ele>426</ele>
        <time>2023-10-01T08:53:21Z</time>
      </trkpt>
      <trkpt lat="48.16351" lon="6.42647">
        <ele>426</ele>
        <time>2023-10-01T08:53:22Z</time>
      </trkpt>
      <trkpt lat="48.16348" lon="6.42647">
        <ele>426</ele>
        <time>2023-10-01T08:53:23Z</time>
      </trkpt>
      <trkpt lat="48.16345" lon="6.42647">
        <ele>426</ele>
        <time>2023-10-01T08:53:24Z</time>
      </trkpt>
      <trkpt lat="48.16341" lon="6.42647">
        <ele>426.2</ele>
        <time>2023-10-01T08:53:25Z</time>
      </trkpt>
      <trkpt lat="48.16338" lon="6.42645">
        <ele>426.2</ele>
        <time>2023-10-01T08:53:26Z</time>
      </trkpt>
      <trkpt lat="48.16334" lon="6.42644">
        <ele>426.8</ele>
        <time>2023-10-01T08:53:27Z</time>
      </trkpt>
      <trkpt lat="48.1633" lon="6.42644">
        <ele>427</ele>
        <time>2023-10-01T08:53:28Z</time>
      </trkpt>
      <trkpt lat="48.16325" lon="6.42643">
        <ele>427</ele>
        <time>2023-10-01T08:53:29Z</time>
      </trkpt>
      <trkpt lat="48.16322" lon="6.42642">
        <ele>427.2</ele>
        <time>2023-10-01T08:53:30Z</time>
      </trkpt>
      <trkpt lat="48.1632" lon="6.42641">
        <ele>427.6</ele>
        <time>2023-10-01T08:53:31Z</time>
      </trkpt>
      <trkpt lat="48.16318" lon="6.42639">
        <ele>428</ele>
        <time>2023-10-01T08:53:32Z</time>
      </trkpt>
      <trkpt lat="48.16316" lon="6.42637">
        <ele>428.6</ele>
        <time>2023-10-01T08:53:33Z</time>
      </trkpt>
      <trkpt lat="48.16314" lon="6.42632">
        <ele>428.6</ele>
        <time>2023-10-01T08:53:34Z</time>
      </trkpt>
      <trkpt lat="48.1631" lon="6.4263">
        <ele>428.8</ele>
        <time>2023-10-01T08:53:35Z</time>
      </trkpt>
      <trkpt lat="48.16309" lon="6.42631">
        <ele>429.2</ele>
        <time>2023-10-01T08:53:36Z</time>
      </trkpt>
      <trkpt lat="48.16308" lon="6.42631">
        <ele>429.2</ele>
        <time>2023-10-01T08:53:37Z</time>
      </trkpt>
      <trkpt lat="48.16306" lon="6.42634">
        <ele>429.4</ele>
        <time>2023-10-01T08:53:38Z</time>
      </trkpt>
      <trkpt lat="48.16304" lon="6.42635">
        <ele>429.4</ele>
        <time>2023-10-01T08:53:39Z</time>
      </trkpt>
      <trkpt lat="48.16299" lon="6.42637">
        <ele>429.6</ele>
        <time>2023-10-01T08:53:40Z</time>
      </trkpt>
      <trkpt lat="48.16296" lon="6.42639">
        <ele>429.8</ele>
        <time>2023-10-01T08:53:41Z</time>
      </trkpt>
      <trkpt lat="48.16293" lon="6.4264">
        <ele>429.8</ele>
        <time>2023-10-01T08:53:42Z</time>
      </trkpt>
      <trkpt lat="48.16291" lon="6.42642">
        <ele>429.8</ele>
        <time>2023-10-01T08:53:43Z</time>
      </trkpt>
      <trkpt lat="48.16287" lon="6.42643">
        <ele>430.2</ele>
        <time>2023-10-01T08:53:44Z</time>
      </trkpt>
      <trkpt lat="48.16285" lon="6.42644">
        <ele>430.2</ele>
        <time>2023-10-01T08:53:45Z</time>
      </trkpt>
      <trkpt lat="48.16283" lon="6.42648">
        <ele>430.4</ele>
        <time>2023-10-01T08:53:46Z</time>
      </trkpt>
      <trkpt lat="48.16282" lon="6.4265">
        <ele>430.6</ele>
        <time>2023-10-01T08:53:47Z</time>
      </trkpt>
      <trkpt lat="48.16281" lon="6.42652">
        <ele>431.4</ele>
        <time>2023-10-01T08:53:48Z</time>
      </trkpt>
      <trkpt lat="48.16279" lon="6.42655">
        <ele>431.6</ele>
        <time>2023-10-01T08:53:49Z</time>
      </trkpt>
      <trkpt lat="48.16276" lon="6.42657">
        <ele>431.8</ele>
        <time>2023-10-01T08:53:50Z</time>
      </trkpt>
      <trkpt lat="48.16272" lon="6.4266">
        <ele>432</ele>
        <time>2023-10-01T08:53:51Z</time>
      </trkpt>
      <trkpt lat="48.16269" lon="6.42662">
        <ele>432.6</ele>
        <time>2023-10-01T08:53:52Z</time>
      </trkpt>
      <trkpt lat="48.16267" lon="6.42663">
        <ele>432.8</ele>
        <time>2023-10-01T08:53:53Z</time>
      </trkpt>
      <trkpt lat="48.16265" lon="6.42665">
        <ele>433</ele>
        <time>2023-10-01T08:53:54Z</time>
      </trkpt>
      <trkpt lat="48.16262" lon="6.42668">
        <ele>433.2</ele>
        <time>2023-10-01T08:53:55Z</time>
      </trkpt>
      <trkpt lat="48.16261" lon="6.42672">
        <ele>433.6</ele>
        <time>2023-10-01T08:53:56Z</time>
      </trkpt>
      <trkpt lat="48.16259" lon="6.42675">
        <ele>434</ele>
        <time>2023-10-01T08:53:57Z</time>
      </trkpt>
      <trkpt lat="48.16257" lon="6.42677">
        <ele>434.2</ele>
        <time>2023-10-01T08:53:58Z</time>
      </trkpt>
      <trkpt lat="48.16256" lon="6.4268">
        <ele>434.6</ele>
        <time>2023-10-01T08:53:59Z</time>
      </trkpt>
      <trkpt lat="48.16254" lon="6.42681">
        <ele>434.8</ele>
        <time>2023-10-01T08:54:00Z</time>
      </trkpt>
      <trkpt lat="48.16253" lon="6.42682">
        <ele>435.2</ele>
        <time>2023-10-01T08:54:01Z</time>
      </trkpt>
      <trkpt lat="48.16251" lon="6.42683">
        <ele>435.4</ele>
        <time>2023-10-01T08:54:02Z</time>
      </trkpt>
      <trkpt lat="48.16249" lon="6.42684">
        <ele>435.6</ele>
        <time>2023-10-01T08:54:03Z</time>
      </trkpt>
      <trkpt lat="48.16248" lon="6.42684">
        <ele>435.8</ele>
        <time>2023-10-01T08:54:04Z</time>
      </trkpt>
      <trkpt lat="48.16246" lon="6.42684">
        <ele>436</ele>
        <time>2023-10-01T08:54:05Z</time>
      </trkpt>
      <trkpt lat="48.16244" lon="6.42684">
        <ele>436</ele>
        <time>2023-10-01T08:54:06Z</time>
      </trkpt>
      <trkpt lat="48.16241" lon="6.42683">
        <ele>436.4</ele>
        <time>2023-10-01T08:54:07Z</time>
      </trkpt>
      <trkpt lat="48.16239" lon="6.42683">
        <ele>436.8</ele>
        <time>2023-10-01T08:54:08Z</time>
      </trkpt>
      <trkpt lat="48.16237" lon="6.42682">
        <ele>437</ele>
        <time>2023-10-01T08:54:09Z</time>
      </trkpt>
      <trkpt lat="48.16234" lon="6.42682">
        <ele>437</ele>
        <time>2023-10-01T08:54:10Z</time>
      </trkpt>
      <trkpt lat="48.16232" lon="6.42681">
        <ele>437</ele>
        <time>2023-10-01T08:54:11Z</time>
      </trkpt>
      <trkpt lat="48.16229" lon="6.42679">
        <ele>437.4</ele>
        <time>2023-10-01T08:54:12Z</time>
      </trkpt>
      <trkpt lat="48.16226" lon="6.42678">
        <ele>437.4</ele>
        <time>2023-10-01T08:54:13Z</time>
      </trkpt>
      <trkpt lat="48.1622" lon="6.42676">
        <ele>437.4</ele>
        <time>2023-10-01T08:54:14Z</time>
      </trkpt>
      <trkpt lat="48.16215" lon="6.42678">
        <ele>437.4</ele>
        <time>2023-10-01T08:54:15Z</time>
      </trkpt>
      <trkpt lat="48.16212" lon="6.4268">
        <ele>437.4</ele>
        <time>2023-10-01T08:54:16Z</time>
      </trkpt>
      <trkpt lat="48.16207" lon="6.42683">
        <ele>437.4</ele>
        <time>2023-10-01T08:54:17Z</time>
      </trkpt>
      <trkpt lat="48.16203" lon="6.42683">
        <ele>437.4</ele>
        <time>2023-10-01T08:54:18Z</time>
      </trkpt>
      <trkpt lat="48.16199" lon="6.42683">
        <ele>437.4</ele>
        <time>2023-10-01T08:54:19Z</time>
      </trkpt>
      <trkpt lat="48.16196" lon="6.42683">
        <ele>437.4</ele>
        <time>2023-10-01T08:54:20Z</time>
      </trkpt>
      <trkpt lat="48.16192" lon="6.42685">
        <ele>437.2</ele>
        <time>2023-10-01T08:54:21Z</time>
      </trkpt>
      <trkpt lat="48.16189" lon="6.42688">
        <ele>437</ele>
        <time>2023-10-01T08:54:22Z</time>
      </trkpt>
      <trkpt lat="48.16186" lon="6.42693">
        <ele>437</ele>
        <time>2023-10-01T08:54:23Z</time>
      </trkpt>
      <trkpt lat="48.16183" lon="6.42698">
        <ele>437</ele>
        <time>2023-10-01T08:54:24Z</time>
      </trkpt>
      <trkpt lat="48.1618" lon="6.42703">
        <ele>437</ele>
        <time>2023-10-01T08:54:25Z</time>
      </trkpt>
      <trkpt lat="48.16178" lon="6.42707">
        <ele>437</ele>
        <time>2023-10-01T08:54:26Z</time>
      </trkpt>
      <trkpt lat="48.16176" lon="6.42712">
        <ele>436.8</ele>
        <time>2023-10-01T08:54:27Z</time>
      </trkpt>
      <trkpt lat="48.16176" lon="6.42716">
        <ele>436.8</ele>
        <time>2023-10-01T08:54:28Z</time>
      </trkpt>
      <trkpt lat="48.16175" lon="6.42721">
        <ele>436.8</ele>
        <time>2023-10-01T08:54:29Z</time>
      </trkpt>
      <trkpt lat="48.16175" lon="6.42727">
        <ele>436.8</ele>
        <time>2023-10-01T08:54:30Z</time>
      </trkpt>
      <trkpt lat="48.16175" lon="6.42731">
        <ele>436.8</ele>
        <time>2023-10-01T08:54:31Z</time>
      </trkpt>
      <trkpt lat="48.16176" lon="6.42738">
        <ele>436.8</ele>
        <time>2023-10-01T08:54:32Z</time>
      </trkpt>
      <trkpt lat="48.16175" lon="6.42743">
        <ele>436.8</ele>
        <time>2023-10-01T08:54:33Z</time>
      </trkpt>
      <trkpt lat="48.16176" lon="6.42748">
        <ele>436.8</ele>
        <time>2023-10-01T08:54:34Z</time>
      </trkpt>
      <trkpt lat="48.16176" lon="6.42752">
        <ele>436.8</ele>
        <time>2023-10-01T08:54:35Z</time>
      </trkpt>
      <trkpt lat="48.16175" lon="6.42758">
        <ele>436.8</ele>
        <time>2023-10-01T08:54:36Z</time>
      </trkpt>
      <trkpt lat="48.16177" lon="6.42765">
        <ele>437</ele>
        <time>2023-10-01T08:54:37Z</time>
      </trkpt>
      <trkpt lat="48.16178" lon="6.4277">
        <ele>437.2</ele>
        <time>2023-10-01T08:54:38Z</time>
      </trkpt>
      <trkpt lat="48.16179" lon="6.42774">
        <ele>437.4</ele>
        <time>2023-10-01T08:54:39Z</time>
      </trkpt>
      <trkpt lat="48.1618" lon="6.42778">
        <ele>437.4</ele>
        <time>2023-10-01T08:54:40Z</time>
      </trkpt>
      <trkpt lat="48.1618" lon="6.42781">
        <ele>437.6</ele>
        <time>2023-10-01T08:54:41Z</time>
      </trkpt>
      <trkpt lat="48.1618" lon="6.42786">
        <ele>437.8</ele>
        <time>2023-10-01T08:54:42Z</time>
      </trkpt>
      <trkpt lat="48.16181" lon="6.42791">
        <ele>438</ele>
        <time>2023-10-01T08:54:43Z</time>
      </trkpt>
      <trkpt lat="48.16182" lon="6.42795">
        <ele>438.2</ele>
        <time>2023-10-01T08:54:44Z</time>
      </trkpt>
      <trkpt lat="48.16182" lon="6.42798">
        <ele>438.2</ele>
        <time>2023-10-01T08:54:45Z</time>
      </trkpt>
      <trkpt lat="48.16181" lon="6.42801">
        <ele>438.2</ele>
        <time>2023-10-01T08:54:46Z</time>
      </trkpt>
      <trkpt lat="48.1618" lon="6.42806">
        <ele>438.4</ele>
        <time>2023-10-01T08:54:47Z</time>
      </trkpt>
      <trkpt lat="48.16179" lon="6.4281">
        <ele>438.4</ele>
        <time>2023-10-01T08:54:48Z</time>
      </trkpt>
      <trkpt lat="48.16177" lon="6.42814">
        <ele>438.4</ele>
        <time>2023-10-01T08:54:49Z</time>
      </trkpt>
      <trkpt lat="48.16175" lon="6.4282">
        <ele>438.6</ele>
        <time>2023-10-01T08:54:50Z</time>
      </trkpt>
      <trkpt lat="48.16174" lon="6.42823">
        <ele>438.8</ele>
        <time>2023-10-01T08:54:51Z</time>
      </trkpt>
      <trkpt lat="48.16172" lon="6.42825">
        <ele>439</ele>
        <time>2023-10-01T08:54:52Z</time>
      </trkpt>
      <trkpt lat="48.16172" lon="6.42824">
        <ele>439.2</ele>
        <time>2023-10-01T08:54:53Z</time>
      </trkpt>
      <trkpt lat="48.16171" lon="6.42823">
        <ele>439.6</ele>
        <time>2023-10-01T08:54:54Z</time>
      </trkpt>
      <trkpt lat="48.1617" lon="6.42821">
        <ele>439.6</ele>
        <time>2023-10-01T08:54:55Z</time>
      </trkpt>
      <trkpt lat="48.16168" lon="6.4282">
        <ele>439.8</ele>
        <time>2023-10-01T08:54:56Z</time>
      </trkpt>
      <trkpt lat="48.16166" lon="6.42818">
        <ele>440</ele>
        <time>2023-10-01T08:54:57Z</time>
      </trkpt>
      <trkpt lat="48.16163" lon="6.42817">
        <ele>440</ele>
        <time>2023-10-01T08:54:58Z</time>
      </trkpt>
      <trkpt lat="48.1616" lon="6.42816">
        <ele>440.2</ele>
        <time>2023-10-01T08:54:59Z</time>
      </trkpt>
      <trkpt lat="48.16157" lon="6.42814">
        <ele>440.2</ele>
        <time>2023-10-01T08:55:00Z</time>
      </trkpt>
      <trkpt lat="48.16155" lon="6.42813">
        <ele>440.2</ele>
        <time>2023-10-01T08:55:01Z</time>
      </trkpt>
      <trkpt lat="48.16152" lon="6.4281">
        <ele>440.2</ele>
        <time>2023-10-01T08:55:02Z</time>
      </trkpt>
      <trkpt lat="48.16148" lon="6.42808">
        <ele>440.4</ele>
        <time>2023-10-01T08:55:03Z</time>
      </trkpt>
      <trkpt lat="48.16145" lon="6.42806">
        <ele>440.4</ele>
        <time>2023-10-01T08:55:04Z</time>
      </trkpt>
      <trkpt lat="48.16143" lon="6.42804">
        <ele>440.6</ele>
        <time>2023-10-01T08:55:05Z</time>
      </trkpt>
      <trkpt lat="48.1614" lon="6.42801">
        <ele>440.6</ele>
        <time>2023-10-01T08:55:06Z</time>
      </trkpt>
      <trkpt lat="48.16136" lon="6.42799">
        <ele>440.4</ele>
        <time>2023-10-01T08:55:07Z</time>
      </trkpt>
      <trkpt lat="48.16134" lon="6.42797">
        <ele>440.6</ele>
        <time>2023-10-01T08:55:08Z</time>
      </trkpt>
      <trkpt lat="48.16131" lon="6.42794">
        <ele>440.4</ele>
        <time>2023-10-01T08:55:09Z</time>
      </trkpt>
      <trkpt lat="48.16128" lon="6.42792">
        <ele>440.4</ele>
        <time>2023-10-01T08:55:10Z</time>
      </trkpt>
      <trkpt lat="48.16125" lon="6.42789">
        <ele>440.4</ele>
        <time>2023-10-01T08:55:11Z</time>
      </trkpt>
      <trkpt lat="48.16122" lon="6.42785">
        <ele>440.4</ele>
        <time>2023-10-01T08:55:12Z</time>
      </trkpt>
      <trkpt lat="48.16119" lon="6.42783">
        <ele>440.4</ele>
        <time>2023-10-01T08:55:13Z</time>
      </trkpt>
      <trkpt lat="48.16116" lon="6.4278">
        <ele>440.4</ele>
        <time>2023-10-01T08:55:14Z</time>
      </trkpt>
      <trkpt lat="48.16114" lon="6.42777">
        <ele>440.4</ele>
        <time>2023-10-01T08:55:15Z</time>
      </trkpt>
      <trkpt lat="48.16111" lon="6.42773">
        <ele>440.2</ele>
        <time>2023-10-01T08:55:16Z</time>
      </trkpt>
      <trkpt lat="48.16109" lon="6.4277">
        <ele>440</ele>
        <time>2023-10-01T08:55:17Z</time>
      </trkpt>
      <trkpt lat="48.16106" lon="6.42767">
        <ele>440</ele>
        <time>2023-10-01T08:55:18Z</time>
      </trkpt>
      <trkpt lat="48.16103" lon="6.42765">
        <ele>439.8</ele>
        <time>2023-10-01T08:55:19Z</time>
      </trkpt>
      <trkpt lat="48.16101" lon="6.42762">
        <ele>439.8</ele>
        <time>2023-10-01T08:55:20Z</time>
      </trkpt>
      <trkpt lat="48.16098" lon="6.42759">
        <ele>439.8</ele>
        <time>2023-10-01T08:55:21Z</time>
      </trkpt>
      <trkpt lat="48.16095" lon="6.42756">
        <ele>439.8</ele>
        <time>2023-10-01T08:55:22Z</time>
      </trkpt>
      <trkpt lat="48.16092" lon="6.42752">
        <ele>439.8</ele>
        <time>2023-10-01T08:55:23Z</time>
      </trkpt>
      <trkpt lat="48.16089" lon="6.42749">
        <ele>439.8</ele>
        <time>2023-10-01T08:55:24Z</time>
      </trkpt>
      <trkpt lat="48.16086" lon="6.42746">
        <ele>439.8</ele>
        <time>2023-10-01T08:55:25Z</time>
      </trkpt>
      <trkpt lat="48.16082" lon="6.42744">
        <ele>439.8</ele>
        <time>2023-10-01T08:55:26Z</time>
      </trkpt>
      <trkpt lat="48.16078" lon="6.42741">
        <ele>439.8</ele>
        <time>2023-10-01T08:55:27Z</time>
      </trkpt>
      <trkpt lat="48.16075" lon="6.42738">
        <ele>439.8</ele>
        <time>2023-10-01T08:55:28Z</time>
      </trkpt>
      <trkpt lat="48.16071" lon="6.42736">
        <ele>439.6</ele>
        <time>2023-10-01T08:55:29Z</time>
      </trkpt>
      <trkpt lat="48.16068" lon="6.42734">
        <ele>439.6</ele>
        <time>2023-10-01T08:55:30Z</time>
      </trkpt>
      <trkpt lat="48.16064" lon="6.42732">
        <ele>439.4</ele>
        <time>2023-10-01T08:55:31Z</time>
      </trkpt>
      <trkpt lat="48.16059" lon="6.42731">
        <ele>439.4</ele>
        <time>2023-10-01T08:55:32Z</time>
      </trkpt>
      <trkpt lat="48.16054" lon="6.4273">
        <ele>439.2</ele>
        <time>2023-10-01T08:55:33Z</time>
      </trkpt>
      <trkpt lat="48.16049" lon="6.42728">
        <ele>439.2</ele>
        <time>2023-10-01T08:55:34Z</time>
      </trkpt>
      <trkpt lat="48.16044" lon="6.42727">
        <ele>439</ele>
        <time>2023-10-01T08:55:35Z</time>
      </trkpt>
      <trkpt lat="48.16039" lon="6.42725">
        <ele>438.8</ele>
        <time>2023-10-01T08:55:36Z</time>
      </trkpt>
      <trkpt lat="48.16034" lon="6.42724">
        <ele>438.6</ele>
        <time>2023-10-01T08:55:37Z</time>
      </trkpt>
      <trkpt lat="48.16029" lon="6.42724">
        <ele>438.4</ele>
        <time>2023-10-01T08:55:38Z</time>
      </trkpt>
      <trkpt lat="48.16025" lon="6.42726">
        <ele>438.2</ele>
        <time>2023-10-01T08:55:39Z</time>
      </trkpt>
      <trkpt lat="48.16021" lon="6.42727">
        <ele>438.2</ele>
        <time>2023-10-01T08:55:40Z</time>
      </trkpt>
      <trkpt lat="48.16016" lon="6.42727">
        <ele>438.2</ele>
        <time>2023-10-01T08:55:41Z</time>
      </trkpt>
      <trkpt lat="48.1601" lon="6.42725">
        <ele>438</ele>
        <time>2023-10-01T08:55:42Z</time>
      </trkpt>
      <trkpt lat="48.16005" lon="6.42724">
        <ele>438</ele>
        <time>2023-10-01T08:55:43Z</time>
      </trkpt>
      <trkpt lat="48.15999" lon="6.42722">
        <ele>437.8</ele>
        <time>2023-10-01T08:55:44Z</time>
      </trkpt>
      <trkpt lat="48.15993" lon="6.4272">
        <ele>437.8</ele>
        <time>2023-10-01T08:55:45Z</time>
      </trkpt>
      <trkpt lat="48.1599" lon="6.42717">
        <ele>437.8</ele>
        <time>2023-10-01T08:55:46Z</time>
      </trkpt>
      <trkpt lat="48.15988" lon="6.42713">
        <ele>437.6</ele>
        <time>2023-10-01T08:55:47Z</time>
      </trkpt>
      <trkpt lat="48.15985" lon="6.42708">
        <ele>437.6</ele>
        <time>2023-10-01T08:55:48Z</time>
      </trkpt>
      <trkpt lat="48.15983" lon="6.42702">
        <ele>437.6</ele>
        <time>2023-10-01T08:55:49Z</time>
      </trkpt>
      <trkpt lat="48.15983" lon="6.42694">
        <ele>437.6</ele>
        <time>2023-10-01T08:55:50Z</time>
      </trkpt>
      <trkpt lat="48.15983" lon="6.42687">
        <ele>437.4</ele>
        <time>2023-10-01T08:55:51Z</time>
      </trkpt>
      <trkpt lat="48.15983" lon="6.42682">
        <ele>437.4</ele>
        <time>2023-10-01T08:55:52Z</time>
      </trkpt>
      <trkpt lat="48.15983" lon="6.42676">
        <ele>437.4</ele>
        <time>2023-10-01T08:55:53Z</time>
      </trkpt>
      <trkpt lat="48.15983" lon="6.4267">
        <ele>437.4</ele>
        <time>2023-10-01T08:55:54Z</time>
      </trkpt>
      <trkpt lat="48.15983" lon="6.42661">
        <ele>437.2</ele>
        <time>2023-10-01T08:55:55Z</time>
      </trkpt>
      <trkpt lat="48.15983" lon="6.42652">
        <ele>436.8</ele>
        <time>2023-10-01T08:55:56Z</time>
      </trkpt>
      <trkpt lat="48.15983" lon="6.42645">
        <ele>436.6</ele>
        <time>2023-10-01T08:55:57Z</time>
      </trkpt>
      <trkpt lat="48.15982" lon="6.42639">
        <ele>436.4</ele>
        <time>2023-10-01T08:55:58Z</time>
      </trkpt>
      <trkpt lat="48.15982" lon="6.42633">
        <ele>436.4</ele>
        <time>2023-10-01T08:55:59Z</time>
      </trkpt>
      <trkpt lat="48.15982" lon="6.42626">
        <ele>436.4</ele>
        <time>2023-10-01T08:56:00Z</time>
      </trkpt>
      <trkpt lat="48.15983" lon="6.4262">
        <ele>436</ele>
        <time>2023-10-01T08:56:01Z</time>
      </trkpt>
      <trkpt lat="48.15984" lon="6.42612">
        <ele>435.6</ele>
        <time>2023-10-01T08:56:02Z</time>
      </trkpt>
      <trkpt lat="48.15986" lon="6.42606">
        <ele>435.2</ele>
        <time>2023-10-01T08:56:03Z</time>
      </trkpt>
      <trkpt lat="48.15988" lon="6.426">
        <ele>435.2</ele>
        <time>2023-10-01T08:56:04Z</time>
      </trkpt>
      <trkpt lat="48.1599" lon="6.42593">
        <ele>435</ele>
        <time>2023-10-01T08:56:05Z</time>
      </trkpt>
      <trkpt lat="48.15992" lon="6.42587">
        <ele>435</ele>
        <time>2023-10-01T08:56:06Z</time>
      </trkpt>
      <trkpt lat="48.15995" lon="6.42582">
        <ele>435</ele>
        <time>2023-10-01T08:56:07Z</time>
      </trkpt>
      <trkpt lat="48.15999" lon="6.42577">
        <ele>435</ele>
        <time>2023-10-01T08:56:08Z</time>
      </trkpt>
      <trkpt lat="48.16004" lon="6.42572">
        <ele>435.4</ele>
        <time>2023-10-01T08:56:09Z</time>
      </trkpt>
      <trkpt lat="48.16008" lon="6.42567">
        <ele>435.6</ele>
        <time>2023-10-01T08:56:10Z</time>
      </trkpt>
      <trkpt lat="48.16012" lon="6.42562">
        <ele>435.8</ele>
        <time>2023-10-01T08:56:11Z</time>
      </trkpt>
      <trkpt lat="48.16016" lon="6.42557">
        <ele>435.8</ele>
        <time>2023-10-01T08:56:12Z</time>
      </trkpt>
      <trkpt lat="48.16019" lon="6.42553">
        <ele>436</ele>
        <time>2023-10-01T08:56:13Z</time>
      </trkpt>
      <trkpt lat="48.16023" lon="6.42546">
        <ele>436.4</ele>
        <time>2023-10-01T08:56:14Z</time>
      </trkpt>
      <trkpt lat="48.16027" lon="6.4254">
        <ele>436.6</ele>
        <time>2023-10-01T08:56:15Z</time>
      </trkpt>
      <trkpt lat="48.16031" lon="6.42535">
        <ele>436.6</ele>
        <time>2023-10-01T08:56:16Z</time>
      </trkpt>
      <trkpt lat="48.16035" lon="6.4253">
        <ele>436.6</ele>
        <time>2023-10-01T08:56:17Z</time>
      </trkpt>
      <trkpt lat="48.16037" lon="6.42524">
        <ele>436.8</ele>
        <time>2023-10-01T08:56:18Z</time>
      </trkpt>
      <trkpt lat="48.16038" lon="6.42519">
        <ele>436.8</ele>
        <time>2023-10-01T08:56:19Z</time>
      </trkpt>
      <trkpt lat="48.16035" lon="6.42517">
        <ele>436.8</ele>
        <time>2023-10-01T08:56:20Z</time>
      </trkpt>
      <trkpt lat="48.16033" lon="6.42514">
        <ele>436.6</ele>
        <time>2023-10-01T08:56:21Z</time>
      </trkpt>
      <trkpt lat="48.16031" lon="6.42512">
        <ele>436.8</ele>
        <time>2023-10-01T08:56:22Z</time>
      </trkpt>
      <trkpt lat="48.16026" lon="6.42509">
        <ele>436.8</ele>
        <time>2023-10-01T08:56:23Z</time>
      </trkpt>
      <trkpt lat="48.16022" lon="6.42507">
        <ele>436.6</ele>
        <time>2023-10-01T08:56:24Z</time>
      </trkpt>
      <trkpt lat="48.16019" lon="6.42506">
        <ele>436.6</ele>
        <time>2023-10-01T08:56:25Z</time>
      </trkpt>
      <trkpt lat="48.16015" lon="6.42504">
        <ele>436.4</ele>
        <time>2023-10-01T08:56:26Z</time>
      </trkpt>
      <trkpt lat="48.16011" lon="6.42502">
        <ele>436.4</ele>
        <time>2023-10-01T08:56:27Z</time>
      </trkpt>
      <trkpt lat="48.16008" lon="6.425">
        <ele>436.4</ele>
        <time>2023-10-01T08:56:28Z</time>
      </trkpt>
      <trkpt lat="48.16003" lon="6.42498">
        <ele>436.4</ele>
        <time>2023-10-01T08:56:29Z</time>
      </trkpt>
      <trkpt lat="48.15998" lon="6.42494">
        <ele>436.6</ele>
        <time>2023-10-01T08:56:30Z</time>
      </trkpt>
      <trkpt lat="48.15994" lon="6.42492">
        <ele>436.8</ele>
        <time>2023-10-01T08:56:31Z</time>
      </trkpt>
      <trkpt lat="48.1599" lon="6.4249">
        <ele>436.8</ele>
        <time>2023-10-01T08:56:32Z</time>
      </trkpt>
      <trkpt lat="48.15985" lon="6.42488">
        <ele>436.8</ele>
        <time>2023-10-01T08:56:33Z</time>
      </trkpt>
      <trkpt lat="48.15979" lon="6.42486">
        <ele>436.8</ele>
        <time>2023-10-01T08:56:34Z</time>
      </trkpt>
      <trkpt lat="48.15973" lon="6.42483">
        <ele>436.8</ele>
        <time>2023-10-01T08:56:35Z</time>
      </trkpt>
      <trkpt lat="48.15969" lon="6.42481">
        <ele>436.8</ele>
        <time>2023-10-01T08:56:36Z</time>
      </trkpt>
      <trkpt lat="48.15965" lon="6.42478">
        <ele>436.8</ele>
        <time>2023-10-01T08:56:37Z</time>
      </trkpt>
      <trkpt lat="48.15963" lon="6.42473">
        <ele>436.6</ele>
        <time>2023-10-01T08:56:38Z</time>
      </trkpt>
      <trkpt lat="48.15961" lon="6.42466">
        <ele>436.6</ele>
        <time>2023-10-01T08:56:39Z</time>
      </trkpt>
      <trkpt lat="48.15958" lon="6.42459">
        <ele>436.6</ele>
        <time>2023-10-01T08:56:40Z</time>
      </trkpt>
      <trkpt lat="48.15956" lon="6.42451">
        <ele>436.4</ele>
        <time>2023-10-01T08:56:41Z</time>
      </trkpt>
      <trkpt lat="48.15954" lon="6.42442">
        <ele>436.4</ele>
        <time>2023-10-01T08:56:42Z</time>
      </trkpt>
      <trkpt lat="48.15955" lon="6.42433">
        <ele>436.2</ele>
        <time>2023-10-01T08:56:43Z</time>
      </trkpt>
      <trkpt lat="48.15958" lon="6.42426">
        <ele>436</ele>
        <time>2023-10-01T08:56:44Z</time>
      </trkpt>
      <trkpt lat="48.15962" lon="6.42421">
        <ele>436</ele>
        <time>2023-10-01T08:56:45Z</time>
      </trkpt>
      <trkpt lat="48.15966" lon="6.42417">
        <ele>435.8</ele>
        <time>2023-10-01T08:56:46Z</time>
      </trkpt>
      <trkpt lat="48.1597" lon="6.42413">
        <ele>435.6</ele>
        <time>2023-10-01T08:56:47Z</time>
      </trkpt>
      <trkpt lat="48.15973" lon="6.42407">
        <ele>435.6</ele>
        <time>2023-10-01T08:56:48Z</time>
      </trkpt>
      <trkpt lat="48.15976" lon="6.42401">
        <ele>435.6</ele>
        <time>2023-10-01T08:56:49Z</time>
      </trkpt>
      <trkpt lat="48.15978" lon="6.42396">
        <ele>435.6</ele>
        <time>2023-10-01T08:56:50Z</time>
      </trkpt>
      <trkpt lat="48.15981" lon="6.42391">
        <ele>435.6</ele>
        <time>2023-10-01T08:56:51Z</time>
      </trkpt>
      <trkpt lat="48.15983" lon="6.42386">
        <ele>435.6</ele>
        <time>2023-10-01T08:56:52Z</time>
      </trkpt>
      <trkpt lat="48.15985" lon="6.42383">
        <ele>435.4</ele>
        <time>2023-10-01T08:56:53Z</time>
      </trkpt>
      <trkpt lat="48.15988" lon="6.42378">
        <ele>435.4</ele>
        <time>2023-10-01T08:56:54Z</time>
      </trkpt>
      <trkpt lat="48.1599" lon="6.42374">
        <ele>435.4</ele>
        <time>2023-10-01T08:56:55Z</time>
      </trkpt>
      <trkpt lat="48.15993" lon="6.4237">
        <ele>435.6</ele>
        <time>2023-10-01T08:56:56Z</time>
      </trkpt>
      <trkpt lat="48.15997" lon="6.42365">
        <ele>435.8</ele>
        <time>2023-10-01T08:56:57Z</time>
      </trkpt>
      <trkpt lat="48.16" lon="6.4236">
        <ele>436</ele>
        <time>2023-10-01T08:56:58Z</time>
      </trkpt>
      <trkpt lat="48.16003" lon="6.42356">
        <ele>436.2</ele>
        <time>2023-10-01T08:56:59Z</time>
      </trkpt>
      <trkpt lat="48.16005" lon="6.42352">
        <ele>436.4</ele>
        <time>2023-10-01T08:57:00Z</time>
      </trkpt>
      <trkpt lat="48.16006" lon="6.42348">
        <ele>436.4</ele>
        <time>2023-10-01T08:57:01Z</time>
      </trkpt>
      <trkpt lat="48.16008" lon="6.42345">
        <ele>436.4</ele>
        <time>2023-10-01T08:57:02Z</time>
      </trkpt>
      <trkpt lat="48.16011" lon="6.4234">
        <ele>436.6</ele>
        <time>2023-10-01T08:57:03Z</time>
      </trkpt>
      <trkpt lat="48.16014" lon="6.42337">
        <ele>436.6</ele>
        <time>2023-10-01T08:57:04Z</time>
      </trkpt>
      <trkpt lat="48.16018" lon="6.42332">
        <ele>437</ele>
        <time>2023-10-01T08:57:05Z</time>
      </trkpt>
      <trkpt lat="48.16021" lon="6.42326">
        <ele>437</ele>
        <time>2023-10-01T08:57:06Z</time>
      </trkpt>
      <trkpt lat="48.16025" lon="6.42318">
        <ele>437.2</ele>
        <time>2023-10-01T08:57:07Z</time>
      </trkpt>
      <trkpt lat="48.16028" lon="6.42312">
        <ele>437.4</ele>
        <time>2023-10-01T08:57:08Z</time>
      </trkpt>
      <trkpt lat="48.16032" lon="6.42308">
        <ele>437.6</ele>
        <time>2023-10-01T08:57:09Z</time>
      </trkpt>
      <trkpt lat="48.16034" lon="6.42303">
        <ele>437.6</ele>
        <time>2023-10-01T08:57:10Z</time>
      </trkpt>
      <trkpt lat="48.16037" lon="6.42299">
        <ele>438</ele>
        <time>2023-10-01T08:57:11Z</time>
      </trkpt>
      <trkpt lat="48.16039" lon="6.42293">
        <ele>438.2</ele>
        <time>2023-10-01T08:57:12Z</time>
      </trkpt>
      <trkpt lat="48.1604" lon="6.42288">
        <ele>438.8</ele>
        <time>2023-10-01T08:57:13Z</time>
      </trkpt>
      <trkpt lat="48.16043" lon="6.42283">
        <ele>438.8</ele>
        <time>2023-10-01T08:57:14Z</time>
      </trkpt>
      <trkpt lat="48.16046" lon="6.42279">
        <ele>439.4</ele>
        <time>2023-10-01T08:57:15Z</time>
      </trkpt>
      <trkpt lat="48.16049" lon="6.42276">
        <ele>440</ele>
        <time>2023-10-01T08:57:16Z</time>
      </trkpt>
      <trkpt lat="48.16052" lon="6.4227">
        <ele>440</ele>
        <time>2023-10-01T08:57:17Z</time>
      </trkpt>
      <trkpt lat="48.16055" lon="6.42265">
        <ele>440.2</ele>
        <time>2023-10-01T08:57:18Z</time>
      </trkpt>
      <trkpt lat="48.16057" lon="6.4226">
        <ele>440.2</ele>
        <time>2023-10-01T08:57:19Z</time>
      </trkpt>
      <trkpt lat="48.16059" lon="6.42256">
        <ele>440.4</ele>
        <time>2023-10-01T08:57:20Z</time>
      </trkpt>
      <trkpt lat="48.16061" lon="6.42249">
        <ele>440.6</ele>
        <time>2023-10-01T08:57:21Z</time>
      </trkpt>
      <trkpt lat="48.16063" lon="6.42243">
        <ele>440.8</ele>
        <time>2023-10-01T08:57:22Z</time>
      </trkpt>
      <trkpt lat="48.16066" lon="6.42239">
        <ele>440.8</ele>
        <time>2023-10-01T08:57:23Z</time>
      </trkpt>
      <trkpt lat="48.16068" lon="6.42236">
        <ele>441</ele>
        <time>2023-10-01T08:57:24Z</time>
      </trkpt>
      <trkpt lat="48.16071" lon="6.42233">
        <ele>441</ele>
        <time>2023-10-01T08:57:25Z</time>
      </trkpt>
      <trkpt lat="48.16074" lon="6.42228">
        <ele>441.2</ele>
        <time>2023-10-01T08:57:26Z</time>
      </trkpt>
      <trkpt lat="48.16078" lon="6.42224">
        <ele>441.2</ele>
        <time>2023-10-01T08:57:27Z</time>
      </trkpt>
      <trkpt lat="48.16082" lon="6.42221">
        <ele>441.4</ele>
        <time>2023-10-01T08:57:28Z</time>
      </trkpt>
      <trkpt lat="48.16084" lon="6.42218">
        <ele>441.4</ele>
        <time>2023-10-01T08:57:29Z</time>
      </trkpt>
      <trkpt lat="48.16087" lon="6.42214">
        <ele>441.4</ele>
        <time>2023-10-01T08:57:30Z</time>
      </trkpt>
      <trkpt lat="48.16089" lon="6.42209">
        <ele>441.6</ele>
        <time>2023-10-01T08:57:31Z</time>
      </trkpt>
      <trkpt lat="48.16092" lon="6.42204">
        <ele>441.8</ele>
        <time>2023-10-01T08:57:32Z</time>
      </trkpt>
      <trkpt lat="48.16096" lon="6.42199">
        <ele>441.8</ele>
        <time>2023-10-01T08:57:33Z</time>
      </trkpt>
      <trkpt lat="48.16099" lon="6.42192">
        <ele>441.8</ele>
        <time>2023-10-01T08:57:34Z</time>
      </trkpt>
      <trkpt lat="48.16101" lon="6.42186">
        <ele>441.8</ele>
        <time>2023-10-01T08:57:35Z</time>
      </trkpt>
      <trkpt lat="48.16103" lon="6.42178">
        <ele>441.8</ele>
        <time>2023-10-01T08:57:36Z</time>
      </trkpt>
      <trkpt lat="48.16106" lon="6.42172">
        <ele>441.8</ele>
        <time>2023-10-01T08:57:37Z</time>
      </trkpt>
      <trkpt lat="48.16108" lon="6.42168">
        <ele>441.8</ele>
        <time>2023-10-01T08:57:38Z</time>
      </trkpt>
      <trkpt lat="48.16111" lon="6.42162">
        <ele>441.8</ele>
        <time>2023-10-01T08:57:39Z</time>
      </trkpt>
      <trkpt lat="48.16114" lon="6.42156">
        <ele>442</ele>
        <time>2023-10-01T08:57:40Z</time>
      </trkpt>
      <trkpt lat="48.16116" lon="6.42147">
        <ele>442</ele>
        <time>2023-10-01T08:57:41Z</time>
      </trkpt>
      <trkpt lat="48.1612" lon="6.42139">
        <ele>442</ele>
        <time>2023-10-01T08:57:42Z</time>
      </trkpt>
      <trkpt lat="48.16123" lon="6.42128">
        <ele>441.8</ele>
        <time>2023-10-01T08:57:43Z</time>
      </trkpt>
      <trkpt lat="48.16125" lon="6.42117">
        <ele>441.6</ele>
        <time>2023-10-01T08:57:44Z</time>
      </trkpt>
      <trkpt lat="48.16127" lon="6.42108">
        <ele>441.2</ele>
        <time>2023-10-01T08:57:45Z</time>
      </trkpt>
      <trkpt lat="48.1613" lon="6.42102">
        <ele>441</ele>
        <time>2023-10-01T08:57:46Z</time>
      </trkpt>
      <trkpt lat="48.16133" lon="6.42095">
        <ele>440.8</ele>
        <time>2023-10-01T08:57:47Z</time>
      </trkpt>
      <trkpt lat="48.16138" lon="6.42083">
        <ele>440.6</ele>
        <time>2023-10-01T08:57:48Z</time>
      </trkpt>
      <trkpt lat="48.16143" lon="6.42074">
        <ele>440.4</ele>
        <time>2023-10-01T08:57:49Z</time>
      </trkpt>
      <trkpt lat="48.16146" lon="6.42069">
        <ele>440.4</ele>
        <time>2023-10-01T08:57:50Z</time>
      </trkpt>
      <trkpt lat="48.1615" lon="6.42062">
        <ele>440.2</ele>
        <time>2023-10-01T08:57:51Z</time>
      </trkpt>
      <trkpt lat="48.16152" lon="6.42056">
        <ele>440.2</ele>
        <time>2023-10-01T08:57:52Z</time>
      </trkpt>
      <trkpt lat="48.16151" lon="6.42051">
        <ele>440</ele>
        <time>2023-10-01T08:57:53Z</time>
      </trkpt>
      <trkpt lat="48.16154" lon="6.42043">
        <ele>440</ele>
        <time>2023-10-01T08:57:54Z</time>
      </trkpt>
      <trkpt lat="48.16156" lon="6.42037">
        <ele>440</ele>
        <time>2023-10-01T08:57:55Z</time>
      </trkpt>
      <trkpt lat="48.16157" lon="6.42031">
        <ele>439.8</ele>
        <time>2023-10-01T08:57:56Z</time>
      </trkpt>
      <trkpt lat="48.16161" lon="6.42024">
        <ele>440</ele>
        <time>2023-10-01T08:57:57Z</time>
      </trkpt>
      <trkpt lat="48.16163" lon="6.42017">
        <ele>440.2</ele>
        <time>2023-10-01T08:57:58Z</time>
      </trkpt>
      <trkpt lat="48.16165" lon="6.42012">
        <ele>440.2</ele>
        <time>2023-10-01T08:57:59Z</time>
      </trkpt>
      <trkpt lat="48.16167" lon="6.42007">
        <ele>440.4</ele>
        <time>2023-10-01T08:58:00Z</time>
      </trkpt>
      <trkpt lat="48.1617" lon="6.42001">
        <ele>440.4</ele>
        <time>2023-10-01T08:58:01Z</time>
      </trkpt>
      <trkpt lat="48.16173" lon="6.41996">
        <ele>440.4</ele>
        <time>2023-10-01T08:58:02Z</time>
      </trkpt>
      <trkpt lat="48.16176" lon="6.41991">
        <ele>440.6</ele>
        <time>2023-10-01T08:58:03Z</time>
      </trkpt>
      <trkpt lat="48.16179" lon="6.41985">
        <ele>440.6</ele>
        <time>2023-10-01T08:58:04Z</time>
      </trkpt>
      <trkpt lat="48.16181" lon="6.41981">
        <ele>440.6</ele>
        <time>2023-10-01T08:58:05Z</time>
      </trkpt>
      <trkpt lat="48.16185" lon="6.41976">
        <ele>440.6</ele>
        <time>2023-10-01T08:58:06Z</time>
      </trkpt>
      <trkpt lat="48.16188" lon="6.41972">
        <ele>440.8</ele>
        <time>2023-10-01T08:58:07Z</time>
      </trkpt>
      <trkpt lat="48.16189" lon="6.41967">
        <ele>440.8</ele>
        <time>2023-10-01T08:58:08Z</time>
      </trkpt>
      <trkpt lat="48.16188" lon="6.41961">
        <ele>440.8</ele>
        <time>2023-10-01T08:58:09Z</time>
      </trkpt>
      <trkpt lat="48.16186" lon="6.41958">
        <ele>440.8</ele>
        <time>2023-10-01T08:58:10Z</time>
      </trkpt>
      <trkpt lat="48.16182" lon="6.41953">
        <ele>440.8</ele>
        <time>2023-10-01T08:58:11Z</time>
      </trkpt>
      <trkpt lat="48.16177" lon="6.4195">
        <ele>440.8</ele>
        <time>2023-10-01T08:58:12Z</time>
      </trkpt>
      <trkpt lat="48.16173" lon="6.41945">
        <ele>440.8</ele>
        <time>2023-10-01T08:58:13Z</time>
      </trkpt>
      <trkpt lat="48.16168" lon="6.41941">
        <ele>440.8</ele>
        <time>2023-10-01T08:58:14Z</time>
      </trkpt>
      <trkpt lat="48.16162" lon="6.41936">
        <ele>440.6</ele>
        <time>2023-10-01T08:58:15Z</time>
      </trkpt>
      <trkpt lat="48.16157" lon="6.41933">
        <ele>440.6</ele>
        <time>2023-10-01T08:58:16Z</time>
      </trkpt>
      <trkpt lat="48.16153" lon="6.41932">
        <ele>440.6</ele>
        <time>2023-10-01T08:58:17Z</time>
      </trkpt>
      <trkpt lat="48.16149" lon="6.41932">
        <ele>440.2</ele>
        <time>2023-10-01T08:58:18Z</time>
      </trkpt>
      <trkpt lat="48.16146" lon="6.41933">
        <ele>439.8</ele>
        <time>2023-10-01T08:58:19Z</time>
      </trkpt>
      <trkpt lat="48.16144" lon="6.41931">
        <ele>439</ele>
        <time>2023-10-01T08:58:20Z</time>
      </trkpt>
      <trkpt lat="48.16142" lon="6.41926">
        <ele>438.4</ele>
        <time>2023-10-01T08:58:21Z</time>
      </trkpt>
      <trkpt lat="48.1614" lon="6.41921">
        <ele>437.6</ele>
        <time>2023-10-01T08:58:22Z</time>
      </trkpt>
      <trkpt lat="48.16138" lon="6.41916">
        <ele>437.2</ele>
        <time>2023-10-01T08:58:23Z</time>
      </trkpt>
      <trkpt lat="48.16136" lon="6.41908">
        <ele>435.8</ele>
        <time>2023-10-01T08:58:24Z</time>
      </trkpt>
      <trkpt lat="48.16133" lon="6.41902">
        <ele>435.2</ele>
        <time>2023-10-01T08:58:25Z</time>
      </trkpt>
      <trkpt lat="48.16128" lon="6.41899">
        <ele>433.4</ele>
        <time>2023-10-01T08:58:26Z</time>
      </trkpt>
      <trkpt lat="48.16121" lon="6.41895">
        <ele>432.4</ele>
        <time>2023-10-01T08:58:27Z</time>
      </trkpt>
      <trkpt lat="48.16116" lon="6.41894">
        <ele>431</ele>
        <time>2023-10-01T08:58:28Z</time>
      </trkpt>
      <trkpt lat="48.16113" lon="6.41894">
        <ele>429.8</ele>
        <time>2023-10-01T08:58:29Z</time>
      </trkpt>
      <trkpt lat="48.16108" lon="6.41895">
        <ele>427.8</ele>
        <time>2023-10-01T08:58:30Z</time>
      </trkpt>
      <trkpt lat="48.16103" lon="6.41897">
        <ele>427</ele>
        <time>2023-10-01T08:58:31Z</time>
      </trkpt>
      <trkpt lat="48.16099" lon="6.41899">
        <ele>426</ele>
        <time>2023-10-01T08:58:32Z</time>
      </trkpt>
      <trkpt lat="48.16096" lon="6.41903">
        <ele>425</ele>
        <time>2023-10-01T08:58:33Z</time>
      </trkpt>
      <trkpt lat="48.16096" lon="6.41906">
        <ele>424.4</ele>
        <time>2023-10-01T08:58:34Z</time>
      </trkpt>
      <trkpt lat="48.16094" lon="6.4191">
        <ele>423</ele>
        <time>2023-10-01T08:58:35Z</time>
      </trkpt>
      <trkpt lat="48.16092" lon="6.41912">
        <ele>422.4</ele>
        <time>2023-10-01T08:58:36Z</time>
      </trkpt>
      <trkpt lat="48.1609" lon="6.41915">
        <ele>421.8</ele>
        <time>2023-10-01T08:58:37Z</time>
      </trkpt>
      <trkpt lat="48.16087" lon="6.41918">
        <ele>421.6</ele>
        <time>2023-10-01T08:58:38Z</time>
      </trkpt>
      <trkpt lat="48.16087" lon="6.4192">
        <ele>421.2</ele>
        <time>2023-10-01T08:58:39Z</time>
      </trkpt>
      <trkpt lat="48.16086" lon="6.41923">
        <ele>421.2</ele>
        <time>2023-10-01T08:58:40Z</time>
      </trkpt>
      <trkpt lat="48.16084" lon="6.41926">
        <ele>421</ele>
        <time>2023-10-01T08:58:41Z</time>
      </trkpt>
      <trkpt lat="48.16081" lon="6.41931">
        <ele>421</ele>
        <time>2023-10-01T08:58:42Z</time>
      </trkpt>
      <trkpt lat="48.1608" lon="6.41937">
        <ele>421</ele>
        <time>2023-10-01T08:58:43Z</time>
      </trkpt>
      <trkpt lat="48.16079" lon="6.41942">
        <ele>421</ele>
        <time>2023-10-01T08:58:44Z</time>
      </trkpt>
      <trkpt lat="48.16078" lon="6.41946">
        <ele>421.2</ele>
        <time>2023-10-01T08:58:45Z</time>
      </trkpt>
      <trkpt lat="48.16077" lon="6.4195">
        <ele>421.2</ele>
        <time>2023-10-01T08:58:46Z</time>
      </trkpt>
      <trkpt lat="48.16076" lon="6.41954">
        <ele>421.4</ele>
        <time>2023-10-01T08:58:47Z</time>
      </trkpt>
      <trkpt lat="48.16075" lon="6.41957">
        <ele>421.4</ele>
        <time>2023-10-01T08:58:48Z</time>
      </trkpt>
      <trkpt lat="48.16074" lon="6.41962">
        <ele>421.4</ele>
        <time>2023-10-01T08:58:49Z</time>
      </trkpt>
      <trkpt lat="48.16073" lon="6.41967">
        <ele>421.6</ele>
        <time>2023-10-01T08:58:50Z</time>
      </trkpt>
      <trkpt lat="48.16073" lon="6.41973">
        <ele>421.6</ele>
        <time>2023-10-01T08:58:51Z</time>
      </trkpt>
      <trkpt lat="48.16072" lon="6.4198">
        <ele>421.8</ele>
        <time>2023-10-01T08:58:52Z</time>
      </trkpt>
      <trkpt lat="48.16071" lon="6.41989">
        <ele>422</ele>
        <time>2023-10-01T08:58:53Z</time>
      </trkpt>
      <trkpt lat="48.1607" lon="6.41995">
        <ele>422.2</ele>
        <time>2023-10-01T08:58:54Z</time>
      </trkpt>
      <trkpt lat="48.16071" lon="6.42002">
        <ele>422.2</ele>
        <time>2023-10-01T08:58:55Z</time>
      </trkpt>
      <trkpt lat="48.16071" lon="6.42008">
        <ele>422.4</ele>
        <time>2023-10-01T08:58:56Z</time>
      </trkpt>
      <trkpt lat="48.16073" lon="6.42015">
        <ele>422.4</ele>
        <time>2023-10-01T08:58:57Z</time>
      </trkpt>
      <trkpt lat="48.16073" lon="6.42021">
        <ele>422.6</ele>
        <time>2023-10-01T08:58:58Z</time>
      </trkpt>
      <trkpt lat="48.16072" lon="6.42028">
        <ele>422.6</ele>
        <time>2023-10-01T08:58:59Z</time>
      </trkpt>
      <trkpt lat="48.16071" lon="6.42034">
        <ele>422.6</ele>
        <time>2023-10-01T08:59:00Z</time>
      </trkpt>
      <trkpt lat="48.16068" lon="6.42038">
        <ele>422.6</ele>
        <time>2023-10-01T08:59:01Z</time>
      </trkpt>
      <trkpt lat="48.16065" lon="6.42042">
        <ele>422.6</ele>
        <time>2023-10-01T08:59:02Z</time>
      </trkpt>
      <trkpt lat="48.16062" lon="6.42046">
        <ele>422.6</ele>
        <time>2023-10-01T08:59:03Z</time>
      </trkpt>
      <trkpt lat="48.16058" lon="6.4205">
        <ele>422.6</ele>
        <time>2023-10-01T08:59:04Z</time>
      </trkpt>
      <trkpt lat="48.16055" lon="6.42054">
        <ele>422.6</ele>
        <time>2023-10-01T08:59:05Z</time>
      </trkpt>
      <trkpt lat="48.16053" lon="6.42057">
        <ele>422.6</ele>
        <time>2023-10-01T08:59:06Z</time>
      </trkpt>
      <trkpt lat="48.16051" lon="6.42059">
        <ele>422.8</ele>
        <time>2023-10-01T08:59:07Z</time>
      </trkpt>
      <trkpt lat="48.16048" lon="6.4206">
        <ele>422.8</ele>
        <time>2023-10-01T08:59:08Z</time>
      </trkpt>
      <trkpt lat="48.16046" lon="6.42062">
        <ele>422.8</ele>
        <time>2023-10-01T08:59:09Z</time>
      </trkpt>
      <trkpt lat="48.16042" lon="6.42065">
        <ele>422.6</ele>
        <time>2023-10-01T08:59:10Z</time>
      </trkpt>
      <trkpt lat="48.16039" lon="6.42068">
        <ele>422.8</ele>
        <time>2023-10-01T08:59:11Z</time>
      </trkpt>
      <trkpt lat="48.16037" lon="6.42071">
        <ele>422.8</ele>
        <time>2023-10-01T08:59:12Z</time>
      </trkpt>
      <trkpt lat="48.16033" lon="6.42076">
        <ele>422.8</ele>
        <time>2023-10-01T08:59:13Z</time>
      </trkpt>
      <trkpt lat="48.1603" lon="6.42079">
        <ele>422.8</ele>
        <time>2023-10-01T08:59:14Z</time>
      </trkpt>
      <trkpt lat="48.16029" lon="6.42082">
        <ele>423</ele>
        <time>2023-10-01T08:59:15Z</time>
      </trkpt>
      <trkpt lat="48.16028" lon="6.42085">
        <ele>423</ele>
        <time>2023-10-01T08:59:16Z</time>
      </trkpt>
      <trkpt lat="48.16027" lon="6.42089">
        <ele>423</ele>
        <time>2023-10-01T08:59:17Z</time>
      </trkpt>
      <trkpt lat="48.16026" lon="6.42091">
        <ele>423</ele>
        <time>2023-10-01T08:59:18Z</time>
      </trkpt>
      <trkpt lat="48.16024" lon="6.42093">
        <ele>423.2</ele>
        <time>2023-10-01T08:59:19Z</time>
      </trkpt>
      <trkpt lat="48.16023" lon="6.42096">
        <ele>423.2</ele>
        <time>2023-10-01T08:59:20Z</time>
      </trkpt>
      <trkpt lat="48.16021" lon="6.42099">
        <ele>423.4</ele>
        <time>2023-10-01T08:59:21Z</time>
      </trkpt>
      <trkpt lat="48.16019" lon="6.42102">
        <ele>423.6</ele>
        <time>2023-10-01T08:59:22Z</time>
      </trkpt>
      <trkpt lat="48.16017" lon="6.42104">
        <ele>423.6</ele>
        <time>2023-10-01T08:59:23Z</time>
      </trkpt>
      <trkpt lat="48.16014" lon="6.42106">
        <ele>423.6</ele>
        <time>2023-10-01T08:59:24Z</time>
      </trkpt>
      <trkpt lat="48.16012" lon="6.42109">
        <ele>423.6</ele>
        <time>2023-10-01T08:59:25Z</time>
      </trkpt>
      <trkpt lat="48.1601" lon="6.42111">
        <ele>423.6</ele>
        <time>2023-10-01T08:59:26Z</time>
      </trkpt>
      <trkpt lat="48.16007" lon="6.42112">
        <ele>423.6</ele>
        <time>2023-10-01T08:59:27Z</time>
      </trkpt>
      <trkpt lat="48.16004" lon="6.42113">
        <ele>423.6</ele>
        <time>2023-10-01T08:59:28Z</time>
      </trkpt>
      <trkpt lat="48.16002" lon="6.42114">
        <ele>423.6</ele>
        <time>2023-10-01T08:59:29Z</time>
      </trkpt>
      <trkpt lat="48.16" lon="6.42114">
        <ele>423.6</ele>
        <time>2023-10-01T08:59:30Z</time>
      </trkpt>
      <trkpt lat="48.15998" lon="6.42113">
        <ele>423.4</ele>
        <time>2023-10-01T08:59:31Z</time>
      </trkpt>
      <trkpt lat="48.15995" lon="6.42112">
        <ele>422.4</ele>
        <time>2023-10-01T08:59:32Z</time>
      </trkpt>
      <trkpt lat="48.15993" lon="6.42112">
        <ele>422</ele>
        <time>2023-10-01T08:59:33Z</time>
      </trkpt>
      <trkpt lat="48.15991" lon="6.42112">
        <ele>421.4</ele>
        <time>2023-10-01T08:59:34Z</time>
      </trkpt>
      <trkpt lat="48.15988" lon="6.42116">
        <ele>421</ele>
        <time>2023-10-01T08:59:35Z</time>
      </trkpt>
      <trkpt lat="48.15985" lon="6.42119">
        <ele>420.6</ele>
        <time>2023-10-01T08:59:36Z</time>
      </trkpt>
      <trkpt lat="48.15983" lon="6.42122">
        <ele>418.6</ele>
        <time>2023-10-01T08:59:37Z</time>
      </trkpt>
      <trkpt lat="48.15983" lon="6.42124">
        <ele>417.4</ele>
        <time>2023-10-01T08:59:38Z</time>
      </trkpt>
      <trkpt lat="48.15982" lon="6.42127">
        <ele>416</ele>
        <time>2023-10-01T08:59:39Z</time>
      </trkpt>
      <trkpt lat="48.15976" lon="6.42132">
        <ele>415.8</ele>
        <time>2023-10-01T08:59:40Z</time>
      </trkpt>
      <trkpt lat="48.15974" lon="6.42136">
        <ele>415.4</ele>
        <time>2023-10-01T08:59:41Z</time>
      </trkpt>
      <trkpt lat="48.15973" lon="6.42139">
        <ele>415.4</ele>
        <time>2023-10-01T08:59:42Z</time>
      </trkpt>
      <trkpt lat="48.15971" lon="6.42142">
        <ele>415.2</ele>
        <time>2023-10-01T08:59:43Z</time>
      </trkpt>
      <trkpt lat="48.15966" lon="6.42147">
        <ele>415.2</ele>
        <time>2023-10-01T08:59:44Z</time>
      </trkpt>
      <trkpt lat="48.15961" lon="6.42153">
        <ele>415.2</ele>
        <time>2023-10-01T08:59:45Z</time>
      </trkpt>
      <trkpt lat="48.15959" lon="6.42158">
        <ele>415.2</ele>
        <time>2023-10-01T08:59:46Z</time>
      </trkpt>
      <trkpt lat="48.15959" lon="6.42161">
        <ele>415.4</ele>
        <time>2023-10-01T08:59:47Z</time>
      </trkpt>
      <trkpt lat="48.15959" lon="6.42164">
        <ele>415.4</ele>
        <time>2023-10-01T08:59:48Z</time>
      </trkpt>
      <trkpt lat="48.15959" lon="6.42166">
        <ele>415.4</ele>
        <time>2023-10-01T08:59:49Z</time>
      </trkpt>
      <trkpt lat="48.15958" lon="6.42169">
        <ele>415.6</ele>
        <time>2023-10-01T08:59:50Z</time>
      </trkpt>
      <trkpt lat="48.15958" lon="6.42171">
        <ele>415.6</ele>
        <time>2023-10-01T08:59:51Z</time>
      </trkpt>
      <trkpt lat="48.15957" lon="6.42174">
        <ele>415.8</ele>
        <time>2023-10-01T08:59:52Z</time>
      </trkpt>
      <trkpt lat="48.15957" lon="6.42178">
        <ele>415.8</ele>
        <time>2023-10-01T08:59:53Z</time>
      </trkpt>
      <trkpt lat="48.15958" lon="6.42182">
        <ele>415.8</ele>
        <time>2023-10-01T08:59:54Z</time>
      </trkpt>
      <trkpt lat="48.15958" lon="6.42187">
        <ele>415.8</ele>
        <time>2023-10-01T08:59:55Z</time>
      </trkpt>
      <trkpt lat="48.15957" lon="6.42192">
        <ele>416</ele>
        <time>2023-10-01T08:59:56Z</time>
      </trkpt>
      <trkpt lat="48.15955" lon="6.42197">
        <ele>416.2</ele>
        <time>2023-10-01T08:59:57Z</time>
      </trkpt>
      <trkpt lat="48.15949" lon="6.42206">
        <ele>416.2</ele>
        <time>2023-10-01T08:59:58Z</time>
      </trkpt>
      <trkpt lat="48.15942" lon="6.42215">
        <ele>416.2</ele>
        <time>2023-10-01T08:59:59Z</time>
      </trkpt>
      <trkpt lat="48.1594" lon="6.42219">
        <ele>416</ele>
        <time>2023-10-01T09:00:00Z</time>
      </trkpt>
      <trkpt lat="48.15938" lon="6.42222">
        <ele>416</ele>
        <time>2023-10-01T09:00:01Z</time>
      </trkpt>
      <trkpt lat="48.15936" lon="6.42224">
        <ele>416</ele>
        <time>2023-10-01T09:00:02Z</time>
      </trkpt>
      <trkpt lat="48.15935" lon="6.42227">
        <ele>415.8</ele>
        <time>2023-10-01T09:00:03Z</time>
      </trkpt>
      <trkpt lat="48.15932" lon="6.42234">
        <ele>415.4</ele>
        <time>2023-10-01T09:00:04Z</time>
      </trkpt>
      <trkpt lat="48.15928" lon="6.4224">
        <ele>415.6</ele>
        <time>2023-10-01T09:00:05Z</time>
      </trkpt>
      <trkpt lat="48.15926" lon="6.42244">
        <ele>415.4</ele>
        <time>2023-10-01T09:00:06Z</time>
      </trkpt>
      <trkpt lat="48.15924" lon="6.42249">
        <ele>415.2</ele>
        <time>2023-10-01T09:00:07Z</time>
      </trkpt>
      <trkpt lat="48.15922" lon="6.42253">
        <ele>414.8</ele>
        <time>2023-10-01T09:00:08Z</time>
      </trkpt>
      <trkpt lat="48.15921" lon="6.42258">
        <ele>414.8</ele>
        <time>2023-10-01T09:00:09Z</time>
      </trkpt>
      <trkpt lat="48.1592" lon="6.42259">
        <ele>414.6</ele>
        <time>2023-10-01T09:00:10Z</time>
      </trkpt>
      <trkpt lat="48.15919" lon="6.42259">
        <ele>414.4</ele>
        <time>2023-10-01T09:00:11Z</time>
      </trkpt>
      <trkpt lat="48.15918" lon="6.42258">
        <ele>414.2</ele>
        <time>2023-10-01T09:00:12Z</time>
      </trkpt>
      <trkpt lat="48.15918" lon="6.42257">
        <ele>414.2</ele>
        <time>2023-10-01T09:00:13Z</time>
      </trkpt>
      <trkpt lat="48.15919" lon="6.42255">
        <ele>414</ele>
        <time>2023-10-01T09:00:14Z</time>
      </trkpt>
      <trkpt lat="48.1592" lon="6.42255">
        <ele>413.4</ele>
        <time>2023-10-01T09:00:15Z</time>
      </trkpt>
      <trkpt lat="48.1592" lon="6.42252">
        <ele>411.2</ele>
        <time>2023-10-01T09:01:11Z</time>
      </trkpt>
      <trkpt lat="48.1592" lon="6.42249">
        <ele>411.2</ele>
        <time>2023-10-01T09:01:12Z</time>
      </trkpt>
      <trkpt lat="48.15921" lon="6.42245">
        <ele>411.2</ele>
        <time>2023-10-01T09:01:13Z</time>
      </trkpt>
      <trkpt lat="48.15921" lon="6.42242">
        <ele>411.2</ele>
        <time>2023-10-01T09:01:14Z</time>
      </trkpt>
      <trkpt lat="48.15922" lon="6.42239">
        <ele>411.2</ele>
        <time>2023-10-01T09:01:15Z</time>
      </trkpt>
      <trkpt lat="48.15923" lon="6.42235">
        <ele>411.2</ele>
        <time>2023-10-01T09:01:16Z</time>
      </trkpt>
      <trkpt lat="48.15924" lon="6.42231">
        <ele>411.2</ele>
        <time>2023-10-01T09:01:17Z</time>
      </trkpt>
      <trkpt lat="48.15924" lon="6.42228">
        <ele>411.2</ele>
        <time>2023-10-01T09:01:18Z</time>
      </trkpt>
      <trkpt lat="48.15925" lon="6.42223">
        <ele>411</ele>
        <time>2023-10-01T09:01:19Z</time>
      </trkpt>
      <trkpt lat="48.15924" lon="6.42217">
        <ele>410.8</ele>
        <time>2023-10-01T09:01:20Z</time>
      </trkpt>
      <trkpt lat="48.15926" lon="6.4221">
        <ele>410.6</ele>
        <time>2023-10-01T09:01:21Z</time>
      </trkpt>
      <trkpt lat="48.15928" lon="6.42202">
        <ele>410</ele>
        <time>2023-10-01T09:01:22Z</time>
      </trkpt>
      <trkpt lat="48.15931" lon="6.42194">
        <ele>409.6</ele>
        <time>2023-10-01T09:01:23Z</time>
      </trkpt>
      <trkpt lat="48.15936" lon="6.42184">
        <ele>409.2</ele>
        <time>2023-10-01T09:01:24Z</time>
      </trkpt>
      <trkpt lat="48.15941" lon="6.42177">
        <ele>409</ele>
        <time>2023-10-01T09:01:25Z</time>
      </trkpt>
      <trkpt lat="48.15947" lon="6.42169">
        <ele>407.8</ele>
        <time>2023-10-01T09:01:26Z</time>
      </trkpt>
      <trkpt lat="48.15954" lon="6.42159">
        <ele>407.2</ele>
        <time>2023-10-01T09:01:27Z</time>
      </trkpt>
      <trkpt lat="48.1596" lon="6.42148">
        <ele>405.6</ele>
        <time>2023-10-01T09:01:28Z</time>
      </trkpt>
      <trkpt lat="48.15965" lon="6.42135">
        <ele>405</ele>
        <time>2023-10-01T09:01:29Z</time>
      </trkpt>
      <trkpt lat="48.1597" lon="6.4212">
        <ele>404.4</ele>
        <time>2023-10-01T09:01:30Z</time>
      </trkpt>
      <trkpt lat="48.15974" lon="6.42106">
        <ele>404</ele>
        <time>2023-10-01T09:01:31Z</time>
      </trkpt>
      <trkpt lat="48.15976" lon="6.42095">
        <ele>403.6</ele>
        <time>2023-10-01T09:01:32Z</time>
      </trkpt>
      <trkpt lat="48.15978" lon="6.42082">
        <ele>403.2</ele>
        <time>2023-10-01T09:01:33Z</time>
      </trkpt>
      <trkpt lat="48.1598" lon="6.42064">
        <ele>402.2</ele>
        <time>2023-10-01T09:01:34Z</time>
      </trkpt>
      <trkpt lat="48.15984" lon="6.4205">
        <ele>401.8</ele>
        <time>2023-10-01T09:01:35Z</time>
      </trkpt>
      <trkpt lat="48.15988" lon="6.42035">
        <ele>401.2</ele>
        <time>2023-10-01T09:01:36Z</time>
      </trkpt>
      <trkpt lat="48.15993" lon="6.42026">
        <ele>400.4</ele>
        <time>2023-10-01T09:01:37Z</time>
      </trkpt>
      <trkpt lat="48.15996" lon="6.42019">
        <ele>399.4</ele>
        <time>2023-10-01T09:01:38Z</time>
      </trkpt>
      <trkpt lat="48.16" lon="6.42011">
        <ele>398.4</ele>
        <time>2023-10-01T09:01:39Z</time>
      </trkpt>
      <trkpt lat="48.16002" lon="6.42001">
        <ele>398</ele>
        <time>2023-10-01T09:01:40Z</time>
      </trkpt>
      <trkpt lat="48.15999" lon="6.41994">
        <ele>397.2</ele>
        <time>2023-10-01T09:01:41Z</time>
      </trkpt>
      <trkpt lat="48.15998" lon="6.41989">
        <ele>396.8</ele>
        <time>2023-10-01T09:01:42Z</time>
      </trkpt>
      <trkpt lat="48.15998" lon="6.41984">
        <ele>396</ele>
        <time>2023-10-01T09:01:43Z</time>
      </trkpt>
      <trkpt lat="48.15999" lon="6.41979">
        <ele>395.8</ele>
        <time>2023-10-01T09:01:44Z</time>
      </trkpt>
      <trkpt lat="48.15998" lon="6.41978">
        <ele>395.4</ele>
        <time>2023-10-01T09:01:45Z</time>
      </trkpt>
      <trkpt lat="48.16" lon="6.41976">
        <ele>395</ele>
        <time>2023-10-01T09:01:46Z</time>
      </trkpt>
      <trkpt lat="48.15999" lon="6.41972">
        <ele>394.8</ele>
        <time>2023-10-01T09:01:47Z</time>
      </trkpt>
      <trkpt lat="48.15998" lon="6.41968">
        <ele>394.8</ele>
        <time>2023-10-01T09:01:48Z</time>
      </trkpt>
      <trkpt lat="48.15998" lon="6.41964">
        <ele>394.6</ele>
        <time>2023-10-01T09:01:49Z</time>
      </trkpt>
      <trkpt lat="48.15998" lon="6.41961">
        <ele>394.4</ele>
        <time>2023-10-01T09:01:50Z</time>
      </trkpt>
      <trkpt lat="48.15997" lon="6.4196">
        <ele>394.2</ele>
        <time>2023-10-01T09:01:51Z</time>
      </trkpt>
      <trkpt lat="48.15996" lon="6.41959">
        <ele>394</ele>
        <time>2023-10-01T09:01:52Z</time>
      </trkpt>
      <trkpt lat="48.15996" lon="6.41958">
        <ele>394</ele>
        <time>2023-10-01T09:01:53Z</time>
      </trkpt>
      <trkpt lat="48.15996" lon="6.41955">
        <ele>393.6</ele>
        <time>2023-10-01T09:01:54Z</time>
      </trkpt>
      <trkpt lat="48.15996" lon="6.41952">
        <ele>393.2</ele>
        <time>2023-10-01T09:01:55Z</time>
      </trkpt>
      <trkpt lat="48.15996" lon="6.41952">
        <ele>392.8</ele>
        <time>2023-10-01T09:01:56Z</time>
      </trkpt>
      <trkpt lat="48.15996" lon="6.41952">
        <ele>392.6</ele>
        <time>2023-10-01T09:01:57Z</time>
      </trkpt>
      <trkpt lat="48.15996" lon="6.41949">
        <ele>388.8</ele>
        <time>2023-10-01T09:02:03Z</time>
      </trkpt>
      <trkpt lat="48.15996" lon="6.41948">
        <ele>388.6</ele>
        <time>2023-10-01T09:02:04Z</time>
      </trkpt>
      <trkpt lat="48.15997" lon="6.41945">
        <ele>388.4</ele>
        <time>2023-10-01T09:02:05Z</time>
      </trkpt>
      <trkpt lat="48.15997" lon="6.41942">
        <ele>388.4</ele>
        <time>2023-10-01T09:02:06Z</time>
      </trkpt>
      <trkpt lat="48.15998" lon="6.41939">
        <ele>388.2</ele>
        <time>2023-10-01T09:02:07Z</time>
      </trkpt>
      <trkpt lat="48.15999" lon="6.41935">
        <ele>388.2</ele>
        <time>2023-10-01T09:02:08Z</time>
      </trkpt>
      <trkpt lat="48.16" lon="6.41931">
        <ele>388.2</ele>
        <time>2023-10-01T09:02:09Z</time>
      </trkpt>
      <trkpt lat="48.16" lon="6.41925">
        <ele>388</ele>
        <time>2023-10-01T09:02:10Z</time>
      </trkpt>
      <trkpt lat="48.16" lon="6.41919">
        <ele>388</ele>
        <time>2023-10-01T09:02:11Z</time>
      </trkpt>
      <trkpt lat="48.16001" lon="6.41912">
        <ele>388</ele>
        <time>2023-10-01T09:02:12Z</time>
      </trkpt>
      <trkpt lat="48.16003" lon="6.41908">
        <ele>387.8</ele>
        <time>2023-10-01T09:02:13Z</time>
      </trkpt>
      <trkpt lat="48.16005" lon="6.41903">
        <ele>387.4</ele>
        <time>2023-10-01T09:02:14Z</time>
      </trkpt>
      <trkpt lat="48.16006" lon="6.41899">
        <ele>387</ele>
        <time>2023-10-01T09:02:15Z</time>
      </trkpt>
      <trkpt lat="48.16009" lon="6.41892">
        <ele>386.6</ele>
        <time>2023-10-01T09:02:16Z</time>
      </trkpt>
      <trkpt lat="48.16013" lon="6.41884">
        <ele>386</ele>
        <time>2023-10-01T09:02:17Z</time>
      </trkpt>
      <trkpt lat="48.16017" lon="6.41877">
        <ele>386</ele>
        <time>2023-10-01T09:02:18Z</time>
      </trkpt>
      <trkpt lat="48.1602" lon="6.41863">
        <ele>385.2</ele>
        <time>2023-10-01T09:02:19Z</time>
      </trkpt>
      <trkpt lat="48.16026" lon="6.41853">
        <ele>384.8</ele>
        <time>2023-10-01T09:02:20Z</time>
      </trkpt>
      <trkpt lat="48.16033" lon="6.41847">
        <ele>384.2</ele>
        <time>2023-10-01T09:02:21Z</time>
      </trkpt>
      <trkpt lat="48.1604" lon="6.4184">
        <ele>384.2</ele>
        <time>2023-10-01T09:02:22Z</time>
      </trkpt>
      <trkpt lat="48.16046" lon="6.41829">
        <ele>383.6</ele>
        <time>2023-10-01T09:02:23Z</time>
      </trkpt>
      <trkpt lat="48.16051" lon="6.41818">
        <ele>383.4</ele>
        <time>2023-10-01T09:02:24Z</time>
      </trkpt>
      <trkpt lat="48.16056" lon="6.4181">
        <ele>382.6</ele>
        <time>2023-10-01T09:02:25Z</time>
      </trkpt>
      <trkpt lat="48.1606" lon="6.41802">
        <ele>382.2</ele>
        <time>2023-10-01T09:02:26Z</time>
      </trkpt>
      <trkpt lat="48.16064" lon="6.41792">
        <ele>381.4</ele>
        <time>2023-10-01T09:02:27Z</time>
      </trkpt>
      <trkpt lat="48.16069" lon="6.41785">
        <ele>381.2</ele>
        <time>2023-10-01T09:02:28Z</time>
      </trkpt>
      <trkpt lat="48.16072" lon="6.41779">
        <ele>381.2</ele>
        <time>2023-10-01T09:02:29Z</time>
      </trkpt>
      <trkpt lat="48.16076" lon="6.41772">
        <ele>380.8</ele>
        <time>2023-10-01T09:02:30Z</time>
      </trkpt>
      <trkpt lat="48.16079" lon="6.41763">
        <ele>380.4</ele>
        <time>2023-10-01T09:02:31Z</time>
      </trkpt>
      <trkpt lat="48.16082" lon="6.41752">
        <ele>380</ele>
        <time>2023-10-01T09:02:32Z</time>
      </trkpt>
      <trkpt lat="48.16087" lon="6.41741">
        <ele>379.8</ele>
        <time>2023-10-01T09:02:33Z</time>
      </trkpt>
      <trkpt lat="48.1609" lon="6.41731">
        <ele>379.6</ele>
        <time>2023-10-01T09:02:34Z</time>
      </trkpt>
      <trkpt lat="48.16094" lon="6.41724">
        <ele>379.2</ele>
        <time>2023-10-01T09:02:35Z</time>
      </trkpt>
      <trkpt lat="48.16096" lon="6.41721">
        <ele>378.2</ele>
        <time>2023-10-01T09:02:36Z</time>
      </trkpt>
      <trkpt lat="48.16099" lon="6.41717">
        <ele>377.8</ele>
        <time>2023-10-01T09:02:37Z</time>
      </trkpt>
      <trkpt lat="48.16101" lon="6.41715">
        <ele>377.2</ele>
        <time>2023-10-01T09:02:38Z</time>
      </trkpt>
      <trkpt lat="48.16104" lon="6.4171">
        <ele>377</ele>
        <time>2023-10-01T09:02:39Z</time>
      </trkpt>
      <trkpt lat="48.16106" lon="6.41701">
        <ele>376.4</ele>
        <time>2023-10-01T09:02:40Z</time>
      </trkpt>
      <trkpt lat="48.16109" lon="6.41696">
        <ele>376</ele>
        <time>2023-10-01T09:02:41Z</time>
      </trkpt>
      <trkpt lat="48.16114" lon="6.41691">
        <ele>375.8</ele>
        <time>2023-10-01T09:02:42Z</time>
      </trkpt>
      <trkpt lat="48.16119" lon="6.41685">
        <ele>375.8</ele>
        <time>2023-10-01T09:02:43Z</time>
      </trkpt>
      <trkpt lat="48.16124" lon="6.41679">
        <ele>375.6</ele>
        <time>2023-10-01T09:02:44Z</time>
      </trkpt>
      <trkpt lat="48.16131" lon="6.41673">
        <ele>375.4</ele>
        <time>2023-10-01T09:02:45Z</time>
      </trkpt>
      <trkpt lat="48.16137" lon="6.41664">
        <ele>375.2</ele>
        <time>2023-10-01T09:02:46Z</time>
      </trkpt>
      <trkpt lat="48.1614" lon="6.41659">
        <ele>375</ele>
        <time>2023-10-01T09:02:47Z</time>
      </trkpt>
      <trkpt lat="48.16143" lon="6.41652">
        <ele>374.6</ele>
        <time>2023-10-01T09:02:48Z</time>
      </trkpt>
      <trkpt lat="48.16142" lon="6.41645">
        <ele>374.4</ele>
        <time>2023-10-01T09:02:49Z</time>
      </trkpt>
      <trkpt lat="48.1614" lon="6.4164">
        <ele>373.8</ele>
        <time>2023-10-01T09:02:50Z</time>
      </trkpt>
      <trkpt lat="48.1614" lon="6.41637">
        <ele>373.4</ele>
        <time>2023-10-01T09:02:51Z</time>
      </trkpt>
      <trkpt lat="48.1614" lon="6.41636">
        <ele>373.4</ele>
        <time>2023-10-01T09:02:52Z</time>
      </trkpt>
      <trkpt lat="48.16139" lon="6.41634">
        <ele>373.2</ele>
        <time>2023-10-01T09:02:53Z</time>
      </trkpt>
      <trkpt lat="48.16139" lon="6.41631">
        <ele>373.2</ele>
        <time>2023-10-01T09:02:54Z</time>
      </trkpt>
      <trkpt lat="48.16139" lon="6.41627">
        <ele>373.2</ele>
        <time>2023-10-01T09:02:55Z</time>
      </trkpt>
      <trkpt lat="48.16141" lon="6.41624">
        <ele>373.2</ele>
        <time>2023-10-01T09:02:56Z</time>
      </trkpt>
      <trkpt lat="48.16143" lon="6.41622">
        <ele>373.2</ele>
        <time>2023-10-01T09:02:57Z</time>
      </trkpt>
      <trkpt lat="48.16148" lon="6.41617">
        <ele>373.2</ele>
        <time>2023-10-01T09:02:58Z</time>
      </trkpt>
      <trkpt lat="48.1615" lon="6.41613">
        <ele>373.2</ele>
        <time>2023-10-01T09:02:59Z</time>
      </trkpt>
      <trkpt lat="48.16152" lon="6.41608">
        <ele>373.2</ele>
        <time>2023-10-01T09:03:00Z</time>
      </trkpt>
      <trkpt lat="48.16156" lon="6.41603">
        <ele>373.4</ele>
        <time>2023-10-01T09:03:01Z</time>
      </trkpt>
      <trkpt lat="48.16159" lon="6.416">
        <ele>373.8</ele>
        <time>2023-10-01T09:03:02Z</time>
      </trkpt>
      <trkpt lat="48.16162" lon="6.41593">
        <ele>374</ele>
        <time>2023-10-01T09:03:03Z</time>
      </trkpt>
      <trkpt lat="48.16165" lon="6.41588">
        <ele>374.4</ele>
        <time>2023-10-01T09:03:04Z</time>
      </trkpt>
      <trkpt lat="48.16167" lon="6.41584">
        <ele>374.4</ele>
        <time>2023-10-01T09:03:05Z</time>
      </trkpt>
      <trkpt lat="48.16169" lon="6.41581">
        <ele>374.8</ele>
        <time>2023-10-01T09:03:06Z</time>
      </trkpt>
      <trkpt lat="48.16171" lon="6.41579">
        <ele>375</ele>
        <time>2023-10-01T09:03:07Z</time>
      </trkpt>
      <trkpt lat="48.16174" lon="6.41576">
        <ele>375.2</ele>
        <time>2023-10-01T09:03:08Z</time>
      </trkpt>
      <trkpt lat="48.16177" lon="6.41574">
        <ele>375.4</ele>
        <time>2023-10-01T09:03:09Z</time>
      </trkpt>
      <trkpt lat="48.1618" lon="6.41569">
        <ele>375.6</ele>
        <time>2023-10-01T09:03:10Z</time>
      </trkpt>
      <trkpt lat="48.16184" lon="6.41564">
        <ele>375.8</ele>
        <time>2023-10-01T09:03:11Z</time>
      </trkpt>
      <trkpt lat="48.16188" lon="6.41561">
        <ele>376</ele>
        <time>2023-10-01T09:03:12Z</time>
      </trkpt>
      <trkpt lat="48.16189" lon="6.41555">
        <ele>376</ele>
        <time>2023-10-01T09:03:13Z</time>
      </trkpt>
      <trkpt lat="48.1619" lon="6.4155">
        <ele>376.2</ele>
        <time>2023-10-01T09:03:14Z</time>
      </trkpt>
      <trkpt lat="48.16192" lon="6.41545">
        <ele>376.2</ele>
        <time>2023-10-01T09:03:15Z</time>
      </trkpt>
      <trkpt lat="48.16194" lon="6.41542">
        <ele>376.4</ele>
        <time>2023-10-01T09:03:16Z</time>
      </trkpt>
      <trkpt lat="48.16195" lon="6.41536">
        <ele>376.4</ele>
        <time>2023-10-01T09:03:17Z</time>
      </trkpt>
      <trkpt lat="48.16196" lon="6.41529">
        <ele>376.6</ele>
        <time>2023-10-01T09:03:18Z</time>
      </trkpt>
      <trkpt lat="48.16196" lon="6.41521">
        <ele>377</ele>
        <time>2023-10-01T09:03:19Z</time>
      </trkpt>
      <trkpt lat="48.16197" lon="6.41513">
        <ele>377</ele>
        <time>2023-10-01T09:03:20Z</time>
      </trkpt>
      <trkpt lat="48.162" lon="6.41505">
        <ele>377</ele>
        <time>2023-10-01T09:03:21Z</time>
      </trkpt>
      <trkpt lat="48.16203" lon="6.415">
        <ele>377</ele>
        <time>2023-10-01T09:03:22Z</time>
      </trkpt>
      <trkpt lat="48.16205" lon="6.41493">
        <ele>377</ele>
        <time>2023-10-01T09:03:23Z</time>
      </trkpt>
      <trkpt lat="48.16206" lon="6.41487">
        <ele>377</ele>
        <time>2023-10-01T09:03:24Z</time>
      </trkpt>
      <trkpt lat="48.16208" lon="6.4148">
        <ele>377.2</ele>
        <time>2023-10-01T09:03:25Z</time>
      </trkpt>
      <trkpt lat="48.1621" lon="6.41472">
        <ele>377.2</ele>
        <time>2023-10-01T09:03:26Z</time>
      </trkpt>
      <trkpt lat="48.16212" lon="6.41465">
        <ele>377.2</ele>
        <time>2023-10-01T09:03:27Z</time>
      </trkpt>
      <trkpt lat="48.16215" lon="6.41459">
        <ele>377.2</ele>
        <time>2023-10-01T09:03:28Z</time>
      </trkpt>
      <trkpt lat="48.16217" lon="6.41454">
        <ele>377.4</ele>
        <time>2023-10-01T09:03:29Z</time>
      </trkpt>
      <trkpt lat="48.16219" lon="6.41448">
        <ele>377.4</ele>
        <time>2023-10-01T09:03:30Z</time>
      </trkpt>
      <trkpt lat="48.16223" lon="6.41441">
        <ele>377.2</ele>
        <time>2023-10-01T09:03:31Z</time>
      </trkpt>
      <trkpt lat="48.16226" lon="6.41432">
        <ele>377.4</ele>
        <time>2023-10-01T09:03:32Z</time>
      </trkpt>
      <trkpt lat="48.16227" lon="6.41425">
        <ele>377.4</ele>
        <time>2023-10-01T09:03:33Z</time>
      </trkpt>
      <trkpt lat="48.16228" lon="6.4142">
        <ele>377.6</ele>
        <time>2023-10-01T09:03:34Z</time>
      </trkpt>
      <trkpt lat="48.1623" lon="6.41417">
        <ele>377.8</ele>
        <time>2023-10-01T09:03:35Z</time>
      </trkpt>
      <trkpt lat="48.16232" lon="6.41414">
        <ele>377.8</ele>
        <time>2023-10-01T09:03:36Z</time>
      </trkpt>
      <trkpt lat="48.16234" lon="6.4141">
        <ele>378</ele>
        <time>2023-10-01T09:03:37Z</time>
      </trkpt>
      <trkpt lat="48.16238" lon="6.41406">
        <ele>378</ele>
        <time>2023-10-01T09:03:38Z</time>
      </trkpt>
      <trkpt lat="48.16243" lon="6.41401">
        <ele>378</ele>
        <time>2023-10-01T09:03:39Z</time>
      </trkpt>
      <trkpt lat="48.16248" lon="6.41395">
        <ele>378.2</ele>
        <time>2023-10-01T09:03:40Z</time>
      </trkpt>
      <trkpt lat="48.16252" lon="6.41389">
        <ele>378.2</ele>
        <time>2023-10-01T09:03:41Z</time>
      </trkpt>
      <trkpt lat="48.16256" lon="6.41384">
        <ele>378.4</ele>
        <time>2023-10-01T09:03:42Z</time>
      </trkpt>
      <trkpt lat="48.16259" lon="6.41379">
        <ele>378.4</ele>
        <time>2023-10-01T09:03:43Z</time>
      </trkpt>
      <trkpt lat="48.16262" lon="6.41376">
        <ele>378.6</ele>
        <time>2023-10-01T09:03:44Z</time>
      </trkpt>
      <trkpt lat="48.16266" lon="6.41373">
        <ele>378.6</ele>
        <time>2023-10-01T09:03:45Z</time>
      </trkpt>
      <trkpt lat="48.16269" lon="6.41369">
        <ele>378.8</ele>
        <time>2023-10-01T09:03:46Z</time>
      </trkpt>
      <trkpt lat="48.16273" lon="6.41366">
        <ele>378.8</ele>
        <time>2023-10-01T09:03:47Z</time>
      </trkpt>
      <trkpt lat="48.16277" lon="6.41361">
        <ele>379</ele>
        <time>2023-10-01T09:03:48Z</time>
      </trkpt>
      <trkpt lat="48.16281" lon="6.41357">
        <ele>379</ele>
        <time>2023-10-01T09:03:49Z</time>
      </trkpt>
      <trkpt lat="48.16284" lon="6.41351">
        <ele>379</ele>
        <time>2023-10-01T09:03:50Z</time>
      </trkpt>
      <trkpt lat="48.16286" lon="6.4135">
        <ele>379</ele>
        <time>2023-10-01T09:03:51Z</time>
      </trkpt>
      <trkpt lat="48.16288" lon="6.41347">
        <ele>379</ele>
        <time>2023-10-01T09:03:52Z</time>
      </trkpt>
      <trkpt lat="48.16292" lon="6.41345">
        <ele>379</ele>
        <time>2023-10-01T09:03:53Z</time>
      </trkpt>
      <trkpt lat="48.16294" lon="6.41344">
        <ele>379.2</ele>
        <time>2023-10-01T09:03:54Z</time>
      </trkpt>
      <trkpt lat="48.16299" lon="6.41343">
        <ele>379.2</ele>
        <time>2023-10-01T09:03:55Z</time>
      </trkpt>
      <trkpt lat="48.16304" lon="6.41341">
        <ele>379.2</ele>
        <time>2023-10-01T09:03:56Z</time>
      </trkpt>
      <trkpt lat="48.1631" lon="6.41338">
        <ele>379.4</ele>
        <time>2023-10-01T09:03:57Z</time>
      </trkpt>
      <trkpt lat="48.16315" lon="6.41334">
        <ele>379.4</ele>
        <time>2023-10-01T09:03:58Z</time>
      </trkpt>
      <trkpt lat="48.1632" lon="6.41326">
        <ele>379.4</ele>
        <time>2023-10-01T09:03:59Z</time>
      </trkpt>
      <trkpt lat="48.16324" lon="6.41319">
        <ele>379.4</ele>
        <time>2023-10-01T09:04:00Z</time>
      </trkpt>
      <trkpt lat="48.16323" lon="6.41314">
        <ele>379.4</ele>
        <time>2023-10-01T09:04:01Z</time>
      </trkpt>
      <trkpt lat="48.1632" lon="6.4131">
        <ele>379.4</ele>
        <time>2023-10-01T09:04:02Z</time>
      </trkpt>
      <trkpt lat="48.16316" lon="6.41306">
        <ele>379.6</ele>
        <time>2023-10-01T09:04:03Z</time>
      </trkpt>
      <trkpt lat="48.16314" lon="6.41301">
        <ele>379.6</ele>
        <time>2023-10-01T09:04:04Z</time>
      </trkpt>
      <trkpt lat="48.16312" lon="6.41297">
        <ele>379.6</ele>
        <time>2023-10-01T09:04:05Z</time>
      </trkpt>
      <trkpt lat="48.16311" lon="6.41294">
        <ele>379.6</ele>
        <time>2023-10-01T09:04:06Z</time>
      </trkpt>
      <trkpt lat="48.1631" lon="6.41291">
        <ele>379.8</ele>
        <time>2023-10-01T09:04:07Z</time>
      </trkpt>
      <trkpt lat="48.16309" lon="6.41285">
        <ele>379.8</ele>
        <time>2023-10-01T09:04:08Z</time>
      </trkpt>
      <trkpt lat="48.16306" lon="6.41277">
        <ele>379.8</ele>
        <time>2023-10-01T09:04:09Z</time>
      </trkpt>
      <trkpt lat="48.16301" lon="6.41272">
        <ele>379.8</ele>
        <time>2023-10-01T09:04:10Z</time>
      </trkpt>
      <trkpt lat="48.16295" lon="6.41265">
        <ele>380</ele>
        <time>2023-10-01T09:04:11Z</time>
      </trkpt>
      <trkpt lat="48.1629" lon="6.41259">
        <ele>380</ele>
        <time>2023-10-01T09:04:12Z</time>
      </trkpt>
      <trkpt lat="48.16285" lon="6.41255">
        <ele>380</ele>
        <time>2023-10-01T09:04:13Z</time>
      </trkpt>
      <trkpt lat="48.1628" lon="6.41249">
        <ele>380</ele>
        <time>2023-10-01T09:04:14Z</time>
      </trkpt>
      <trkpt lat="48.16276" lon="6.41242">
        <ele>379.8</ele>
        <time>2023-10-01T09:04:15Z</time>
      </trkpt>
      <trkpt lat="48.16273" lon="6.41238">
        <ele>379.8</ele>
        <time>2023-10-01T09:04:16Z</time>
      </trkpt>
      <trkpt lat="48.16269" lon="6.41235">
        <ele>379.8</ele>
        <time>2023-10-01T09:04:17Z</time>
      </trkpt>
      <trkpt lat="48.16264" lon="6.41232">
        <ele>379.8</ele>
        <time>2023-10-01T09:04:18Z</time>
      </trkpt>
      <trkpt lat="48.16261" lon="6.41228">
        <ele>379.8</ele>
        <time>2023-10-01T09:04:19Z</time>
      </trkpt>
      <trkpt lat="48.16257" lon="6.41225">
        <ele>379.6</ele>
        <time>2023-10-01T09:04:20Z</time>
      </trkpt>
      <trkpt lat="48.16253" lon="6.41224">
        <ele>379.4</ele>
        <time>2023-10-01T09:04:21Z</time>
      </trkpt>
      <trkpt lat="48.16249" lon="6.4122">
        <ele>379.2</ele>
        <time>2023-10-01T09:04:22Z</time>
      </trkpt>
      <trkpt lat="48.16246" lon="6.41217">
        <ele>379</ele>
        <time>2023-10-01T09:04:23Z</time>
      </trkpt>
      <trkpt lat="48.16242" lon="6.41216">
        <ele>379</ele>
        <time>2023-10-01T09:04:24Z</time>
      </trkpt>
      <trkpt lat="48.16238" lon="6.41215">
        <ele>378.8</ele>
        <time>2023-10-01T09:04:25Z</time>
      </trkpt>
      <trkpt lat="48.16235" lon="6.41214">
        <ele>378.8</ele>
        <time>2023-10-01T09:04:26Z</time>
      </trkpt>
      <trkpt lat="48.16232" lon="6.41212">
        <ele>378.8</ele>
        <time>2023-10-01T09:04:27Z</time>
      </trkpt>
      <trkpt lat="48.16228" lon="6.41211">
        <ele>378.6</ele>
        <time>2023-10-01T09:04:28Z</time>
      </trkpt>
      <trkpt lat="48.16224" lon="6.41209">
        <ele>378.6</ele>
        <time>2023-10-01T09:04:29Z</time>
      </trkpt>
      <trkpt lat="48.16219" lon="6.41207">
        <ele>378.4</ele>
        <time>2023-10-01T09:04:30Z</time>
      </trkpt>
      <trkpt lat="48.16214" lon="6.41206">
        <ele>378.2</ele>
        <time>2023-10-01T09:04:31Z</time>
      </trkpt>
      <trkpt lat="48.1621" lon="6.41205">
        <ele>378</ele>
        <time>2023-10-01T09:04:32Z</time>
      </trkpt>
      <trkpt lat="48.16204" lon="6.41204">
        <ele>377.6</ele>
        <time>2023-10-01T09:04:33Z</time>
      </trkpt>
      <trkpt lat="48.162" lon="6.41201">
        <ele>377.6</ele>
        <time>2023-10-01T09:04:34Z</time>
      </trkpt>
      <trkpt lat="48.16195" lon="6.41199">
        <ele>377.6</ele>
        <time>2023-10-01T09:04:35Z</time>
      </trkpt>
      <trkpt lat="48.16191" lon="6.41196">
        <ele>377.4</ele>
        <time>2023-10-01T09:04:36Z</time>
      </trkpt>
      <trkpt lat="48.16189" lon="6.41194">
        <ele>377.2</ele>
        <time>2023-10-01T09:04:37Z</time>
      </trkpt>
      <trkpt lat="48.16186" lon="6.41191">
        <ele>377.2</ele>
        <time>2023-10-01T09:04:38Z</time>
      </trkpt>
      <trkpt lat="48.16184" lon="6.41186">
        <ele>377</ele>
        <time>2023-10-01T09:04:39Z</time>
      </trkpt>
      <trkpt lat="48.16183" lon="6.41181">
        <ele>376.8</ele>
        <time>2023-10-01T09:04:40Z</time>
      </trkpt>
      <trkpt lat="48.16181" lon="6.41173">
        <ele>375.8</ele>
        <time>2023-10-01T09:04:41Z</time>
      </trkpt>
      <trkpt lat="48.16178" lon="6.41163">
        <ele>375.4</ele>
        <time>2023-10-01T09:04:42Z</time>
      </trkpt>
      <trkpt lat="48.16177" lon="6.41157">
        <ele>374.8</ele>
        <time>2023-10-01T09:04:43Z</time>
      </trkpt>
      <trkpt lat="48.16177" lon="6.4115">
        <ele>374.2</ele>
        <time>2023-10-01T09:04:44Z</time>
      </trkpt>
      <trkpt lat="48.16179" lon="6.41144">
        <ele>373.4</ele>
        <time>2023-10-01T09:04:45Z</time>
      </trkpt>
      <trkpt lat="48.16181" lon="6.41136">
        <ele>372.6</ele>
        <time>2023-10-01T09:04:46Z</time>
      </trkpt>
      <trkpt lat="48.16182" lon="6.41131">
        <ele>372.4</ele>
        <time>2023-10-01T09:04:47Z</time>
      </trkpt>
      <trkpt lat="48.16184" lon="6.41127">
        <ele>371.8</ele>
        <time>2023-10-01T09:04:48Z</time>
      </trkpt>
      <trkpt lat="48.16187" lon="6.4112">
        <ele>371.8</ele>
        <time>2023-10-01T09:04:49Z</time>
      </trkpt>
      <trkpt lat="48.1619" lon="6.41115">
        <ele>371.2</ele>
        <time>2023-10-01T09:04:50Z</time>
      </trkpt>
      <trkpt lat="48.16193" lon="6.41111">
        <ele>371</ele>
        <time>2023-10-01T09:04:51Z</time>
      </trkpt>
      <trkpt lat="48.16196" lon="6.41107">
        <ele>370.8</ele>
        <time>2023-10-01T09:04:52Z</time>
      </trkpt>
      <trkpt lat="48.16197" lon="6.411">
        <ele>370.8</ele>
        <time>2023-10-01T09:04:53Z</time>
      </trkpt>
      <trkpt lat="48.16198" lon="6.41093">
        <ele>370.8</ele>
        <time>2023-10-01T09:04:54Z</time>
      </trkpt>
      <trkpt lat="48.16196" lon="6.41086">
        <ele>370.6</ele>
        <time>2023-10-01T09:04:55Z</time>
      </trkpt>
      <trkpt lat="48.16194" lon="6.41079">
        <ele>370.6</ele>
        <time>2023-10-01T09:04:56Z</time>
      </trkpt>
      <trkpt lat="48.16191" lon="6.41072">
        <ele>370.8</ele>
        <time>2023-10-01T09:04:57Z</time>
      </trkpt>
      <trkpt lat="48.16187" lon="6.41062">
        <ele>370.6</ele>
        <time>2023-10-01T09:04:58Z</time>
      </trkpt>
      <trkpt lat="48.16184" lon="6.41055">
        <ele>370.6</ele>
        <time>2023-10-01T09:04:59Z</time>
      </trkpt>
      <trkpt lat="48.16182" lon="6.4105">
        <ele>370.6</ele>
        <time>2023-10-01T09:05:00Z</time>
      </trkpt>
      <trkpt lat="48.16183" lon="6.41047">
        <ele>370.6</ele>
        <time>2023-10-01T09:05:01Z</time>
      </trkpt>
      <trkpt lat="48.16183" lon="6.41042">
        <ele>370.8</ele>
        <time>2023-10-01T09:05:02Z</time>
      </trkpt>
      <trkpt lat="48.16182" lon="6.41036">
        <ele>370.8</ele>
        <time>2023-10-01T09:05:03Z</time>
      </trkpt>
      <trkpt lat="48.1618" lon="6.4103">
        <ele>370.8</ele>
        <time>2023-10-01T09:05:04Z</time>
      </trkpt>
      <trkpt lat="48.16177" lon="6.41025">
        <ele>370.8</ele>
        <time>2023-10-01T09:05:05Z</time>
      </trkpt>
      <trkpt lat="48.16173" lon="6.41017">
        <ele>370.8</ele>
        <time>2023-10-01T09:05:06Z</time>
      </trkpt>
      <trkpt lat="48.1617" lon="6.41012">
        <ele>370.8</ele>
        <time>2023-10-01T09:05:07Z</time>
      </trkpt>
      <trkpt lat="48.16167" lon="6.41005">
        <ele>370.8</ele>
        <time>2023-10-01T09:05:08Z</time>
      </trkpt>
      <trkpt lat="48.16165" lon="6.40997">
        <ele>370.8</ele>
        <time>2023-10-01T09:05:09Z</time>
      </trkpt>
      <trkpt lat="48.16163" lon="6.40991">
        <ele>371</ele>
        <time>2023-10-01T09:05:10Z</time>
      </trkpt>
      <trkpt lat="48.1616" lon="6.40983">
        <ele>371</ele>
        <time>2023-10-01T09:05:11Z</time>
      </trkpt>
      <trkpt lat="48.16156" lon="6.40977">
        <ele>371</ele>
        <time>2023-10-01T09:05:12Z</time>
      </trkpt>
      <trkpt lat="48.16153" lon="6.40969">
        <ele>371</ele>
        <time>2023-10-01T09:05:13Z</time>
      </trkpt>
      <trkpt lat="48.16151" lon="6.40962">
        <ele>371</ele>
        <time>2023-10-01T09:05:14Z</time>
      </trkpt>
      <trkpt lat="48.1615" lon="6.40956">
        <ele>371</ele>
        <time>2023-10-01T09:05:15Z</time>
      </trkpt>
      <trkpt lat="48.16149" lon="6.40951">
        <ele>371</ele>
        <time>2023-10-01T09:05:16Z</time>
      </trkpt>
      <trkpt lat="48.16145" lon="6.40944">
        <ele>371.2</ele>
        <time>2023-10-01T09:05:17Z</time>
      </trkpt>
      <trkpt lat="48.1614" lon="6.40941">
        <ele>371.2</ele>
        <time>2023-10-01T09:05:18Z</time>
      </trkpt>
      <trkpt lat="48.16137" lon="6.40938">
        <ele>371.2</ele>
        <time>2023-10-01T09:05:19Z</time>
      </trkpt>
      <trkpt lat="48.16134" lon="6.40932">
        <ele>371.2</ele>
        <time>2023-10-01T09:05:20Z</time>
      </trkpt>
      <trkpt lat="48.16129" lon="6.40927">
        <ele>371.2</ele>
        <time>2023-10-01T09:05:21Z</time>
      </trkpt>
      <trkpt lat="48.16126" lon="6.40924">
        <ele>371.4</ele>
        <time>2023-10-01T09:05:22Z</time>
      </trkpt>
      <trkpt lat="48.16124" lon="6.40921">
        <ele>371.4</ele>
        <time>2023-10-01T09:05:23Z</time>
      </trkpt>
      <trkpt lat="48.16121" lon="6.4092">
        <ele>371.4</ele>
        <time>2023-10-01T09:05:24Z</time>
      </trkpt>
      <trkpt lat="48.16119" lon="6.40917">
        <ele>371.4</ele>
        <time>2023-10-01T09:05:25Z</time>
      </trkpt>
      <trkpt lat="48.16116" lon="6.40915">
        <ele>371.4</ele>
        <time>2023-10-01T09:05:26Z</time>
      </trkpt>
      <trkpt lat="48.16114" lon="6.40912">
        <ele>371.4</ele>
        <time>2023-10-01T09:05:27Z</time>
      </trkpt>
      <trkpt lat="48.16113" lon="6.4091">
        <ele>371.6</ele>
        <time>2023-10-01T09:05:28Z</time>
      </trkpt>
      <trkpt lat="48.16111" lon="6.40906">
        <ele>371.8</ele>
        <time>2023-10-01T09:05:29Z</time>
      </trkpt>
      <trkpt lat="48.16109" lon="6.40901">
        <ele>372</ele>
        <time>2023-10-01T09:05:30Z</time>
      </trkpt>
      <trkpt lat="48.16107" lon="6.40897">
        <ele>372</ele>
        <time>2023-10-01T09:05:31Z</time>
      </trkpt>
      <trkpt lat="48.16106" lon="6.40893">
        <ele>372.4</ele>
        <time>2023-10-01T09:05:32Z</time>
      </trkpt>
      <trkpt lat="48.16104" lon="6.40889">
        <ele>372.4</ele>
        <time>2023-10-01T09:05:33Z</time>
      </trkpt>
      <trkpt lat="48.16102" lon="6.40885">
        <ele>372.6</ele>
        <time>2023-10-01T09:05:34Z</time>
      </trkpt>
      <trkpt lat="48.161" lon="6.4088">
        <ele>373</ele>
        <time>2023-10-01T09:05:35Z</time>
      </trkpt>
      <trkpt lat="48.16098" lon="6.40876">
        <ele>373</ele>
        <time>2023-10-01T09:05:36Z</time>
      </trkpt>
      <trkpt lat="48.16095" lon="6.40872">
        <ele>373.4</ele>
        <time>2023-10-01T09:05:37Z</time>
      </trkpt>
      <trkpt lat="48.16093" lon="6.40866">
        <ele>373.6</ele>
        <time>2023-10-01T09:05:38Z</time>
      </trkpt>
      <trkpt lat="48.16093" lon="6.4086">
        <ele>373.8</ele>
        <time>2023-10-01T09:05:39Z</time>
      </trkpt>
      <trkpt lat="48.16092" lon="6.40853">
        <ele>374</ele>
        <time>2023-10-01T09:05:40Z</time>
      </trkpt>
      <trkpt lat="48.16091" lon="6.40847">
        <ele>374.2</ele>
        <time>2023-10-01T09:05:41Z</time>
      </trkpt>
      <trkpt lat="48.16092" lon="6.40843">
        <ele>374.2</ele>
        <time>2023-10-01T09:05:42Z</time>
      </trkpt>
      <trkpt lat="48.16091" lon="6.40836">
        <ele>374.2</ele>
        <time>2023-10-01T09:05:43Z</time>
      </trkpt>
      <trkpt lat="48.16091" lon="6.40832">
        <ele>374.4</ele>
        <time>2023-10-01T09:05:44Z</time>
      </trkpt>
      <trkpt lat="48.16091" lon="6.40825">
        <ele>374.4</ele>
        <time>2023-10-01T09:05:45Z</time>
      </trkpt>
      <trkpt lat="48.16091" lon="6.40819">
        <ele>374.6</ele>
        <time>2023-10-01T09:05:46Z</time>
      </trkpt>
      <trkpt lat="48.1609" lon="6.40811">
        <ele>375</ele>
        <time>2023-10-01T09:05:47Z</time>
      </trkpt>
      <trkpt lat="48.16088" lon="6.40801">
        <ele>374.8</ele>
        <time>2023-10-01T09:05:48Z</time>
      </trkpt>
      <trkpt lat="48.16086" lon="6.40793">
        <ele>375.2</ele>
        <time>2023-10-01T09:05:49Z</time>
      </trkpt>
      <trkpt lat="48.16084" lon="6.40784">
        <ele>375.4</ele>
        <time>2023-10-01T09:05:50Z</time>
      </trkpt>
      <trkpt lat="48.16083" lon="6.40778">
        <ele>375.6</ele>
        <time>2023-10-01T09:05:51Z</time>
      </trkpt>
      <trkpt lat="48.16081" lon="6.4077">
        <ele>375.6</ele>
        <time>2023-10-01T09:05:52Z</time>
      </trkpt>
      <trkpt lat="48.16081" lon="6.40762">
        <ele>375.6</ele>
        <time>2023-10-01T09:05:53Z</time>
      </trkpt>
      <trkpt lat="48.16081" lon="6.40757">
        <ele>375.8</ele>
        <time>2023-10-01T09:05:54Z</time>
      </trkpt>
      <trkpt lat="48.16083" lon="6.40752">
        <ele>375.8</ele>
        <time>2023-10-01T09:05:55Z</time>
      </trkpt>
      <trkpt lat="48.16082" lon="6.40746">
        <ele>375.8</ele>
        <time>2023-10-01T09:05:56Z</time>
      </trkpt>
      <trkpt lat="48.1608" lon="6.40738">
        <ele>375.8</ele>
        <time>2023-10-01T09:05:57Z</time>
      </trkpt>
      <trkpt lat="48.16078" lon="6.40733">
        <ele>375.8</ele>
        <time>2023-10-01T09:05:58Z</time>
      </trkpt>
      <trkpt lat="48.16077" lon="6.40729">
        <ele>375.8</ele>
        <time>2023-10-01T09:05:59Z</time>
      </trkpt>
      <trkpt lat="48.16076" lon="6.40721">
        <ele>375.8</ele>
        <time>2023-10-01T09:06:00Z</time>
      </trkpt>
      <trkpt lat="48.16075" lon="6.40715">
        <ele>375.8</ele>
        <time>2023-10-01T09:06:01Z</time>
      </trkpt>
      <trkpt lat="48.16072" lon="6.40707">
        <ele>376</ele>
        <time>2023-10-01T09:06:02Z</time>
      </trkpt>
      <trkpt lat="48.1607" lon="6.40697">
        <ele>376</ele>
        <time>2023-10-01T09:06:03Z</time>
      </trkpt>
      <trkpt lat="48.16067" lon="6.40687">
        <ele>376</ele>
        <time>2023-10-01T09:06:04Z</time>
      </trkpt>
      <trkpt lat="48.16063" lon="6.4068">
        <ele>376</ele>
        <time>2023-10-01T09:06:05Z</time>
      </trkpt>
      <trkpt lat="48.16059" lon="6.40671">
        <ele>376</ele>
        <time>2023-10-01T09:06:06Z</time>
      </trkpt>
      <trkpt lat="48.16057" lon="6.40663">
        <ele>376</ele>
        <time>2023-10-01T09:06:07Z</time>
      </trkpt>
      <trkpt lat="48.16057" lon="6.40656">
        <ele>376</ele>
        <time>2023-10-01T09:06:08Z</time>
      </trkpt>
      <trkpt lat="48.16058" lon="6.40651">
        <ele>376</ele>
        <time>2023-10-01T09:06:09Z</time>
      </trkpt>
      <trkpt lat="48.16057" lon="6.40641">
        <ele>376</ele>
        <time>2023-10-01T09:06:10Z</time>
      </trkpt>
      <trkpt lat="48.16057" lon="6.40632">
        <ele>376.2</ele>
        <time>2023-10-01T09:06:11Z</time>
      </trkpt>
      <trkpt lat="48.16057" lon="6.40625">
        <ele>376.2</ele>
        <time>2023-10-01T09:06:12Z</time>
      </trkpt>
      <trkpt lat="48.16058" lon="6.40619">
        <ele>376.4</ele>
        <time>2023-10-01T09:06:13Z</time>
      </trkpt>
      <trkpt lat="48.16058" lon="6.40612">
        <ele>376.4</ele>
        <time>2023-10-01T09:06:14Z</time>
      </trkpt>
      <trkpt lat="48.16059" lon="6.40606">
        <ele>376.6</ele>
        <time>2023-10-01T09:06:15Z</time>
      </trkpt>
      <trkpt lat="48.1606" lon="6.40602">
        <ele>376.6</ele>
        <time>2023-10-01T09:06:16Z</time>
      </trkpt>
      <trkpt lat="48.1606" lon="6.40598">
        <ele>376.6</ele>
        <time>2023-10-01T09:06:17Z</time>
      </trkpt>
      <trkpt lat="48.1606" lon="6.40595">
        <ele>376.6</ele>
        <time>2023-10-01T09:06:18Z</time>
      </trkpt>
      <trkpt lat="48.16061" lon="6.40593">
        <ele>377</ele>
        <time>2023-10-01T09:06:19Z</time>
      </trkpt>
      <trkpt lat="48.16063" lon="6.40589">
        <ele>377.2</ele>
        <time>2023-10-01T09:06:20Z</time>
      </trkpt>
      <trkpt lat="48.16065" lon="6.40583">
        <ele>377.4</ele>
        <time>2023-10-01T09:06:21Z</time>
      </trkpt>
      <trkpt lat="48.16064" lon="6.40574">
        <ele>377.6</ele>
        <time>2023-10-01T09:06:22Z</time>
      </trkpt>
      <trkpt lat="48.16062" lon="6.40566">
        <ele>377.6</ele>
        <time>2023-10-01T09:06:23Z</time>
      </trkpt>
      <trkpt lat="48.16062" lon="6.40558">
        <ele>377.6</ele>
        <time>2023-10-01T09:06:24Z</time>
      </trkpt>
      <trkpt lat="48.16062" lon="6.40553">
        <ele>377.8</ele>
        <time>2023-10-01T09:06:25Z</time>
      </trkpt>
      <trkpt lat="48.16061" lon="6.40547">
        <ele>378</ele>
        <time>2023-10-01T09:06:26Z</time>
      </trkpt>
      <trkpt lat="48.16059" lon="6.40543">
        <ele>378.2</ele>
        <time>2023-10-01T09:06:27Z</time>
      </trkpt>
      <trkpt lat="48.16057" lon="6.4054">
        <ele>378.6</ele>
        <time>2023-10-01T09:06:28Z</time>
      </trkpt>
      <trkpt lat="48.16053" lon="6.40537">
        <ele>378.8</ele>
        <time>2023-10-01T09:06:29Z</time>
      </trkpt>
      <trkpt lat="48.1605" lon="6.40535">
        <ele>379</ele>
        <time>2023-10-01T09:06:30Z</time>
      </trkpt>
      <trkpt lat="48.16046" lon="6.40531">
        <ele>379</ele>
        <time>2023-10-01T09:06:31Z</time>
      </trkpt>
      <trkpt lat="48.16041" lon="6.40525">
        <ele>379.2</ele>
        <time>2023-10-01T09:06:32Z</time>
      </trkpt>
      <trkpt lat="48.16038" lon="6.4052">
        <ele>379.4</ele>
        <time>2023-10-01T09:06:33Z</time>
      </trkpt>
      <trkpt lat="48.16036" lon="6.40517">
        <ele>379.6</ele>
        <time>2023-10-01T09:06:34Z</time>
      </trkpt>
      <trkpt lat="48.16034" lon="6.40516">
        <ele>379.8</ele>
        <time>2023-10-01T09:06:35Z</time>
      </trkpt>
      <trkpt lat="48.16032" lon="6.40515">
        <ele>380</ele>
        <time>2023-10-01T09:06:36Z</time>
      </trkpt>
      <trkpt lat="48.16031" lon="6.40517">
        <ele>380.2</ele>
        <time>2023-10-01T09:06:37Z</time>
      </trkpt>
      <trkpt lat="48.16032" lon="6.4052">
        <ele>380.4</ele>
        <time>2023-10-01T09:06:38Z</time>
      </trkpt>
      <trkpt lat="48.16032" lon="6.40522">
        <ele>380.6</ele>
        <time>2023-10-01T09:06:39Z</time>
      </trkpt>
      <trkpt lat="48.16032" lon="6.40524">
        <ele>380.8</ele>
        <time>2023-10-01T09:06:40Z</time>
      </trkpt>
      <trkpt lat="48.16032" lon="6.40527">
        <ele>380.8</ele>
        <time>2023-10-01T09:06:41Z</time>
      </trkpt>
      <trkpt lat="48.16033" lon="6.40529">
        <ele>381</ele>
        <time>2023-10-01T09:06:42Z</time>
      </trkpt>
      <trkpt lat="48.16034" lon="6.4053">
        <ele>381.4</ele>
        <time>2023-10-01T09:06:43Z</time>
      </trkpt>
      <trkpt lat="48.16034" lon="6.40533">
        <ele>381.6</ele>
        <time>2023-10-01T09:06:44Z</time>
      </trkpt>
      <trkpt lat="48.16033" lon="6.40535">
        <ele>381.6</ele>
        <time>2023-10-01T09:06:45Z</time>
      </trkpt>
      <trkpt lat="48.16034" lon="6.40539">
        <ele>381.8</ele>
        <time>2023-10-01T09:06:46Z</time>
      </trkpt>
      <trkpt lat="48.16034" lon="6.40544">
        <ele>381.8</ele>
        <time>2023-10-01T09:06:47Z</time>
      </trkpt>
      <trkpt lat="48.16035" lon="6.40549">
        <ele>381.8</ele>
        <time>2023-10-01T09:06:48Z</time>
      </trkpt>
      <trkpt lat="48.16036" lon="6.40553">
        <ele>382</ele>
        <time>2023-10-01T09:06:49Z</time>
      </trkpt>
      <trkpt lat="48.16036" lon="6.40558">
        <ele>382.2</ele>
        <time>2023-10-01T09:06:50Z</time>
      </trkpt>
      <trkpt lat="48.16035" lon="6.40563">
        <ele>382.4</ele>
        <time>2023-10-01T09:06:51Z</time>
      </trkpt>
      <trkpt lat="48.16035" lon="6.40567">
        <ele>382.6</ele>
        <time>2023-10-01T09:06:52Z</time>
      </trkpt>
      <trkpt lat="48.16035" lon="6.4057">
        <ele>382.6</ele>
        <time>2023-10-01T09:06:53Z</time>
      </trkpt>
      <trkpt lat="48.16036" lon="6.40574">
        <ele>382.8</ele>
        <time>2023-10-01T09:06:54Z</time>
      </trkpt>
      <trkpt lat="48.16037" lon="6.40579">
        <ele>383</ele>
        <time>2023-10-01T09:06:55Z</time>
      </trkpt>
      <trkpt lat="48.16037" lon="6.40583">
        <ele>383</ele>
        <time>2023-10-01T09:06:56Z</time>
      </trkpt>
      <trkpt lat="48.16037" lon="6.40587">
        <ele>383.2</ele>
        <time>2023-10-01T09:06:57Z</time>
      </trkpt>
      <trkpt lat="48.16037" lon="6.40591">
        <ele>383.4</ele>
        <time>2023-10-01T09:06:58Z</time>
      </trkpt>
      <trkpt lat="48.16037" lon="6.40594">
        <ele>383.4</ele>
        <time>2023-10-01T09:06:59Z</time>
      </trkpt>
      <trkpt lat="48.16037" lon="6.40598">
        <ele>383.8</ele>
        <time>2023-10-01T09:07:00Z</time>
      </trkpt>
      <trkpt lat="48.16037" lon="6.40602">
        <ele>384</ele>
        <time>2023-10-01T09:07:01Z</time>
      </trkpt>
      <trkpt lat="48.16037" lon="6.40606">
        <ele>384</ele>
        <time>2023-10-01T09:07:02Z</time>
      </trkpt>
      <trkpt lat="48.16037" lon="6.40609">
        <ele>384.2</ele>
        <time>2023-10-01T09:07:03Z</time>
      </trkpt>
      <trkpt lat="48.16037" lon="6.40613">
        <ele>384.4</ele>
        <time>2023-10-01T09:07:04Z</time>
      </trkpt>
      <trkpt lat="48.16037" lon="6.40617">
        <ele>384.6</ele>
        <time>2023-10-01T09:07:05Z</time>
      </trkpt>
      <trkpt lat="48.16038" lon="6.40623">
        <ele>384.8</ele>
        <time>2023-10-01T09:07:06Z</time>
      </trkpt>
      <trkpt lat="48.16039" lon="6.40629">
        <ele>384.8</ele>
        <time>2023-10-01T09:07:07Z</time>
      </trkpt>
      <trkpt lat="48.16038" lon="6.40634">
        <ele>385</ele>
        <time>2023-10-01T09:07:08Z</time>
      </trkpt>
      <trkpt lat="48.16039" lon="6.40639">
        <ele>385.2</ele>
        <time>2023-10-01T09:07:09Z</time>
      </trkpt>
      <trkpt lat="48.16039" lon="6.40643">
        <ele>385.2</ele>
        <time>2023-10-01T09:07:10Z</time>
      </trkpt>
      <trkpt lat="48.16041" lon="6.40647">
        <ele>385.4</ele>
        <time>2023-10-01T09:07:11Z</time>
      </trkpt>
      <trkpt lat="48.16042" lon="6.40653">
        <ele>385.4</ele>
        <time>2023-10-01T09:07:12Z</time>
      </trkpt>
      <trkpt lat="48.16042" lon="6.40658">
        <ele>385.6</ele>
        <time>2023-10-01T09:07:13Z</time>
      </trkpt>
      <trkpt lat="48.16042" lon="6.40663">
        <ele>385.8</ele>
        <time>2023-10-01T09:07:14Z</time>
      </trkpt>
      <trkpt lat="48.16043" lon="6.40667">
        <ele>386</ele>
        <time>2023-10-01T09:07:15Z</time>
      </trkpt>
      <trkpt lat="48.16045" lon="6.40672">
        <ele>386.2</ele>
        <time>2023-10-01T09:07:16Z</time>
      </trkpt>
      <trkpt lat="48.16046" lon="6.40678">
        <ele>386.4</ele>
        <time>2023-10-01T09:07:17Z</time>
      </trkpt>
      <trkpt lat="48.16046" lon="6.40684">
        <ele>386.4</ele>
        <time>2023-10-01T09:07:18Z</time>
      </trkpt>
      <trkpt lat="48.16047" lon="6.4069">
        <ele>386.6</ele>
        <time>2023-10-01T09:07:19Z</time>
      </trkpt>
      <trkpt lat="48.16047" lon="6.40696">
        <ele>386.8</ele>
        <time>2023-10-01T09:07:20Z</time>
      </trkpt>
      <trkpt lat="48.16048" lon="6.40701">
        <ele>387</ele>
        <time>2023-10-01T09:07:21Z</time>
      </trkpt>
      <trkpt lat="48.16048" lon="6.40706">
        <ele>387.2</ele>
        <time>2023-10-01T09:07:22Z</time>
      </trkpt>
      <trkpt lat="48.16046" lon="6.40712">
        <ele>387.4</ele>
        <time>2023-10-01T09:07:23Z</time>
      </trkpt>
      <trkpt lat="48.16045" lon="6.40715">
        <ele>387.4</ele>
        <time>2023-10-01T09:07:24Z</time>
      </trkpt>
      <trkpt lat="48.16047" lon="6.40721">
        <ele>387.8</ele>
        <time>2023-10-01T09:07:25Z</time>
      </trkpt>
      <trkpt lat="48.16047" lon="6.40725">
        <ele>387.8</ele>
        <time>2023-10-01T09:07:26Z</time>
      </trkpt>
      <trkpt lat="48.16048" lon="6.4073">
        <ele>388.2</ele>
        <time>2023-10-01T09:07:27Z</time>
      </trkpt>
      <trkpt lat="48.16048" lon="6.40733">
        <ele>388.4</ele>
        <time>2023-10-01T09:07:28Z</time>
      </trkpt>
      <trkpt lat="48.16048" lon="6.40738">
        <ele>388.6</ele>
        <time>2023-10-01T09:07:29Z</time>
      </trkpt>
      <trkpt lat="48.16049" lon="6.40742">
        <ele>388.6</ele>
        <time>2023-10-01T09:07:30Z</time>
      </trkpt>
      <trkpt lat="48.1605" lon="6.40747">
        <ele>388.8</ele>
        <time>2023-10-01T09:07:31Z</time>
      </trkpt>
      <trkpt lat="48.1605" lon="6.40753">
        <ele>388.8</ele>
        <time>2023-10-01T09:07:32Z</time>
      </trkpt>
      <trkpt lat="48.1605" lon="6.40758">
        <ele>388.8</ele>
        <time>2023-10-01T09:07:33Z</time>
      </trkpt>
      <trkpt lat="48.1605" lon="6.40762">
        <ele>388.8</ele>
        <time>2023-10-01T09:07:34Z</time>
      </trkpt>
      <trkpt lat="48.1605" lon="6.40768">
        <ele>389</ele>
        <time>2023-10-01T09:07:35Z</time>
      </trkpt>
      <trkpt lat="48.16052" lon="6.40774">
        <ele>389</ele>
        <time>2023-10-01T09:07:36Z</time>
      </trkpt>
      <trkpt lat="48.16054" lon="6.4078">
        <ele>389</ele>
        <time>2023-10-01T09:07:37Z</time>
      </trkpt>
      <trkpt lat="48.16054" lon="6.40784">
        <ele>389.4</ele>
        <time>2023-10-01T09:07:38Z</time>
      </trkpt>
      <trkpt lat="48.16054" lon="6.40788">
        <ele>389.6</ele>
        <time>2023-10-01T09:07:39Z</time>
      </trkpt>
      <trkpt lat="48.16054" lon="6.40792">
        <ele>390</ele>
        <time>2023-10-01T09:07:40Z</time>
      </trkpt>
      <trkpt lat="48.16054" lon="6.40795">
        <ele>390.2</ele>
        <time>2023-10-01T09:07:41Z</time>
      </trkpt>
      <trkpt lat="48.16054" lon="6.40798">
        <ele>390.4</ele>
        <time>2023-10-01T09:07:42Z</time>
      </trkpt>
      <trkpt lat="48.16053" lon="6.40806">
        <ele>390.4</ele>
        <time>2023-10-01T09:07:43Z</time>
      </trkpt>
      <trkpt lat="48.16054" lon="6.40811">
        <ele>390.6</ele>
        <time>2023-10-01T09:07:44Z</time>
      </trkpt>
      <trkpt lat="48.16054" lon="6.40815">
        <ele>390.6</ele>
        <time>2023-10-01T09:07:45Z</time>
      </trkpt>
      <trkpt lat="48.16054" lon="6.40819">
        <ele>390.8</ele>
        <time>2023-10-01T09:07:46Z</time>
      </trkpt>
      <trkpt lat="48.16053" lon="6.40822">
        <ele>390.8</ele>
        <time>2023-10-01T09:07:47Z</time>
      </trkpt>
      <trkpt lat="48.16053" lon="6.40825">
        <ele>391</ele>
        <time>2023-10-01T09:07:48Z</time>
      </trkpt>
      <trkpt lat="48.16052" lon="6.40828">
        <ele>391.2</ele>
        <time>2023-10-01T09:07:49Z</time>
      </trkpt>
      <trkpt lat="48.16052" lon="6.40832">
        <ele>391.2</ele>
        <time>2023-10-01T09:07:50Z</time>
      </trkpt>
      <trkpt lat="48.16052" lon="6.40837">
        <ele>391.4</ele>
        <time>2023-10-01T09:07:51Z</time>
      </trkpt>
      <trkpt lat="48.16052" lon="6.40841">
        <ele>391.4</ele>
        <time>2023-10-01T09:07:52Z</time>
      </trkpt>
      <trkpt lat="48.16053" lon="6.40846">
        <ele>391.6</ele>
        <time>2023-10-01T09:07:53Z</time>
      </trkpt>
      <trkpt lat="48.16053" lon="6.40851">
        <ele>391.6</ele>
        <time>2023-10-01T09:07:54Z</time>
      </trkpt>
      <trkpt lat="48.16053" lon="6.40856">
        <ele>391.6</ele>
        <time>2023-10-01T09:07:55Z</time>
      </trkpt>
      <trkpt lat="48.16053" lon="6.4086">
        <ele>391.8</ele>
        <time>2023-10-01T09:07:56Z</time>
      </trkpt>
      <trkpt lat="48.16053" lon="6.40866">
        <ele>392</ele>
        <time>2023-10-01T09:07:57Z</time>
      </trkpt>
      <trkpt lat="48.16052" lon="6.40871">
        <ele>392</ele>
        <time>2023-10-01T09:07:58Z</time>
      </trkpt>
      <trkpt lat="48.16052" lon="6.40875">
        <ele>392.2</ele>
        <time>2023-10-01T09:07:59Z</time>
      </trkpt>
      <trkpt lat="48.16052" lon="6.40878">
        <ele>392.2</ele>
        <time>2023-10-01T09:08:00Z</time>
      </trkpt>
      <trkpt lat="48.16052" lon="6.40882">
        <ele>392.6</ele>
        <time>2023-10-01T09:08:01Z</time>
      </trkpt>
      <trkpt lat="48.16052" lon="6.40885">
        <ele>392.6</ele>
        <time>2023-10-01T09:08:02Z</time>
      </trkpt>
      <trkpt lat="48.16052" lon="6.40888">
        <ele>392.8</ele>
        <time>2023-10-01T09:08:03Z</time>
      </trkpt>
      <trkpt lat="48.16051" lon="6.40891">
        <ele>392.8</ele>
        <time>2023-10-01T09:08:04Z</time>
      </trkpt>
      <trkpt lat="48.1605" lon="6.40894">
        <ele>393.2</ele>
        <time>2023-10-01T09:08:05Z</time>
      </trkpt>
      <trkpt lat="48.1605" lon="6.40896">
        <ele>393.4</ele>
        <time>2023-10-01T09:08:06Z</time>
      </trkpt>
      <trkpt lat="48.1605" lon="6.40899">
        <ele>393.6</ele>
        <time>2023-10-01T09:08:07Z</time>
      </trkpt>
      <trkpt lat="48.16049" lon="6.40902">
        <ele>393.8</ele>
        <time>2023-10-01T09:08:08Z</time>
      </trkpt>
      <trkpt lat="48.16047" lon="6.40906">
        <ele>394</ele>
        <time>2023-10-01T09:08:09Z</time>
      </trkpt>
      <trkpt lat="48.16045" lon="6.40909">
        <ele>394</ele>
        <time>2023-10-01T09:08:10Z</time>
      </trkpt>
      <trkpt lat="48.16043" lon="6.40912">
        <ele>394.2</ele>
        <time>2023-10-01T09:08:11Z</time>
      </trkpt>
      <trkpt lat="48.16041" lon="6.40914">
        <ele>394.4</ele>
        <time>2023-10-01T09:08:12Z</time>
      </trkpt>
      <trkpt lat="48.16039" lon="6.40917">
        <ele>394.4</ele>
        <time>2023-10-01T09:08:13Z</time>
      </trkpt>
      <trkpt lat="48.16037" lon="6.40925">
        <ele>394.6</ele>
        <time>2023-10-01T09:08:14Z</time>
      </trkpt>
      <trkpt lat="48.16035" lon="6.40928">
        <ele>394.6</ele>
        <time>2023-10-01T09:08:15Z</time>
      </trkpt>
      <trkpt lat="48.16032" lon="6.40932">
        <ele>394.6</ele>
        <time>2023-10-01T09:08:16Z</time>
      </trkpt>
      <trkpt lat="48.16028" lon="6.40937">
        <ele>394.6</ele>
        <time>2023-10-01T09:08:17Z</time>
      </trkpt>
      <trkpt lat="48.16025" lon="6.40945">
        <ele>394.6</ele>
        <time>2023-10-01T09:08:18Z</time>
      </trkpt>
      <trkpt lat="48.16023" lon="6.40949">
        <ele>394.8</ele>
        <time>2023-10-01T09:08:19Z</time>
      </trkpt>
      <trkpt lat="48.16022" lon="6.40954">
        <ele>394.8</ele>
        <time>2023-10-01T09:08:20Z</time>
      </trkpt>
      <trkpt lat="48.16019" lon="6.40958">
        <ele>395</ele>
        <time>2023-10-01T09:08:21Z</time>
      </trkpt>
      <trkpt lat="48.16017" lon="6.40961">
        <ele>395.8</ele>
        <time>2023-10-01T09:08:22Z</time>
      </trkpt>
      <trkpt lat="48.16015" lon="6.40963">
        <ele>396</ele>
        <time>2023-10-01T09:08:23Z</time>
      </trkpt>
      <trkpt lat="48.16015" lon="6.40964">
        <ele>396.2</ele>
        <time>2023-10-01T09:08:24Z</time>
      </trkpt>
      <trkpt lat="48.16014" lon="6.40967">
        <ele>396.4</ele>
        <time>2023-10-01T09:08:25Z</time>
      </trkpt>
      <trkpt lat="48.16013" lon="6.40971">
        <ele>396.4</ele>
        <time>2023-10-01T09:08:26Z</time>
      </trkpt>
      <trkpt lat="48.16013" lon="6.40975">
        <ele>396.4</ele>
        <time>2023-10-01T09:08:27Z</time>
      </trkpt>
      <trkpt lat="48.16011" lon="6.4098">
        <ele>396.6</ele>
        <time>2023-10-01T09:08:28Z</time>
      </trkpt>
      <trkpt lat="48.16011" lon="6.40986">
        <ele>396.6</ele>
        <time>2023-10-01T09:08:29Z</time>
      </trkpt>
      <trkpt lat="48.16012" lon="6.40994">
        <ele>396.6</ele>
        <time>2023-10-01T09:08:30Z</time>
      </trkpt>
      <trkpt lat="48.16015" lon="6.41012">
        <ele>396.4</ele>
        <time>2023-10-01T09:08:31Z</time>
      </trkpt>
      <trkpt lat="48.16018" lon="6.4102">
        <ele>396.2</ele>
        <time>2023-10-01T09:08:32Z</time>
      </trkpt>
      <trkpt lat="48.16021" lon="6.41024">
        <ele>395.2</ele>
        <time>2023-10-01T09:08:33Z</time>
      </trkpt>
      <trkpt lat="48.16024" lon="6.41026">
        <ele>394.6</ele>
        <time>2023-10-01T09:08:34Z</time>
      </trkpt>
      <trkpt lat="48.16027" lon="6.41028">
        <ele>393.8</ele>
        <time>2023-10-01T09:08:35Z</time>
      </trkpt>
      <trkpt lat="48.16031" lon="6.41035">
        <ele>393.6</ele>
        <time>2023-10-01T09:08:36Z</time>
      </trkpt>
      <trkpt lat="48.16034" lon="6.41038">
        <ele>392.6</ele>
        <time>2023-10-01T09:08:37Z</time>
      </trkpt>
      <trkpt lat="48.16038" lon="6.4104">
        <ele>392.2</ele>
        <time>2023-10-01T09:08:38Z</time>
      </trkpt>
      <trkpt lat="48.16043" lon="6.41044">
        <ele>391.4</ele>
        <time>2023-10-01T09:08:39Z</time>
      </trkpt>
      <trkpt lat="48.16046" lon="6.41047">
        <ele>391</ele>
        <time>2023-10-01T09:08:40Z</time>
      </trkpt>
      <trkpt lat="48.16051" lon="6.41051">
        <ele>390.6</ele>
        <time>2023-10-01T09:08:41Z</time>
      </trkpt>
      <trkpt lat="48.16054" lon="6.41053">
        <ele>390.4</ele>
        <time>2023-10-01T09:08:42Z</time>
      </trkpt>
      <trkpt lat="48.16058" lon="6.41054">
        <ele>389.8</ele>
        <time>2023-10-01T09:08:43Z</time>
      </trkpt>
      <trkpt lat="48.16062" lon="6.41056">
        <ele>389.6</ele>
        <time>2023-10-01T09:08:44Z</time>
      </trkpt>
      <trkpt lat="48.16066" lon="6.41058">
        <ele>389.4</ele>
        <time>2023-10-01T09:08:45Z</time>
      </trkpt>
      <trkpt lat="48.1607" lon="6.41061">
        <ele>389.4</ele>
        <time>2023-10-01T09:08:46Z</time>
      </trkpt>
      <trkpt lat="48.16076" lon="6.41064">
        <ele>389</ele>
        <time>2023-10-01T09:08:47Z</time>
      </trkpt>
      <trkpt lat="48.16081" lon="6.41067">
        <ele>388.4</ele>
        <time>2023-10-01T09:08:48Z</time>
      </trkpt>
      <trkpt lat="48.16084" lon="6.41068">
        <ele>388.4</ele>
        <time>2023-10-01T09:08:49Z</time>
      </trkpt>
      <trkpt lat="48.16087" lon="6.4107">
        <ele>387.4</ele>
        <time>2023-10-01T09:08:50Z</time>
      </trkpt>
      <trkpt lat="48.16089" lon="6.4107">
        <ele>386.8</ele>
        <time>2023-10-01T09:08:51Z</time>
      </trkpt>
      <trkpt lat="48.16091" lon="6.4107">
        <ele>385.4</ele>
        <time>2023-10-01T09:08:52Z</time>
      </trkpt>
      <trkpt lat="48.16094" lon="6.41073">
        <ele>384.6</ele>
        <time>2023-10-01T09:08:53Z</time>
      </trkpt>
      <trkpt lat="48.16097" lon="6.41075">
        <ele>383.8</ele>
        <time>2023-10-01T09:08:54Z</time>
      </trkpt>
      <trkpt lat="48.161" lon="6.41076">
        <ele>383.2</ele>
        <time>2023-10-01T09:08:55Z</time>
      </trkpt>
      <trkpt lat="48.16103" lon="6.41077">
        <ele>382.4</ele>
        <time>2023-10-01T09:08:56Z</time>
      </trkpt>
      <trkpt lat="48.16106" lon="6.41078">
        <ele>381.8</ele>
        <time>2023-10-01T09:08:57Z</time>
      </trkpt>
      <trkpt lat="48.16109" lon="6.41079">
        <ele>381</ele>
        <time>2023-10-01T09:08:58Z</time>
      </trkpt>
      <trkpt lat="48.16112" lon="6.41082">
        <ele>380.8</ele>
        <time>2023-10-01T09:08:59Z</time>
      </trkpt>
      <trkpt lat="48.16114" lon="6.41085">
        <ele>380.2</ele>
        <time>2023-10-01T09:09:00Z</time>
      </trkpt>
      <trkpt lat="48.16117" lon="6.41089">
        <ele>380</ele>
        <time>2023-10-01T09:09:01Z</time>
      </trkpt>
      <trkpt lat="48.16121" lon="6.41093">
        <ele>379.6</ele>
        <time>2023-10-01T09:09:02Z</time>
      </trkpt>
      <trkpt lat="48.16125" lon="6.41096">
        <ele>379</ele>
        <time>2023-10-01T09:09:03Z</time>
      </trkpt>
      <trkpt lat="48.16128" lon="6.41099">
        <ele>378.6</ele>
        <time>2023-10-01T09:09:04Z</time>
      </trkpt>
      <trkpt lat="48.16131" lon="6.41101">
        <ele>377.8</ele>
        <time>2023-10-01T09:09:05Z</time>
      </trkpt>
      <trkpt lat="48.16133" lon="6.41103">
        <ele>377.4</ele>
        <time>2023-10-01T09:09:06Z</time>
      </trkpt>
      <trkpt lat="48.16134" lon="6.41103">
        <ele>377</ele>
        <time>2023-10-01T09:09:07Z</time>
      </trkpt>
      <trkpt lat="48.16133" lon="6.41103">
        <ele>376.8</ele>
        <time>2023-10-01T09:09:08Z</time>
      </trkpt>
      <trkpt lat="48.16133" lon="6.41103">
        <ele>376</ele>
        <time>2023-10-01T09:09:09Z</time>
      </trkpt>
      <trkpt lat="48.16135" lon="6.41106">
        <ele>374.2</ele>
        <time>2023-10-01T09:09:11Z</time>
      </trkpt>
      <trkpt lat="48.16137" lon="6.41108">
        <ele>374</ele>
        <time>2023-10-01T09:09:12Z</time>
      </trkpt>
      <trkpt lat="48.1614" lon="6.41112">
        <ele>372.6</ele>
        <time>2023-10-01T09:09:13Z</time>
      </trkpt>
      <trkpt lat="48.16142" lon="6.41116">
        <ele>372.2</ele>
        <time>2023-10-01T09:09:14Z</time>
      </trkpt>
      <trkpt lat="48.16144" lon="6.41118">
        <ele>371.8</ele>
        <time>2023-10-01T09:09:15Z</time>
      </trkpt>
      <trkpt lat="48.16146" lon="6.41118">
        <ele>371.6</ele>
        <time>2023-10-01T09:09:16Z</time>
      </trkpt>
      <trkpt lat="48.16148" lon="6.4112">
        <ele>371.2</ele>
        <time>2023-10-01T09:09:17Z</time>
      </trkpt>
      <trkpt lat="48.16149" lon="6.41122">
        <ele>371</ele>
        <time>2023-10-01T09:09:18Z</time>
      </trkpt>
      <trkpt lat="48.1615" lon="6.41124">
        <ele>370.8</ele>
        <time>2023-10-01T09:09:19Z</time>
      </trkpt>
      <trkpt lat="48.16153" lon="6.41128">
        <ele>370.6</ele>
        <time>2023-10-01T09:09:20Z</time>
      </trkpt>
      <trkpt lat="48.16156" lon="6.41133">
        <ele>370.2</ele>
        <time>2023-10-01T09:09:21Z</time>
      </trkpt>
      <trkpt lat="48.16159" lon="6.41138">
        <ele>370.2</ele>
        <time>2023-10-01T09:09:22Z</time>
      </trkpt>
      <trkpt lat="48.16159" lon="6.41138">
        <ele>370.2</ele>
        <time>2023-10-01T09:09:23Z</time>
      </trkpt>
      <trkpt lat="48.16161" lon="6.41139">
        <ele>370.2</ele>
        <time>2023-10-01T09:09:24Z</time>
      </trkpt>
      <trkpt lat="48.16162" lon="6.4114">
        <ele>370</ele>
        <time>2023-10-01T09:09:25Z</time>
      </trkpt>
      <trkpt lat="48.16163" lon="6.41143">
        <ele>370.2</ele>
        <time>2023-10-01T09:09:26Z</time>
      </trkpt>
      <trkpt lat="48.16164" lon="6.41145">
        <ele>370.2</ele>
        <time>2023-10-01T09:09:27Z</time>
      </trkpt>
      <trkpt lat="48.16165" lon="6.41149">
        <ele>369.8</ele>
        <time>2023-10-01T09:09:28Z</time>
      </trkpt>
      <trkpt lat="48.16167" lon="6.41156">
        <ele>369.8</ele>
        <time>2023-10-01T09:09:29Z</time>
      </trkpt>
      <trkpt lat="48.16169" lon="6.41162">
        <ele>369.8</ele>
        <time>2023-10-01T09:09:30Z</time>
      </trkpt>
      <trkpt lat="48.1617" lon="6.41164">
        <ele>369.8</ele>
        <time>2023-10-01T09:09:31Z</time>
      </trkpt>
      <trkpt lat="48.16172" lon="6.41169">
        <ele>370</ele>
        <time>2023-10-01T09:09:32Z</time>
      </trkpt>
      <trkpt lat="48.16174" lon="6.41172">
        <ele>370.2</ele>
        <time>2023-10-01T09:09:33Z</time>
      </trkpt>
      <trkpt lat="48.16178" lon="6.41175">
        <ele>369.8</ele>
        <time>2023-10-01T09:09:34Z</time>
      </trkpt>
      <trkpt lat="48.1618" lon="6.41176">
        <ele>369.8</ele>
        <time>2023-10-01T09:09:35Z</time>
      </trkpt>
      <trkpt lat="48.16184" lon="6.41178">
        <ele>370</ele>
        <time>2023-10-01T09:09:36Z</time>
      </trkpt>
      <trkpt lat="48.16189" lon="6.4118">
        <ele>370.2</ele>
        <time>2023-10-01T09:09:37Z</time>
      </trkpt>
      <trkpt lat="48.16195" lon="6.41182">
        <ele>370.2</ele>
        <time>2023-10-01T09:09:38Z</time>
      </trkpt>
      <trkpt lat="48.162" lon="6.41183">
        <ele>370.2</ele>
        <time>2023-10-01T09:09:39Z</time>
      </trkpt>
      <trkpt lat="48.16205" lon="6.41182">
        <ele>370.4</ele>
        <time>2023-10-01T09:09:40Z</time>
      </trkpt>
      <trkpt lat="48.1621" lon="6.4118">
        <ele>370.4</ele>
        <time>2023-10-01T09:09:41Z</time>
      </trkpt>
      <trkpt lat="48.16213" lon="6.41179">
        <ele>370.4</ele>
        <time>2023-10-01T09:09:42Z</time>
      </trkpt>
      <trkpt lat="48.16217" lon="6.41178">
        <ele>370.6</ele>
        <time>2023-10-01T09:09:43Z</time>
      </trkpt>
      <trkpt lat="48.16222" lon="6.41179">
        <ele>370.6</ele>
        <time>2023-10-01T09:09:44Z</time>
      </trkpt>
      <trkpt lat="48.16226" lon="6.4118">
        <ele>370.6</ele>
        <time>2023-10-01T09:09:45Z</time>
      </trkpt>
      <trkpt lat="48.16228" lon="6.41181">
        <ele>370.6</ele>
        <time>2023-10-01T09:09:46Z</time>
      </trkpt>
      <trkpt lat="48.1623" lon="6.4118">
        <ele>370.6</ele>
        <time>2023-10-01T09:09:47Z</time>
      </trkpt>
      <trkpt lat="48.16234" lon="6.41183">
        <ele>370.6</ele>
        <time>2023-10-01T09:09:48Z</time>
      </trkpt>
      <trkpt lat="48.16241" lon="6.41186">
        <ele>370.8</ele>
        <time>2023-10-01T09:09:49Z</time>
      </trkpt>
      <trkpt lat="48.16246" lon="6.41189">
        <ele>370.8</ele>
        <time>2023-10-01T09:09:50Z</time>
      </trkpt>
      <trkpt lat="48.1625" lon="6.41191">
        <ele>371.2</ele>
        <time>2023-10-01T09:09:51Z</time>
      </trkpt>
      <trkpt lat="48.16256" lon="6.41194">
        <ele>371.4</ele>
        <time>2023-10-01T09:09:52Z</time>
      </trkpt>
      <trkpt lat="48.1626" lon="6.41196">
        <ele>371.8</ele>
        <time>2023-10-01T09:09:53Z</time>
      </trkpt>
      <trkpt lat="48.16265" lon="6.41201">
        <ele>372.2</ele>
        <time>2023-10-01T09:09:54Z</time>
      </trkpt>
      <trkpt lat="48.1627" lon="6.41202">
        <ele>372.4</ele>
        <time>2023-10-01T09:09:55Z</time>
      </trkpt>
      <trkpt lat="48.16273" lon="6.41203">
        <ele>372.6</ele>
        <time>2023-10-01T09:09:56Z</time>
      </trkpt>
      <trkpt lat="48.16277" lon="6.41207">
        <ele>372.6</ele>
        <time>2023-10-01T09:09:57Z</time>
      </trkpt>
      <trkpt lat="48.1628" lon="6.41211">
        <ele>373</ele>
        <time>2023-10-01T09:09:58Z</time>
      </trkpt>
      <trkpt lat="48.16283" lon="6.41214">
        <ele>373</ele>
        <time>2023-10-01T09:09:59Z</time>
      </trkpt>
      <trkpt lat="48.16286" lon="6.41219">
        <ele>373.2</ele>
        <time>2023-10-01T09:10:00Z</time>
      </trkpt>
      <trkpt lat="48.16289" lon="6.41224">
        <ele>373.4</ele>
        <time>2023-10-01T09:10:01Z</time>
      </trkpt>
      <trkpt lat="48.16291" lon="6.41226">
        <ele>373.6</ele>
        <time>2023-10-01T09:10:02Z</time>
      </trkpt>
      <trkpt lat="48.16294" lon="6.41228">
        <ele>373.8</ele>
        <time>2023-10-01T09:10:03Z</time>
      </trkpt>
      <trkpt lat="48.16299" lon="6.41234">
        <ele>374</ele>
        <time>2023-10-01T09:10:04Z</time>
      </trkpt>
      <trkpt lat="48.16303" lon="6.4124">
        <ele>374.2</ele>
        <time>2023-10-01T09:10:05Z</time>
      </trkpt>
      <trkpt lat="48.16307" lon="6.41247">
        <ele>374.4</ele>
        <time>2023-10-01T09:10:06Z</time>
      </trkpt>
      <trkpt lat="48.16309" lon="6.41251">
        <ele>374.4</ele>
        <time>2023-10-01T09:10:07Z</time>
      </trkpt>
      <trkpt lat="48.16313" lon="6.41255">
        <ele>374.4</ele>
        <time>2023-10-01T09:10:08Z</time>
      </trkpt>
      <trkpt lat="48.16316" lon="6.41259">
        <ele>374.4</ele>
        <time>2023-10-01T09:10:09Z</time>
      </trkpt>
      <trkpt lat="48.16318" lon="6.41263">
        <ele>374</ele>
        <time>2023-10-01T09:10:10Z</time>
      </trkpt>
      <trkpt lat="48.1632" lon="6.41269">
        <ele>373.8</ele>
        <time>2023-10-01T09:10:11Z</time>
      </trkpt>
      <trkpt lat="48.16323" lon="6.41274">
        <ele>373.8</ele>
        <time>2023-10-01T09:10:12Z</time>
      </trkpt>
      <trkpt lat="48.16326" lon="6.41281">
        <ele>373.4</ele>
        <time>2023-10-01T09:10:13Z</time>
      </trkpt>
      <trkpt lat="48.1633" lon="6.41285">
        <ele>373.4</ele>
        <time>2023-10-01T09:10:14Z</time>
      </trkpt>
      <trkpt lat="48.16334" lon="6.41291">
        <ele>373.2</ele>
        <time>2023-10-01T09:10:15Z</time>
      </trkpt>
      <trkpt lat="48.16338" lon="6.41297">
        <ele>373</ele>
        <time>2023-10-01T09:10:16Z</time>
      </trkpt>
      <trkpt lat="48.16341" lon="6.41303">
        <ele>372.6</ele>
        <time>2023-10-01T09:10:17Z</time>
      </trkpt>
      <trkpt lat="48.16346" lon="6.4131">
        <ele>372.6</ele>
        <time>2023-10-01T09:10:18Z</time>
      </trkpt>
      <trkpt lat="48.16353" lon="6.41318">
        <ele>372.4</ele>
        <time>2023-10-01T09:10:19Z</time>
      </trkpt>
      <trkpt lat="48.16359" lon="6.41326">
        <ele>372.2</ele>
        <time>2023-10-01T09:10:20Z</time>
      </trkpt>
      <trkpt lat="48.16361" lon="6.41332">
        <ele>372.2</ele>
        <time>2023-10-01T09:10:21Z</time>
      </trkpt>
      <trkpt lat="48.1636" lon="6.41338">
        <ele>372.2</ele>
        <time>2023-10-01T09:10:22Z</time>
      </trkpt>
      <trkpt lat="48.16359" lon="6.41341">
        <ele>372</ele>
        <time>2023-10-01T09:10:23Z</time>
      </trkpt>
      <trkpt lat="48.16356" lon="6.41346">
        <ele>371.8</ele>
        <time>2023-10-01T09:10:24Z</time>
      </trkpt>
      <trkpt lat="48.16354" lon="6.41348">
        <ele>371.4</ele>
        <time>2023-10-01T09:10:25Z</time>
      </trkpt>
      <trkpt lat="48.16352" lon="6.4135">
        <ele>371.2</ele>
        <time>2023-10-01T09:10:26Z</time>
      </trkpt>
      <trkpt lat="48.16351" lon="6.41352">
        <ele>371</ele>
        <time>2023-10-01T09:10:27Z</time>
      </trkpt>
      <trkpt lat="48.16348" lon="6.41353">
        <ele>371</ele>
        <time>2023-10-01T09:10:28Z</time>
      </trkpt>
      <trkpt lat="48.16345" lon="6.41354">
        <ele>371</ele>
        <time>2023-10-01T09:10:29Z</time>
      </trkpt>
      <trkpt lat="48.16342" lon="6.41355">
        <ele>370.8</ele>
        <time>2023-10-01T09:10:30Z</time>
      </trkpt>
      <trkpt lat="48.16338" lon="6.41357">
        <ele>370.8</ele>
        <time>2023-10-01T09:10:31Z</time>
      </trkpt>
      <trkpt lat="48.16336" lon="6.41358">
        <ele>370.8</ele>
        <time>2023-10-01T09:10:32Z</time>
      </trkpt>
      <trkpt lat="48.16331" lon="6.41361">
        <ele>370.8</ele>
        <time>2023-10-01T09:10:33Z</time>
      </trkpt>
      <trkpt lat="48.16327" lon="6.41362">
        <ele>370.8</ele>
        <time>2023-10-01T09:10:34Z</time>
      </trkpt>
      <trkpt lat="48.16324" lon="6.41364">
        <ele>370.8</ele>
        <time>2023-10-01T09:10:35Z</time>
      </trkpt>
      <trkpt lat="48.1632" lon="6.41367">
        <ele>370.8</ele>
        <time>2023-10-01T09:10:36Z</time>
      </trkpt>
      <trkpt lat="48.16315" lon="6.41369">
        <ele>370.8</ele>
        <time>2023-10-01T09:10:37Z</time>
      </trkpt>
      <trkpt lat="48.1631" lon="6.41372">
        <ele>370.8</ele>
        <time>2023-10-01T09:10:38Z</time>
      </trkpt>
      <trkpt lat="48.16306" lon="6.41374">
        <ele>370.8</ele>
        <time>2023-10-01T09:10:39Z</time>
      </trkpt>
      <trkpt lat="48.16302" lon="6.41377">
        <ele>370.8</ele>
        <time>2023-10-01T09:10:40Z</time>
      </trkpt>
      <trkpt lat="48.16299" lon="6.41379">
        <ele>370.8</ele>
        <time>2023-10-01T09:10:41Z</time>
      </trkpt>
      <trkpt lat="48.16295" lon="6.41382">
        <ele>370.8</ele>
        <time>2023-10-01T09:10:42Z</time>
      </trkpt>
      <trkpt lat="48.16291" lon="6.41385">
        <ele>370.8</ele>
        <time>2023-10-01T09:10:43Z</time>
      </trkpt>
      <trkpt lat="48.16286" lon="6.41388">
        <ele>370.8</ele>
        <time>2023-10-01T09:10:44Z</time>
      </trkpt>
      <trkpt lat="48.16282" lon="6.41391">
        <ele>370.8</ele>
        <time>2023-10-01T09:10:45Z</time>
      </trkpt>
      <trkpt lat="48.16279" lon="6.41393">
        <ele>370.8</ele>
        <time>2023-10-01T09:10:46Z</time>
      </trkpt>
      <trkpt lat="48.16275" lon="6.41397">
        <ele>370.8</ele>
        <time>2023-10-01T09:10:47Z</time>
      </trkpt>
      <trkpt lat="48.1627" lon="6.41401">
        <ele>370.8</ele>
        <time>2023-10-01T09:10:48Z</time>
      </trkpt>
      <trkpt lat="48.16266" lon="6.41405">
        <ele>370.8</ele>
        <time>2023-10-01T09:10:49Z</time>
      </trkpt>
      <trkpt lat="48.16262" lon="6.41409">
        <ele>370.8</ele>
        <time>2023-10-01T09:10:50Z</time>
      </trkpt>
      <trkpt lat="48.16257" lon="6.41413">
        <ele>370.8</ele>
        <time>2023-10-01T09:10:51Z</time>
      </trkpt>
      <trkpt lat="48.16252" lon="6.41419">
        <ele>370.8</ele>
        <time>2023-10-01T09:10:52Z</time>
      </trkpt>
      <trkpt lat="48.16247" lon="6.41425">
        <ele>370.8</ele>
        <time>2023-10-01T09:10:53Z</time>
      </trkpt>
      <trkpt lat="48.16243" lon="6.4143">
        <ele>370.8</ele>
        <time>2023-10-01T09:10:54Z</time>
      </trkpt>
      <trkpt lat="48.16239" lon="6.41438">
        <ele>370.8</ele>
        <time>2023-10-01T09:10:55Z</time>
      </trkpt>
      <trkpt lat="48.16235" lon="6.41446">
        <ele>370.8</ele>
        <time>2023-10-01T09:10:56Z</time>
      </trkpt>
      <trkpt lat="48.1623" lon="6.41453">
        <ele>371</ele>
        <time>2023-10-01T09:10:57Z</time>
      </trkpt>
      <trkpt lat="48.16225" lon="6.41461">
        <ele>371</ele>
        <time>2023-10-01T09:10:58Z</time>
      </trkpt>
      <trkpt lat="48.16219" lon="6.41469">
        <ele>371.2</ele>
        <time>2023-10-01T09:10:59Z</time>
      </trkpt>
      <trkpt lat="48.16214" lon="6.41478">
        <ele>371.2</ele>
        <time>2023-10-01T09:11:00Z</time>
      </trkpt>
      <trkpt lat="48.16206" lon="6.41487">
        <ele>371.2</ele>
        <time>2023-10-01T09:11:01Z</time>
      </trkpt>
      <trkpt lat="48.16203" lon="6.41496">
        <ele>371.2</ele>
        <time>2023-10-01T09:11:02Z</time>
      </trkpt>
      <trkpt lat="48.16201" lon="6.41502">
        <ele>371.2</ele>
        <time>2023-10-01T09:11:03Z</time>
      </trkpt>
      <trkpt lat="48.16198" lon="6.41507">
        <ele>371</ele>
        <time>2023-10-01T09:11:04Z</time>
      </trkpt>
      <trkpt lat="48.16194" lon="6.41515">
        <ele>371</ele>
        <time>2023-10-01T09:11:05Z</time>
      </trkpt>
      <trkpt lat="48.1619" lon="6.41523">
        <ele>371</ele>
        <time>2023-10-01T09:11:06Z</time>
      </trkpt>
      <trkpt lat="48.16186" lon="6.4153">
        <ele>371</ele>
        <time>2023-10-01T09:11:07Z</time>
      </trkpt>
      <trkpt lat="48.16182" lon="6.41535">
        <ele>371</ele>
        <time>2023-10-01T09:11:08Z</time>
      </trkpt>
      <trkpt lat="48.16178" lon="6.41542">
        <ele>371</ele>
        <time>2023-10-01T09:11:09Z</time>
      </trkpt>
      <trkpt lat="48.16174" lon="6.41549">
        <ele>371</ele>
        <time>2023-10-01T09:11:10Z</time>
      </trkpt>
      <trkpt lat="48.16171" lon="6.41557">
        <ele>371</ele>
        <time>2023-10-01T09:11:11Z</time>
      </trkpt>
      <trkpt lat="48.16169" lon="6.41563">
        <ele>370.8</ele>
        <time>2023-10-01T09:11:12Z</time>
      </trkpt>
      <trkpt lat="48.16168" lon="6.41571">
        <ele>370.8</ele>
        <time>2023-10-01T09:11:13Z</time>
      </trkpt>
      <trkpt lat="48.16169" lon="6.41579">
        <ele>371</ele>
        <time>2023-10-01T09:11:14Z</time>
      </trkpt>
      <trkpt lat="48.1617" lon="6.41581">
        <ele>371</ele>
        <time>2023-10-01T09:11:15Z</time>
      </trkpt>
      <trkpt lat="48.16172" lon="6.41582">
        <ele>371</ele>
        <time>2023-10-01T09:11:16Z</time>
      </trkpt>
      <trkpt lat="48.16173" lon="6.4158">
        <ele>371.2</ele>
        <time>2023-10-01T09:11:17Z</time>
      </trkpt>
      <trkpt lat="48.16176" lon="6.41577">
        <ele>371.2</ele>
        <time>2023-10-01T09:11:18Z</time>
      </trkpt>
      <trkpt lat="48.16179" lon="6.41573">
        <ele>371.2</ele>
        <time>2023-10-01T09:11:19Z</time>
      </trkpt>
      <trkpt lat="48.16182" lon="6.41565">
        <ele>371.2</ele>
        <time>2023-10-01T09:11:20Z</time>
      </trkpt>
      <trkpt lat="48.16187" lon="6.41558">
        <ele>371.2</ele>
        <time>2023-10-01T09:11:21Z</time>
      </trkpt>
      <trkpt lat="48.16192" lon="6.41552">
        <ele>371.2</ele>
        <time>2023-10-01T09:11:22Z</time>
      </trkpt>
      <trkpt lat="48.16196" lon="6.41546">
        <ele>371.4</ele>
        <time>2023-10-01T09:11:23Z</time>
      </trkpt>
      <trkpt lat="48.16201" lon="6.41541">
        <ele>371.4</ele>
        <time>2023-10-01T09:11:24Z</time>
      </trkpt>
      <trkpt lat="48.16206" lon="6.41536">
        <ele>371.2</ele>
        <time>2023-10-01T09:11:25Z</time>
      </trkpt>
      <trkpt lat="48.16211" lon="6.41531">
        <ele>371.4</ele>
        <time>2023-10-01T09:11:26Z</time>
      </trkpt>
      <trkpt lat="48.16217" lon="6.41525">
        <ele>371.2</ele>
        <time>2023-10-01T09:11:27Z</time>
      </trkpt>
      <trkpt lat="48.16223" lon="6.41519">
        <ele>371.2</ele>
        <time>2023-10-01T09:11:28Z</time>
      </trkpt>
      <trkpt lat="48.16228" lon="6.41513">
        <ele>371.2</ele>
        <time>2023-10-01T09:11:29Z</time>
      </trkpt>
      <trkpt lat="48.16234" lon="6.41506">
        <ele>371</ele>
        <time>2023-10-01T09:11:30Z</time>
      </trkpt>
      <trkpt lat="48.16241" lon="6.415">
        <ele>370.8</ele>
        <time>2023-10-01T09:11:31Z</time>
      </trkpt>
      <trkpt lat="48.16248" lon="6.41493">
        <ele>370.8</ele>
        <time>2023-10-01T09:11:32Z</time>
      </trkpt>
      <trkpt lat="48.16254" lon="6.41486">
        <ele>370.4</ele>
        <time>2023-10-01T09:11:33Z</time>
      </trkpt>
      <trkpt lat="48.1626" lon="6.41479">
        <ele>370.2</ele>
        <time>2023-10-01T09:11:34Z</time>
      </trkpt>
      <trkpt lat="48.16266" lon="6.41473">
        <ele>370.2</ele>
        <time>2023-10-01T09:11:35Z</time>
      </trkpt>
      <trkpt lat="48.16273" lon="6.41469">
        <ele>369.8</ele>
        <time>2023-10-01T09:11:36Z</time>
      </trkpt>
      <trkpt lat="48.16279" lon="6.41464">
        <ele>369.8</ele>
        <time>2023-10-01T09:11:37Z</time>
      </trkpt>
      <trkpt lat="48.16285" lon="6.41459">
        <ele>369.6</ele>
        <time>2023-10-01T09:11:38Z</time>
      </trkpt>
      <trkpt lat="48.16291" lon="6.41457">
        <ele>369.6</ele>
        <time>2023-10-01T09:11:39Z</time>
      </trkpt>
      <trkpt lat="48.16297" lon="6.41455">
        <ele>369.2</ele>
        <time>2023-10-01T09:11:40Z</time>
      </trkpt>
      <trkpt lat="48.16302" lon="6.41453">
        <ele>369</ele>
        <time>2023-10-01T09:11:41Z</time>
      </trkpt>
      <trkpt lat="48.16307" lon="6.41449">
        <ele>368.6</ele>
        <time>2023-10-01T09:11:42Z</time>
      </trkpt>
      <trkpt lat="48.16312" lon="6.41446">
        <ele>368.2</ele>
        <time>2023-10-01T09:11:43Z</time>
      </trkpt>
      <trkpt lat="48.16319" lon="6.41444">
        <ele>367.8</ele>
        <time>2023-10-01T09:11:44Z</time>
      </trkpt>
      <trkpt lat="48.16326" lon="6.41442">
        <ele>367.8</ele>
        <time>2023-10-01T09:11:45Z</time>
      </trkpt>
      <trkpt lat="48.16333" lon="6.41441">
        <ele>367.6</ele>
        <time>2023-10-01T09:11:46Z</time>
      </trkpt>
      <trkpt lat="48.1634" lon="6.4144">
        <ele>367.4</ele>
        <time>2023-10-01T09:11:47Z</time>
      </trkpt>
      <trkpt lat="48.16348" lon="6.4144">
        <ele>367</ele>
        <time>2023-10-01T09:11:48Z</time>
      </trkpt>
      <trkpt lat="48.16354" lon="6.4144">
        <ele>366.8</ele>
        <time>2023-10-01T09:11:49Z</time>
      </trkpt>
      <trkpt lat="48.16362" lon="6.41443">
        <ele>366.6</ele>
        <time>2023-10-01T09:11:50Z</time>
      </trkpt>
      <trkpt lat="48.16368" lon="6.41446">
        <ele>366.4</ele>
        <time>2023-10-01T09:11:51Z</time>
      </trkpt>
      <trkpt lat="48.16375" lon="6.41448">
        <ele>366</ele>
        <time>2023-10-01T09:11:52Z</time>
      </trkpt>
      <trkpt lat="48.16382" lon="6.41453">
        <ele>365.6</ele>
        <time>2023-10-01T09:11:53Z</time>
      </trkpt>
      <trkpt lat="48.1639" lon="6.41455">
        <ele>365.4</ele>
        <time>2023-10-01T09:11:54Z</time>
      </trkpt>
      <trkpt lat="48.164" lon="6.41456">
        <ele>365.2</ele>
        <time>2023-10-01T09:11:55Z</time>
      </trkpt>
      <trkpt lat="48.16408" lon="6.41458">
        <ele>365</ele>
        <time>2023-10-01T09:11:56Z</time>
      </trkpt>
      <trkpt lat="48.16417" lon="6.4146">
        <ele>364.8</ele>
        <time>2023-10-01T09:11:57Z</time>
      </trkpt>
      <trkpt lat="48.16424" lon="6.41462">
        <ele>364.6</ele>
        <time>2023-10-01T09:11:58Z</time>
      </trkpt>
      <trkpt lat="48.16431" lon="6.41464">
        <ele>364.4</ele>
        <time>2023-10-01T09:11:59Z</time>
      </trkpt>
      <trkpt lat="48.16438" lon="6.41466">
        <ele>364.2</ele>
        <time>2023-10-01T09:12:00Z</time>
      </trkpt>
      <trkpt lat="48.16445" lon="6.41469">
        <ele>364</ele>
        <time>2023-10-01T09:12:01Z</time>
      </trkpt>
      <trkpt lat="48.16451" lon="6.41473">
        <ele>364</ele>
        <time>2023-10-01T09:12:02Z</time>
      </trkpt>
      <trkpt lat="48.16458" lon="6.41476">
        <ele>363.6</ele>
        <time>2023-10-01T09:12:03Z</time>
      </trkpt>
      <trkpt lat="48.16466" lon="6.41482">
        <ele>363.4</ele>
        <time>2023-10-01T09:12:04Z</time>
      </trkpt>
      <trkpt lat="48.16472" lon="6.41487">
        <ele>363.2</ele>
        <time>2023-10-01T09:12:05Z</time>
      </trkpt>
      <trkpt lat="48.1648" lon="6.41491">
        <ele>363.2</ele>
        <time>2023-10-01T09:12:06Z</time>
      </trkpt>
      <trkpt lat="48.16487" lon="6.41497">
        <ele>363</ele>
        <time>2023-10-01T09:12:07Z</time>
      </trkpt>
      <trkpt lat="48.16493" lon="6.41503">
        <ele>362.6</ele>
        <time>2023-10-01T09:12:08Z</time>
      </trkpt>
      <trkpt lat="48.16499" lon="6.41511">
        <ele>362.4</ele>
        <time>2023-10-01T09:12:09Z</time>
      </trkpt>
      <trkpt lat="48.16504" lon="6.41518">
        <ele>362.2</ele>
        <time>2023-10-01T09:12:10Z</time>
      </trkpt>
      <trkpt lat="48.16508" lon="6.41525">
        <ele>362</ele>
        <time>2023-10-01T09:12:11Z</time>
      </trkpt>
      <trkpt lat="48.16514" lon="6.41531">
        <ele>361.6</ele>
        <time>2023-10-01T09:12:12Z</time>
      </trkpt>
      <trkpt lat="48.16519" lon="6.41538">
        <ele>361.4</ele>
        <time>2023-10-01T09:12:13Z</time>
      </trkpt>
      <trkpt lat="48.16523" lon="6.41544">
        <ele>361.2</ele>
        <time>2023-10-01T09:12:14Z</time>
      </trkpt>
      <trkpt lat="48.16528" lon="6.41551">
        <ele>361.2</ele>
        <time>2023-10-01T09:12:15Z</time>
      </trkpt>
      <trkpt lat="48.16534" lon="6.41559">
        <ele>361.2</ele>
        <time>2023-10-01T09:12:16Z</time>
      </trkpt>
      <trkpt lat="48.16539" lon="6.41566">
        <ele>361</ele>
        <time>2023-10-01T09:12:17Z</time>
      </trkpt>
      <trkpt lat="48.16543" lon="6.41572">
        <ele>360.6</ele>
        <time>2023-10-01T09:12:18Z</time>
      </trkpt>
      <trkpt lat="48.16546" lon="6.41577">
        <ele>360.4</ele>
        <time>2023-10-01T09:12:19Z</time>
      </trkpt>
      <trkpt lat="48.16549" lon="6.41581">
        <ele>360</ele>
        <time>2023-10-01T09:12:20Z</time>
      </trkpt>
      <trkpt lat="48.16553" lon="6.41584">
        <ele>360</ele>
        <time>2023-10-01T09:12:21Z</time>
      </trkpt>
      <trkpt lat="48.16556" lon="6.41588">
        <ele>359.8</ele>
        <time>2023-10-01T09:12:22Z</time>
      </trkpt>
      <trkpt lat="48.16559" lon="6.41592">
        <ele>359.6</ele>
        <time>2023-10-01T09:12:23Z</time>
      </trkpt>
      <trkpt lat="48.16561" lon="6.41597">
        <ele>359.6</ele>
        <time>2023-10-01T09:12:24Z</time>
      </trkpt>
      <trkpt lat="48.16564" lon="6.41601">
        <ele>359</ele>
        <time>2023-10-01T09:12:25Z</time>
      </trkpt>
      <trkpt lat="48.16567" lon="6.41605">
        <ele>359</ele>
        <time>2023-10-01T09:12:26Z</time>
      </trkpt>
      <trkpt lat="48.1657" lon="6.41611">
        <ele>358.8</ele>
        <time>2023-10-01T09:12:27Z</time>
      </trkpt>
      <trkpt lat="48.16573" lon="6.41616">
        <ele>358.6</ele>
        <time>2023-10-01T09:12:28Z</time>
      </trkpt>
      <trkpt lat="48.16577" lon="6.41622">
        <ele>358.6</ele>
        <time>2023-10-01T09:12:29Z</time>
      </trkpt>
      <trkpt lat="48.16581" lon="6.41627">
        <ele>358.6</ele>
        <time>2023-10-01T09:12:30Z</time>
      </trkpt>
      <trkpt lat="48.16586" lon="6.41632">
        <ele>358.6</ele>
        <time>2023-10-01T09:12:31Z</time>
      </trkpt>
      <trkpt lat="48.1659" lon="6.41638">
        <ele>358.6</ele>
        <time>2023-10-01T09:12:32Z</time>
      </trkpt>
      <trkpt lat="48.16593" lon="6.41643">
        <ele>358.6</ele>
        <time>2023-10-01T09:12:33Z</time>
      </trkpt>
      <trkpt lat="48.16597" lon="6.41648">
        <ele>358.6</ele>
        <time>2023-10-01T09:12:34Z</time>
      </trkpt>
      <trkpt lat="48.166" lon="6.41653">
        <ele>358.6</ele>
        <time>2023-10-01T09:12:35Z</time>
      </trkpt>
      <trkpt lat="48.16604" lon="6.41659">
        <ele>358.6</ele>
        <time>2023-10-01T09:12:36Z</time>
      </trkpt>
      <trkpt lat="48.16608" lon="6.41664">
        <ele>358.6</ele>
        <time>2023-10-01T09:12:37Z</time>
      </trkpt>
      <trkpt lat="48.16614" lon="6.41671">
        <ele>358.6</ele>
        <time>2023-10-01T09:12:38Z</time>
      </trkpt>
      <trkpt lat="48.16619" lon="6.41679">
        <ele>358.6</ele>
        <time>2023-10-01T09:12:39Z</time>
      </trkpt>
      <trkpt lat="48.16623" lon="6.41686">
        <ele>358.6</ele>
        <time>2023-10-01T09:12:40Z</time>
      </trkpt>
      <trkpt lat="48.16627" lon="6.41692">
        <ele>358.6</ele>
        <time>2023-10-01T09:12:41Z</time>
      </trkpt>
      <trkpt lat="48.16631" lon="6.41699">
        <ele>358.6</ele>
        <time>2023-10-01T09:12:42Z</time>
      </trkpt>
      <trkpt lat="48.16636" lon="6.41706">
        <ele>358.4</ele>
        <time>2023-10-01T09:12:43Z</time>
      </trkpt>
      <trkpt lat="48.16641" lon="6.41715">
        <ele>358</ele>
        <time>2023-10-01T09:12:44Z</time>
      </trkpt>
      <trkpt lat="48.16647" lon="6.41722">
        <ele>358.2</ele>
        <time>2023-10-01T09:12:45Z</time>
      </trkpt>
      <trkpt lat="48.16653" lon="6.41729">
        <ele>358.4</ele>
        <time>2023-10-01T09:12:46Z</time>
      </trkpt>
      <trkpt lat="48.16659" lon="6.41736">
        <ele>358.4</ele>
        <time>2023-10-01T09:12:47Z</time>
      </trkpt>
      <trkpt lat="48.16666" lon="6.41743">
        <ele>358.4</ele>
        <time>2023-10-01T09:12:48Z</time>
      </trkpt>
      <trkpt lat="48.16675" lon="6.41752">
        <ele>358.4</ele>
        <time>2023-10-01T09:12:49Z</time>
      </trkpt>
      <trkpt lat="48.16682" lon="6.41761">
        <ele>358.4</ele>
        <time>2023-10-01T09:12:50Z</time>
      </trkpt>
      <trkpt lat="48.16688" lon="6.41769">
        <ele>358.4</ele>
        <time>2023-10-01T09:12:51Z</time>
      </trkpt>
      <trkpt lat="48.16694" lon="6.41776">
        <ele>358</ele>
        <time>2023-10-01T09:12:52Z</time>
      </trkpt>
      <trkpt lat="48.167" lon="6.41782">
        <ele>358</ele>
        <time>2023-10-01T09:12:53Z</time>
      </trkpt>
      <trkpt lat="48.16705" lon="6.41787">
        <ele>357.8</ele>
        <time>2023-10-01T09:12:54Z</time>
      </trkpt>
      <trkpt lat="48.16708" lon="6.41793">
        <ele>357.6</ele>
        <time>2023-10-01T09:12:55Z</time>
      </trkpt>
      <trkpt lat="48.1671" lon="6.41795">
        <ele>357.4</ele>
        <time>2023-10-01T09:12:56Z</time>
      </trkpt>
      <trkpt lat="48.16712" lon="6.41798">
        <ele>357.2</ele>
        <time>2023-10-01T09:12:57Z</time>
      </trkpt>
      <trkpt lat="48.16713" lon="6.418">
        <ele>357</ele>
        <time>2023-10-01T09:12:58Z</time>
      </trkpt>
      <trkpt lat="48.16715" lon="6.41803">
        <ele>356.4</ele>
        <time>2023-10-01T09:12:59Z</time>
      </trkpt>
      <trkpt lat="48.16717" lon="6.41806">
        <ele>356.2</ele>
        <time>2023-10-01T09:13:00Z</time>
      </trkpt>
      <trkpt lat="48.16719" lon="6.41808">
        <ele>356</ele>
        <time>2023-10-01T09:13:01Z</time>
      </trkpt>
      <trkpt lat="48.16721" lon="6.4181">
        <ele>356</ele>
        <time>2023-10-01T09:13:02Z</time>
      </trkpt>
      <trkpt lat="48.16722" lon="6.41812">
        <ele>355.8</ele>
        <time>2023-10-01T09:13:03Z</time>
      </trkpt>
      <trkpt lat="48.16723" lon="6.41815">
        <ele>355.8</ele>
        <time>2023-10-01T09:13:04Z</time>
      </trkpt>
      <trkpt lat="48.16725" lon="6.41817">
        <ele>355.8</ele>
        <time>2023-10-01T09:13:05Z</time>
      </trkpt>
      <trkpt lat="48.16726" lon="6.41822">
        <ele>355.8</ele>
        <time>2023-10-01T09:13:06Z</time>
      </trkpt>
      <trkpt lat="48.16729" lon="6.41827">
        <ele>355.8</ele>
        <time>2023-10-01T09:13:07Z</time>
      </trkpt>
      <trkpt lat="48.16732" lon="6.41831">
        <ele>355.6</ele>
        <time>2023-10-01T09:13:08Z</time>
      </trkpt>
      <trkpt lat="48.16735" lon="6.41836">
        <ele>355.6</ele>
        <time>2023-10-01T09:13:09Z</time>
      </trkpt>
      <trkpt lat="48.16739" lon="6.4184">
        <ele>355.6</ele>
        <time>2023-10-01T09:13:10Z</time>
      </trkpt>
      <trkpt lat="48.16743" lon="6.41842">
        <ele>355.6</ele>
        <time>2023-10-01T09:13:11Z</time>
      </trkpt>
      <trkpt lat="48.16746" lon="6.41845">
        <ele>355.8</ele>
        <time>2023-10-01T09:13:12Z</time>
      </trkpt>
      <trkpt lat="48.1675" lon="6.4185">
        <ele>355.8</ele>
        <time>2023-10-01T09:13:13Z</time>
      </trkpt>
      <trkpt lat="48.16754" lon="6.41856">
        <ele>355.4</ele>
        <time>2023-10-01T09:13:14Z</time>
      </trkpt>
      <trkpt lat="48.1676" lon="6.41862">
        <ele>355.4</ele>
        <time>2023-10-01T09:13:15Z</time>
      </trkpt>
      <trkpt lat="48.16768" lon="6.4187">
        <ele>355.4</ele>
        <time>2023-10-01T09:13:16Z</time>
      </trkpt>
      <trkpt lat="48.16776" lon="6.41877">
        <ele>355.4</ele>
        <time>2023-10-01T09:13:17Z</time>
      </trkpt>
      <trkpt lat="48.16783" lon="6.41884">
        <ele>355.4</ele>
        <time>2023-10-01T09:13:18Z</time>
      </trkpt>
      <trkpt lat="48.16789" lon="6.4189">
        <ele>355.4</ele>
        <time>2023-10-01T09:13:19Z</time>
      </trkpt>
      <trkpt lat="48.16794" lon="6.41895">
        <ele>355.4</ele>
        <time>2023-10-01T09:13:20Z</time>
      </trkpt>
      <trkpt lat="48.16799" lon="6.419">
        <ele>355.4</ele>
        <time>2023-10-01T09:13:21Z</time>
      </trkpt>
      <trkpt lat="48.16804" lon="6.41905">
        <ele>355.2</ele>
        <time>2023-10-01T09:13:22Z</time>
      </trkpt>
      <trkpt lat="48.16809" lon="6.41913">
        <ele>355.2</ele>
        <time>2023-10-01T09:13:23Z</time>
      </trkpt>
      <trkpt lat="48.16814" lon="6.41922">
        <ele>355</ele>
        <time>2023-10-01T09:13:24Z</time>
      </trkpt>
      <trkpt lat="48.16821" lon="6.41931">
        <ele>355</ele>
        <time>2023-10-01T09:13:25Z</time>
      </trkpt>
      <trkpt lat="48.16826" lon="6.41938">
        <ele>355</ele>
        <time>2023-10-01T09:13:26Z</time>
      </trkpt>
      <trkpt lat="48.1683" lon="6.41945">
        <ele>355</ele>
        <time>2023-10-01T09:13:27Z</time>
      </trkpt>
      <trkpt lat="48.16835" lon="6.41951">
        <ele>354.8</ele>
        <time>2023-10-01T09:13:28Z</time>
      </trkpt>
      <trkpt lat="48.16842" lon="6.41957">
        <ele>354.8</ele>
        <time>2023-10-01T09:13:29Z</time>
      </trkpt>
      <trkpt lat="48.16849" lon="6.41965">
        <ele>354.6</ele>
        <time>2023-10-01T09:13:30Z</time>
      </trkpt>
      <trkpt lat="48.16856" lon="6.41972">
        <ele>354.4</ele>
        <time>2023-10-01T09:13:31Z</time>
      </trkpt>
      <trkpt lat="48.16869" lon="6.41973">
        <ele>354.2</ele>
        <time>2023-10-01T09:13:32Z</time>
      </trkpt>
      <trkpt lat="48.16875" lon="6.41972">
        <ele>353.8</ele>
        <time>2023-10-01T09:13:33Z</time>
      </trkpt>
      <trkpt lat="48.16879" lon="6.41969">
        <ele>353.6</ele>
        <time>2023-10-01T09:13:34Z</time>
      </trkpt>
      <trkpt lat="48.16882" lon="6.41964">
        <ele>353.2</ele>
        <time>2023-10-01T09:13:35Z</time>
      </trkpt>
      <trkpt lat="48.16884" lon="6.41959">
        <ele>353</ele>
        <time>2023-10-01T09:13:36Z</time>
      </trkpt>
      <trkpt lat="48.16885" lon="6.41954">
        <ele>352.4</ele>
        <time>2023-10-01T09:13:37Z</time>
      </trkpt>
      <trkpt lat="48.16885" lon="6.41949">
        <ele>352</ele>
        <time>2023-10-01T09:13:38Z</time>
      </trkpt>
      <trkpt lat="48.16887" lon="6.41943">
        <ele>351.4</ele>
        <time>2023-10-01T09:13:39Z</time>
      </trkpt>
      <trkpt lat="48.16888" lon="6.41938">
        <ele>351.4</ele>
        <time>2023-10-01T09:13:40Z</time>
      </trkpt>
      <trkpt lat="48.16888" lon="6.41933">
        <ele>351.2</ele>
        <time>2023-10-01T09:13:41Z</time>
      </trkpt>
      <trkpt lat="48.16889" lon="6.41929">
        <ele>351.2</ele>
        <time>2023-10-01T09:13:42Z</time>
      </trkpt>
      <trkpt lat="48.16889" lon="6.41923">
        <ele>351</ele>
        <time>2023-10-01T09:13:43Z</time>
      </trkpt>
      <trkpt lat="48.1689" lon="6.41919">
        <ele>351</ele>
        <time>2023-10-01T09:13:44Z</time>
      </trkpt>
      <trkpt lat="48.16892" lon="6.41916">
        <ele>351</ele>
        <time>2023-10-01T09:13:45Z</time>
      </trkpt>
      <trkpt lat="48.16893" lon="6.41914">
        <ele>351</ele>
        <time>2023-10-01T09:13:46Z</time>
      </trkpt>
      <trkpt lat="48.16896" lon="6.41912">
        <ele>351.2</ele>
        <time>2023-10-01T09:13:47Z</time>
      </trkpt>
      <trkpt lat="48.16898" lon="6.41909">
        <ele>351.4</ele>
        <time>2023-10-01T09:13:48Z</time>
      </trkpt>
      <trkpt lat="48.16901" lon="6.41906">
        <ele>351.6</ele>
        <time>2023-10-01T09:13:49Z</time>
      </trkpt>
      <trkpt lat="48.16903" lon="6.41904">
        <ele>351.8</ele>
        <time>2023-10-01T09:13:50Z</time>
      </trkpt>
      <trkpt lat="48.16904" lon="6.41902">
        <ele>352</ele>
        <time>2023-10-01T09:13:51Z</time>
      </trkpt>
      <trkpt lat="48.16907" lon="6.419">
        <ele>352.2</ele>
        <time>2023-10-01T09:13:52Z</time>
      </trkpt>
    </trkseg>
  </trk>
</gpx>